<?xml version="1.0" encoding="UTF-8" standalone="no" ?>
<gpx xmlns="http://www.topografix.com/GPX/1/1" xmlns:xsi="http://www.w3.org/2001/XMLSchema-instance" xsi:schemaLocation="http://www.topografix.com/GPX/1/1 http://www.topografix.com/GPX/1/1/gpx.xsd" version="1.1" creator="VisuGPX - https://www.visugpx.com">
  <metadata>
    <name>E 901</name>
  </metadata>
  <trk>
    <name><![CDATA[Sortie vélo le matin]]></name>
    <trkseg>
      <trkpt lat="49.2864" lon="-0.11872">
        <ele>5</ele>
        <time>2024-10-13T06:33:02Z</time>
      </trkpt>
      <trkpt lat="49.28638" lon="-0.11868">
        <ele>5</ele>
        <time>2024-10-13T06:33:03Z</time>
      </trkpt>
      <trkpt lat="49.28637" lon="-0.11864">
        <ele>5</ele>
        <time>2024-10-13T06:33:04Z</time>
      </trkpt>
      <trkpt lat="49.28635" lon="-0.1186">
        <ele>5</ele>
        <time>2024-10-13T06:33:05Z</time>
      </trkpt>
      <trkpt lat="49.28633" lon="-0.11856">
        <ele>5</ele>
        <time>2024-10-13T06:33:06Z</time>
      </trkpt>
      <trkpt lat="49.28632" lon="-0.11851">
        <ele>5</ele>
        <time>2024-10-13T06:33:07Z</time>
      </trkpt>
      <trkpt lat="49.28631" lon="-0.11847">
        <ele>5</ele>
        <time>2024-10-13T06:33:08Z</time>
      </trkpt>
      <trkpt lat="49.2863" lon="-0.11842">
        <ele>5</ele>
        <time>2024-10-13T06:33:09Z</time>
      </trkpt>
      <trkpt lat="49.2863" lon="-0.11837">
        <ele>5</ele>
        <time>2024-10-13T06:33:10Z</time>
      </trkpt>
      <trkpt lat="49.2863" lon="-0.11831">
        <ele>5</ele>
        <time>2024-10-13T06:33:11Z</time>
      </trkpt>
      <trkpt lat="49.28631" lon="-0.11825">
        <ele>5</ele>
        <time>2024-10-13T06:33:12Z</time>
      </trkpt>
      <trkpt lat="49.28633" lon="-0.11819">
        <ele>5</ele>
        <time>2024-10-13T06:33:13Z</time>
      </trkpt>
      <trkpt lat="49.28635" lon="-0.11813">
        <ele>5</ele>
        <time>2024-10-13T06:33:14Z</time>
      </trkpt>
      <trkpt lat="49.28637" lon="-0.11807">
        <ele>5</ele>
        <time>2024-10-13T06:33:15Z</time>
      </trkpt>
      <trkpt lat="49.28639" lon="-0.118">
        <ele>5</ele>
        <time>2024-10-13T06:33:16Z</time>
      </trkpt>
      <trkpt lat="49.28641" lon="-0.11794">
        <ele>5.2</ele>
        <time>2024-10-13T06:33:17Z</time>
      </trkpt>
      <trkpt lat="49.28643" lon="-0.11787">
        <ele>5.2</ele>
        <time>2024-10-13T06:33:18Z</time>
      </trkpt>
      <trkpt lat="49.28645" lon="-0.1178">
        <ele>5.2</ele>
        <time>2024-10-13T06:33:19Z</time>
      </trkpt>
      <trkpt lat="49.28646" lon="-0.11773">
        <ele>5</ele>
        <time>2024-10-13T06:33:20Z</time>
      </trkpt>
      <trkpt lat="49.28648" lon="-0.11766">
        <ele>5</ele>
        <time>2024-10-13T06:33:21Z</time>
      </trkpt>
      <trkpt lat="49.2865" lon="-0.1176">
        <ele>5</ele>
        <time>2024-10-13T06:33:23Z</time>
      </trkpt>
      <trkpt lat="49.28652" lon="-0.11752">
        <ele>5</ele>
        <time>2024-10-13T06:33:24Z</time>
      </trkpt>
      <trkpt lat="49.28653" lon="-0.11745">
        <ele>5</ele>
        <time>2024-10-13T06:33:25Z</time>
      </trkpt>
      <trkpt lat="49.28654" lon="-0.11737">
        <ele>5</ele>
        <time>2024-10-13T06:33:26Z</time>
      </trkpt>
      <trkpt lat="49.28655" lon="-0.11729">
        <ele>5</ele>
        <time>2024-10-13T06:33:27Z</time>
      </trkpt>
      <trkpt lat="49.28657" lon="-0.11722">
        <ele>5</ele>
        <time>2024-10-13T06:33:28Z</time>
      </trkpt>
      <trkpt lat="49.28659" lon="-0.11714">
        <ele>5</ele>
        <time>2024-10-13T06:33:29Z</time>
      </trkpt>
      <trkpt lat="49.28661" lon="-0.11707">
        <ele>5</ele>
        <time>2024-10-13T06:33:30Z</time>
      </trkpt>
      <trkpt lat="49.28663" lon="-0.11698">
        <ele>5</ele>
        <time>2024-10-13T06:33:31Z</time>
      </trkpt>
      <trkpt lat="49.28663" lon="-0.11692">
        <ele>5</ele>
        <time>2024-10-13T06:33:32Z</time>
      </trkpt>
      <trkpt lat="49.28664" lon="-0.11686">
        <ele>5</ele>
        <time>2024-10-13T06:33:33Z</time>
      </trkpt>
      <trkpt lat="49.28663" lon="-0.11679">
        <ele>5</ele>
        <time>2024-10-13T06:33:34Z</time>
      </trkpt>
      <trkpt lat="49.2866" lon="-0.11673">
        <ele>5</ele>
        <time>2024-10-13T06:33:35Z</time>
      </trkpt>
      <trkpt lat="49.28657" lon="-0.11671">
        <ele>5</ele>
        <time>2024-10-13T06:33:36Z</time>
      </trkpt>
      <trkpt lat="49.28652" lon="-0.11671">
        <ele>5</ele>
        <time>2024-10-13T06:33:37Z</time>
      </trkpt>
      <trkpt lat="49.28646" lon="-0.11672">
        <ele>5</ele>
        <time>2024-10-13T06:33:38Z</time>
      </trkpt>
      <trkpt lat="49.28641" lon="-0.11673">
        <ele>5</ele>
        <time>2024-10-13T06:33:39Z</time>
      </trkpt>
      <trkpt lat="49.28636" lon="-0.11676">
        <ele>5</ele>
        <time>2024-10-13T06:33:40Z</time>
      </trkpt>
      <trkpt lat="49.28631" lon="-0.11678">
        <ele>5</ele>
        <time>2024-10-13T06:33:41Z</time>
      </trkpt>
      <trkpt lat="49.28626" lon="-0.11681">
        <ele>5</ele>
        <time>2024-10-13T06:33:42Z</time>
      </trkpt>
      <trkpt lat="49.28621" lon="-0.11683">
        <ele>5</ele>
        <time>2024-10-13T06:33:43Z</time>
      </trkpt>
      <trkpt lat="49.28616" lon="-0.11686">
        <ele>5</ele>
        <time>2024-10-13T06:33:44Z</time>
      </trkpt>
      <trkpt lat="49.28611" lon="-0.11688">
        <ele>5</ele>
        <time>2024-10-13T06:33:45Z</time>
      </trkpt>
      <trkpt lat="49.28606" lon="-0.1169">
        <ele>5</ele>
        <time>2024-10-13T06:33:46Z</time>
      </trkpt>
      <trkpt lat="49.286" lon="-0.11692">
        <ele>5</ele>
        <time>2024-10-13T06:33:47Z</time>
      </trkpt>
      <trkpt lat="49.28595" lon="-0.11695">
        <ele>5</ele>
        <time>2024-10-13T06:33:48Z</time>
      </trkpt>
      <trkpt lat="49.28589" lon="-0.11697">
        <ele>5</ele>
        <time>2024-10-13T06:33:49Z</time>
      </trkpt>
      <trkpt lat="49.28583" lon="-0.11698">
        <ele>5</ele>
        <time>2024-10-13T06:33:50Z</time>
      </trkpt>
      <trkpt lat="49.28577" lon="-0.117">
        <ele>5</ele>
        <time>2024-10-13T06:33:51Z</time>
      </trkpt>
      <trkpt lat="49.28572" lon="-0.11701">
        <ele>5</ele>
        <time>2024-10-13T06:33:52Z</time>
      </trkpt>
      <trkpt lat="49.28566" lon="-0.11702">
        <ele>5.2</ele>
        <time>2024-10-13T06:33:53Z</time>
      </trkpt>
      <trkpt lat="49.2856" lon="-0.11702">
        <ele>5.2</ele>
        <time>2024-10-13T06:33:54Z</time>
      </trkpt>
      <trkpt lat="49.28554" lon="-0.11702">
        <ele>5.2</ele>
        <time>2024-10-13T06:33:55Z</time>
      </trkpt>
      <trkpt lat="49.28549" lon="-0.11703">
        <ele>5.2</ele>
        <time>2024-10-13T06:33:56Z</time>
      </trkpt>
      <trkpt lat="49.28543" lon="-0.11703">
        <ele>5.2</ele>
        <time>2024-10-13T06:33:57Z</time>
      </trkpt>
      <trkpt lat="49.28536" lon="-0.11704">
        <ele>5.2</ele>
        <time>2024-10-13T06:33:58Z</time>
      </trkpt>
      <trkpt lat="49.2853" lon="-0.11704">
        <ele>5.2</ele>
        <time>2024-10-13T06:33:59Z</time>
      </trkpt>
      <trkpt lat="49.28524" lon="-0.11703">
        <ele>5.2</ele>
        <time>2024-10-13T06:34:00Z</time>
      </trkpt>
      <trkpt lat="49.28517" lon="-0.11702">
        <ele>5.2</ele>
        <time>2024-10-13T06:34:01Z</time>
      </trkpt>
      <trkpt lat="49.28511" lon="-0.117">
        <ele>5.2</ele>
        <time>2024-10-13T06:34:02Z</time>
      </trkpt>
      <trkpt lat="49.28504" lon="-0.11699">
        <ele>5.2</ele>
        <time>2024-10-13T06:34:03Z</time>
      </trkpt>
      <trkpt lat="49.28498" lon="-0.11698">
        <ele>5.2</ele>
        <time>2024-10-13T06:34:04Z</time>
      </trkpt>
      <trkpt lat="49.28492" lon="-0.11697">
        <ele>5</ele>
        <time>2024-10-13T06:34:05Z</time>
      </trkpt>
      <trkpt lat="49.28486" lon="-0.11695">
        <ele>5</ele>
        <time>2024-10-13T06:34:06Z</time>
      </trkpt>
      <trkpt lat="49.2848" lon="-0.11694">
        <ele>5</ele>
        <time>2024-10-13T06:34:07Z</time>
      </trkpt>
      <trkpt lat="49.28474" lon="-0.11692">
        <ele>5</ele>
        <time>2024-10-13T06:34:08Z</time>
      </trkpt>
      <trkpt lat="49.28468" lon="-0.11691">
        <ele>5</ele>
        <time>2024-10-13T06:34:09Z</time>
      </trkpt>
      <trkpt lat="49.28462" lon="-0.11689">
        <ele>5</ele>
        <time>2024-10-13T06:34:10Z</time>
      </trkpt>
      <trkpt lat="49.28456" lon="-0.11688">
        <ele>5</ele>
        <time>2024-10-13T06:34:11Z</time>
      </trkpt>
      <trkpt lat="49.2845" lon="-0.11687">
        <ele>5</ele>
        <time>2024-10-13T06:34:12Z</time>
      </trkpt>
      <trkpt lat="49.28444" lon="-0.11685">
        <ele>5</ele>
        <time>2024-10-13T06:34:13Z</time>
      </trkpt>
      <trkpt lat="49.28438" lon="-0.11684">
        <ele>5</ele>
        <time>2024-10-13T06:34:14Z</time>
      </trkpt>
      <trkpt lat="49.28433" lon="-0.11682">
        <ele>5</ele>
        <time>2024-10-13T06:34:15Z</time>
      </trkpt>
      <trkpt lat="49.28427" lon="-0.11681">
        <ele>5</ele>
        <time>2024-10-13T06:34:16Z</time>
      </trkpt>
      <trkpt lat="49.28421" lon="-0.11679">
        <ele>5</ele>
        <time>2024-10-13T06:34:17Z</time>
      </trkpt>
      <trkpt lat="49.28415" lon="-0.11678">
        <ele>5</ele>
        <time>2024-10-13T06:34:18Z</time>
      </trkpt>
      <trkpt lat="49.28409" lon="-0.11676">
        <ele>5</ele>
        <time>2024-10-13T06:34:19Z</time>
      </trkpt>
      <trkpt lat="49.28403" lon="-0.11675">
        <ele>5</ele>
        <time>2024-10-13T06:34:20Z</time>
      </trkpt>
      <trkpt lat="49.28397" lon="-0.11674">
        <ele>5</ele>
        <time>2024-10-13T06:34:21Z</time>
      </trkpt>
      <trkpt lat="49.28391" lon="-0.11673">
        <ele>5</ele>
        <time>2024-10-13T06:34:22Z</time>
      </trkpt>
      <trkpt lat="49.28385" lon="-0.11672">
        <ele>5</ele>
        <time>2024-10-13T06:34:23Z</time>
      </trkpt>
      <trkpt lat="49.28379" lon="-0.1167">
        <ele>5</ele>
        <time>2024-10-13T06:34:24Z</time>
      </trkpt>
      <trkpt lat="49.28373" lon="-0.11669">
        <ele>5</ele>
        <time>2024-10-13T06:34:25Z</time>
      </trkpt>
      <trkpt lat="49.28367" lon="-0.11668">
        <ele>5</ele>
        <time>2024-10-13T06:34:26Z</time>
      </trkpt>
      <trkpt lat="49.28361" lon="-0.11666">
        <ele>5</ele>
        <time>2024-10-13T06:34:27Z</time>
      </trkpt>
      <trkpt lat="49.28354" lon="-0.11665">
        <ele>5</ele>
        <time>2024-10-13T06:34:28Z</time>
      </trkpt>
      <trkpt lat="49.28348" lon="-0.11663">
        <ele>5</ele>
        <time>2024-10-13T06:34:29Z</time>
      </trkpt>
      <trkpt lat="49.28342" lon="-0.11662">
        <ele>5</ele>
        <time>2024-10-13T06:34:30Z</time>
      </trkpt>
      <trkpt lat="49.28336" lon="-0.11661">
        <ele>4.8</ele>
        <time>2024-10-13T06:34:31Z</time>
      </trkpt>
      <trkpt lat="49.28331" lon="-0.1166">
        <ele>4.8</ele>
        <time>2024-10-13T06:34:32Z</time>
      </trkpt>
      <trkpt lat="49.28325" lon="-0.11658">
        <ele>4.8</ele>
        <time>2024-10-13T06:34:33Z</time>
      </trkpt>
      <trkpt lat="49.28319" lon="-0.11657">
        <ele>4.8</ele>
        <time>2024-10-13T06:34:34Z</time>
      </trkpt>
      <trkpt lat="49.28313" lon="-0.11656">
        <ele>4.6</ele>
        <time>2024-10-13T06:34:35Z</time>
      </trkpt>
      <trkpt lat="49.28307" lon="-0.11657">
        <ele>4.6</ele>
        <time>2024-10-13T06:34:36Z</time>
      </trkpt>
      <trkpt lat="49.28302" lon="-0.11659">
        <ele>4.6</ele>
        <time>2024-10-13T06:34:37Z</time>
      </trkpt>
      <trkpt lat="49.28296" lon="-0.11662">
        <ele>4.6</ele>
        <time>2024-10-13T06:34:38Z</time>
      </trkpt>
      <trkpt lat="49.28291" lon="-0.11665">
        <ele>4.6</ele>
        <time>2024-10-13T06:34:39Z</time>
      </trkpt>
      <trkpt lat="49.28286" lon="-0.11668">
        <ele>4.4</ele>
        <time>2024-10-13T06:34:40Z</time>
      </trkpt>
      <trkpt lat="49.2828" lon="-0.11669">
        <ele>4.4</ele>
        <time>2024-10-13T06:34:41Z</time>
      </trkpt>
      <trkpt lat="49.28274" lon="-0.11669">
        <ele>4.4</ele>
        <time>2024-10-13T06:34:42Z</time>
      </trkpt>
      <trkpt lat="49.28268" lon="-0.11667">
        <ele>4.4</ele>
        <time>2024-10-13T06:34:43Z</time>
      </trkpt>
      <trkpt lat="49.28263" lon="-0.11664">
        <ele>4.4</ele>
        <time>2024-10-13T06:34:44Z</time>
      </trkpt>
      <trkpt lat="49.28257" lon="-0.11661">
        <ele>4.4</ele>
        <time>2024-10-13T06:34:45Z</time>
      </trkpt>
      <trkpt lat="49.28252" lon="-0.11657">
        <ele>4.4</ele>
        <time>2024-10-13T06:34:46Z</time>
      </trkpt>
      <trkpt lat="49.28246" lon="-0.11653">
        <ele>4.4</ele>
        <time>2024-10-13T06:34:47Z</time>
      </trkpt>
      <trkpt lat="49.2824" lon="-0.1165">
        <ele>4.4</ele>
        <time>2024-10-13T06:34:48Z</time>
      </trkpt>
      <trkpt lat="49.28235" lon="-0.11649">
        <ele>4.4</ele>
        <time>2024-10-13T06:34:49Z</time>
      </trkpt>
      <trkpt lat="49.28229" lon="-0.11647">
        <ele>4.4</ele>
        <time>2024-10-13T06:34:50Z</time>
      </trkpt>
      <trkpt lat="49.28223" lon="-0.11647">
        <ele>4.4</ele>
        <time>2024-10-13T06:34:51Z</time>
      </trkpt>
      <trkpt lat="49.28217" lon="-0.11646">
        <ele>4.6</ele>
        <time>2024-10-13T06:34:52Z</time>
      </trkpt>
      <trkpt lat="49.28211" lon="-0.11646">
        <ele>4.6</ele>
        <time>2024-10-13T06:34:53Z</time>
      </trkpt>
      <trkpt lat="49.28205" lon="-0.11646">
        <ele>4.6</ele>
        <time>2024-10-13T06:34:54Z</time>
      </trkpt>
      <trkpt lat="49.28198" lon="-0.11646">
        <ele>4.6</ele>
        <time>2024-10-13T06:34:55Z</time>
      </trkpt>
      <trkpt lat="49.28192" lon="-0.11646">
        <ele>4.6</ele>
        <time>2024-10-13T06:34:56Z</time>
      </trkpt>
      <trkpt lat="49.28186" lon="-0.11646">
        <ele>4.8</ele>
        <time>2024-10-13T06:34:57Z</time>
      </trkpt>
      <trkpt lat="49.28179" lon="-0.11645">
        <ele>4.8</ele>
        <time>2024-10-13T06:34:58Z</time>
      </trkpt>
      <trkpt lat="49.28173" lon="-0.11645">
        <ele>5</ele>
        <time>2024-10-13T06:34:59Z</time>
      </trkpt>
      <trkpt lat="49.28167" lon="-0.11645">
        <ele>5</ele>
        <time>2024-10-13T06:35:00Z</time>
      </trkpt>
      <trkpt lat="49.2816" lon="-0.11645">
        <ele>5</ele>
        <time>2024-10-13T06:35:01Z</time>
      </trkpt>
      <trkpt lat="49.28154" lon="-0.11644">
        <ele>5</ele>
        <time>2024-10-13T06:35:02Z</time>
      </trkpt>
      <trkpt lat="49.28147" lon="-0.11644">
        <ele>5</ele>
        <time>2024-10-13T06:35:03Z</time>
      </trkpt>
      <trkpt lat="49.28141" lon="-0.11643">
        <ele>5</ele>
        <time>2024-10-13T06:35:04Z</time>
      </trkpt>
      <trkpt lat="49.28135" lon="-0.11643">
        <ele>5</ele>
        <time>2024-10-13T06:35:05Z</time>
      </trkpt>
      <trkpt lat="49.28129" lon="-0.11643">
        <ele>5</ele>
        <time>2024-10-13T06:35:06Z</time>
      </trkpt>
      <trkpt lat="49.28123" lon="-0.11643">
        <ele>5</ele>
        <time>2024-10-13T06:35:07Z</time>
      </trkpt>
      <trkpt lat="49.28116" lon="-0.11642">
        <ele>5</ele>
        <time>2024-10-13T06:35:08Z</time>
      </trkpt>
      <trkpt lat="49.2811" lon="-0.11642">
        <ele>5</ele>
        <time>2024-10-13T06:35:09Z</time>
      </trkpt>
      <trkpt lat="49.28104" lon="-0.11642">
        <ele>5</ele>
        <time>2024-10-13T06:35:10Z</time>
      </trkpt>
      <trkpt lat="49.28097" lon="-0.11641">
        <ele>4.8</ele>
        <time>2024-10-13T06:35:11Z</time>
      </trkpt>
      <trkpt lat="49.28091" lon="-0.11641">
        <ele>4.8</ele>
        <time>2024-10-13T06:35:12Z</time>
      </trkpt>
      <trkpt lat="49.28084" lon="-0.11641">
        <ele>4.8</ele>
        <time>2024-10-13T06:35:13Z</time>
      </trkpt>
      <trkpt lat="49.28077" lon="-0.11641">
        <ele>4.8</ele>
        <time>2024-10-13T06:35:14Z</time>
      </trkpt>
      <trkpt lat="49.2807" lon="-0.11641">
        <ele>4.8</ele>
        <time>2024-10-13T06:35:15Z</time>
      </trkpt>
      <trkpt lat="49.28063" lon="-0.11641">
        <ele>4.8</ele>
        <time>2024-10-13T06:35:16Z</time>
      </trkpt>
      <trkpt lat="49.28057" lon="-0.11641">
        <ele>4.6</ele>
        <time>2024-10-13T06:35:17Z</time>
      </trkpt>
      <trkpt lat="49.2805" lon="-0.11642">
        <ele>4.6</ele>
        <time>2024-10-13T06:35:18Z</time>
      </trkpt>
      <trkpt lat="49.28043" lon="-0.11641">
        <ele>4.6</ele>
        <time>2024-10-13T06:35:19Z</time>
      </trkpt>
      <trkpt lat="49.28036" lon="-0.11641">
        <ele>4.6</ele>
        <time>2024-10-13T06:35:20Z</time>
      </trkpt>
      <trkpt lat="49.2803" lon="-0.11642">
        <ele>4.4</ele>
        <time>2024-10-13T06:35:21Z</time>
      </trkpt>
      <trkpt lat="49.28023" lon="-0.11642">
        <ele>4.4</ele>
        <time>2024-10-13T06:35:22Z</time>
      </trkpt>
      <trkpt lat="49.28016" lon="-0.11643">
        <ele>4.4</ele>
        <time>2024-10-13T06:35:23Z</time>
      </trkpt>
      <trkpt lat="49.2801" lon="-0.11643">
        <ele>4.4</ele>
        <time>2024-10-13T06:35:24Z</time>
      </trkpt>
      <trkpt lat="49.28003" lon="-0.11644">
        <ele>4.4</ele>
        <time>2024-10-13T06:35:25Z</time>
      </trkpt>
      <trkpt lat="49.27996" lon="-0.11644">
        <ele>4.4</ele>
        <time>2024-10-13T06:35:26Z</time>
      </trkpt>
      <trkpt lat="49.2799" lon="-0.11645">
        <ele>4.4</ele>
        <time>2024-10-13T06:35:27Z</time>
      </trkpt>
      <trkpt lat="49.27983" lon="-0.11645">
        <ele>4.4</ele>
        <time>2024-10-13T06:35:28Z</time>
      </trkpt>
      <trkpt lat="49.27977" lon="-0.11645">
        <ele>4.4</ele>
        <time>2024-10-13T06:35:29Z</time>
      </trkpt>
      <trkpt lat="49.2797" lon="-0.11645">
        <ele>4.4</ele>
        <time>2024-10-13T06:35:30Z</time>
      </trkpt>
      <trkpt lat="49.27964" lon="-0.11645">
        <ele>4.6</ele>
        <time>2024-10-13T06:35:31Z</time>
      </trkpt>
      <trkpt lat="49.27957" lon="-0.11645">
        <ele>4.6</ele>
        <time>2024-10-13T06:35:32Z</time>
      </trkpt>
      <trkpt lat="49.27951" lon="-0.11646">
        <ele>4.6</ele>
        <time>2024-10-13T06:35:33Z</time>
      </trkpt>
      <trkpt lat="49.27944" lon="-0.11647">
        <ele>4.6</ele>
        <time>2024-10-13T06:35:34Z</time>
      </trkpt>
      <trkpt lat="49.27938" lon="-0.11647">
        <ele>4.6</ele>
        <time>2024-10-13T06:35:35Z</time>
      </trkpt>
      <trkpt lat="49.27932" lon="-0.11647">
        <ele>4.6</ele>
        <time>2024-10-13T06:35:36Z</time>
      </trkpt>
      <trkpt lat="49.27926" lon="-0.11647">
        <ele>4.6</ele>
        <time>2024-10-13T06:35:37Z</time>
      </trkpt>
      <trkpt lat="49.2792" lon="-0.11647">
        <ele>4.6</ele>
        <time>2024-10-13T06:35:38Z</time>
      </trkpt>
      <trkpt lat="49.27913" lon="-0.11647">
        <ele>4.6</ele>
        <time>2024-10-13T06:35:39Z</time>
      </trkpt>
      <trkpt lat="49.27907" lon="-0.11647">
        <ele>4.6</ele>
        <time>2024-10-13T06:35:40Z</time>
      </trkpt>
      <trkpt lat="49.279" lon="-0.11647">
        <ele>4.6</ele>
        <time>2024-10-13T06:35:41Z</time>
      </trkpt>
      <trkpt lat="49.27894" lon="-0.11648">
        <ele>4.6</ele>
        <time>2024-10-13T06:35:42Z</time>
      </trkpt>
      <trkpt lat="49.27887" lon="-0.11648">
        <ele>4.6</ele>
        <time>2024-10-13T06:35:43Z</time>
      </trkpt>
      <trkpt lat="49.27881" lon="-0.11648">
        <ele>4.6</ele>
        <time>2024-10-13T06:35:44Z</time>
      </trkpt>
      <trkpt lat="49.27874" lon="-0.11649">
        <ele>4.6</ele>
        <time>2024-10-13T06:35:45Z</time>
      </trkpt>
      <trkpt lat="49.27867" lon="-0.11649">
        <ele>4.6</ele>
        <time>2024-10-13T06:35:46Z</time>
      </trkpt>
      <trkpt lat="49.27861" lon="-0.1165">
        <ele>4.6</ele>
        <time>2024-10-13T06:35:47Z</time>
      </trkpt>
      <trkpt lat="49.27855" lon="-0.11652">
        <ele>4.6</ele>
        <time>2024-10-13T06:35:48Z</time>
      </trkpt>
      <trkpt lat="49.27849" lon="-0.11654">
        <ele>4.6</ele>
        <time>2024-10-13T06:35:49Z</time>
      </trkpt>
      <trkpt lat="49.27843" lon="-0.11656">
        <ele>4.6</ele>
        <time>2024-10-13T06:35:50Z</time>
      </trkpt>
      <trkpt lat="49.27836" lon="-0.11659">
        <ele>4.6</ele>
        <time>2024-10-13T06:35:51Z</time>
      </trkpt>
      <trkpt lat="49.2783" lon="-0.11662">
        <ele>4.6</ele>
        <time>2024-10-13T06:35:52Z</time>
      </trkpt>
      <trkpt lat="49.27824" lon="-0.11665">
        <ele>4.6</ele>
        <time>2024-10-13T06:35:53Z</time>
      </trkpt>
      <trkpt lat="49.27817" lon="-0.11668">
        <ele>4.6</ele>
        <time>2024-10-13T06:35:54Z</time>
      </trkpt>
      <trkpt lat="49.27811" lon="-0.11672">
        <ele>4.6</ele>
        <time>2024-10-13T06:35:55Z</time>
      </trkpt>
      <trkpt lat="49.27805" lon="-0.11676">
        <ele>4.4</ele>
        <time>2024-10-13T06:35:56Z</time>
      </trkpt>
      <trkpt lat="49.27799" lon="-0.11679">
        <ele>4.4</ele>
        <time>2024-10-13T06:35:57Z</time>
      </trkpt>
      <trkpt lat="49.27793" lon="-0.11682">
        <ele>4.4</ele>
        <time>2024-10-13T06:35:58Z</time>
      </trkpt>
      <trkpt lat="49.27786" lon="-0.11686">
        <ele>4.4</ele>
        <time>2024-10-13T06:35:59Z</time>
      </trkpt>
      <trkpt lat="49.2778" lon="-0.1169">
        <ele>4.4</ele>
        <time>2024-10-13T06:36:00Z</time>
      </trkpt>
      <trkpt lat="49.27774" lon="-0.11694">
        <ele>4.2</ele>
        <time>2024-10-13T06:36:01Z</time>
      </trkpt>
      <trkpt lat="49.27768" lon="-0.11698">
        <ele>4</ele>
        <time>2024-10-13T06:36:02Z</time>
      </trkpt>
      <trkpt lat="49.27762" lon="-0.11702">
        <ele>3.8</ele>
        <time>2024-10-13T06:36:03Z</time>
      </trkpt>
      <trkpt lat="49.27756" lon="-0.11706">
        <ele>3.6</ele>
        <time>2024-10-13T06:36:04Z</time>
      </trkpt>
      <trkpt lat="49.2775" lon="-0.11709">
        <ele>3.6</ele>
        <time>2024-10-13T06:36:05Z</time>
      </trkpt>
      <trkpt lat="49.27743" lon="-0.11712">
        <ele>3.4</ele>
        <time>2024-10-13T06:36:06Z</time>
      </trkpt>
      <trkpt lat="49.27737" lon="-0.11715">
        <ele>3.4</ele>
        <time>2024-10-13T06:36:07Z</time>
      </trkpt>
      <trkpt lat="49.2773" lon="-0.11717">
        <ele>3.4</ele>
        <time>2024-10-13T06:36:08Z</time>
      </trkpt>
      <trkpt lat="49.27724" lon="-0.11719">
        <ele>3.4</ele>
        <time>2024-10-13T06:36:09Z</time>
      </trkpt>
      <trkpt lat="49.27717" lon="-0.11719">
        <ele>3.4</ele>
        <time>2024-10-13T06:36:10Z</time>
      </trkpt>
      <trkpt lat="49.27711" lon="-0.11719">
        <ele>3.2</ele>
        <time>2024-10-13T06:36:11Z</time>
      </trkpt>
      <trkpt lat="49.27704" lon="-0.11719">
        <ele>3.2</ele>
        <time>2024-10-13T06:36:12Z</time>
      </trkpt>
      <trkpt lat="49.27698" lon="-0.11719">
        <ele>3.2</ele>
        <time>2024-10-13T06:36:13Z</time>
      </trkpt>
      <trkpt lat="49.27691" lon="-0.11717">
        <ele>3.2</ele>
        <time>2024-10-13T06:36:14Z</time>
      </trkpt>
      <trkpt lat="49.27684" lon="-0.11715">
        <ele>3.2</ele>
        <time>2024-10-13T06:36:15Z</time>
      </trkpt>
      <trkpt lat="49.27678" lon="-0.11713">
        <ele>3.2</ele>
        <time>2024-10-13T06:36:16Z</time>
      </trkpt>
      <trkpt lat="49.27671" lon="-0.11711">
        <ele>3.2</ele>
        <time>2024-10-13T06:36:17Z</time>
      </trkpt>
      <trkpt lat="49.27665" lon="-0.11708">
        <ele>3.2</ele>
        <time>2024-10-13T06:36:18Z</time>
      </trkpt>
      <trkpt lat="49.27659" lon="-0.11704">
        <ele>3.2</ele>
        <time>2024-10-13T06:36:19Z</time>
      </trkpt>
      <trkpt lat="49.27652" lon="-0.11701">
        <ele>3.2</ele>
        <time>2024-10-13T06:36:20Z</time>
      </trkpt>
      <trkpt lat="49.27646" lon="-0.11697">
        <ele>3.2</ele>
        <time>2024-10-13T06:36:21Z</time>
      </trkpt>
      <trkpt lat="49.2764" lon="-0.11693">
        <ele>3.2</ele>
        <time>2024-10-13T06:36:22Z</time>
      </trkpt>
      <trkpt lat="49.27633" lon="-0.1169">
        <ele>3.4</ele>
        <time>2024-10-13T06:36:23Z</time>
      </trkpt>
      <trkpt lat="49.27627" lon="-0.11687">
        <ele>3.4</ele>
        <time>2024-10-13T06:36:24Z</time>
      </trkpt>
      <trkpt lat="49.2762" lon="-0.11684">
        <ele>3.4</ele>
        <time>2024-10-13T06:36:25Z</time>
      </trkpt>
      <trkpt lat="49.27614" lon="-0.11681">
        <ele>3.4</ele>
        <time>2024-10-13T06:36:26Z</time>
      </trkpt>
      <trkpt lat="49.27607" lon="-0.11677">
        <ele>3.4</ele>
        <time>2024-10-13T06:36:27Z</time>
      </trkpt>
      <trkpt lat="49.27602" lon="-0.11675">
        <ele>3.2</ele>
        <time>2024-10-13T06:36:28Z</time>
      </trkpt>
      <trkpt lat="49.27595" lon="-0.11671">
        <ele>3.2</ele>
        <time>2024-10-13T06:36:29Z</time>
      </trkpt>
      <trkpt lat="49.27588" lon="-0.11668">
        <ele>3.2</ele>
        <time>2024-10-13T06:36:30Z</time>
      </trkpt>
      <trkpt lat="49.27582" lon="-0.11666">
        <ele>3.2</ele>
        <time>2024-10-13T06:36:31Z</time>
      </trkpt>
      <trkpt lat="49.27575" lon="-0.11665">
        <ele>3.4</ele>
        <time>2024-10-13T06:36:32Z</time>
      </trkpt>
      <trkpt lat="49.27568" lon="-0.11664">
        <ele>3.4</ele>
        <time>2024-10-13T06:36:33Z</time>
      </trkpt>
      <trkpt lat="49.27562" lon="-0.11663">
        <ele>3.4</ele>
        <time>2024-10-13T06:36:34Z</time>
      </trkpt>
      <trkpt lat="49.27555" lon="-0.11662">
        <ele>3.6</ele>
        <time>2024-10-13T06:36:35Z</time>
      </trkpt>
      <trkpt lat="49.27548" lon="-0.11662">
        <ele>3.6</ele>
        <time>2024-10-13T06:36:36Z</time>
      </trkpt>
      <trkpt lat="49.27542" lon="-0.11663">
        <ele>3.6</ele>
        <time>2024-10-13T06:36:37Z</time>
      </trkpt>
      <trkpt lat="49.27535" lon="-0.11663">
        <ele>3.6</ele>
        <time>2024-10-13T06:36:38Z</time>
      </trkpt>
      <trkpt lat="49.27528" lon="-0.11664">
        <ele>3.6</ele>
        <time>2024-10-13T06:36:39Z</time>
      </trkpt>
      <trkpt lat="49.27521" lon="-0.11663">
        <ele>3.6</ele>
        <time>2024-10-13T06:36:40Z</time>
      </trkpt>
      <trkpt lat="49.27515" lon="-0.11664">
        <ele>3.8</ele>
        <time>2024-10-13T06:36:41Z</time>
      </trkpt>
      <trkpt lat="49.27508" lon="-0.11664">
        <ele>3.8</ele>
        <time>2024-10-13T06:36:42Z</time>
      </trkpt>
      <trkpt lat="49.27501" lon="-0.11665">
        <ele>3.8</ele>
        <time>2024-10-13T06:36:43Z</time>
      </trkpt>
      <trkpt lat="49.27495" lon="-0.11666">
        <ele>3.8</ele>
        <time>2024-10-13T06:36:44Z</time>
      </trkpt>
      <trkpt lat="49.27488" lon="-0.11666">
        <ele>3.8</ele>
        <time>2024-10-13T06:36:45Z</time>
      </trkpt>
      <trkpt lat="49.27482" lon="-0.11667">
        <ele>4</ele>
        <time>2024-10-13T06:36:46Z</time>
      </trkpt>
      <trkpt lat="49.27476" lon="-0.11667">
        <ele>4</ele>
        <time>2024-10-13T06:36:47Z</time>
      </trkpt>
      <trkpt lat="49.2747" lon="-0.11668">
        <ele>4</ele>
        <time>2024-10-13T06:36:48Z</time>
      </trkpt>
      <trkpt lat="49.27464" lon="-0.11668">
        <ele>4</ele>
        <time>2024-10-13T06:36:49Z</time>
      </trkpt>
      <trkpt lat="49.27458" lon="-0.11668">
        <ele>4</ele>
        <time>2024-10-13T06:36:50Z</time>
      </trkpt>
      <trkpt lat="49.27452" lon="-0.11668">
        <ele>4</ele>
        <time>2024-10-13T06:36:51Z</time>
      </trkpt>
      <trkpt lat="49.27448" lon="-0.11669">
        <ele>4</ele>
        <time>2024-10-13T06:36:52Z</time>
      </trkpt>
      <trkpt lat="49.27443" lon="-0.11669">
        <ele>4.2</ele>
        <time>2024-10-13T06:36:53Z</time>
      </trkpt>
      <trkpt lat="49.27439" lon="-0.11669">
        <ele>4.2</ele>
        <time>2024-10-13T06:36:54Z</time>
      </trkpt>
      <trkpt lat="49.27435" lon="-0.11669">
        <ele>4.2</ele>
        <time>2024-10-13T06:36:55Z</time>
      </trkpt>
      <trkpt lat="49.27432" lon="-0.11669">
        <ele>4.2</ele>
        <time>2024-10-13T06:36:56Z</time>
      </trkpt>
      <trkpt lat="49.27428" lon="-0.11669">
        <ele>4.2</ele>
        <time>2024-10-13T06:36:57Z</time>
      </trkpt>
      <trkpt lat="49.27426" lon="-0.11669">
        <ele>4.4</ele>
        <time>2024-10-13T06:36:58Z</time>
      </trkpt>
      <trkpt lat="49.27423" lon="-0.11669">
        <ele>4.4</ele>
        <time>2024-10-13T06:36:59Z</time>
      </trkpt>
      <trkpt lat="49.2742" lon="-0.11668">
        <ele>4.4</ele>
        <time>2024-10-13T06:37:00Z</time>
      </trkpt>
      <trkpt lat="49.27417" lon="-0.11665">
        <ele>4.6</ele>
        <time>2024-10-13T06:37:01Z</time>
      </trkpt>
      <trkpt lat="49.27415" lon="-0.1166">
        <ele>4.6</ele>
        <time>2024-10-13T06:37:02Z</time>
      </trkpt>
      <trkpt lat="49.27414" lon="-0.11653">
        <ele>4.6</ele>
        <time>2024-10-13T06:37:03Z</time>
      </trkpt>
      <trkpt lat="49.27414" lon="-0.11645">
        <ele>4.6</ele>
        <time>2024-10-13T06:37:04Z</time>
      </trkpt>
      <trkpt lat="49.27415" lon="-0.11637">
        <ele>4.6</ele>
        <time>2024-10-13T06:37:05Z</time>
      </trkpt>
      <trkpt lat="49.27415" lon="-0.11629">
        <ele>4.6</ele>
        <time>2024-10-13T06:37:06Z</time>
      </trkpt>
      <trkpt lat="49.27415" lon="-0.1162">
        <ele>4.6</ele>
        <time>2024-10-13T06:37:07Z</time>
      </trkpt>
      <trkpt lat="49.27415" lon="-0.1161">
        <ele>4.6</ele>
        <time>2024-10-13T06:37:08Z</time>
      </trkpt>
      <trkpt lat="49.27415" lon="-0.11601">
        <ele>4.6</ele>
        <time>2024-10-13T06:37:09Z</time>
      </trkpt>
      <trkpt lat="49.27415" lon="-0.11591">
        <ele>4.6</ele>
        <time>2024-10-13T06:37:10Z</time>
      </trkpt>
      <trkpt lat="49.27415" lon="-0.11581">
        <ele>4.6</ele>
        <time>2024-10-13T06:37:11Z</time>
      </trkpt>
      <trkpt lat="49.27416" lon="-0.11572">
        <ele>4.6</ele>
        <time>2024-10-13T06:37:12Z</time>
      </trkpt>
      <trkpt lat="49.27416" lon="-0.11562">
        <ele>4.6</ele>
        <time>2024-10-13T06:37:13Z</time>
      </trkpt>
      <trkpt lat="49.27416" lon="-0.11552">
        <ele>4.6</ele>
        <time>2024-10-13T06:37:14Z</time>
      </trkpt>
      <trkpt lat="49.27416" lon="-0.11542">
        <ele>4.6</ele>
        <time>2024-10-13T06:37:15Z</time>
      </trkpt>
      <trkpt lat="49.27417" lon="-0.11532">
        <ele>4.6</ele>
        <time>2024-10-13T06:37:16Z</time>
      </trkpt>
      <trkpt lat="49.27417" lon="-0.11522">
        <ele>4.6</ele>
        <time>2024-10-13T06:37:17Z</time>
      </trkpt>
      <trkpt lat="49.27418" lon="-0.11512">
        <ele>4.6</ele>
        <time>2024-10-13T06:37:18Z</time>
      </trkpt>
      <trkpt lat="49.27418" lon="-0.11502">
        <ele>4.6</ele>
        <time>2024-10-13T06:37:19Z</time>
      </trkpt>
      <trkpt lat="49.27418" lon="-0.11492">
        <ele>4.6</ele>
        <time>2024-10-13T06:37:20Z</time>
      </trkpt>
      <trkpt lat="49.27419" lon="-0.11482">
        <ele>4.6</ele>
        <time>2024-10-13T06:37:21Z</time>
      </trkpt>
      <trkpt lat="49.27419" lon="-0.11472">
        <ele>4.6</ele>
        <time>2024-10-13T06:37:22Z</time>
      </trkpt>
      <trkpt lat="49.27419" lon="-0.11462">
        <ele>4.6</ele>
        <time>2024-10-13T06:37:23Z</time>
      </trkpt>
      <trkpt lat="49.27419" lon="-0.11452">
        <ele>4.6</ele>
        <time>2024-10-13T06:37:24Z</time>
      </trkpt>
      <trkpt lat="49.27419" lon="-0.11442">
        <ele>4.6</ele>
        <time>2024-10-13T06:37:25Z</time>
      </trkpt>
      <trkpt lat="49.27419" lon="-0.11432">
        <ele>4.8</ele>
        <time>2024-10-13T06:37:26Z</time>
      </trkpt>
      <trkpt lat="49.27419" lon="-0.11422">
        <ele>4.8</ele>
        <time>2024-10-13T06:37:27Z</time>
      </trkpt>
      <trkpt lat="49.27419" lon="-0.11413">
        <ele>4.8</ele>
        <time>2024-10-13T06:37:28Z</time>
      </trkpt>
      <trkpt lat="49.2742" lon="-0.11403">
        <ele>4.8</ele>
        <time>2024-10-13T06:37:29Z</time>
      </trkpt>
      <trkpt lat="49.2742" lon="-0.11393">
        <ele>4.8</ele>
        <time>2024-10-13T06:37:30Z</time>
      </trkpt>
      <trkpt lat="49.2742" lon="-0.11383">
        <ele>4.8</ele>
        <time>2024-10-13T06:37:31Z</time>
      </trkpt>
      <trkpt lat="49.2742" lon="-0.11373">
        <ele>5</ele>
        <time>2024-10-13T06:37:32Z</time>
      </trkpt>
      <trkpt lat="49.27421" lon="-0.11363">
        <ele>5</ele>
        <time>2024-10-13T06:37:33Z</time>
      </trkpt>
      <trkpt lat="49.27421" lon="-0.11353">
        <ele>5</ele>
        <time>2024-10-13T06:37:34Z</time>
      </trkpt>
      <trkpt lat="49.27421" lon="-0.11344">
        <ele>5</ele>
        <time>2024-10-13T06:37:35Z</time>
      </trkpt>
      <trkpt lat="49.27422" lon="-0.11334">
        <ele>5</ele>
        <time>2024-10-13T06:37:36Z</time>
      </trkpt>
      <trkpt lat="49.27422" lon="-0.11324">
        <ele>5</ele>
        <time>2024-10-13T06:37:37Z</time>
      </trkpt>
      <trkpt lat="49.27422" lon="-0.11314">
        <ele>5</ele>
        <time>2024-10-13T06:37:38Z</time>
      </trkpt>
      <trkpt lat="49.27422" lon="-0.11305">
        <ele>5.2</ele>
        <time>2024-10-13T06:37:39Z</time>
      </trkpt>
      <trkpt lat="49.27422" lon="-0.11295">
        <ele>5.2</ele>
        <time>2024-10-13T06:37:40Z</time>
      </trkpt>
      <trkpt lat="49.27422" lon="-0.11286">
        <ele>5.2</ele>
        <time>2024-10-13T06:37:41Z</time>
      </trkpt>
      <trkpt lat="49.27422" lon="-0.11276">
        <ele>5.4</ele>
        <time>2024-10-13T06:37:42Z</time>
      </trkpt>
      <trkpt lat="49.27423" lon="-0.11266">
        <ele>5.4</ele>
        <time>2024-10-13T06:37:43Z</time>
      </trkpt>
      <trkpt lat="49.27423" lon="-0.11257">
        <ele>5.4</ele>
        <time>2024-10-13T06:37:44Z</time>
      </trkpt>
      <trkpt lat="49.27423" lon="-0.11247">
        <ele>5.4</ele>
        <time>2024-10-13T06:37:45Z</time>
      </trkpt>
      <trkpt lat="49.27423" lon="-0.11237">
        <ele>5.4</ele>
        <time>2024-10-13T06:37:46Z</time>
      </trkpt>
      <trkpt lat="49.27423" lon="-0.11227">
        <ele>5.6</ele>
        <time>2024-10-13T06:37:47Z</time>
      </trkpt>
      <trkpt lat="49.27424" lon="-0.11218">
        <ele>5.6</ele>
        <time>2024-10-13T06:37:48Z</time>
      </trkpt>
      <trkpt lat="49.27424" lon="-0.11208">
        <ele>5.6</ele>
        <time>2024-10-13T06:37:49Z</time>
      </trkpt>
      <trkpt lat="49.27424" lon="-0.11198">
        <ele>5.6</ele>
        <time>2024-10-13T06:37:50Z</time>
      </trkpt>
      <trkpt lat="49.27425" lon="-0.11188">
        <ele>5.6</ele>
        <time>2024-10-13T06:37:51Z</time>
      </trkpt>
      <trkpt lat="49.27425" lon="-0.11178">
        <ele>5.8</ele>
        <time>2024-10-13T06:37:52Z</time>
      </trkpt>
      <trkpt lat="49.27426" lon="-0.11168">
        <ele>5.8</ele>
        <time>2024-10-13T06:37:53Z</time>
      </trkpt>
      <trkpt lat="49.27426" lon="-0.11158">
        <ele>5.8</ele>
        <time>2024-10-13T06:37:54Z</time>
      </trkpt>
      <trkpt lat="49.27426" lon="-0.11148">
        <ele>6</ele>
        <time>2024-10-13T06:37:55Z</time>
      </trkpt>
      <trkpt lat="49.27426" lon="-0.11139">
        <ele>6</ele>
        <time>2024-10-13T06:37:56Z</time>
      </trkpt>
      <trkpt lat="49.27427" lon="-0.11129">
        <ele>6.2</ele>
        <time>2024-10-13T06:37:57Z</time>
      </trkpt>
      <trkpt lat="49.27427" lon="-0.11119">
        <ele>6.2</ele>
        <time>2024-10-13T06:37:58Z</time>
      </trkpt>
      <trkpt lat="49.27427" lon="-0.11109">
        <ele>6.2</ele>
        <time>2024-10-13T06:37:59Z</time>
      </trkpt>
      <trkpt lat="49.27427" lon="-0.11099">
        <ele>6.2</ele>
        <time>2024-10-13T06:38:00Z</time>
      </trkpt>
      <trkpt lat="49.27427" lon="-0.11089">
        <ele>6.2</ele>
        <time>2024-10-13T06:38:01Z</time>
      </trkpt>
      <trkpt lat="49.27428" lon="-0.11078">
        <ele>6.2</ele>
        <time>2024-10-13T06:38:02Z</time>
      </trkpt>
      <trkpt lat="49.27428" lon="-0.11068">
        <ele>6.2</ele>
        <time>2024-10-13T06:38:03Z</time>
      </trkpt>
      <trkpt lat="49.27428" lon="-0.11058">
        <ele>6.2</ele>
        <time>2024-10-13T06:38:04Z</time>
      </trkpt>
      <trkpt lat="49.27428" lon="-0.11048">
        <ele>6.2</ele>
        <time>2024-10-13T06:38:05Z</time>
      </trkpt>
      <trkpt lat="49.27429" lon="-0.11037">
        <ele>6.2</ele>
        <time>2024-10-13T06:38:06Z</time>
      </trkpt>
      <trkpt lat="49.27429" lon="-0.11027">
        <ele>6.2</ele>
        <time>2024-10-13T06:38:07Z</time>
      </trkpt>
      <trkpt lat="49.27429" lon="-0.11016">
        <ele>6.2</ele>
        <time>2024-10-13T06:38:08Z</time>
      </trkpt>
      <trkpt lat="49.27429" lon="-0.11004">
        <ele>6.2</ele>
        <time>2024-10-13T06:38:09Z</time>
      </trkpt>
      <trkpt lat="49.27429" lon="-0.10994">
        <ele>6.2</ele>
        <time>2024-10-13T06:38:10Z</time>
      </trkpt>
      <trkpt lat="49.27429" lon="-0.10985">
        <ele>6.2</ele>
        <time>2024-10-13T06:38:11Z</time>
      </trkpt>
      <trkpt lat="49.27429" lon="-0.10973">
        <ele>6.2</ele>
        <time>2024-10-13T06:38:12Z</time>
      </trkpt>
      <trkpt lat="49.2743" lon="-0.10965">
        <ele>6.2</ele>
        <time>2024-10-13T06:38:13Z</time>
      </trkpt>
      <trkpt lat="49.2743" lon="-0.10954">
        <ele>6.2</ele>
        <time>2024-10-13T06:38:14Z</time>
      </trkpt>
      <trkpt lat="49.2743" lon="-0.10944">
        <ele>6.2</ele>
        <time>2024-10-13T06:38:15Z</time>
      </trkpt>
      <trkpt lat="49.2743" lon="-0.10934">
        <ele>6</ele>
        <time>2024-10-13T06:38:16Z</time>
      </trkpt>
      <trkpt lat="49.2743" lon="-0.10923">
        <ele>6</ele>
        <time>2024-10-13T06:38:17Z</time>
      </trkpt>
      <trkpt lat="49.2743" lon="-0.10911">
        <ele>6</ele>
        <time>2024-10-13T06:38:18Z</time>
      </trkpt>
      <trkpt lat="49.27429" lon="-0.10902">
        <ele>6</ele>
        <time>2024-10-13T06:38:19Z</time>
      </trkpt>
      <trkpt lat="49.27429" lon="-0.10892">
        <ele>6</ele>
        <time>2024-10-13T06:38:20Z</time>
      </trkpt>
      <trkpt lat="49.27429" lon="-0.10881">
        <ele>5.8</ele>
        <time>2024-10-13T06:38:21Z</time>
      </trkpt>
      <trkpt lat="49.27428" lon="-0.10871">
        <ele>5.8</ele>
        <time>2024-10-13T06:38:22Z</time>
      </trkpt>
      <trkpt lat="49.27427" lon="-0.1086">
        <ele>5.8</ele>
        <time>2024-10-13T06:38:23Z</time>
      </trkpt>
      <trkpt lat="49.27426" lon="-0.1085">
        <ele>5.8</ele>
        <time>2024-10-13T06:38:24Z</time>
      </trkpt>
      <trkpt lat="49.27425" lon="-0.10839">
        <ele>5.8</ele>
        <time>2024-10-13T06:38:25Z</time>
      </trkpt>
      <trkpt lat="49.27424" lon="-0.10829">
        <ele>5.8</ele>
        <time>2024-10-13T06:38:26Z</time>
      </trkpt>
      <trkpt lat="49.27423" lon="-0.10818">
        <ele>5.8</ele>
        <time>2024-10-13T06:38:27Z</time>
      </trkpt>
      <trkpt lat="49.27421" lon="-0.10808">
        <ele>5.8</ele>
        <time>2024-10-13T06:38:28Z</time>
      </trkpt>
      <trkpt lat="49.27419" lon="-0.10796">
        <ele>5.8</ele>
        <time>2024-10-13T06:38:29Z</time>
      </trkpt>
      <trkpt lat="49.27418" lon="-0.10788">
        <ele>5.8</ele>
        <time>2024-10-13T06:38:30Z</time>
      </trkpt>
      <trkpt lat="49.27416" lon="-0.10778">
        <ele>5.8</ele>
        <time>2024-10-13T06:38:31Z</time>
      </trkpt>
      <trkpt lat="49.27414" lon="-0.10768">
        <ele>5.8</ele>
        <time>2024-10-13T06:38:32Z</time>
      </trkpt>
      <trkpt lat="49.27412" lon="-0.10757">
        <ele>5.6</ele>
        <time>2024-10-13T06:38:33Z</time>
      </trkpt>
      <trkpt lat="49.2741" lon="-0.10747">
        <ele>5.6</ele>
        <time>2024-10-13T06:38:34Z</time>
      </trkpt>
      <trkpt lat="49.27408" lon="-0.10737">
        <ele>5.6</ele>
        <time>2024-10-13T06:38:35Z</time>
      </trkpt>
      <trkpt lat="49.27405" lon="-0.10727">
        <ele>5.6</ele>
        <time>2024-10-13T06:38:36Z</time>
      </trkpt>
      <trkpt lat="49.27403" lon="-0.10717">
        <ele>5.6</ele>
        <time>2024-10-13T06:38:37Z</time>
      </trkpt>
      <trkpt lat="49.274" lon="-0.10707">
        <ele>5.4</ele>
        <time>2024-10-13T06:38:38Z</time>
      </trkpt>
      <trkpt lat="49.27398" lon="-0.10696">
        <ele>5.4</ele>
        <time>2024-10-13T06:38:39Z</time>
      </trkpt>
      <trkpt lat="49.27395" lon="-0.10687">
        <ele>5.2</ele>
        <time>2024-10-13T06:38:40Z</time>
      </trkpt>
      <trkpt lat="49.27393" lon="-0.10677">
        <ele>5.2</ele>
        <time>2024-10-13T06:38:41Z</time>
      </trkpt>
      <trkpt lat="49.2739" lon="-0.10667">
        <ele>5.2</ele>
        <time>2024-10-13T06:38:42Z</time>
      </trkpt>
      <trkpt lat="49.27387" lon="-0.10658">
        <ele>5</ele>
        <time>2024-10-13T06:38:43Z</time>
      </trkpt>
      <trkpt lat="49.27384" lon="-0.10648">
        <ele>5</ele>
        <time>2024-10-13T06:38:44Z</time>
      </trkpt>
      <trkpt lat="49.2738" lon="-0.10639">
        <ele>5</ele>
        <time>2024-10-13T06:38:45Z</time>
      </trkpt>
      <trkpt lat="49.27377" lon="-0.1063">
        <ele>4.8</ele>
        <time>2024-10-13T06:38:46Z</time>
      </trkpt>
      <trkpt lat="49.27373" lon="-0.10621">
        <ele>4.8</ele>
        <time>2024-10-13T06:38:47Z</time>
      </trkpt>
      <trkpt lat="49.2737" lon="-0.10611">
        <ele>4.8</ele>
        <time>2024-10-13T06:38:48Z</time>
      </trkpt>
      <trkpt lat="49.27366" lon="-0.10602">
        <ele>4.8</ele>
        <time>2024-10-13T06:38:49Z</time>
      </trkpt>
      <trkpt lat="49.27362" lon="-0.10594">
        <ele>4.6</ele>
        <time>2024-10-13T06:38:50Z</time>
      </trkpt>
      <trkpt lat="49.27357" lon="-0.10585">
        <ele>4.6</ele>
        <time>2024-10-13T06:38:51Z</time>
      </trkpt>
      <trkpt lat="49.27353" lon="-0.10576">
        <ele>4.6</ele>
        <time>2024-10-13T06:38:52Z</time>
      </trkpt>
      <trkpt lat="49.27349" lon="-0.10568">
        <ele>4.4</ele>
        <time>2024-10-13T06:38:53Z</time>
      </trkpt>
      <trkpt lat="49.27345" lon="-0.10559">
        <ele>4.4</ele>
        <time>2024-10-13T06:38:54Z</time>
      </trkpt>
      <trkpt lat="49.27341" lon="-0.10551">
        <ele>4.4</ele>
        <time>2024-10-13T06:38:55Z</time>
      </trkpt>
      <trkpt lat="49.27336" lon="-0.10542">
        <ele>4.4</ele>
        <time>2024-10-13T06:38:56Z</time>
      </trkpt>
      <trkpt lat="49.27332" lon="-0.10534">
        <ele>4.4</ele>
        <time>2024-10-13T06:38:57Z</time>
      </trkpt>
      <trkpt lat="49.27327" lon="-0.10526">
        <ele>4.4</ele>
        <time>2024-10-13T06:38:58Z</time>
      </trkpt>
      <trkpt lat="49.27323" lon="-0.10519">
        <ele>4.4</ele>
        <time>2024-10-13T06:38:59Z</time>
      </trkpt>
      <trkpt lat="49.27318" lon="-0.10511">
        <ele>4.4</ele>
        <time>2024-10-13T06:39:00Z</time>
      </trkpt>
      <trkpt lat="49.27313" lon="-0.10503">
        <ele>4.4</ele>
        <time>2024-10-13T06:39:01Z</time>
      </trkpt>
      <trkpt lat="49.27307" lon="-0.10496">
        <ele>4.4</ele>
        <time>2024-10-13T06:39:02Z</time>
      </trkpt>
      <trkpt lat="49.27302" lon="-0.10489">
        <ele>4.4</ele>
        <time>2024-10-13T06:39:03Z</time>
      </trkpt>
      <trkpt lat="49.27296" lon="-0.10481">
        <ele>4.4</ele>
        <time>2024-10-13T06:39:04Z</time>
      </trkpt>
      <trkpt lat="49.27291" lon="-0.10476">
        <ele>4.4</ele>
        <time>2024-10-13T06:39:05Z</time>
      </trkpt>
      <trkpt lat="49.27285" lon="-0.10468">
        <ele>4.4</ele>
        <time>2024-10-13T06:39:06Z</time>
      </trkpt>
      <trkpt lat="49.2728" lon="-0.10463">
        <ele>4.4</ele>
        <time>2024-10-13T06:39:07Z</time>
      </trkpt>
      <trkpt lat="49.27275" lon="-0.10457">
        <ele>4.4</ele>
        <time>2024-10-13T06:39:08Z</time>
      </trkpt>
      <trkpt lat="49.27269" lon="-0.1045">
        <ele>4.2</ele>
        <time>2024-10-13T06:39:09Z</time>
      </trkpt>
      <trkpt lat="49.27263" lon="-0.10445">
        <ele>4.2</ele>
        <time>2024-10-13T06:39:10Z</time>
      </trkpt>
      <trkpt lat="49.27258" lon="-0.10439">
        <ele>4.2</ele>
        <time>2024-10-13T06:39:11Z</time>
      </trkpt>
      <trkpt lat="49.27252" lon="-0.10433">
        <ele>4.2</ele>
        <time>2024-10-13T06:39:12Z</time>
      </trkpt>
      <trkpt lat="49.27246" lon="-0.10428">
        <ele>4.2</ele>
        <time>2024-10-13T06:39:13Z</time>
      </trkpt>
      <trkpt lat="49.2724" lon="-0.10422">
        <ele>4.2</ele>
        <time>2024-10-13T06:39:14Z</time>
      </trkpt>
      <trkpt lat="49.27234" lon="-0.10417">
        <ele>4.2</ele>
        <time>2024-10-13T06:39:15Z</time>
      </trkpt>
      <trkpt lat="49.27227" lon="-0.10411">
        <ele>4.2</ele>
        <time>2024-10-13T06:39:16Z</time>
      </trkpt>
      <trkpt lat="49.27221" lon="-0.10407">
        <ele>4.2</ele>
        <time>2024-10-13T06:39:17Z</time>
      </trkpt>
      <trkpt lat="49.27215" lon="-0.10402">
        <ele>4.2</ele>
        <time>2024-10-13T06:39:18Z</time>
      </trkpt>
      <trkpt lat="49.27209" lon="-0.10397">
        <ele>4.2</ele>
        <time>2024-10-13T06:39:19Z</time>
      </trkpt>
      <trkpt lat="49.27203" lon="-0.10393">
        <ele>4.2</ele>
        <time>2024-10-13T06:39:20Z</time>
      </trkpt>
      <trkpt lat="49.27196" lon="-0.10388">
        <ele>4</ele>
        <time>2024-10-13T06:39:21Z</time>
      </trkpt>
      <trkpt lat="49.2719" lon="-0.10384">
        <ele>4</ele>
        <time>2024-10-13T06:39:22Z</time>
      </trkpt>
      <trkpt lat="49.27183" lon="-0.10381">
        <ele>4</ele>
        <time>2024-10-13T06:39:23Z</time>
      </trkpt>
      <trkpt lat="49.27177" lon="-0.10377">
        <ele>4</ele>
        <time>2024-10-13T06:39:24Z</time>
      </trkpt>
      <trkpt lat="49.2717" lon="-0.10373">
        <ele>4</ele>
        <time>2024-10-13T06:39:25Z</time>
      </trkpt>
      <trkpt lat="49.27164" lon="-0.10369">
        <ele>4</ele>
        <time>2024-10-13T06:39:26Z</time>
      </trkpt>
      <trkpt lat="49.27158" lon="-0.10366">
        <ele>4</ele>
        <time>2024-10-13T06:39:27Z</time>
      </trkpt>
      <trkpt lat="49.27151" lon="-0.10363">
        <ele>4</ele>
        <time>2024-10-13T06:39:28Z</time>
      </trkpt>
      <trkpt lat="49.27145" lon="-0.10359">
        <ele>4</ele>
        <time>2024-10-13T06:39:29Z</time>
      </trkpt>
      <trkpt lat="49.27138" lon="-0.10357">
        <ele>4</ele>
        <time>2024-10-13T06:39:30Z</time>
      </trkpt>
      <trkpt lat="49.27131" lon="-0.10354">
        <ele>4</ele>
        <time>2024-10-13T06:39:31Z</time>
      </trkpt>
      <trkpt lat="49.27124" lon="-0.10352">
        <ele>4</ele>
        <time>2024-10-13T06:39:32Z</time>
      </trkpt>
      <trkpt lat="49.27118" lon="-0.10349">
        <ele>4</ele>
        <time>2024-10-13T06:39:33Z</time>
      </trkpt>
      <trkpt lat="49.27111" lon="-0.10347">
        <ele>4</ele>
        <time>2024-10-13T06:39:34Z</time>
      </trkpt>
      <trkpt lat="49.27104" lon="-0.10345">
        <ele>4</ele>
        <time>2024-10-13T06:39:35Z</time>
      </trkpt>
      <trkpt lat="49.27098" lon="-0.10343">
        <ele>4.2</ele>
        <time>2024-10-13T06:39:36Z</time>
      </trkpt>
      <trkpt lat="49.27091" lon="-0.10341">
        <ele>4.2</ele>
        <time>2024-10-13T06:39:37Z</time>
      </trkpt>
      <trkpt lat="49.27084" lon="-0.1034">
        <ele>4.2</ele>
        <time>2024-10-13T06:39:38Z</time>
      </trkpt>
      <trkpt lat="49.27078" lon="-0.10338">
        <ele>4.4</ele>
        <time>2024-10-13T06:39:39Z</time>
      </trkpt>
      <trkpt lat="49.27071" lon="-0.10337">
        <ele>4.4</ele>
        <time>2024-10-13T06:39:40Z</time>
      </trkpt>
      <trkpt lat="49.27064" lon="-0.10336">
        <ele>4.4</ele>
        <time>2024-10-13T06:39:41Z</time>
      </trkpt>
      <trkpt lat="49.27058" lon="-0.10335">
        <ele>4.6</ele>
        <time>2024-10-13T06:39:42Z</time>
      </trkpt>
      <trkpt lat="49.27051" lon="-0.10334">
        <ele>4.8</ele>
        <time>2024-10-13T06:39:43Z</time>
      </trkpt>
      <trkpt lat="49.27044" lon="-0.10334">
        <ele>4.8</ele>
        <time>2024-10-13T06:39:44Z</time>
      </trkpt>
      <trkpt lat="49.27038" lon="-0.10333">
        <ele>4.8</ele>
        <time>2024-10-13T06:39:45Z</time>
      </trkpt>
      <trkpt lat="49.27031" lon="-0.10333">
        <ele>4.8</ele>
        <time>2024-10-13T06:39:46Z</time>
      </trkpt>
      <trkpt lat="49.27024" lon="-0.10332">
        <ele>5</ele>
        <time>2024-10-13T06:39:47Z</time>
      </trkpt>
      <trkpt lat="49.27017" lon="-0.10332">
        <ele>5</ele>
        <time>2024-10-13T06:39:48Z</time>
      </trkpt>
      <trkpt lat="49.27011" lon="-0.10332">
        <ele>5.2</ele>
        <time>2024-10-13T06:39:49Z</time>
      </trkpt>
      <trkpt lat="49.27004" lon="-0.10333">
        <ele>5.4</ele>
        <time>2024-10-13T06:39:50Z</time>
      </trkpt>
      <trkpt lat="49.26997" lon="-0.10333">
        <ele>5.4</ele>
        <time>2024-10-13T06:39:51Z</time>
      </trkpt>
      <trkpt lat="49.26991" lon="-0.10334">
        <ele>5.6</ele>
        <time>2024-10-13T06:39:52Z</time>
      </trkpt>
      <trkpt lat="49.26984" lon="-0.10335">
        <ele>5.6</ele>
        <time>2024-10-13T06:39:53Z</time>
      </trkpt>
      <trkpt lat="49.26977" lon="-0.10335">
        <ele>5.6</ele>
        <time>2024-10-13T06:39:54Z</time>
      </trkpt>
      <trkpt lat="49.2697" lon="-0.10337">
        <ele>5.8</ele>
        <time>2024-10-13T06:39:55Z</time>
      </trkpt>
      <trkpt lat="49.26963" lon="-0.10338">
        <ele>5.8</ele>
        <time>2024-10-13T06:39:56Z</time>
      </trkpt>
      <trkpt lat="49.26956" lon="-0.10339">
        <ele>6</ele>
        <time>2024-10-13T06:39:57Z</time>
      </trkpt>
      <trkpt lat="49.26949" lon="-0.10341">
        <ele>6</ele>
        <time>2024-10-13T06:39:58Z</time>
      </trkpt>
      <trkpt lat="49.26942" lon="-0.10342">
        <ele>6.2</ele>
        <time>2024-10-13T06:39:59Z</time>
      </trkpt>
      <trkpt lat="49.26935" lon="-0.10344">
        <ele>6.2</ele>
        <time>2024-10-13T06:40:00Z</time>
      </trkpt>
      <trkpt lat="49.26928" lon="-0.10346">
        <ele>6.2</ele>
        <time>2024-10-13T06:40:01Z</time>
      </trkpt>
      <trkpt lat="49.26921" lon="-0.10347">
        <ele>6.4</ele>
        <time>2024-10-13T06:40:02Z</time>
      </trkpt>
      <trkpt lat="49.26915" lon="-0.10349">
        <ele>6.4</ele>
        <time>2024-10-13T06:40:03Z</time>
      </trkpt>
      <trkpt lat="49.26908" lon="-0.10351">
        <ele>6.4</ele>
        <time>2024-10-13T06:40:04Z</time>
      </trkpt>
      <trkpt lat="49.26901" lon="-0.10353">
        <ele>6.4</ele>
        <time>2024-10-13T06:40:05Z</time>
      </trkpt>
      <trkpt lat="49.26894" lon="-0.10355">
        <ele>6.4</ele>
        <time>2024-10-13T06:40:06Z</time>
      </trkpt>
      <trkpt lat="49.26887" lon="-0.10357">
        <ele>6.4</ele>
        <time>2024-10-13T06:40:07Z</time>
      </trkpt>
      <trkpt lat="49.2688" lon="-0.1036">
        <ele>6.4</ele>
        <time>2024-10-13T06:40:08Z</time>
      </trkpt>
      <trkpt lat="49.26874" lon="-0.10362">
        <ele>6.4</ele>
        <time>2024-10-13T06:40:09Z</time>
      </trkpt>
      <trkpt lat="49.26867" lon="-0.10364">
        <ele>6.4</ele>
        <time>2024-10-13T06:40:10Z</time>
      </trkpt>
      <trkpt lat="49.2686" lon="-0.10367">
        <ele>6.4</ele>
        <time>2024-10-13T06:40:11Z</time>
      </trkpt>
      <trkpt lat="49.26853" lon="-0.10369">
        <ele>6.4</ele>
        <time>2024-10-13T06:40:12Z</time>
      </trkpt>
      <trkpt lat="49.26846" lon="-0.10372">
        <ele>6.4</ele>
        <time>2024-10-13T06:40:13Z</time>
      </trkpt>
      <trkpt lat="49.26839" lon="-0.10374">
        <ele>6.4</ele>
        <time>2024-10-13T06:40:14Z</time>
      </trkpt>
      <trkpt lat="49.26833" lon="-0.10377">
        <ele>6.2</ele>
        <time>2024-10-13T06:40:15Z</time>
      </trkpt>
      <trkpt lat="49.26826" lon="-0.10379">
        <ele>6.2</ele>
        <time>2024-10-13T06:40:16Z</time>
      </trkpt>
      <trkpt lat="49.26818" lon="-0.10383">
        <ele>6.2</ele>
        <time>2024-10-13T06:40:17Z</time>
      </trkpt>
      <trkpt lat="49.26811" lon="-0.10385">
        <ele>6.2</ele>
        <time>2024-10-13T06:40:18Z</time>
      </trkpt>
      <trkpt lat="49.26805" lon="-0.10387">
        <ele>6.2</ele>
        <time>2024-10-13T06:40:19Z</time>
      </trkpt>
      <trkpt lat="49.26798" lon="-0.10389">
        <ele>6.2</ele>
        <time>2024-10-13T06:40:20Z</time>
      </trkpt>
      <trkpt lat="49.26791" lon="-0.10392">
        <ele>6.2</ele>
        <time>2024-10-13T06:40:21Z</time>
      </trkpt>
      <trkpt lat="49.26784" lon="-0.10394">
        <ele>6.2</ele>
        <time>2024-10-13T06:40:22Z</time>
      </trkpt>
      <trkpt lat="49.26777" lon="-0.10397">
        <ele>6.2</ele>
        <time>2024-10-13T06:40:23Z</time>
      </trkpt>
      <trkpt lat="49.26771" lon="-0.10399">
        <ele>6</ele>
        <time>2024-10-13T06:40:24Z</time>
      </trkpt>
      <trkpt lat="49.26764" lon="-0.10402">
        <ele>6</ele>
        <time>2024-10-13T06:40:25Z</time>
      </trkpt>
      <trkpt lat="49.26757" lon="-0.10404">
        <ele>6</ele>
        <time>2024-10-13T06:40:26Z</time>
      </trkpt>
      <trkpt lat="49.2675" lon="-0.10406">
        <ele>6</ele>
        <time>2024-10-13T06:40:27Z</time>
      </trkpt>
      <trkpt lat="49.26743" lon="-0.10408">
        <ele>6</ele>
        <time>2024-10-13T06:40:28Z</time>
      </trkpt>
      <trkpt lat="49.26736" lon="-0.10411">
        <ele>6</ele>
        <time>2024-10-13T06:40:29Z</time>
      </trkpt>
      <trkpt lat="49.26729" lon="-0.10413">
        <ele>6</ele>
        <time>2024-10-13T06:40:30Z</time>
      </trkpt>
      <trkpt lat="49.26723" lon="-0.10415">
        <ele>6</ele>
        <time>2024-10-13T06:40:31Z</time>
      </trkpt>
      <trkpt lat="49.26715" lon="-0.10418">
        <ele>6</ele>
        <time>2024-10-13T06:40:32Z</time>
      </trkpt>
      <trkpt lat="49.26708" lon="-0.1042">
        <ele>6</ele>
        <time>2024-10-13T06:40:33Z</time>
      </trkpt>
      <trkpt lat="49.26701" lon="-0.10423">
        <ele>6</ele>
        <time>2024-10-13T06:40:34Z</time>
      </trkpt>
      <trkpt lat="49.26694" lon="-0.10425">
        <ele>6</ele>
        <time>2024-10-13T06:40:35Z</time>
      </trkpt>
      <trkpt lat="49.26687" lon="-0.10428">
        <ele>5.8</ele>
        <time>2024-10-13T06:40:36Z</time>
      </trkpt>
      <trkpt lat="49.2668" lon="-0.1043">
        <ele>5.8</ele>
        <time>2024-10-13T06:40:37Z</time>
      </trkpt>
      <trkpt lat="49.26673" lon="-0.10432">
        <ele>5.8</ele>
        <time>2024-10-13T06:40:38Z</time>
      </trkpt>
      <trkpt lat="49.26666" lon="-0.10435">
        <ele>5.8</ele>
        <time>2024-10-13T06:40:39Z</time>
      </trkpt>
      <trkpt lat="49.26658" lon="-0.10437">
        <ele>5.8</ele>
        <time>2024-10-13T06:40:40Z</time>
      </trkpt>
      <trkpt lat="49.26651" lon="-0.10439">
        <ele>5.8</ele>
        <time>2024-10-13T06:40:41Z</time>
      </trkpt>
      <trkpt lat="49.26644" lon="-0.10441">
        <ele>5.8</ele>
        <time>2024-10-13T06:40:42Z</time>
      </trkpt>
      <trkpt lat="49.26637" lon="-0.10444">
        <ele>5.8</ele>
        <time>2024-10-13T06:40:43Z</time>
      </trkpt>
      <trkpt lat="49.26629" lon="-0.10446">
        <ele>5.8</ele>
        <time>2024-10-13T06:40:44Z</time>
      </trkpt>
      <trkpt lat="49.26622" lon="-0.10448">
        <ele>5.6</ele>
        <time>2024-10-13T06:40:45Z</time>
      </trkpt>
      <trkpt lat="49.26615" lon="-0.1045">
        <ele>5.6</ele>
        <time>2024-10-13T06:40:46Z</time>
      </trkpt>
      <trkpt lat="49.26607" lon="-0.10451">
        <ele>5.6</ele>
        <time>2024-10-13T06:40:47Z</time>
      </trkpt>
      <trkpt lat="49.266" lon="-0.10453">
        <ele>5.6</ele>
        <time>2024-10-13T06:40:48Z</time>
      </trkpt>
      <trkpt lat="49.26593" lon="-0.10454">
        <ele>5.6</ele>
        <time>2024-10-13T06:40:49Z</time>
      </trkpt>
      <trkpt lat="49.26585" lon="-0.10455">
        <ele>5.6</ele>
        <time>2024-10-13T06:40:50Z</time>
      </trkpt>
      <trkpt lat="49.26578" lon="-0.10456">
        <ele>5.6</ele>
        <time>2024-10-13T06:40:51Z</time>
      </trkpt>
      <trkpt lat="49.26571" lon="-0.10457">
        <ele>5.6</ele>
        <time>2024-10-13T06:40:52Z</time>
      </trkpt>
      <trkpt lat="49.26563" lon="-0.10458">
        <ele>5.4</ele>
        <time>2024-10-13T06:40:53Z</time>
      </trkpt>
      <trkpt lat="49.26556" lon="-0.10459">
        <ele>5.4</ele>
        <time>2024-10-13T06:40:54Z</time>
      </trkpt>
      <trkpt lat="49.26547" lon="-0.1046">
        <ele>5.4</ele>
        <time>2024-10-13T06:40:55Z</time>
      </trkpt>
      <trkpt lat="49.2654" lon="-0.10461">
        <ele>5.4</ele>
        <time>2024-10-13T06:40:56Z</time>
      </trkpt>
      <trkpt lat="49.26535" lon="-0.10461">
        <ele>5.2</ele>
        <time>2024-10-13T06:40:57Z</time>
      </trkpt>
      <trkpt lat="49.26528" lon="-0.10462">
        <ele>5.2</ele>
        <time>2024-10-13T06:40:58Z</time>
      </trkpt>
      <trkpt lat="49.2652" lon="-0.10463">
        <ele>5.2</ele>
        <time>2024-10-13T06:40:59Z</time>
      </trkpt>
      <trkpt lat="49.26513" lon="-0.10464">
        <ele>5</ele>
        <time>2024-10-13T06:41:00Z</time>
      </trkpt>
      <trkpt lat="49.26505" lon="-0.10464">
        <ele>5</ele>
        <time>2024-10-13T06:41:01Z</time>
      </trkpt>
      <trkpt lat="49.26499" lon="-0.10464">
        <ele>5</ele>
        <time>2024-10-13T06:41:02Z</time>
      </trkpt>
      <trkpt lat="49.26492" lon="-0.10465">
        <ele>5</ele>
        <time>2024-10-13T06:41:03Z</time>
      </trkpt>
      <trkpt lat="49.26483" lon="-0.10465">
        <ele>5</ele>
        <time>2024-10-13T06:41:04Z</time>
      </trkpt>
      <trkpt lat="49.26477" lon="-0.10465">
        <ele>5</ele>
        <time>2024-10-13T06:41:05Z</time>
      </trkpt>
      <trkpt lat="49.2647" lon="-0.10465">
        <ele>5</ele>
        <time>2024-10-13T06:41:06Z</time>
      </trkpt>
      <trkpt lat="49.26463" lon="-0.10465">
        <ele>5</ele>
        <time>2024-10-13T06:41:07Z</time>
      </trkpt>
      <trkpt lat="49.26455" lon="-0.10465">
        <ele>5</ele>
        <time>2024-10-13T06:41:08Z</time>
      </trkpt>
      <trkpt lat="49.26449" lon="-0.10464">
        <ele>5</ele>
        <time>2024-10-13T06:41:09Z</time>
      </trkpt>
      <trkpt lat="49.26441" lon="-0.10464">
        <ele>5</ele>
        <time>2024-10-13T06:41:10Z</time>
      </trkpt>
      <trkpt lat="49.26435" lon="-0.10463">
        <ele>5</ele>
        <time>2024-10-13T06:41:11Z</time>
      </trkpt>
      <trkpt lat="49.26428" lon="-0.10462">
        <ele>5</ele>
        <time>2024-10-13T06:41:12Z</time>
      </trkpt>
      <trkpt lat="49.26421" lon="-0.10462">
        <ele>5</ele>
        <time>2024-10-13T06:41:13Z</time>
      </trkpt>
      <trkpt lat="49.26414" lon="-0.10461">
        <ele>5</ele>
        <time>2024-10-13T06:41:14Z</time>
      </trkpt>
      <trkpt lat="49.26406" lon="-0.10461">
        <ele>5.2</ele>
        <time>2024-10-13T06:41:15Z</time>
      </trkpt>
      <trkpt lat="49.26398" lon="-0.1046">
        <ele>5.2</ele>
        <time>2024-10-13T06:41:16Z</time>
      </trkpt>
      <trkpt lat="49.26392" lon="-0.1046">
        <ele>5.2</ele>
        <time>2024-10-13T06:41:17Z</time>
      </trkpt>
      <trkpt lat="49.26385" lon="-0.10459">
        <ele>5.2</ele>
        <time>2024-10-13T06:41:18Z</time>
      </trkpt>
      <trkpt lat="49.26376" lon="-0.10458">
        <ele>5.2</ele>
        <time>2024-10-13T06:41:19Z</time>
      </trkpt>
      <trkpt lat="49.26369" lon="-0.10457">
        <ele>5.2</ele>
        <time>2024-10-13T06:41:20Z</time>
      </trkpt>
      <trkpt lat="49.26363" lon="-0.10456">
        <ele>5.4</ele>
        <time>2024-10-13T06:41:21Z</time>
      </trkpt>
      <trkpt lat="49.26355" lon="-0.10455">
        <ele>5.4</ele>
        <time>2024-10-13T06:41:22Z</time>
      </trkpt>
      <trkpt lat="49.26349" lon="-0.10455">
        <ele>5.4</ele>
        <time>2024-10-13T06:41:23Z</time>
      </trkpt>
      <trkpt lat="49.26341" lon="-0.10454">
        <ele>5.4</ele>
        <time>2024-10-13T06:41:24Z</time>
      </trkpt>
      <trkpt lat="49.26334" lon="-0.10453">
        <ele>5.6</ele>
        <time>2024-10-13T06:41:25Z</time>
      </trkpt>
      <trkpt lat="49.26325" lon="-0.10452">
        <ele>5.6</ele>
        <time>2024-10-13T06:41:26Z</time>
      </trkpt>
      <trkpt lat="49.2632" lon="-0.10451">
        <ele>5.6</ele>
        <time>2024-10-13T06:41:27Z</time>
      </trkpt>
      <trkpt lat="49.26311" lon="-0.1045">
        <ele>5.6</ele>
        <time>2024-10-13T06:41:28Z</time>
      </trkpt>
      <trkpt lat="49.26305" lon="-0.1045">
        <ele>5.6</ele>
        <time>2024-10-13T06:41:29Z</time>
      </trkpt>
      <trkpt lat="49.26298" lon="-0.10449">
        <ele>5.6</ele>
        <time>2024-10-13T06:41:30Z</time>
      </trkpt>
      <trkpt lat="49.26289" lon="-0.10448">
        <ele>5.6</ele>
        <time>2024-10-13T06:41:31Z</time>
      </trkpt>
      <trkpt lat="49.26284" lon="-0.10447">
        <ele>5.6</ele>
        <time>2024-10-13T06:41:32Z</time>
      </trkpt>
      <trkpt lat="49.26276" lon="-0.10447">
        <ele>5.6</ele>
        <time>2024-10-13T06:41:33Z</time>
      </trkpt>
      <trkpt lat="49.26269" lon="-0.10446">
        <ele>5.6</ele>
        <time>2024-10-13T06:41:34Z</time>
      </trkpt>
      <trkpt lat="49.26262" lon="-0.10445">
        <ele>5.6</ele>
        <time>2024-10-13T06:41:35Z</time>
      </trkpt>
      <trkpt lat="49.26253" lon="-0.10444">
        <ele>5.6</ele>
        <time>2024-10-13T06:41:36Z</time>
      </trkpt>
      <trkpt lat="49.26246" lon="-0.10443">
        <ele>5.6</ele>
        <time>2024-10-13T06:41:37Z</time>
      </trkpt>
      <trkpt lat="49.2624" lon="-0.10443">
        <ele>5.6</ele>
        <time>2024-10-13T06:41:38Z</time>
      </trkpt>
      <trkpt lat="49.26231" lon="-0.10442">
        <ele>5.6</ele>
        <time>2024-10-13T06:41:39Z</time>
      </trkpt>
      <trkpt lat="49.26224" lon="-0.10441">
        <ele>5.8</ele>
        <time>2024-10-13T06:41:40Z</time>
      </trkpt>
      <trkpt lat="49.26218" lon="-0.10441">
        <ele>5.8</ele>
        <time>2024-10-13T06:41:41Z</time>
      </trkpt>
      <trkpt lat="49.26211" lon="-0.1044">
        <ele>5.8</ele>
        <time>2024-10-13T06:41:42Z</time>
      </trkpt>
      <trkpt lat="49.26203" lon="-0.10439">
        <ele>5.8</ele>
        <time>2024-10-13T06:41:43Z</time>
      </trkpt>
      <trkpt lat="49.26197" lon="-0.10439">
        <ele>5.8</ele>
        <time>2024-10-13T06:41:44Z</time>
      </trkpt>
      <trkpt lat="49.26188" lon="-0.10438">
        <ele>5.8</ele>
        <time>2024-10-13T06:41:45Z</time>
      </trkpt>
      <trkpt lat="49.26181" lon="-0.10437">
        <ele>5.8</ele>
        <time>2024-10-13T06:41:46Z</time>
      </trkpt>
      <trkpt lat="49.26176" lon="-0.10437">
        <ele>5.8</ele>
        <time>2024-10-13T06:41:47Z</time>
      </trkpt>
      <trkpt lat="49.26167" lon="-0.10436">
        <ele>5.8</ele>
        <time>2024-10-13T06:41:48Z</time>
      </trkpt>
      <trkpt lat="49.26161" lon="-0.10435">
        <ele>5.8</ele>
        <time>2024-10-13T06:41:49Z</time>
      </trkpt>
      <trkpt lat="49.26154" lon="-0.10435">
        <ele>5.8</ele>
        <time>2024-10-13T06:41:50Z</time>
      </trkpt>
      <trkpt lat="49.26145" lon="-0.10434">
        <ele>6</ele>
        <time>2024-10-13T06:41:51Z</time>
      </trkpt>
      <trkpt lat="49.26139" lon="-0.10433">
        <ele>6</ele>
        <time>2024-10-13T06:41:52Z</time>
      </trkpt>
      <trkpt lat="49.26132" lon="-0.10433">
        <ele>6</ele>
        <time>2024-10-13T06:41:53Z</time>
      </trkpt>
      <trkpt lat="49.26123" lon="-0.10432">
        <ele>6</ele>
        <time>2024-10-13T06:41:54Z</time>
      </trkpt>
      <trkpt lat="49.26117" lon="-0.10431">
        <ele>6</ele>
        <time>2024-10-13T06:41:55Z</time>
      </trkpt>
      <trkpt lat="49.2611" lon="-0.10431">
        <ele>6</ele>
        <time>2024-10-13T06:41:56Z</time>
      </trkpt>
      <trkpt lat="49.26103" lon="-0.1043">
        <ele>6</ele>
        <time>2024-10-13T06:41:57Z</time>
      </trkpt>
      <trkpt lat="49.26095" lon="-0.10429">
        <ele>6</ele>
        <time>2024-10-13T06:41:58Z</time>
      </trkpt>
      <trkpt lat="49.26088" lon="-0.10429">
        <ele>6</ele>
        <time>2024-10-13T06:41:59Z</time>
      </trkpt>
      <trkpt lat="49.26081" lon="-0.10428">
        <ele>5.8</ele>
        <time>2024-10-13T06:42:00Z</time>
      </trkpt>
      <trkpt lat="49.26072" lon="-0.10428">
        <ele>5.8</ele>
        <time>2024-10-13T06:42:01Z</time>
      </trkpt>
      <trkpt lat="49.26066" lon="-0.10427">
        <ele>5.8</ele>
        <time>2024-10-13T06:42:02Z</time>
      </trkpt>
      <trkpt lat="49.26059" lon="-0.10427">
        <ele>5.8</ele>
        <time>2024-10-13T06:42:03Z</time>
      </trkpt>
      <trkpt lat="49.2605" lon="-0.10426">
        <ele>5.8</ele>
        <time>2024-10-13T06:42:04Z</time>
      </trkpt>
      <trkpt lat="49.26044" lon="-0.10426">
        <ele>5.8</ele>
        <time>2024-10-13T06:42:05Z</time>
      </trkpt>
      <trkpt lat="49.26037" lon="-0.10426">
        <ele>5.8</ele>
        <time>2024-10-13T06:42:06Z</time>
      </trkpt>
      <trkpt lat="49.26028" lon="-0.10425">
        <ele>5.8</ele>
        <time>2024-10-13T06:42:07Z</time>
      </trkpt>
      <trkpt lat="49.26022" lon="-0.10424">
        <ele>5.8</ele>
        <time>2024-10-13T06:42:08Z</time>
      </trkpt>
      <trkpt lat="49.26013" lon="-0.10424">
        <ele>5.8</ele>
        <time>2024-10-13T06:42:09Z</time>
      </trkpt>
      <trkpt lat="49.26006" lon="-0.10423">
        <ele>5.8</ele>
        <time>2024-10-13T06:42:10Z</time>
      </trkpt>
      <trkpt lat="49.26" lon="-0.10423">
        <ele>5.8</ele>
        <time>2024-10-13T06:42:11Z</time>
      </trkpt>
      <trkpt lat="49.25991" lon="-0.10422">
        <ele>5.6</ele>
        <time>2024-10-13T06:42:12Z</time>
      </trkpt>
      <trkpt lat="49.25983" lon="-0.10422">
        <ele>5.6</ele>
        <time>2024-10-13T06:42:13Z</time>
      </trkpt>
      <trkpt lat="49.25977" lon="-0.10421">
        <ele>5.6</ele>
        <time>2024-10-13T06:42:14Z</time>
      </trkpt>
      <trkpt lat="49.25969" lon="-0.1042">
        <ele>5.6</ele>
        <time>2024-10-13T06:42:15Z</time>
      </trkpt>
      <trkpt lat="49.25961" lon="-0.1042">
        <ele>5.6</ele>
        <time>2024-10-13T06:42:16Z</time>
      </trkpt>
      <trkpt lat="49.25955" lon="-0.10419">
        <ele>5.6</ele>
        <time>2024-10-13T06:42:17Z</time>
      </trkpt>
      <trkpt lat="49.25948" lon="-0.10419">
        <ele>5.4</ele>
        <time>2024-10-13T06:42:18Z</time>
      </trkpt>
      <trkpt lat="49.25939" lon="-0.10418">
        <ele>5.4</ele>
        <time>2024-10-13T06:42:19Z</time>
      </trkpt>
      <trkpt lat="49.25933" lon="-0.10418">
        <ele>5.4</ele>
        <time>2024-10-13T06:42:20Z</time>
      </trkpt>
      <trkpt lat="49.25925" lon="-0.10417">
        <ele>5.2</ele>
        <time>2024-10-13T06:42:21Z</time>
      </trkpt>
      <trkpt lat="49.25919" lon="-0.10416">
        <ele>5.2</ele>
        <time>2024-10-13T06:42:22Z</time>
      </trkpt>
      <trkpt lat="49.25912" lon="-0.10415">
        <ele>5.2</ele>
        <time>2024-10-13T06:42:23Z</time>
      </trkpt>
      <trkpt lat="49.25903" lon="-0.10413">
        <ele>5.2</ele>
        <time>2024-10-13T06:42:24Z</time>
      </trkpt>
      <trkpt lat="49.25897" lon="-0.10412">
        <ele>5.2</ele>
        <time>2024-10-13T06:42:25Z</time>
      </trkpt>
      <trkpt lat="49.2589" lon="-0.10411">
        <ele>5.2</ele>
        <time>2024-10-13T06:42:26Z</time>
      </trkpt>
      <trkpt lat="49.25882" lon="-0.10409">
        <ele>5</ele>
        <time>2024-10-13T06:42:27Z</time>
      </trkpt>
      <trkpt lat="49.25875" lon="-0.10408">
        <ele>5</ele>
        <time>2024-10-13T06:42:28Z</time>
      </trkpt>
      <trkpt lat="49.25866" lon="-0.10407">
        <ele>4.8</ele>
        <time>2024-10-13T06:42:29Z</time>
      </trkpt>
      <trkpt lat="49.25859" lon="-0.10406">
        <ele>4.8</ele>
        <time>2024-10-13T06:42:30Z</time>
      </trkpt>
      <trkpt lat="49.25853" lon="-0.10405">
        <ele>4.8</ele>
        <time>2024-10-13T06:42:31Z</time>
      </trkpt>
      <trkpt lat="49.25845" lon="-0.10404">
        <ele>4.6</ele>
        <time>2024-10-13T06:42:32Z</time>
      </trkpt>
      <trkpt lat="49.25838" lon="-0.10403">
        <ele>4.6</ele>
        <time>2024-10-13T06:42:33Z</time>
      </trkpt>
      <trkpt lat="49.25832" lon="-0.10403">
        <ele>4.6</ele>
        <time>2024-10-13T06:42:34Z</time>
      </trkpt>
      <trkpt lat="49.25825" lon="-0.10402">
        <ele>4.6</ele>
        <time>2024-10-13T06:42:35Z</time>
      </trkpt>
      <trkpt lat="49.25818" lon="-0.10402">
        <ele>4.4</ele>
        <time>2024-10-13T06:42:36Z</time>
      </trkpt>
      <trkpt lat="49.25813" lon="-0.10402">
        <ele>4.4</ele>
        <time>2024-10-13T06:42:37Z</time>
      </trkpt>
      <trkpt lat="49.25806" lon="-0.10404">
        <ele>4.4</ele>
        <time>2024-10-13T06:42:38Z</time>
      </trkpt>
      <trkpt lat="49.25801" lon="-0.10406">
        <ele>4.4</ele>
        <time>2024-10-13T06:42:39Z</time>
      </trkpt>
      <trkpt lat="49.25794" lon="-0.10409">
        <ele>4.4</ele>
        <time>2024-10-13T06:42:40Z</time>
      </trkpt>
      <trkpt lat="49.25789" lon="-0.10414">
        <ele>4.4</ele>
        <time>2024-10-13T06:42:41Z</time>
      </trkpt>
      <trkpt lat="49.25783" lon="-0.10418">
        <ele>4.4</ele>
        <time>2024-10-13T06:42:42Z</time>
      </trkpt>
      <trkpt lat="49.25777" lon="-0.10421">
        <ele>4.2</ele>
        <time>2024-10-13T06:42:43Z</time>
      </trkpt>
      <trkpt lat="49.25769" lon="-0.10421">
        <ele>4.2</ele>
        <time>2024-10-13T06:42:44Z</time>
      </trkpt>
      <trkpt lat="49.25763" lon="-0.10417">
        <ele>4.2</ele>
        <time>2024-10-13T06:42:45Z</time>
      </trkpt>
      <trkpt lat="49.25759" lon="-0.10412">
        <ele>4.2</ele>
        <time>2024-10-13T06:42:46Z</time>
      </trkpt>
      <trkpt lat="49.25755" lon="-0.10403">
        <ele>4.2</ele>
        <time>2024-10-13T06:42:47Z</time>
      </trkpt>
      <trkpt lat="49.25754" lon="-0.10394">
        <ele>4.2</ele>
        <time>2024-10-13T06:42:48Z</time>
      </trkpt>
      <trkpt lat="49.25755" lon="-0.10386">
        <ele>4.2</ele>
        <time>2024-10-13T06:42:49Z</time>
      </trkpt>
      <trkpt lat="49.25758" lon="-0.10376">
        <ele>4.2</ele>
        <time>2024-10-13T06:42:50Z</time>
      </trkpt>
      <trkpt lat="49.25762" lon="-0.10368">
        <ele>4.2</ele>
        <time>2024-10-13T06:42:51Z</time>
      </trkpt>
      <trkpt lat="49.25766" lon="-0.10362">
        <ele>4.2</ele>
        <time>2024-10-13T06:42:52Z</time>
      </trkpt>
      <trkpt lat="49.25771" lon="-0.10353">
        <ele>4.2</ele>
        <time>2024-10-13T06:42:53Z</time>
      </trkpt>
      <trkpt lat="49.25775" lon="-0.10347">
        <ele>4.2</ele>
        <time>2024-10-13T06:42:54Z</time>
      </trkpt>
      <trkpt lat="49.25779" lon="-0.10339">
        <ele>4.2</ele>
        <time>2024-10-13T06:42:55Z</time>
      </trkpt>
      <trkpt lat="49.25783" lon="-0.10328">
        <ele>4.2</ele>
        <time>2024-10-13T06:42:56Z</time>
      </trkpt>
      <trkpt lat="49.25785" lon="-0.1032">
        <ele>4.2</ele>
        <time>2024-10-13T06:42:57Z</time>
      </trkpt>
      <trkpt lat="49.25787" lon="-0.10309">
        <ele>4.2</ele>
        <time>2024-10-13T06:42:58Z</time>
      </trkpt>
      <trkpt lat="49.25789" lon="-0.10297">
        <ele>4.2</ele>
        <time>2024-10-13T06:42:59Z</time>
      </trkpt>
      <trkpt lat="49.2579" lon="-0.10289">
        <ele>4.2</ele>
        <time>2024-10-13T06:43:00Z</time>
      </trkpt>
      <trkpt lat="49.25792" lon="-0.10279">
        <ele>4.2</ele>
        <time>2024-10-13T06:43:01Z</time>
      </trkpt>
      <trkpt lat="49.25794" lon="-0.10266">
        <ele>4.2</ele>
        <time>2024-10-13T06:43:02Z</time>
      </trkpt>
      <trkpt lat="49.25794" lon="-0.10258">
        <ele>4.2</ele>
        <time>2024-10-13T06:43:03Z</time>
      </trkpt>
      <trkpt lat="49.25795" lon="-0.10248">
        <ele>4.2</ele>
        <time>2024-10-13T06:43:04Z</time>
      </trkpt>
      <trkpt lat="49.25796" lon="-0.10236">
        <ele>4.2</ele>
        <time>2024-10-13T06:43:05Z</time>
      </trkpt>
      <trkpt lat="49.25797" lon="-0.10227">
        <ele>4.2</ele>
        <time>2024-10-13T06:43:06Z</time>
      </trkpt>
      <trkpt lat="49.25797" lon="-0.10214">
        <ele>4.2</ele>
        <time>2024-10-13T06:43:07Z</time>
      </trkpt>
      <trkpt lat="49.25798" lon="-0.10204">
        <ele>4.2</ele>
        <time>2024-10-13T06:43:08Z</time>
      </trkpt>
      <trkpt lat="49.25798" lon="-0.10196">
        <ele>4.4</ele>
        <time>2024-10-13T06:43:09Z</time>
      </trkpt>
      <trkpt lat="49.25799" lon="-0.10183">
        <ele>4.6</ele>
        <time>2024-10-13T06:43:10Z</time>
      </trkpt>
      <trkpt lat="49.258" lon="-0.10173">
        <ele>4.8</ele>
        <time>2024-10-13T06:43:11Z</time>
      </trkpt>
      <trkpt lat="49.258" lon="-0.10164">
        <ele>4.8</ele>
        <time>2024-10-13T06:43:12Z</time>
      </trkpt>
      <trkpt lat="49.25801" lon="-0.10152">
        <ele>5</ele>
        <time>2024-10-13T06:43:13Z</time>
      </trkpt>
      <trkpt lat="49.25801" lon="-0.10142">
        <ele>5</ele>
        <time>2024-10-13T06:43:14Z</time>
      </trkpt>
      <trkpt lat="49.25802" lon="-0.10133">
        <ele>5.2</ele>
        <time>2024-10-13T06:43:15Z</time>
      </trkpt>
      <trkpt lat="49.25803" lon="-0.10121">
        <ele>5.2</ele>
        <time>2024-10-13T06:43:16Z</time>
      </trkpt>
      <trkpt lat="49.25803" lon="-0.1011">
        <ele>5.2</ele>
        <time>2024-10-13T06:43:17Z</time>
      </trkpt>
      <trkpt lat="49.25804" lon="-0.10102">
        <ele>5.2</ele>
        <time>2024-10-13T06:43:18Z</time>
      </trkpt>
      <trkpt lat="49.25805" lon="-0.10089">
        <ele>5.2</ele>
        <time>2024-10-13T06:43:19Z</time>
      </trkpt>
      <trkpt lat="49.25806" lon="-0.10079">
        <ele>5.2</ele>
        <time>2024-10-13T06:43:20Z</time>
      </trkpt>
      <trkpt lat="49.25806" lon="-0.1007">
        <ele>5.2</ele>
        <time>2024-10-13T06:43:21Z</time>
      </trkpt>
      <trkpt lat="49.25808" lon="-0.1006">
        <ele>5.2</ele>
        <time>2024-10-13T06:43:22Z</time>
      </trkpt>
      <trkpt lat="49.25809" lon="-0.10049">
        <ele>5.4</ele>
        <time>2024-10-13T06:43:23Z</time>
      </trkpt>
      <trkpt lat="49.2581" lon="-0.10038">
        <ele>5.2</ele>
        <time>2024-10-13T06:43:24Z</time>
      </trkpt>
      <trkpt lat="49.25811" lon="-0.10025">
        <ele>5.2</ele>
        <time>2024-10-13T06:43:25Z</time>
      </trkpt>
      <trkpt lat="49.25812" lon="-0.10017">
        <ele>5.2</ele>
        <time>2024-10-13T06:43:26Z</time>
      </trkpt>
      <trkpt lat="49.25813" lon="-0.10006">
        <ele>5.2</ele>
        <time>2024-10-13T06:43:27Z</time>
      </trkpt>
      <trkpt lat="49.25814" lon="-0.09993">
        <ele>5.2</ele>
        <time>2024-10-13T06:43:28Z</time>
      </trkpt>
      <trkpt lat="49.25815" lon="-0.09984">
        <ele>5.6</ele>
        <time>2024-10-13T06:43:29Z</time>
      </trkpt>
      <trkpt lat="49.25816" lon="-0.09972">
        <ele>5.6</ele>
        <time>2024-10-13T06:43:30Z</time>
      </trkpt>
      <trkpt lat="49.25817" lon="-0.0996">
        <ele>5.6</ele>
        <time>2024-10-13T06:43:31Z</time>
      </trkpt>
      <trkpt lat="49.25818" lon="-0.09951">
        <ele>5.6</ele>
        <time>2024-10-13T06:43:32Z</time>
      </trkpt>
      <trkpt lat="49.25819" lon="-0.09938">
        <ele>5.6</ele>
        <time>2024-10-13T06:43:33Z</time>
      </trkpt>
      <trkpt lat="49.2582" lon="-0.09927">
        <ele>5.6</ele>
        <time>2024-10-13T06:43:34Z</time>
      </trkpt>
      <trkpt lat="49.25821" lon="-0.09918">
        <ele>5.6</ele>
        <time>2024-10-13T06:43:35Z</time>
      </trkpt>
      <trkpt lat="49.25822" lon="-0.09904">
        <ele>5.6</ele>
        <time>2024-10-13T06:43:36Z</time>
      </trkpt>
      <trkpt lat="49.25822" lon="-0.09895">
        <ele>5.6</ele>
        <time>2024-10-13T06:43:37Z</time>
      </trkpt>
      <trkpt lat="49.25823" lon="-0.09884">
        <ele>5.4</ele>
        <time>2024-10-13T06:43:38Z</time>
      </trkpt>
      <trkpt lat="49.25824" lon="-0.0987">
        <ele>5.2</ele>
        <time>2024-10-13T06:43:39Z</time>
      </trkpt>
      <trkpt lat="49.25824" lon="-0.09859">
        <ele>5.2</ele>
        <time>2024-10-13T06:43:40Z</time>
      </trkpt>
      <trkpt lat="49.25825" lon="-0.0985">
        <ele>5.2</ele>
        <time>2024-10-13T06:43:41Z</time>
      </trkpt>
      <trkpt lat="49.25826" lon="-0.09836">
        <ele>5.2</ele>
        <time>2024-10-13T06:43:42Z</time>
      </trkpt>
      <trkpt lat="49.25826" lon="-0.09827">
        <ele>5.4</ele>
        <time>2024-10-13T06:43:43Z</time>
      </trkpt>
      <trkpt lat="49.25827" lon="-0.09815">
        <ele>5</ele>
        <time>2024-10-13T06:43:44Z</time>
      </trkpt>
      <trkpt lat="49.25828" lon="-0.09804">
        <ele>5</ele>
        <time>2024-10-13T06:43:45Z</time>
      </trkpt>
      <trkpt lat="49.25829" lon="-0.09791">
        <ele>5</ele>
        <time>2024-10-13T06:43:46Z</time>
      </trkpt>
      <trkpt lat="49.25829" lon="-0.09782">
        <ele>4.8</ele>
        <time>2024-10-13T06:43:47Z</time>
      </trkpt>
      <trkpt lat="49.2583" lon="-0.09769">
        <ele>4.8</ele>
        <time>2024-10-13T06:43:48Z</time>
      </trkpt>
      <trkpt lat="49.25831" lon="-0.09761">
        <ele>4.8</ele>
        <time>2024-10-13T06:43:49Z</time>
      </trkpt>
      <trkpt lat="49.25832" lon="-0.0975">
        <ele>4.8</ele>
        <time>2024-10-13T06:43:50Z</time>
      </trkpt>
      <trkpt lat="49.25833" lon="-0.09737">
        <ele>4.8</ele>
        <time>2024-10-13T06:43:51Z</time>
      </trkpt>
      <trkpt lat="49.25833" lon="-0.09728">
        <ele>4.8</ele>
        <time>2024-10-13T06:43:52Z</time>
      </trkpt>
      <trkpt lat="49.25834" lon="-0.09717">
        <ele>5</ele>
        <time>2024-10-13T06:43:53Z</time>
      </trkpt>
      <trkpt lat="49.25835" lon="-0.09703">
        <ele>5</ele>
        <time>2024-10-13T06:43:54Z</time>
      </trkpt>
      <trkpt lat="49.25836" lon="-0.09695">
        <ele>5</ele>
        <time>2024-10-13T06:43:55Z</time>
      </trkpt>
      <trkpt lat="49.25836" lon="-0.09682">
        <ele>5</ele>
        <time>2024-10-13T06:43:56Z</time>
      </trkpt>
      <trkpt lat="49.25835" lon="-0.09671">
        <ele>5</ele>
        <time>2024-10-13T06:43:57Z</time>
      </trkpt>
      <trkpt lat="49.25835" lon="-0.09663">
        <ele>5</ele>
        <time>2024-10-13T06:43:58Z</time>
      </trkpt>
      <trkpt lat="49.25834" lon="-0.0965">
        <ele>5</ele>
        <time>2024-10-13T06:43:59Z</time>
      </trkpt>
      <trkpt lat="49.25834" lon="-0.09639">
        <ele>5.2</ele>
        <time>2024-10-13T06:44:00Z</time>
      </trkpt>
      <trkpt lat="49.25834" lon="-0.09631">
        <ele>5.2</ele>
        <time>2024-10-13T06:44:01Z</time>
      </trkpt>
      <trkpt lat="49.25834" lon="-0.09619">
        <ele>5.2</ele>
        <time>2024-10-13T06:44:02Z</time>
      </trkpt>
      <trkpt lat="49.25833" lon="-0.09609">
        <ele>5.2</ele>
        <time>2024-10-13T06:44:03Z</time>
      </trkpt>
      <trkpt lat="49.25833" lon="-0.096">
        <ele>5.2</ele>
        <time>2024-10-13T06:44:04Z</time>
      </trkpt>
      <trkpt lat="49.25833" lon="-0.0959">
        <ele>5.4</ele>
        <time>2024-10-13T06:44:05Z</time>
      </trkpt>
      <trkpt lat="49.25833" lon="-0.0958">
        <ele>5.4</ele>
        <time>2024-10-13T06:44:06Z</time>
      </trkpt>
      <trkpt lat="49.25833" lon="-0.0957">
        <ele>5.6</ele>
        <time>2024-10-13T06:44:07Z</time>
      </trkpt>
      <trkpt lat="49.25833" lon="-0.09558">
        <ele>5.8</ele>
        <time>2024-10-13T06:44:08Z</time>
      </trkpt>
      <trkpt lat="49.25834" lon="-0.0955">
        <ele>5.8</ele>
        <time>2024-10-13T06:44:09Z</time>
      </trkpt>
      <trkpt lat="49.25834" lon="-0.0954">
        <ele>6</ele>
        <time>2024-10-13T06:44:10Z</time>
      </trkpt>
      <trkpt lat="49.25835" lon="-0.09529">
        <ele>6</ele>
        <time>2024-10-13T06:44:11Z</time>
      </trkpt>
      <trkpt lat="49.25835" lon="-0.0952">
        <ele>6</ele>
        <time>2024-10-13T06:44:12Z</time>
      </trkpt>
      <trkpt lat="49.25836" lon="-0.09513">
        <ele>6.2</ele>
        <time>2024-10-13T06:44:13Z</time>
      </trkpt>
      <trkpt lat="49.25835" lon="-0.09503">
        <ele>6.4</ele>
        <time>2024-10-13T06:44:14Z</time>
      </trkpt>
      <trkpt lat="49.25834" lon="-0.09496">
        <ele>6.6</ele>
        <time>2024-10-13T06:44:15Z</time>
      </trkpt>
      <trkpt lat="49.25831" lon="-0.09489">
        <ele>6.6</ele>
        <time>2024-10-13T06:44:16Z</time>
      </trkpt>
      <trkpt lat="49.25825" lon="-0.09482">
        <ele>6.8</ele>
        <time>2024-10-13T06:44:17Z</time>
      </trkpt>
      <trkpt lat="49.25821" lon="-0.0948">
        <ele>6.8</ele>
        <time>2024-10-13T06:44:18Z</time>
      </trkpt>
      <trkpt lat="49.25813" lon="-0.09478">
        <ele>7</ele>
        <time>2024-10-13T06:44:19Z</time>
      </trkpt>
      <trkpt lat="49.25807" lon="-0.09478">
        <ele>7.2</ele>
        <time>2024-10-13T06:44:20Z</time>
      </trkpt>
      <trkpt lat="49.25802" lon="-0.09479">
        <ele>7.4</ele>
        <time>2024-10-13T06:44:21Z</time>
      </trkpt>
      <trkpt lat="49.25794" lon="-0.0948">
        <ele>7.4</ele>
        <time>2024-10-13T06:44:22Z</time>
      </trkpt>
      <trkpt lat="49.25788" lon="-0.09483">
        <ele>7.6</ele>
        <time>2024-10-13T06:44:23Z</time>
      </trkpt>
      <trkpt lat="49.25782" lon="-0.09486">
        <ele>8</ele>
        <time>2024-10-13T06:44:24Z</time>
      </trkpt>
      <trkpt lat="49.25774" lon="-0.09491">
        <ele>8</ele>
        <time>2024-10-13T06:44:25Z</time>
      </trkpt>
      <trkpt lat="49.25768" lon="-0.09496">
        <ele>8.2</ele>
        <time>2024-10-13T06:44:26Z</time>
      </trkpt>
      <trkpt lat="49.25762" lon="-0.095">
        <ele>8.2</ele>
        <time>2024-10-13T06:44:27Z</time>
      </trkpt>
      <trkpt lat="49.25756" lon="-0.09505">
        <ele>8.2</ele>
        <time>2024-10-13T06:44:28Z</time>
      </trkpt>
      <trkpt lat="49.25748" lon="-0.09511">
        <ele>8.2</ele>
        <time>2024-10-13T06:44:29Z</time>
      </trkpt>
      <trkpt lat="49.25743" lon="-0.09515">
        <ele>8.2</ele>
        <time>2024-10-13T06:44:30Z</time>
      </trkpt>
      <trkpt lat="49.25735" lon="-0.09521">
        <ele>8.2</ele>
        <time>2024-10-13T06:44:31Z</time>
      </trkpt>
      <trkpt lat="49.25728" lon="-0.09526">
        <ele>8.2</ele>
        <time>2024-10-13T06:44:32Z</time>
      </trkpt>
      <trkpt lat="49.25723" lon="-0.0953">
        <ele>8.2</ele>
        <time>2024-10-13T06:44:33Z</time>
      </trkpt>
      <trkpt lat="49.25716" lon="-0.09536">
        <ele>8</ele>
        <time>2024-10-13T06:44:34Z</time>
      </trkpt>
      <trkpt lat="49.2571" lon="-0.09541">
        <ele>7.8</ele>
        <time>2024-10-13T06:44:35Z</time>
      </trkpt>
      <trkpt lat="49.25704" lon="-0.09545">
        <ele>7.8</ele>
        <time>2024-10-13T06:44:36Z</time>
      </trkpt>
      <trkpt lat="49.25697" lon="-0.09551">
        <ele>7.6</ele>
        <time>2024-10-13T06:44:37Z</time>
      </trkpt>
      <trkpt lat="49.25691" lon="-0.09556">
        <ele>7.4</ele>
        <time>2024-10-13T06:44:38Z</time>
      </trkpt>
      <trkpt lat="49.25685" lon="-0.0956">
        <ele>7.4</ele>
        <time>2024-10-13T06:44:39Z</time>
      </trkpt>
      <trkpt lat="49.25678" lon="-0.09565">
        <ele>7.6</ele>
        <time>2024-10-13T06:44:40Z</time>
      </trkpt>
      <trkpt lat="49.25673" lon="-0.09569">
        <ele>7.6</ele>
        <time>2024-10-13T06:44:41Z</time>
      </trkpt>
      <trkpt lat="49.25666" lon="-0.09574">
        <ele>7.2</ele>
        <time>2024-10-13T06:44:42Z</time>
      </trkpt>
      <trkpt lat="49.25659" lon="-0.09578">
        <ele>7.4</ele>
        <time>2024-10-13T06:44:43Z</time>
      </trkpt>
      <trkpt lat="49.25654" lon="-0.09581">
        <ele>7.4</ele>
        <time>2024-10-13T06:44:44Z</time>
      </trkpt>
      <trkpt lat="49.25646" lon="-0.09586">
        <ele>7.2</ele>
        <time>2024-10-13T06:44:45Z</time>
      </trkpt>
      <trkpt lat="49.25639" lon="-0.0959">
        <ele>7</ele>
        <time>2024-10-13T06:44:46Z</time>
      </trkpt>
      <trkpt lat="49.25634" lon="-0.09592">
        <ele>7</ele>
        <time>2024-10-13T06:44:47Z</time>
      </trkpt>
      <trkpt lat="49.25626" lon="-0.09595">
        <ele>7</ele>
        <time>2024-10-13T06:44:48Z</time>
      </trkpt>
      <trkpt lat="49.2562" lon="-0.09596">
        <ele>7.2</ele>
        <time>2024-10-13T06:44:49Z</time>
      </trkpt>
      <trkpt lat="49.25613" lon="-0.09597">
        <ele>7</ele>
        <time>2024-10-13T06:44:50Z</time>
      </trkpt>
      <trkpt lat="49.25605" lon="-0.09598">
        <ele>7</ele>
        <time>2024-10-13T06:44:51Z</time>
      </trkpt>
      <trkpt lat="49.25598" lon="-0.09598">
        <ele>7</ele>
        <time>2024-10-13T06:44:52Z</time>
      </trkpt>
      <trkpt lat="49.25592" lon="-0.09598">
        <ele>7</ele>
        <time>2024-10-13T06:44:53Z</time>
      </trkpt>
      <trkpt lat="49.25583" lon="-0.09597">
        <ele>7</ele>
        <time>2024-10-13T06:44:54Z</time>
      </trkpt>
      <trkpt lat="49.25578" lon="-0.09597">
        <ele>7</ele>
        <time>2024-10-13T06:44:55Z</time>
      </trkpt>
      <trkpt lat="49.25571" lon="-0.09597">
        <ele>7</ele>
        <time>2024-10-13T06:44:56Z</time>
      </trkpt>
      <trkpt lat="49.25562" lon="-0.09596">
        <ele>7</ele>
        <time>2024-10-13T06:44:57Z</time>
      </trkpt>
      <trkpt lat="49.25554" lon="-0.09597">
        <ele>6.8</ele>
        <time>2024-10-13T06:44:58Z</time>
      </trkpt>
      <trkpt lat="49.25549" lon="-0.09597">
        <ele>6.8</ele>
        <time>2024-10-13T06:44:59Z</time>
      </trkpt>
      <trkpt lat="49.2554" lon="-0.09597">
        <ele>6.8</ele>
        <time>2024-10-13T06:45:00Z</time>
      </trkpt>
      <trkpt lat="49.25534" lon="-0.09596">
        <ele>6.8</ele>
        <time>2024-10-13T06:45:01Z</time>
      </trkpt>
      <trkpt lat="49.25526" lon="-0.09597">
        <ele>6.8</ele>
        <time>2024-10-13T06:45:02Z</time>
      </trkpt>
      <trkpt lat="49.25517" lon="-0.09597">
        <ele>6.8</ele>
        <time>2024-10-13T06:45:03Z</time>
      </trkpt>
      <trkpt lat="49.2551" lon="-0.09597">
        <ele>6.8</ele>
        <time>2024-10-13T06:45:04Z</time>
      </trkpt>
      <trkpt lat="49.25502" lon="-0.09598">
        <ele>6.6</ele>
        <time>2024-10-13T06:45:05Z</time>
      </trkpt>
      <trkpt lat="49.25496" lon="-0.09599">
        <ele>6.6</ele>
        <time>2024-10-13T06:45:06Z</time>
      </trkpt>
      <trkpt lat="49.25489" lon="-0.096">
        <ele>6.6</ele>
        <time>2024-10-13T06:45:07Z</time>
      </trkpt>
      <trkpt lat="49.25481" lon="-0.09601">
        <ele>6.6</ele>
        <time>2024-10-13T06:45:08Z</time>
      </trkpt>
      <trkpt lat="49.25473" lon="-0.09603">
        <ele>6.6</ele>
        <time>2024-10-13T06:45:09Z</time>
      </trkpt>
      <trkpt lat="49.25467" lon="-0.09604">
        <ele>6.6</ele>
        <time>2024-10-13T06:45:10Z</time>
      </trkpt>
      <trkpt lat="49.25459" lon="-0.09605">
        <ele>6.6</ele>
        <time>2024-10-13T06:45:11Z</time>
      </trkpt>
      <trkpt lat="49.2545" lon="-0.09606">
        <ele>6.4</ele>
        <time>2024-10-13T06:45:12Z</time>
      </trkpt>
      <trkpt lat="49.25444" lon="-0.09607">
        <ele>6.4</ele>
        <time>2024-10-13T06:45:13Z</time>
      </trkpt>
      <trkpt lat="49.25437" lon="-0.09609">
        <ele>6.4</ele>
        <time>2024-10-13T06:45:14Z</time>
      </trkpt>
      <trkpt lat="49.25428" lon="-0.0961">
        <ele>6.4</ele>
        <time>2024-10-13T06:45:15Z</time>
      </trkpt>
      <trkpt lat="49.25422" lon="-0.09611">
        <ele>6.2</ele>
        <time>2024-10-13T06:45:16Z</time>
      </trkpt>
      <trkpt lat="49.25413" lon="-0.09613">
        <ele>6.2</ele>
        <time>2024-10-13T06:45:17Z</time>
      </trkpt>
      <trkpt lat="49.25406" lon="-0.09615">
        <ele>6.2</ele>
        <time>2024-10-13T06:45:18Z</time>
      </trkpt>
      <trkpt lat="49.254" lon="-0.09616">
        <ele>6</ele>
        <time>2024-10-13T06:45:19Z</time>
      </trkpt>
      <trkpt lat="49.25391" lon="-0.09618">
        <ele>6</ele>
        <time>2024-10-13T06:45:20Z</time>
      </trkpt>
      <trkpt lat="49.25386" lon="-0.09619">
        <ele>6</ele>
        <time>2024-10-13T06:45:21Z</time>
      </trkpt>
      <trkpt lat="49.25379" lon="-0.09621">
        <ele>5.8</ele>
        <time>2024-10-13T06:45:22Z</time>
      </trkpt>
      <trkpt lat="49.2537" lon="-0.09622">
        <ele>5.8</ele>
        <time>2024-10-13T06:45:23Z</time>
      </trkpt>
      <trkpt lat="49.25363" lon="-0.09623">
        <ele>5.8</ele>
        <time>2024-10-13T06:45:24Z</time>
      </trkpt>
      <trkpt lat="49.25358" lon="-0.09624">
        <ele>5.6</ele>
        <time>2024-10-13T06:45:25Z</time>
      </trkpt>
      <trkpt lat="49.25349" lon="-0.09625">
        <ele>5.6</ele>
        <time>2024-10-13T06:45:26Z</time>
      </trkpt>
      <trkpt lat="49.25344" lon="-0.09626">
        <ele>5.6</ele>
        <time>2024-10-13T06:45:27Z</time>
      </trkpt>
      <trkpt lat="49.25336" lon="-0.09628">
        <ele>5.6</ele>
        <time>2024-10-13T06:45:28Z</time>
      </trkpt>
      <trkpt lat="49.25329" lon="-0.0963">
        <ele>5.6</ele>
        <time>2024-10-13T06:45:29Z</time>
      </trkpt>
      <trkpt lat="49.25323" lon="-0.09633">
        <ele>5.6</ele>
        <time>2024-10-13T06:45:30Z</time>
      </trkpt>
      <trkpt lat="49.25317" lon="-0.09636">
        <ele>5.6</ele>
        <time>2024-10-13T06:45:31Z</time>
      </trkpt>
      <trkpt lat="49.2531" lon="-0.09639">
        <ele>5.6</ele>
        <time>2024-10-13T06:45:32Z</time>
      </trkpt>
      <trkpt lat="49.25304" lon="-0.09644">
        <ele>5.4</ele>
        <time>2024-10-13T06:45:33Z</time>
      </trkpt>
      <trkpt lat="49.25297" lon="-0.09648">
        <ele>5.4</ele>
        <time>2024-10-13T06:45:34Z</time>
      </trkpt>
      <trkpt lat="49.2529" lon="-0.09655">
        <ele>5.4</ele>
        <time>2024-10-13T06:45:35Z</time>
      </trkpt>
      <trkpt lat="49.25286" lon="-0.0966">
        <ele>5.4</ele>
        <time>2024-10-13T06:45:36Z</time>
      </trkpt>
      <trkpt lat="49.25279" lon="-0.09667">
        <ele>5.4</ele>
        <time>2024-10-13T06:45:37Z</time>
      </trkpt>
      <trkpt lat="49.25273" lon="-0.09673">
        <ele>5.4</ele>
        <time>2024-10-13T06:45:38Z</time>
      </trkpt>
      <trkpt lat="49.25269" lon="-0.09677">
        <ele>5.4</ele>
        <time>2024-10-13T06:45:39Z</time>
      </trkpt>
      <trkpt lat="49.25261" lon="-0.09684">
        <ele>5.4</ele>
        <time>2024-10-13T06:45:40Z</time>
      </trkpt>
      <trkpt lat="49.25255" lon="-0.09689">
        <ele>5.4</ele>
        <time>2024-10-13T06:45:41Z</time>
      </trkpt>
      <trkpt lat="49.2525" lon="-0.09692">
        <ele>5.4</ele>
        <time>2024-10-13T06:45:42Z</time>
      </trkpt>
      <trkpt lat="49.25242" lon="-0.09697">
        <ele>5.6</ele>
        <time>2024-10-13T06:45:43Z</time>
      </trkpt>
      <trkpt lat="49.25236" lon="-0.097">
        <ele>5.6</ele>
        <time>2024-10-13T06:45:44Z</time>
      </trkpt>
      <trkpt lat="49.2523" lon="-0.09703">
        <ele>5.6</ele>
        <time>2024-10-13T06:45:45Z</time>
      </trkpt>
      <trkpt lat="49.25221" lon="-0.09706">
        <ele>5.6</ele>
        <time>2024-10-13T06:45:46Z</time>
      </trkpt>
      <trkpt lat="49.25215" lon="-0.09708">
        <ele>5.4</ele>
        <time>2024-10-13T06:45:47Z</time>
      </trkpt>
      <trkpt lat="49.25209" lon="-0.0971">
        <ele>5.4</ele>
        <time>2024-10-13T06:45:48Z</time>
      </trkpt>
      <trkpt lat="49.25201" lon="-0.09713">
        <ele>5.4</ele>
        <time>2024-10-13T06:45:49Z</time>
      </trkpt>
      <trkpt lat="49.25195" lon="-0.09716">
        <ele>5.4</ele>
        <time>2024-10-13T06:45:50Z</time>
      </trkpt>
      <trkpt lat="49.25188" lon="-0.09719">
        <ele>5.4</ele>
        <time>2024-10-13T06:45:51Z</time>
      </trkpt>
      <trkpt lat="49.25179" lon="-0.09722">
        <ele>5.4</ele>
        <time>2024-10-13T06:45:52Z</time>
      </trkpt>
      <trkpt lat="49.25174" lon="-0.09724">
        <ele>5.4</ele>
        <time>2024-10-13T06:45:53Z</time>
      </trkpt>
      <trkpt lat="49.25167" lon="-0.09727">
        <ele>5.4</ele>
        <time>2024-10-13T06:45:54Z</time>
      </trkpt>
      <trkpt lat="49.2516" lon="-0.0973">
        <ele>5.2</ele>
        <time>2024-10-13T06:45:55Z</time>
      </trkpt>
      <trkpt lat="49.25153" lon="-0.09734">
        <ele>5.2</ele>
        <time>2024-10-13T06:45:56Z</time>
      </trkpt>
      <trkpt lat="49.25146" lon="-0.09738">
        <ele>5</ele>
        <time>2024-10-13T06:45:57Z</time>
      </trkpt>
      <trkpt lat="49.25139" lon="-0.09744">
        <ele>5</ele>
        <time>2024-10-13T06:45:58Z</time>
      </trkpt>
      <trkpt lat="49.25134" lon="-0.0975">
        <ele>4.8</ele>
        <time>2024-10-13T06:45:59Z</time>
      </trkpt>
      <trkpt lat="49.25127" lon="-0.09759">
        <ele>4.8</ele>
        <time>2024-10-13T06:46:00Z</time>
      </trkpt>
      <trkpt lat="49.25122" lon="-0.09768">
        <ele>4.6</ele>
        <time>2024-10-13T06:46:01Z</time>
      </trkpt>
      <trkpt lat="49.25119" lon="-0.09775">
        <ele>4.6</ele>
        <time>2024-10-13T06:46:02Z</time>
      </trkpt>
      <trkpt lat="49.25113" lon="-0.09787">
        <ele>4.6</ele>
        <time>2024-10-13T06:46:03Z</time>
      </trkpt>
      <trkpt lat="49.25109" lon="-0.09797">
        <ele>4.4</ele>
        <time>2024-10-13T06:46:04Z</time>
      </trkpt>
      <trkpt lat="49.25106" lon="-0.09805">
        <ele>4.4</ele>
        <time>2024-10-13T06:46:05Z</time>
      </trkpt>
      <trkpt lat="49.25102" lon="-0.09817">
        <ele>4.2</ele>
        <time>2024-10-13T06:46:06Z</time>
      </trkpt>
      <trkpt lat="49.25099" lon="-0.09827">
        <ele>4.2</ele>
        <time>2024-10-13T06:46:07Z</time>
      </trkpt>
      <trkpt lat="49.25096" lon="-0.09835">
        <ele>4.2</ele>
        <time>2024-10-13T06:46:08Z</time>
      </trkpt>
      <trkpt lat="49.25092" lon="-0.09847">
        <ele>4.2</ele>
        <time>2024-10-13T06:46:09Z</time>
      </trkpt>
      <trkpt lat="49.25088" lon="-0.09856">
        <ele>4</ele>
        <time>2024-10-13T06:46:10Z</time>
      </trkpt>
      <trkpt lat="49.25086" lon="-0.09864">
        <ele>4</ele>
        <time>2024-10-13T06:46:11Z</time>
      </trkpt>
      <trkpt lat="49.25082" lon="-0.09876">
        <ele>4</ele>
        <time>2024-10-13T06:46:12Z</time>
      </trkpt>
      <trkpt lat="49.25078" lon="-0.09886">
        <ele>3.8</ele>
        <time>2024-10-13T06:46:13Z</time>
      </trkpt>
      <trkpt lat="49.25075" lon="-0.09894">
        <ele>3.8</ele>
        <time>2024-10-13T06:46:14Z</time>
      </trkpt>
      <trkpt lat="49.25071" lon="-0.09904">
        <ele>3.8</ele>
        <time>2024-10-13T06:46:15Z</time>
      </trkpt>
      <trkpt lat="49.25068" lon="-0.09913">
        <ele>3.6</ele>
        <time>2024-10-13T06:46:16Z</time>
      </trkpt>
      <trkpt lat="49.25063" lon="-0.09925">
        <ele>3.6</ele>
        <time>2024-10-13T06:46:17Z</time>
      </trkpt>
      <trkpt lat="49.2506" lon="-0.09934">
        <ele>3.6</ele>
        <time>2024-10-13T06:46:18Z</time>
      </trkpt>
      <trkpt lat="49.25057" lon="-0.09942">
        <ele>3.6</ele>
        <time>2024-10-13T06:46:19Z</time>
      </trkpt>
      <trkpt lat="49.25053" lon="-0.09951">
        <ele>3.6</ele>
        <time>2024-10-13T06:46:20Z</time>
      </trkpt>
      <trkpt lat="49.25049" lon="-0.09962">
        <ele>3.6</ele>
        <time>2024-10-13T06:46:21Z</time>
      </trkpt>
      <trkpt lat="49.25046" lon="-0.0997">
        <ele>3.6</ele>
        <time>2024-10-13T06:46:22Z</time>
      </trkpt>
      <trkpt lat="49.25041" lon="-0.09981">
        <ele>3.6</ele>
        <time>2024-10-13T06:46:23Z</time>
      </trkpt>
      <trkpt lat="49.25038" lon="-0.0999">
        <ele>3.6</ele>
        <time>2024-10-13T06:46:24Z</time>
      </trkpt>
      <trkpt lat="49.25035" lon="-0.09998">
        <ele>3.6</ele>
        <time>2024-10-13T06:46:25Z</time>
      </trkpt>
      <trkpt lat="49.25031" lon="-0.10009">
        <ele>3.8</ele>
        <time>2024-10-13T06:46:26Z</time>
      </trkpt>
      <trkpt lat="49.25028" lon="-0.10018">
        <ele>3.8</ele>
        <time>2024-10-13T06:46:27Z</time>
      </trkpt>
      <trkpt lat="49.25025" lon="-0.10025">
        <ele>4</ele>
        <time>2024-10-13T06:46:28Z</time>
      </trkpt>
      <trkpt lat="49.25021" lon="-0.10036">
        <ele>4</ele>
        <time>2024-10-13T06:46:29Z</time>
      </trkpt>
      <trkpt lat="49.25018" lon="-0.10044">
        <ele>4</ele>
        <time>2024-10-13T06:46:30Z</time>
      </trkpt>
      <trkpt lat="49.25015" lon="-0.10054">
        <ele>4</ele>
        <time>2024-10-13T06:46:31Z</time>
      </trkpt>
      <trkpt lat="49.25011" lon="-0.10063">
        <ele>4.2</ele>
        <time>2024-10-13T06:46:32Z</time>
      </trkpt>
      <trkpt lat="49.25007" lon="-0.10073">
        <ele>4.2</ele>
        <time>2024-10-13T06:46:33Z</time>
      </trkpt>
      <trkpt lat="49.25003" lon="-0.10082">
        <ele>4.4</ele>
        <time>2024-10-13T06:46:34Z</time>
      </trkpt>
      <trkpt lat="49.24999" lon="-0.10093">
        <ele>4.4</ele>
        <time>2024-10-13T06:46:35Z</time>
      </trkpt>
      <trkpt lat="49.24996" lon="-0.10103">
        <ele>4.4</ele>
        <time>2024-10-13T06:46:36Z</time>
      </trkpt>
      <trkpt lat="49.24993" lon="-0.1011">
        <ele>4.6</ele>
        <time>2024-10-13T06:46:37Z</time>
      </trkpt>
      <trkpt lat="49.2499" lon="-0.10119">
        <ele>4.6</ele>
        <time>2024-10-13T06:46:38Z</time>
      </trkpt>
      <trkpt lat="49.24986" lon="-0.1013">
        <ele>4.6</ele>
        <time>2024-10-13T06:46:39Z</time>
      </trkpt>
      <trkpt lat="49.24982" lon="-0.10139">
        <ele>4.6</ele>
        <time>2024-10-13T06:46:40Z</time>
      </trkpt>
      <trkpt lat="49.24979" lon="-0.10149">
        <ele>4.6</ele>
        <time>2024-10-13T06:46:41Z</time>
      </trkpt>
      <trkpt lat="49.24975" lon="-0.10159">
        <ele>4.6</ele>
        <time>2024-10-13T06:46:42Z</time>
      </trkpt>
      <trkpt lat="49.24972" lon="-0.10166">
        <ele>4.6</ele>
        <time>2024-10-13T06:46:43Z</time>
      </trkpt>
      <trkpt lat="49.24967" lon="-0.10177">
        <ele>4.8</ele>
        <time>2024-10-13T06:46:44Z</time>
      </trkpt>
      <trkpt lat="49.24964" lon="-0.10185">
        <ele>4.8</ele>
        <time>2024-10-13T06:46:45Z</time>
      </trkpt>
      <trkpt lat="49.2496" lon="-0.10197">
        <ele>4.8</ele>
        <time>2024-10-13T06:46:46Z</time>
      </trkpt>
      <trkpt lat="49.24957" lon="-0.10206">
        <ele>4.8</ele>
        <time>2024-10-13T06:46:47Z</time>
      </trkpt>
      <trkpt lat="49.24954" lon="-0.10214">
        <ele>4.8</ele>
        <time>2024-10-13T06:46:48Z</time>
      </trkpt>
      <trkpt lat="49.2495" lon="-0.10224">
        <ele>4.8</ele>
        <time>2024-10-13T06:46:49Z</time>
      </trkpt>
      <trkpt lat="49.24946" lon="-0.10233">
        <ele>4.8</ele>
        <time>2024-10-13T06:46:50Z</time>
      </trkpt>
      <trkpt lat="49.24943" lon="-0.1024">
        <ele>4.8</ele>
        <time>2024-10-13T06:46:51Z</time>
      </trkpt>
      <trkpt lat="49.24938" lon="-0.10249">
        <ele>4.8</ele>
        <time>2024-10-13T06:46:52Z</time>
      </trkpt>
      <trkpt lat="49.24933" lon="-0.10257">
        <ele>4.8</ele>
        <time>2024-10-13T06:46:53Z</time>
      </trkpt>
      <trkpt lat="49.24929" lon="-0.10262">
        <ele>4.8</ele>
        <time>2024-10-13T06:46:54Z</time>
      </trkpt>
      <trkpt lat="49.24924" lon="-0.10269">
        <ele>4.8</ele>
        <time>2024-10-13T06:46:55Z</time>
      </trkpt>
      <trkpt lat="49.24918" lon="-0.10276">
        <ele>5</ele>
        <time>2024-10-13T06:46:56Z</time>
      </trkpt>
      <trkpt lat="49.24912" lon="-0.10281">
        <ele>5</ele>
        <time>2024-10-13T06:46:57Z</time>
      </trkpt>
      <trkpt lat="49.24906" lon="-0.10286">
        <ele>5</ele>
        <time>2024-10-13T06:46:58Z</time>
      </trkpt>
      <trkpt lat="49.249" lon="-0.1029">
        <ele>5</ele>
        <time>2024-10-13T06:46:59Z</time>
      </trkpt>
      <trkpt lat="49.24893" lon="-0.10293">
        <ele>5</ele>
        <time>2024-10-13T06:47:00Z</time>
      </trkpt>
      <trkpt lat="49.24885" lon="-0.10295">
        <ele>5</ele>
        <time>2024-10-13T06:47:01Z</time>
      </trkpt>
      <trkpt lat="49.24878" lon="-0.10296">
        <ele>5.2</ele>
        <time>2024-10-13T06:47:02Z</time>
      </trkpt>
      <trkpt lat="49.24872" lon="-0.10296">
        <ele>5</ele>
        <time>2024-10-13T06:47:03Z</time>
      </trkpt>
      <trkpt lat="49.24865" lon="-0.10296">
        <ele>5.2</ele>
        <time>2024-10-13T06:47:04Z</time>
      </trkpt>
      <trkpt lat="49.24856" lon="-0.10296">
        <ele>5.2</ele>
        <time>2024-10-13T06:47:05Z</time>
      </trkpt>
      <trkpt lat="49.2485" lon="-0.10296">
        <ele>5.4</ele>
        <time>2024-10-13T06:47:06Z</time>
      </trkpt>
      <trkpt lat="49.24841" lon="-0.10294">
        <ele>5.2</ele>
        <time>2024-10-13T06:47:07Z</time>
      </trkpt>
      <trkpt lat="49.24835" lon="-0.10291">
        <ele>5.4</ele>
        <time>2024-10-13T06:47:08Z</time>
      </trkpt>
      <trkpt lat="49.24828" lon="-0.10288">
        <ele>5.4</ele>
        <time>2024-10-13T06:47:09Z</time>
      </trkpt>
      <trkpt lat="49.2482" lon="-0.10284">
        <ele>5.4</ele>
        <time>2024-10-13T06:47:10Z</time>
      </trkpt>
      <trkpt lat="49.24813" lon="-0.1028">
        <ele>5.4</ele>
        <time>2024-10-13T06:47:11Z</time>
      </trkpt>
      <trkpt lat="49.24808" lon="-0.10276">
        <ele>5.4</ele>
        <time>2024-10-13T06:47:12Z</time>
      </trkpt>
      <trkpt lat="49.248" lon="-0.1027">
        <ele>5.4</ele>
        <time>2024-10-13T06:47:13Z</time>
      </trkpt>
      <trkpt lat="49.24793" lon="-0.10266">
        <ele>5.4</ele>
        <time>2024-10-13T06:47:14Z</time>
      </trkpt>
      <trkpt lat="49.24788" lon="-0.10261">
        <ele>5.4</ele>
        <time>2024-10-13T06:47:15Z</time>
      </trkpt>
      <trkpt lat="49.24781" lon="-0.10255">
        <ele>5.2</ele>
        <time>2024-10-13T06:47:16Z</time>
      </trkpt>
      <trkpt lat="49.24774" lon="-0.1025">
        <ele>5</ele>
        <time>2024-10-13T06:47:17Z</time>
      </trkpt>
      <trkpt lat="49.24767" lon="-0.10245">
        <ele>5</ele>
        <time>2024-10-13T06:47:18Z</time>
      </trkpt>
      <trkpt lat="49.24761" lon="-0.1024">
        <ele>4.8</ele>
        <time>2024-10-13T06:47:19Z</time>
      </trkpt>
      <trkpt lat="49.24755" lon="-0.10236">
        <ele>4.8</ele>
        <time>2024-10-13T06:47:20Z</time>
      </trkpt>
      <trkpt lat="49.24749" lon="-0.1023">
        <ele>4.6</ele>
        <time>2024-10-13T06:47:21Z</time>
      </trkpt>
      <trkpt lat="49.24742" lon="-0.10224">
        <ele>4.6</ele>
        <time>2024-10-13T06:47:22Z</time>
      </trkpt>
      <trkpt lat="49.24736" lon="-0.1022">
        <ele>4.2</ele>
        <time>2024-10-13T06:47:23Z</time>
      </trkpt>
      <trkpt lat="49.2473" lon="-0.10214">
        <ele>4.2</ele>
        <time>2024-10-13T06:47:24Z</time>
      </trkpt>
      <trkpt lat="49.24722" lon="-0.10208">
        <ele>3.8</ele>
        <time>2024-10-13T06:47:25Z</time>
      </trkpt>
      <trkpt lat="49.24717" lon="-0.10204">
        <ele>3.8</ele>
        <time>2024-10-13T06:47:26Z</time>
      </trkpt>
      <trkpt lat="49.2471" lon="-0.10199">
        <ele>3.6</ele>
        <time>2024-10-13T06:47:27Z</time>
      </trkpt>
      <trkpt lat="49.24704" lon="-0.10194">
        <ele>3.6</ele>
        <time>2024-10-13T06:47:28Z</time>
      </trkpt>
      <trkpt lat="49.24698" lon="-0.10189">
        <ele>3.6</ele>
        <time>2024-10-13T06:47:29Z</time>
      </trkpt>
      <trkpt lat="49.2469" lon="-0.10183">
        <ele>3.4</ele>
        <time>2024-10-13T06:47:30Z</time>
      </trkpt>
      <trkpt lat="49.24683" lon="-0.10179">
        <ele>3.4</ele>
        <time>2024-10-13T06:47:31Z</time>
      </trkpt>
      <trkpt lat="49.24677" lon="-0.10174">
        <ele>3.4</ele>
        <time>2024-10-13T06:47:32Z</time>
      </trkpt>
      <trkpt lat="49.2467" lon="-0.10169">
        <ele>3.4</ele>
        <time>2024-10-13T06:47:33Z</time>
      </trkpt>
      <trkpt lat="49.24664" lon="-0.10164">
        <ele>3.4</ele>
        <time>2024-10-13T06:47:34Z</time>
      </trkpt>
      <trkpt lat="49.24659" lon="-0.1016">
        <ele>3.2</ele>
        <time>2024-10-13T06:47:35Z</time>
      </trkpt>
      <trkpt lat="49.24651" lon="-0.10153">
        <ele>3.2</ele>
        <time>2024-10-13T06:47:36Z</time>
      </trkpt>
      <trkpt lat="49.24644" lon="-0.10148">
        <ele>3.2</ele>
        <time>2024-10-13T06:47:37Z</time>
      </trkpt>
      <trkpt lat="49.24639" lon="-0.10144">
        <ele>3.2</ele>
        <time>2024-10-13T06:47:38Z</time>
      </trkpt>
      <trkpt lat="49.24631" lon="-0.10138">
        <ele>3.2</ele>
        <time>2024-10-13T06:47:39Z</time>
      </trkpt>
      <trkpt lat="49.24625" lon="-0.10132">
        <ele>3.2</ele>
        <time>2024-10-13T06:47:40Z</time>
      </trkpt>
      <trkpt lat="49.24618" lon="-0.10127">
        <ele>3.2</ele>
        <time>2024-10-13T06:47:41Z</time>
      </trkpt>
      <trkpt lat="49.24613" lon="-0.10123">
        <ele>3.2</ele>
        <time>2024-10-13T06:47:42Z</time>
      </trkpt>
      <trkpt lat="49.24607" lon="-0.10118">
        <ele>3.2</ele>
        <time>2024-10-13T06:47:43Z</time>
      </trkpt>
      <trkpt lat="49.24602" lon="-0.10113">
        <ele>3.2</ele>
        <time>2024-10-13T06:47:44Z</time>
      </trkpt>
      <trkpt lat="49.24595" lon="-0.10109">
        <ele>3.2</ele>
        <time>2024-10-13T06:47:45Z</time>
      </trkpt>
      <trkpt lat="49.24588" lon="-0.10103">
        <ele>3.2</ele>
        <time>2024-10-13T06:47:46Z</time>
      </trkpt>
      <trkpt lat="49.24583" lon="-0.101">
        <ele>3.2</ele>
        <time>2024-10-13T06:47:47Z</time>
      </trkpt>
      <trkpt lat="49.24576" lon="-0.10094">
        <ele>3.2</ele>
        <time>2024-10-13T06:47:48Z</time>
      </trkpt>
      <trkpt lat="49.24571" lon="-0.1009">
        <ele>3.2</ele>
        <time>2024-10-13T06:47:49Z</time>
      </trkpt>
      <trkpt lat="49.24565" lon="-0.10086">
        <ele>3.2</ele>
        <time>2024-10-13T06:47:50Z</time>
      </trkpt>
      <trkpt lat="49.24559" lon="-0.10082">
        <ele>3.2</ele>
        <time>2024-10-13T06:47:51Z</time>
      </trkpt>
      <trkpt lat="49.24554" lon="-0.10078">
        <ele>3.4</ele>
        <time>2024-10-13T06:47:52Z</time>
      </trkpt>
      <trkpt lat="49.24549" lon="-0.10074">
        <ele>3.4</ele>
        <time>2024-10-13T06:47:53Z</time>
      </trkpt>
      <trkpt lat="49.24544" lon="-0.10069">
        <ele>3.6</ele>
        <time>2024-10-13T06:47:54Z</time>
      </trkpt>
      <trkpt lat="49.2454" lon="-0.10066">
        <ele>3.8</ele>
        <time>2024-10-13T06:47:55Z</time>
      </trkpt>
      <trkpt lat="49.24533" lon="-0.10061">
        <ele>4</ele>
        <time>2024-10-13T06:47:56Z</time>
      </trkpt>
      <trkpt lat="49.24528" lon="-0.10056">
        <ele>4.4</ele>
        <time>2024-10-13T06:47:57Z</time>
      </trkpt>
      <trkpt lat="49.24524" lon="-0.10053">
        <ele>4.8</ele>
        <time>2024-10-13T06:47:58Z</time>
      </trkpt>
      <trkpt lat="49.24517" lon="-0.10049">
        <ele>5.2</ele>
        <time>2024-10-13T06:47:59Z</time>
      </trkpt>
      <trkpt lat="49.24512" lon="-0.10044">
        <ele>5.6</ele>
        <time>2024-10-13T06:48:00Z</time>
      </trkpt>
      <trkpt lat="49.24509" lon="-0.10041">
        <ele>6</ele>
        <time>2024-10-13T06:48:01Z</time>
      </trkpt>
      <trkpt lat="49.24503" lon="-0.10036">
        <ele>6.2</ele>
        <time>2024-10-13T06:48:02Z</time>
      </trkpt>
      <trkpt lat="49.24499" lon="-0.10033">
        <ele>6.4</ele>
        <time>2024-10-13T06:48:03Z</time>
      </trkpt>
      <trkpt lat="49.24493" lon="-0.1003">
        <ele>6.6</ele>
        <time>2024-10-13T06:48:04Z</time>
      </trkpt>
      <trkpt lat="49.24488" lon="-0.10026">
        <ele>7</ele>
        <time>2024-10-13T06:48:05Z</time>
      </trkpt>
      <trkpt lat="49.24483" lon="-0.10022">
        <ele>7.2</ele>
        <time>2024-10-13T06:48:06Z</time>
      </trkpt>
      <trkpt lat="49.24479" lon="-0.10019">
        <ele>7.6</ele>
        <time>2024-10-13T06:48:07Z</time>
      </trkpt>
      <trkpt lat="49.24473" lon="-0.10014">
        <ele>7.8</ele>
        <time>2024-10-13T06:48:08Z</time>
      </trkpt>
      <trkpt lat="49.24468" lon="-0.10009">
        <ele>8</ele>
        <time>2024-10-13T06:48:09Z</time>
      </trkpt>
      <trkpt lat="49.24464" lon="-0.10005">
        <ele>8.2</ele>
        <time>2024-10-13T06:48:10Z</time>
      </trkpt>
      <trkpt lat="49.24459" lon="-0.10001">
        <ele>8.4</ele>
        <time>2024-10-13T06:48:11Z</time>
      </trkpt>
      <trkpt lat="49.24454" lon="-0.09995">
        <ele>8.8</ele>
        <time>2024-10-13T06:48:12Z</time>
      </trkpt>
      <trkpt lat="49.24449" lon="-0.0999">
        <ele>9.2</ele>
        <time>2024-10-13T06:48:13Z</time>
      </trkpt>
      <trkpt lat="49.24444" lon="-0.09982">
        <ele>9.4</ele>
        <time>2024-10-13T06:48:14Z</time>
      </trkpt>
      <trkpt lat="49.24441" lon="-0.09975">
        <ele>9.8</ele>
        <time>2024-10-13T06:48:15Z</time>
      </trkpt>
      <trkpt lat="49.24437" lon="-0.0997">
        <ele>10.2</ele>
        <time>2024-10-13T06:48:16Z</time>
      </trkpt>
      <trkpt lat="49.24433" lon="-0.0996">
        <ele>10.4</ele>
        <time>2024-10-13T06:48:17Z</time>
      </trkpt>
      <trkpt lat="49.2443" lon="-0.09952">
        <ele>10.6</ele>
        <time>2024-10-13T06:48:18Z</time>
      </trkpt>
      <trkpt lat="49.24428" lon="-0.09945">
        <ele>10.6</ele>
        <time>2024-10-13T06:48:19Z</time>
      </trkpt>
      <trkpt lat="49.24426" lon="-0.09935">
        <ele>10.8</ele>
        <time>2024-10-13T06:48:20Z</time>
      </trkpt>
      <trkpt lat="49.24423" lon="-0.09926">
        <ele>10.8</ele>
        <time>2024-10-13T06:48:21Z</time>
      </trkpt>
      <trkpt lat="49.24421" lon="-0.09916">
        <ele>11</ele>
        <time>2024-10-13T06:48:22Z</time>
      </trkpt>
      <trkpt lat="49.24418" lon="-0.09904">
        <ele>11.4</ele>
        <time>2024-10-13T06:48:23Z</time>
      </trkpt>
      <trkpt lat="49.24416" lon="-0.09894">
        <ele>11.8</ele>
        <time>2024-10-13T06:48:24Z</time>
      </trkpt>
      <trkpt lat="49.24414" lon="-0.09886">
        <ele>12</ele>
        <time>2024-10-13T06:48:25Z</time>
      </trkpt>
      <trkpt lat="49.24411" lon="-0.09875">
        <ele>12.2</ele>
        <time>2024-10-13T06:48:26Z</time>
      </trkpt>
      <trkpt lat="49.24409" lon="-0.09864">
        <ele>12.2</ele>
        <time>2024-10-13T06:48:27Z</time>
      </trkpt>
      <trkpt lat="49.24406" lon="-0.09854">
        <ele>12.2</ele>
        <time>2024-10-13T06:48:28Z</time>
      </trkpt>
      <trkpt lat="49.24404" lon="-0.09842">
        <ele>12.2</ele>
        <time>2024-10-13T06:48:29Z</time>
      </trkpt>
      <trkpt lat="49.24401" lon="-0.09831">
        <ele>12.2</ele>
        <time>2024-10-13T06:48:30Z</time>
      </trkpt>
      <trkpt lat="49.24399" lon="-0.09823">
        <ele>12.2</ele>
        <time>2024-10-13T06:48:31Z</time>
      </trkpt>
      <trkpt lat="49.24395" lon="-0.09811">
        <ele>12.2</ele>
        <time>2024-10-13T06:48:32Z</time>
      </trkpt>
      <trkpt lat="49.24393" lon="-0.09803">
        <ele>12.2</ele>
        <time>2024-10-13T06:48:33Z</time>
      </trkpt>
      <trkpt lat="49.2439" lon="-0.09793">
        <ele>12.2</ele>
        <time>2024-10-13T06:48:34Z</time>
      </trkpt>
      <trkpt lat="49.24385" lon="-0.09781">
        <ele>12.2</ele>
        <time>2024-10-13T06:48:35Z</time>
      </trkpt>
      <trkpt lat="49.2438" lon="-0.09772">
        <ele>12</ele>
        <time>2024-10-13T06:48:36Z</time>
      </trkpt>
      <trkpt lat="49.24375" lon="-0.09763">
        <ele>11.8</ele>
        <time>2024-10-13T06:48:37Z</time>
      </trkpt>
      <trkpt lat="49.24369" lon="-0.09754">
        <ele>11.6</ele>
        <time>2024-10-13T06:48:38Z</time>
      </trkpt>
      <trkpt lat="49.24365" lon="-0.09747">
        <ele>11.4</ele>
        <time>2024-10-13T06:48:39Z</time>
      </trkpt>
      <trkpt lat="49.24358" lon="-0.09739">
        <ele>11.2</ele>
        <time>2024-10-13T06:48:40Z</time>
      </trkpt>
      <trkpt lat="49.2435" lon="-0.0973">
        <ele>11.2</ele>
        <time>2024-10-13T06:48:41Z</time>
      </trkpt>
      <trkpt lat="49.24343" lon="-0.09722">
        <ele>10.8</ele>
        <time>2024-10-13T06:48:42Z</time>
      </trkpt>
      <trkpt lat="49.24336" lon="-0.09714">
        <ele>10.6</ele>
        <time>2024-10-13T06:48:43Z</time>
      </trkpt>
      <trkpt lat="49.24329" lon="-0.09707">
        <ele>10.4</ele>
        <time>2024-10-13T06:48:44Z</time>
      </trkpt>
      <trkpt lat="49.24324" lon="-0.09701">
        <ele>10</ele>
        <time>2024-10-13T06:48:45Z</time>
      </trkpt>
      <trkpt lat="49.24316" lon="-0.09692">
        <ele>9.8</ele>
        <time>2024-10-13T06:48:46Z</time>
      </trkpt>
      <trkpt lat="49.2431" lon="-0.09687">
        <ele>9.6</ele>
        <time>2024-10-13T06:48:47Z</time>
      </trkpt>
      <trkpt lat="49.24303" lon="-0.0968">
        <ele>9.4</ele>
        <time>2024-10-13T06:48:48Z</time>
      </trkpt>
      <trkpt lat="49.24296" lon="-0.09672">
        <ele>9</ele>
        <time>2024-10-13T06:48:49Z</time>
      </trkpt>
      <trkpt lat="49.24289" lon="-0.09665">
        <ele>8.8</ele>
        <time>2024-10-13T06:48:50Z</time>
      </trkpt>
      <trkpt lat="49.24284" lon="-0.0966">
        <ele>8.6</ele>
        <time>2024-10-13T06:48:51Z</time>
      </trkpt>
      <trkpt lat="49.24277" lon="-0.09652">
        <ele>8.2</ele>
        <time>2024-10-13T06:48:52Z</time>
      </trkpt>
      <trkpt lat="49.24271" lon="-0.09646">
        <ele>7.8</ele>
        <time>2024-10-13T06:48:53Z</time>
      </trkpt>
      <trkpt lat="49.24265" lon="-0.09639">
        <ele>7.6</ele>
        <time>2024-10-13T06:48:54Z</time>
      </trkpt>
      <trkpt lat="49.24259" lon="-0.09633">
        <ele>7.6</ele>
        <time>2024-10-13T06:48:55Z</time>
      </trkpt>
      <trkpt lat="49.24253" lon="-0.09626">
        <ele>7.4</ele>
        <time>2024-10-13T06:48:56Z</time>
      </trkpt>
      <trkpt lat="49.24248" lon="-0.09621">
        <ele>7.4</ele>
        <time>2024-10-13T06:48:57Z</time>
      </trkpt>
      <trkpt lat="49.24242" lon="-0.09614">
        <ele>7.4</ele>
        <time>2024-10-13T06:48:58Z</time>
      </trkpt>
      <trkpt lat="49.24234" lon="-0.09606">
        <ele>7.4</ele>
        <time>2024-10-13T06:48:59Z</time>
      </trkpt>
      <trkpt lat="49.2423" lon="-0.09601">
        <ele>7.4</ele>
        <time>2024-10-13T06:49:00Z</time>
      </trkpt>
      <trkpt lat="49.24222" lon="-0.09592">
        <ele>7.4</ele>
        <time>2024-10-13T06:49:01Z</time>
      </trkpt>
      <trkpt lat="49.24217" lon="-0.09585">
        <ele>7.4</ele>
        <time>2024-10-13T06:49:02Z</time>
      </trkpt>
      <trkpt lat="49.24212" lon="-0.0958">
        <ele>7.4</ele>
        <time>2024-10-13T06:49:03Z</time>
      </trkpt>
      <trkpt lat="49.24206" lon="-0.09572">
        <ele>7.4</ele>
        <time>2024-10-13T06:49:04Z</time>
      </trkpt>
      <trkpt lat="49.24201" lon="-0.09565">
        <ele>7.4</ele>
        <time>2024-10-13T06:49:05Z</time>
      </trkpt>
      <trkpt lat="49.24195" lon="-0.09557">
        <ele>7.4</ele>
        <time>2024-10-13T06:49:06Z</time>
      </trkpt>
      <trkpt lat="49.24189" lon="-0.09547">
        <ele>7.4</ele>
        <time>2024-10-13T06:49:07Z</time>
      </trkpt>
      <trkpt lat="49.24186" lon="-0.0954">
        <ele>7.4</ele>
        <time>2024-10-13T06:49:08Z</time>
      </trkpt>
      <trkpt lat="49.24181" lon="-0.09531">
        <ele>7.4</ele>
        <time>2024-10-13T06:49:09Z</time>
      </trkpt>
      <trkpt lat="49.24176" lon="-0.0952">
        <ele>7.6</ele>
        <time>2024-10-13T06:49:10Z</time>
      </trkpt>
      <trkpt lat="49.24173" lon="-0.0951">
        <ele>7.6</ele>
        <time>2024-10-13T06:49:11Z</time>
      </trkpt>
      <trkpt lat="49.2417" lon="-0.09502">
        <ele>7.6</ele>
        <time>2024-10-13T06:49:12Z</time>
      </trkpt>
      <trkpt lat="49.24166" lon="-0.09489">
        <ele>7.6</ele>
        <time>2024-10-13T06:49:13Z</time>
      </trkpt>
      <trkpt lat="49.24164" lon="-0.09478">
        <ele>7.6</ele>
        <time>2024-10-13T06:49:14Z</time>
      </trkpt>
      <trkpt lat="49.24162" lon="-0.09469">
        <ele>7.6</ele>
        <time>2024-10-13T06:49:15Z</time>
      </trkpt>
      <trkpt lat="49.24159" lon="-0.09456">
        <ele>7.6</ele>
        <time>2024-10-13T06:49:16Z</time>
      </trkpt>
      <trkpt lat="49.24157" lon="-0.09444">
        <ele>7.6</ele>
        <time>2024-10-13T06:49:17Z</time>
      </trkpt>
      <trkpt lat="49.24156" lon="-0.09434">
        <ele>7.6</ele>
        <time>2024-10-13T06:49:18Z</time>
      </trkpt>
      <trkpt lat="49.24154" lon="-0.0942">
        <ele>7.6</ele>
        <time>2024-10-13T06:49:19Z</time>
      </trkpt>
      <trkpt lat="49.24153" lon="-0.0941">
        <ele>7.6</ele>
        <time>2024-10-13T06:49:20Z</time>
      </trkpt>
      <trkpt lat="49.24152" lon="-0.09398">
        <ele>7.6</ele>
        <time>2024-10-13T06:49:21Z</time>
      </trkpt>
      <trkpt lat="49.2415" lon="-0.09385">
        <ele>7.6</ele>
        <time>2024-10-13T06:49:22Z</time>
      </trkpt>
      <trkpt lat="49.2415" lon="-0.09373">
        <ele>7.6</ele>
        <time>2024-10-13T06:49:23Z</time>
      </trkpt>
      <trkpt lat="49.24149" lon="-0.09364">
        <ele>7.4</ele>
        <time>2024-10-13T06:49:24Z</time>
      </trkpt>
      <trkpt lat="49.24148" lon="-0.09351">
        <ele>7.2</ele>
        <time>2024-10-13T06:49:25Z</time>
      </trkpt>
      <trkpt lat="49.24146" lon="-0.09343">
        <ele>7.2</ele>
        <time>2024-10-13T06:49:26Z</time>
      </trkpt>
      <trkpt lat="49.24144" lon="-0.09329">
        <ele>7</ele>
        <time>2024-10-13T06:49:27Z</time>
      </trkpt>
      <trkpt lat="49.24143" lon="-0.0932">
        <ele>7</ele>
        <time>2024-10-13T06:49:28Z</time>
      </trkpt>
      <trkpt lat="49.24142" lon="-0.09308">
        <ele>6.8</ele>
        <time>2024-10-13T06:49:29Z</time>
      </trkpt>
      <trkpt lat="49.24141" lon="-0.09296">
        <ele>6.6</ele>
        <time>2024-10-13T06:49:30Z</time>
      </trkpt>
      <trkpt lat="49.24139" lon="-0.09284">
        <ele>6.4</ele>
        <time>2024-10-13T06:49:31Z</time>
      </trkpt>
      <trkpt lat="49.24138" lon="-0.09272">
        <ele>6</ele>
        <time>2024-10-13T06:49:32Z</time>
      </trkpt>
      <trkpt lat="49.24137" lon="-0.09261">
        <ele>6</ele>
        <time>2024-10-13T06:49:33Z</time>
      </trkpt>
      <trkpt lat="49.24135" lon="-0.09247">
        <ele>5.8</ele>
        <time>2024-10-13T06:49:34Z</time>
      </trkpt>
      <trkpt lat="49.24134" lon="-0.09238">
        <ele>5.8</ele>
        <time>2024-10-13T06:49:35Z</time>
      </trkpt>
      <trkpt lat="49.24132" lon="-0.09224">
        <ele>5.8</ele>
        <time>2024-10-13T06:49:36Z</time>
      </trkpt>
      <trkpt lat="49.2413" lon="-0.09213">
        <ele>5.8</ele>
        <time>2024-10-13T06:49:37Z</time>
      </trkpt>
      <trkpt lat="49.24128" lon="-0.09202">
        <ele>5.8</ele>
        <time>2024-10-13T06:49:38Z</time>
      </trkpt>
      <trkpt lat="49.24126" lon="-0.09193">
        <ele>5.8</ele>
        <time>2024-10-13T06:49:39Z</time>
      </trkpt>
      <trkpt lat="49.24123" lon="-0.09179">
        <ele>5.8</ele>
        <time>2024-10-13T06:49:40Z</time>
      </trkpt>
      <trkpt lat="49.24121" lon="-0.09171">
        <ele>5.8</ele>
        <time>2024-10-13T06:49:41Z</time>
      </trkpt>
      <trkpt lat="49.24118" lon="-0.09158">
        <ele>5.8</ele>
        <time>2024-10-13T06:49:42Z</time>
      </trkpt>
      <trkpt lat="49.24115" lon="-0.09149">
        <ele>5.8</ele>
        <time>2024-10-13T06:49:43Z</time>
      </trkpt>
      <trkpt lat="49.24112" lon="-0.09139">
        <ele>5.8</ele>
        <time>2024-10-13T06:49:44Z</time>
      </trkpt>
      <trkpt lat="49.24109" lon="-0.09127">
        <ele>5.8</ele>
        <time>2024-10-13T06:49:45Z</time>
      </trkpt>
      <trkpt lat="49.24106" lon="-0.09116">
        <ele>5.8</ele>
        <time>2024-10-13T06:49:46Z</time>
      </trkpt>
      <trkpt lat="49.24103" lon="-0.09108">
        <ele>5.8</ele>
        <time>2024-10-13T06:49:47Z</time>
      </trkpt>
      <trkpt lat="49.241" lon="-0.09098">
        <ele>5.8</ele>
        <time>2024-10-13T06:49:48Z</time>
      </trkpt>
      <trkpt lat="49.24096" lon="-0.09088">
        <ele>5.8</ele>
        <time>2024-10-13T06:49:49Z</time>
      </trkpt>
      <trkpt lat="49.24092" lon="-0.09078">
        <ele>5.8</ele>
        <time>2024-10-13T06:49:50Z</time>
      </trkpt>
      <trkpt lat="49.24088" lon="-0.09068">
        <ele>5.8</ele>
        <time>2024-10-13T06:49:51Z</time>
      </trkpt>
      <trkpt lat="49.24083" lon="-0.0906">
        <ele>5.6</ele>
        <time>2024-10-13T06:49:52Z</time>
      </trkpt>
      <trkpt lat="49.24077" lon="-0.09052">
        <ele>5.6</ele>
        <time>2024-10-13T06:49:53Z</time>
      </trkpt>
      <trkpt lat="49.24069" lon="-0.09045">
        <ele>5.6</ele>
        <time>2024-10-13T06:49:54Z</time>
      </trkpt>
      <trkpt lat="49.24063" lon="-0.0904">
        <ele>5.6</ele>
        <time>2024-10-13T06:49:55Z</time>
      </trkpt>
      <trkpt lat="49.24057" lon="-0.09036">
        <ele>5.6</ele>
        <time>2024-10-13T06:49:56Z</time>
      </trkpt>
      <trkpt lat="49.24049" lon="-0.09031">
        <ele>5.6</ele>
        <time>2024-10-13T06:49:57Z</time>
      </trkpt>
      <trkpt lat="49.24041" lon="-0.09027">
        <ele>5.6</ele>
        <time>2024-10-13T06:49:58Z</time>
      </trkpt>
      <trkpt lat="49.24036" lon="-0.09023">
        <ele>5.6</ele>
        <time>2024-10-13T06:49:59Z</time>
      </trkpt>
      <trkpt lat="49.24027" lon="-0.09017">
        <ele>5.6</ele>
        <time>2024-10-13T06:50:00Z</time>
      </trkpt>
      <trkpt lat="49.24021" lon="-0.0901">
        <ele>5.6</ele>
        <time>2024-10-13T06:50:01Z</time>
      </trkpt>
      <trkpt lat="49.24015" lon="-0.09004">
        <ele>5.6</ele>
        <time>2024-10-13T06:50:02Z</time>
      </trkpt>
      <trkpt lat="49.24009" lon="-0.08996">
        <ele>5.6</ele>
        <time>2024-10-13T06:50:03Z</time>
      </trkpt>
      <trkpt lat="49.24005" lon="-0.0899">
        <ele>5.6</ele>
        <time>2024-10-13T06:50:04Z</time>
      </trkpt>
      <trkpt lat="49.23998" lon="-0.08981">
        <ele>5.6</ele>
        <time>2024-10-13T06:50:05Z</time>
      </trkpt>
      <trkpt lat="49.23993" lon="-0.08973">
        <ele>5.6</ele>
        <time>2024-10-13T06:50:06Z</time>
      </trkpt>
      <trkpt lat="49.23988" lon="-0.08965">
        <ele>5.4</ele>
        <time>2024-10-13T06:50:07Z</time>
      </trkpt>
      <trkpt lat="49.23983" lon="-0.08956">
        <ele>5.4</ele>
        <time>2024-10-13T06:50:08Z</time>
      </trkpt>
      <trkpt lat="49.23978" lon="-0.08947">
        <ele>5.4</ele>
        <time>2024-10-13T06:50:09Z</time>
      </trkpt>
      <trkpt lat="49.23975" lon="-0.0894">
        <ele>5.4</ele>
        <time>2024-10-13T06:50:10Z</time>
      </trkpt>
      <trkpt lat="49.23971" lon="-0.08927">
        <ele>5.4</ele>
        <time>2024-10-13T06:50:11Z</time>
      </trkpt>
      <trkpt lat="49.23969" lon="-0.08919">
        <ele>5.4</ele>
        <time>2024-10-13T06:50:12Z</time>
      </trkpt>
      <trkpt lat="49.23966" lon="-0.08908">
        <ele>5.4</ele>
        <time>2024-10-13T06:50:13Z</time>
      </trkpt>
      <trkpt lat="49.23965" lon="-0.08897">
        <ele>5.2</ele>
        <time>2024-10-13T06:50:14Z</time>
      </trkpt>
      <trkpt lat="49.23963" lon="-0.08884">
        <ele>5.2</ele>
        <time>2024-10-13T06:50:15Z</time>
      </trkpt>
      <trkpt lat="49.23963" lon="-0.08875">
        <ele>5.2</ele>
        <time>2024-10-13T06:50:16Z</time>
      </trkpt>
      <trkpt lat="49.23961" lon="-0.08862">
        <ele>5</ele>
        <time>2024-10-13T06:50:17Z</time>
      </trkpt>
      <trkpt lat="49.2396" lon="-0.0885">
        <ele>5</ele>
        <time>2024-10-13T06:50:18Z</time>
      </trkpt>
      <trkpt lat="49.23959" lon="-0.08841">
        <ele>5</ele>
        <time>2024-10-13T06:50:19Z</time>
      </trkpt>
      <trkpt lat="49.23958" lon="-0.0883">
        <ele>5</ele>
        <time>2024-10-13T06:50:20Z</time>
      </trkpt>
      <trkpt lat="49.23956" lon="-0.0882">
        <ele>5</ele>
        <time>2024-10-13T06:50:21Z</time>
      </trkpt>
      <trkpt lat="49.23954" lon="-0.08809">
        <ele>5</ele>
        <time>2024-10-13T06:50:22Z</time>
      </trkpt>
      <trkpt lat="49.23951" lon="-0.08796">
        <ele>5</ele>
        <time>2024-10-13T06:50:23Z</time>
      </trkpt>
      <trkpt lat="49.2395" lon="-0.08787">
        <ele>5</ele>
        <time>2024-10-13T06:50:24Z</time>
      </trkpt>
      <trkpt lat="49.23947" lon="-0.08777">
        <ele>5</ele>
        <time>2024-10-13T06:50:25Z</time>
      </trkpt>
      <trkpt lat="49.23945" lon="-0.08764">
        <ele>5</ele>
        <time>2024-10-13T06:50:26Z</time>
      </trkpt>
      <trkpt lat="49.23942" lon="-0.08754">
        <ele>5</ele>
        <time>2024-10-13T06:50:27Z</time>
      </trkpt>
      <trkpt lat="49.2394" lon="-0.08746">
        <ele>5</ele>
        <time>2024-10-13T06:50:28Z</time>
      </trkpt>
      <trkpt lat="49.23938" lon="-0.08736">
        <ele>5</ele>
        <time>2024-10-13T06:50:29Z</time>
      </trkpt>
      <trkpt lat="49.23935" lon="-0.08723">
        <ele>5</ele>
        <time>2024-10-13T06:50:30Z</time>
      </trkpt>
      <trkpt lat="49.23933" lon="-0.08715">
        <ele>5</ele>
        <time>2024-10-13T06:50:31Z</time>
      </trkpt>
      <trkpt lat="49.23931" lon="-0.08702">
        <ele>5.2</ele>
        <time>2024-10-13T06:50:32Z</time>
      </trkpt>
      <trkpt lat="49.23929" lon="-0.08692">
        <ele>5.2</ele>
        <time>2024-10-13T06:50:33Z</time>
      </trkpt>
      <trkpt lat="49.23927" lon="-0.08683">
        <ele>5.2</ele>
        <time>2024-10-13T06:50:34Z</time>
      </trkpt>
      <trkpt lat="49.23926" lon="-0.08672">
        <ele>5.2</ele>
        <time>2024-10-13T06:50:35Z</time>
      </trkpt>
      <trkpt lat="49.23925" lon="-0.08661">
        <ele>5.2</ele>
        <time>2024-10-13T06:50:36Z</time>
      </trkpt>
      <trkpt lat="49.23923" lon="-0.0865">
        <ele>5.2</ele>
        <time>2024-10-13T06:50:37Z</time>
      </trkpt>
      <trkpt lat="49.23922" lon="-0.08636">
        <ele>5.2</ele>
        <time>2024-10-13T06:50:38Z</time>
      </trkpt>
      <trkpt lat="49.23921" lon="-0.08627">
        <ele>5</ele>
        <time>2024-10-13T06:50:39Z</time>
      </trkpt>
      <trkpt lat="49.2392" lon="-0.08616">
        <ele>5</ele>
        <time>2024-10-13T06:50:40Z</time>
      </trkpt>
      <trkpt lat="49.23918" lon="-0.08603">
        <ele>5</ele>
        <time>2024-10-13T06:50:41Z</time>
      </trkpt>
      <trkpt lat="49.23917" lon="-0.08592">
        <ele>5</ele>
        <time>2024-10-13T06:50:42Z</time>
      </trkpt>
      <trkpt lat="49.23915" lon="-0.08583">
        <ele>4.8</ele>
        <time>2024-10-13T06:50:43Z</time>
      </trkpt>
      <trkpt lat="49.23913" lon="-0.0857">
        <ele>4.8</ele>
        <time>2024-10-13T06:50:44Z</time>
      </trkpt>
      <trkpt lat="49.2391" lon="-0.08559">
        <ele>4.8</ele>
        <time>2024-10-13T06:50:45Z</time>
      </trkpt>
      <trkpt lat="49.23907" lon="-0.08549">
        <ele>4.8</ele>
        <time>2024-10-13T06:50:46Z</time>
      </trkpt>
      <trkpt lat="49.23904" lon="-0.08541">
        <ele>4.8</ele>
        <time>2024-10-13T06:50:47Z</time>
      </trkpt>
      <trkpt lat="49.23901" lon="-0.08531">
        <ele>4.8</ele>
        <time>2024-10-13T06:50:48Z</time>
      </trkpt>
      <trkpt lat="49.23897" lon="-0.08518">
        <ele>4.8</ele>
        <time>2024-10-13T06:50:49Z</time>
      </trkpt>
      <trkpt lat="49.23894" lon="-0.08508">
        <ele>4.8</ele>
        <time>2024-10-13T06:50:50Z</time>
      </trkpt>
      <trkpt lat="49.23891" lon="-0.08498">
        <ele>4.8</ele>
        <time>2024-10-13T06:50:51Z</time>
      </trkpt>
      <trkpt lat="49.23889" lon="-0.08488">
        <ele>4.8</ele>
        <time>2024-10-13T06:50:52Z</time>
      </trkpt>
      <trkpt lat="49.23887" lon="-0.08479">
        <ele>5</ele>
        <time>2024-10-13T06:50:53Z</time>
      </trkpt>
      <trkpt lat="49.23884" lon="-0.08467">
        <ele>5</ele>
        <time>2024-10-13T06:50:54Z</time>
      </trkpt>
      <trkpt lat="49.23883" lon="-0.08459">
        <ele>5</ele>
        <time>2024-10-13T06:50:55Z</time>
      </trkpt>
      <trkpt lat="49.23881" lon="-0.08448">
        <ele>5</ele>
        <time>2024-10-13T06:50:56Z</time>
      </trkpt>
      <trkpt lat="49.2388" lon="-0.08437">
        <ele>5</ele>
        <time>2024-10-13T06:50:57Z</time>
      </trkpt>
      <trkpt lat="49.23879" lon="-0.08424">
        <ele>5.2</ele>
        <time>2024-10-13T06:50:58Z</time>
      </trkpt>
      <trkpt lat="49.23879" lon="-0.08413">
        <ele>5.2</ele>
        <time>2024-10-13T06:50:59Z</time>
      </trkpt>
      <trkpt lat="49.23879" lon="-0.08402">
        <ele>5.2</ele>
        <time>2024-10-13T06:51:00Z</time>
      </trkpt>
      <trkpt lat="49.23879" lon="-0.08391">
        <ele>5.2</ele>
        <time>2024-10-13T06:51:01Z</time>
      </trkpt>
      <trkpt lat="49.23879" lon="-0.0838">
        <ele>5.2</ele>
        <time>2024-10-13T06:51:02Z</time>
      </trkpt>
      <trkpt lat="49.2388" lon="-0.08369">
        <ele>5.2</ele>
        <time>2024-10-13T06:51:03Z</time>
      </trkpt>
      <trkpt lat="49.2388" lon="-0.0836">
        <ele>5.2</ele>
        <time>2024-10-13T06:51:04Z</time>
      </trkpt>
      <trkpt lat="49.23881" lon="-0.08349">
        <ele>5.2</ele>
        <time>2024-10-13T06:51:05Z</time>
      </trkpt>
      <trkpt lat="49.23881" lon="-0.08336">
        <ele>5.2</ele>
        <time>2024-10-13T06:51:06Z</time>
      </trkpt>
      <trkpt lat="49.23881" lon="-0.08325">
        <ele>5.2</ele>
        <time>2024-10-13T06:51:07Z</time>
      </trkpt>
      <trkpt lat="49.23881" lon="-0.08316">
        <ele>5.2</ele>
        <time>2024-10-13T06:51:08Z</time>
      </trkpt>
      <trkpt lat="49.2388" lon="-0.08303">
        <ele>5.2</ele>
        <time>2024-10-13T06:51:09Z</time>
      </trkpt>
      <trkpt lat="49.23879" lon="-0.08292">
        <ele>5.4</ele>
        <time>2024-10-13T06:51:10Z</time>
      </trkpt>
      <trkpt lat="49.23877" lon="-0.08282">
        <ele>5.4</ele>
        <time>2024-10-13T06:51:11Z</time>
      </trkpt>
      <trkpt lat="49.23876" lon="-0.08274">
        <ele>5.4</ele>
        <time>2024-10-13T06:51:12Z</time>
      </trkpt>
      <trkpt lat="49.23873" lon="-0.08265">
        <ele>5.6</ele>
        <time>2024-10-13T06:51:13Z</time>
      </trkpt>
      <trkpt lat="49.23868" lon="-0.08255">
        <ele>5.8</ele>
        <time>2024-10-13T06:51:14Z</time>
      </trkpt>
      <trkpt lat="49.23863" lon="-0.08247">
        <ele>6</ele>
        <time>2024-10-13T06:51:15Z</time>
      </trkpt>
      <trkpt lat="49.23859" lon="-0.08241">
        <ele>6</ele>
        <time>2024-10-13T06:51:16Z</time>
      </trkpt>
      <trkpt lat="49.23854" lon="-0.08234">
        <ele>6</ele>
        <time>2024-10-13T06:51:17Z</time>
      </trkpt>
      <trkpt lat="49.23848" lon="-0.08226">
        <ele>6</ele>
        <time>2024-10-13T06:51:18Z</time>
      </trkpt>
      <trkpt lat="49.23844" lon="-0.0822">
        <ele>6.2</ele>
        <time>2024-10-13T06:51:19Z</time>
      </trkpt>
      <trkpt lat="49.23837" lon="-0.08211">
        <ele>6.2</ele>
        <time>2024-10-13T06:51:20Z</time>
      </trkpt>
      <trkpt lat="49.2383" lon="-0.08201">
        <ele>6.2</ele>
        <time>2024-10-13T06:51:21Z</time>
      </trkpt>
      <trkpt lat="49.23825" lon="-0.08193">
        <ele>6.2</ele>
        <time>2024-10-13T06:51:22Z</time>
      </trkpt>
      <trkpt lat="49.23819" lon="-0.08185">
        <ele>6.2</ele>
        <time>2024-10-13T06:51:23Z</time>
      </trkpt>
      <trkpt lat="49.23813" lon="-0.08178">
        <ele>6.2</ele>
        <time>2024-10-13T06:51:24Z</time>
      </trkpt>
      <trkpt lat="49.23808" lon="-0.08172">
        <ele>6.2</ele>
        <time>2024-10-13T06:51:25Z</time>
      </trkpt>
      <trkpt lat="49.23802" lon="-0.08165">
        <ele>6.2</ele>
        <time>2024-10-13T06:51:26Z</time>
      </trkpt>
      <trkpt lat="49.23795" lon="-0.08157">
        <ele>6.2</ele>
        <time>2024-10-13T06:51:27Z</time>
      </trkpt>
      <trkpt lat="49.2379" lon="-0.08151">
        <ele>6.2</ele>
        <time>2024-10-13T06:51:28Z</time>
      </trkpt>
      <trkpt lat="49.23783" lon="-0.08143">
        <ele>6.2</ele>
        <time>2024-10-13T06:51:29Z</time>
      </trkpt>
      <trkpt lat="49.23777" lon="-0.08136">
        <ele>6</ele>
        <time>2024-10-13T06:51:30Z</time>
      </trkpt>
      <trkpt lat="49.23772" lon="-0.08131">
        <ele>5.6</ele>
        <time>2024-10-13T06:51:31Z</time>
      </trkpt>
      <trkpt lat="49.23765" lon="-0.08124">
        <ele>5.4</ele>
        <time>2024-10-13T06:51:32Z</time>
      </trkpt>
      <trkpt lat="49.23759" lon="-0.08118">
        <ele>5.2</ele>
        <time>2024-10-13T06:51:33Z</time>
      </trkpt>
      <trkpt lat="49.23755" lon="-0.08112">
        <ele>5.2</ele>
        <time>2024-10-13T06:51:34Z</time>
      </trkpt>
      <trkpt lat="49.23747" lon="-0.08105">
        <ele>5</ele>
        <time>2024-10-13T06:51:35Z</time>
      </trkpt>
      <trkpt lat="49.23741" lon="-0.08099">
        <ele>5</ele>
        <time>2024-10-13T06:51:36Z</time>
      </trkpt>
      <trkpt lat="49.23737" lon="-0.08093">
        <ele>5</ele>
        <time>2024-10-13T06:51:37Z</time>
      </trkpt>
      <trkpt lat="49.2373" lon="-0.08085">
        <ele>4.8</ele>
        <time>2024-10-13T06:51:38Z</time>
      </trkpt>
      <trkpt lat="49.23725" lon="-0.0808">
        <ele>4.8</ele>
        <time>2024-10-13T06:51:39Z</time>
      </trkpt>
      <trkpt lat="49.2372" lon="-0.08072">
        <ele>4.8</ele>
        <time>2024-10-13T06:51:40Z</time>
      </trkpt>
      <trkpt lat="49.23716" lon="-0.08061">
        <ele>4.8</ele>
        <time>2024-10-13T06:51:41Z</time>
      </trkpt>
      <trkpt lat="49.23713" lon="-0.0805">
        <ele>4.6</ele>
        <time>2024-10-13T06:51:42Z</time>
      </trkpt>
      <trkpt lat="49.23712" lon="-0.08042">
        <ele>4.4</ele>
        <time>2024-10-13T06:51:43Z</time>
      </trkpt>
      <trkpt lat="49.23712" lon="-0.08028">
        <ele>4.4</ele>
        <time>2024-10-13T06:51:44Z</time>
      </trkpt>
      <trkpt lat="49.23712" lon="-0.08017">
        <ele>4.4</ele>
        <time>2024-10-13T06:51:45Z</time>
      </trkpt>
      <trkpt lat="49.23713" lon="-0.08008">
        <ele>4.2</ele>
        <time>2024-10-13T06:51:46Z</time>
      </trkpt>
      <trkpt lat="49.23715" lon="-0.07995">
        <ele>4</ele>
        <time>2024-10-13T06:51:47Z</time>
      </trkpt>
      <trkpt lat="49.23715" lon="-0.07986">
        <ele>4</ele>
        <time>2024-10-13T06:51:48Z</time>
      </trkpt>
      <trkpt lat="49.23717" lon="-0.07975">
        <ele>4</ele>
        <time>2024-10-13T06:51:49Z</time>
      </trkpt>
      <trkpt lat="49.23718" lon="-0.07962">
        <ele>4</ele>
        <time>2024-10-13T06:51:50Z</time>
      </trkpt>
      <trkpt lat="49.23719" lon="-0.07953">
        <ele>3.8</ele>
        <time>2024-10-13T06:51:51Z</time>
      </trkpt>
      <trkpt lat="49.2372" lon="-0.07943">
        <ele>3.8</ele>
        <time>2024-10-13T06:51:52Z</time>
      </trkpt>
      <trkpt lat="49.23721" lon="-0.0793">
        <ele>3.8</ele>
        <time>2024-10-13T06:51:53Z</time>
      </trkpt>
      <trkpt lat="49.23722" lon="-0.07921">
        <ele>3.8</ele>
        <time>2024-10-13T06:51:54Z</time>
      </trkpt>
      <trkpt lat="49.23724" lon="-0.07908">
        <ele>3.8</ele>
        <time>2024-10-13T06:51:55Z</time>
      </trkpt>
      <trkpt lat="49.23725" lon="-0.079">
        <ele>3.8</ele>
        <time>2024-10-13T06:51:56Z</time>
      </trkpt>
      <trkpt lat="49.23726" lon="-0.07889">
        <ele>3.8</ele>
        <time>2024-10-13T06:51:57Z</time>
      </trkpt>
      <trkpt lat="49.23728" lon="-0.07876">
        <ele>3.8</ele>
        <time>2024-10-13T06:51:58Z</time>
      </trkpt>
      <trkpt lat="49.23729" lon="-0.07865">
        <ele>3.8</ele>
        <time>2024-10-13T06:51:59Z</time>
      </trkpt>
      <trkpt lat="49.23731" lon="-0.07856">
        <ele>3.8</ele>
        <time>2024-10-13T06:52:00Z</time>
      </trkpt>
      <trkpt lat="49.23731" lon="-0.07845">
        <ele>3.8</ele>
        <time>2024-10-13T06:52:01Z</time>
      </trkpt>
      <trkpt lat="49.23731" lon="-0.07834">
        <ele>3.8</ele>
        <time>2024-10-13T06:52:02Z</time>
      </trkpt>
      <trkpt lat="49.23731" lon="-0.07822">
        <ele>4</ele>
        <time>2024-10-13T06:52:03Z</time>
      </trkpt>
      <trkpt lat="49.2373" lon="-0.07811">
        <ele>4</ele>
        <time>2024-10-13T06:52:04Z</time>
      </trkpt>
      <trkpt lat="49.23727" lon="-0.07798">
        <ele>4</ele>
        <time>2024-10-13T06:52:05Z</time>
      </trkpt>
      <trkpt lat="49.23726" lon="-0.0779">
        <ele>4</ele>
        <time>2024-10-13T06:52:06Z</time>
      </trkpt>
      <trkpt lat="49.23722" lon="-0.07777">
        <ele>4</ele>
        <time>2024-10-13T06:52:07Z</time>
      </trkpt>
      <trkpt lat="49.23719" lon="-0.07767">
        <ele>4.2</ele>
        <time>2024-10-13T06:52:08Z</time>
      </trkpt>
      <trkpt lat="49.23717" lon="-0.07759">
        <ele>4.2</ele>
        <time>2024-10-13T06:52:09Z</time>
      </trkpt>
      <trkpt lat="49.23713" lon="-0.07747">
        <ele>4.4</ele>
        <time>2024-10-13T06:52:10Z</time>
      </trkpt>
      <trkpt lat="49.23711" lon="-0.07736">
        <ele>4.4</ele>
        <time>2024-10-13T06:52:11Z</time>
      </trkpt>
      <trkpt lat="49.2371" lon="-0.07728">
        <ele>4.4</ele>
        <time>2024-10-13T06:52:12Z</time>
      </trkpt>
      <trkpt lat="49.23708" lon="-0.07714">
        <ele>4.4</ele>
        <time>2024-10-13T06:52:13Z</time>
      </trkpt>
      <trkpt lat="49.23708" lon="-0.07705">
        <ele>4.4</ele>
        <time>2024-10-13T06:52:14Z</time>
      </trkpt>
      <trkpt lat="49.23708" lon="-0.07694">
        <ele>4.4</ele>
        <time>2024-10-13T06:52:15Z</time>
      </trkpt>
      <trkpt lat="49.23708" lon="-0.07683">
        <ele>4.4</ele>
        <time>2024-10-13T06:52:16Z</time>
      </trkpt>
      <trkpt lat="49.23709" lon="-0.07669">
        <ele>4.4</ele>
        <time>2024-10-13T06:52:17Z</time>
      </trkpt>
      <trkpt lat="49.2371" lon="-0.0766">
        <ele>4.4</ele>
        <time>2024-10-13T06:52:18Z</time>
      </trkpt>
      <trkpt lat="49.23711" lon="-0.07647">
        <ele>4.4</ele>
        <time>2024-10-13T06:52:19Z</time>
      </trkpt>
      <trkpt lat="49.23712" lon="-0.07638">
        <ele>4.4</ele>
        <time>2024-10-13T06:52:20Z</time>
      </trkpt>
      <trkpt lat="49.23713" lon="-0.07626">
        <ele>4.4</ele>
        <time>2024-10-13T06:52:21Z</time>
      </trkpt>
      <trkpt lat="49.23713" lon="-0.07615">
        <ele>4.4</ele>
        <time>2024-10-13T06:52:22Z</time>
      </trkpt>
      <trkpt lat="49.23713" lon="-0.07603">
        <ele>4.4</ele>
        <time>2024-10-13T06:52:23Z</time>
      </trkpt>
      <trkpt lat="49.23713" lon="-0.07591">
        <ele>4.4</ele>
        <time>2024-10-13T06:52:24Z</time>
      </trkpt>
      <trkpt lat="49.23713" lon="-0.0758">
        <ele>4.4</ele>
        <time>2024-10-13T06:52:25Z</time>
      </trkpt>
      <trkpt lat="49.23712" lon="-0.07566">
        <ele>4.6</ele>
        <time>2024-10-13T06:52:26Z</time>
      </trkpt>
      <trkpt lat="49.23712" lon="-0.07557">
        <ele>4.6</ele>
        <time>2024-10-13T06:52:27Z</time>
      </trkpt>
      <trkpt lat="49.23711" lon="-0.07543">
        <ele>4.6</ele>
        <time>2024-10-13T06:52:28Z</time>
      </trkpt>
      <trkpt lat="49.23712" lon="-0.07534">
        <ele>4.6</ele>
        <time>2024-10-13T06:52:29Z</time>
      </trkpt>
      <trkpt lat="49.23713" lon="-0.07522">
        <ele>4.6</ele>
        <time>2024-10-13T06:52:30Z</time>
      </trkpt>
      <trkpt lat="49.23714" lon="-0.07509">
        <ele>4.6</ele>
        <time>2024-10-13T06:52:31Z</time>
      </trkpt>
      <trkpt lat="49.23715" lon="-0.07497">
        <ele>4.6</ele>
        <time>2024-10-13T06:52:32Z</time>
      </trkpt>
      <trkpt lat="49.23716" lon="-0.07488">
        <ele>4.6</ele>
        <time>2024-10-13T06:52:33Z</time>
      </trkpt>
      <trkpt lat="49.23718" lon="-0.07474">
        <ele>4.6</ele>
        <time>2024-10-13T06:52:34Z</time>
      </trkpt>
      <trkpt lat="49.23718" lon="-0.07465">
        <ele>4.6</ele>
        <time>2024-10-13T06:52:35Z</time>
      </trkpt>
      <trkpt lat="49.23718" lon="-0.07454">
        <ele>4.6</ele>
        <time>2024-10-13T06:52:36Z</time>
      </trkpt>
      <trkpt lat="49.23718" lon="-0.0744">
        <ele>4.6</ele>
        <time>2024-10-13T06:52:37Z</time>
      </trkpt>
      <trkpt lat="49.23718" lon="-0.07429">
        <ele>4.6</ele>
        <time>2024-10-13T06:52:38Z</time>
      </trkpt>
      <trkpt lat="49.23717" lon="-0.07417">
        <ele>4.6</ele>
        <time>2024-10-13T06:52:39Z</time>
      </trkpt>
      <trkpt lat="49.23716" lon="-0.07406">
        <ele>4.6</ele>
        <time>2024-10-13T06:52:40Z</time>
      </trkpt>
      <trkpt lat="49.23716" lon="-0.07397">
        <ele>4.6</ele>
        <time>2024-10-13T06:52:41Z</time>
      </trkpt>
      <trkpt lat="49.23714" lon="-0.07384">
        <ele>4.6</ele>
        <time>2024-10-13T06:52:42Z</time>
      </trkpt>
      <trkpt lat="49.23713" lon="-0.07373">
        <ele>4.6</ele>
        <time>2024-10-13T06:52:43Z</time>
      </trkpt>
      <trkpt lat="49.23712" lon="-0.07364">
        <ele>4.6</ele>
        <time>2024-10-13T06:52:44Z</time>
      </trkpt>
      <trkpt lat="49.23711" lon="-0.07353">
        <ele>4.6</ele>
        <time>2024-10-13T06:52:45Z</time>
      </trkpt>
      <trkpt lat="49.23708" lon="-0.07339">
        <ele>4.6</ele>
        <time>2024-10-13T06:52:46Z</time>
      </trkpt>
      <trkpt lat="49.23707" lon="-0.07331">
        <ele>4.6</ele>
        <time>2024-10-13T06:52:47Z</time>
      </trkpt>
      <trkpt lat="49.23705" lon="-0.07319">
        <ele>4.6</ele>
        <time>2024-10-13T06:52:48Z</time>
      </trkpt>
      <trkpt lat="49.23703" lon="-0.07306">
        <ele>4.6</ele>
        <time>2024-10-13T06:52:49Z</time>
      </trkpt>
      <trkpt lat="49.23701" lon="-0.07297">
        <ele>4.6</ele>
        <time>2024-10-13T06:52:50Z</time>
      </trkpt>
      <trkpt lat="49.237" lon="-0.07284">
        <ele>4.6</ele>
        <time>2024-10-13T06:52:51Z</time>
      </trkpt>
      <trkpt lat="49.23699" lon="-0.07273">
        <ele>4.6</ele>
        <time>2024-10-13T06:52:52Z</time>
      </trkpt>
      <trkpt lat="49.23698" lon="-0.07264">
        <ele>4.6</ele>
        <time>2024-10-13T06:52:53Z</time>
      </trkpt>
      <trkpt lat="49.23697" lon="-0.07251">
        <ele>4.8</ele>
        <time>2024-10-13T06:52:54Z</time>
      </trkpt>
      <trkpt lat="49.23695" lon="-0.0724">
        <ele>4.8</ele>
        <time>2024-10-13T06:52:55Z</time>
      </trkpt>
      <trkpt lat="49.23694" lon="-0.07231">
        <ele>4.8</ele>
        <time>2024-10-13T06:52:56Z</time>
      </trkpt>
      <trkpt lat="49.23693" lon="-0.07217">
        <ele>4.8</ele>
        <time>2024-10-13T06:52:57Z</time>
      </trkpt>
      <trkpt lat="49.23691" lon="-0.07206">
        <ele>4.8</ele>
        <time>2024-10-13T06:52:58Z</time>
      </trkpt>
      <trkpt lat="49.2369" lon="-0.07198">
        <ele>4.8</ele>
        <time>2024-10-13T06:52:59Z</time>
      </trkpt>
      <trkpt lat="49.23688" lon="-0.07187">
        <ele>4.8</ele>
        <time>2024-10-13T06:53:00Z</time>
      </trkpt>
      <trkpt lat="49.23685" lon="-0.07174">
        <ele>4.8</ele>
        <time>2024-10-13T06:53:01Z</time>
      </trkpt>
      <trkpt lat="49.23682" lon="-0.07166">
        <ele>4.6</ele>
        <time>2024-10-13T06:53:02Z</time>
      </trkpt>
      <trkpt lat="49.23678" lon="-0.07153">
        <ele>4.6</ele>
        <time>2024-10-13T06:53:03Z</time>
      </trkpt>
      <trkpt lat="49.23675" lon="-0.07146">
        <ele>4.6</ele>
        <time>2024-10-13T06:53:04Z</time>
      </trkpt>
      <trkpt lat="49.2367" lon="-0.07137">
        <ele>4.6</ele>
        <time>2024-10-13T06:53:05Z</time>
      </trkpt>
      <trkpt lat="49.23665" lon="-0.07129">
        <ele>4.6</ele>
        <time>2024-10-13T06:53:06Z</time>
      </trkpt>
      <trkpt lat="49.23658" lon="-0.07119">
        <ele>4.8</ele>
        <time>2024-10-13T06:53:07Z</time>
      </trkpt>
      <trkpt lat="49.23654" lon="-0.07113">
        <ele>4.8</ele>
        <time>2024-10-13T06:53:08Z</time>
      </trkpt>
      <trkpt lat="49.23647" lon="-0.07104">
        <ele>4.8</ele>
        <time>2024-10-13T06:53:09Z</time>
      </trkpt>
      <trkpt lat="49.23643" lon="-0.07098">
        <ele>4.8</ele>
        <time>2024-10-13T06:53:10Z</time>
      </trkpt>
      <trkpt lat="49.23637" lon="-0.07091">
        <ele>4.8</ele>
        <time>2024-10-13T06:53:11Z</time>
      </trkpt>
      <trkpt lat="49.23631" lon="-0.07085">
        <ele>4.8</ele>
        <time>2024-10-13T06:53:12Z</time>
      </trkpt>
      <trkpt lat="49.23623" lon="-0.07078">
        <ele>4.8</ele>
        <time>2024-10-13T06:53:13Z</time>
      </trkpt>
      <trkpt lat="49.23618" lon="-0.07074">
        <ele>4.8</ele>
        <time>2024-10-13T06:53:14Z</time>
      </trkpt>
      <trkpt lat="49.23611" lon="-0.07069">
        <ele>5</ele>
        <time>2024-10-13T06:53:15Z</time>
      </trkpt>
      <trkpt lat="49.23603" lon="-0.07063">
        <ele>5</ele>
        <time>2024-10-13T06:53:16Z</time>
      </trkpt>
      <trkpt lat="49.23598" lon="-0.07059">
        <ele>5</ele>
        <time>2024-10-13T06:53:17Z</time>
      </trkpt>
      <trkpt lat="49.2359" lon="-0.07054">
        <ele>5.2</ele>
        <time>2024-10-13T06:53:18Z</time>
      </trkpt>
      <trkpt lat="49.23583" lon="-0.0705">
        <ele>5.2</ele>
        <time>2024-10-13T06:53:19Z</time>
      </trkpt>
      <trkpt lat="49.23577" lon="-0.07046">
        <ele>5.2</ele>
        <time>2024-10-13T06:53:20Z</time>
      </trkpt>
      <trkpt lat="49.2357" lon="-0.07042">
        <ele>5.2</ele>
        <time>2024-10-13T06:53:21Z</time>
      </trkpt>
      <trkpt lat="49.23563" lon="-0.07038">
        <ele>5.2</ele>
        <time>2024-10-13T06:53:22Z</time>
      </trkpt>
      <trkpt lat="49.23557" lon="-0.07034">
        <ele>5.2</ele>
        <time>2024-10-13T06:53:23Z</time>
      </trkpt>
      <trkpt lat="49.23548" lon="-0.07029">
        <ele>5.2</ele>
        <time>2024-10-13T06:53:24Z</time>
      </trkpt>
      <trkpt lat="49.23543" lon="-0.07026">
        <ele>5.2</ele>
        <time>2024-10-13T06:53:25Z</time>
      </trkpt>
      <trkpt lat="49.23536" lon="-0.07022">
        <ele>5.2</ele>
        <time>2024-10-13T06:53:26Z</time>
      </trkpt>
      <trkpt lat="49.2353" lon="-0.07018">
        <ele>5.2</ele>
        <time>2024-10-13T06:53:27Z</time>
      </trkpt>
      <trkpt lat="49.23523" lon="-0.07013">
        <ele>5</ele>
        <time>2024-10-13T06:53:28Z</time>
      </trkpt>
      <trkpt lat="49.23516" lon="-0.07009">
        <ele>5</ele>
        <time>2024-10-13T06:53:29Z</time>
      </trkpt>
      <trkpt lat="49.2351" lon="-0.07005">
        <ele>5</ele>
        <time>2024-10-13T06:53:30Z</time>
      </trkpt>
      <trkpt lat="49.23502" lon="-0.06999">
        <ele>5</ele>
        <time>2024-10-13T06:53:31Z</time>
      </trkpt>
      <trkpt lat="49.23497" lon="-0.06996">
        <ele>5</ele>
        <time>2024-10-13T06:53:32Z</time>
      </trkpt>
      <trkpt lat="49.2349" lon="-0.06991">
        <ele>5</ele>
        <time>2024-10-13T06:53:33Z</time>
      </trkpt>
      <trkpt lat="49.23484" lon="-0.06987">
        <ele>4.8</ele>
        <time>2024-10-13T06:53:34Z</time>
      </trkpt>
      <trkpt lat="49.23477" lon="-0.06983">
        <ele>4.8</ele>
        <time>2024-10-13T06:53:35Z</time>
      </trkpt>
      <trkpt lat="49.2347" lon="-0.06979">
        <ele>4.8</ele>
        <time>2024-10-13T06:53:36Z</time>
      </trkpt>
      <trkpt lat="49.23464" lon="-0.06975">
        <ele>4.8</ele>
        <time>2024-10-13T06:53:37Z</time>
      </trkpt>
      <trkpt lat="49.23458" lon="-0.06971">
        <ele>4.8</ele>
        <time>2024-10-13T06:53:38Z</time>
      </trkpt>
      <trkpt lat="49.23452" lon="-0.06968">
        <ele>4.8</ele>
        <time>2024-10-13T06:53:39Z</time>
      </trkpt>
      <trkpt lat="49.23446" lon="-0.06964">
        <ele>4.8</ele>
        <time>2024-10-13T06:53:40Z</time>
      </trkpt>
      <trkpt lat="49.2344" lon="-0.06961">
        <ele>4.8</ele>
        <time>2024-10-13T06:53:41Z</time>
      </trkpt>
      <trkpt lat="49.23434" lon="-0.06958">
        <ele>4.8</ele>
        <time>2024-10-13T06:53:42Z</time>
      </trkpt>
      <trkpt lat="49.23429" lon="-0.06954">
        <ele>4.8</ele>
        <time>2024-10-13T06:53:43Z</time>
      </trkpt>
      <trkpt lat="49.23425" lon="-0.0695">
        <ele>5</ele>
        <time>2024-10-13T06:53:44Z</time>
      </trkpt>
      <trkpt lat="49.23421" lon="-0.06943">
        <ele>5</ele>
        <time>2024-10-13T06:53:45Z</time>
      </trkpt>
      <trkpt lat="49.2342" lon="-0.06936">
        <ele>5</ele>
        <time>2024-10-13T06:53:46Z</time>
      </trkpt>
      <trkpt lat="49.23419" lon="-0.06927">
        <ele>5</ele>
        <time>2024-10-13T06:53:47Z</time>
      </trkpt>
      <trkpt lat="49.23419" lon="-0.06917">
        <ele>5.2</ele>
        <time>2024-10-13T06:53:48Z</time>
      </trkpt>
      <trkpt lat="49.23419" lon="-0.06907">
        <ele>5.4</ele>
        <time>2024-10-13T06:53:49Z</time>
      </trkpt>
      <trkpt lat="49.23419" lon="-0.06897">
        <ele>5.4</ele>
        <time>2024-10-13T06:53:50Z</time>
      </trkpt>
      <trkpt lat="49.23418" lon="-0.06887">
        <ele>5.6</ele>
        <time>2024-10-13T06:53:51Z</time>
      </trkpt>
      <trkpt lat="49.23418" lon="-0.06877">
        <ele>5.6</ele>
        <time>2024-10-13T06:53:52Z</time>
      </trkpt>
      <trkpt lat="49.23417" lon="-0.06867">
        <ele>5.8</ele>
        <time>2024-10-13T06:53:53Z</time>
      </trkpt>
      <trkpt lat="49.23416" lon="-0.06858">
        <ele>5.8</ele>
        <time>2024-10-13T06:53:54Z</time>
      </trkpt>
      <trkpt lat="49.23414" lon="-0.06848">
        <ele>5.8</ele>
        <time>2024-10-13T06:53:55Z</time>
      </trkpt>
      <trkpt lat="49.23413" lon="-0.06838">
        <ele>6</ele>
        <time>2024-10-13T06:53:56Z</time>
      </trkpt>
      <trkpt lat="49.23411" lon="-0.06828">
        <ele>6</ele>
        <time>2024-10-13T06:53:57Z</time>
      </trkpt>
      <trkpt lat="49.23409" lon="-0.06819">
        <ele>6</ele>
        <time>2024-10-13T06:53:58Z</time>
      </trkpt>
      <trkpt lat="49.23407" lon="-0.0681">
        <ele>6</ele>
        <time>2024-10-13T06:53:59Z</time>
      </trkpt>
      <trkpt lat="49.23404" lon="-0.06801">
        <ele>6</ele>
        <time>2024-10-13T06:54:00Z</time>
      </trkpt>
      <trkpt lat="49.23401" lon="-0.06792">
        <ele>6</ele>
        <time>2024-10-13T06:54:01Z</time>
      </trkpt>
      <trkpt lat="49.23398" lon="-0.06783">
        <ele>6</ele>
        <time>2024-10-13T06:54:02Z</time>
      </trkpt>
      <trkpt lat="49.23395" lon="-0.06774">
        <ele>6.2</ele>
        <time>2024-10-13T06:54:03Z</time>
      </trkpt>
      <trkpt lat="49.23392" lon="-0.06765">
        <ele>6.2</ele>
        <time>2024-10-13T06:54:04Z</time>
      </trkpt>
      <trkpt lat="49.2339" lon="-0.06756">
        <ele>6.2</ele>
        <time>2024-10-13T06:54:05Z</time>
      </trkpt>
      <trkpt lat="49.23387" lon="-0.06746">
        <ele>6.2</ele>
        <time>2024-10-13T06:54:06Z</time>
      </trkpt>
      <trkpt lat="49.23383" lon="-0.06735">
        <ele>6.2</ele>
        <time>2024-10-13T06:54:07Z</time>
      </trkpt>
      <trkpt lat="49.23381" lon="-0.06727">
        <ele>6.2</ele>
        <time>2024-10-13T06:54:08Z</time>
      </trkpt>
      <trkpt lat="49.23378" lon="-0.06718">
        <ele>6.4</ele>
        <time>2024-10-13T06:54:09Z</time>
      </trkpt>
      <trkpt lat="49.23375" lon="-0.06708">
        <ele>6.4</ele>
        <time>2024-10-13T06:54:10Z</time>
      </trkpt>
      <trkpt lat="49.23372" lon="-0.06698">
        <ele>6.4</ele>
        <time>2024-10-13T06:54:11Z</time>
      </trkpt>
      <trkpt lat="49.23369" lon="-0.06688">
        <ele>6.6</ele>
        <time>2024-10-13T06:54:12Z</time>
      </trkpt>
      <trkpt lat="49.23366" lon="-0.06678">
        <ele>6.6</ele>
        <time>2024-10-13T06:54:13Z</time>
      </trkpt>
      <trkpt lat="49.23363" lon="-0.06668">
        <ele>6.6</ele>
        <time>2024-10-13T06:54:14Z</time>
      </trkpt>
      <trkpt lat="49.2336" lon="-0.06659">
        <ele>6.8</ele>
        <time>2024-10-13T06:54:15Z</time>
      </trkpt>
      <trkpt lat="49.23357" lon="-0.06647">
        <ele>7</ele>
        <time>2024-10-13T06:54:16Z</time>
      </trkpt>
      <trkpt lat="49.23355" lon="-0.06639">
        <ele>7.2</ele>
        <time>2024-10-13T06:54:17Z</time>
      </trkpt>
      <trkpt lat="49.23353" lon="-0.06629">
        <ele>7.4</ele>
        <time>2024-10-13T06:54:18Z</time>
      </trkpt>
      <trkpt lat="49.23351" lon="-0.0662">
        <ele>7.6</ele>
        <time>2024-10-13T06:54:19Z</time>
      </trkpt>
      <trkpt lat="49.23349" lon="-0.0661">
        <ele>7.8</ele>
        <time>2024-10-13T06:54:20Z</time>
      </trkpt>
      <trkpt lat="49.23347" lon="-0.066">
        <ele>7.8</ele>
        <time>2024-10-13T06:54:21Z</time>
      </trkpt>
      <trkpt lat="49.23346" lon="-0.0659">
        <ele>8</ele>
        <time>2024-10-13T06:54:22Z</time>
      </trkpt>
      <trkpt lat="49.23345" lon="-0.0658">
        <ele>8</ele>
        <time>2024-10-13T06:54:23Z</time>
      </trkpt>
      <trkpt lat="49.23345" lon="-0.06568">
        <ele>8</ele>
        <time>2024-10-13T06:54:24Z</time>
      </trkpt>
      <trkpt lat="49.23346" lon="-0.06558">
        <ele>8</ele>
        <time>2024-10-13T06:54:25Z</time>
      </trkpt>
      <trkpt lat="49.23347" lon="-0.0655">
        <ele>8</ele>
        <time>2024-10-13T06:54:26Z</time>
      </trkpt>
      <trkpt lat="49.2335" lon="-0.06539">
        <ele>8.2</ele>
        <time>2024-10-13T06:54:27Z</time>
      </trkpt>
      <trkpt lat="49.23352" lon="-0.06532">
        <ele>8.2</ele>
        <time>2024-10-13T06:54:28Z</time>
      </trkpt>
      <trkpt lat="49.23355" lon="-0.06523">
        <ele>8.2</ele>
        <time>2024-10-13T06:54:29Z</time>
      </trkpt>
      <trkpt lat="49.23358" lon="-0.06514">
        <ele>8.4</ele>
        <time>2024-10-13T06:54:30Z</time>
      </trkpt>
      <trkpt lat="49.23361" lon="-0.06505">
        <ele>8.4</ele>
        <time>2024-10-13T06:54:31Z</time>
      </trkpt>
      <trkpt lat="49.23364" lon="-0.06496">
        <ele>8.6</ele>
        <time>2024-10-13T06:54:32Z</time>
      </trkpt>
      <trkpt lat="49.23367" lon="-0.06487">
        <ele>9</ele>
        <time>2024-10-13T06:54:33Z</time>
      </trkpt>
      <trkpt lat="49.23371" lon="-0.06475">
        <ele>9.2</ele>
        <time>2024-10-13T06:54:34Z</time>
      </trkpt>
      <trkpt lat="49.23374" lon="-0.06468">
        <ele>9.4</ele>
        <time>2024-10-13T06:54:35Z</time>
      </trkpt>
      <trkpt lat="49.23378" lon="-0.06456">
        <ele>9.4</ele>
        <time>2024-10-13T06:54:36Z</time>
      </trkpt>
      <trkpt lat="49.2338" lon="-0.06447">
        <ele>9.6</ele>
        <time>2024-10-13T06:54:37Z</time>
      </trkpt>
      <trkpt lat="49.23383" lon="-0.06437">
        <ele>9.8</ele>
        <time>2024-10-13T06:54:38Z</time>
      </trkpt>
      <trkpt lat="49.23386" lon="-0.06425">
        <ele>9.8</ele>
        <time>2024-10-13T06:54:39Z</time>
      </trkpt>
      <trkpt lat="49.23388" lon="-0.06417">
        <ele>9.8</ele>
        <time>2024-10-13T06:54:40Z</time>
      </trkpt>
      <trkpt lat="49.23391" lon="-0.06406">
        <ele>10</ele>
        <time>2024-10-13T06:54:41Z</time>
      </trkpt>
      <trkpt lat="49.23394" lon="-0.06394">
        <ele>10</ele>
        <time>2024-10-13T06:54:42Z</time>
      </trkpt>
      <trkpt lat="49.23396" lon="-0.06385">
        <ele>10</ele>
        <time>2024-10-13T06:54:43Z</time>
      </trkpt>
      <trkpt lat="49.23398" lon="-0.06375">
        <ele>10.2</ele>
        <time>2024-10-13T06:54:44Z</time>
      </trkpt>
      <trkpt lat="49.23402" lon="-0.06363">
        <ele>10.2</ele>
        <time>2024-10-13T06:54:45Z</time>
      </trkpt>
      <trkpt lat="49.23404" lon="-0.06355">
        <ele>10.2</ele>
        <time>2024-10-13T06:54:46Z</time>
      </trkpt>
      <trkpt lat="49.23408" lon="-0.06345">
        <ele>10.2</ele>
        <time>2024-10-13T06:54:47Z</time>
      </trkpt>
      <trkpt lat="49.23411" lon="-0.06335">
        <ele>10.4</ele>
        <time>2024-10-13T06:54:48Z</time>
      </trkpt>
      <trkpt lat="49.23414" lon="-0.06324">
        <ele>10.4</ele>
        <time>2024-10-13T06:54:49Z</time>
      </trkpt>
      <trkpt lat="49.23418" lon="-0.06314">
        <ele>10.4</ele>
        <time>2024-10-13T06:54:50Z</time>
      </trkpt>
      <trkpt lat="49.23421" lon="-0.06302">
        <ele>10.4</ele>
        <time>2024-10-13T06:54:51Z</time>
      </trkpt>
      <trkpt lat="49.23423" lon="-0.06293">
        <ele>10.4</ele>
        <time>2024-10-13T06:54:52Z</time>
      </trkpt>
      <trkpt lat="49.23426" lon="-0.06282">
        <ele>10.4</ele>
        <time>2024-10-13T06:54:53Z</time>
      </trkpt>
      <trkpt lat="49.23428" lon="-0.06271">
        <ele>10.4</ele>
        <time>2024-10-13T06:54:54Z</time>
      </trkpt>
      <trkpt lat="49.2343" lon="-0.0626">
        <ele>10.4</ele>
        <time>2024-10-13T06:54:55Z</time>
      </trkpt>
      <trkpt lat="49.23432" lon="-0.06249">
        <ele>10.4</ele>
        <time>2024-10-13T06:54:56Z</time>
      </trkpt>
      <trkpt lat="49.23433" lon="-0.06237">
        <ele>10.2</ele>
        <time>2024-10-13T06:54:57Z</time>
      </trkpt>
      <trkpt lat="49.23434" lon="-0.06226">
        <ele>10.2</ele>
        <time>2024-10-13T06:54:58Z</time>
      </trkpt>
      <trkpt lat="49.23435" lon="-0.06214">
        <ele>10.2</ele>
        <time>2024-10-13T06:54:59Z</time>
      </trkpt>
      <trkpt lat="49.23437" lon="-0.062">
        <ele>10.2</ele>
        <time>2024-10-13T06:55:00Z</time>
      </trkpt>
      <trkpt lat="49.23437" lon="-0.06191">
        <ele>10.2</ele>
        <time>2024-10-13T06:55:01Z</time>
      </trkpt>
      <trkpt lat="49.23438" lon="-0.0618">
        <ele>10.2</ele>
        <time>2024-10-13T06:55:02Z</time>
      </trkpt>
      <trkpt lat="49.23438" lon="-0.06168">
        <ele>10.2</ele>
        <time>2024-10-13T06:55:03Z</time>
      </trkpt>
      <trkpt lat="49.23439" lon="-0.0616">
        <ele>10</ele>
        <time>2024-10-13T06:55:04Z</time>
      </trkpt>
      <trkpt lat="49.23438" lon="-0.06149">
        <ele>10</ele>
        <time>2024-10-13T06:55:05Z</time>
      </trkpt>
      <trkpt lat="49.23438" lon="-0.06138">
        <ele>9.8</ele>
        <time>2024-10-13T06:55:06Z</time>
      </trkpt>
      <trkpt lat="49.23438" lon="-0.0613">
        <ele>9.6</ele>
        <time>2024-10-13T06:55:07Z</time>
      </trkpt>
      <trkpt lat="49.23438" lon="-0.0612">
        <ele>9.4</ele>
        <time>2024-10-13T06:55:08Z</time>
      </trkpt>
      <trkpt lat="49.23438" lon="-0.06108">
        <ele>9.4</ele>
        <time>2024-10-13T06:55:09Z</time>
      </trkpt>
      <trkpt lat="49.23438" lon="-0.061">
        <ele>9.4</ele>
        <time>2024-10-13T06:55:10Z</time>
      </trkpt>
      <trkpt lat="49.23439" lon="-0.06089">
        <ele>9.4</ele>
        <time>2024-10-13T06:55:11Z</time>
      </trkpt>
      <trkpt lat="49.23439" lon="-0.06077">
        <ele>9.4</ele>
        <time>2024-10-13T06:55:12Z</time>
      </trkpt>
      <trkpt lat="49.2344" lon="-0.06068">
        <ele>9.4</ele>
        <time>2024-10-13T06:55:13Z</time>
      </trkpt>
      <trkpt lat="49.23441" lon="-0.06058">
        <ele>9.4</ele>
        <time>2024-10-13T06:55:14Z</time>
      </trkpt>
      <trkpt lat="49.23442" lon="-0.06048">
        <ele>9.4</ele>
        <time>2024-10-13T06:55:15Z</time>
      </trkpt>
      <trkpt lat="49.23444" lon="-0.06037">
        <ele>9.4</ele>
        <time>2024-10-13T06:55:16Z</time>
      </trkpt>
      <trkpt lat="49.23445" lon="-0.06027">
        <ele>9.4</ele>
        <time>2024-10-13T06:55:17Z</time>
      </trkpt>
      <trkpt lat="49.23446" lon="-0.06015">
        <ele>10</ele>
        <time>2024-10-13T06:55:18Z</time>
      </trkpt>
      <trkpt lat="49.23447" lon="-0.06006">
        <ele>10.2</ele>
        <time>2024-10-13T06:55:19Z</time>
      </trkpt>
      <trkpt lat="49.23448" lon="-0.05996">
        <ele>10.4</ele>
        <time>2024-10-13T06:55:20Z</time>
      </trkpt>
      <trkpt lat="49.2345" lon="-0.05986">
        <ele>10.4</ele>
        <time>2024-10-13T06:55:21Z</time>
      </trkpt>
      <trkpt lat="49.23451" lon="-0.05975">
        <ele>10.6</ele>
        <time>2024-10-13T06:55:22Z</time>
      </trkpt>
      <trkpt lat="49.23452" lon="-0.05965">
        <ele>10.6</ele>
        <time>2024-10-13T06:55:23Z</time>
      </trkpt>
      <trkpt lat="49.23454" lon="-0.05953">
        <ele>10.6</ele>
        <time>2024-10-13T06:55:24Z</time>
      </trkpt>
      <trkpt lat="49.23455" lon="-0.05945">
        <ele>10.6</ele>
        <time>2024-10-13T06:55:25Z</time>
      </trkpt>
      <trkpt lat="49.23456" lon="-0.05934">
        <ele>10.6</ele>
        <time>2024-10-13T06:55:26Z</time>
      </trkpt>
      <trkpt lat="49.23457" lon="-0.05924">
        <ele>10.8</ele>
        <time>2024-10-13T06:55:27Z</time>
      </trkpt>
      <trkpt lat="49.23458" lon="-0.05916">
        <ele>10.8</ele>
        <time>2024-10-13T06:55:28Z</time>
      </trkpt>
      <trkpt lat="49.23459" lon="-0.05903">
        <ele>10.8</ele>
        <time>2024-10-13T06:55:29Z</time>
      </trkpt>
      <trkpt lat="49.2346" lon="-0.05891">
        <ele>10.8</ele>
        <time>2024-10-13T06:55:30Z</time>
      </trkpt>
      <trkpt lat="49.2346" lon="-0.05882">
        <ele>10.8</ele>
        <time>2024-10-13T06:55:31Z</time>
      </trkpt>
      <trkpt lat="49.23461" lon="-0.05872">
        <ele>10.8</ele>
        <time>2024-10-13T06:55:32Z</time>
      </trkpt>
      <trkpt lat="49.23461" lon="-0.05861">
        <ele>10.8</ele>
        <time>2024-10-13T06:55:33Z</time>
      </trkpt>
      <trkpt lat="49.23462" lon="-0.0585">
        <ele>10.8</ele>
        <time>2024-10-13T06:55:34Z</time>
      </trkpt>
      <trkpt lat="49.23462" lon="-0.05839">
        <ele>10.8</ele>
        <time>2024-10-13T06:55:35Z</time>
      </trkpt>
      <trkpt lat="49.23463" lon="-0.05828">
        <ele>10.8</ele>
        <time>2024-10-13T06:55:36Z</time>
      </trkpt>
      <trkpt lat="49.23463" lon="-0.05817">
        <ele>10.8</ele>
        <time>2024-10-13T06:55:37Z</time>
      </trkpt>
      <trkpt lat="49.23463" lon="-0.05805">
        <ele>10.8</ele>
        <time>2024-10-13T06:55:38Z</time>
      </trkpt>
      <trkpt lat="49.23462" lon="-0.05792">
        <ele>10.8</ele>
        <time>2024-10-13T06:55:39Z</time>
      </trkpt>
      <trkpt lat="49.23461" lon="-0.05783">
        <ele>10.8</ele>
        <time>2024-10-13T06:55:40Z</time>
      </trkpt>
      <trkpt lat="49.2346" lon="-0.05772">
        <ele>10.8</ele>
        <time>2024-10-13T06:55:41Z</time>
      </trkpt>
      <trkpt lat="49.23457" lon="-0.05759">
        <ele>10.8</ele>
        <time>2024-10-13T06:55:42Z</time>
      </trkpt>
      <trkpt lat="49.23454" lon="-0.05751">
        <ele>10.6</ele>
        <time>2024-10-13T06:55:43Z</time>
      </trkpt>
      <trkpt lat="49.2345" lon="-0.05738">
        <ele>10.6</ele>
        <time>2024-10-13T06:55:44Z</time>
      </trkpt>
      <trkpt lat="49.23447" lon="-0.05731">
        <ele>10.6</ele>
        <time>2024-10-13T06:55:45Z</time>
      </trkpt>
      <trkpt lat="49.23442" lon="-0.05722">
        <ele>10.6</ele>
        <time>2024-10-13T06:55:46Z</time>
      </trkpt>
      <trkpt lat="49.23437" lon="-0.05713">
        <ele>10.6</ele>
        <time>2024-10-13T06:55:47Z</time>
      </trkpt>
      <trkpt lat="49.23432" lon="-0.05705">
        <ele>10.6</ele>
        <time>2024-10-13T06:55:48Z</time>
      </trkpt>
      <trkpt lat="49.23426" lon="-0.05698">
        <ele>10.6</ele>
        <time>2024-10-13T06:55:49Z</time>
      </trkpt>
      <trkpt lat="49.23418" lon="-0.05691">
        <ele>10.6</ele>
        <time>2024-10-13T06:55:50Z</time>
      </trkpt>
      <trkpt lat="49.23413" lon="-0.05687">
        <ele>10.4</ele>
        <time>2024-10-13T06:55:51Z</time>
      </trkpt>
      <trkpt lat="49.23406" lon="-0.05683">
        <ele>10.4</ele>
        <time>2024-10-13T06:55:52Z</time>
      </trkpt>
      <trkpt lat="49.23398" lon="-0.05678">
        <ele>10.4</ele>
        <time>2024-10-13T06:55:53Z</time>
      </trkpt>
      <trkpt lat="49.23392" lon="-0.05675">
        <ele>10.4</ele>
        <time>2024-10-13T06:55:54Z</time>
      </trkpt>
      <trkpt lat="49.23385" lon="-0.05672">
        <ele>10.4</ele>
        <time>2024-10-13T06:55:55Z</time>
      </trkpt>
      <trkpt lat="49.23378" lon="-0.05669">
        <ele>10.4</ele>
        <time>2024-10-13T06:55:56Z</time>
      </trkpt>
      <trkpt lat="49.23371" lon="-0.05666">
        <ele>10.4</ele>
        <time>2024-10-13T06:55:57Z</time>
      </trkpt>
      <trkpt lat="49.23363" lon="-0.05664">
        <ele>10.4</ele>
        <time>2024-10-13T06:55:58Z</time>
      </trkpt>
      <trkpt lat="49.23356" lon="-0.05661">
        <ele>10.6</ele>
        <time>2024-10-13T06:55:59Z</time>
      </trkpt>
      <trkpt lat="49.23347" lon="-0.05658">
        <ele>10.6</ele>
        <time>2024-10-13T06:56:00Z</time>
      </trkpt>
      <trkpt lat="49.2334" lon="-0.05659">
        <ele>10.6</ele>
        <time>2024-10-13T06:56:01Z</time>
      </trkpt>
      <trkpt lat="49.23333" lon="-0.05659">
        <ele>10.6</ele>
        <time>2024-10-13T06:56:02Z</time>
      </trkpt>
      <trkpt lat="49.23326" lon="-0.05657">
        <ele>10.6</ele>
        <time>2024-10-13T06:56:03Z</time>
      </trkpt>
      <trkpt lat="49.23321" lon="-0.05654">
        <ele>10.6</ele>
        <time>2024-10-13T06:56:04Z</time>
      </trkpt>
      <trkpt lat="49.23313" lon="-0.05649">
        <ele>10.6</ele>
        <time>2024-10-13T06:56:05Z</time>
      </trkpt>
      <trkpt lat="49.23308" lon="-0.05646">
        <ele>10.6</ele>
        <time>2024-10-13T06:56:06Z</time>
      </trkpt>
      <trkpt lat="49.23302" lon="-0.05641">
        <ele>10.6</ele>
        <time>2024-10-13T06:56:07Z</time>
      </trkpt>
      <trkpt lat="49.23298" lon="-0.05637">
        <ele>10.6</ele>
        <time>2024-10-13T06:56:08Z</time>
      </trkpt>
      <trkpt lat="49.23292" lon="-0.05632">
        <ele>10.6</ele>
        <time>2024-10-13T06:56:09Z</time>
      </trkpt>
      <trkpt lat="49.23289" lon="-0.05628">
        <ele>10.8</ele>
        <time>2024-10-13T06:56:10Z</time>
      </trkpt>
      <trkpt lat="49.23285" lon="-0.05622">
        <ele>10.8</ele>
        <time>2024-10-13T06:56:11Z</time>
      </trkpt>
      <trkpt lat="49.23282" lon="-0.05617">
        <ele>10.8</ele>
        <time>2024-10-13T06:56:12Z</time>
      </trkpt>
      <trkpt lat="49.23279" lon="-0.05611">
        <ele>11</ele>
        <time>2024-10-13T06:56:13Z</time>
      </trkpt>
      <trkpt lat="49.23276" lon="-0.05606">
        <ele>11.4</ele>
        <time>2024-10-13T06:56:14Z</time>
      </trkpt>
      <trkpt lat="49.23273" lon="-0.05598">
        <ele>11.8</ele>
        <time>2024-10-13T06:56:15Z</time>
      </trkpt>
      <trkpt lat="49.23271" lon="-0.05592">
        <ele>12.2</ele>
        <time>2024-10-13T06:56:16Z</time>
      </trkpt>
      <trkpt lat="49.2327" lon="-0.05586">
        <ele>12.6</ele>
        <time>2024-10-13T06:56:17Z</time>
      </trkpt>
      <trkpt lat="49.23268" lon="-0.05578">
        <ele>12.8</ele>
        <time>2024-10-13T06:56:18Z</time>
      </trkpt>
      <trkpt lat="49.23267" lon="-0.05573">
        <ele>13.6</ele>
        <time>2024-10-13T06:56:19Z</time>
      </trkpt>
      <trkpt lat="49.23266" lon="-0.05566">
        <ele>14</ele>
        <time>2024-10-13T06:56:20Z</time>
      </trkpt>
      <trkpt lat="49.23265" lon="-0.0556">
        <ele>14.6</ele>
        <time>2024-10-13T06:56:21Z</time>
      </trkpt>
      <trkpt lat="49.23264" lon="-0.05552">
        <ele>15</ele>
        <time>2024-10-13T06:56:22Z</time>
      </trkpt>
      <trkpt lat="49.23263" lon="-0.05547">
        <ele>15.2</ele>
        <time>2024-10-13T06:56:23Z</time>
      </trkpt>
      <trkpt lat="49.23262" lon="-0.05541">
        <ele>15.6</ele>
        <time>2024-10-13T06:56:24Z</time>
      </trkpt>
      <trkpt lat="49.23261" lon="-0.05534">
        <ele>16</ele>
        <time>2024-10-13T06:56:25Z</time>
      </trkpt>
      <trkpt lat="49.23261" lon="-0.05528">
        <ele>16.4</ele>
        <time>2024-10-13T06:56:26Z</time>
      </trkpt>
      <trkpt lat="49.2326" lon="-0.05521">
        <ele>16.6</ele>
        <time>2024-10-13T06:56:27Z</time>
      </trkpt>
      <trkpt lat="49.23258" lon="-0.05514">
        <ele>17.2</ele>
        <time>2024-10-13T06:56:28Z</time>
      </trkpt>
      <trkpt lat="49.23258" lon="-0.05508">
        <ele>17.6</ele>
        <time>2024-10-13T06:56:29Z</time>
      </trkpt>
      <trkpt lat="49.23257" lon="-0.05502">
        <ele>18</ele>
        <time>2024-10-13T06:56:30Z</time>
      </trkpt>
      <trkpt lat="49.23255" lon="-0.05494">
        <ele>18.4</ele>
        <time>2024-10-13T06:56:31Z</time>
      </trkpt>
      <trkpt lat="49.23254" lon="-0.05488">
        <ele>18.8</ele>
        <time>2024-10-13T06:56:32Z</time>
      </trkpt>
      <trkpt lat="49.23253" lon="-0.05482">
        <ele>19</ele>
        <time>2024-10-13T06:56:33Z</time>
      </trkpt>
      <trkpt lat="49.23252" lon="-0.05474">
        <ele>19.4</ele>
        <time>2024-10-13T06:56:34Z</time>
      </trkpt>
      <trkpt lat="49.2325" lon="-0.05469">
        <ele>19.8</ele>
        <time>2024-10-13T06:56:35Z</time>
      </trkpt>
      <trkpt lat="49.23249" lon="-0.05462">
        <ele>20.2</ele>
        <time>2024-10-13T06:56:36Z</time>
      </trkpt>
      <trkpt lat="49.23248" lon="-0.05456">
        <ele>20.6</ele>
        <time>2024-10-13T06:56:37Z</time>
      </trkpt>
      <trkpt lat="49.23247" lon="-0.05449">
        <ele>20.8</ele>
        <time>2024-10-13T06:56:38Z</time>
      </trkpt>
      <trkpt lat="49.23246" lon="-0.05441">
        <ele>21.2</ele>
        <time>2024-10-13T06:56:39Z</time>
      </trkpt>
      <trkpt lat="49.23245" lon="-0.05435">
        <ele>21.6</ele>
        <time>2024-10-13T06:56:40Z</time>
      </trkpt>
      <trkpt lat="49.23244" lon="-0.05428">
        <ele>22</ele>
        <time>2024-10-13T06:56:41Z</time>
      </trkpt>
      <trkpt lat="49.23244" lon="-0.05421">
        <ele>22.2</ele>
        <time>2024-10-13T06:56:42Z</time>
      </trkpt>
      <trkpt lat="49.23243" lon="-0.05413">
        <ele>22.6</ele>
        <time>2024-10-13T06:56:43Z</time>
      </trkpt>
      <trkpt lat="49.23243" lon="-0.05406">
        <ele>22.8</ele>
        <time>2024-10-13T06:56:44Z</time>
      </trkpt>
      <trkpt lat="49.23243" lon="-0.05397">
        <ele>23.4</ele>
        <time>2024-10-13T06:56:45Z</time>
      </trkpt>
      <trkpt lat="49.23243" lon="-0.05391">
        <ele>23.6</ele>
        <time>2024-10-13T06:56:46Z</time>
      </trkpt>
      <trkpt lat="49.23242" lon="-0.05383">
        <ele>24</ele>
        <time>2024-10-13T06:56:47Z</time>
      </trkpt>
      <trkpt lat="49.23242" lon="-0.05374">
        <ele>24.4</ele>
        <time>2024-10-13T06:56:48Z</time>
      </trkpt>
      <trkpt lat="49.23242" lon="-0.05367">
        <ele>24.6</ele>
        <time>2024-10-13T06:56:49Z</time>
      </trkpt>
      <trkpt lat="49.23241" lon="-0.0536">
        <ele>24.8</ele>
        <time>2024-10-13T06:56:50Z</time>
      </trkpt>
      <trkpt lat="49.23241" lon="-0.05351">
        <ele>25</ele>
        <time>2024-10-13T06:56:51Z</time>
      </trkpt>
      <trkpt lat="49.23241" lon="-0.05344">
        <ele>25.4</ele>
        <time>2024-10-13T06:56:52Z</time>
      </trkpt>
      <trkpt lat="49.23241" lon="-0.05336">
        <ele>25.8</ele>
        <time>2024-10-13T06:56:53Z</time>
      </trkpt>
      <trkpt lat="49.2324" lon="-0.05327">
        <ele>26.2</ele>
        <time>2024-10-13T06:56:54Z</time>
      </trkpt>
      <trkpt lat="49.2324" lon="-0.0532">
        <ele>26.4</ele>
        <time>2024-10-13T06:56:55Z</time>
      </trkpt>
      <trkpt lat="49.2324" lon="-0.05312">
        <ele>26.6</ele>
        <time>2024-10-13T06:56:56Z</time>
      </trkpt>
      <trkpt lat="49.2324" lon="-0.05305">
        <ele>26.8</ele>
        <time>2024-10-13T06:56:57Z</time>
      </trkpt>
      <trkpt lat="49.23239" lon="-0.05297">
        <ele>27</ele>
        <time>2024-10-13T06:56:58Z</time>
      </trkpt>
      <trkpt lat="49.23238" lon="-0.05289">
        <ele>27.2</ele>
        <time>2024-10-13T06:56:59Z</time>
      </trkpt>
      <trkpt lat="49.23237" lon="-0.05279">
        <ele>27.4</ele>
        <time>2024-10-13T06:57:00Z</time>
      </trkpt>
      <trkpt lat="49.23236" lon="-0.05273">
        <ele>27.6</ele>
        <time>2024-10-13T06:57:01Z</time>
      </trkpt>
      <trkpt lat="49.23235" lon="-0.05265">
        <ele>27.8</ele>
        <time>2024-10-13T06:57:02Z</time>
      </trkpt>
      <trkpt lat="49.23234" lon="-0.05258">
        <ele>28</ele>
        <time>2024-10-13T06:57:03Z</time>
      </trkpt>
      <trkpt lat="49.23233" lon="-0.05251">
        <ele>28.2</ele>
        <time>2024-10-13T06:57:04Z</time>
      </trkpt>
      <trkpt lat="49.23231" lon="-0.05244">
        <ele>28.4</ele>
        <time>2024-10-13T06:57:05Z</time>
      </trkpt>
      <trkpt lat="49.23229" lon="-0.05238">
        <ele>28.6</ele>
        <time>2024-10-13T06:57:06Z</time>
      </trkpt>
      <trkpt lat="49.23227" lon="-0.05232">
        <ele>28.8</ele>
        <time>2024-10-13T06:57:07Z</time>
      </trkpt>
      <trkpt lat="49.23224" lon="-0.05229">
        <ele>29.2</ele>
        <time>2024-10-13T06:57:08Z</time>
      </trkpt>
      <trkpt lat="49.23222" lon="-0.05223">
        <ele>29.4</ele>
        <time>2024-10-13T06:57:09Z</time>
      </trkpt>
      <trkpt lat="49.23219" lon="-0.05217">
        <ele>29.4</ele>
        <time>2024-10-13T06:57:10Z</time>
      </trkpt>
      <trkpt lat="49.23216" lon="-0.05212">
        <ele>29.6</ele>
        <time>2024-10-13T06:57:11Z</time>
      </trkpt>
      <trkpt lat="49.23213" lon="-0.05206">
        <ele>29.8</ele>
        <time>2024-10-13T06:57:12Z</time>
      </trkpt>
      <trkpt lat="49.2321" lon="-0.05202">
        <ele>30.2</ele>
        <time>2024-10-13T06:57:13Z</time>
      </trkpt>
      <trkpt lat="49.23208" lon="-0.05197">
        <ele>30.4</ele>
        <time>2024-10-13T06:57:14Z</time>
      </trkpt>
      <trkpt lat="49.23205" lon="-0.05192">
        <ele>30.6</ele>
        <time>2024-10-13T06:57:15Z</time>
      </trkpt>
      <trkpt lat="49.23202" lon="-0.05187">
        <ele>30.8</ele>
        <time>2024-10-13T06:57:16Z</time>
      </trkpt>
      <trkpt lat="49.23199" lon="-0.05182">
        <ele>31.2</ele>
        <time>2024-10-13T06:57:17Z</time>
      </trkpt>
      <trkpt lat="49.23196" lon="-0.05175">
        <ele>31.4</ele>
        <time>2024-10-13T06:57:18Z</time>
      </trkpt>
      <trkpt lat="49.23194" lon="-0.05171">
        <ele>31.8</ele>
        <time>2024-10-13T06:57:19Z</time>
      </trkpt>
      <trkpt lat="49.23191" lon="-0.05164">
        <ele>32</ele>
        <time>2024-10-13T06:57:20Z</time>
      </trkpt>
      <trkpt lat="49.23189" lon="-0.05158">
        <ele>32.4</ele>
        <time>2024-10-13T06:57:21Z</time>
      </trkpt>
      <trkpt lat="49.23189" lon="-0.05151">
        <ele>32.6</ele>
        <time>2024-10-13T06:57:22Z</time>
      </trkpt>
      <trkpt lat="49.23189" lon="-0.05145">
        <ele>32.8</ele>
        <time>2024-10-13T06:57:23Z</time>
      </trkpt>
      <trkpt lat="49.23189" lon="-0.05138">
        <ele>33</ele>
        <time>2024-10-13T06:57:24Z</time>
      </trkpt>
      <trkpt lat="49.2319" lon="-0.0513">
        <ele>33.2</ele>
        <time>2024-10-13T06:57:25Z</time>
      </trkpt>
      <trkpt lat="49.23189" lon="-0.05121">
        <ele>33.2</ele>
        <time>2024-10-13T06:57:26Z</time>
      </trkpt>
      <trkpt lat="49.23189" lon="-0.05115">
        <ele>33.4</ele>
        <time>2024-10-13T06:57:27Z</time>
      </trkpt>
      <trkpt lat="49.23188" lon="-0.05108">
        <ele>33.6</ele>
        <time>2024-10-13T06:57:28Z</time>
      </trkpt>
      <trkpt lat="49.23186" lon="-0.051">
        <ele>33.6</ele>
        <time>2024-10-13T06:57:29Z</time>
      </trkpt>
      <trkpt lat="49.23185" lon="-0.05092">
        <ele>34</ele>
        <time>2024-10-13T06:57:30Z</time>
      </trkpt>
      <trkpt lat="49.23183" lon="-0.05084">
        <ele>34.2</ele>
        <time>2024-10-13T06:57:31Z</time>
      </trkpt>
      <trkpt lat="49.23182" lon="-0.05074">
        <ele>34.4</ele>
        <time>2024-10-13T06:57:32Z</time>
      </trkpt>
      <trkpt lat="49.2318" lon="-0.05068">
        <ele>34.4</ele>
        <time>2024-10-13T06:57:33Z</time>
      </trkpt>
      <trkpt lat="49.23179" lon="-0.0506">
        <ele>34.6</ele>
        <time>2024-10-13T06:57:34Z</time>
      </trkpt>
      <trkpt lat="49.23177" lon="-0.0505">
        <ele>34.6</ele>
        <time>2024-10-13T06:57:35Z</time>
      </trkpt>
      <trkpt lat="49.23175" lon="-0.05043">
        <ele>34.6</ele>
        <time>2024-10-13T06:57:36Z</time>
      </trkpt>
      <trkpt lat="49.23174" lon="-0.05033">
        <ele>34.6</ele>
        <time>2024-10-13T06:57:37Z</time>
      </trkpt>
      <trkpt lat="49.23172" lon="-0.05026">
        <ele>34.6</ele>
        <time>2024-10-13T06:57:38Z</time>
      </trkpt>
      <trkpt lat="49.23171" lon="-0.05018">
        <ele>34.6</ele>
        <time>2024-10-13T06:57:39Z</time>
      </trkpt>
      <trkpt lat="49.23169" lon="-0.05009">
        <ele>34.6</ele>
        <time>2024-10-13T06:57:40Z</time>
      </trkpt>
      <trkpt lat="49.23168" lon="-0.05">
        <ele>34.6</ele>
        <time>2024-10-13T06:57:41Z</time>
      </trkpt>
      <trkpt lat="49.23166" lon="-0.04991">
        <ele>34.6</ele>
        <time>2024-10-13T06:57:42Z</time>
      </trkpt>
      <trkpt lat="49.23164" lon="-0.04981">
        <ele>34.6</ele>
        <time>2024-10-13T06:57:43Z</time>
      </trkpt>
      <trkpt lat="49.23163" lon="-0.04974">
        <ele>34.6</ele>
        <time>2024-10-13T06:57:44Z</time>
      </trkpt>
      <trkpt lat="49.23161" lon="-0.04965">
        <ele>34.4</ele>
        <time>2024-10-13T06:57:45Z</time>
      </trkpt>
      <trkpt lat="49.23159" lon="-0.04957">
        <ele>34.4</ele>
        <time>2024-10-13T06:57:46Z</time>
      </trkpt>
      <trkpt lat="49.23158" lon="-0.04948">
        <ele>34.2</ele>
        <time>2024-10-13T06:57:47Z</time>
      </trkpt>
      <trkpt lat="49.23156" lon="-0.04938">
        <ele>34.2</ele>
        <time>2024-10-13T06:57:48Z</time>
      </trkpt>
      <trkpt lat="49.23154" lon="-0.04929">
        <ele>34.2</ele>
        <time>2024-10-13T06:57:49Z</time>
      </trkpt>
      <trkpt lat="49.23153" lon="-0.04921">
        <ele>34.2</ele>
        <time>2024-10-13T06:57:50Z</time>
      </trkpt>
      <trkpt lat="49.23151" lon="-0.04912">
        <ele>34</ele>
        <time>2024-10-13T06:57:51Z</time>
      </trkpt>
      <trkpt lat="49.23149" lon="-0.04902">
        <ele>34</ele>
        <time>2024-10-13T06:57:52Z</time>
      </trkpt>
      <trkpt lat="49.23147" lon="-0.04896">
        <ele>34</ele>
        <time>2024-10-13T06:57:53Z</time>
      </trkpt>
      <trkpt lat="49.23146" lon="-0.04888">
        <ele>33.8</ele>
        <time>2024-10-13T06:57:54Z</time>
      </trkpt>
      <trkpt lat="49.23145" lon="-0.04878">
        <ele>33.8</ele>
        <time>2024-10-13T06:57:55Z</time>
      </trkpt>
      <trkpt lat="49.23144" lon="-0.04872">
        <ele>33.8</ele>
        <time>2024-10-13T06:57:56Z</time>
      </trkpt>
      <trkpt lat="49.23142" lon="-0.04863">
        <ele>33.6</ele>
        <time>2024-10-13T06:57:57Z</time>
      </trkpt>
      <trkpt lat="49.23142" lon="-0.04855">
        <ele>33.6</ele>
        <time>2024-10-13T06:57:58Z</time>
      </trkpt>
      <trkpt lat="49.23141" lon="-0.04846">
        <ele>33.6</ele>
        <time>2024-10-13T06:57:59Z</time>
      </trkpt>
      <trkpt lat="49.23141" lon="-0.04836">
        <ele>33.6</ele>
        <time>2024-10-13T06:58:00Z</time>
      </trkpt>
      <trkpt lat="49.23141" lon="-0.04824">
        <ele>33.4</ele>
        <time>2024-10-13T06:58:01Z</time>
      </trkpt>
      <trkpt lat="49.23141" lon="-0.04816">
        <ele>33.4</ele>
        <time>2024-10-13T06:58:02Z</time>
      </trkpt>
      <trkpt lat="49.23141" lon="-0.04805">
        <ele>33.4</ele>
        <time>2024-10-13T06:58:03Z</time>
      </trkpt>
      <trkpt lat="49.23142" lon="-0.04794">
        <ele>33.2</ele>
        <time>2024-10-13T06:58:04Z</time>
      </trkpt>
      <trkpt lat="49.23142" lon="-0.04787">
        <ele>33</ele>
        <time>2024-10-13T06:58:05Z</time>
      </trkpt>
      <trkpt lat="49.23142" lon="-0.04779">
        <ele>32.6</ele>
        <time>2024-10-13T06:58:06Z</time>
      </trkpt>
      <trkpt lat="49.23141" lon="-0.04771">
        <ele>32.4</ele>
        <time>2024-10-13T06:58:07Z</time>
      </trkpt>
      <trkpt lat="49.23141" lon="-0.04763">
        <ele>32</ele>
        <time>2024-10-13T06:58:08Z</time>
      </trkpt>
      <trkpt lat="49.23142" lon="-0.04752">
        <ele>31.8</ele>
        <time>2024-10-13T06:58:09Z</time>
      </trkpt>
      <trkpt lat="49.23144" lon="-0.04746">
        <ele>31.2</ele>
        <time>2024-10-13T06:58:10Z</time>
      </trkpt>
      <trkpt lat="49.23146" lon="-0.04739">
        <ele>30.4</ele>
        <time>2024-10-13T06:58:11Z</time>
      </trkpt>
      <trkpt lat="49.23149" lon="-0.04732">
        <ele>29.8</ele>
        <time>2024-10-13T06:58:12Z</time>
      </trkpt>
      <trkpt lat="49.23152" lon="-0.04724">
        <ele>29.2</ele>
        <time>2024-10-13T06:58:13Z</time>
      </trkpt>
      <trkpt lat="49.23155" lon="-0.04716">
        <ele>28.8</ele>
        <time>2024-10-13T06:58:14Z</time>
      </trkpt>
      <trkpt lat="49.23158" lon="-0.04706">
        <ele>28.4</ele>
        <time>2024-10-13T06:58:15Z</time>
      </trkpt>
      <trkpt lat="49.23161" lon="-0.047">
        <ele>28</ele>
        <time>2024-10-13T06:58:16Z</time>
      </trkpt>
      <trkpt lat="49.23164" lon="-0.04692">
        <ele>27.6</ele>
        <time>2024-10-13T06:58:17Z</time>
      </trkpt>
      <trkpt lat="49.23168" lon="-0.04682">
        <ele>27.2</ele>
        <time>2024-10-13T06:58:18Z</time>
      </trkpt>
      <trkpt lat="49.23171" lon="-0.04676">
        <ele>26.8</ele>
        <time>2024-10-13T06:58:19Z</time>
      </trkpt>
      <trkpt lat="49.23174" lon="-0.04666">
        <ele>26.6</ele>
        <time>2024-10-13T06:58:20Z</time>
      </trkpt>
      <trkpt lat="49.23176" lon="-0.0466">
        <ele>26.6</ele>
        <time>2024-10-13T06:58:21Z</time>
      </trkpt>
      <trkpt lat="49.23179" lon="-0.04652">
        <ele>26.4</ele>
        <time>2024-10-13T06:58:22Z</time>
      </trkpt>
      <trkpt lat="49.23182" lon="-0.04641">
        <ele>26.2</ele>
        <time>2024-10-13T06:58:23Z</time>
      </trkpt>
      <trkpt lat="49.23184" lon="-0.04635">
        <ele>26</ele>
        <time>2024-10-13T06:58:24Z</time>
      </trkpt>
      <trkpt lat="49.23186" lon="-0.04626">
        <ele>25.6</ele>
        <time>2024-10-13T06:58:25Z</time>
      </trkpt>
      <trkpt lat="49.23188" lon="-0.04616">
        <ele>25.6</ele>
        <time>2024-10-13T06:58:26Z</time>
      </trkpt>
      <trkpt lat="49.23189" lon="-0.0461">
        <ele>25.4</ele>
        <time>2024-10-13T06:58:27Z</time>
      </trkpt>
      <trkpt lat="49.2319" lon="-0.04601">
        <ele>25.4</ele>
        <time>2024-10-13T06:58:28Z</time>
      </trkpt>
      <trkpt lat="49.23192" lon="-0.04593">
        <ele>25.4</ele>
        <time>2024-10-13T06:58:29Z</time>
      </trkpt>
      <trkpt lat="49.23193" lon="-0.04585">
        <ele>25.4</ele>
        <time>2024-10-13T06:58:30Z</time>
      </trkpt>
      <trkpt lat="49.23195" lon="-0.04577">
        <ele>25.4</ele>
        <time>2024-10-13T06:58:31Z</time>
      </trkpt>
      <trkpt lat="49.23196" lon="-0.04568">
        <ele>25.2</ele>
        <time>2024-10-13T06:58:32Z</time>
      </trkpt>
      <trkpt lat="49.23198" lon="-0.0456">
        <ele>25</ele>
        <time>2024-10-13T06:58:33Z</time>
      </trkpt>
      <trkpt lat="49.232" lon="-0.04552">
        <ele>25</ele>
        <time>2024-10-13T06:58:34Z</time>
      </trkpt>
      <trkpt lat="49.23202" lon="-0.04543">
        <ele>24.8</ele>
        <time>2024-10-13T06:58:35Z</time>
      </trkpt>
      <trkpt lat="49.23204" lon="-0.04534">
        <ele>24.6</ele>
        <time>2024-10-13T06:58:36Z</time>
      </trkpt>
      <trkpt lat="49.23206" lon="-0.04524">
        <ele>24.6</ele>
        <time>2024-10-13T06:58:37Z</time>
      </trkpt>
      <trkpt lat="49.23207" lon="-0.04517">
        <ele>24.4</ele>
        <time>2024-10-13T06:58:38Z</time>
      </trkpt>
      <trkpt lat="49.23209" lon="-0.04509">
        <ele>24.4</ele>
        <time>2024-10-13T06:58:39Z</time>
      </trkpt>
      <trkpt lat="49.23211" lon="-0.04499">
        <ele>24.4</ele>
        <time>2024-10-13T06:58:40Z</time>
      </trkpt>
      <trkpt lat="49.23212" lon="-0.04492">
        <ele>24.2</ele>
        <time>2024-10-13T06:58:41Z</time>
      </trkpt>
      <trkpt lat="49.23214" lon="-0.04484">
        <ele>24.2</ele>
        <time>2024-10-13T06:58:42Z</time>
      </trkpt>
      <trkpt lat="49.23216" lon="-0.04475">
        <ele>24.2</ele>
        <time>2024-10-13T06:58:43Z</time>
      </trkpt>
      <trkpt lat="49.23218" lon="-0.04466">
        <ele>24.2</ele>
        <time>2024-10-13T06:58:44Z</time>
      </trkpt>
      <trkpt lat="49.23219" lon="-0.0446">
        <ele>24</ele>
        <time>2024-10-13T06:58:45Z</time>
      </trkpt>
      <trkpt lat="49.23221" lon="-0.04451">
        <ele>23.8</ele>
        <time>2024-10-13T06:58:46Z</time>
      </trkpt>
      <trkpt lat="49.23223" lon="-0.04445">
        <ele>23.4</ele>
        <time>2024-10-13T06:58:47Z</time>
      </trkpt>
      <trkpt lat="49.23225" lon="-0.04438">
        <ele>23</ele>
        <time>2024-10-13T06:58:48Z</time>
      </trkpt>
      <trkpt lat="49.23227" lon="-0.04431">
        <ele>22.8</ele>
        <time>2024-10-13T06:58:49Z</time>
      </trkpt>
      <trkpt lat="49.23229" lon="-0.04423">
        <ele>22.8</ele>
        <time>2024-10-13T06:58:50Z</time>
      </trkpt>
      <trkpt lat="49.2323" lon="-0.04416">
        <ele>22.8</ele>
        <time>2024-10-13T06:58:51Z</time>
      </trkpt>
      <trkpt lat="49.23232" lon="-0.04408">
        <ele>22.8</ele>
        <time>2024-10-13T06:58:52Z</time>
      </trkpt>
      <trkpt lat="49.23234" lon="-0.04401">
        <ele>22.8</ele>
        <time>2024-10-13T06:58:53Z</time>
      </trkpt>
      <trkpt lat="49.23236" lon="-0.04392">
        <ele>22.8</ele>
        <time>2024-10-13T06:58:54Z</time>
      </trkpt>
      <trkpt lat="49.23237" lon="-0.04386">
        <ele>22.8</ele>
        <time>2024-10-13T06:58:55Z</time>
      </trkpt>
      <trkpt lat="49.23239" lon="-0.04377">
        <ele>22.8</ele>
        <time>2024-10-13T06:58:56Z</time>
      </trkpt>
      <trkpt lat="49.2324" lon="-0.04371">
        <ele>22.8</ele>
        <time>2024-10-13T06:58:57Z</time>
      </trkpt>
      <trkpt lat="49.23242" lon="-0.04364">
        <ele>22.8</ele>
        <time>2024-10-13T06:58:58Z</time>
      </trkpt>
      <trkpt lat="49.23243" lon="-0.04357">
        <ele>22.8</ele>
        <time>2024-10-13T06:58:59Z</time>
      </trkpt>
      <trkpt lat="49.23245" lon="-0.0435">
        <ele>22.8</ele>
        <time>2024-10-13T06:59:00Z</time>
      </trkpt>
      <trkpt lat="49.23247" lon="-0.04344">
        <ele>22.8</ele>
        <time>2024-10-13T06:59:01Z</time>
      </trkpt>
      <trkpt lat="49.23248" lon="-0.04336">
        <ele>22.8</ele>
        <time>2024-10-13T06:59:02Z</time>
      </trkpt>
      <trkpt lat="49.2325" lon="-0.04331">
        <ele>23</ele>
        <time>2024-10-13T06:59:03Z</time>
      </trkpt>
      <trkpt lat="49.23251" lon="-0.04324">
        <ele>23</ele>
        <time>2024-10-13T06:59:04Z</time>
      </trkpt>
      <trkpt lat="49.23252" lon="-0.04316">
        <ele>23.2</ele>
        <time>2024-10-13T06:59:05Z</time>
      </trkpt>
      <trkpt lat="49.23254" lon="-0.04311">
        <ele>23.2</ele>
        <time>2024-10-13T06:59:06Z</time>
      </trkpt>
      <trkpt lat="49.23256" lon="-0.04304">
        <ele>23.4</ele>
        <time>2024-10-13T06:59:07Z</time>
      </trkpt>
      <trkpt lat="49.23257" lon="-0.04296">
        <ele>23.6</ele>
        <time>2024-10-13T06:59:08Z</time>
      </trkpt>
      <trkpt lat="49.23259" lon="-0.0429">
        <ele>23.8</ele>
        <time>2024-10-13T06:59:09Z</time>
      </trkpt>
      <trkpt lat="49.2326" lon="-0.04283">
        <ele>24</ele>
        <time>2024-10-13T06:59:10Z</time>
      </trkpt>
      <trkpt lat="49.23262" lon="-0.04276">
        <ele>24.4</ele>
        <time>2024-10-13T06:59:11Z</time>
      </trkpt>
      <trkpt lat="49.23264" lon="-0.0427">
        <ele>24.6</ele>
        <time>2024-10-13T06:59:12Z</time>
      </trkpt>
      <trkpt lat="49.23266" lon="-0.04263">
        <ele>24.8</ele>
        <time>2024-10-13T06:59:13Z</time>
      </trkpt>
      <trkpt lat="49.23268" lon="-0.04257">
        <ele>24.8</ele>
        <time>2024-10-13T06:59:14Z</time>
      </trkpt>
      <trkpt lat="49.23271" lon="-0.04251">
        <ele>25</ele>
        <time>2024-10-13T06:59:15Z</time>
      </trkpt>
      <trkpt lat="49.23274" lon="-0.04246">
        <ele>25.4</ele>
        <time>2024-10-13T06:59:16Z</time>
      </trkpt>
      <trkpt lat="49.23276" lon="-0.0424">
        <ele>25.6</ele>
        <time>2024-10-13T06:59:17Z</time>
      </trkpt>
      <trkpt lat="49.23279" lon="-0.04234">
        <ele>25.8</ele>
        <time>2024-10-13T06:59:18Z</time>
      </trkpt>
      <trkpt lat="49.23282" lon="-0.04228">
        <ele>26.2</ele>
        <time>2024-10-13T06:59:19Z</time>
      </trkpt>
      <trkpt lat="49.23284" lon="-0.04222">
        <ele>26.4</ele>
        <time>2024-10-13T06:59:20Z</time>
      </trkpt>
      <trkpt lat="49.23287" lon="-0.04216">
        <ele>26.6</ele>
        <time>2024-10-13T06:59:21Z</time>
      </trkpt>
      <trkpt lat="49.2329" lon="-0.0421">
        <ele>26.8</ele>
        <time>2024-10-13T06:59:22Z</time>
      </trkpt>
      <trkpt lat="49.23292" lon="-0.04204">
        <ele>27</ele>
        <time>2024-10-13T06:59:23Z</time>
      </trkpt>
      <trkpt lat="49.23295" lon="-0.04198">
        <ele>27</ele>
        <time>2024-10-13T06:59:24Z</time>
      </trkpt>
      <trkpt lat="49.23298" lon="-0.04193">
        <ele>27</ele>
        <time>2024-10-13T06:59:25Z</time>
      </trkpt>
      <trkpt lat="49.23299" lon="-0.04187">
        <ele>27</ele>
        <time>2024-10-13T06:59:26Z</time>
      </trkpt>
      <trkpt lat="49.23299" lon="-0.04181">
        <ele>27</ele>
        <time>2024-10-13T06:59:27Z</time>
      </trkpt>
      <trkpt lat="49.23298" lon="-0.04174">
        <ele>27</ele>
        <time>2024-10-13T06:59:28Z</time>
      </trkpt>
      <trkpt lat="49.23294" lon="-0.04167">
        <ele>27</ele>
        <time>2024-10-13T06:59:29Z</time>
      </trkpt>
      <trkpt lat="49.23292" lon="-0.04162">
        <ele>27</ele>
        <time>2024-10-13T06:59:30Z</time>
      </trkpt>
      <trkpt lat="49.23288" lon="-0.04156">
        <ele>27</ele>
        <time>2024-10-13T06:59:31Z</time>
      </trkpt>
      <trkpt lat="49.23284" lon="-0.04151">
        <ele>26.6</ele>
        <time>2024-10-13T06:59:32Z</time>
      </trkpt>
      <trkpt lat="49.2328" lon="-0.04146">
        <ele>26.4</ele>
        <time>2024-10-13T06:59:33Z</time>
      </trkpt>
      <trkpt lat="49.23276" lon="-0.04141">
        <ele>26.4</ele>
        <time>2024-10-13T06:59:34Z</time>
      </trkpt>
      <trkpt lat="49.23272" lon="-0.04136">
        <ele>26.4</ele>
        <time>2024-10-13T06:59:35Z</time>
      </trkpt>
      <trkpt lat="49.23268" lon="-0.04131">
        <ele>26.4</ele>
        <time>2024-10-13T06:59:36Z</time>
      </trkpt>
      <trkpt lat="49.23263" lon="-0.04125">
        <ele>26.4</ele>
        <time>2024-10-13T06:59:37Z</time>
      </trkpt>
      <trkpt lat="49.2326" lon="-0.04121">
        <ele>26.4</ele>
        <time>2024-10-13T06:59:38Z</time>
      </trkpt>
      <trkpt lat="49.23256" lon="-0.04116">
        <ele>26.4</ele>
        <time>2024-10-13T06:59:39Z</time>
      </trkpt>
      <trkpt lat="49.23252" lon="-0.04112">
        <ele>26.2</ele>
        <time>2024-10-13T06:59:40Z</time>
      </trkpt>
      <trkpt lat="49.2325" lon="-0.04109">
        <ele>26.2</ele>
        <time>2024-10-13T06:59:41Z</time>
      </trkpt>
      <trkpt lat="49.23246" lon="-0.04105">
        <ele>26.2</ele>
        <time>2024-10-13T06:59:42Z</time>
      </trkpt>
      <trkpt lat="49.23244" lon="-0.04102">
        <ele>26.2</ele>
        <time>2024-10-13T06:59:43Z</time>
      </trkpt>
      <trkpt lat="49.23242" lon="-0.041">
        <ele>26.2</ele>
        <time>2024-10-13T06:59:44Z</time>
      </trkpt>
      <trkpt lat="49.2324" lon="-0.04096">
        <ele>26.2</ele>
        <time>2024-10-13T06:59:45Z</time>
      </trkpt>
      <trkpt lat="49.2324" lon="-0.04093">
        <ele>26.2</ele>
        <time>2024-10-13T06:59:46Z</time>
      </trkpt>
      <trkpt lat="49.2324" lon="-0.04089">
        <ele>26.2</ele>
        <time>2024-10-13T06:59:47Z</time>
      </trkpt>
      <trkpt lat="49.23241" lon="-0.04083">
        <ele>26.2</ele>
        <time>2024-10-13T06:59:48Z</time>
      </trkpt>
      <trkpt lat="49.23243" lon="-0.04079">
        <ele>26.2</ele>
        <time>2024-10-13T06:59:49Z</time>
      </trkpt>
      <trkpt lat="49.23246" lon="-0.04073">
        <ele>26.2</ele>
        <time>2024-10-13T06:59:50Z</time>
      </trkpt>
      <trkpt lat="49.23249" lon="-0.04066">
        <ele>26.2</ele>
        <time>2024-10-13T06:59:51Z</time>
      </trkpt>
      <trkpt lat="49.23252" lon="-0.04061">
        <ele>26.2</ele>
        <time>2024-10-13T06:59:52Z</time>
      </trkpt>
      <trkpt lat="49.23256" lon="-0.04054">
        <ele>26.2</ele>
        <time>2024-10-13T06:59:53Z</time>
      </trkpt>
      <trkpt lat="49.23259" lon="-0.04048">
        <ele>26.2</ele>
        <time>2024-10-13T06:59:54Z</time>
      </trkpt>
      <trkpt lat="49.23263" lon="-0.04041">
        <ele>26.2</ele>
        <time>2024-10-13T06:59:55Z</time>
      </trkpt>
      <trkpt lat="49.23266" lon="-0.04033">
        <ele>26.2</ele>
        <time>2024-10-13T06:59:56Z</time>
      </trkpt>
      <trkpt lat="49.2327" lon="-0.04026">
        <ele>26</ele>
        <time>2024-10-13T06:59:57Z</time>
      </trkpt>
      <trkpt lat="49.23274" lon="-0.04018">
        <ele>25.8</ele>
        <time>2024-10-13T06:59:58Z</time>
      </trkpt>
      <trkpt lat="49.23278" lon="-0.0401">
        <ele>25.4</ele>
        <time>2024-10-13T06:59:59Z</time>
      </trkpt>
      <trkpt lat="49.23282" lon="-0.04">
        <ele>25.2</ele>
        <time>2024-10-13T07:00:00Z</time>
      </trkpt>
      <trkpt lat="49.23286" lon="-0.03992">
        <ele>25</ele>
        <time>2024-10-13T07:00:01Z</time>
      </trkpt>
      <trkpt lat="49.23289" lon="-0.03986">
        <ele>24.6</ele>
        <time>2024-10-13T07:00:02Z</time>
      </trkpt>
      <trkpt lat="49.23294" lon="-0.03976">
        <ele>24.4</ele>
        <time>2024-10-13T07:00:03Z</time>
      </trkpt>
      <trkpt lat="49.23297" lon="-0.03969">
        <ele>24.2</ele>
        <time>2024-10-13T07:00:04Z</time>
      </trkpt>
      <trkpt lat="49.23302" lon="-0.0396">
        <ele>23.8</ele>
        <time>2024-10-13T07:00:05Z</time>
      </trkpt>
      <trkpt lat="49.23306" lon="-0.03952">
        <ele>23.4</ele>
        <time>2024-10-13T07:00:06Z</time>
      </trkpt>
      <trkpt lat="49.23311" lon="-0.03943">
        <ele>23</ele>
        <time>2024-10-13T07:00:07Z</time>
      </trkpt>
      <trkpt lat="49.23315" lon="-0.03935">
        <ele>22.8</ele>
        <time>2024-10-13T07:00:08Z</time>
      </trkpt>
      <trkpt lat="49.2332" lon="-0.03927">
        <ele>22.6</ele>
        <time>2024-10-13T07:00:09Z</time>
      </trkpt>
      <trkpt lat="49.23324" lon="-0.03918">
        <ele>22.4</ele>
        <time>2024-10-13T07:00:10Z</time>
      </trkpt>
      <trkpt lat="49.23329" lon="-0.0391">
        <ele>22.2</ele>
        <time>2024-10-13T07:00:11Z</time>
      </trkpt>
      <trkpt lat="49.23334" lon="-0.03899">
        <ele>22.2</ele>
        <time>2024-10-13T07:00:12Z</time>
      </trkpt>
      <trkpt lat="49.23338" lon="-0.03892">
        <ele>22.2</ele>
        <time>2024-10-13T07:00:13Z</time>
      </trkpt>
      <trkpt lat="49.23342" lon="-0.03884">
        <ele>22</ele>
        <time>2024-10-13T07:00:14Z</time>
      </trkpt>
      <trkpt lat="49.23347" lon="-0.03876">
        <ele>21.6</ele>
        <time>2024-10-13T07:00:15Z</time>
      </trkpt>
      <trkpt lat="49.23351" lon="-0.03868">
        <ele>21.4</ele>
        <time>2024-10-13T07:00:16Z</time>
      </trkpt>
      <trkpt lat="49.23356" lon="-0.0386">
        <ele>21.2</ele>
        <time>2024-10-13T07:00:17Z</time>
      </trkpt>
      <trkpt lat="49.2336" lon="-0.03852">
        <ele>21.2</ele>
        <time>2024-10-13T07:00:18Z</time>
      </trkpt>
      <trkpt lat="49.23364" lon="-0.03844">
        <ele>20.8</ele>
        <time>2024-10-13T07:00:19Z</time>
      </trkpt>
      <trkpt lat="49.23368" lon="-0.03835">
        <ele>20.4</ele>
        <time>2024-10-13T07:00:20Z</time>
      </trkpt>
      <trkpt lat="49.23371" lon="-0.03826">
        <ele>20.2</ele>
        <time>2024-10-13T07:00:21Z</time>
      </trkpt>
      <trkpt lat="49.23375" lon="-0.03817">
        <ele>20</ele>
        <time>2024-10-13T07:00:22Z</time>
      </trkpt>
      <trkpt lat="49.23379" lon="-0.03809">
        <ele>19.8</ele>
        <time>2024-10-13T07:00:23Z</time>
      </trkpt>
      <trkpt lat="49.23384" lon="-0.03801">
        <ele>19.8</ele>
        <time>2024-10-13T07:00:24Z</time>
      </trkpt>
      <trkpt lat="49.23389" lon="-0.03794">
        <ele>19.6</ele>
        <time>2024-10-13T07:00:25Z</time>
      </trkpt>
      <trkpt lat="49.23395" lon="-0.03786">
        <ele>19.6</ele>
        <time>2024-10-13T07:00:26Z</time>
      </trkpt>
      <trkpt lat="49.234" lon="-0.03778">
        <ele>19.4</ele>
        <time>2024-10-13T07:00:27Z</time>
      </trkpt>
      <trkpt lat="49.23405" lon="-0.03769">
        <ele>19.2</ele>
        <time>2024-10-13T07:00:28Z</time>
      </trkpt>
      <trkpt lat="49.23409" lon="-0.0376">
        <ele>19.2</ele>
        <time>2024-10-13T07:00:29Z</time>
      </trkpt>
      <trkpt lat="49.23414" lon="-0.03751">
        <ele>19</ele>
        <time>2024-10-13T07:00:30Z</time>
      </trkpt>
      <trkpt lat="49.23418" lon="-0.03742">
        <ele>18.8</ele>
        <time>2024-10-13T07:00:31Z</time>
      </trkpt>
      <trkpt lat="49.23423" lon="-0.03733">
        <ele>18.6</ele>
        <time>2024-10-13T07:00:32Z</time>
      </trkpt>
      <trkpt lat="49.23427" lon="-0.03724">
        <ele>18.2</ele>
        <time>2024-10-13T07:00:33Z</time>
      </trkpt>
      <trkpt lat="49.23432" lon="-0.03715">
        <ele>18</ele>
        <time>2024-10-13T07:00:34Z</time>
      </trkpt>
      <trkpt lat="49.23437" lon="-0.03706">
        <ele>17.8</ele>
        <time>2024-10-13T07:00:35Z</time>
      </trkpt>
      <trkpt lat="49.23442" lon="-0.03698">
        <ele>17.6</ele>
        <time>2024-10-13T07:00:36Z</time>
      </trkpt>
      <trkpt lat="49.23446" lon="-0.03689">
        <ele>17.6</ele>
        <time>2024-10-13T07:00:37Z</time>
      </trkpt>
      <trkpt lat="49.23451" lon="-0.03681">
        <ele>17.2</ele>
        <time>2024-10-13T07:00:38Z</time>
      </trkpt>
      <trkpt lat="49.23456" lon="-0.03672">
        <ele>17.2</ele>
        <time>2024-10-13T07:00:39Z</time>
      </trkpt>
      <trkpt lat="49.2346" lon="-0.03663">
        <ele>17.2</ele>
        <time>2024-10-13T07:00:40Z</time>
      </trkpt>
      <trkpt lat="49.23465" lon="-0.03655">
        <ele>17</ele>
        <time>2024-10-13T07:00:41Z</time>
      </trkpt>
      <trkpt lat="49.2347" lon="-0.03647">
        <ele>17</ele>
        <time>2024-10-13T07:00:42Z</time>
      </trkpt>
      <trkpt lat="49.23474" lon="-0.03638">
        <ele>17</ele>
        <time>2024-10-13T07:00:43Z</time>
      </trkpt>
      <trkpt lat="49.23479" lon="-0.03629">
        <ele>17</ele>
        <time>2024-10-13T07:00:44Z</time>
      </trkpt>
      <trkpt lat="49.23484" lon="-0.03621">
        <ele>17</ele>
        <time>2024-10-13T07:00:45Z</time>
      </trkpt>
      <trkpt lat="49.23488" lon="-0.03612">
        <ele>17</ele>
        <time>2024-10-13T07:00:46Z</time>
      </trkpt>
      <trkpt lat="49.23492" lon="-0.03604">
        <ele>17</ele>
        <time>2024-10-13T07:00:47Z</time>
      </trkpt>
      <trkpt lat="49.23497" lon="-0.03595">
        <ele>17</ele>
        <time>2024-10-13T07:00:48Z</time>
      </trkpt>
      <trkpt lat="49.23501" lon="-0.03587">
        <ele>17</ele>
        <time>2024-10-13T07:00:49Z</time>
      </trkpt>
      <trkpt lat="49.23506" lon="-0.03579">
        <ele>17.2</ele>
        <time>2024-10-13T07:00:50Z</time>
      </trkpt>
      <trkpt lat="49.2351" lon="-0.03571">
        <ele>17.4</ele>
        <time>2024-10-13T07:00:51Z</time>
      </trkpt>
      <trkpt lat="49.23515" lon="-0.03563">
        <ele>17.4</ele>
        <time>2024-10-13T07:00:52Z</time>
      </trkpt>
      <trkpt lat="49.23519" lon="-0.03555">
        <ele>17.6</ele>
        <time>2024-10-13T07:00:53Z</time>
      </trkpt>
      <trkpt lat="49.23523" lon="-0.03547">
        <ele>17.6</ele>
        <time>2024-10-13T07:00:54Z</time>
      </trkpt>
      <trkpt lat="49.23527" lon="-0.03539">
        <ele>17.6</ele>
        <time>2024-10-13T07:00:55Z</time>
      </trkpt>
      <trkpt lat="49.23531" lon="-0.03532">
        <ele>17.8</ele>
        <time>2024-10-13T07:00:56Z</time>
      </trkpt>
      <trkpt lat="49.23535" lon="-0.03525">
        <ele>17.8</ele>
        <time>2024-10-13T07:00:57Z</time>
      </trkpt>
      <trkpt lat="49.23539" lon="-0.03518">
        <ele>18</ele>
        <time>2024-10-13T07:00:58Z</time>
      </trkpt>
      <trkpt lat="49.23542" lon="-0.03511">
        <ele>18.2</ele>
        <time>2024-10-13T07:00:59Z</time>
      </trkpt>
      <trkpt lat="49.23546" lon="-0.03504">
        <ele>18.4</ele>
        <time>2024-10-13T07:01:00Z</time>
      </trkpt>
      <trkpt lat="49.2355" lon="-0.03498">
        <ele>18.8</ele>
        <time>2024-10-13T07:01:01Z</time>
      </trkpt>
      <trkpt lat="49.23553" lon="-0.03492">
        <ele>19</ele>
        <time>2024-10-13T07:01:02Z</time>
      </trkpt>
      <trkpt lat="49.23557" lon="-0.03486">
        <ele>19.2</ele>
        <time>2024-10-13T07:01:03Z</time>
      </trkpt>
      <trkpt lat="49.2356" lon="-0.03479">
        <ele>19.6</ele>
        <time>2024-10-13T07:01:04Z</time>
      </trkpt>
      <trkpt lat="49.23564" lon="-0.03473">
        <ele>19.8</ele>
        <time>2024-10-13T07:01:05Z</time>
      </trkpt>
      <trkpt lat="49.23567" lon="-0.03466">
        <ele>20.2</ele>
        <time>2024-10-13T07:01:06Z</time>
      </trkpt>
      <trkpt lat="49.2357" lon="-0.0346">
        <ele>20.6</ele>
        <time>2024-10-13T07:01:07Z</time>
      </trkpt>
      <trkpt lat="49.23573" lon="-0.03455">
        <ele>20.8</ele>
        <time>2024-10-13T07:01:08Z</time>
      </trkpt>
      <trkpt lat="49.23577" lon="-0.03449">
        <ele>21.2</ele>
        <time>2024-10-13T07:01:09Z</time>
      </trkpt>
      <trkpt lat="49.2358" lon="-0.03444">
        <ele>21.4</ele>
        <time>2024-10-13T07:01:10Z</time>
      </trkpt>
      <trkpt lat="49.23583" lon="-0.03438">
        <ele>22</ele>
        <time>2024-10-13T07:01:11Z</time>
      </trkpt>
      <trkpt lat="49.23586" lon="-0.03432">
        <ele>22.2</ele>
        <time>2024-10-13T07:01:12Z</time>
      </trkpt>
      <trkpt lat="49.23589" lon="-0.03426">
        <ele>22.8</ele>
        <time>2024-10-13T07:01:13Z</time>
      </trkpt>
      <trkpt lat="49.23592" lon="-0.03421">
        <ele>23.2</ele>
        <time>2024-10-13T07:01:14Z</time>
      </trkpt>
      <trkpt lat="49.23595" lon="-0.03416">
        <ele>23.6</ele>
        <time>2024-10-13T07:01:15Z</time>
      </trkpt>
      <trkpt lat="49.23598" lon="-0.03411">
        <ele>23.8</ele>
        <time>2024-10-13T07:01:16Z</time>
      </trkpt>
      <trkpt lat="49.23601" lon="-0.03406">
        <ele>24.4</ele>
        <time>2024-10-13T07:01:17Z</time>
      </trkpt>
      <trkpt lat="49.23603" lon="-0.03401">
        <ele>24.8</ele>
        <time>2024-10-13T07:01:18Z</time>
      </trkpt>
      <trkpt lat="49.23606" lon="-0.03396">
        <ele>25</ele>
        <time>2024-10-13T07:01:19Z</time>
      </trkpt>
      <trkpt lat="49.23609" lon="-0.0339">
        <ele>25.4</ele>
        <time>2024-10-13T07:01:20Z</time>
      </trkpt>
      <trkpt lat="49.23612" lon="-0.03385">
        <ele>26.2</ele>
        <time>2024-10-13T07:01:21Z</time>
      </trkpt>
      <trkpt lat="49.23615" lon="-0.03379">
        <ele>26.8</ele>
        <time>2024-10-13T07:01:22Z</time>
      </trkpt>
      <trkpt lat="49.23617" lon="-0.03374">
        <ele>27.2</ele>
        <time>2024-10-13T07:01:23Z</time>
      </trkpt>
      <trkpt lat="49.2362" lon="-0.03368">
        <ele>27.6</ele>
        <time>2024-10-13T07:01:24Z</time>
      </trkpt>
      <trkpt lat="49.23623" lon="-0.03363">
        <ele>28</ele>
        <time>2024-10-13T07:01:25Z</time>
      </trkpt>
      <trkpt lat="49.23626" lon="-0.03357">
        <ele>28.4</ele>
        <time>2024-10-13T07:01:26Z</time>
      </trkpt>
      <trkpt lat="49.23628" lon="-0.03352">
        <ele>28.8</ele>
        <time>2024-10-13T07:01:27Z</time>
      </trkpt>
      <trkpt lat="49.23632" lon="-0.03345">
        <ele>29.2</ele>
        <time>2024-10-13T07:01:28Z</time>
      </trkpt>
      <trkpt lat="49.23635" lon="-0.03341">
        <ele>29.8</ele>
        <time>2024-10-13T07:01:29Z</time>
      </trkpt>
      <trkpt lat="49.23637" lon="-0.03335">
        <ele>30.2</ele>
        <time>2024-10-13T07:01:30Z</time>
      </trkpt>
      <trkpt lat="49.2364" lon="-0.0333">
        <ele>30.6</ele>
        <time>2024-10-13T07:01:31Z</time>
      </trkpt>
      <trkpt lat="49.23642" lon="-0.03324">
        <ele>31</ele>
        <time>2024-10-13T07:01:32Z</time>
      </trkpt>
      <trkpt lat="49.23645" lon="-0.03318">
        <ele>31.2</ele>
        <time>2024-10-13T07:01:33Z</time>
      </trkpt>
      <trkpt lat="49.23648" lon="-0.03311">
        <ele>31.6</ele>
        <time>2024-10-13T07:01:34Z</time>
      </trkpt>
      <trkpt lat="49.23649" lon="-0.03306">
        <ele>32</ele>
        <time>2024-10-13T07:01:35Z</time>
      </trkpt>
      <trkpt lat="49.23652" lon="-0.03299">
        <ele>32.2</ele>
        <time>2024-10-13T07:01:36Z</time>
      </trkpt>
      <trkpt lat="49.23655" lon="-0.03292">
        <ele>32.6</ele>
        <time>2024-10-13T07:01:37Z</time>
      </trkpt>
      <trkpt lat="49.23657" lon="-0.03287">
        <ele>33</ele>
        <time>2024-10-13T07:01:38Z</time>
      </trkpt>
      <trkpt lat="49.2366" lon="-0.03281">
        <ele>33.2</ele>
        <time>2024-10-13T07:01:39Z</time>
      </trkpt>
      <trkpt lat="49.23663" lon="-0.03273">
        <ele>33.4</ele>
        <time>2024-10-13T07:01:40Z</time>
      </trkpt>
      <trkpt lat="49.23665" lon="-0.03268">
        <ele>33.8</ele>
        <time>2024-10-13T07:01:41Z</time>
      </trkpt>
      <trkpt lat="49.23667" lon="-0.03261">
        <ele>34</ele>
        <time>2024-10-13T07:01:42Z</time>
      </trkpt>
      <trkpt lat="49.23669" lon="-0.03255">
        <ele>34.4</ele>
        <time>2024-10-13T07:01:43Z</time>
      </trkpt>
      <trkpt lat="49.23672" lon="-0.03248">
        <ele>34.6</ele>
        <time>2024-10-13T07:01:44Z</time>
      </trkpt>
      <trkpt lat="49.23674" lon="-0.03242">
        <ele>34.8</ele>
        <time>2024-10-13T07:01:45Z</time>
      </trkpt>
      <trkpt lat="49.23676" lon="-0.03234">
        <ele>35</ele>
        <time>2024-10-13T07:01:46Z</time>
      </trkpt>
      <trkpt lat="49.23679" lon="-0.03227">
        <ele>35.2</ele>
        <time>2024-10-13T07:01:47Z</time>
      </trkpt>
      <trkpt lat="49.23682" lon="-0.0322">
        <ele>35.4</ele>
        <time>2024-10-13T07:01:48Z</time>
      </trkpt>
      <trkpt lat="49.23685" lon="-0.03213">
        <ele>35.6</ele>
        <time>2024-10-13T07:01:49Z</time>
      </trkpt>
      <trkpt lat="49.23687" lon="-0.03206">
        <ele>35.8</ele>
        <time>2024-10-13T07:01:50Z</time>
      </trkpt>
      <trkpt lat="49.23689" lon="-0.03199">
        <ele>36</ele>
        <time>2024-10-13T07:01:51Z</time>
      </trkpt>
      <trkpt lat="49.23692" lon="-0.03191">
        <ele>36.4</ele>
        <time>2024-10-13T07:01:52Z</time>
      </trkpt>
      <trkpt lat="49.23694" lon="-0.03184">
        <ele>36.6</ele>
        <time>2024-10-13T07:01:53Z</time>
      </trkpt>
      <trkpt lat="49.23696" lon="-0.03176">
        <ele>36.6</ele>
        <time>2024-10-13T07:01:54Z</time>
      </trkpt>
      <trkpt lat="49.23699" lon="-0.03169">
        <ele>36.8</ele>
        <time>2024-10-13T07:01:55Z</time>
      </trkpt>
      <trkpt lat="49.23702" lon="-0.03162">
        <ele>36.8</ele>
        <time>2024-10-13T07:01:56Z</time>
      </trkpt>
      <trkpt lat="49.23704" lon="-0.03155">
        <ele>37</ele>
        <time>2024-10-13T07:01:57Z</time>
      </trkpt>
      <trkpt lat="49.23707" lon="-0.03147">
        <ele>37</ele>
        <time>2024-10-13T07:01:58Z</time>
      </trkpt>
      <trkpt lat="49.2371" lon="-0.03139">
        <ele>37.2</ele>
        <time>2024-10-13T07:01:59Z</time>
      </trkpt>
      <trkpt lat="49.23712" lon="-0.0313">
        <ele>37.2</ele>
        <time>2024-10-13T07:02:00Z</time>
      </trkpt>
      <trkpt lat="49.23715" lon="-0.03122">
        <ele>37.4</ele>
        <time>2024-10-13T07:02:01Z</time>
      </trkpt>
      <trkpt lat="49.23718" lon="-0.03114">
        <ele>37.4</ele>
        <time>2024-10-13T07:02:02Z</time>
      </trkpt>
      <trkpt lat="49.23721" lon="-0.03105">
        <ele>37.4</ele>
        <time>2024-10-13T07:02:03Z</time>
      </trkpt>
      <trkpt lat="49.23724" lon="-0.03097">
        <ele>37.4</ele>
        <time>2024-10-13T07:02:04Z</time>
      </trkpt>
      <trkpt lat="49.23727" lon="-0.03089">
        <ele>37.4</ele>
        <time>2024-10-13T07:02:05Z</time>
      </trkpt>
      <trkpt lat="49.2373" lon="-0.0308">
        <ele>37.4</ele>
        <time>2024-10-13T07:02:06Z</time>
      </trkpt>
      <trkpt lat="49.23733" lon="-0.03071">
        <ele>37.4</ele>
        <time>2024-10-13T07:02:07Z</time>
      </trkpt>
      <trkpt lat="49.23736" lon="-0.03063">
        <ele>37.4</ele>
        <time>2024-10-13T07:02:08Z</time>
      </trkpt>
      <trkpt lat="49.2374" lon="-0.03052">
        <ele>37.4</ele>
        <time>2024-10-13T07:02:09Z</time>
      </trkpt>
      <trkpt lat="49.23742" lon="-0.03044">
        <ele>37.4</ele>
        <time>2024-10-13T07:02:10Z</time>
      </trkpt>
      <trkpt lat="49.23746" lon="-0.03035">
        <ele>37.2</ele>
        <time>2024-10-13T07:02:11Z</time>
      </trkpt>
      <trkpt lat="49.23749" lon="-0.03025">
        <ele>37</ele>
        <time>2024-10-13T07:02:12Z</time>
      </trkpt>
      <trkpt lat="49.23752" lon="-0.03016">
        <ele>36.8</ele>
        <time>2024-10-13T07:02:13Z</time>
      </trkpt>
      <trkpt lat="49.23755" lon="-0.03006">
        <ele>36.6</ele>
        <time>2024-10-13T07:02:14Z</time>
      </trkpt>
      <trkpt lat="49.23759" lon="-0.02997">
        <ele>36.6</ele>
        <time>2024-10-13T07:02:15Z</time>
      </trkpt>
      <trkpt lat="49.23762" lon="-0.02988">
        <ele>36.4</ele>
        <time>2024-10-13T07:02:16Z</time>
      </trkpt>
      <trkpt lat="49.23765" lon="-0.02978">
        <ele>36.2</ele>
        <time>2024-10-13T07:02:17Z</time>
      </trkpt>
      <trkpt lat="49.23769" lon="-0.02969">
        <ele>36</ele>
        <time>2024-10-13T07:02:18Z</time>
      </trkpt>
      <trkpt lat="49.23772" lon="-0.0296">
        <ele>36</ele>
        <time>2024-10-13T07:02:19Z</time>
      </trkpt>
      <trkpt lat="49.23775" lon="-0.02951">
        <ele>36</ele>
        <time>2024-10-13T07:02:20Z</time>
      </trkpt>
      <trkpt lat="49.23778" lon="-0.02941">
        <ele>35.8</ele>
        <time>2024-10-13T07:02:21Z</time>
      </trkpt>
      <trkpt lat="49.23781" lon="-0.02931">
        <ele>35.6</ele>
        <time>2024-10-13T07:02:22Z</time>
      </trkpt>
      <trkpt lat="49.23785" lon="-0.02921">
        <ele>35.6</ele>
        <time>2024-10-13T07:02:23Z</time>
      </trkpt>
      <trkpt lat="49.23789" lon="-0.02911">
        <ele>35.6</ele>
        <time>2024-10-13T07:02:24Z</time>
      </trkpt>
      <trkpt lat="49.23792" lon="-0.02901">
        <ele>35.4</ele>
        <time>2024-10-13T07:02:25Z</time>
      </trkpt>
      <trkpt lat="49.23796" lon="-0.02891">
        <ele>35</ele>
        <time>2024-10-13T07:02:26Z</time>
      </trkpt>
      <trkpt lat="49.23799" lon="-0.02881">
        <ele>34.8</ele>
        <time>2024-10-13T07:02:27Z</time>
      </trkpt>
      <trkpt lat="49.23803" lon="-0.02871">
        <ele>34.6</ele>
        <time>2024-10-13T07:02:28Z</time>
      </trkpt>
      <trkpt lat="49.23806" lon="-0.02861">
        <ele>34.4</ele>
        <time>2024-10-13T07:02:29Z</time>
      </trkpt>
      <trkpt lat="49.2381" lon="-0.0285">
        <ele>34</ele>
        <time>2024-10-13T07:02:30Z</time>
      </trkpt>
      <trkpt lat="49.23814" lon="-0.0284">
        <ele>33.8</ele>
        <time>2024-10-13T07:02:31Z</time>
      </trkpt>
      <trkpt lat="49.23817" lon="-0.0283">
        <ele>33.6</ele>
        <time>2024-10-13T07:02:32Z</time>
      </trkpt>
      <trkpt lat="49.23821" lon="-0.0282">
        <ele>33.4</ele>
        <time>2024-10-13T07:02:33Z</time>
      </trkpt>
      <trkpt lat="49.23825" lon="-0.0281">
        <ele>33.2</ele>
        <time>2024-10-13T07:02:34Z</time>
      </trkpt>
      <trkpt lat="49.23828" lon="-0.028">
        <ele>33</ele>
        <time>2024-10-13T07:02:35Z</time>
      </trkpt>
      <trkpt lat="49.23832" lon="-0.02789">
        <ele>32.8</ele>
        <time>2024-10-13T07:02:36Z</time>
      </trkpt>
      <trkpt lat="49.23835" lon="-0.02779">
        <ele>32.6</ele>
        <time>2024-10-13T07:02:37Z</time>
      </trkpt>
      <trkpt lat="49.23839" lon="-0.02768">
        <ele>32.6</ele>
        <time>2024-10-13T07:02:38Z</time>
      </trkpt>
      <trkpt lat="49.23843" lon="-0.02758">
        <ele>32.2</ele>
        <time>2024-10-13T07:02:39Z</time>
      </trkpt>
      <trkpt lat="49.23847" lon="-0.02747">
        <ele>32</ele>
        <time>2024-10-13T07:02:40Z</time>
      </trkpt>
      <trkpt lat="49.2385" lon="-0.02737">
        <ele>31.8</ele>
        <time>2024-10-13T07:02:41Z</time>
      </trkpt>
      <trkpt lat="49.23854" lon="-0.02726">
        <ele>31.6</ele>
        <time>2024-10-13T07:02:42Z</time>
      </trkpt>
      <trkpt lat="49.23858" lon="-0.02716">
        <ele>31.2</ele>
        <time>2024-10-13T07:02:43Z</time>
      </trkpt>
      <trkpt lat="49.23861" lon="-0.02705">
        <ele>30.8</ele>
        <time>2024-10-13T07:02:44Z</time>
      </trkpt>
      <trkpt lat="49.23864" lon="-0.02695">
        <ele>30.8</ele>
        <time>2024-10-13T07:02:45Z</time>
      </trkpt>
      <trkpt lat="49.23868" lon="-0.02684">
        <ele>30.6</ele>
        <time>2024-10-13T07:02:46Z</time>
      </trkpt>
      <trkpt lat="49.23871" lon="-0.02674">
        <ele>30.6</ele>
        <time>2024-10-13T07:02:47Z</time>
      </trkpt>
      <trkpt lat="49.23875" lon="-0.02664">
        <ele>30.4</ele>
        <time>2024-10-13T07:02:48Z</time>
      </trkpt>
      <trkpt lat="49.23879" lon="-0.02653">
        <ele>30.4</ele>
        <time>2024-10-13T07:02:49Z</time>
      </trkpt>
      <trkpt lat="49.23883" lon="-0.02643">
        <ele>30.2</ele>
        <time>2024-10-13T07:02:50Z</time>
      </trkpt>
      <trkpt lat="49.23886" lon="-0.02633">
        <ele>30.2</ele>
        <time>2024-10-13T07:02:51Z</time>
      </trkpt>
      <trkpt lat="49.2389" lon="-0.02623">
        <ele>30</ele>
        <time>2024-10-13T07:02:52Z</time>
      </trkpt>
      <trkpt lat="49.23893" lon="-0.02613">
        <ele>29.8</ele>
        <time>2024-10-13T07:02:53Z</time>
      </trkpt>
      <trkpt lat="49.23897" lon="-0.02603">
        <ele>29.6</ele>
        <time>2024-10-13T07:02:54Z</time>
      </trkpt>
      <trkpt lat="49.239" lon="-0.02592">
        <ele>29.4</ele>
        <time>2024-10-13T07:02:55Z</time>
      </trkpt>
      <trkpt lat="49.23904" lon="-0.02582">
        <ele>29.2</ele>
        <time>2024-10-13T07:02:56Z</time>
      </trkpt>
      <trkpt lat="49.23907" lon="-0.02572">
        <ele>29</ele>
        <time>2024-10-13T07:02:57Z</time>
      </trkpt>
      <trkpt lat="49.23911" lon="-0.02561">
        <ele>28.8</ele>
        <time>2024-10-13T07:02:58Z</time>
      </trkpt>
      <trkpt lat="49.23915" lon="-0.02549">
        <ele>28.6</ele>
        <time>2024-10-13T07:02:59Z</time>
      </trkpt>
      <trkpt lat="49.23918" lon="-0.02541">
        <ele>28.6</ele>
        <time>2024-10-13T07:03:00Z</time>
      </trkpt>
      <trkpt lat="49.23921" lon="-0.0253">
        <ele>28.4</ele>
        <time>2024-10-13T07:03:01Z</time>
      </trkpt>
      <trkpt lat="49.23925" lon="-0.0252">
        <ele>28.4</ele>
        <time>2024-10-13T07:03:02Z</time>
      </trkpt>
      <trkpt lat="49.23928" lon="-0.02509">
        <ele>28</ele>
        <time>2024-10-13T07:03:03Z</time>
      </trkpt>
      <trkpt lat="49.23932" lon="-0.02499">
        <ele>27.8</ele>
        <time>2024-10-13T07:03:04Z</time>
      </trkpt>
      <trkpt lat="49.23936" lon="-0.02489">
        <ele>27.4</ele>
        <time>2024-10-13T07:03:05Z</time>
      </trkpt>
      <trkpt lat="49.23939" lon="-0.02478">
        <ele>27.4</ele>
        <time>2024-10-13T07:03:06Z</time>
      </trkpt>
      <trkpt lat="49.23943" lon="-0.02467">
        <ele>27</ele>
        <time>2024-10-13T07:03:07Z</time>
      </trkpt>
      <trkpt lat="49.23947" lon="-0.02457">
        <ele>26.8</ele>
        <time>2024-10-13T07:03:08Z</time>
      </trkpt>
      <trkpt lat="49.23951" lon="-0.02447">
        <ele>26.4</ele>
        <time>2024-10-13T07:03:09Z</time>
      </trkpt>
      <trkpt lat="49.23954" lon="-0.02436">
        <ele>26.2</ele>
        <time>2024-10-13T07:03:10Z</time>
      </trkpt>
      <trkpt lat="49.23958" lon="-0.02426">
        <ele>26</ele>
        <time>2024-10-13T07:03:11Z</time>
      </trkpt>
      <trkpt lat="49.23962" lon="-0.02416">
        <ele>26</ele>
        <time>2024-10-13T07:03:12Z</time>
      </trkpt>
      <trkpt lat="49.23965" lon="-0.02405">
        <ele>26</ele>
        <time>2024-10-13T07:03:13Z</time>
      </trkpt>
      <trkpt lat="49.23969" lon="-0.02395">
        <ele>26</ele>
        <time>2024-10-13T07:03:14Z</time>
      </trkpt>
      <trkpt lat="49.23972" lon="-0.02385">
        <ele>25.8</ele>
        <time>2024-10-13T07:03:15Z</time>
      </trkpt>
      <trkpt lat="49.23976" lon="-0.02374">
        <ele>25.8</ele>
        <time>2024-10-13T07:03:16Z</time>
      </trkpt>
      <trkpt lat="49.23979" lon="-0.02364">
        <ele>25.8</ele>
        <time>2024-10-13T07:03:17Z</time>
      </trkpt>
      <trkpt lat="49.23983" lon="-0.02354">
        <ele>25.8</ele>
        <time>2024-10-13T07:03:18Z</time>
      </trkpt>
      <trkpt lat="49.23986" lon="-0.02344">
        <ele>25.8</ele>
        <time>2024-10-13T07:03:19Z</time>
      </trkpt>
      <trkpt lat="49.2399" lon="-0.02334">
        <ele>25.6</ele>
        <time>2024-10-13T07:03:20Z</time>
      </trkpt>
      <trkpt lat="49.23994" lon="-0.02324">
        <ele>25.4</ele>
        <time>2024-10-13T07:03:21Z</time>
      </trkpt>
      <trkpt lat="49.23997" lon="-0.02314">
        <ele>25.4</ele>
        <time>2024-10-13T07:03:22Z</time>
      </trkpt>
      <trkpt lat="49.24001" lon="-0.02304">
        <ele>25.4</ele>
        <time>2024-10-13T07:03:23Z</time>
      </trkpt>
      <trkpt lat="49.24004" lon="-0.02294">
        <ele>25.4</ele>
        <time>2024-10-13T07:03:24Z</time>
      </trkpt>
      <trkpt lat="49.24008" lon="-0.02284">
        <ele>25.2</ele>
        <time>2024-10-13T07:03:25Z</time>
      </trkpt>
      <trkpt lat="49.24011" lon="-0.02273">
        <ele>25.2</ele>
        <time>2024-10-13T07:03:26Z</time>
      </trkpt>
      <trkpt lat="49.24016" lon="-0.02261">
        <ele>25.2</ele>
        <time>2024-10-13T07:03:27Z</time>
      </trkpt>
      <trkpt lat="49.24018" lon="-0.02253">
        <ele>25.2</ele>
        <time>2024-10-13T07:03:28Z</time>
      </trkpt>
      <trkpt lat="49.24022" lon="-0.02243">
        <ele>25.2</ele>
        <time>2024-10-13T07:03:29Z</time>
      </trkpt>
      <trkpt lat="49.24026" lon="-0.02233">
        <ele>25.2</ele>
        <time>2024-10-13T07:03:30Z</time>
      </trkpt>
      <trkpt lat="49.2403" lon="-0.02223">
        <ele>25.2</ele>
        <time>2024-10-13T07:03:31Z</time>
      </trkpt>
      <trkpt lat="49.24033" lon="-0.02212">
        <ele>25.2</ele>
        <time>2024-10-13T07:03:32Z</time>
      </trkpt>
      <trkpt lat="49.24037" lon="-0.02202">
        <ele>25</ele>
        <time>2024-10-13T07:03:33Z</time>
      </trkpt>
      <trkpt lat="49.2404" lon="-0.02193">
        <ele>25</ele>
        <time>2024-10-13T07:03:34Z</time>
      </trkpt>
      <trkpt lat="49.24044" lon="-0.02183">
        <ele>25</ele>
        <time>2024-10-13T07:03:35Z</time>
      </trkpt>
      <trkpt lat="49.24048" lon="-0.02171">
        <ele>25</ele>
        <time>2024-10-13T07:03:36Z</time>
      </trkpt>
      <trkpt lat="49.24051" lon="-0.02163">
        <ele>25</ele>
        <time>2024-10-13T07:03:37Z</time>
      </trkpt>
      <trkpt lat="49.24054" lon="-0.02153">
        <ele>25</ele>
        <time>2024-10-13T07:03:38Z</time>
      </trkpt>
      <trkpt lat="49.24057" lon="-0.02144">
        <ele>25</ele>
        <time>2024-10-13T07:03:39Z</time>
      </trkpt>
      <trkpt lat="49.24061" lon="-0.02132">
        <ele>25</ele>
        <time>2024-10-13T07:03:40Z</time>
      </trkpt>
      <trkpt lat="49.24064" lon="-0.02124">
        <ele>25</ele>
        <time>2024-10-13T07:03:41Z</time>
      </trkpt>
      <trkpt lat="49.24067" lon="-0.02114">
        <ele>25</ele>
        <time>2024-10-13T07:03:42Z</time>
      </trkpt>
      <trkpt lat="49.24071" lon="-0.02105">
        <ele>25</ele>
        <time>2024-10-13T07:03:43Z</time>
      </trkpt>
      <trkpt lat="49.24074" lon="-0.02095">
        <ele>25</ele>
        <time>2024-10-13T07:03:44Z</time>
      </trkpt>
      <trkpt lat="49.24078" lon="-0.02084">
        <ele>25</ele>
        <time>2024-10-13T07:03:45Z</time>
      </trkpt>
      <trkpt lat="49.24081" lon="-0.02076">
        <ele>25</ele>
        <time>2024-10-13T07:03:46Z</time>
      </trkpt>
      <trkpt lat="49.24084" lon="-0.02067">
        <ele>25</ele>
        <time>2024-10-13T07:03:47Z</time>
      </trkpt>
      <trkpt lat="49.24087" lon="-0.02058">
        <ele>25.2</ele>
        <time>2024-10-13T07:03:48Z</time>
      </trkpt>
      <trkpt lat="49.24091" lon="-0.02048">
        <ele>25.4</ele>
        <time>2024-10-13T07:03:49Z</time>
      </trkpt>
      <trkpt lat="49.24094" lon="-0.02039">
        <ele>25.6</ele>
        <time>2024-10-13T07:03:50Z</time>
      </trkpt>
      <trkpt lat="49.24097" lon="-0.02029">
        <ele>25.8</ele>
        <time>2024-10-13T07:03:51Z</time>
      </trkpt>
      <trkpt lat="49.24101" lon="-0.0202">
        <ele>25.8</ele>
        <time>2024-10-13T07:03:52Z</time>
      </trkpt>
      <trkpt lat="49.24104" lon="-0.0201">
        <ele>26</ele>
        <time>2024-10-13T07:03:53Z</time>
      </trkpt>
      <trkpt lat="49.24108" lon="-0.01999">
        <ele>26.2</ele>
        <time>2024-10-13T07:03:54Z</time>
      </trkpt>
      <trkpt lat="49.24111" lon="-0.01992">
        <ele>26.4</ele>
        <time>2024-10-13T07:03:55Z</time>
      </trkpt>
      <trkpt lat="49.24114" lon="-0.01982">
        <ele>26.6</ele>
        <time>2024-10-13T07:03:56Z</time>
      </trkpt>
      <trkpt lat="49.24117" lon="-0.01973">
        <ele>26.8</ele>
        <time>2024-10-13T07:03:57Z</time>
      </trkpt>
      <trkpt lat="49.2412" lon="-0.01963">
        <ele>27</ele>
        <time>2024-10-13T07:03:58Z</time>
      </trkpt>
      <trkpt lat="49.24123" lon="-0.01953">
        <ele>27.2</ele>
        <time>2024-10-13T07:03:59Z</time>
      </trkpt>
      <trkpt lat="49.24127" lon="-0.01942">
        <ele>27.2</ele>
        <time>2024-10-13T07:04:00Z</time>
      </trkpt>
      <trkpt lat="49.2413" lon="-0.01934">
        <ele>27.2</ele>
        <time>2024-10-13T07:04:01Z</time>
      </trkpt>
      <trkpt lat="49.24133" lon="-0.01924">
        <ele>27.4</ele>
        <time>2024-10-13T07:04:02Z</time>
      </trkpt>
      <trkpt lat="49.24136" lon="-0.01915">
        <ele>27.6</ele>
        <time>2024-10-13T07:04:03Z</time>
      </trkpt>
      <trkpt lat="49.2414" lon="-0.01906">
        <ele>27.6</ele>
        <time>2024-10-13T07:04:04Z</time>
      </trkpt>
      <trkpt lat="49.24143" lon="-0.01896">
        <ele>27.8</ele>
        <time>2024-10-13T07:04:05Z</time>
      </trkpt>
      <trkpt lat="49.24146" lon="-0.01887">
        <ele>27.8</ele>
        <time>2024-10-13T07:04:06Z</time>
      </trkpt>
      <trkpt lat="49.24149" lon="-0.01878">
        <ele>27.8</ele>
        <time>2024-10-13T07:04:07Z</time>
      </trkpt>
      <trkpt lat="49.24152" lon="-0.01868">
        <ele>28</ele>
        <time>2024-10-13T07:04:08Z</time>
      </trkpt>
      <trkpt lat="49.24156" lon="-0.01859">
        <ele>28</ele>
        <time>2024-10-13T07:04:09Z</time>
      </trkpt>
      <trkpt lat="49.24159" lon="-0.01849">
        <ele>28</ele>
        <time>2024-10-13T07:04:10Z</time>
      </trkpt>
      <trkpt lat="49.24162" lon="-0.0184">
        <ele>28.2</ele>
        <time>2024-10-13T07:04:11Z</time>
      </trkpt>
      <trkpt lat="49.24165" lon="-0.01831">
        <ele>28.4</ele>
        <time>2024-10-13T07:04:12Z</time>
      </trkpt>
      <trkpt lat="49.24169" lon="-0.01821">
        <ele>28.6</ele>
        <time>2024-10-13T07:04:13Z</time>
      </trkpt>
      <trkpt lat="49.24172" lon="-0.01812">
        <ele>28.8</ele>
        <time>2024-10-13T07:04:14Z</time>
      </trkpt>
      <trkpt lat="49.24175" lon="-0.01802">
        <ele>28.8</ele>
        <time>2024-10-13T07:04:15Z</time>
      </trkpt>
      <trkpt lat="49.24179" lon="-0.01793">
        <ele>29</ele>
        <time>2024-10-13T07:04:16Z</time>
      </trkpt>
      <trkpt lat="49.24182" lon="-0.01783">
        <ele>29</ele>
        <time>2024-10-13T07:04:17Z</time>
      </trkpt>
      <trkpt lat="49.24185" lon="-0.01774">
        <ele>29.2</ele>
        <time>2024-10-13T07:04:18Z</time>
      </trkpt>
      <trkpt lat="49.24189" lon="-0.01764">
        <ele>29.4</ele>
        <time>2024-10-13T07:04:19Z</time>
      </trkpt>
      <trkpt lat="49.24193" lon="-0.01753">
        <ele>29.6</ele>
        <time>2024-10-13T07:04:20Z</time>
      </trkpt>
      <trkpt lat="49.24195" lon="-0.01745">
        <ele>29.8</ele>
        <time>2024-10-13T07:04:21Z</time>
      </trkpt>
      <trkpt lat="49.24199" lon="-0.01735">
        <ele>30</ele>
        <time>2024-10-13T07:04:22Z</time>
      </trkpt>
      <trkpt lat="49.24202" lon="-0.01725">
        <ele>30.2</ele>
        <time>2024-10-13T07:04:23Z</time>
      </trkpt>
      <trkpt lat="49.24206" lon="-0.01714">
        <ele>30.4</ele>
        <time>2024-10-13T07:04:24Z</time>
      </trkpt>
      <trkpt lat="49.24208" lon="-0.01706">
        <ele>30.4</ele>
        <time>2024-10-13T07:04:25Z</time>
      </trkpt>
      <trkpt lat="49.24213" lon="-0.01694">
        <ele>30.4</ele>
        <time>2024-10-13T07:04:26Z</time>
      </trkpt>
      <trkpt lat="49.24215" lon="-0.01686">
        <ele>30.6</ele>
        <time>2024-10-13T07:04:27Z</time>
      </trkpt>
      <trkpt lat="49.24219" lon="-0.01676">
        <ele>30.6</ele>
        <time>2024-10-13T07:04:28Z</time>
      </trkpt>
      <trkpt lat="49.24223" lon="-0.01666">
        <ele>30.6</ele>
        <time>2024-10-13T07:04:29Z</time>
      </trkpt>
      <trkpt lat="49.24227" lon="-0.01656">
        <ele>30.6</ele>
        <time>2024-10-13T07:04:30Z</time>
      </trkpt>
      <trkpt lat="49.2423" lon="-0.01646">
        <ele>30.6</ele>
        <time>2024-10-13T07:04:31Z</time>
      </trkpt>
      <trkpt lat="49.24234" lon="-0.01636">
        <ele>30.6</ele>
        <time>2024-10-13T07:04:32Z</time>
      </trkpt>
      <trkpt lat="49.24237" lon="-0.01626">
        <ele>30.8</ele>
        <time>2024-10-13T07:04:33Z</time>
      </trkpt>
      <trkpt lat="49.24241" lon="-0.01617">
        <ele>30.8</ele>
        <time>2024-10-13T07:04:34Z</time>
      </trkpt>
      <trkpt lat="49.24244" lon="-0.01607">
        <ele>30.8</ele>
        <time>2024-10-13T07:04:35Z</time>
      </trkpt>
      <trkpt lat="49.24248" lon="-0.01597">
        <ele>30.8</ele>
        <time>2024-10-13T07:04:36Z</time>
      </trkpt>
      <trkpt lat="49.24251" lon="-0.01586">
        <ele>30.8</ele>
        <time>2024-10-13T07:04:37Z</time>
      </trkpt>
      <trkpt lat="49.24255" lon="-0.01576">
        <ele>30.8</ele>
        <time>2024-10-13T07:04:38Z</time>
      </trkpt>
      <trkpt lat="49.24258" lon="-0.01566">
        <ele>30.8</ele>
        <time>2024-10-13T07:04:39Z</time>
      </trkpt>
      <trkpt lat="49.24262" lon="-0.01556">
        <ele>30.8</ele>
        <time>2024-10-13T07:04:40Z</time>
      </trkpt>
      <trkpt lat="49.24266" lon="-0.01544">
        <ele>30.8</ele>
        <time>2024-10-13T07:04:41Z</time>
      </trkpt>
      <trkpt lat="49.24269" lon="-0.01536">
        <ele>30.8</ele>
        <time>2024-10-13T07:04:42Z</time>
      </trkpt>
      <trkpt lat="49.24273" lon="-0.01526">
        <ele>30.8</ele>
        <time>2024-10-13T07:04:43Z</time>
      </trkpt>
      <trkpt lat="49.24277" lon="-0.01514">
        <ele>30.8</ele>
        <time>2024-10-13T07:04:44Z</time>
      </trkpt>
      <trkpt lat="49.24279" lon="-0.01506">
        <ele>30.8</ele>
        <time>2024-10-13T07:04:45Z</time>
      </trkpt>
      <trkpt lat="49.24283" lon="-0.01494">
        <ele>30.8</ele>
        <time>2024-10-13T07:04:46Z</time>
      </trkpt>
      <trkpt lat="49.24286" lon="-0.01485">
        <ele>30.8</ele>
        <time>2024-10-13T07:04:47Z</time>
      </trkpt>
      <trkpt lat="49.24289" lon="-0.01475">
        <ele>30.8</ele>
        <time>2024-10-13T07:04:48Z</time>
      </trkpt>
      <trkpt lat="49.24293" lon="-0.01465">
        <ele>30.8</ele>
        <time>2024-10-13T07:04:49Z</time>
      </trkpt>
      <trkpt lat="49.24296" lon="-0.01454">
        <ele>30.8</ele>
        <time>2024-10-13T07:04:50Z</time>
      </trkpt>
      <trkpt lat="49.24299" lon="-0.01444">
        <ele>30.8</ele>
        <time>2024-10-13T07:04:51Z</time>
      </trkpt>
      <trkpt lat="49.24303" lon="-0.01434">
        <ele>30.8</ele>
        <time>2024-10-13T07:04:52Z</time>
      </trkpt>
      <trkpt lat="49.24307" lon="-0.01424">
        <ele>30.8</ele>
        <time>2024-10-13T07:04:53Z</time>
      </trkpt>
      <trkpt lat="49.24311" lon="-0.01414">
        <ele>30.6</ele>
        <time>2024-10-13T07:04:54Z</time>
      </trkpt>
      <trkpt lat="49.24314" lon="-0.01403">
        <ele>30.6</ele>
        <time>2024-10-13T07:04:55Z</time>
      </trkpt>
      <trkpt lat="49.24318" lon="-0.01393">
        <ele>30.4</ele>
        <time>2024-10-13T07:04:56Z</time>
      </trkpt>
      <trkpt lat="49.24322" lon="-0.01383">
        <ele>30.4</ele>
        <time>2024-10-13T07:04:57Z</time>
      </trkpt>
      <trkpt lat="49.24325" lon="-0.01372">
        <ele>30.4</ele>
        <time>2024-10-13T07:04:58Z</time>
      </trkpt>
      <trkpt lat="49.24329" lon="-0.01362">
        <ele>30.2</ele>
        <time>2024-10-13T07:04:59Z</time>
      </trkpt>
      <trkpt lat="49.24333" lon="-0.01351">
        <ele>29.8</ele>
        <time>2024-10-13T07:05:00Z</time>
      </trkpt>
      <trkpt lat="49.24337" lon="-0.01341">
        <ele>29.8</ele>
        <time>2024-10-13T07:05:01Z</time>
      </trkpt>
      <trkpt lat="49.2434" lon="-0.0133">
        <ele>29.6</ele>
        <time>2024-10-13T07:05:02Z</time>
      </trkpt>
      <trkpt lat="49.24344" lon="-0.01319">
        <ele>29.4</ele>
        <time>2024-10-13T07:05:03Z</time>
      </trkpt>
      <trkpt lat="49.24349" lon="-0.01307">
        <ele>29.4</ele>
        <time>2024-10-13T07:05:04Z</time>
      </trkpt>
      <trkpt lat="49.24352" lon="-0.01299">
        <ele>29.2</ele>
        <time>2024-10-13T07:05:05Z</time>
      </trkpt>
      <trkpt lat="49.24356" lon="-0.01289">
        <ele>29.2</ele>
        <time>2024-10-13T07:05:06Z</time>
      </trkpt>
      <trkpt lat="49.2436" lon="-0.01278">
        <ele>29.2</ele>
        <time>2024-10-13T07:05:07Z</time>
      </trkpt>
      <trkpt lat="49.24364" lon="-0.01267">
        <ele>29</ele>
        <time>2024-10-13T07:05:08Z</time>
      </trkpt>
      <trkpt lat="49.24368" lon="-0.01256">
        <ele>29</ele>
        <time>2024-10-13T07:05:09Z</time>
      </trkpt>
      <trkpt lat="49.24372" lon="-0.01243">
        <ele>29</ele>
        <time>2024-10-13T07:05:10Z</time>
      </trkpt>
      <trkpt lat="49.24375" lon="-0.01234">
        <ele>28.8</ele>
        <time>2024-10-13T07:05:11Z</time>
      </trkpt>
      <trkpt lat="49.24379" lon="-0.01224">
        <ele>28.6</ele>
        <time>2024-10-13T07:05:12Z</time>
      </trkpt>
      <trkpt lat="49.24383" lon="-0.01213">
        <ele>28.2</ele>
        <time>2024-10-13T07:05:13Z</time>
      </trkpt>
      <trkpt lat="49.24387" lon="-0.01202">
        <ele>28</ele>
        <time>2024-10-13T07:05:14Z</time>
      </trkpt>
      <trkpt lat="49.2439" lon="-0.01191">
        <ele>28</ele>
        <time>2024-10-13T07:05:15Z</time>
      </trkpt>
      <trkpt lat="49.24394" lon="-0.01181">
        <ele>27.6</ele>
        <time>2024-10-13T07:05:16Z</time>
      </trkpt>
      <trkpt lat="49.24397" lon="-0.01171">
        <ele>27.6</ele>
        <time>2024-10-13T07:05:17Z</time>
      </trkpt>
      <trkpt lat="49.24401" lon="-0.0116">
        <ele>27.4</ele>
        <time>2024-10-13T07:05:18Z</time>
      </trkpt>
      <trkpt lat="49.24404" lon="-0.01149">
        <ele>27.4</ele>
        <time>2024-10-13T07:05:19Z</time>
      </trkpt>
      <trkpt lat="49.24409" lon="-0.01136">
        <ele>27.2</ele>
        <time>2024-10-13T07:05:20Z</time>
      </trkpt>
      <trkpt lat="49.24412" lon="-0.01128">
        <ele>27</ele>
        <time>2024-10-13T07:05:21Z</time>
      </trkpt>
      <trkpt lat="49.24416" lon="-0.01116">
        <ele>26.8</ele>
        <time>2024-10-13T07:05:22Z</time>
      </trkpt>
      <trkpt lat="49.24419" lon="-0.01108">
        <ele>26.8</ele>
        <time>2024-10-13T07:05:23Z</time>
      </trkpt>
      <trkpt lat="49.24423" lon="-0.01097">
        <ele>26.6</ele>
        <time>2024-10-13T07:05:24Z</time>
      </trkpt>
      <trkpt lat="49.24427" lon="-0.01085">
        <ele>26.6</ele>
        <time>2024-10-13T07:05:25Z</time>
      </trkpt>
      <trkpt lat="49.24431" lon="-0.01074">
        <ele>26.4</ele>
        <time>2024-10-13T07:05:26Z</time>
      </trkpt>
      <trkpt lat="49.24433" lon="-0.01066">
        <ele>26.4</ele>
        <time>2024-10-13T07:05:27Z</time>
      </trkpt>
      <trkpt lat="49.24437" lon="-0.01054">
        <ele>26.2</ele>
        <time>2024-10-13T07:05:28Z</time>
      </trkpt>
      <trkpt lat="49.2444" lon="-0.01046">
        <ele>26.2</ele>
        <time>2024-10-13T07:05:29Z</time>
      </trkpt>
      <trkpt lat="49.24444" lon="-0.01036">
        <ele>26.2</ele>
        <time>2024-10-13T07:05:30Z</time>
      </trkpt>
      <trkpt lat="49.24448" lon="-0.01025">
        <ele>26.2</ele>
        <time>2024-10-13T07:05:31Z</time>
      </trkpt>
      <trkpt lat="49.2445" lon="-0.01018">
        <ele>26.2</ele>
        <time>2024-10-13T07:05:32Z</time>
      </trkpt>
      <trkpt lat="49.24454" lon="-0.01008">
        <ele>26.2</ele>
        <time>2024-10-13T07:05:33Z</time>
      </trkpt>
      <trkpt lat="49.24457" lon="-0.01">
        <ele>26.2</ele>
        <time>2024-10-13T07:05:34Z</time>
      </trkpt>
      <trkpt lat="49.2446" lon="-0.00991">
        <ele>26.2</ele>
        <time>2024-10-13T07:05:35Z</time>
      </trkpt>
      <trkpt lat="49.24463" lon="-0.00982">
        <ele>26.2</ele>
        <time>2024-10-13T07:05:36Z</time>
      </trkpt>
      <trkpt lat="49.24466" lon="-0.00973">
        <ele>26.2</ele>
        <time>2024-10-13T07:05:37Z</time>
      </trkpt>
      <trkpt lat="49.24469" lon="-0.00964">
        <ele>26.6</ele>
        <time>2024-10-13T07:05:38Z</time>
      </trkpt>
      <trkpt lat="49.24472" lon="-0.00955">
        <ele>26.8</ele>
        <time>2024-10-13T07:05:39Z</time>
      </trkpt>
      <trkpt lat="49.24476" lon="-0.00945">
        <ele>27.2</ele>
        <time>2024-10-13T07:05:40Z</time>
      </trkpt>
      <trkpt lat="49.24478" lon="-0.00938">
        <ele>27.4</ele>
        <time>2024-10-13T07:05:41Z</time>
      </trkpt>
      <trkpt lat="49.24481" lon="-0.0093">
        <ele>27.6</ele>
        <time>2024-10-13T07:05:42Z</time>
      </trkpt>
      <trkpt lat="49.24484" lon="-0.00921">
        <ele>28</ele>
        <time>2024-10-13T07:05:43Z</time>
      </trkpt>
      <trkpt lat="49.24487" lon="-0.00913">
        <ele>28.4</ele>
        <time>2024-10-13T07:05:44Z</time>
      </trkpt>
      <trkpt lat="49.2449" lon="-0.00904">
        <ele>28.6</ele>
        <time>2024-10-13T07:05:45Z</time>
      </trkpt>
      <trkpt lat="49.24494" lon="-0.00894">
        <ele>28.8</ele>
        <time>2024-10-13T07:05:46Z</time>
      </trkpt>
      <trkpt lat="49.24496" lon="-0.00887">
        <ele>29</ele>
        <time>2024-10-13T07:05:47Z</time>
      </trkpt>
      <trkpt lat="49.24499" lon="-0.00878">
        <ele>29.2</ele>
        <time>2024-10-13T07:05:48Z</time>
      </trkpt>
      <trkpt lat="49.24503" lon="-0.00867">
        <ele>29.4</ele>
        <time>2024-10-13T07:05:49Z</time>
      </trkpt>
      <trkpt lat="49.24505" lon="-0.0086">
        <ele>29.6</ele>
        <time>2024-10-13T07:05:50Z</time>
      </trkpt>
      <trkpt lat="49.24508" lon="-0.00851">
        <ele>29.6</ele>
        <time>2024-10-13T07:05:51Z</time>
      </trkpt>
      <trkpt lat="49.24511" lon="-0.00843">
        <ele>29.8</ele>
        <time>2024-10-13T07:05:52Z</time>
      </trkpt>
      <trkpt lat="49.24514" lon="-0.00834">
        <ele>30</ele>
        <time>2024-10-13T07:05:53Z</time>
      </trkpt>
      <trkpt lat="49.24518" lon="-0.00823">
        <ele>30.2</ele>
        <time>2024-10-13T07:05:54Z</time>
      </trkpt>
      <trkpt lat="49.2452" lon="-0.00816">
        <ele>30.2</ele>
        <time>2024-10-13T07:05:55Z</time>
      </trkpt>
      <trkpt lat="49.24523" lon="-0.00808">
        <ele>30.6</ele>
        <time>2024-10-13T07:05:56Z</time>
      </trkpt>
      <trkpt lat="49.24526" lon="-0.00799">
        <ele>30.6</ele>
        <time>2024-10-13T07:05:57Z</time>
      </trkpt>
      <trkpt lat="49.24529" lon="-0.00791">
        <ele>30.8</ele>
        <time>2024-10-13T07:05:58Z</time>
      </trkpt>
      <trkpt lat="49.24532" lon="-0.00782">
        <ele>30.8</ele>
        <time>2024-10-13T07:05:59Z</time>
      </trkpt>
      <trkpt lat="49.24535" lon="-0.00773">
        <ele>31.2</ele>
        <time>2024-10-13T07:06:00Z</time>
      </trkpt>
      <trkpt lat="49.24538" lon="-0.00764">
        <ele>31.4</ele>
        <time>2024-10-13T07:06:01Z</time>
      </trkpt>
      <trkpt lat="49.24541" lon="-0.00755">
        <ele>31.4</ele>
        <time>2024-10-13T07:06:02Z</time>
      </trkpt>
      <trkpt lat="49.24545" lon="-0.00745">
        <ele>31.6</ele>
        <time>2024-10-13T07:06:03Z</time>
      </trkpt>
      <trkpt lat="49.24548" lon="-0.00737">
        <ele>31.8</ele>
        <time>2024-10-13T07:06:04Z</time>
      </trkpt>
      <trkpt lat="49.24551" lon="-0.00728">
        <ele>32</ele>
        <time>2024-10-13T07:06:05Z</time>
      </trkpt>
      <trkpt lat="49.24554" lon="-0.00719">
        <ele>32</ele>
        <time>2024-10-13T07:06:06Z</time>
      </trkpt>
      <trkpt lat="49.24557" lon="-0.00711">
        <ele>32.2</ele>
        <time>2024-10-13T07:06:07Z</time>
      </trkpt>
      <trkpt lat="49.2456" lon="-0.00702">
        <ele>32.2</ele>
        <time>2024-10-13T07:06:08Z</time>
      </trkpt>
      <trkpt lat="49.24563" lon="-0.00693">
        <ele>32.2</ele>
        <time>2024-10-13T07:06:09Z</time>
      </trkpt>
      <trkpt lat="49.24567" lon="-0.00683">
        <ele>32.4</ele>
        <time>2024-10-13T07:06:10Z</time>
      </trkpt>
      <trkpt lat="49.2457" lon="-0.00676">
        <ele>32.6</ele>
        <time>2024-10-13T07:06:11Z</time>
      </trkpt>
      <trkpt lat="49.24574" lon="-0.00666">
        <ele>32.6</ele>
        <time>2024-10-13T07:06:12Z</time>
      </trkpt>
      <trkpt lat="49.24576" lon="-0.00659">
        <ele>33</ele>
        <time>2024-10-13T07:06:13Z</time>
      </trkpt>
      <trkpt lat="49.2458" lon="-0.0065">
        <ele>33.2</ele>
        <time>2024-10-13T07:06:14Z</time>
      </trkpt>
      <trkpt lat="49.24585" lon="-0.0064">
        <ele>33.2</ele>
        <time>2024-10-13T07:06:15Z</time>
      </trkpt>
      <trkpt lat="49.24588" lon="-0.00633">
        <ele>33.4</ele>
        <time>2024-10-13T07:06:16Z</time>
      </trkpt>
      <trkpt lat="49.24592" lon="-0.00625">
        <ele>33.8</ele>
        <time>2024-10-13T07:06:17Z</time>
      </trkpt>
      <trkpt lat="49.24597" lon="-0.00616">
        <ele>34</ele>
        <time>2024-10-13T07:06:18Z</time>
      </trkpt>
      <trkpt lat="49.24601" lon="-0.0061">
        <ele>34</ele>
        <time>2024-10-13T07:06:19Z</time>
      </trkpt>
      <trkpt lat="49.24605" lon="-0.00603">
        <ele>34.4</ele>
        <time>2024-10-13T07:06:20Z</time>
      </trkpt>
      <trkpt lat="49.24609" lon="-0.00595">
        <ele>34.4</ele>
        <time>2024-10-13T07:06:21Z</time>
      </trkpt>
      <trkpt lat="49.24613" lon="-0.00588">
        <ele>34.6</ele>
        <time>2024-10-13T07:06:22Z</time>
      </trkpt>
      <trkpt lat="49.24618" lon="-0.00581">
        <ele>34.6</ele>
        <time>2024-10-13T07:06:23Z</time>
      </trkpt>
      <trkpt lat="49.24623" lon="-0.00573">
        <ele>34.8</ele>
        <time>2024-10-13T07:06:24Z</time>
      </trkpt>
      <trkpt lat="49.24627" lon="-0.00568">
        <ele>34.8</ele>
        <time>2024-10-13T07:06:25Z</time>
      </trkpt>
      <trkpt lat="49.24633" lon="-0.00562">
        <ele>35</ele>
        <time>2024-10-13T07:06:26Z</time>
      </trkpt>
      <trkpt lat="49.24639" lon="-0.00556">
        <ele>35</ele>
        <time>2024-10-13T07:06:27Z</time>
      </trkpt>
      <trkpt lat="49.24644" lon="-0.00552">
        <ele>35.2</ele>
        <time>2024-10-13T07:06:28Z</time>
      </trkpt>
      <trkpt lat="49.24649" lon="-0.00548">
        <ele>35.4</ele>
        <time>2024-10-13T07:06:29Z</time>
      </trkpt>
      <trkpt lat="49.24655" lon="-0.00544">
        <ele>35.4</ele>
        <time>2024-10-13T07:06:30Z</time>
      </trkpt>
      <trkpt lat="49.24661" lon="-0.0054">
        <ele>35.4</ele>
        <time>2024-10-13T07:06:31Z</time>
      </trkpt>
      <trkpt lat="49.24667" lon="-0.00535">
        <ele>35.4</ele>
        <time>2024-10-13T07:06:32Z</time>
      </trkpt>
      <trkpt lat="49.24672" lon="-0.00531">
        <ele>35.4</ele>
        <time>2024-10-13T07:06:33Z</time>
      </trkpt>
      <trkpt lat="49.24678" lon="-0.00527">
        <ele>35.8</ele>
        <time>2024-10-13T07:06:34Z</time>
      </trkpt>
      <trkpt lat="49.24684" lon="-0.00523">
        <ele>35.8</ele>
        <time>2024-10-13T07:06:35Z</time>
      </trkpt>
      <trkpt lat="49.24691" lon="-0.00517">
        <ele>35.8</ele>
        <time>2024-10-13T07:06:36Z</time>
      </trkpt>
      <trkpt lat="49.24696" lon="-0.00514">
        <ele>35.8</ele>
        <time>2024-10-13T07:06:37Z</time>
      </trkpt>
      <trkpt lat="49.24702" lon="-0.0051">
        <ele>36</ele>
        <time>2024-10-13T07:06:38Z</time>
      </trkpt>
      <trkpt lat="49.24709" lon="-0.00505">
        <ele>36.2</ele>
        <time>2024-10-13T07:06:39Z</time>
      </trkpt>
      <trkpt lat="49.24714" lon="-0.00501">
        <ele>36.2</ele>
        <time>2024-10-13T07:06:40Z</time>
      </trkpt>
      <trkpt lat="49.2472" lon="-0.00497">
        <ele>36.2</ele>
        <time>2024-10-13T07:06:41Z</time>
      </trkpt>
      <trkpt lat="49.24727" lon="-0.00493">
        <ele>36.4</ele>
        <time>2024-10-13T07:06:42Z</time>
      </trkpt>
      <trkpt lat="49.24733" lon="-0.00488">
        <ele>36.6</ele>
        <time>2024-10-13T07:06:43Z</time>
      </trkpt>
      <trkpt lat="49.24739" lon="-0.00483">
        <ele>36.6</ele>
        <time>2024-10-13T07:06:44Z</time>
      </trkpt>
      <trkpt lat="49.24747" lon="-0.00477">
        <ele>36.6</ele>
        <time>2024-10-13T07:06:45Z</time>
      </trkpt>
      <trkpt lat="49.24751" lon="-0.00474">
        <ele>36.4</ele>
        <time>2024-10-13T07:06:46Z</time>
      </trkpt>
      <trkpt lat="49.24758" lon="-0.00468">
        <ele>36.6</ele>
        <time>2024-10-13T07:06:47Z</time>
      </trkpt>
      <trkpt lat="49.24765" lon="-0.00462">
        <ele>36.6</ele>
        <time>2024-10-13T07:06:48Z</time>
      </trkpt>
      <trkpt lat="49.2477" lon="-0.00457">
        <ele>36.6</ele>
        <time>2024-10-13T07:06:49Z</time>
      </trkpt>
      <trkpt lat="49.24776" lon="-0.00449">
        <ele>36.6</ele>
        <time>2024-10-13T07:06:50Z</time>
      </trkpt>
      <trkpt lat="49.24781" lon="-0.00444">
        <ele>36.2</ele>
        <time>2024-10-13T07:06:51Z</time>
      </trkpt>
      <trkpt lat="49.24787" lon="-0.00437">
        <ele>36.2</ele>
        <time>2024-10-13T07:06:52Z</time>
      </trkpt>
      <trkpt lat="49.24794" lon="-0.00428">
        <ele>36.2</ele>
        <time>2024-10-13T07:06:53Z</time>
      </trkpt>
      <trkpt lat="49.24799" lon="-0.00421">
        <ele>36</ele>
        <time>2024-10-13T07:06:54Z</time>
      </trkpt>
      <trkpt lat="49.24804" lon="-0.00415">
        <ele>36</ele>
        <time>2024-10-13T07:06:55Z</time>
      </trkpt>
      <trkpt lat="49.2481" lon="-0.00406">
        <ele>35.8</ele>
        <time>2024-10-13T07:06:56Z</time>
      </trkpt>
      <trkpt lat="49.24815" lon="-0.00399">
        <ele>35.6</ele>
        <time>2024-10-13T07:06:57Z</time>
      </trkpt>
      <trkpt lat="49.24819" lon="-0.00393">
        <ele>35.6</ele>
        <time>2024-10-13T07:06:58Z</time>
      </trkpt>
      <trkpt lat="49.24825" lon="-0.00384">
        <ele>35.4</ele>
        <time>2024-10-13T07:06:59Z</time>
      </trkpt>
      <trkpt lat="49.2483" lon="-0.00376">
        <ele>35.2</ele>
        <time>2024-10-13T07:07:00Z</time>
      </trkpt>
      <trkpt lat="49.24834" lon="-0.00369">
        <ele>35.2</ele>
        <time>2024-10-13T07:07:01Z</time>
      </trkpt>
      <trkpt lat="49.24839" lon="-0.00359">
        <ele>35</ele>
        <time>2024-10-13T07:07:02Z</time>
      </trkpt>
      <trkpt lat="49.24844" lon="-0.0035">
        <ele>35</ele>
        <time>2024-10-13T07:07:03Z</time>
      </trkpt>
      <trkpt lat="49.24847" lon="-0.00343">
        <ele>34.8</ele>
        <time>2024-10-13T07:07:04Z</time>
      </trkpt>
      <trkpt lat="49.24851" lon="-0.00334">
        <ele>34.6</ele>
        <time>2024-10-13T07:07:05Z</time>
      </trkpt>
      <trkpt lat="49.24856" lon="-0.00323">
        <ele>34.4</ele>
        <time>2024-10-13T07:07:06Z</time>
      </trkpt>
      <trkpt lat="49.24859" lon="-0.00316">
        <ele>34.2</ele>
        <time>2024-10-13T07:07:07Z</time>
      </trkpt>
      <trkpt lat="49.24863" lon="-0.00306">
        <ele>34.2</ele>
        <time>2024-10-13T07:07:08Z</time>
      </trkpt>
      <trkpt lat="49.24867" lon="-0.00297">
        <ele>34.2</ele>
        <time>2024-10-13T07:07:09Z</time>
      </trkpt>
      <trkpt lat="49.2487" lon="-0.00289">
        <ele>34</ele>
        <time>2024-10-13T07:07:10Z</time>
      </trkpt>
      <trkpt lat="49.24874" lon="-0.00278">
        <ele>33.8</ele>
        <time>2024-10-13T07:07:11Z</time>
      </trkpt>
      <trkpt lat="49.24877" lon="-0.00268">
        <ele>33.6</ele>
        <time>2024-10-13T07:07:12Z</time>
      </trkpt>
      <trkpt lat="49.2488" lon="-0.0026">
        <ele>33.4</ele>
        <time>2024-10-13T07:07:13Z</time>
      </trkpt>
      <trkpt lat="49.24883" lon="-0.00249">
        <ele>33.2</ele>
        <time>2024-10-13T07:07:14Z</time>
      </trkpt>
      <trkpt lat="49.24886" lon="-0.00239">
        <ele>33.2</ele>
        <time>2024-10-13T07:07:15Z</time>
      </trkpt>
      <trkpt lat="49.24888" lon="-0.00231">
        <ele>33</ele>
        <time>2024-10-13T07:07:16Z</time>
      </trkpt>
      <trkpt lat="49.24892" lon="-0.00219">
        <ele>33</ele>
        <time>2024-10-13T07:07:17Z</time>
      </trkpt>
      <trkpt lat="49.24894" lon="-0.00209">
        <ele>33</ele>
        <time>2024-10-13T07:07:18Z</time>
      </trkpt>
      <trkpt lat="49.24896" lon="-0.002">
        <ele>33</ele>
        <time>2024-10-13T07:07:19Z</time>
      </trkpt>
      <trkpt lat="49.24899" lon="-0.00188">
        <ele>33</ele>
        <time>2024-10-13T07:07:20Z</time>
      </trkpt>
      <trkpt lat="49.249" lon="-0.0018">
        <ele>33</ele>
        <time>2024-10-13T07:07:21Z</time>
      </trkpt>
      <trkpt lat="49.24902" lon="-0.00167">
        <ele>33</ele>
        <time>2024-10-13T07:07:22Z</time>
      </trkpt>
      <trkpt lat="49.24904" lon="-0.00157">
        <ele>33</ele>
        <time>2024-10-13T07:07:23Z</time>
      </trkpt>
      <trkpt lat="49.24905" lon="-0.00148">
        <ele>33.2</ele>
        <time>2024-10-13T07:07:24Z</time>
      </trkpt>
      <trkpt lat="49.24906" lon="-0.00138">
        <ele>33.2</ele>
        <time>2024-10-13T07:07:25Z</time>
      </trkpt>
      <trkpt lat="49.24907" lon="-0.00127">
        <ele>33.2</ele>
        <time>2024-10-13T07:07:26Z</time>
      </trkpt>
      <trkpt lat="49.24909" lon="-0.00117">
        <ele>33.4</ele>
        <time>2024-10-13T07:07:27Z</time>
      </trkpt>
      <trkpt lat="49.2491" lon="-0.00106">
        <ele>33.4</ele>
        <time>2024-10-13T07:07:28Z</time>
      </trkpt>
      <trkpt lat="49.24911" lon="-0.00094">
        <ele>33.6</ele>
        <time>2024-10-13T07:07:29Z</time>
      </trkpt>
      <trkpt lat="49.24911" lon="-0.00083">
        <ele>33.6</ele>
        <time>2024-10-13T07:07:30Z</time>
      </trkpt>
      <trkpt lat="49.24911" lon="-0.00075">
        <ele>33.8</ele>
        <time>2024-10-13T07:07:31Z</time>
      </trkpt>
      <trkpt lat="49.24912" lon="-0.00063">
        <ele>33.8</ele>
        <time>2024-10-13T07:07:32Z</time>
      </trkpt>
      <trkpt lat="49.24912" lon="-0.00055">
        <ele>34</ele>
        <time>2024-10-13T07:07:33Z</time>
      </trkpt>
      <trkpt lat="49.24912" lon="-0.00045">
        <ele>34.2</ele>
        <time>2024-10-13T07:07:34Z</time>
      </trkpt>
      <trkpt lat="49.24912" lon="-0.00034">
        <ele>34.4</ele>
        <time>2024-10-13T07:07:35Z</time>
      </trkpt>
      <trkpt lat="49.24912" lon="-0.00024">
        <ele>34.8</ele>
        <time>2024-10-13T07:07:36Z</time>
      </trkpt>
      <trkpt lat="49.24911" lon="-0.00012">
        <ele>34.8</ele>
        <time>2024-10-13T07:07:37Z</time>
      </trkpt>
      <trkpt lat="49.24911" lon="-2.0E-5">
        <ele>34.8</ele>
        <time>2024-10-13T07:07:38Z</time>
      </trkpt>
      <trkpt lat="49.2491" lon="7.0E-5">
        <ele>35</ele>
        <time>2024-10-13T07:07:39Z</time>
      </trkpt>
      <trkpt lat="49.2491" lon="0.00019">
        <ele>35</ele>
        <time>2024-10-13T07:07:40Z</time>
      </trkpt>
      <trkpt lat="49.24909" lon="0.00029">
        <ele>35.2</ele>
        <time>2024-10-13T07:07:41Z</time>
      </trkpt>
      <trkpt lat="49.24908" lon="0.00037">
        <ele>35.4</ele>
        <time>2024-10-13T07:07:42Z</time>
      </trkpt>
      <trkpt lat="49.24907" lon="0.00049">
        <ele>35.6</ele>
        <time>2024-10-13T07:07:43Z</time>
      </trkpt>
      <trkpt lat="49.24906" lon="0.00058">
        <ele>35.8</ele>
        <time>2024-10-13T07:07:44Z</time>
      </trkpt>
      <trkpt lat="49.24905" lon="0.00066">
        <ele>36</ele>
        <time>2024-10-13T07:07:45Z</time>
      </trkpt>
      <trkpt lat="49.24904" lon="0.00078">
        <ele>36</ele>
        <time>2024-10-13T07:07:46Z</time>
      </trkpt>
      <trkpt lat="49.24903" lon="0.00086">
        <ele>36.2</ele>
        <time>2024-10-13T07:07:47Z</time>
      </trkpt>
      <trkpt lat="49.24902" lon="0.00096">
        <ele>36.2</ele>
        <time>2024-10-13T07:07:48Z</time>
      </trkpt>
      <trkpt lat="49.24901" lon="0.00107">
        <ele>36.2</ele>
        <time>2024-10-13T07:07:49Z</time>
      </trkpt>
      <trkpt lat="49.24899" lon="0.00117">
        <ele>36.4</ele>
        <time>2024-10-13T07:07:50Z</time>
      </trkpt>
      <trkpt lat="49.24899" lon="0.00125">
        <ele>36.6</ele>
        <time>2024-10-13T07:07:51Z</time>
      </trkpt>
      <trkpt lat="49.24898" lon="0.00138">
        <ele>36.6</ele>
        <time>2024-10-13T07:07:52Z</time>
      </trkpt>
      <trkpt lat="49.24896" lon="0.00148">
        <ele>36.8</ele>
        <time>2024-10-13T07:07:53Z</time>
      </trkpt>
      <trkpt lat="49.24896" lon="0.00157">
        <ele>37</ele>
        <time>2024-10-13T07:07:54Z</time>
      </trkpt>
      <trkpt lat="49.24894" lon="0.00169">
        <ele>37</ele>
        <time>2024-10-13T07:07:55Z</time>
      </trkpt>
      <trkpt lat="49.24893" lon="0.00179">
        <ele>37.2</ele>
        <time>2024-10-13T07:07:56Z</time>
      </trkpt>
      <trkpt lat="49.24893" lon="0.00187">
        <ele>37.2</ele>
        <time>2024-10-13T07:07:57Z</time>
      </trkpt>
      <trkpt lat="49.24891" lon="0.002">
        <ele>37.4</ele>
        <time>2024-10-13T07:07:58Z</time>
      </trkpt>
      <trkpt lat="49.2489" lon="0.0021">
        <ele>37.8</ele>
        <time>2024-10-13T07:07:59Z</time>
      </trkpt>
      <trkpt lat="49.24889" lon="0.00218">
        <ele>37.8</ele>
        <time>2024-10-13T07:08:00Z</time>
      </trkpt>
      <trkpt lat="49.24888" lon="0.00231">
        <ele>37.8</ele>
        <time>2024-10-13T07:08:01Z</time>
      </trkpt>
      <trkpt lat="49.24887" lon="0.00239">
        <ele>37.8</ele>
        <time>2024-10-13T07:08:02Z</time>
      </trkpt>
      <trkpt lat="49.24886" lon="0.00249">
        <ele>38</ele>
        <time>2024-10-13T07:08:03Z</time>
      </trkpt>
      <trkpt lat="49.24884" lon="0.00261">
        <ele>38</ele>
        <time>2024-10-13T07:08:04Z</time>
      </trkpt>
      <trkpt lat="49.24883" lon="0.0027">
        <ele>38.2</ele>
        <time>2024-10-13T07:08:05Z</time>
      </trkpt>
      <trkpt lat="49.24883" lon="0.0028">
        <ele>38.6</ele>
        <time>2024-10-13T07:08:06Z</time>
      </trkpt>
      <trkpt lat="49.24882" lon="0.00292">
        <ele>38.6</ele>
        <time>2024-10-13T07:08:07Z</time>
      </trkpt>
      <trkpt lat="49.24881" lon="0.003">
        <ele>38.4</ele>
        <time>2024-10-13T07:08:08Z</time>
      </trkpt>
      <trkpt lat="49.2488" lon="0.0031">
        <ele>38.8</ele>
        <time>2024-10-13T07:08:09Z</time>
      </trkpt>
      <trkpt lat="49.24879" lon="0.00322">
        <ele>38.8</ele>
        <time>2024-10-13T07:08:10Z</time>
      </trkpt>
      <trkpt lat="49.24879" lon="0.00331">
        <ele>38.8</ele>
        <time>2024-10-13T07:08:11Z</time>
      </trkpt>
      <trkpt lat="49.24878" lon="0.00341">
        <ele>38.8</ele>
        <time>2024-10-13T07:08:12Z</time>
      </trkpt>
      <trkpt lat="49.24878" lon="0.00353">
        <ele>39.2</ele>
        <time>2024-10-13T07:08:13Z</time>
      </trkpt>
      <trkpt lat="49.24877" lon="0.00363">
        <ele>39.4</ele>
        <time>2024-10-13T07:08:14Z</time>
      </trkpt>
      <trkpt lat="49.24877" lon="0.00371">
        <ele>39.2</ele>
        <time>2024-10-13T07:08:15Z</time>
      </trkpt>
      <trkpt lat="49.24877" lon="0.00381">
        <ele>39.4</ele>
        <time>2024-10-13T07:08:16Z</time>
      </trkpt>
      <trkpt lat="49.24877" lon="0.00391">
        <ele>39.4</ele>
        <time>2024-10-13T07:08:17Z</time>
      </trkpt>
      <trkpt lat="49.24878" lon="0.00403">
        <ele>39.6</ele>
        <time>2024-10-13T07:08:18Z</time>
      </trkpt>
      <trkpt lat="49.24878" lon="0.00414">
        <ele>40</ele>
        <time>2024-10-13T07:08:19Z</time>
      </trkpt>
      <trkpt lat="49.24879" lon="0.00421">
        <ele>40</ele>
        <time>2024-10-13T07:08:20Z</time>
      </trkpt>
      <trkpt lat="49.24879" lon="0.00431">
        <ele>40</ele>
        <time>2024-10-13T07:08:21Z</time>
      </trkpt>
      <trkpt lat="49.2488" lon="0.00443">
        <ele>40.2</ele>
        <time>2024-10-13T07:08:22Z</time>
      </trkpt>
      <trkpt lat="49.2488" lon="0.00451">
        <ele>40.4</ele>
        <time>2024-10-13T07:08:23Z</time>
      </trkpt>
      <trkpt lat="49.24881" lon="0.00463">
        <ele>40.4</ele>
        <time>2024-10-13T07:08:24Z</time>
      </trkpt>
      <trkpt lat="49.24882" lon="0.00474">
        <ele>40.6</ele>
        <time>2024-10-13T07:08:25Z</time>
      </trkpt>
      <trkpt lat="49.24882" lon="0.00482">
        <ele>40.4</ele>
        <time>2024-10-13T07:08:26Z</time>
      </trkpt>
      <trkpt lat="49.24884" lon="0.00494">
        <ele>40.6</ele>
        <time>2024-10-13T07:08:27Z</time>
      </trkpt>
      <trkpt lat="49.24884" lon="0.00505">
        <ele>40.6</ele>
        <time>2024-10-13T07:08:28Z</time>
      </trkpt>
      <trkpt lat="49.24885" lon="0.00513">
        <ele>40.6</ele>
        <time>2024-10-13T07:08:29Z</time>
      </trkpt>
      <trkpt lat="49.24886" lon="0.00523">
        <ele>40.8</ele>
        <time>2024-10-13T07:08:30Z</time>
      </trkpt>
      <trkpt lat="49.24886" lon="0.00534">
        <ele>40.8</ele>
        <time>2024-10-13T07:08:31Z</time>
      </trkpt>
      <trkpt lat="49.24887" lon="0.00544">
        <ele>41</ele>
        <time>2024-10-13T07:08:32Z</time>
      </trkpt>
      <trkpt lat="49.24888" lon="0.00556">
        <ele>41</ele>
        <time>2024-10-13T07:08:33Z</time>
      </trkpt>
      <trkpt lat="49.24888" lon="0.00567">
        <ele>41.2</ele>
        <time>2024-10-13T07:08:34Z</time>
      </trkpt>
      <trkpt lat="49.24889" lon="0.00575">
        <ele>41.4</ele>
        <time>2024-10-13T07:08:35Z</time>
      </trkpt>
      <trkpt lat="49.2489" lon="0.00587">
        <ele>41.6</ele>
        <time>2024-10-13T07:08:36Z</time>
      </trkpt>
      <trkpt lat="49.2489" lon="0.00595">
        <ele>41.8</ele>
        <time>2024-10-13T07:08:37Z</time>
      </trkpt>
      <trkpt lat="49.24891" lon="0.00605">
        <ele>41.8</ele>
        <time>2024-10-13T07:08:38Z</time>
      </trkpt>
      <trkpt lat="49.24891" lon="0.00617">
        <ele>42</ele>
        <time>2024-10-13T07:08:39Z</time>
      </trkpt>
      <trkpt lat="49.24892" lon="0.00627">
        <ele>42.2</ele>
        <time>2024-10-13T07:08:40Z</time>
      </trkpt>
      <trkpt lat="49.24892" lon="0.00635">
        <ele>42.2</ele>
        <time>2024-10-13T07:08:41Z</time>
      </trkpt>
      <trkpt lat="49.24893" lon="0.00647">
        <ele>42.4</ele>
        <time>2024-10-13T07:08:42Z</time>
      </trkpt>
      <trkpt lat="49.24894" lon="0.00656">
        <ele>42.4</ele>
        <time>2024-10-13T07:08:43Z</time>
      </trkpt>
      <trkpt lat="49.24895" lon="0.00666">
        <ele>42.6</ele>
        <time>2024-10-13T07:08:44Z</time>
      </trkpt>
      <trkpt lat="49.24895" lon="0.00678">
        <ele>42.8</ele>
        <time>2024-10-13T07:08:45Z</time>
      </trkpt>
      <trkpt lat="49.24896" lon="0.00687">
        <ele>42.8</ele>
        <time>2024-10-13T07:08:46Z</time>
      </trkpt>
      <trkpt lat="49.24897" lon="0.00697">
        <ele>43</ele>
        <time>2024-10-13T07:08:47Z</time>
      </trkpt>
      <trkpt lat="49.24898" lon="0.00709">
        <ele>43</ele>
        <time>2024-10-13T07:08:48Z</time>
      </trkpt>
      <trkpt lat="49.24898" lon="0.00719">
        <ele>43</ele>
        <time>2024-10-13T07:08:49Z</time>
      </trkpt>
      <trkpt lat="49.24899" lon="0.00727">
        <ele>43.2</ele>
        <time>2024-10-13T07:08:50Z</time>
      </trkpt>
      <trkpt lat="49.249" lon="0.00738">
        <ele>43.4</ele>
        <time>2024-10-13T07:08:51Z</time>
      </trkpt>
      <trkpt lat="49.24901" lon="0.00748">
        <ele>43.4</ele>
        <time>2024-10-13T07:08:52Z</time>
      </trkpt>
      <trkpt lat="49.24901" lon="0.00758">
        <ele>43.6</ele>
        <time>2024-10-13T07:08:53Z</time>
      </trkpt>
      <trkpt lat="49.24902" lon="0.0077">
        <ele>43.6</ele>
        <time>2024-10-13T07:08:54Z</time>
      </trkpt>
      <trkpt lat="49.24902" lon="0.00779">
        <ele>43.8</ele>
        <time>2024-10-13T07:08:55Z</time>
      </trkpt>
      <trkpt lat="49.24903" lon="0.00789">
        <ele>43.8</ele>
        <time>2024-10-13T07:08:56Z</time>
      </trkpt>
      <trkpt lat="49.24904" lon="0.00799">
        <ele>44</ele>
        <time>2024-10-13T07:08:57Z</time>
      </trkpt>
      <trkpt lat="49.24905" lon="0.00809">
        <ele>44</ele>
        <time>2024-10-13T07:08:58Z</time>
      </trkpt>
      <trkpt lat="49.24906" lon="0.00819">
        <ele>44</ele>
        <time>2024-10-13T07:08:59Z</time>
      </trkpt>
      <trkpt lat="49.24907" lon="0.0083">
        <ele>44.2</ele>
        <time>2024-10-13T07:09:00Z</time>
      </trkpt>
      <trkpt lat="49.24907" lon="0.00838">
        <ele>44.2</ele>
        <time>2024-10-13T07:09:01Z</time>
      </trkpt>
      <trkpt lat="49.24908" lon="0.00851">
        <ele>44.2</ele>
        <time>2024-10-13T07:09:02Z</time>
      </trkpt>
      <trkpt lat="49.24909" lon="0.00861">
        <ele>44.4</ele>
        <time>2024-10-13T07:09:03Z</time>
      </trkpt>
      <trkpt lat="49.2491" lon="0.00869">
        <ele>44.4</ele>
        <time>2024-10-13T07:09:04Z</time>
      </trkpt>
      <trkpt lat="49.2491" lon="0.00881">
        <ele>44.6</ele>
        <time>2024-10-13T07:09:05Z</time>
      </trkpt>
      <trkpt lat="49.24911" lon="0.00891">
        <ele>44.8</ele>
        <time>2024-10-13T07:09:06Z</time>
      </trkpt>
      <trkpt lat="49.24912" lon="0.00898">
        <ele>45</ele>
        <time>2024-10-13T07:09:07Z</time>
      </trkpt>
      <trkpt lat="49.24912" lon="0.0091">
        <ele>45.2</ele>
        <time>2024-10-13T07:09:08Z</time>
      </trkpt>
      <trkpt lat="49.24913" lon="0.0092">
        <ele>45.2</ele>
        <time>2024-10-13T07:09:09Z</time>
      </trkpt>
      <trkpt lat="49.24914" lon="0.00928">
        <ele>45.2</ele>
        <time>2024-10-13T07:09:10Z</time>
      </trkpt>
      <trkpt lat="49.24915" lon="0.0094">
        <ele>45.4</ele>
        <time>2024-10-13T07:09:11Z</time>
      </trkpt>
      <trkpt lat="49.24916" lon="0.00948">
        <ele>45.6</ele>
        <time>2024-10-13T07:09:12Z</time>
      </trkpt>
      <trkpt lat="49.24916" lon="0.00958">
        <ele>45.8</ele>
        <time>2024-10-13T07:09:13Z</time>
      </trkpt>
      <trkpt lat="49.24917" lon="0.00967">
        <ele>46</ele>
        <time>2024-10-13T07:09:14Z</time>
      </trkpt>
      <trkpt lat="49.24918" lon="0.00978">
        <ele>46.2</ele>
        <time>2024-10-13T07:09:15Z</time>
      </trkpt>
      <trkpt lat="49.24918" lon="0.00986">
        <ele>46.2</ele>
        <time>2024-10-13T07:09:16Z</time>
      </trkpt>
      <trkpt lat="49.2492" lon="0.00998">
        <ele>46.2</ele>
        <time>2024-10-13T07:09:17Z</time>
      </trkpt>
      <trkpt lat="49.2492" lon="0.01008">
        <ele>46.2</ele>
        <time>2024-10-13T07:09:18Z</time>
      </trkpt>
      <trkpt lat="49.2492" lon="0.01017">
        <ele>46.2</ele>
        <time>2024-10-13T07:09:19Z</time>
      </trkpt>
      <trkpt lat="49.24921" lon="0.01029">
        <ele>46.2</ele>
        <time>2024-10-13T07:09:20Z</time>
      </trkpt>
      <trkpt lat="49.24922" lon="0.0104">
        <ele>46.2</ele>
        <time>2024-10-13T07:09:21Z</time>
      </trkpt>
      <trkpt lat="49.24923" lon="0.01049">
        <ele>46</ele>
        <time>2024-10-13T07:09:22Z</time>
      </trkpt>
      <trkpt lat="49.24923" lon="0.01062">
        <ele>46.2</ele>
        <time>2024-10-13T07:09:23Z</time>
      </trkpt>
      <trkpt lat="49.24924" lon="0.01072">
        <ele>46.4</ele>
        <time>2024-10-13T07:09:24Z</time>
      </trkpt>
      <trkpt lat="49.24924" lon="0.01081">
        <ele>46.4</ele>
        <time>2024-10-13T07:09:25Z</time>
      </trkpt>
      <trkpt lat="49.24925" lon="0.01094">
        <ele>46.4</ele>
        <time>2024-10-13T07:09:26Z</time>
      </trkpt>
      <trkpt lat="49.24926" lon="0.01103">
        <ele>46.2</ele>
        <time>2024-10-13T07:09:27Z</time>
      </trkpt>
      <trkpt lat="49.24927" lon="0.01115">
        <ele>46.2</ele>
        <time>2024-10-13T07:09:28Z</time>
      </trkpt>
      <trkpt lat="49.24928" lon="0.01128">
        <ele>46.2</ele>
        <time>2024-10-13T07:09:29Z</time>
      </trkpt>
      <trkpt lat="49.24928" lon="0.01139">
        <ele>46.2</ele>
        <time>2024-10-13T07:09:30Z</time>
      </trkpt>
      <trkpt lat="49.24929" lon="0.01147">
        <ele>46</ele>
        <time>2024-10-13T07:09:31Z</time>
      </trkpt>
      <trkpt lat="49.2493" lon="0.01161">
        <ele>46</ele>
        <time>2024-10-13T07:09:32Z</time>
      </trkpt>
      <trkpt lat="49.2493" lon="0.01172">
        <ele>46</ele>
        <time>2024-10-13T07:09:33Z</time>
      </trkpt>
      <trkpt lat="49.24931" lon="0.01181">
        <ele>46</ele>
        <time>2024-10-13T07:09:34Z</time>
      </trkpt>
      <trkpt lat="49.24932" lon="0.01192">
        <ele>46</ele>
        <time>2024-10-13T07:09:35Z</time>
      </trkpt>
      <trkpt lat="49.24932" lon="0.01204">
        <ele>46</ele>
        <time>2024-10-13T07:09:36Z</time>
      </trkpt>
      <trkpt lat="49.24933" lon="0.01217">
        <ele>45.8</ele>
        <time>2024-10-13T07:09:37Z</time>
      </trkpt>
      <trkpt lat="49.24934" lon="0.01226">
        <ele>45.6</ele>
        <time>2024-10-13T07:09:38Z</time>
      </trkpt>
      <trkpt lat="49.24934" lon="0.0124">
        <ele>45.6</ele>
        <time>2024-10-13T07:09:39Z</time>
      </trkpt>
      <trkpt lat="49.24935" lon="0.01251">
        <ele>45.2</ele>
        <time>2024-10-13T07:09:40Z</time>
      </trkpt>
      <trkpt lat="49.24935" lon="0.0126">
        <ele>45</ele>
        <time>2024-10-13T07:09:41Z</time>
      </trkpt>
      <trkpt lat="49.24936" lon="0.01273">
        <ele>45</ele>
        <time>2024-10-13T07:09:42Z</time>
      </trkpt>
      <trkpt lat="49.24937" lon="0.01282">
        <ele>45</ele>
        <time>2024-10-13T07:09:43Z</time>
      </trkpt>
      <trkpt lat="49.24938" lon="0.01294">
        <ele>44.8</ele>
        <time>2024-10-13T07:09:44Z</time>
      </trkpt>
      <trkpt lat="49.24938" lon="0.01305">
        <ele>44.6</ele>
        <time>2024-10-13T07:09:45Z</time>
      </trkpt>
      <trkpt lat="49.24939" lon="0.01318">
        <ele>44.6</ele>
        <time>2024-10-13T07:09:46Z</time>
      </trkpt>
      <trkpt lat="49.2494" lon="0.01327">
        <ele>44.6</ele>
        <time>2024-10-13T07:09:47Z</time>
      </trkpt>
      <trkpt lat="49.2494" lon="0.01341">
        <ele>44.6</ele>
        <time>2024-10-13T07:09:48Z</time>
      </trkpt>
      <trkpt lat="49.24941" lon="0.01352">
        <ele>44.4</ele>
        <time>2024-10-13T07:09:49Z</time>
      </trkpt>
      <trkpt lat="49.24942" lon="0.01362">
        <ele>44.4</ele>
        <time>2024-10-13T07:09:50Z</time>
      </trkpt>
      <trkpt lat="49.24943" lon="0.01375">
        <ele>44.4</ele>
        <time>2024-10-13T07:09:51Z</time>
      </trkpt>
      <trkpt lat="49.24944" lon="0.01387">
        <ele>44.2</ele>
        <time>2024-10-13T07:09:52Z</time>
      </trkpt>
      <trkpt lat="49.24944" lon="0.01396">
        <ele>44.2</ele>
        <time>2024-10-13T07:09:53Z</time>
      </trkpt>
      <trkpt lat="49.24945" lon="0.0141">
        <ele>44.2</ele>
        <time>2024-10-13T07:09:54Z</time>
      </trkpt>
      <trkpt lat="49.24946" lon="0.01421">
        <ele>44</ele>
        <time>2024-10-13T07:09:55Z</time>
      </trkpt>
      <trkpt lat="49.24947" lon="0.0143">
        <ele>44</ele>
        <time>2024-10-13T07:09:56Z</time>
      </trkpt>
      <trkpt lat="49.24948" lon="0.01441">
        <ele>43.8</ele>
        <time>2024-10-13T07:09:57Z</time>
      </trkpt>
      <trkpt lat="49.24949" lon="0.01452">
        <ele>43.4</ele>
        <time>2024-10-13T07:09:58Z</time>
      </trkpt>
      <trkpt lat="49.24949" lon="0.01464">
        <ele>43.2</ele>
        <time>2024-10-13T07:09:59Z</time>
      </trkpt>
      <trkpt lat="49.2495" lon="0.01477">
        <ele>43</ele>
        <time>2024-10-13T07:10:00Z</time>
      </trkpt>
      <trkpt lat="49.24951" lon="0.01486">
        <ele>42.8</ele>
        <time>2024-10-13T07:10:01Z</time>
      </trkpt>
      <trkpt lat="49.24952" lon="0.01498">
        <ele>42.6</ele>
        <time>2024-10-13T07:10:02Z</time>
      </trkpt>
      <trkpt lat="49.24953" lon="0.01512">
        <ele>42.6</ele>
        <time>2024-10-13T07:10:03Z</time>
      </trkpt>
      <trkpt lat="49.24954" lon="0.01523">
        <ele>42.6</ele>
        <time>2024-10-13T07:10:04Z</time>
      </trkpt>
      <trkpt lat="49.24955" lon="0.01534">
        <ele>42.4</ele>
        <time>2024-10-13T07:10:05Z</time>
      </trkpt>
      <trkpt lat="49.24955" lon="0.01545">
        <ele>42.4</ele>
        <time>2024-10-13T07:10:06Z</time>
      </trkpt>
      <trkpt lat="49.24956" lon="0.01554">
        <ele>42.2</ele>
        <time>2024-10-13T07:10:07Z</time>
      </trkpt>
      <trkpt lat="49.24957" lon="0.01565">
        <ele>42</ele>
        <time>2024-10-13T07:10:08Z</time>
      </trkpt>
      <trkpt lat="49.24958" lon="0.01578">
        <ele>41.8</ele>
        <time>2024-10-13T07:10:09Z</time>
      </trkpt>
      <trkpt lat="49.24958" lon="0.01587">
        <ele>41.8</ele>
        <time>2024-10-13T07:10:10Z</time>
      </trkpt>
      <trkpt lat="49.24959" lon="0.01598">
        <ele>41.8</ele>
        <time>2024-10-13T07:10:11Z</time>
      </trkpt>
      <trkpt lat="49.2496" lon="0.01611">
        <ele>41.8</ele>
        <time>2024-10-13T07:10:12Z</time>
      </trkpt>
      <trkpt lat="49.2496" lon="0.0162">
        <ele>41.8</ele>
        <time>2024-10-13T07:10:13Z</time>
      </trkpt>
      <trkpt lat="49.24961" lon="0.01631">
        <ele>41.8</ele>
        <time>2024-10-13T07:10:14Z</time>
      </trkpt>
      <trkpt lat="49.24962" lon="0.01644">
        <ele>41.8</ele>
        <time>2024-10-13T07:10:15Z</time>
      </trkpt>
      <trkpt lat="49.24963" lon="0.01652">
        <ele>41.8</ele>
        <time>2024-10-13T07:10:16Z</time>
      </trkpt>
      <trkpt lat="49.24964" lon="0.01665">
        <ele>41.8</ele>
        <time>2024-10-13T07:10:17Z</time>
      </trkpt>
      <trkpt lat="49.24964" lon="0.01673">
        <ele>41.8</ele>
        <time>2024-10-13T07:10:18Z</time>
      </trkpt>
      <trkpt lat="49.24965" lon="0.01684">
        <ele>41.8</ele>
        <time>2024-10-13T07:10:19Z</time>
      </trkpt>
      <trkpt lat="49.24966" lon="0.01696">
        <ele>41.8</ele>
        <time>2024-10-13T07:10:20Z</time>
      </trkpt>
      <trkpt lat="49.24966" lon="0.01706">
        <ele>41.8</ele>
        <time>2024-10-13T07:10:21Z</time>
      </trkpt>
      <trkpt lat="49.24967" lon="0.01714">
        <ele>41.8</ele>
        <time>2024-10-13T07:10:22Z</time>
      </trkpt>
      <trkpt lat="49.24968" lon="0.01726">
        <ele>41.8</ele>
        <time>2024-10-13T07:10:23Z</time>
      </trkpt>
      <trkpt lat="49.24968" lon="0.01736">
        <ele>41.8</ele>
        <time>2024-10-13T07:10:24Z</time>
      </trkpt>
      <trkpt lat="49.24969" lon="0.01744">
        <ele>42</ele>
        <time>2024-10-13T07:10:25Z</time>
      </trkpt>
      <trkpt lat="49.2497" lon="0.01755">
        <ele>42</ele>
        <time>2024-10-13T07:10:26Z</time>
      </trkpt>
      <trkpt lat="49.24971" lon="0.01763">
        <ele>42.2</ele>
        <time>2024-10-13T07:10:27Z</time>
      </trkpt>
      <trkpt lat="49.24971" lon="0.01773">
        <ele>42.2</ele>
        <time>2024-10-13T07:10:28Z</time>
      </trkpt>
      <trkpt lat="49.24972" lon="0.01782">
        <ele>42.2</ele>
        <time>2024-10-13T07:10:29Z</time>
      </trkpt>
      <trkpt lat="49.24973" lon="0.01793">
        <ele>42.2</ele>
        <time>2024-10-13T07:10:30Z</time>
      </trkpt>
      <trkpt lat="49.24974" lon="0.01801">
        <ele>42.6</ele>
        <time>2024-10-13T07:10:31Z</time>
      </trkpt>
      <trkpt lat="49.24975" lon="0.01812">
        <ele>42.8</ele>
        <time>2024-10-13T07:10:32Z</time>
      </trkpt>
      <trkpt lat="49.24975" lon="0.01819">
        <ele>43</ele>
        <time>2024-10-13T07:10:33Z</time>
      </trkpt>
      <trkpt lat="49.24976" lon="0.01828">
        <ele>43.4</ele>
        <time>2024-10-13T07:10:34Z</time>
      </trkpt>
      <trkpt lat="49.24977" lon="0.01839">
        <ele>43.8</ele>
        <time>2024-10-13T07:10:35Z</time>
      </trkpt>
      <trkpt lat="49.24977" lon="0.01847">
        <ele>44</ele>
        <time>2024-10-13T07:10:36Z</time>
      </trkpt>
      <trkpt lat="49.24978" lon="0.01856">
        <ele>44.4</ele>
        <time>2024-10-13T07:10:37Z</time>
      </trkpt>
      <trkpt lat="49.24979" lon="0.01867">
        <ele>44.6</ele>
        <time>2024-10-13T07:10:38Z</time>
      </trkpt>
      <trkpt lat="49.2498" lon="0.01875">
        <ele>45</ele>
        <time>2024-10-13T07:10:39Z</time>
      </trkpt>
      <trkpt lat="49.2498" lon="0.01884">
        <ele>45.2</ele>
        <time>2024-10-13T07:10:40Z</time>
      </trkpt>
      <trkpt lat="49.24981" lon="0.01894">
        <ele>45.4</ele>
        <time>2024-10-13T07:10:41Z</time>
      </trkpt>
      <trkpt lat="49.24982" lon="0.01904">
        <ele>45.6</ele>
        <time>2024-10-13T07:10:42Z</time>
      </trkpt>
      <trkpt lat="49.24982" lon="0.01913">
        <ele>45.8</ele>
        <time>2024-10-13T07:10:43Z</time>
      </trkpt>
      <trkpt lat="49.24983" lon="0.01925">
        <ele>45.8</ele>
        <time>2024-10-13T07:10:44Z</time>
      </trkpt>
      <trkpt lat="49.24984" lon="0.01932">
        <ele>45.8</ele>
        <time>2024-10-13T07:10:45Z</time>
      </trkpt>
      <trkpt lat="49.24984" lon="0.01942">
        <ele>46.2</ele>
        <time>2024-10-13T07:10:46Z</time>
      </trkpt>
      <trkpt lat="49.24985" lon="0.01954">
        <ele>46.4</ele>
        <time>2024-10-13T07:10:47Z</time>
      </trkpt>
      <trkpt lat="49.24985" lon="0.01964">
        <ele>46.8</ele>
        <time>2024-10-13T07:10:48Z</time>
      </trkpt>
      <trkpt lat="49.24986" lon="0.01972">
        <ele>47</ele>
        <time>2024-10-13T07:10:49Z</time>
      </trkpt>
      <trkpt lat="49.24987" lon="0.01984">
        <ele>47.2</ele>
        <time>2024-10-13T07:10:50Z</time>
      </trkpt>
      <trkpt lat="49.24987" lon="0.01993">
        <ele>47.4</ele>
        <time>2024-10-13T07:10:51Z</time>
      </trkpt>
      <trkpt lat="49.24988" lon="0.02003">
        <ele>47.6</ele>
        <time>2024-10-13T07:10:52Z</time>
      </trkpt>
      <trkpt lat="49.24989" lon="0.02013">
        <ele>47.6</ele>
        <time>2024-10-13T07:10:53Z</time>
      </trkpt>
      <trkpt lat="49.24989" lon="0.02023">
        <ele>47.6</ele>
        <time>2024-10-13T07:10:54Z</time>
      </trkpt>
      <trkpt lat="49.2499" lon="0.02034">
        <ele>47.6</ele>
        <time>2024-10-13T07:10:55Z</time>
      </trkpt>
      <trkpt lat="49.24991" lon="0.02044">
        <ele>47.8</ele>
        <time>2024-10-13T07:10:56Z</time>
      </trkpt>
      <trkpt lat="49.24992" lon="0.02054">
        <ele>47.8</ele>
        <time>2024-10-13T07:10:57Z</time>
      </trkpt>
      <trkpt lat="49.24992" lon="0.02064">
        <ele>47.8</ele>
        <time>2024-10-13T07:10:58Z</time>
      </trkpt>
      <trkpt lat="49.24993" lon="0.02075">
        <ele>47.8</ele>
        <time>2024-10-13T07:10:59Z</time>
      </trkpt>
      <trkpt lat="49.24994" lon="0.02085">
        <ele>47.8</ele>
        <time>2024-10-13T07:11:00Z</time>
      </trkpt>
      <trkpt lat="49.24994" lon="0.02096">
        <ele>47.8</ele>
        <time>2024-10-13T07:11:01Z</time>
      </trkpt>
      <trkpt lat="49.24995" lon="0.02106">
        <ele>47.8</ele>
        <time>2024-10-13T07:11:02Z</time>
      </trkpt>
      <trkpt lat="49.24996" lon="0.02117">
        <ele>47.8</ele>
        <time>2024-10-13T07:11:03Z</time>
      </trkpt>
      <trkpt lat="49.24997" lon="0.02128">
        <ele>47.8</ele>
        <time>2024-10-13T07:11:04Z</time>
      </trkpt>
      <trkpt lat="49.24998" lon="0.02138">
        <ele>47.8</ele>
        <time>2024-10-13T07:11:05Z</time>
      </trkpt>
      <trkpt lat="49.24999" lon="0.02149">
        <ele>47.8</ele>
        <time>2024-10-13T07:11:06Z</time>
      </trkpt>
      <trkpt lat="49.25" lon="0.0216">
        <ele>47.8</ele>
        <time>2024-10-13T07:11:07Z</time>
      </trkpt>
      <trkpt lat="49.25001" lon="0.02171">
        <ele>47.8</ele>
        <time>2024-10-13T07:11:08Z</time>
      </trkpt>
      <trkpt lat="49.25001" lon="0.02181">
        <ele>47.6</ele>
        <time>2024-10-13T07:11:09Z</time>
      </trkpt>
      <trkpt lat="49.25002" lon="0.02194">
        <ele>47.6</ele>
        <time>2024-10-13T07:11:10Z</time>
      </trkpt>
      <trkpt lat="49.25003" lon="0.02205">
        <ele>47.6</ele>
        <time>2024-10-13T07:11:11Z</time>
      </trkpt>
      <trkpt lat="49.25004" lon="0.02216">
        <ele>47.6</ele>
        <time>2024-10-13T07:11:12Z</time>
      </trkpt>
      <trkpt lat="49.25005" lon="0.02224">
        <ele>47.6</ele>
        <time>2024-10-13T07:11:13Z</time>
      </trkpt>
      <trkpt lat="49.25005" lon="0.02235">
        <ele>47.6</ele>
        <time>2024-10-13T07:11:14Z</time>
      </trkpt>
      <trkpt lat="49.25006" lon="0.02246">
        <ele>47.4</ele>
        <time>2024-10-13T07:11:15Z</time>
      </trkpt>
      <trkpt lat="49.25007" lon="0.02258">
        <ele>47.4</ele>
        <time>2024-10-13T07:11:16Z</time>
      </trkpt>
      <trkpt lat="49.25008" lon="0.02267">
        <ele>47.4</ele>
        <time>2024-10-13T07:11:17Z</time>
      </trkpt>
      <trkpt lat="49.25009" lon="0.02277">
        <ele>47.4</ele>
        <time>2024-10-13T07:11:18Z</time>
      </trkpt>
      <trkpt lat="49.2501" lon="0.02288">
        <ele>47.4</ele>
        <time>2024-10-13T07:11:19Z</time>
      </trkpt>
      <trkpt lat="49.2501" lon="0.02298">
        <ele>47.4</ele>
        <time>2024-10-13T07:11:20Z</time>
      </trkpt>
      <trkpt lat="49.25011" lon="0.02308">
        <ele>47.4</ele>
        <time>2024-10-13T07:11:21Z</time>
      </trkpt>
      <trkpt lat="49.25012" lon="0.02319">
        <ele>47.4</ele>
        <time>2024-10-13T07:11:22Z</time>
      </trkpt>
      <trkpt lat="49.25012" lon="0.02329">
        <ele>47.4</ele>
        <time>2024-10-13T07:11:23Z</time>
      </trkpt>
      <trkpt lat="49.25013" lon="0.02339">
        <ele>47.4</ele>
        <time>2024-10-13T07:11:24Z</time>
      </trkpt>
      <trkpt lat="49.25014" lon="0.02349">
        <ele>47.4</ele>
        <time>2024-10-13T07:11:25Z</time>
      </trkpt>
      <trkpt lat="49.25015" lon="0.0236">
        <ele>47.6</ele>
        <time>2024-10-13T07:11:26Z</time>
      </trkpt>
      <trkpt lat="49.25016" lon="0.0237">
        <ele>47.6</ele>
        <time>2024-10-13T07:11:27Z</time>
      </trkpt>
      <trkpt lat="49.25017" lon="0.0238">
        <ele>47.6</ele>
        <time>2024-10-13T07:11:28Z</time>
      </trkpt>
      <trkpt lat="49.25017" lon="0.0239">
        <ele>47.6</ele>
        <time>2024-10-13T07:11:29Z</time>
      </trkpt>
      <trkpt lat="49.25018" lon="0.02401">
        <ele>47.6</ele>
        <time>2024-10-13T07:11:30Z</time>
      </trkpt>
      <trkpt lat="49.25019" lon="0.02413">
        <ele>47.6</ele>
        <time>2024-10-13T07:11:31Z</time>
      </trkpt>
      <trkpt lat="49.25019" lon="0.02421">
        <ele>47.8</ele>
        <time>2024-10-13T07:11:32Z</time>
      </trkpt>
      <trkpt lat="49.2502" lon="0.02432">
        <ele>47.8</ele>
        <time>2024-10-13T07:11:33Z</time>
      </trkpt>
      <trkpt lat="49.25021" lon="0.02444">
        <ele>48</ele>
        <time>2024-10-13T07:11:34Z</time>
      </trkpt>
      <trkpt lat="49.25021" lon="0.02453">
        <ele>48</ele>
        <time>2024-10-13T07:11:35Z</time>
      </trkpt>
      <trkpt lat="49.25022" lon="0.02463">
        <ele>48.2</ele>
        <time>2024-10-13T07:11:36Z</time>
      </trkpt>
      <trkpt lat="49.25023" lon="0.02473">
        <ele>48.4</ele>
        <time>2024-10-13T07:11:37Z</time>
      </trkpt>
      <trkpt lat="49.25024" lon="0.02483">
        <ele>48.6</ele>
        <time>2024-10-13T07:11:38Z</time>
      </trkpt>
      <trkpt lat="49.25025" lon="0.02495">
        <ele>48.8</ele>
        <time>2024-10-13T07:11:39Z</time>
      </trkpt>
      <trkpt lat="49.25025" lon="0.02503">
        <ele>48.8</ele>
        <time>2024-10-13T07:11:40Z</time>
      </trkpt>
      <trkpt lat="49.25026" lon="0.02514">
        <ele>49</ele>
        <time>2024-10-13T07:11:41Z</time>
      </trkpt>
      <trkpt lat="49.25026" lon="0.02526">
        <ele>49</ele>
        <time>2024-10-13T07:11:42Z</time>
      </trkpt>
      <trkpt lat="49.25027" lon="0.02534">
        <ele>49.2</ele>
        <time>2024-10-13T07:11:43Z</time>
      </trkpt>
      <trkpt lat="49.25028" lon="0.02544">
        <ele>49.2</ele>
        <time>2024-10-13T07:11:44Z</time>
      </trkpt>
      <trkpt lat="49.25028" lon="0.02554">
        <ele>49.6</ele>
        <time>2024-10-13T07:11:45Z</time>
      </trkpt>
      <trkpt lat="49.25029" lon="0.02565">
        <ele>49.8</ele>
        <time>2024-10-13T07:11:46Z</time>
      </trkpt>
      <trkpt lat="49.2503" lon="0.02575">
        <ele>49.8</ele>
        <time>2024-10-13T07:11:47Z</time>
      </trkpt>
      <trkpt lat="49.25031" lon="0.02586">
        <ele>50</ele>
        <time>2024-10-13T07:11:48Z</time>
      </trkpt>
      <trkpt lat="49.25032" lon="0.02594">
        <ele>50</ele>
        <time>2024-10-13T07:11:49Z</time>
      </trkpt>
      <trkpt lat="49.25032" lon="0.02603">
        <ele>50.2</ele>
        <time>2024-10-13T07:11:50Z</time>
      </trkpt>
      <trkpt lat="49.25033" lon="0.02615">
        <ele>50.2</ele>
        <time>2024-10-13T07:11:51Z</time>
      </trkpt>
      <trkpt lat="49.25034" lon="0.02622">
        <ele>50.4</ele>
        <time>2024-10-13T07:11:52Z</time>
      </trkpt>
      <trkpt lat="49.25035" lon="0.02631">
        <ele>50.4</ele>
        <time>2024-10-13T07:11:53Z</time>
      </trkpt>
      <trkpt lat="49.25035" lon="0.0264">
        <ele>50.4</ele>
        <time>2024-10-13T07:11:54Z</time>
      </trkpt>
      <trkpt lat="49.25036" lon="0.02648">
        <ele>50.6</ele>
        <time>2024-10-13T07:11:55Z</time>
      </trkpt>
      <trkpt lat="49.25036" lon="0.02657">
        <ele>50.8</ele>
        <time>2024-10-13T07:11:56Z</time>
      </trkpt>
      <trkpt lat="49.25037" lon="0.02665">
        <ele>51</ele>
        <time>2024-10-13T07:11:57Z</time>
      </trkpt>
      <trkpt lat="49.25037" lon="0.02673">
        <ele>51.4</ele>
        <time>2024-10-13T07:11:58Z</time>
      </trkpt>
      <trkpt lat="49.25037" lon="0.02681">
        <ele>51.6</ele>
        <time>2024-10-13T07:11:59Z</time>
      </trkpt>
      <trkpt lat="49.25037" lon="0.0269">
        <ele>51.8</ele>
        <time>2024-10-13T07:12:00Z</time>
      </trkpt>
      <trkpt lat="49.25037" lon="0.02696">
        <ele>52</ele>
        <time>2024-10-13T07:12:01Z</time>
      </trkpt>
      <trkpt lat="49.25037" lon="0.02703">
        <ele>52.4</ele>
        <time>2024-10-13T07:12:02Z</time>
      </trkpt>
      <trkpt lat="49.25036" lon="0.02712">
        <ele>52.8</ele>
        <time>2024-10-13T07:12:03Z</time>
      </trkpt>
      <trkpt lat="49.25036" lon="0.02718">
        <ele>53.2</ele>
        <time>2024-10-13T07:12:04Z</time>
      </trkpt>
      <trkpt lat="49.25035" lon="0.02725">
        <ele>53.4</ele>
        <time>2024-10-13T07:12:05Z</time>
      </trkpt>
      <trkpt lat="49.25034" lon="0.02732">
        <ele>53.6</ele>
        <time>2024-10-13T07:12:06Z</time>
      </trkpt>
      <trkpt lat="49.25033" lon="0.02739">
        <ele>54.2</ele>
        <time>2024-10-13T07:12:07Z</time>
      </trkpt>
      <trkpt lat="49.25032" lon="0.02746">
        <ele>54.4</ele>
        <time>2024-10-13T07:12:08Z</time>
      </trkpt>
      <trkpt lat="49.25031" lon="0.02754">
        <ele>54.6</ele>
        <time>2024-10-13T07:12:09Z</time>
      </trkpt>
      <trkpt lat="49.2503" lon="0.0276">
        <ele>55.2</ele>
        <time>2024-10-13T07:12:10Z</time>
      </trkpt>
      <trkpt lat="49.25029" lon="0.02767">
        <ele>55.4</ele>
        <time>2024-10-13T07:12:11Z</time>
      </trkpt>
      <trkpt lat="49.25028" lon="0.02775">
        <ele>55.8</ele>
        <time>2024-10-13T07:12:12Z</time>
      </trkpt>
      <trkpt lat="49.25027" lon="0.02781">
        <ele>56</ele>
        <time>2024-10-13T07:12:13Z</time>
      </trkpt>
      <trkpt lat="49.25026" lon="0.02787">
        <ele>56.4</ele>
        <time>2024-10-13T07:12:14Z</time>
      </trkpt>
      <trkpt lat="49.25025" lon="0.02794">
        <ele>56.6</ele>
        <time>2024-10-13T07:12:15Z</time>
      </trkpt>
      <trkpt lat="49.25024" lon="0.028">
        <ele>57</ele>
        <time>2024-10-13T07:12:16Z</time>
      </trkpt>
      <trkpt lat="49.25023" lon="0.02808">
        <ele>57.2</ele>
        <time>2024-10-13T07:12:17Z</time>
      </trkpt>
      <trkpt lat="49.25022" lon="0.02814">
        <ele>57.4</ele>
        <time>2024-10-13T07:12:18Z</time>
      </trkpt>
      <trkpt lat="49.25021" lon="0.0282">
        <ele>57.6</ele>
        <time>2024-10-13T07:12:19Z</time>
      </trkpt>
      <trkpt lat="49.2502" lon="0.02827">
        <ele>58</ele>
        <time>2024-10-13T07:12:20Z</time>
      </trkpt>
      <trkpt lat="49.25019" lon="0.02834">
        <ele>58.4</ele>
        <time>2024-10-13T07:12:21Z</time>
      </trkpt>
      <trkpt lat="49.25018" lon="0.02839">
        <ele>58.6</ele>
        <time>2024-10-13T07:12:22Z</time>
      </trkpt>
      <trkpt lat="49.25017" lon="0.02847">
        <ele>58.8</ele>
        <time>2024-10-13T07:12:23Z</time>
      </trkpt>
      <trkpt lat="49.25016" lon="0.02853">
        <ele>59.2</ele>
        <time>2024-10-13T07:12:24Z</time>
      </trkpt>
      <trkpt lat="49.25015" lon="0.02858">
        <ele>59.4</ele>
        <time>2024-10-13T07:12:25Z</time>
      </trkpt>
      <trkpt lat="49.25014" lon="0.02866">
        <ele>59.6</ele>
        <time>2024-10-13T07:12:26Z</time>
      </trkpt>
      <trkpt lat="49.25013" lon="0.02871">
        <ele>60</ele>
        <time>2024-10-13T07:12:27Z</time>
      </trkpt>
      <trkpt lat="49.25012" lon="0.02878">
        <ele>60.2</ele>
        <time>2024-10-13T07:12:28Z</time>
      </trkpt>
      <trkpt lat="49.25011" lon="0.02885">
        <ele>60.6</ele>
        <time>2024-10-13T07:12:29Z</time>
      </trkpt>
      <trkpt lat="49.25011" lon="0.02892">
        <ele>60.8</ele>
        <time>2024-10-13T07:12:30Z</time>
      </trkpt>
      <trkpt lat="49.2501" lon="0.02899">
        <ele>61.2</ele>
        <time>2024-10-13T07:12:31Z</time>
      </trkpt>
      <trkpt lat="49.25009" lon="0.02905">
        <ele>61.6</ele>
        <time>2024-10-13T07:12:32Z</time>
      </trkpt>
      <trkpt lat="49.25008" lon="0.02912">
        <ele>61.6</ele>
        <time>2024-10-13T07:12:33Z</time>
      </trkpt>
      <trkpt lat="49.25007" lon="0.02918">
        <ele>62</ele>
        <time>2024-10-13T07:12:34Z</time>
      </trkpt>
      <trkpt lat="49.25006" lon="0.02925">
        <ele>62.2</ele>
        <time>2024-10-13T07:12:35Z</time>
      </trkpt>
      <trkpt lat="49.25005" lon="0.02931">
        <ele>62.4</ele>
        <time>2024-10-13T07:12:36Z</time>
      </trkpt>
      <trkpt lat="49.25005" lon="0.02936">
        <ele>62.6</ele>
        <time>2024-10-13T07:12:37Z</time>
      </trkpt>
      <trkpt lat="49.25003" lon="0.02944">
        <ele>62.8</ele>
        <time>2024-10-13T07:12:38Z</time>
      </trkpt>
      <trkpt lat="49.25003" lon="0.02951">
        <ele>63</ele>
        <time>2024-10-13T07:12:39Z</time>
      </trkpt>
      <trkpt lat="49.25002" lon="0.02957">
        <ele>63.4</ele>
        <time>2024-10-13T07:12:40Z</time>
      </trkpt>
      <trkpt lat="49.25001" lon="0.02963">
        <ele>63.8</ele>
        <time>2024-10-13T07:12:41Z</time>
      </trkpt>
      <trkpt lat="49.25" lon="0.02969">
        <ele>64</ele>
        <time>2024-10-13T07:12:42Z</time>
      </trkpt>
      <trkpt lat="49.24999" lon="0.02975">
        <ele>64.2</ele>
        <time>2024-10-13T07:12:43Z</time>
      </trkpt>
      <trkpt lat="49.24998" lon="0.02981">
        <ele>65</ele>
        <time>2024-10-13T07:12:44Z</time>
      </trkpt>
      <trkpt lat="49.24998" lon="0.02988">
        <ele>65.2</ele>
        <time>2024-10-13T07:12:45Z</time>
      </trkpt>
      <trkpt lat="49.24997" lon="0.02994">
        <ele>65.4</ele>
        <time>2024-10-13T07:12:46Z</time>
      </trkpt>
      <trkpt lat="49.24996" lon="0.03">
        <ele>65.8</ele>
        <time>2024-10-13T07:12:47Z</time>
      </trkpt>
      <trkpt lat="49.24995" lon="0.03006">
        <ele>66</ele>
        <time>2024-10-13T07:12:48Z</time>
      </trkpt>
      <trkpt lat="49.24995" lon="0.03011">
        <ele>66.4</ele>
        <time>2024-10-13T07:12:49Z</time>
      </trkpt>
      <trkpt lat="49.24994" lon="0.03019">
        <ele>66.6</ele>
        <time>2024-10-13T07:12:50Z</time>
      </trkpt>
      <trkpt lat="49.24993" lon="0.03025">
        <ele>67</ele>
        <time>2024-10-13T07:12:51Z</time>
      </trkpt>
      <trkpt lat="49.24992" lon="0.03031">
        <ele>67.2</ele>
        <time>2024-10-13T07:12:52Z</time>
      </trkpt>
      <trkpt lat="49.24991" lon="0.03037">
        <ele>67.6</ele>
        <time>2024-10-13T07:12:53Z</time>
      </trkpt>
      <trkpt lat="49.24991" lon="0.03043">
        <ele>67.8</ele>
        <time>2024-10-13T07:12:54Z</time>
      </trkpt>
      <trkpt lat="49.2499" lon="0.0305">
        <ele>68.2</ele>
        <time>2024-10-13T07:12:55Z</time>
      </trkpt>
      <trkpt lat="49.24989" lon="0.03056">
        <ele>68.4</ele>
        <time>2024-10-13T07:12:56Z</time>
      </trkpt>
      <trkpt lat="49.24988" lon="0.03062">
        <ele>68.6</ele>
        <time>2024-10-13T07:12:57Z</time>
      </trkpt>
      <trkpt lat="49.24988" lon="0.03068">
        <ele>69</ele>
        <time>2024-10-13T07:12:58Z</time>
      </trkpt>
      <trkpt lat="49.24988" lon="0.03074">
        <ele>69.2</ele>
        <time>2024-10-13T07:12:59Z</time>
      </trkpt>
      <trkpt lat="49.24988" lon="0.03081">
        <ele>69.4</ele>
        <time>2024-10-13T07:13:00Z</time>
      </trkpt>
      <trkpt lat="49.24987" lon="0.03087">
        <ele>69.6</ele>
        <time>2024-10-13T07:13:01Z</time>
      </trkpt>
      <trkpt lat="49.24988" lon="0.03093">
        <ele>70</ele>
        <time>2024-10-13T07:13:02Z</time>
      </trkpt>
      <trkpt lat="49.24988" lon="0.03099">
        <ele>70.4</ele>
        <time>2024-10-13T07:13:03Z</time>
      </trkpt>
      <trkpt lat="49.24988" lon="0.03105">
        <ele>70.6</ele>
        <time>2024-10-13T07:13:04Z</time>
      </trkpt>
      <trkpt lat="49.24988" lon="0.03112">
        <ele>70.8</ele>
        <time>2024-10-13T07:13:05Z</time>
      </trkpt>
      <trkpt lat="49.24989" lon="0.03118">
        <ele>71</ele>
        <time>2024-10-13T07:13:06Z</time>
      </trkpt>
      <trkpt lat="49.24989" lon="0.03124">
        <ele>71.2</ele>
        <time>2024-10-13T07:13:07Z</time>
      </trkpt>
      <trkpt lat="49.2499" lon="0.0313">
        <ele>71.8</ele>
        <time>2024-10-13T07:13:08Z</time>
      </trkpt>
      <trkpt lat="49.24991" lon="0.03136">
        <ele>72</ele>
        <time>2024-10-13T07:13:09Z</time>
      </trkpt>
      <trkpt lat="49.24992" lon="0.03141">
        <ele>72.2</ele>
        <time>2024-10-13T07:13:10Z</time>
      </trkpt>
      <trkpt lat="49.24994" lon="0.03146">
        <ele>72.4</ele>
        <time>2024-10-13T07:13:11Z</time>
      </trkpt>
      <trkpt lat="49.24995" lon="0.03154">
        <ele>72.8</ele>
        <time>2024-10-13T07:13:12Z</time>
      </trkpt>
      <trkpt lat="49.24997" lon="0.03159">
        <ele>73</ele>
        <time>2024-10-13T07:13:13Z</time>
      </trkpt>
      <trkpt lat="49.24998" lon="0.03165">
        <ele>73.2</ele>
        <time>2024-10-13T07:13:14Z</time>
      </trkpt>
      <trkpt lat="49.25" lon="0.03171">
        <ele>73.4</ele>
        <time>2024-10-13T07:13:15Z</time>
      </trkpt>
      <trkpt lat="49.25001" lon="0.03176">
        <ele>73.6</ele>
        <time>2024-10-13T07:13:16Z</time>
      </trkpt>
      <trkpt lat="49.25003" lon="0.03182">
        <ele>74</ele>
        <time>2024-10-13T07:13:17Z</time>
      </trkpt>
      <trkpt lat="49.25005" lon="0.03188">
        <ele>74.2</ele>
        <time>2024-10-13T07:13:18Z</time>
      </trkpt>
      <trkpt lat="49.25006" lon="0.03193">
        <ele>74.4</ele>
        <time>2024-10-13T07:13:19Z</time>
      </trkpt>
      <trkpt lat="49.25008" lon="0.03199">
        <ele>74.6</ele>
        <time>2024-10-13T07:13:20Z</time>
      </trkpt>
      <trkpt lat="49.2501" lon="0.03204">
        <ele>75</ele>
        <time>2024-10-13T07:13:21Z</time>
      </trkpt>
      <trkpt lat="49.25011" lon="0.0321">
        <ele>75.2</ele>
        <time>2024-10-13T07:13:22Z</time>
      </trkpt>
      <trkpt lat="49.25013" lon="0.03215">
        <ele>75.4</ele>
        <time>2024-10-13T07:13:23Z</time>
      </trkpt>
      <trkpt lat="49.25015" lon="0.0322">
        <ele>75.6</ele>
        <time>2024-10-13T07:13:24Z</time>
      </trkpt>
      <trkpt lat="49.25016" lon="0.03226">
        <ele>75.8</ele>
        <time>2024-10-13T07:13:25Z</time>
      </trkpt>
      <trkpt lat="49.25018" lon="0.03231">
        <ele>76</ele>
        <time>2024-10-13T07:13:26Z</time>
      </trkpt>
      <trkpt lat="49.2502" lon="0.03236">
        <ele>76.2</ele>
        <time>2024-10-13T07:13:27Z</time>
      </trkpt>
      <trkpt lat="49.25022" lon="0.03242">
        <ele>76.4</ele>
        <time>2024-10-13T07:13:28Z</time>
      </trkpt>
      <trkpt lat="49.25023" lon="0.03247">
        <ele>76.6</ele>
        <time>2024-10-13T07:13:29Z</time>
      </trkpt>
      <trkpt lat="49.25025" lon="0.03253">
        <ele>77</ele>
        <time>2024-10-13T07:13:30Z</time>
      </trkpt>
      <trkpt lat="49.25027" lon="0.03258">
        <ele>77.2</ele>
        <time>2024-10-13T07:13:31Z</time>
      </trkpt>
      <trkpt lat="49.25028" lon="0.03262">
        <ele>77.6</ele>
        <time>2024-10-13T07:13:32Z</time>
      </trkpt>
      <trkpt lat="49.2503" lon="0.03268">
        <ele>77.8</ele>
        <time>2024-10-13T07:13:33Z</time>
      </trkpt>
      <trkpt lat="49.25031" lon="0.03273">
        <ele>78.2</ele>
        <time>2024-10-13T07:13:34Z</time>
      </trkpt>
      <trkpt lat="49.25033" lon="0.03279">
        <ele>78.4</ele>
        <time>2024-10-13T07:13:35Z</time>
      </trkpt>
      <trkpt lat="49.25035" lon="0.03285">
        <ele>78.6</ele>
        <time>2024-10-13T07:13:36Z</time>
      </trkpt>
      <trkpt lat="49.25036" lon="0.0329">
        <ele>78.8</ele>
        <time>2024-10-13T07:13:37Z</time>
      </trkpt>
      <trkpt lat="49.25038" lon="0.03296">
        <ele>78.8</ele>
        <time>2024-10-13T07:13:38Z</time>
      </trkpt>
      <trkpt lat="49.2504" lon="0.03301">
        <ele>79</ele>
        <time>2024-10-13T07:13:39Z</time>
      </trkpt>
      <trkpt lat="49.25041" lon="0.03306">
        <ele>79.2</ele>
        <time>2024-10-13T07:13:40Z</time>
      </trkpt>
      <trkpt lat="49.25043" lon="0.03311">
        <ele>79.4</ele>
        <time>2024-10-13T07:13:41Z</time>
      </trkpt>
      <trkpt lat="49.25045" lon="0.03317">
        <ele>79.8</ele>
        <time>2024-10-13T07:13:42Z</time>
      </trkpt>
      <trkpt lat="49.25047" lon="0.03322">
        <ele>80</ele>
        <time>2024-10-13T07:13:43Z</time>
      </trkpt>
      <trkpt lat="49.25048" lon="0.03328">
        <ele>80.2</ele>
        <time>2024-10-13T07:13:44Z</time>
      </trkpt>
      <trkpt lat="49.2505" lon="0.03333">
        <ele>80.4</ele>
        <time>2024-10-13T07:13:45Z</time>
      </trkpt>
      <trkpt lat="49.25052" lon="0.03339">
        <ele>80.6</ele>
        <time>2024-10-13T07:13:46Z</time>
      </trkpt>
      <trkpt lat="49.25053" lon="0.03343">
        <ele>81</ele>
        <time>2024-10-13T07:13:47Z</time>
      </trkpt>
      <trkpt lat="49.25055" lon="0.03349">
        <ele>81.4</ele>
        <time>2024-10-13T07:13:48Z</time>
      </trkpt>
      <trkpt lat="49.25056" lon="0.03354">
        <ele>81.6</ele>
        <time>2024-10-13T07:13:49Z</time>
      </trkpt>
      <trkpt lat="49.25058" lon="0.0336">
        <ele>82</ele>
        <time>2024-10-13T07:13:50Z</time>
      </trkpt>
      <trkpt lat="49.25059" lon="0.03365">
        <ele>82.2</ele>
        <time>2024-10-13T07:13:51Z</time>
      </trkpt>
      <trkpt lat="49.25061" lon="0.0337">
        <ele>82.4</ele>
        <time>2024-10-13T07:13:52Z</time>
      </trkpt>
      <trkpt lat="49.25063" lon="0.03376">
        <ele>82.6</ele>
        <time>2024-10-13T07:13:53Z</time>
      </trkpt>
      <trkpt lat="49.25064" lon="0.0338">
        <ele>82.8</ele>
        <time>2024-10-13T07:13:54Z</time>
      </trkpt>
      <trkpt lat="49.25066" lon="0.03386">
        <ele>83.2</ele>
        <time>2024-10-13T07:13:55Z</time>
      </trkpt>
      <trkpt lat="49.25067" lon="0.03392">
        <ele>83.4</ele>
        <time>2024-10-13T07:13:56Z</time>
      </trkpt>
      <trkpt lat="49.25069" lon="0.03397">
        <ele>83.6</ele>
        <time>2024-10-13T07:13:57Z</time>
      </trkpt>
      <trkpt lat="49.25071" lon="0.03403">
        <ele>83.8</ele>
        <time>2024-10-13T07:13:58Z</time>
      </trkpt>
      <trkpt lat="49.25072" lon="0.03408">
        <ele>83.8</ele>
        <time>2024-10-13T07:13:59Z</time>
      </trkpt>
      <trkpt lat="49.25073" lon="0.03414">
        <ele>84.2</ele>
        <time>2024-10-13T07:14:00Z</time>
      </trkpt>
      <trkpt lat="49.25075" lon="0.03419">
        <ele>84.4</ele>
        <time>2024-10-13T07:14:01Z</time>
      </trkpt>
      <trkpt lat="49.25076" lon="0.03425">
        <ele>84.6</ele>
        <time>2024-10-13T07:14:02Z</time>
      </trkpt>
      <trkpt lat="49.25077" lon="0.0343">
        <ele>84.8</ele>
        <time>2024-10-13T07:14:03Z</time>
      </trkpt>
      <trkpt lat="49.25078" lon="0.03436">
        <ele>85</ele>
        <time>2024-10-13T07:14:04Z</time>
      </trkpt>
      <trkpt lat="49.25079" lon="0.0344">
        <ele>85.2</ele>
        <time>2024-10-13T07:14:05Z</time>
      </trkpt>
      <trkpt lat="49.25081" lon="0.03447">
        <ele>85.4</ele>
        <time>2024-10-13T07:14:06Z</time>
      </trkpt>
      <trkpt lat="49.25082" lon="0.03453">
        <ele>85.6</ele>
        <time>2024-10-13T07:14:07Z</time>
      </trkpt>
      <trkpt lat="49.25083" lon="0.03457">
        <ele>85.8</ele>
        <time>2024-10-13T07:14:08Z</time>
      </trkpt>
      <trkpt lat="49.25085" lon="0.03464">
        <ele>86.2</ele>
        <time>2024-10-13T07:14:09Z</time>
      </trkpt>
      <trkpt lat="49.25086" lon="0.0347">
        <ele>86.2</ele>
        <time>2024-10-13T07:14:10Z</time>
      </trkpt>
      <trkpt lat="49.25087" lon="0.03475">
        <ele>86.6</ele>
        <time>2024-10-13T07:14:11Z</time>
      </trkpt>
      <trkpt lat="49.25089" lon="0.03481">
        <ele>86.8</ele>
        <time>2024-10-13T07:14:12Z</time>
      </trkpt>
      <trkpt lat="49.25091" lon="0.03487">
        <ele>87</ele>
        <time>2024-10-13T07:14:13Z</time>
      </trkpt>
      <trkpt lat="49.25091" lon="0.03492">
        <ele>87.2</ele>
        <time>2024-10-13T07:14:14Z</time>
      </trkpt>
      <trkpt lat="49.25093" lon="0.03497">
        <ele>87.4</ele>
        <time>2024-10-13T07:14:15Z</time>
      </trkpt>
      <trkpt lat="49.25094" lon="0.03503">
        <ele>87.8</ele>
        <time>2024-10-13T07:14:16Z</time>
      </trkpt>
      <trkpt lat="49.25095" lon="0.03508">
        <ele>88</ele>
        <time>2024-10-13T07:14:17Z</time>
      </trkpt>
      <trkpt lat="49.25096" lon="0.03515">
        <ele>88.2</ele>
        <time>2024-10-13T07:14:18Z</time>
      </trkpt>
      <trkpt lat="49.25097" lon="0.0352">
        <ele>88.4</ele>
        <time>2024-10-13T07:14:19Z</time>
      </trkpt>
      <trkpt lat="49.25098" lon="0.03526">
        <ele>88.6</ele>
        <time>2024-10-13T07:14:20Z</time>
      </trkpt>
      <trkpt lat="49.25099" lon="0.03532">
        <ele>88.8</ele>
        <time>2024-10-13T07:14:21Z</time>
      </trkpt>
      <trkpt lat="49.251" lon="0.03537">
        <ele>89</ele>
        <time>2024-10-13T07:14:22Z</time>
      </trkpt>
      <trkpt lat="49.25101" lon="0.03542">
        <ele>89.2</ele>
        <time>2024-10-13T07:14:23Z</time>
      </trkpt>
      <trkpt lat="49.25102" lon="0.03549">
        <ele>89.6</ele>
        <time>2024-10-13T07:14:24Z</time>
      </trkpt>
      <trkpt lat="49.25103" lon="0.03554">
        <ele>89.8</ele>
        <time>2024-10-13T07:14:25Z</time>
      </trkpt>
      <trkpt lat="49.25104" lon="0.0356">
        <ele>90</ele>
        <time>2024-10-13T07:14:26Z</time>
      </trkpt>
      <trkpt lat="49.25105" lon="0.03566">
        <ele>90.2</ele>
        <time>2024-10-13T07:14:27Z</time>
      </trkpt>
      <trkpt lat="49.25106" lon="0.03572">
        <ele>90.4</ele>
        <time>2024-10-13T07:14:28Z</time>
      </trkpt>
      <trkpt lat="49.25106" lon="0.03577">
        <ele>90.6</ele>
        <time>2024-10-13T07:14:29Z</time>
      </trkpt>
      <trkpt lat="49.25107" lon="0.03583">
        <ele>90.8</ele>
        <time>2024-10-13T07:14:30Z</time>
      </trkpt>
      <trkpt lat="49.25107" lon="0.03589">
        <ele>91</ele>
        <time>2024-10-13T07:14:31Z</time>
      </trkpt>
      <trkpt lat="49.25107" lon="0.03595">
        <ele>91.2</ele>
        <time>2024-10-13T07:14:32Z</time>
      </trkpt>
      <trkpt lat="49.25108" lon="0.036">
        <ele>91.6</ele>
        <time>2024-10-13T07:14:33Z</time>
      </trkpt>
      <trkpt lat="49.25109" lon="0.03606">
        <ele>91.8</ele>
        <time>2024-10-13T07:14:34Z</time>
      </trkpt>
      <trkpt lat="49.25109" lon="0.03612">
        <ele>92</ele>
        <time>2024-10-13T07:14:35Z</time>
      </trkpt>
      <trkpt lat="49.2511" lon="0.03617">
        <ele>92.2</ele>
        <time>2024-10-13T07:14:36Z</time>
      </trkpt>
      <trkpt lat="49.2511" lon="0.03623">
        <ele>92.4</ele>
        <time>2024-10-13T07:14:37Z</time>
      </trkpt>
      <trkpt lat="49.2511" lon="0.03629">
        <ele>92.8</ele>
        <time>2024-10-13T07:14:38Z</time>
      </trkpt>
      <trkpt lat="49.25111" lon="0.03634">
        <ele>93</ele>
        <time>2024-10-13T07:14:39Z</time>
      </trkpt>
      <trkpt lat="49.25111" lon="0.0364">
        <ele>93.2</ele>
        <time>2024-10-13T07:14:40Z</time>
      </trkpt>
      <trkpt lat="49.25112" lon="0.03646">
        <ele>93.4</ele>
        <time>2024-10-13T07:14:41Z</time>
      </trkpt>
      <trkpt lat="49.25112" lon="0.03651">
        <ele>93.6</ele>
        <time>2024-10-13T07:14:42Z</time>
      </trkpt>
      <trkpt lat="49.25113" lon="0.03657">
        <ele>94</ele>
        <time>2024-10-13T07:14:43Z</time>
      </trkpt>
      <trkpt lat="49.25114" lon="0.03662">
        <ele>94.2</ele>
        <time>2024-10-13T07:14:44Z</time>
      </trkpt>
      <trkpt lat="49.25114" lon="0.03667">
        <ele>94.4</ele>
        <time>2024-10-13T07:14:45Z</time>
      </trkpt>
      <trkpt lat="49.25114" lon="0.03673">
        <ele>94.6</ele>
        <time>2024-10-13T07:14:46Z</time>
      </trkpt>
      <trkpt lat="49.25114" lon="0.03679">
        <ele>94.8</ele>
        <time>2024-10-13T07:14:47Z</time>
      </trkpt>
      <trkpt lat="49.25115" lon="0.03684">
        <ele>95.2</ele>
        <time>2024-10-13T07:14:48Z</time>
      </trkpt>
      <trkpt lat="49.25115" lon="0.0369">
        <ele>95.4</ele>
        <time>2024-10-13T07:14:49Z</time>
      </trkpt>
      <trkpt lat="49.25115" lon="0.03695">
        <ele>96</ele>
        <time>2024-10-13T07:14:50Z</time>
      </trkpt>
      <trkpt lat="49.25116" lon="0.03701">
        <ele>96.2</ele>
        <time>2024-10-13T07:14:51Z</time>
      </trkpt>
      <trkpt lat="49.25117" lon="0.03706">
        <ele>96.4</ele>
        <time>2024-10-13T07:14:52Z</time>
      </trkpt>
      <trkpt lat="49.25117" lon="0.03712">
        <ele>96.6</ele>
        <time>2024-10-13T07:14:53Z</time>
      </trkpt>
      <trkpt lat="49.25118" lon="0.03717">
        <ele>97</ele>
        <time>2024-10-13T07:14:54Z</time>
      </trkpt>
      <trkpt lat="49.25118" lon="0.03723">
        <ele>97.2</ele>
        <time>2024-10-13T07:14:55Z</time>
      </trkpt>
      <trkpt lat="49.25118" lon="0.03728">
        <ele>97.4</ele>
        <time>2024-10-13T07:14:56Z</time>
      </trkpt>
      <trkpt lat="49.25119" lon="0.03733">
        <ele>97.6</ele>
        <time>2024-10-13T07:14:57Z</time>
      </trkpt>
      <trkpt lat="49.25119" lon="0.03737">
        <ele>97.8</ele>
        <time>2024-10-13T07:14:58Z</time>
      </trkpt>
      <trkpt lat="49.25119" lon="0.03743">
        <ele>98</ele>
        <time>2024-10-13T07:14:59Z</time>
      </trkpt>
      <trkpt lat="49.25119" lon="0.03749">
        <ele>98.2</ele>
        <time>2024-10-13T07:15:00Z</time>
      </trkpt>
      <trkpt lat="49.25119" lon="0.03755">
        <ele>98.6</ele>
        <time>2024-10-13T07:15:01Z</time>
      </trkpt>
      <trkpt lat="49.2512" lon="0.0376">
        <ele>98.8</ele>
        <time>2024-10-13T07:15:02Z</time>
      </trkpt>
      <trkpt lat="49.2512" lon="0.03766">
        <ele>99</ele>
        <time>2024-10-13T07:15:03Z</time>
      </trkpt>
      <trkpt lat="49.2512" lon="0.03771">
        <ele>99</ele>
        <time>2024-10-13T07:15:04Z</time>
      </trkpt>
      <trkpt lat="49.2512" lon="0.03777">
        <ele>99.2</ele>
        <time>2024-10-13T07:15:05Z</time>
      </trkpt>
      <trkpt lat="49.25121" lon="0.03783">
        <ele>99.4</ele>
        <time>2024-10-13T07:15:06Z</time>
      </trkpt>
      <trkpt lat="49.25121" lon="0.03788">
        <ele>99.6</ele>
        <time>2024-10-13T07:15:07Z</time>
      </trkpt>
      <trkpt lat="49.25122" lon="0.03794">
        <ele>100</ele>
        <time>2024-10-13T07:15:08Z</time>
      </trkpt>
      <trkpt lat="49.25122" lon="0.038">
        <ele>100.2</ele>
        <time>2024-10-13T07:15:09Z</time>
      </trkpt>
      <trkpt lat="49.25122" lon="0.03805">
        <ele>100.6</ele>
        <time>2024-10-13T07:15:10Z</time>
      </trkpt>
      <trkpt lat="49.25122" lon="0.03811">
        <ele>100.8</ele>
        <time>2024-10-13T07:15:11Z</time>
      </trkpt>
      <trkpt lat="49.25122" lon="0.03817">
        <ele>101</ele>
        <time>2024-10-13T07:15:12Z</time>
      </trkpt>
      <trkpt lat="49.25123" lon="0.03822">
        <ele>101.2</ele>
        <time>2024-10-13T07:15:13Z</time>
      </trkpt>
      <trkpt lat="49.25123" lon="0.03827">
        <ele>101.2</ele>
        <time>2024-10-13T07:15:14Z</time>
      </trkpt>
      <trkpt lat="49.25124" lon="0.03833">
        <ele>101.6</ele>
        <time>2024-10-13T07:15:15Z</time>
      </trkpt>
      <trkpt lat="49.25124" lon="0.03839">
        <ele>101.8</ele>
        <time>2024-10-13T07:15:16Z</time>
      </trkpt>
      <trkpt lat="49.25124" lon="0.03844">
        <ele>102</ele>
        <time>2024-10-13T07:15:17Z</time>
      </trkpt>
      <trkpt lat="49.25125" lon="0.0385">
        <ele>102.2</ele>
        <time>2024-10-13T07:15:18Z</time>
      </trkpt>
      <trkpt lat="49.25125" lon="0.03854">
        <ele>102.4</ele>
        <time>2024-10-13T07:15:19Z</time>
      </trkpt>
      <trkpt lat="49.25125" lon="0.0386">
        <ele>102.8</ele>
        <time>2024-10-13T07:15:20Z</time>
      </trkpt>
      <trkpt lat="49.25126" lon="0.03867">
        <ele>103</ele>
        <time>2024-10-13T07:15:21Z</time>
      </trkpt>
      <trkpt lat="49.25127" lon="0.03872">
        <ele>103.2</ele>
        <time>2024-10-13T07:15:22Z</time>
      </trkpt>
      <trkpt lat="49.25127" lon="0.03878">
        <ele>103.4</ele>
        <time>2024-10-13T07:15:23Z</time>
      </trkpt>
      <trkpt lat="49.25128" lon="0.03884">
        <ele>103.8</ele>
        <time>2024-10-13T07:15:24Z</time>
      </trkpt>
      <trkpt lat="49.25128" lon="0.03889">
        <ele>104</ele>
        <time>2024-10-13T07:15:25Z</time>
      </trkpt>
      <trkpt lat="49.25129" lon="0.03895">
        <ele>104.4</ele>
        <time>2024-10-13T07:15:26Z</time>
      </trkpt>
      <trkpt lat="49.2513" lon="0.03901">
        <ele>104.6</ele>
        <time>2024-10-13T07:15:27Z</time>
      </trkpt>
      <trkpt lat="49.2513" lon="0.03906">
        <ele>104.8</ele>
        <time>2024-10-13T07:15:28Z</time>
      </trkpt>
      <trkpt lat="49.25131" lon="0.03912">
        <ele>105</ele>
        <time>2024-10-13T07:15:29Z</time>
      </trkpt>
      <trkpt lat="49.25132" lon="0.03918">
        <ele>105.4</ele>
        <time>2024-10-13T07:15:30Z</time>
      </trkpt>
      <trkpt lat="49.25133" lon="0.03923">
        <ele>105.6</ele>
        <time>2024-10-13T07:15:31Z</time>
      </trkpt>
      <trkpt lat="49.25134" lon="0.03929">
        <ele>105.8</ele>
        <time>2024-10-13T07:15:32Z</time>
      </trkpt>
      <trkpt lat="49.25135" lon="0.03934">
        <ele>106.2</ele>
        <time>2024-10-13T07:15:33Z</time>
      </trkpt>
      <trkpt lat="49.25136" lon="0.0394">
        <ele>106.4</ele>
        <time>2024-10-13T07:15:34Z</time>
      </trkpt>
      <trkpt lat="49.25137" lon="0.03945">
        <ele>106.6</ele>
        <time>2024-10-13T07:15:35Z</time>
      </trkpt>
      <trkpt lat="49.25138" lon="0.0395">
        <ele>106.8</ele>
        <time>2024-10-13T07:15:36Z</time>
      </trkpt>
      <trkpt lat="49.2514" lon="0.03956">
        <ele>107.2</ele>
        <time>2024-10-13T07:15:37Z</time>
      </trkpt>
      <trkpt lat="49.25141" lon="0.03962">
        <ele>107.6</ele>
        <time>2024-10-13T07:15:38Z</time>
      </trkpt>
      <trkpt lat="49.25143" lon="0.03967">
        <ele>108</ele>
        <time>2024-10-13T07:15:39Z</time>
      </trkpt>
      <trkpt lat="49.25144" lon="0.03972">
        <ele>108.2</ele>
        <time>2024-10-13T07:15:40Z</time>
      </trkpt>
      <trkpt lat="49.25146" lon="0.03976">
        <ele>108.4</ele>
        <time>2024-10-13T07:15:41Z</time>
      </trkpt>
      <trkpt lat="49.25148" lon="0.03981">
        <ele>108.6</ele>
        <time>2024-10-13T07:15:42Z</time>
      </trkpt>
      <trkpt lat="49.2515" lon="0.03987">
        <ele>109</ele>
        <time>2024-10-13T07:15:43Z</time>
      </trkpt>
      <trkpt lat="49.25152" lon="0.03992">
        <ele>109.4</ele>
        <time>2024-10-13T07:15:44Z</time>
      </trkpt>
      <trkpt lat="49.25154" lon="0.03998">
        <ele>109.8</ele>
        <time>2024-10-13T07:15:45Z</time>
      </trkpt>
      <trkpt lat="49.25156" lon="0.04004">
        <ele>110</ele>
        <time>2024-10-13T07:15:46Z</time>
      </trkpt>
      <trkpt lat="49.25158" lon="0.0401">
        <ele>110.2</ele>
        <time>2024-10-13T07:15:47Z</time>
      </trkpt>
      <trkpt lat="49.2516" lon="0.04015">
        <ele>110.4</ele>
        <time>2024-10-13T07:15:48Z</time>
      </trkpt>
      <trkpt lat="49.25162" lon="0.04021">
        <ele>110.4</ele>
        <time>2024-10-13T07:15:49Z</time>
      </trkpt>
      <trkpt lat="49.25164" lon="0.04027">
        <ele>110.6</ele>
        <time>2024-10-13T07:15:50Z</time>
      </trkpt>
      <trkpt lat="49.25166" lon="0.04033">
        <ele>110.8</ele>
        <time>2024-10-13T07:15:51Z</time>
      </trkpt>
      <trkpt lat="49.25169" lon="0.04038">
        <ele>110.8</ele>
        <time>2024-10-13T07:15:52Z</time>
      </trkpt>
      <trkpt lat="49.25171" lon="0.04044">
        <ele>111.2</ele>
        <time>2024-10-13T07:15:53Z</time>
      </trkpt>
      <trkpt lat="49.25173" lon="0.04049">
        <ele>111.4</ele>
        <time>2024-10-13T07:15:54Z</time>
      </trkpt>
      <trkpt lat="49.25175" lon="0.04055">
        <ele>111.6</ele>
        <time>2024-10-13T07:15:55Z</time>
      </trkpt>
      <trkpt lat="49.25177" lon="0.04061">
        <ele>111.8</ele>
        <time>2024-10-13T07:15:56Z</time>
      </trkpt>
      <trkpt lat="49.2518" lon="0.04067">
        <ele>112.2</ele>
        <time>2024-10-13T07:15:57Z</time>
      </trkpt>
      <trkpt lat="49.25182" lon="0.04072">
        <ele>112.4</ele>
        <time>2024-10-13T07:15:58Z</time>
      </trkpt>
      <trkpt lat="49.25184" lon="0.04078">
        <ele>112.4</ele>
        <time>2024-10-13T07:15:59Z</time>
      </trkpt>
      <trkpt lat="49.25186" lon="0.04084">
        <ele>112.6</ele>
        <time>2024-10-13T07:16:00Z</time>
      </trkpt>
      <trkpt lat="49.25188" lon="0.04089">
        <ele>112.8</ele>
        <time>2024-10-13T07:16:01Z</time>
      </trkpt>
      <trkpt lat="49.25191" lon="0.04096">
        <ele>112.8</ele>
        <time>2024-10-13T07:16:02Z</time>
      </trkpt>
      <trkpt lat="49.25193" lon="0.04101">
        <ele>113</ele>
        <time>2024-10-13T07:16:03Z</time>
      </trkpt>
      <trkpt lat="49.25195" lon="0.04107">
        <ele>113.2</ele>
        <time>2024-10-13T07:16:04Z</time>
      </trkpt>
      <trkpt lat="49.25198" lon="0.04113">
        <ele>113.2</ele>
        <time>2024-10-13T07:16:05Z</time>
      </trkpt>
      <trkpt lat="49.252" lon="0.04119">
        <ele>113.4</ele>
        <time>2024-10-13T07:16:06Z</time>
      </trkpt>
      <trkpt lat="49.25202" lon="0.04124">
        <ele>113.6</ele>
        <time>2024-10-13T07:16:07Z</time>
      </trkpt>
      <trkpt lat="49.25204" lon="0.04131">
        <ele>113.6</ele>
        <time>2024-10-13T07:16:08Z</time>
      </trkpt>
      <trkpt lat="49.25206" lon="0.04136">
        <ele>113.8</ele>
        <time>2024-10-13T07:16:09Z</time>
      </trkpt>
      <trkpt lat="49.25209" lon="0.04143">
        <ele>113.8</ele>
        <time>2024-10-13T07:16:10Z</time>
      </trkpt>
      <trkpt lat="49.25211" lon="0.04149">
        <ele>114</ele>
        <time>2024-10-13T07:16:11Z</time>
      </trkpt>
      <trkpt lat="49.25214" lon="0.04154">
        <ele>114.2</ele>
        <time>2024-10-13T07:16:12Z</time>
      </trkpt>
      <trkpt lat="49.25216" lon="0.0416">
        <ele>114.4</ele>
        <time>2024-10-13T07:16:13Z</time>
      </trkpt>
      <trkpt lat="49.25218" lon="0.04166">
        <ele>114.6</ele>
        <time>2024-10-13T07:16:14Z</time>
      </trkpt>
      <trkpt lat="49.25221" lon="0.04172">
        <ele>114.6</ele>
        <time>2024-10-13T07:16:15Z</time>
      </trkpt>
      <trkpt lat="49.25223" lon="0.04178">
        <ele>114.8</ele>
        <time>2024-10-13T07:16:16Z</time>
      </trkpt>
      <trkpt lat="49.25225" lon="0.04184">
        <ele>115</ele>
        <time>2024-10-13T07:16:17Z</time>
      </trkpt>
      <trkpt lat="49.25227" lon="0.04188">
        <ele>115.2</ele>
        <time>2024-10-13T07:16:18Z</time>
      </trkpt>
      <trkpt lat="49.25229" lon="0.04195">
        <ele>115.2</ele>
        <time>2024-10-13T07:16:19Z</time>
      </trkpt>
      <trkpt lat="49.25232" lon="0.04202">
        <ele>115.4</ele>
        <time>2024-10-13T07:16:20Z</time>
      </trkpt>
      <trkpt lat="49.25234" lon="0.04207">
        <ele>115.6</ele>
        <time>2024-10-13T07:16:21Z</time>
      </trkpt>
      <trkpt lat="49.25237" lon="0.04214">
        <ele>115.6</ele>
        <time>2024-10-13T07:16:22Z</time>
      </trkpt>
      <trkpt lat="49.25239" lon="0.0422">
        <ele>115.8</ele>
        <time>2024-10-13T07:16:23Z</time>
      </trkpt>
      <trkpt lat="49.25241" lon="0.04225">
        <ele>116</ele>
        <time>2024-10-13T07:16:24Z</time>
      </trkpt>
      <trkpt lat="49.25243" lon="0.04232">
        <ele>116.2</ele>
        <time>2024-10-13T07:16:25Z</time>
      </trkpt>
      <trkpt lat="49.25246" lon="0.04239">
        <ele>116.2</ele>
        <time>2024-10-13T07:16:26Z</time>
      </trkpt>
      <trkpt lat="49.25248" lon="0.04244">
        <ele>116.4</ele>
        <time>2024-10-13T07:16:27Z</time>
      </trkpt>
      <trkpt lat="49.25251" lon="0.04252">
        <ele>116.4</ele>
        <time>2024-10-13T07:16:28Z</time>
      </trkpt>
      <trkpt lat="49.25253" lon="0.04259">
        <ele>116.6</ele>
        <time>2024-10-13T07:16:29Z</time>
      </trkpt>
      <trkpt lat="49.25255" lon="0.04265">
        <ele>116.8</ele>
        <time>2024-10-13T07:16:30Z</time>
      </trkpt>
      <trkpt lat="49.25257" lon="0.04272">
        <ele>116.8</ele>
        <time>2024-10-13T07:16:31Z</time>
      </trkpt>
      <trkpt lat="49.2526" lon="0.04278">
        <ele>117.2</ele>
        <time>2024-10-13T07:16:32Z</time>
      </trkpt>
      <trkpt lat="49.25262" lon="0.04283">
        <ele>117.2</ele>
        <time>2024-10-13T07:16:33Z</time>
      </trkpt>
      <trkpt lat="49.25265" lon="0.04291">
        <ele>117.4</ele>
        <time>2024-10-13T07:16:34Z</time>
      </trkpt>
      <trkpt lat="49.25267" lon="0.04298">
        <ele>117.6</ele>
        <time>2024-10-13T07:16:35Z</time>
      </trkpt>
      <trkpt lat="49.25269" lon="0.04305">
        <ele>117.8</ele>
        <time>2024-10-13T07:16:36Z</time>
      </trkpt>
      <trkpt lat="49.25271" lon="0.04311">
        <ele>117.8</ele>
        <time>2024-10-13T07:16:37Z</time>
      </trkpt>
      <trkpt lat="49.25273" lon="0.04318">
        <ele>118</ele>
        <time>2024-10-13T07:16:38Z</time>
      </trkpt>
      <trkpt lat="49.25275" lon="0.04323">
        <ele>118.4</ele>
        <time>2024-10-13T07:16:39Z</time>
      </trkpt>
      <trkpt lat="49.25278" lon="0.04331">
        <ele>118.6</ele>
        <time>2024-10-13T07:16:40Z</time>
      </trkpt>
      <trkpt lat="49.2528" lon="0.04338">
        <ele>118.8</ele>
        <time>2024-10-13T07:16:41Z</time>
      </trkpt>
      <trkpt lat="49.25282" lon="0.04345">
        <ele>119</ele>
        <time>2024-10-13T07:16:42Z</time>
      </trkpt>
      <trkpt lat="49.25284" lon="0.04351">
        <ele>119</ele>
        <time>2024-10-13T07:16:43Z</time>
      </trkpt>
      <trkpt lat="49.25286" lon="0.04358">
        <ele>119.2</ele>
        <time>2024-10-13T07:16:44Z</time>
      </trkpt>
      <trkpt lat="49.25288" lon="0.04364">
        <ele>119.4</ele>
        <time>2024-10-13T07:16:45Z</time>
      </trkpt>
      <trkpt lat="49.2529" lon="0.04371">
        <ele>119.6</ele>
        <time>2024-10-13T07:16:46Z</time>
      </trkpt>
      <trkpt lat="49.25293" lon="0.04379">
        <ele>119.8</ele>
        <time>2024-10-13T07:16:47Z</time>
      </trkpt>
      <trkpt lat="49.25295" lon="0.04386">
        <ele>119.8</ele>
        <time>2024-10-13T07:16:48Z</time>
      </trkpt>
      <trkpt lat="49.25297" lon="0.04393">
        <ele>120</ele>
        <time>2024-10-13T07:16:49Z</time>
      </trkpt>
      <trkpt lat="49.25299" lon="0.04401">
        <ele>120</ele>
        <time>2024-10-13T07:16:50Z</time>
      </trkpt>
      <trkpt lat="49.25301" lon="0.04408">
        <ele>120.4</ele>
        <time>2024-10-13T07:16:51Z</time>
      </trkpt>
      <trkpt lat="49.25303" lon="0.04416">
        <ele>120.6</ele>
        <time>2024-10-13T07:16:52Z</time>
      </trkpt>
      <trkpt lat="49.25305" lon="0.04423">
        <ele>120.6</ele>
        <time>2024-10-13T07:16:53Z</time>
      </trkpt>
      <trkpt lat="49.25307" lon="0.04431">
        <ele>120.8</ele>
        <time>2024-10-13T07:16:54Z</time>
      </trkpt>
      <trkpt lat="49.2531" lon="0.04438">
        <ele>120.8</ele>
        <time>2024-10-13T07:16:55Z</time>
      </trkpt>
      <trkpt lat="49.25312" lon="0.04445">
        <ele>121</ele>
        <time>2024-10-13T07:16:56Z</time>
      </trkpt>
      <trkpt lat="49.25314" lon="0.04451">
        <ele>121</ele>
        <time>2024-10-13T07:16:57Z</time>
      </trkpt>
      <trkpt lat="49.25317" lon="0.04461">
        <ele>121</ele>
        <time>2024-10-13T07:16:58Z</time>
      </trkpt>
      <trkpt lat="49.25319" lon="0.04467">
        <ele>121.2</ele>
        <time>2024-10-13T07:16:59Z</time>
      </trkpt>
      <trkpt lat="49.25321" lon="0.04476">
        <ele>121.2</ele>
        <time>2024-10-13T07:17:00Z</time>
      </trkpt>
      <trkpt lat="49.25324" lon="0.04484">
        <ele>121.4</ele>
        <time>2024-10-13T07:17:01Z</time>
      </trkpt>
      <trkpt lat="49.25326" lon="0.04492">
        <ele>121.8</ele>
        <time>2024-10-13T07:17:02Z</time>
      </trkpt>
      <trkpt lat="49.25328" lon="0.04498">
        <ele>121.8</ele>
        <time>2024-10-13T07:17:03Z</time>
      </trkpt>
      <trkpt lat="49.25331" lon="0.04507">
        <ele>122</ele>
        <time>2024-10-13T07:17:04Z</time>
      </trkpt>
      <trkpt lat="49.25332" lon="0.04514">
        <ele>122.2</ele>
        <time>2024-10-13T07:17:05Z</time>
      </trkpt>
      <trkpt lat="49.25335" lon="0.04524">
        <ele>122.4</ele>
        <time>2024-10-13T07:17:06Z</time>
      </trkpt>
      <trkpt lat="49.25337" lon="0.0453">
        <ele>122.6</ele>
        <time>2024-10-13T07:17:07Z</time>
      </trkpt>
      <trkpt lat="49.25339" lon="0.04539">
        <ele>122.6</ele>
        <time>2024-10-13T07:17:08Z</time>
      </trkpt>
      <trkpt lat="49.25342" lon="0.04547">
        <ele>122.6</ele>
        <time>2024-10-13T07:17:09Z</time>
      </trkpt>
      <trkpt lat="49.25344" lon="0.04555">
        <ele>122.6</ele>
        <time>2024-10-13T07:17:10Z</time>
      </trkpt>
      <trkpt lat="49.25346" lon="0.04564">
        <ele>122.8</ele>
        <time>2024-10-13T07:17:11Z</time>
      </trkpt>
      <trkpt lat="49.25349" lon="0.04574">
        <ele>122.8</ele>
        <time>2024-10-13T07:17:12Z</time>
      </trkpt>
      <trkpt lat="49.25352" lon="0.04581">
        <ele>123</ele>
        <time>2024-10-13T07:17:13Z</time>
      </trkpt>
      <trkpt lat="49.25355" lon="0.04592">
        <ele>123</ele>
        <time>2024-10-13T07:17:14Z</time>
      </trkpt>
      <trkpt lat="49.25357" lon="0.04601">
        <ele>123</ele>
        <time>2024-10-13T07:17:15Z</time>
      </trkpt>
      <trkpt lat="49.2536" lon="0.0461">
        <ele>123</ele>
        <time>2024-10-13T07:17:16Z</time>
      </trkpt>
      <trkpt lat="49.25362" lon="0.04619">
        <ele>123.2</ele>
        <time>2024-10-13T07:17:17Z</time>
      </trkpt>
      <trkpt lat="49.25364" lon="0.04626">
        <ele>123.2</ele>
        <time>2024-10-13T07:17:18Z</time>
      </trkpt>
      <trkpt lat="49.25367" lon="0.04637">
        <ele>123.2</ele>
        <time>2024-10-13T07:17:19Z</time>
      </trkpt>
      <trkpt lat="49.2537" lon="0.04646">
        <ele>123.4</ele>
        <time>2024-10-13T07:17:20Z</time>
      </trkpt>
      <trkpt lat="49.25372" lon="0.04656">
        <ele>123.6</ele>
        <time>2024-10-13T07:17:21Z</time>
      </trkpt>
      <trkpt lat="49.25375" lon="0.04663">
        <ele>123.6</ele>
        <time>2024-10-13T07:17:22Z</time>
      </trkpt>
      <trkpt lat="49.25378" lon="0.04673">
        <ele>123.6</ele>
        <time>2024-10-13T07:17:23Z</time>
      </trkpt>
      <trkpt lat="49.2538" lon="0.04682">
        <ele>123.8</ele>
        <time>2024-10-13T07:17:24Z</time>
      </trkpt>
      <trkpt lat="49.25382" lon="0.04689">
        <ele>123.8</ele>
        <time>2024-10-13T07:17:25Z</time>
      </trkpt>
      <trkpt lat="49.25385" lon="0.04699">
        <ele>124</ele>
        <time>2024-10-13T07:17:26Z</time>
      </trkpt>
      <trkpt lat="49.25388" lon="0.04708">
        <ele>124</ele>
        <time>2024-10-13T07:17:27Z</time>
      </trkpt>
      <trkpt lat="49.2539" lon="0.04714">
        <ele>124</ele>
        <time>2024-10-13T07:17:28Z</time>
      </trkpt>
      <trkpt lat="49.25393" lon="0.04725">
        <ele>124.2</ele>
        <time>2024-10-13T07:17:29Z</time>
      </trkpt>
      <trkpt lat="49.25395" lon="0.04732">
        <ele>124.2</ele>
        <time>2024-10-13T07:17:30Z</time>
      </trkpt>
      <trkpt lat="49.25397" lon="0.0474">
        <ele>124.2</ele>
        <time>2024-10-13T07:17:31Z</time>
      </trkpt>
      <trkpt lat="49.254" lon="0.04751">
        <ele>124.2</ele>
        <time>2024-10-13T07:17:32Z</time>
      </trkpt>
      <trkpt lat="49.25403" lon="0.04759">
        <ele>124.2</ele>
        <time>2024-10-13T07:17:33Z</time>
      </trkpt>
      <trkpt lat="49.25405" lon="0.04766">
        <ele>124.4</ele>
        <time>2024-10-13T07:17:34Z</time>
      </trkpt>
      <trkpt lat="49.25408" lon="0.04777">
        <ele>124.4</ele>
        <time>2024-10-13T07:17:35Z</time>
      </trkpt>
      <trkpt lat="49.2541" lon="0.04786">
        <ele>124.4</ele>
        <time>2024-10-13T07:17:36Z</time>
      </trkpt>
      <trkpt lat="49.25413" lon="0.04795">
        <ele>124.6</ele>
        <time>2024-10-13T07:17:37Z</time>
      </trkpt>
      <trkpt lat="49.25415" lon="0.04802">
        <ele>124.6</ele>
        <time>2024-10-13T07:17:38Z</time>
      </trkpt>
      <trkpt lat="49.25418" lon="0.04811">
        <ele>124.8</ele>
        <time>2024-10-13T07:17:39Z</time>
      </trkpt>
      <trkpt lat="49.25421" lon="0.0482">
        <ele>125</ele>
        <time>2024-10-13T07:17:40Z</time>
      </trkpt>
      <trkpt lat="49.25424" lon="0.04829">
        <ele>125</ele>
        <time>2024-10-13T07:17:41Z</time>
      </trkpt>
      <trkpt lat="49.25426" lon="0.04838">
        <ele>125</ele>
        <time>2024-10-13T07:17:42Z</time>
      </trkpt>
      <trkpt lat="49.25429" lon="0.04849">
        <ele>125</ele>
        <time>2024-10-13T07:17:43Z</time>
      </trkpt>
      <trkpt lat="49.25431" lon="0.04858">
        <ele>125.2</ele>
        <time>2024-10-13T07:17:44Z</time>
      </trkpt>
      <trkpt lat="49.25433" lon="0.04866">
        <ele>125.4</ele>
        <time>2024-10-13T07:17:45Z</time>
      </trkpt>
      <trkpt lat="49.25435" lon="0.04877">
        <ele>125.4</ele>
        <time>2024-10-13T07:17:46Z</time>
      </trkpt>
      <trkpt lat="49.25437" lon="0.04886">
        <ele>125.6</ele>
        <time>2024-10-13T07:17:47Z</time>
      </trkpt>
      <trkpt lat="49.2544" lon="0.04896">
        <ele>125.6</ele>
        <time>2024-10-13T07:17:48Z</time>
      </trkpt>
      <trkpt lat="49.25442" lon="0.04905">
        <ele>125.8</ele>
        <time>2024-10-13T07:17:49Z</time>
      </trkpt>
      <trkpt lat="49.25443" lon="0.04913">
        <ele>126</ele>
        <time>2024-10-13T07:17:50Z</time>
      </trkpt>
      <trkpt lat="49.25445" lon="0.04923">
        <ele>126.2</ele>
        <time>2024-10-13T07:17:51Z</time>
      </trkpt>
      <trkpt lat="49.25447" lon="0.04932">
        <ele>126.4</ele>
        <time>2024-10-13T07:17:52Z</time>
      </trkpt>
      <trkpt lat="49.25448" lon="0.04944">
        <ele>126.6</ele>
        <time>2024-10-13T07:17:53Z</time>
      </trkpt>
      <trkpt lat="49.25449" lon="0.04954">
        <ele>126.6</ele>
        <time>2024-10-13T07:17:54Z</time>
      </trkpt>
      <trkpt lat="49.2545" lon="0.04965">
        <ele>126.8</ele>
        <time>2024-10-13T07:17:55Z</time>
      </trkpt>
      <trkpt lat="49.25451" lon="0.04975">
        <ele>126.8</ele>
        <time>2024-10-13T07:17:56Z</time>
      </trkpt>
      <trkpt lat="49.25452" lon="0.04985">
        <ele>126.8</ele>
        <time>2024-10-13T07:17:57Z</time>
      </trkpt>
      <trkpt lat="49.25453" lon="0.04993">
        <ele>127</ele>
        <time>2024-10-13T07:17:58Z</time>
      </trkpt>
      <trkpt lat="49.25455" lon="0.05005">
        <ele>127</ele>
        <time>2024-10-13T07:17:59Z</time>
      </trkpt>
      <trkpt lat="49.25456" lon="0.05014">
        <ele>127.2</ele>
        <time>2024-10-13T07:18:00Z</time>
      </trkpt>
      <trkpt lat="49.25457" lon="0.05024">
        <ele>127.2</ele>
        <time>2024-10-13T07:18:01Z</time>
      </trkpt>
      <trkpt lat="49.25459" lon="0.05034">
        <ele>127.2</ele>
        <time>2024-10-13T07:18:02Z</time>
      </trkpt>
      <trkpt lat="49.2546" lon="0.05043">
        <ele>127.4</ele>
        <time>2024-10-13T07:18:03Z</time>
      </trkpt>
      <trkpt lat="49.2546" lon="0.05053">
        <ele>127.4</ele>
        <time>2024-10-13T07:18:04Z</time>
      </trkpt>
      <trkpt lat="49.25461" lon="0.05063">
        <ele>127.6</ele>
        <time>2024-10-13T07:18:05Z</time>
      </trkpt>
      <trkpt lat="49.25462" lon="0.05073">
        <ele>127.6</ele>
        <time>2024-10-13T07:18:06Z</time>
      </trkpt>
      <trkpt lat="49.25463" lon="0.05083">
        <ele>127.8</ele>
        <time>2024-10-13T07:18:07Z</time>
      </trkpt>
      <trkpt lat="49.25464" lon="0.05093">
        <ele>128</ele>
        <time>2024-10-13T07:18:08Z</time>
      </trkpt>
      <trkpt lat="49.25465" lon="0.05101">
        <ele>128</ele>
        <time>2024-10-13T07:18:09Z</time>
      </trkpt>
      <trkpt lat="49.25466" lon="0.05112">
        <ele>128.2</ele>
        <time>2024-10-13T07:18:10Z</time>
      </trkpt>
      <trkpt lat="49.25467" lon="0.05122">
        <ele>128.2</ele>
        <time>2024-10-13T07:18:11Z</time>
      </trkpt>
      <trkpt lat="49.25469" lon="0.05141">
        <ele>128.4</ele>
        <time>2024-10-13T07:18:12Z</time>
      </trkpt>
      <trkpt lat="49.25469" lon="0.0515">
        <ele>128.4</ele>
        <time>2024-10-13T07:18:13Z</time>
      </trkpt>
      <trkpt lat="49.2547" lon="0.0516">
        <ele>128.4</ele>
        <time>2024-10-13T07:18:14Z</time>
      </trkpt>
      <trkpt lat="49.25471" lon="0.05169">
        <ele>128.6</ele>
        <time>2024-10-13T07:18:15Z</time>
      </trkpt>
      <trkpt lat="49.25472" lon="0.05178">
        <ele>128.8</ele>
        <time>2024-10-13T07:18:16Z</time>
      </trkpt>
      <trkpt lat="49.25473" lon="0.05186">
        <ele>129</ele>
        <time>2024-10-13T07:18:17Z</time>
      </trkpt>
      <trkpt lat="49.25474" lon="0.05197">
        <ele>129.2</ele>
        <time>2024-10-13T07:18:18Z</time>
      </trkpt>
      <trkpt lat="49.25474" lon="0.05206">
        <ele>129.2</ele>
        <time>2024-10-13T07:18:19Z</time>
      </trkpt>
      <trkpt lat="49.25475" lon="0.05214">
        <ele>129.2</ele>
        <time>2024-10-13T07:18:20Z</time>
      </trkpt>
      <trkpt lat="49.25476" lon="0.05225">
        <ele>129.4</ele>
        <time>2024-10-13T07:18:21Z</time>
      </trkpt>
      <trkpt lat="49.25478" lon="0.05234">
        <ele>129.6</ele>
        <time>2024-10-13T07:18:22Z</time>
      </trkpt>
      <trkpt lat="49.25478" lon="0.05243">
        <ele>129.8</ele>
        <time>2024-10-13T07:18:23Z</time>
      </trkpt>
      <trkpt lat="49.25479" lon="0.05252">
        <ele>130</ele>
        <time>2024-10-13T07:18:24Z</time>
      </trkpt>
      <trkpt lat="49.2548" lon="0.05261">
        <ele>130</ele>
        <time>2024-10-13T07:18:25Z</time>
      </trkpt>
      <trkpt lat="49.2548" lon="0.05269">
        <ele>130.2</ele>
        <time>2024-10-13T07:18:26Z</time>
      </trkpt>
      <trkpt lat="49.25481" lon="0.05278">
        <ele>130.4</ele>
        <time>2024-10-13T07:18:27Z</time>
      </trkpt>
      <trkpt lat="49.25482" lon="0.05287">
        <ele>130.6</ele>
        <time>2024-10-13T07:18:28Z</time>
      </trkpt>
      <trkpt lat="49.25483" lon="0.05296">
        <ele>130.6</ele>
        <time>2024-10-13T07:18:29Z</time>
      </trkpt>
      <trkpt lat="49.25484" lon="0.05304">
        <ele>130.8</ele>
        <time>2024-10-13T07:18:30Z</time>
      </trkpt>
      <trkpt lat="49.25485" lon="0.05313">
        <ele>130.8</ele>
        <time>2024-10-13T07:18:31Z</time>
      </trkpt>
      <trkpt lat="49.25485" lon="0.0532">
        <ele>131.2</ele>
        <time>2024-10-13T07:18:32Z</time>
      </trkpt>
      <trkpt lat="49.25486" lon="0.05329">
        <ele>131.2</ele>
        <time>2024-10-13T07:18:33Z</time>
      </trkpt>
      <trkpt lat="49.25487" lon="0.05338">
        <ele>131.4</ele>
        <time>2024-10-13T07:18:34Z</time>
      </trkpt>
      <trkpt lat="49.25489" lon="0.05348">
        <ele>131.4</ele>
        <time>2024-10-13T07:18:35Z</time>
      </trkpt>
      <trkpt lat="49.25489" lon="0.05357">
        <ele>131.6</ele>
        <time>2024-10-13T07:18:36Z</time>
      </trkpt>
      <trkpt lat="49.2549" lon="0.05366">
        <ele>131.6</ele>
        <time>2024-10-13T07:18:37Z</time>
      </trkpt>
      <trkpt lat="49.25491" lon="0.05375">
        <ele>132</ele>
        <time>2024-10-13T07:18:38Z</time>
      </trkpt>
      <trkpt lat="49.25492" lon="0.05383">
        <ele>132</ele>
        <time>2024-10-13T07:18:39Z</time>
      </trkpt>
      <trkpt lat="49.25492" lon="0.05392">
        <ele>132.2</ele>
        <time>2024-10-13T07:18:40Z</time>
      </trkpt>
      <trkpt lat="49.25493" lon="0.05401">
        <ele>132.4</ele>
        <time>2024-10-13T07:18:41Z</time>
      </trkpt>
      <trkpt lat="49.25493" lon="0.0541">
        <ele>132.6</ele>
        <time>2024-10-13T07:18:42Z</time>
      </trkpt>
      <trkpt lat="49.25494" lon="0.05418">
        <ele>132.8</ele>
        <time>2024-10-13T07:18:43Z</time>
      </trkpt>
      <trkpt lat="49.25495" lon="0.05427">
        <ele>133</ele>
        <time>2024-10-13T07:18:44Z</time>
      </trkpt>
      <trkpt lat="49.25496" lon="0.05435">
        <ele>133.2</ele>
        <time>2024-10-13T07:18:45Z</time>
      </trkpt>
      <trkpt lat="49.25496" lon="0.05441">
        <ele>133.4</ele>
        <time>2024-10-13T07:18:46Z</time>
      </trkpt>
      <trkpt lat="49.25497" lon="0.05451">
        <ele>133.6</ele>
        <time>2024-10-13T07:18:47Z</time>
      </trkpt>
      <trkpt lat="49.25498" lon="0.05459">
        <ele>133.8</ele>
        <time>2024-10-13T07:18:48Z</time>
      </trkpt>
      <trkpt lat="49.25498" lon="0.05467">
        <ele>134</ele>
        <time>2024-10-13T07:18:49Z</time>
      </trkpt>
      <trkpt lat="49.25499" lon="0.05475">
        <ele>134</ele>
        <time>2024-10-13T07:18:50Z</time>
      </trkpt>
      <trkpt lat="49.25499" lon="0.05482">
        <ele>134.2</ele>
        <time>2024-10-13T07:18:51Z</time>
      </trkpt>
      <trkpt lat="49.255" lon="0.0549">
        <ele>134.6</ele>
        <time>2024-10-13T07:18:52Z</time>
      </trkpt>
      <trkpt lat="49.25501" lon="0.05498">
        <ele>134.8</ele>
        <time>2024-10-13T07:18:53Z</time>
      </trkpt>
      <trkpt lat="49.25501" lon="0.05503">
        <ele>134.8</ele>
        <time>2024-10-13T07:18:54Z</time>
      </trkpt>
      <trkpt lat="49.25502" lon="0.05511">
        <ele>135</ele>
        <time>2024-10-13T07:18:55Z</time>
      </trkpt>
      <trkpt lat="49.25503" lon="0.05519">
        <ele>135</ele>
        <time>2024-10-13T07:18:56Z</time>
      </trkpt>
      <trkpt lat="49.25504" lon="0.05526">
        <ele>135.2</ele>
        <time>2024-10-13T07:18:57Z</time>
      </trkpt>
      <trkpt lat="49.25505" lon="0.05532">
        <ele>135.4</ele>
        <time>2024-10-13T07:18:58Z</time>
      </trkpt>
      <trkpt lat="49.25505" lon="0.0554">
        <ele>135.6</ele>
        <time>2024-10-13T07:18:59Z</time>
      </trkpt>
      <trkpt lat="49.25505" lon="0.05546">
        <ele>135.8</ele>
        <time>2024-10-13T07:19:00Z</time>
      </trkpt>
      <trkpt lat="49.25504" lon="0.0555">
        <ele>136</ele>
        <time>2024-10-13T07:19:01Z</time>
      </trkpt>
      <trkpt lat="49.25502" lon="0.05556">
        <ele>136</ele>
        <time>2024-10-13T07:19:02Z</time>
      </trkpt>
      <trkpt lat="49.25499" lon="0.05561">
        <ele>136.2</ele>
        <time>2024-10-13T07:19:03Z</time>
      </trkpt>
      <trkpt lat="49.25497" lon="0.05565">
        <ele>136.2</ele>
        <time>2024-10-13T07:19:04Z</time>
      </trkpt>
      <trkpt lat="49.25494" lon="0.05572">
        <ele>136.2</ele>
        <time>2024-10-13T07:19:05Z</time>
      </trkpt>
      <trkpt lat="49.25492" lon="0.05578">
        <ele>136.4</ele>
        <time>2024-10-13T07:19:06Z</time>
      </trkpt>
      <trkpt lat="49.25488" lon="0.05583">
        <ele>136.6</ele>
        <time>2024-10-13T07:19:07Z</time>
      </trkpt>
      <trkpt lat="49.25484" lon="0.05588">
        <ele>136.8</ele>
        <time>2024-10-13T07:19:08Z</time>
      </trkpt>
      <trkpt lat="49.2548" lon="0.05593">
        <ele>137</ele>
        <time>2024-10-13T07:19:09Z</time>
      </trkpt>
      <trkpt lat="49.25476" lon="0.05596">
        <ele>137</ele>
        <time>2024-10-13T07:19:10Z</time>
      </trkpt>
      <trkpt lat="49.2547" lon="0.05601">
        <ele>137</ele>
        <time>2024-10-13T07:19:11Z</time>
      </trkpt>
      <trkpt lat="49.25467" lon="0.05604">
        <ele>137</ele>
        <time>2024-10-13T07:19:12Z</time>
      </trkpt>
      <trkpt lat="49.25461" lon="0.05608">
        <ele>137</ele>
        <time>2024-10-13T07:19:13Z</time>
      </trkpt>
      <trkpt lat="49.25456" lon="0.05612">
        <ele>137</ele>
        <time>2024-10-13T07:19:14Z</time>
      </trkpt>
      <trkpt lat="49.25453" lon="0.05615">
        <ele>137</ele>
        <time>2024-10-13T07:19:15Z</time>
      </trkpt>
      <trkpt lat="49.25448" lon="0.05619">
        <ele>137</ele>
        <time>2024-10-13T07:19:16Z</time>
      </trkpt>
      <trkpt lat="49.25443" lon="0.05624">
        <ele>137</ele>
        <time>2024-10-13T07:19:17Z</time>
      </trkpt>
      <trkpt lat="49.25439" lon="0.05627">
        <ele>137</ele>
        <time>2024-10-13T07:19:18Z</time>
      </trkpt>
      <trkpt lat="49.25435" lon="0.05632">
        <ele>137</ele>
        <time>2024-10-13T07:19:19Z</time>
      </trkpt>
      <trkpt lat="49.25429" lon="0.05637">
        <ele>137</ele>
        <time>2024-10-13T07:19:20Z</time>
      </trkpt>
      <trkpt lat="49.25426" lon="0.0564">
        <ele>136.8</ele>
        <time>2024-10-13T07:19:21Z</time>
      </trkpt>
      <trkpt lat="49.25421" lon="0.05645">
        <ele>136.8</ele>
        <time>2024-10-13T07:19:22Z</time>
      </trkpt>
      <trkpt lat="49.25417" lon="0.05649">
        <ele>136.6</ele>
        <time>2024-10-13T07:19:23Z</time>
      </trkpt>
      <trkpt lat="49.25413" lon="0.05653">
        <ele>136.6</ele>
        <time>2024-10-13T07:19:24Z</time>
      </trkpt>
      <trkpt lat="49.2541" lon="0.05657">
        <ele>136.4</ele>
        <time>2024-10-13T07:19:25Z</time>
      </trkpt>
      <trkpt lat="49.25406" lon="0.05661">
        <ele>136.4</ele>
        <time>2024-10-13T07:19:26Z</time>
      </trkpt>
      <trkpt lat="49.25402" lon="0.05665">
        <ele>136.2</ele>
        <time>2024-10-13T07:19:27Z</time>
      </trkpt>
      <trkpt lat="49.25397" lon="0.0567">
        <ele>136.2</ele>
        <time>2024-10-13T07:19:28Z</time>
      </trkpt>
      <trkpt lat="49.25393" lon="0.05674">
        <ele>136.2</ele>
        <time>2024-10-13T07:19:29Z</time>
      </trkpt>
      <trkpt lat="49.2539" lon="0.05677">
        <ele>136.2</ele>
        <time>2024-10-13T07:19:30Z</time>
      </trkpt>
      <trkpt lat="49.25385" lon="0.05682">
        <ele>136</ele>
        <time>2024-10-13T07:19:31Z</time>
      </trkpt>
      <trkpt lat="49.25382" lon="0.05686">
        <ele>136</ele>
        <time>2024-10-13T07:19:32Z</time>
      </trkpt>
      <trkpt lat="49.25379" lon="0.05689">
        <ele>136</ele>
        <time>2024-10-13T07:19:33Z</time>
      </trkpt>
      <trkpt lat="49.25374" lon="0.05694">
        <ele>136</ele>
        <time>2024-10-13T07:19:34Z</time>
      </trkpt>
      <trkpt lat="49.2537" lon="0.05698">
        <ele>135.8</ele>
        <time>2024-10-13T07:19:35Z</time>
      </trkpt>
      <trkpt lat="49.25367" lon="0.05702">
        <ele>135.8</ele>
        <time>2024-10-13T07:19:36Z</time>
      </trkpt>
      <trkpt lat="49.25363" lon="0.05707">
        <ele>135.8</ele>
        <time>2024-10-13T07:19:37Z</time>
      </trkpt>
      <trkpt lat="49.2536" lon="0.05711">
        <ele>135.8</ele>
        <time>2024-10-13T07:19:38Z</time>
      </trkpt>
      <trkpt lat="49.25356" lon="0.05716">
        <ele>135.8</ele>
        <time>2024-10-13T07:19:39Z</time>
      </trkpt>
      <trkpt lat="49.25351" lon="0.05722">
        <ele>135.8</ele>
        <time>2024-10-13T07:19:40Z</time>
      </trkpt>
      <trkpt lat="49.25347" lon="0.05727">
        <ele>135.8</ele>
        <time>2024-10-13T07:19:41Z</time>
      </trkpt>
      <trkpt lat="49.25344" lon="0.05732">
        <ele>135.8</ele>
        <time>2024-10-13T07:19:42Z</time>
      </trkpt>
      <trkpt lat="49.2534" lon="0.05739">
        <ele>135.8</ele>
        <time>2024-10-13T07:19:43Z</time>
      </trkpt>
      <trkpt lat="49.25336" lon="0.05745">
        <ele>135.8</ele>
        <time>2024-10-13T07:19:44Z</time>
      </trkpt>
      <trkpt lat="49.25333" lon="0.0575">
        <ele>135.8</ele>
        <time>2024-10-13T07:19:45Z</time>
      </trkpt>
      <trkpt lat="49.25328" lon="0.05758">
        <ele>135.6</ele>
        <time>2024-10-13T07:19:46Z</time>
      </trkpt>
      <trkpt lat="49.25325" lon="0.05763">
        <ele>135.6</ele>
        <time>2024-10-13T07:19:47Z</time>
      </trkpt>
      <trkpt lat="49.25321" lon="0.0577">
        <ele>135.6</ele>
        <time>2024-10-13T07:19:48Z</time>
      </trkpt>
      <trkpt lat="49.25316" lon="0.05777">
        <ele>135.6</ele>
        <time>2024-10-13T07:19:49Z</time>
      </trkpt>
      <trkpt lat="49.25313" lon="0.05784">
        <ele>135.6</ele>
        <time>2024-10-13T07:19:50Z</time>
      </trkpt>
      <trkpt lat="49.2531" lon="0.05789">
        <ele>135.6</ele>
        <time>2024-10-13T07:19:51Z</time>
      </trkpt>
      <trkpt lat="49.25306" lon="0.05796">
        <ele>135.6</ele>
        <time>2024-10-13T07:19:52Z</time>
      </trkpt>
      <trkpt lat="49.25302" lon="0.05802">
        <ele>135.6</ele>
        <time>2024-10-13T07:19:53Z</time>
      </trkpt>
      <trkpt lat="49.25299" lon="0.05808">
        <ele>135.6</ele>
        <time>2024-10-13T07:19:54Z</time>
      </trkpt>
      <trkpt lat="49.25296" lon="0.05813">
        <ele>135.6</ele>
        <time>2024-10-13T07:19:55Z</time>
      </trkpt>
      <trkpt lat="49.25292" lon="0.05819">
        <ele>135.6</ele>
        <time>2024-10-13T07:19:56Z</time>
      </trkpt>
      <trkpt lat="49.25288" lon="0.05826">
        <ele>135.6</ele>
        <time>2024-10-13T07:19:57Z</time>
      </trkpt>
      <trkpt lat="49.25285" lon="0.05831">
        <ele>135.6</ele>
        <time>2024-10-13T07:19:58Z</time>
      </trkpt>
      <trkpt lat="49.25281" lon="0.05837">
        <ele>135.6</ele>
        <time>2024-10-13T07:19:59Z</time>
      </trkpt>
      <trkpt lat="49.25278" lon="0.05842">
        <ele>135.8</ele>
        <time>2024-10-13T07:20:00Z</time>
      </trkpt>
      <trkpt lat="49.25274" lon="0.05848">
        <ele>135.8</ele>
        <time>2024-10-13T07:20:01Z</time>
      </trkpt>
      <trkpt lat="49.25272" lon="0.05852">
        <ele>136</ele>
        <time>2024-10-13T07:20:02Z</time>
      </trkpt>
      <trkpt lat="49.25271" lon="0.05855">
        <ele>136</ele>
        <time>2024-10-13T07:20:03Z</time>
      </trkpt>
      <trkpt lat="49.25269" lon="0.05858">
        <ele>136.2</ele>
        <time>2024-10-13T07:20:04Z</time>
      </trkpt>
      <trkpt lat="49.25267" lon="0.05862">
        <ele>136.2</ele>
        <time>2024-10-13T07:20:05Z</time>
      </trkpt>
      <trkpt lat="49.25265" lon="0.05865">
        <ele>136.2</ele>
        <time>2024-10-13T07:20:06Z</time>
      </trkpt>
      <trkpt lat="49.25264" lon="0.05867">
        <ele>136.2</ele>
        <time>2024-10-13T07:20:07Z</time>
      </trkpt>
      <trkpt lat="49.25262" lon="0.0587">
        <ele>136.4</ele>
        <time>2024-10-13T07:20:08Z</time>
      </trkpt>
      <trkpt lat="49.25261" lon="0.05872">
        <ele>136.4</ele>
        <time>2024-10-13T07:20:09Z</time>
      </trkpt>
      <trkpt lat="49.2526" lon="0.05875">
        <ele>136.6</ele>
        <time>2024-10-13T07:20:10Z</time>
      </trkpt>
      <trkpt lat="49.25258" lon="0.05878">
        <ele>136.6</ele>
        <time>2024-10-13T07:20:11Z</time>
      </trkpt>
      <trkpt lat="49.25257" lon="0.05881">
        <ele>136.8</ele>
        <time>2024-10-13T07:20:12Z</time>
      </trkpt>
      <trkpt lat="49.25256" lon="0.05882">
        <ele>136.8</ele>
        <time>2024-10-13T07:20:13Z</time>
      </trkpt>
      <trkpt lat="49.25254" lon="0.05885">
        <ele>137</ele>
        <time>2024-10-13T07:20:14Z</time>
      </trkpt>
      <trkpt lat="49.25253" lon="0.05888">
        <ele>137</ele>
        <time>2024-10-13T07:20:15Z</time>
      </trkpt>
      <trkpt lat="49.25252" lon="0.05889">
        <ele>137</ele>
        <time>2024-10-13T07:20:16Z</time>
      </trkpt>
      <trkpt lat="49.2525" lon="0.05892">
        <ele>137.2</ele>
        <time>2024-10-13T07:20:17Z</time>
      </trkpt>
      <trkpt lat="49.25249" lon="0.05894">
        <ele>137.2</ele>
        <time>2024-10-13T07:20:18Z</time>
      </trkpt>
      <trkpt lat="49.25248" lon="0.05895">
        <ele>137.2</ele>
        <time>2024-10-13T07:20:19Z</time>
      </trkpt>
      <trkpt lat="49.25247" lon="0.05896">
        <ele>137.2</ele>
        <time>2024-10-13T07:20:20Z</time>
      </trkpt>
      <trkpt lat="49.25246" lon="0.05897">
        <ele>137.4</ele>
        <time>2024-10-13T07:20:21Z</time>
      </trkpt>
      <trkpt lat="49.25245" lon="0.05899">
        <ele>137.4</ele>
        <time>2024-10-13T07:20:22Z</time>
      </trkpt>
      <trkpt lat="49.25245" lon="0.05899">
        <ele>137.4</ele>
        <time>2024-10-13T07:20:23Z</time>
      </trkpt>
      <trkpt lat="49.25245" lon="0.05899">
        <ele>137.4</ele>
        <time>2024-10-13T07:20:24Z</time>
      </trkpt>
      <trkpt lat="49.2524" lon="0.05909">
        <ele>138</ele>
        <time>2024-10-13T07:21:27Z</time>
      </trkpt>
      <trkpt lat="49.25238" lon="0.05911">
        <ele>138</ele>
        <time>2024-10-13T07:21:28Z</time>
      </trkpt>
      <trkpt lat="49.25237" lon="0.05914">
        <ele>138</ele>
        <time>2024-10-13T07:21:29Z</time>
      </trkpt>
      <trkpt lat="49.25235" lon="0.05916">
        <ele>138</ele>
        <time>2024-10-13T07:21:30Z</time>
      </trkpt>
      <trkpt lat="49.25234" lon="0.05918">
        <ele>138</ele>
        <time>2024-10-13T07:21:31Z</time>
      </trkpt>
      <trkpt lat="49.25233" lon="0.05921">
        <ele>138</ele>
        <time>2024-10-13T07:21:32Z</time>
      </trkpt>
      <trkpt lat="49.25232" lon="0.05924">
        <ele>138</ele>
        <time>2024-10-13T07:21:33Z</time>
      </trkpt>
      <trkpt lat="49.25231" lon="0.05926">
        <ele>138</ele>
        <time>2024-10-13T07:21:34Z</time>
      </trkpt>
      <trkpt lat="49.25229" lon="0.05928">
        <ele>138</ele>
        <time>2024-10-13T07:21:35Z</time>
      </trkpt>
      <trkpt lat="49.25228" lon="0.0593">
        <ele>137.8</ele>
        <time>2024-10-13T07:21:36Z</time>
      </trkpt>
      <trkpt lat="49.25226" lon="0.05933">
        <ele>137.8</ele>
        <time>2024-10-13T07:21:37Z</time>
      </trkpt>
      <trkpt lat="49.25224" lon="0.05936">
        <ele>137.8</ele>
        <time>2024-10-13T07:21:38Z</time>
      </trkpt>
      <trkpt lat="49.25221" lon="0.0594">
        <ele>137.6</ele>
        <time>2024-10-13T07:21:39Z</time>
      </trkpt>
      <trkpt lat="49.25219" lon="0.05943">
        <ele>137.6</ele>
        <time>2024-10-13T07:21:40Z</time>
      </trkpt>
      <trkpt lat="49.25216" lon="0.05948">
        <ele>137.6</ele>
        <time>2024-10-13T07:21:41Z</time>
      </trkpt>
      <trkpt lat="49.25212" lon="0.05954">
        <ele>137.6</ele>
        <time>2024-10-13T07:21:42Z</time>
      </trkpt>
      <trkpt lat="49.2521" lon="0.0596">
        <ele>137.6</ele>
        <time>2024-10-13T07:21:43Z</time>
      </trkpt>
      <trkpt lat="49.25207" lon="0.05965">
        <ele>137.4</ele>
        <time>2024-10-13T07:21:44Z</time>
      </trkpt>
      <trkpt lat="49.25204" lon="0.05973">
        <ele>137.4</ele>
        <time>2024-10-13T07:21:45Z</time>
      </trkpt>
      <trkpt lat="49.25202" lon="0.05978">
        <ele>137.4</ele>
        <time>2024-10-13T07:21:46Z</time>
      </trkpt>
      <trkpt lat="49.25199" lon="0.05985">
        <ele>137.4</ele>
        <time>2024-10-13T07:21:47Z</time>
      </trkpt>
      <trkpt lat="49.25195" lon="0.05994">
        <ele>137.4</ele>
        <time>2024-10-13T07:21:48Z</time>
      </trkpt>
      <trkpt lat="49.25192" lon="0.06001">
        <ele>137.2</ele>
        <time>2024-10-13T07:21:49Z</time>
      </trkpt>
      <trkpt lat="49.25189" lon="0.06007">
        <ele>137.2</ele>
        <time>2024-10-13T07:21:50Z</time>
      </trkpt>
      <trkpt lat="49.25185" lon="0.06017">
        <ele>137</ele>
        <time>2024-10-13T07:21:51Z</time>
      </trkpt>
      <trkpt lat="49.25183" lon="0.06023">
        <ele>136.8</ele>
        <time>2024-10-13T07:21:52Z</time>
      </trkpt>
      <trkpt lat="49.25179" lon="0.06031">
        <ele>136.6</ele>
        <time>2024-10-13T07:21:53Z</time>
      </trkpt>
      <trkpt lat="49.25175" lon="0.06041">
        <ele>136.4</ele>
        <time>2024-10-13T07:21:54Z</time>
      </trkpt>
      <trkpt lat="49.25172" lon="0.06047">
        <ele>136.4</ele>
        <time>2024-10-13T07:21:55Z</time>
      </trkpt>
      <trkpt lat="49.25168" lon="0.06055">
        <ele>136.2</ele>
        <time>2024-10-13T07:21:56Z</time>
      </trkpt>
      <trkpt lat="49.25164" lon="0.06065">
        <ele>136</ele>
        <time>2024-10-13T07:21:57Z</time>
      </trkpt>
      <trkpt lat="49.25161" lon="0.06072">
        <ele>135.8</ele>
        <time>2024-10-13T07:21:58Z</time>
      </trkpt>
      <trkpt lat="49.25156" lon="0.06082">
        <ele>135.8</ele>
        <time>2024-10-13T07:21:59Z</time>
      </trkpt>
      <trkpt lat="49.25152" lon="0.0609">
        <ele>135.8</ele>
        <time>2024-10-13T07:22:00Z</time>
      </trkpt>
      <trkpt lat="49.25149" lon="0.06097">
        <ele>135.6</ele>
        <time>2024-10-13T07:22:01Z</time>
      </trkpt>
      <trkpt lat="49.25145" lon="0.06108">
        <ele>135.4</ele>
        <time>2024-10-13T07:22:02Z</time>
      </trkpt>
      <trkpt lat="49.25141" lon="0.06117">
        <ele>135.4</ele>
        <time>2024-10-13T07:22:03Z</time>
      </trkpt>
      <trkpt lat="49.25138" lon="0.06125">
        <ele>135.2</ele>
        <time>2024-10-13T07:22:04Z</time>
      </trkpt>
      <trkpt lat="49.25134" lon="0.06136">
        <ele>135.2</ele>
        <time>2024-10-13T07:22:05Z</time>
      </trkpt>
      <trkpt lat="49.25131" lon="0.06143">
        <ele>135</ele>
        <time>2024-10-13T07:22:06Z</time>
      </trkpt>
      <trkpt lat="49.25128" lon="0.06152">
        <ele>135</ele>
        <time>2024-10-13T07:22:07Z</time>
      </trkpt>
      <trkpt lat="49.25124" lon="0.06161">
        <ele>135</ele>
        <time>2024-10-13T07:22:08Z</time>
      </trkpt>
      <trkpt lat="49.25121" lon="0.06171">
        <ele>134.8</ele>
        <time>2024-10-13T07:22:09Z</time>
      </trkpt>
      <trkpt lat="49.25117" lon="0.06181">
        <ele>134.8</ele>
        <time>2024-10-13T07:22:10Z</time>
      </trkpt>
      <trkpt lat="49.25114" lon="0.06192">
        <ele>134.6</ele>
        <time>2024-10-13T07:22:11Z</time>
      </trkpt>
      <trkpt lat="49.25111" lon="0.06202">
        <ele>134.6</ele>
        <time>2024-10-13T07:22:12Z</time>
      </trkpt>
      <trkpt lat="49.25109" lon="0.0621">
        <ele>134.6</ele>
        <time>2024-10-13T07:22:13Z</time>
      </trkpt>
      <trkpt lat="49.25106" lon="0.06221">
        <ele>134.6</ele>
        <time>2024-10-13T07:22:14Z</time>
      </trkpt>
      <trkpt lat="49.25103" lon="0.06232">
        <ele>134.6</ele>
        <time>2024-10-13T07:22:15Z</time>
      </trkpt>
      <trkpt lat="49.25101" lon="0.0624">
        <ele>134.6</ele>
        <time>2024-10-13T07:22:16Z</time>
      </trkpt>
      <trkpt lat="49.25098" lon="0.06252">
        <ele>134.6</ele>
        <time>2024-10-13T07:22:17Z</time>
      </trkpt>
      <trkpt lat="49.25096" lon="0.06263">
        <ele>134.6</ele>
        <time>2024-10-13T07:22:18Z</time>
      </trkpt>
      <trkpt lat="49.25094" lon="0.06271">
        <ele>134.6</ele>
        <time>2024-10-13T07:22:19Z</time>
      </trkpt>
      <trkpt lat="49.25091" lon="0.06284">
        <ele>134.6</ele>
        <time>2024-10-13T07:22:20Z</time>
      </trkpt>
      <trkpt lat="49.25088" lon="0.06295">
        <ele>134.6</ele>
        <time>2024-10-13T07:22:21Z</time>
      </trkpt>
      <trkpt lat="49.25086" lon="0.06303">
        <ele>134.8</ele>
        <time>2024-10-13T07:22:22Z</time>
      </trkpt>
      <trkpt lat="49.25082" lon="0.06316">
        <ele>134.8</ele>
        <time>2024-10-13T07:22:23Z</time>
      </trkpt>
      <trkpt lat="49.2508" lon="0.06327">
        <ele>135.2</ele>
        <time>2024-10-13T07:22:24Z</time>
      </trkpt>
      <trkpt lat="49.25077" lon="0.06337">
        <ele>135.2</ele>
        <time>2024-10-13T07:22:25Z</time>
      </trkpt>
      <trkpt lat="49.25074" lon="0.06347">
        <ele>135.4</ele>
        <time>2024-10-13T07:22:26Z</time>
      </trkpt>
      <trkpt lat="49.2507" lon="0.06356">
        <ele>135.8</ele>
        <time>2024-10-13T07:22:27Z</time>
      </trkpt>
      <trkpt lat="49.25067" lon="0.06365">
        <ele>136</ele>
        <time>2024-10-13T07:22:28Z</time>
      </trkpt>
      <trkpt lat="49.25064" lon="0.06375">
        <ele>136.4</ele>
        <time>2024-10-13T07:22:29Z</time>
      </trkpt>
      <trkpt lat="49.25062" lon="0.06383">
        <ele>136.6</ele>
        <time>2024-10-13T07:22:30Z</time>
      </trkpt>
      <trkpt lat="49.25058" lon="0.06394">
        <ele>136.8</ele>
        <time>2024-10-13T07:22:31Z</time>
      </trkpt>
      <trkpt lat="49.25054" lon="0.06403">
        <ele>136.8</ele>
        <time>2024-10-13T07:22:32Z</time>
      </trkpt>
      <trkpt lat="49.25051" lon="0.06412">
        <ele>136.8</ele>
        <time>2024-10-13T07:22:33Z</time>
      </trkpt>
      <trkpt lat="49.25047" lon="0.06422">
        <ele>137</ele>
        <time>2024-10-13T07:22:34Z</time>
      </trkpt>
      <trkpt lat="49.25044" lon="0.06429">
        <ele>137</ele>
        <time>2024-10-13T07:22:35Z</time>
      </trkpt>
      <trkpt lat="49.2504" lon="0.06441">
        <ele>137</ele>
        <time>2024-10-13T07:22:36Z</time>
      </trkpt>
      <trkpt lat="49.25036" lon="0.0645">
        <ele>137</ele>
        <time>2024-10-13T07:22:37Z</time>
      </trkpt>
      <trkpt lat="49.25032" lon="0.06458">
        <ele>137</ele>
        <time>2024-10-13T07:22:38Z</time>
      </trkpt>
      <trkpt lat="49.25027" lon="0.06469">
        <ele>137</ele>
        <time>2024-10-13T07:22:39Z</time>
      </trkpt>
      <trkpt lat="49.25023" lon="0.06479">
        <ele>137</ele>
        <time>2024-10-13T07:22:40Z</time>
      </trkpt>
      <trkpt lat="49.25021" lon="0.06487">
        <ele>137</ele>
        <time>2024-10-13T07:22:41Z</time>
      </trkpt>
      <trkpt lat="49.25016" lon="0.06498">
        <ele>136.8</ele>
        <time>2024-10-13T07:22:42Z</time>
      </trkpt>
      <trkpt lat="49.25012" lon="0.06508">
        <ele>136.8</ele>
        <time>2024-10-13T07:22:43Z</time>
      </trkpt>
      <trkpt lat="49.25008" lon="0.06518">
        <ele>136.8</ele>
        <time>2024-10-13T07:22:44Z</time>
      </trkpt>
      <trkpt lat="49.25004" lon="0.06528">
        <ele>136.8</ele>
        <time>2024-10-13T07:22:45Z</time>
      </trkpt>
      <trkpt lat="49.25" lon="0.06538">
        <ele>136.6</ele>
        <time>2024-10-13T07:22:46Z</time>
      </trkpt>
      <trkpt lat="49.24995" lon="0.06548">
        <ele>136.4</ele>
        <time>2024-10-13T07:22:47Z</time>
      </trkpt>
      <trkpt lat="49.24992" lon="0.06556">
        <ele>136.2</ele>
        <time>2024-10-13T07:22:48Z</time>
      </trkpt>
      <trkpt lat="49.24987" lon="0.06569">
        <ele>136.2</ele>
        <time>2024-10-13T07:22:49Z</time>
      </trkpt>
      <trkpt lat="49.24983" lon="0.06579">
        <ele>136.2</ele>
        <time>2024-10-13T07:22:50Z</time>
      </trkpt>
      <trkpt lat="49.24979" lon="0.06588">
        <ele>136</ele>
        <time>2024-10-13T07:22:51Z</time>
      </trkpt>
      <trkpt lat="49.24975" lon="0.06598">
        <ele>136</ele>
        <time>2024-10-13T07:22:52Z</time>
      </trkpt>
      <trkpt lat="49.24969" lon="0.06611">
        <ele>136</ele>
        <time>2024-10-13T07:22:53Z</time>
      </trkpt>
      <trkpt lat="49.24965" lon="0.06619">
        <ele>136</ele>
        <time>2024-10-13T07:22:54Z</time>
      </trkpt>
      <trkpt lat="49.2496" lon="0.06632">
        <ele>135.8</ele>
        <time>2024-10-13T07:22:55Z</time>
      </trkpt>
      <trkpt lat="49.24956" lon="0.06642">
        <ele>135.8</ele>
        <time>2024-10-13T07:22:56Z</time>
      </trkpt>
      <trkpt lat="49.24953" lon="0.06651">
        <ele>135.8</ele>
        <time>2024-10-13T07:22:57Z</time>
      </trkpt>
      <trkpt lat="49.24948" lon="0.06663">
        <ele>135.6</ele>
        <time>2024-10-13T07:22:58Z</time>
      </trkpt>
      <trkpt lat="49.24944" lon="0.06673">
        <ele>135.6</ele>
        <time>2024-10-13T07:22:59Z</time>
      </trkpt>
      <trkpt lat="49.2494" lon="0.06681">
        <ele>135.4</ele>
        <time>2024-10-13T07:23:00Z</time>
      </trkpt>
      <trkpt lat="49.24935" lon="0.06693">
        <ele>135.4</ele>
        <time>2024-10-13T07:23:01Z</time>
      </trkpt>
      <trkpt lat="49.24931" lon="0.06702">
        <ele>135.4</ele>
        <time>2024-10-13T07:23:02Z</time>
      </trkpt>
      <trkpt lat="49.24928" lon="0.06708">
        <ele>135.4</ele>
        <time>2024-10-13T07:23:03Z</time>
      </trkpt>
      <trkpt lat="49.24923" lon="0.06719">
        <ele>135.4</ele>
        <time>2024-10-13T07:23:04Z</time>
      </trkpt>
      <trkpt lat="49.24919" lon="0.06727">
        <ele>135.4</ele>
        <time>2024-10-13T07:23:05Z</time>
      </trkpt>
      <trkpt lat="49.24915" lon="0.06736">
        <ele>135.4</ele>
        <time>2024-10-13T07:23:06Z</time>
      </trkpt>
      <trkpt lat="49.24911" lon="0.06745">
        <ele>135.4</ele>
        <time>2024-10-13T07:23:07Z</time>
      </trkpt>
      <trkpt lat="49.24907" lon="0.06754">
        <ele>135.4</ele>
        <time>2024-10-13T07:23:08Z</time>
      </trkpt>
      <trkpt lat="49.24903" lon="0.06764">
        <ele>135.4</ele>
        <time>2024-10-13T07:23:09Z</time>
      </trkpt>
      <trkpt lat="49.249" lon="0.06771">
        <ele>135.6</ele>
        <time>2024-10-13T07:23:10Z</time>
      </trkpt>
      <trkpt lat="49.24895" lon="0.06782">
        <ele>135.8</ele>
        <time>2024-10-13T07:23:11Z</time>
      </trkpt>
      <trkpt lat="49.24891" lon="0.06791">
        <ele>136</ele>
        <time>2024-10-13T07:23:12Z</time>
      </trkpt>
      <trkpt lat="49.24888" lon="0.06798">
        <ele>136.2</ele>
        <time>2024-10-13T07:23:13Z</time>
      </trkpt>
      <trkpt lat="49.24883" lon="0.06809">
        <ele>136.4</ele>
        <time>2024-10-13T07:23:14Z</time>
      </trkpt>
      <trkpt lat="49.24879" lon="0.06818">
        <ele>136.6</ele>
        <time>2024-10-13T07:23:15Z</time>
      </trkpt>
      <trkpt lat="49.24876" lon="0.06825">
        <ele>136.8</ele>
        <time>2024-10-13T07:23:16Z</time>
      </trkpt>
      <trkpt lat="49.24871" lon="0.06836">
        <ele>137</ele>
        <time>2024-10-13T07:23:17Z</time>
      </trkpt>
      <trkpt lat="49.24867" lon="0.06845">
        <ele>137.2</ele>
        <time>2024-10-13T07:23:18Z</time>
      </trkpt>
      <trkpt lat="49.24863" lon="0.06854">
        <ele>137.4</ele>
        <time>2024-10-13T07:23:19Z</time>
      </trkpt>
      <trkpt lat="49.24859" lon="0.06862">
        <ele>137.6</ele>
        <time>2024-10-13T07:23:20Z</time>
      </trkpt>
      <trkpt lat="49.24855" lon="0.0687">
        <ele>137.8</ele>
        <time>2024-10-13T07:23:21Z</time>
      </trkpt>
      <trkpt lat="49.24852" lon="0.06877">
        <ele>138</ele>
        <time>2024-10-13T07:23:22Z</time>
      </trkpt>
      <trkpt lat="49.24847" lon="0.06887">
        <ele>138.2</ele>
        <time>2024-10-13T07:23:23Z</time>
      </trkpt>
      <trkpt lat="49.24844" lon="0.06894">
        <ele>138.2</ele>
        <time>2024-10-13T07:23:24Z</time>
      </trkpt>
      <trkpt lat="49.2484" lon="0.06903">
        <ele>138.4</ele>
        <time>2024-10-13T07:23:25Z</time>
      </trkpt>
      <trkpt lat="49.24836" lon="0.06911">
        <ele>138.6</ele>
        <time>2024-10-13T07:23:26Z</time>
      </trkpt>
      <trkpt lat="49.24833" lon="0.0692">
        <ele>138.8</ele>
        <time>2024-10-13T07:23:27Z</time>
      </trkpt>
      <trkpt lat="49.24829" lon="0.06929">
        <ele>139</ele>
        <time>2024-10-13T07:23:28Z</time>
      </trkpt>
      <trkpt lat="49.24825" lon="0.0694">
        <ele>139.2</ele>
        <time>2024-10-13T07:23:29Z</time>
      </trkpt>
      <trkpt lat="49.24823" lon="0.06948">
        <ele>139.4</ele>
        <time>2024-10-13T07:23:30Z</time>
      </trkpt>
      <trkpt lat="49.24819" lon="0.06957">
        <ele>139.6</ele>
        <time>2024-10-13T07:23:31Z</time>
      </trkpt>
      <trkpt lat="49.24815" lon="0.06968">
        <ele>139.8</ele>
        <time>2024-10-13T07:23:32Z</time>
      </trkpt>
      <trkpt lat="49.24813" lon="0.06976">
        <ele>140</ele>
        <time>2024-10-13T07:23:33Z</time>
      </trkpt>
      <trkpt lat="49.2481" lon="0.06985">
        <ele>140.2</ele>
        <time>2024-10-13T07:23:34Z</time>
      </trkpt>
      <trkpt lat="49.24807" lon="0.06995">
        <ele>140.4</ele>
        <time>2024-10-13T07:23:35Z</time>
      </trkpt>
      <trkpt lat="49.24804" lon="0.07004">
        <ele>140.6</ele>
        <time>2024-10-13T07:23:36Z</time>
      </trkpt>
      <trkpt lat="49.24801" lon="0.07014">
        <ele>140.8</ele>
        <time>2024-10-13T07:23:37Z</time>
      </trkpt>
      <trkpt lat="49.24797" lon="0.07023">
        <ele>140.8</ele>
        <time>2024-10-13T07:23:38Z</time>
      </trkpt>
      <trkpt lat="49.24794" lon="0.07032">
        <ele>141</ele>
        <time>2024-10-13T07:23:39Z</time>
      </trkpt>
      <trkpt lat="49.24791" lon="0.07042">
        <ele>141</ele>
        <time>2024-10-13T07:23:40Z</time>
      </trkpt>
      <trkpt lat="49.24788" lon="0.07053">
        <ele>141.4</ele>
        <time>2024-10-13T07:23:41Z</time>
      </trkpt>
      <trkpt lat="49.24785" lon="0.0706">
        <ele>141.8</ele>
        <time>2024-10-13T07:23:42Z</time>
      </trkpt>
      <trkpt lat="49.24782" lon="0.0707">
        <ele>142</ele>
        <time>2024-10-13T07:23:43Z</time>
      </trkpt>
      <trkpt lat="49.24779" lon="0.07081">
        <ele>142.4</ele>
        <time>2024-10-13T07:23:44Z</time>
      </trkpt>
      <trkpt lat="49.24776" lon="0.07088">
        <ele>142.6</ele>
        <time>2024-10-13T07:23:45Z</time>
      </trkpt>
      <trkpt lat="49.24773" lon="0.07097">
        <ele>142.6</ele>
        <time>2024-10-13T07:23:46Z</time>
      </trkpt>
      <trkpt lat="49.24769" lon="0.07106">
        <ele>142.8</ele>
        <time>2024-10-13T07:23:47Z</time>
      </trkpt>
      <trkpt lat="49.24767" lon="0.07115">
        <ele>142.8</ele>
        <time>2024-10-13T07:23:48Z</time>
      </trkpt>
      <trkpt lat="49.24763" lon="0.07127">
        <ele>143</ele>
        <time>2024-10-13T07:23:49Z</time>
      </trkpt>
      <trkpt lat="49.24761" lon="0.07134">
        <ele>143</ele>
        <time>2024-10-13T07:23:50Z</time>
      </trkpt>
      <trkpt lat="49.24758" lon="0.07143">
        <ele>143</ele>
        <time>2024-10-13T07:23:51Z</time>
      </trkpt>
      <trkpt lat="49.24754" lon="0.07154">
        <ele>143.2</ele>
        <time>2024-10-13T07:23:52Z</time>
      </trkpt>
      <trkpt lat="49.24751" lon="0.07163">
        <ele>143.2</ele>
        <time>2024-10-13T07:23:53Z</time>
      </trkpt>
      <trkpt lat="49.24748" lon="0.0717">
        <ele>143.4</ele>
        <time>2024-10-13T07:23:54Z</time>
      </trkpt>
      <trkpt lat="49.24744" lon="0.0718">
        <ele>143.4</ele>
        <time>2024-10-13T07:23:55Z</time>
      </trkpt>
      <trkpt lat="49.24741" lon="0.07187">
        <ele>143.6</ele>
        <time>2024-10-13T07:23:56Z</time>
      </trkpt>
      <trkpt lat="49.24738" lon="0.07196">
        <ele>143.6</ele>
        <time>2024-10-13T07:23:57Z</time>
      </trkpt>
      <trkpt lat="49.24733" lon="0.07207">
        <ele>143.6</ele>
        <time>2024-10-13T07:23:58Z</time>
      </trkpt>
      <trkpt lat="49.2473" lon="0.07214">
        <ele>143.8</ele>
        <time>2024-10-13T07:23:59Z</time>
      </trkpt>
      <trkpt lat="49.24726" lon="0.07223">
        <ele>144</ele>
        <time>2024-10-13T07:24:00Z</time>
      </trkpt>
      <trkpt lat="49.24722" lon="0.07232">
        <ele>144.2</ele>
        <time>2024-10-13T07:24:01Z</time>
      </trkpt>
      <trkpt lat="49.24718" lon="0.0724">
        <ele>144.4</ele>
        <time>2024-10-13T07:24:02Z</time>
      </trkpt>
      <trkpt lat="49.24714" lon="0.07249">
        <ele>144.4</ele>
        <time>2024-10-13T07:24:03Z</time>
      </trkpt>
      <trkpt lat="49.24709" lon="0.07259">
        <ele>144.6</ele>
        <time>2024-10-13T07:24:04Z</time>
      </trkpt>
      <trkpt lat="49.24705" lon="0.07266">
        <ele>144.6</ele>
        <time>2024-10-13T07:24:05Z</time>
      </trkpt>
      <trkpt lat="49.24701" lon="0.07274">
        <ele>144.8</ele>
        <time>2024-10-13T07:24:06Z</time>
      </trkpt>
      <trkpt lat="49.24696" lon="0.07285">
        <ele>144.8</ele>
        <time>2024-10-13T07:24:07Z</time>
      </trkpt>
      <trkpt lat="49.24692" lon="0.07291">
        <ele>145</ele>
        <time>2024-10-13T07:24:08Z</time>
      </trkpt>
      <trkpt lat="49.24687" lon="0.07299">
        <ele>145</ele>
        <time>2024-10-13T07:24:09Z</time>
      </trkpt>
      <trkpt lat="49.24681" lon="0.07308">
        <ele>145.2</ele>
        <time>2024-10-13T07:24:10Z</time>
      </trkpt>
      <trkpt lat="49.24677" lon="0.07315">
        <ele>145.4</ele>
        <time>2024-10-13T07:24:11Z</time>
      </trkpt>
      <trkpt lat="49.24671" lon="0.07324">
        <ele>145.4</ele>
        <time>2024-10-13T07:24:12Z</time>
      </trkpt>
      <trkpt lat="49.24666" lon="0.07332">
        <ele>145.8</ele>
        <time>2024-10-13T07:24:13Z</time>
      </trkpt>
      <trkpt lat="49.24662" lon="0.07338">
        <ele>146</ele>
        <time>2024-10-13T07:24:14Z</time>
      </trkpt>
      <trkpt lat="49.24657" lon="0.07346">
        <ele>146</ele>
        <time>2024-10-13T07:24:15Z</time>
      </trkpt>
      <trkpt lat="49.24652" lon="0.07356">
        <ele>146.2</ele>
        <time>2024-10-13T07:24:16Z</time>
      </trkpt>
      <trkpt lat="49.24648" lon="0.07362">
        <ele>146.2</ele>
        <time>2024-10-13T07:24:17Z</time>
      </trkpt>
      <trkpt lat="49.24643" lon="0.0737">
        <ele>146.2</ele>
        <time>2024-10-13T07:24:18Z</time>
      </trkpt>
      <trkpt lat="49.24637" lon="0.0738">
        <ele>146.2</ele>
        <time>2024-10-13T07:24:19Z</time>
      </trkpt>
      <trkpt lat="49.24633" lon="0.07386">
        <ele>146.4</ele>
        <time>2024-10-13T07:24:20Z</time>
      </trkpt>
      <trkpt lat="49.24627" lon="0.07394">
        <ele>146.4</ele>
        <time>2024-10-13T07:24:21Z</time>
      </trkpt>
      <trkpt lat="49.24621" lon="0.07404">
        <ele>146.4</ele>
        <time>2024-10-13T07:24:22Z</time>
      </trkpt>
      <trkpt lat="49.24617" lon="0.0741">
        <ele>146.6</ele>
        <time>2024-10-13T07:24:23Z</time>
      </trkpt>
      <trkpt lat="49.24612" lon="0.07418">
        <ele>146.6</ele>
        <time>2024-10-13T07:24:24Z</time>
      </trkpt>
      <trkpt lat="49.24606" lon="0.07428">
        <ele>146.8</ele>
        <time>2024-10-13T07:24:25Z</time>
      </trkpt>
      <trkpt lat="49.24602" lon="0.07435">
        <ele>146.8</ele>
        <time>2024-10-13T07:24:26Z</time>
      </trkpt>
      <trkpt lat="49.24597" lon="0.07443">
        <ele>146.8</ele>
        <time>2024-10-13T07:24:27Z</time>
      </trkpt>
      <trkpt lat="49.24591" lon="0.07453">
        <ele>147</ele>
        <time>2024-10-13T07:24:28Z</time>
      </trkpt>
      <trkpt lat="49.24587" lon="0.07459">
        <ele>147</ele>
        <time>2024-10-13T07:24:29Z</time>
      </trkpt>
      <trkpt lat="49.24582" lon="0.07467">
        <ele>147</ele>
        <time>2024-10-13T07:24:30Z</time>
      </trkpt>
      <trkpt lat="49.24575" lon="0.07477">
        <ele>147.2</ele>
        <time>2024-10-13T07:24:31Z</time>
      </trkpt>
      <trkpt lat="49.24572" lon="0.07483">
        <ele>147.2</ele>
        <time>2024-10-13T07:24:32Z</time>
      </trkpt>
      <trkpt lat="49.24565" lon="0.07493">
        <ele>147.2</ele>
        <time>2024-10-13T07:24:33Z</time>
      </trkpt>
      <trkpt lat="49.2456" lon="0.07502">
        <ele>147.2</ele>
        <time>2024-10-13T07:24:34Z</time>
      </trkpt>
      <trkpt lat="49.24556" lon="0.07509">
        <ele>147.4</ele>
        <time>2024-10-13T07:24:35Z</time>
      </trkpt>
      <trkpt lat="49.24551" lon="0.07519">
        <ele>147.4</ele>
        <time>2024-10-13T07:24:36Z</time>
      </trkpt>
      <trkpt lat="49.24546" lon="0.07528">
        <ele>147.4</ele>
        <time>2024-10-13T07:24:37Z</time>
      </trkpt>
      <trkpt lat="49.24541" lon="0.07535">
        <ele>147.6</ele>
        <time>2024-10-13T07:24:38Z</time>
      </trkpt>
      <trkpt lat="49.24536" lon="0.07544">
        <ele>147.6</ele>
        <time>2024-10-13T07:24:39Z</time>
      </trkpt>
      <trkpt lat="49.24531" lon="0.07553">
        <ele>147.6</ele>
        <time>2024-10-13T07:24:40Z</time>
      </trkpt>
      <trkpt lat="49.24526" lon="0.07562">
        <ele>147.6</ele>
        <time>2024-10-13T07:24:41Z</time>
      </trkpt>
      <trkpt lat="49.2452" lon="0.07573">
        <ele>147.6</ele>
        <time>2024-10-13T07:24:42Z</time>
      </trkpt>
      <trkpt lat="49.24514" lon="0.07581">
        <ele>147.6</ele>
        <time>2024-10-13T07:24:43Z</time>
      </trkpt>
      <trkpt lat="49.2451" lon="0.07588">
        <ele>147.6</ele>
        <time>2024-10-13T07:24:44Z</time>
      </trkpt>
      <trkpt lat="49.24503" lon="0.07599">
        <ele>147.6</ele>
        <time>2024-10-13T07:24:45Z</time>
      </trkpt>
      <trkpt lat="49.24499" lon="0.07606">
        <ele>147.6</ele>
        <time>2024-10-13T07:24:46Z</time>
      </trkpt>
      <trkpt lat="49.24494" lon="0.07616">
        <ele>147.6</ele>
        <time>2024-10-13T07:24:47Z</time>
      </trkpt>
      <trkpt lat="49.24487" lon="0.07628">
        <ele>147.6</ele>
        <time>2024-10-13T07:24:48Z</time>
      </trkpt>
      <trkpt lat="49.24483" lon="0.07636">
        <ele>147.6</ele>
        <time>2024-10-13T07:24:49Z</time>
      </trkpt>
      <trkpt lat="49.24477" lon="0.07646">
        <ele>147.6</ele>
        <time>2024-10-13T07:24:50Z</time>
      </trkpt>
      <trkpt lat="49.24471" lon="0.07656">
        <ele>147.2</ele>
        <time>2024-10-13T07:24:51Z</time>
      </trkpt>
      <trkpt lat="49.24465" lon="0.07667">
        <ele>147</ele>
        <time>2024-10-13T07:24:52Z</time>
      </trkpt>
      <trkpt lat="49.24459" lon="0.07677">
        <ele>146.6</ele>
        <time>2024-10-13T07:24:53Z</time>
      </trkpt>
      <trkpt lat="49.24452" lon="0.07689">
        <ele>146.6</ele>
        <time>2024-10-13T07:24:54Z</time>
      </trkpt>
      <trkpt lat="49.24446" lon="0.07697">
        <ele>146.4</ele>
        <time>2024-10-13T07:24:55Z</time>
      </trkpt>
      <trkpt lat="49.2444" lon="0.07707">
        <ele>146.6</ele>
        <time>2024-10-13T07:24:56Z</time>
      </trkpt>
      <trkpt lat="49.24432" lon="0.07719">
        <ele>146.2</ele>
        <time>2024-10-13T07:24:57Z</time>
      </trkpt>
      <trkpt lat="49.24427" lon="0.07728">
        <ele>146.4</ele>
        <time>2024-10-13T07:24:58Z</time>
      </trkpt>
      <trkpt lat="49.24421" lon="0.07738">
        <ele>146.4</ele>
        <time>2024-10-13T07:24:59Z</time>
      </trkpt>
      <trkpt lat="49.24415" lon="0.07749">
        <ele>146.2</ele>
        <time>2024-10-13T07:25:00Z</time>
      </trkpt>
      <trkpt lat="49.24409" lon="0.07759">
        <ele>146</ele>
        <time>2024-10-13T07:25:01Z</time>
      </trkpt>
      <trkpt lat="49.24402" lon="0.07769">
        <ele>146</ele>
        <time>2024-10-13T07:25:02Z</time>
      </trkpt>
      <trkpt lat="49.24396" lon="0.0778">
        <ele>145.8</ele>
        <time>2024-10-13T07:25:03Z</time>
      </trkpt>
      <trkpt lat="49.24389" lon="0.0779">
        <ele>145.6</ele>
        <time>2024-10-13T07:25:04Z</time>
      </trkpt>
      <trkpt lat="49.24383" lon="0.07801">
        <ele>145.2</ele>
        <time>2024-10-13T07:25:05Z</time>
      </trkpt>
      <trkpt lat="49.24375" lon="0.07814">
        <ele>144.6</ele>
        <time>2024-10-13T07:25:06Z</time>
      </trkpt>
      <trkpt lat="49.24369" lon="0.07824">
        <ele>144.4</ele>
        <time>2024-10-13T07:25:07Z</time>
      </trkpt>
      <trkpt lat="49.24364" lon="0.07832">
        <ele>144.4</ele>
        <time>2024-10-13T07:25:08Z</time>
      </trkpt>
      <trkpt lat="49.24356" lon="0.07845">
        <ele>144.2</ele>
        <time>2024-10-13T07:25:09Z</time>
      </trkpt>
      <trkpt lat="49.24351" lon="0.07853">
        <ele>144.2</ele>
        <time>2024-10-13T07:25:10Z</time>
      </trkpt>
      <trkpt lat="49.24345" lon="0.07863">
        <ele>144</ele>
        <time>2024-10-13T07:25:11Z</time>
      </trkpt>
      <trkpt lat="49.24339" lon="0.07874">
        <ele>143.8</ele>
        <time>2024-10-13T07:25:12Z</time>
      </trkpt>
      <trkpt lat="49.24332" lon="0.07884">
        <ele>143.8</ele>
        <time>2024-10-13T07:25:13Z</time>
      </trkpt>
      <trkpt lat="49.24326" lon="0.07895">
        <ele>143.6</ele>
        <time>2024-10-13T07:25:14Z</time>
      </trkpt>
      <trkpt lat="49.24318" lon="0.07908">
        <ele>143.4</ele>
        <time>2024-10-13T07:25:15Z</time>
      </trkpt>
      <trkpt lat="49.24313" lon="0.07916">
        <ele>143.4</ele>
        <time>2024-10-13T07:25:16Z</time>
      </trkpt>
      <trkpt lat="49.24307" lon="0.07927">
        <ele>143.4</ele>
        <time>2024-10-13T07:25:17Z</time>
      </trkpt>
      <trkpt lat="49.24299" lon="0.07939">
        <ele>143.2</ele>
        <time>2024-10-13T07:25:18Z</time>
      </trkpt>
      <trkpt lat="49.24294" lon="0.07947">
        <ele>143.2</ele>
        <time>2024-10-13T07:25:19Z</time>
      </trkpt>
      <trkpt lat="49.24288" lon="0.07957">
        <ele>143.2</ele>
        <time>2024-10-13T07:25:20Z</time>
      </trkpt>
      <trkpt lat="49.2428" lon="0.0797">
        <ele>143</ele>
        <time>2024-10-13T07:25:21Z</time>
      </trkpt>
      <trkpt lat="49.24275" lon="0.07978">
        <ele>143</ele>
        <time>2024-10-13T07:25:22Z</time>
      </trkpt>
      <trkpt lat="49.24269" lon="0.07989">
        <ele>143</ele>
        <time>2024-10-13T07:25:23Z</time>
      </trkpt>
      <trkpt lat="49.24263" lon="0.07999">
        <ele>143</ele>
        <time>2024-10-13T07:25:24Z</time>
      </trkpt>
      <trkpt lat="49.24257" lon="0.08009">
        <ele>143</ele>
        <time>2024-10-13T07:25:25Z</time>
      </trkpt>
      <trkpt lat="49.24251" lon="0.08019">
        <ele>143</ele>
        <time>2024-10-13T07:25:26Z</time>
      </trkpt>
      <trkpt lat="49.24244" lon="0.08031">
        <ele>143</ele>
        <time>2024-10-13T07:25:27Z</time>
      </trkpt>
      <trkpt lat="49.24239" lon="0.08038">
        <ele>143</ele>
        <time>2024-10-13T07:25:28Z</time>
      </trkpt>
      <trkpt lat="49.24232" lon="0.0805">
        <ele>143</ele>
        <time>2024-10-13T07:25:29Z</time>
      </trkpt>
      <trkpt lat="49.24227" lon="0.08058">
        <ele>143</ele>
        <time>2024-10-13T07:25:30Z</time>
      </trkpt>
      <trkpt lat="49.24221" lon="0.08068">
        <ele>142.8</ele>
        <time>2024-10-13T07:25:31Z</time>
      </trkpt>
      <trkpt lat="49.24214" lon="0.08078">
        <ele>142.8</ele>
        <time>2024-10-13T07:25:32Z</time>
      </trkpt>
      <trkpt lat="49.24208" lon="0.08088">
        <ele>142.8</ele>
        <time>2024-10-13T07:25:33Z</time>
      </trkpt>
      <trkpt lat="49.24202" lon="0.08097">
        <ele>142.8</ele>
        <time>2024-10-13T07:25:34Z</time>
      </trkpt>
      <trkpt lat="49.24195" lon="0.08109">
        <ele>142.8</ele>
        <time>2024-10-13T07:25:35Z</time>
      </trkpt>
      <trkpt lat="49.2419" lon="0.08117">
        <ele>142.8</ele>
        <time>2024-10-13T07:25:36Z</time>
      </trkpt>
      <trkpt lat="49.24184" lon="0.08128">
        <ele>142.8</ele>
        <time>2024-10-13T07:25:37Z</time>
      </trkpt>
      <trkpt lat="49.24177" lon="0.0814">
        <ele>142.8</ele>
        <time>2024-10-13T07:25:38Z</time>
      </trkpt>
      <trkpt lat="49.2417" lon="0.0815">
        <ele>142.8</ele>
        <time>2024-10-13T07:25:39Z</time>
      </trkpt>
      <trkpt lat="49.24165" lon="0.08158">
        <ele>142.8</ele>
        <time>2024-10-13T07:25:40Z</time>
      </trkpt>
      <trkpt lat="49.24158" lon="0.0817">
        <ele>142.8</ele>
        <time>2024-10-13T07:25:41Z</time>
      </trkpt>
      <trkpt lat="49.24153" lon="0.08179">
        <ele>142.8</ele>
        <time>2024-10-13T07:25:42Z</time>
      </trkpt>
      <trkpt lat="49.24146" lon="0.08189">
        <ele>142.6</ele>
        <time>2024-10-13T07:25:43Z</time>
      </trkpt>
      <trkpt lat="49.2414" lon="0.082">
        <ele>142.6</ele>
        <time>2024-10-13T07:25:44Z</time>
      </trkpt>
      <trkpt lat="49.24134" lon="0.08211">
        <ele>142.6</ele>
        <time>2024-10-13T07:25:45Z</time>
      </trkpt>
      <trkpt lat="49.24127" lon="0.08222">
        <ele>142.6</ele>
        <time>2024-10-13T07:25:46Z</time>
      </trkpt>
      <trkpt lat="49.24119" lon="0.08236">
        <ele>142.4</ele>
        <time>2024-10-13T07:25:47Z</time>
      </trkpt>
      <trkpt lat="49.24114" lon="0.08244">
        <ele>142.4</ele>
        <time>2024-10-13T07:25:48Z</time>
      </trkpt>
      <trkpt lat="49.24107" lon="0.08255">
        <ele>142.4</ele>
        <time>2024-10-13T07:25:49Z</time>
      </trkpt>
      <trkpt lat="49.24098" lon="0.08269">
        <ele>142.2</ele>
        <time>2024-10-13T07:25:50Z</time>
      </trkpt>
      <trkpt lat="49.24093" lon="0.08278">
        <ele>142</ele>
        <time>2024-10-13T07:25:51Z</time>
      </trkpt>
      <trkpt lat="49.24086" lon="0.08289">
        <ele>141.8</ele>
        <time>2024-10-13T07:25:52Z</time>
      </trkpt>
      <trkpt lat="49.24078" lon="0.08302">
        <ele>141.6</ele>
        <time>2024-10-13T07:25:53Z</time>
      </trkpt>
      <trkpt lat="49.24072" lon="0.0831">
        <ele>141.6</ele>
        <time>2024-10-13T07:25:54Z</time>
      </trkpt>
      <trkpt lat="49.24066" lon="0.0832">
        <ele>141.4</ele>
        <time>2024-10-13T07:25:55Z</time>
      </trkpt>
      <trkpt lat="49.24059" lon="0.0833">
        <ele>141.2</ele>
        <time>2024-10-13T07:25:56Z</time>
      </trkpt>
      <trkpt lat="49.24053" lon="0.0834">
        <ele>141.2</ele>
        <time>2024-10-13T07:25:57Z</time>
      </trkpt>
      <trkpt lat="49.24047" lon="0.08349">
        <ele>141</ele>
        <time>2024-10-13T07:25:58Z</time>
      </trkpt>
      <trkpt lat="49.2404" lon="0.0836">
        <ele>141</ele>
        <time>2024-10-13T07:25:59Z</time>
      </trkpt>
      <trkpt lat="49.24035" lon="0.08368">
        <ele>140.8</ele>
        <time>2024-10-13T07:26:00Z</time>
      </trkpt>
      <trkpt lat="49.24029" lon="0.08377">
        <ele>140.8</ele>
        <time>2024-10-13T07:26:01Z</time>
      </trkpt>
      <trkpt lat="49.24022" lon="0.08388">
        <ele>140.8</ele>
        <time>2024-10-13T07:26:02Z</time>
      </trkpt>
      <trkpt lat="49.24018" lon="0.08395">
        <ele>140.8</ele>
        <time>2024-10-13T07:26:03Z</time>
      </trkpt>
      <trkpt lat="49.24012" lon="0.08404">
        <ele>140.8</ele>
        <time>2024-10-13T07:26:04Z</time>
      </trkpt>
      <trkpt lat="49.24007" lon="0.08413">
        <ele>140.8</ele>
        <time>2024-10-13T07:26:05Z</time>
      </trkpt>
      <trkpt lat="49.24001" lon="0.08422">
        <ele>140.8</ele>
        <time>2024-10-13T07:26:06Z</time>
      </trkpt>
      <trkpt lat="49.23996" lon="0.0843">
        <ele>140.8</ele>
        <time>2024-10-13T07:26:07Z</time>
      </trkpt>
      <trkpt lat="49.2399" lon="0.08438">
        <ele>140.8</ele>
        <time>2024-10-13T07:26:08Z</time>
      </trkpt>
      <trkpt lat="49.23985" lon="0.08447">
        <ele>140.8</ele>
        <time>2024-10-13T07:26:09Z</time>
      </trkpt>
      <trkpt lat="49.23979" lon="0.08456">
        <ele>141</ele>
        <time>2024-10-13T07:26:10Z</time>
      </trkpt>
      <trkpt lat="49.23973" lon="0.08465">
        <ele>141.2</ele>
        <time>2024-10-13T07:26:11Z</time>
      </trkpt>
      <trkpt lat="49.23968" lon="0.08472">
        <ele>141.6</ele>
        <time>2024-10-13T07:26:12Z</time>
      </trkpt>
      <trkpt lat="49.23962" lon="0.0848">
        <ele>141.8</ele>
        <time>2024-10-13T07:26:13Z</time>
      </trkpt>
      <trkpt lat="49.23957" lon="0.08489">
        <ele>142</ele>
        <time>2024-10-13T07:26:14Z</time>
      </trkpt>
      <trkpt lat="49.23951" lon="0.08497">
        <ele>142.2</ele>
        <time>2024-10-13T07:26:15Z</time>
      </trkpt>
      <trkpt lat="49.23946" lon="0.08507">
        <ele>142.4</ele>
        <time>2024-10-13T07:26:16Z</time>
      </trkpt>
      <trkpt lat="49.23941" lon="0.08516">
        <ele>142.4</ele>
        <time>2024-10-13T07:26:17Z</time>
      </trkpt>
      <trkpt lat="49.23935" lon="0.08526">
        <ele>142.6</ele>
        <time>2024-10-13T07:26:18Z</time>
      </trkpt>
      <trkpt lat="49.23929" lon="0.08538">
        <ele>142.6</ele>
        <time>2024-10-13T07:26:19Z</time>
      </trkpt>
      <trkpt lat="49.23925" lon="0.08547">
        <ele>142.6</ele>
        <time>2024-10-13T07:26:20Z</time>
      </trkpt>
      <trkpt lat="49.2392" lon="0.08557">
        <ele>142.8</ele>
        <time>2024-10-13T07:26:21Z</time>
      </trkpt>
      <trkpt lat="49.23914" lon="0.08571">
        <ele>143</ele>
        <time>2024-10-13T07:26:22Z</time>
      </trkpt>
      <trkpt lat="49.23909" lon="0.08582">
        <ele>143</ele>
        <time>2024-10-13T07:26:23Z</time>
      </trkpt>
      <trkpt lat="49.23905" lon="0.08591">
        <ele>143.2</ele>
        <time>2024-10-13T07:26:24Z</time>
      </trkpt>
      <trkpt lat="49.23899" lon="0.08605">
        <ele>143.2</ele>
        <time>2024-10-13T07:26:25Z</time>
      </trkpt>
      <trkpt lat="49.23895" lon="0.08614">
        <ele>143.2</ele>
        <time>2024-10-13T07:26:26Z</time>
      </trkpt>
      <trkpt lat="49.2389" lon="0.08626">
        <ele>143.2</ele>
        <time>2024-10-13T07:26:27Z</time>
      </trkpt>
      <trkpt lat="49.23885" lon="0.08638">
        <ele>143.2</ele>
        <time>2024-10-13T07:26:28Z</time>
      </trkpt>
      <trkpt lat="49.2388" lon="0.0865">
        <ele>143.2</ele>
        <time>2024-10-13T07:26:29Z</time>
      </trkpt>
      <trkpt lat="49.23875" lon="0.08662">
        <ele>143.2</ele>
        <time>2024-10-13T07:26:30Z</time>
      </trkpt>
      <trkpt lat="49.23869" lon="0.08677">
        <ele>143.2</ele>
        <time>2024-10-13T07:26:31Z</time>
      </trkpt>
      <trkpt lat="49.23866" lon="0.08686">
        <ele>143.2</ele>
        <time>2024-10-13T07:26:32Z</time>
      </trkpt>
      <trkpt lat="49.23861" lon="0.08699">
        <ele>143</ele>
        <time>2024-10-13T07:26:33Z</time>
      </trkpt>
      <trkpt lat="49.23856" lon="0.08714">
        <ele>143</ele>
        <time>2024-10-13T07:26:34Z</time>
      </trkpt>
      <trkpt lat="49.23852" lon="0.08724">
        <ele>142.8</ele>
        <time>2024-10-13T07:26:35Z</time>
      </trkpt>
      <trkpt lat="49.23847" lon="0.08736">
        <ele>142.6</ele>
        <time>2024-10-13T07:26:36Z</time>
      </trkpt>
      <trkpt lat="49.23842" lon="0.08751">
        <ele>142.2</ele>
        <time>2024-10-13T07:26:37Z</time>
      </trkpt>
      <trkpt lat="49.23838" lon="0.08761">
        <ele>142</ele>
        <time>2024-10-13T07:26:38Z</time>
      </trkpt>
      <trkpt lat="49.23834" lon="0.08774">
        <ele>141.8</ele>
        <time>2024-10-13T07:26:39Z</time>
      </trkpt>
      <trkpt lat="49.23829" lon="0.08786">
        <ele>141.8</ele>
        <time>2024-10-13T07:26:40Z</time>
      </trkpt>
      <trkpt lat="49.23824" lon="0.08799">
        <ele>141.6</ele>
        <time>2024-10-13T07:26:41Z</time>
      </trkpt>
      <trkpt lat="49.23819" lon="0.08812">
        <ele>141.4</ele>
        <time>2024-10-13T07:26:42Z</time>
      </trkpt>
      <trkpt lat="49.23814" lon="0.08827">
        <ele>141.2</ele>
        <time>2024-10-13T07:26:43Z</time>
      </trkpt>
      <trkpt lat="49.2381" lon="0.08837">
        <ele>141</ele>
        <time>2024-10-13T07:26:44Z</time>
      </trkpt>
      <trkpt lat="49.23806" lon="0.0885">
        <ele>141</ele>
        <time>2024-10-13T07:26:45Z</time>
      </trkpt>
      <trkpt lat="49.23801" lon="0.08866">
        <ele>140.8</ele>
        <time>2024-10-13T07:26:46Z</time>
      </trkpt>
      <trkpt lat="49.23799" lon="0.08877">
        <ele>140.8</ele>
        <time>2024-10-13T07:26:47Z</time>
      </trkpt>
      <trkpt lat="49.23795" lon="0.08891">
        <ele>140.6</ele>
        <time>2024-10-13T07:26:48Z</time>
      </trkpt>
      <trkpt lat="49.23792" lon="0.08904">
        <ele>140.4</ele>
        <time>2024-10-13T07:26:49Z</time>
      </trkpt>
      <trkpt lat="49.23789" lon="0.08918">
        <ele>140.2</ele>
        <time>2024-10-13T07:26:50Z</time>
      </trkpt>
      <trkpt lat="49.23785" lon="0.08931">
        <ele>140</ele>
        <time>2024-10-13T07:26:51Z</time>
      </trkpt>
      <trkpt lat="49.23782" lon="0.08948">
        <ele>140</ele>
        <time>2024-10-13T07:26:52Z</time>
      </trkpt>
      <trkpt lat="49.23779" lon="0.08959">
        <ele>139.8</ele>
        <time>2024-10-13T07:26:53Z</time>
      </trkpt>
      <trkpt lat="49.23777" lon="0.08972">
        <ele>139.8</ele>
        <time>2024-10-13T07:26:54Z</time>
      </trkpt>
      <trkpt lat="49.23773" lon="0.08988">
        <ele>139.6</ele>
        <time>2024-10-13T07:26:55Z</time>
      </trkpt>
      <trkpt lat="49.2377" lon="0.08999">
        <ele>139.6</ele>
        <time>2024-10-13T07:26:56Z</time>
      </trkpt>
      <trkpt lat="49.23767" lon="0.09012">
        <ele>139.6</ele>
        <time>2024-10-13T07:26:57Z</time>
      </trkpt>
      <trkpt lat="49.23764" lon="0.09026">
        <ele>139.6</ele>
        <time>2024-10-13T07:26:58Z</time>
      </trkpt>
      <trkpt lat="49.23762" lon="0.09039">
        <ele>139.4</ele>
        <time>2024-10-13T07:26:59Z</time>
      </trkpt>
      <trkpt lat="49.23758" lon="0.09055">
        <ele>139.4</ele>
        <time>2024-10-13T07:27:00Z</time>
      </trkpt>
      <trkpt lat="49.23756" lon="0.09066">
        <ele>139.2</ele>
        <time>2024-10-13T07:27:01Z</time>
      </trkpt>
      <trkpt lat="49.23753" lon="0.0908">
        <ele>139.2</ele>
        <time>2024-10-13T07:27:02Z</time>
      </trkpt>
      <trkpt lat="49.23749" lon="0.09097">
        <ele>139.2</ele>
        <time>2024-10-13T07:27:03Z</time>
      </trkpt>
      <trkpt lat="49.23747" lon="0.09108">
        <ele>139.2</ele>
        <time>2024-10-13T07:27:04Z</time>
      </trkpt>
      <trkpt lat="49.23744" lon="0.09121">
        <ele>139</ele>
        <time>2024-10-13T07:27:05Z</time>
      </trkpt>
      <trkpt lat="49.23741" lon="0.09135">
        <ele>139</ele>
        <time>2024-10-13T07:27:06Z</time>
      </trkpt>
      <trkpt lat="49.23738" lon="0.09148">
        <ele>139</ele>
        <time>2024-10-13T07:27:07Z</time>
      </trkpt>
      <trkpt lat="49.23735" lon="0.09161">
        <ele>138.8</ele>
        <time>2024-10-13T07:27:08Z</time>
      </trkpt>
      <trkpt lat="49.23732" lon="0.09177">
        <ele>138.6</ele>
        <time>2024-10-13T07:27:09Z</time>
      </trkpt>
      <trkpt lat="49.23729" lon="0.09187">
        <ele>138.6</ele>
        <time>2024-10-13T07:27:10Z</time>
      </trkpt>
      <trkpt lat="49.23727" lon="0.092">
        <ele>138.4</ele>
        <time>2024-10-13T07:27:11Z</time>
      </trkpt>
      <trkpt lat="49.23724" lon="0.09214">
        <ele>138.4</ele>
        <time>2024-10-13T07:27:12Z</time>
      </trkpt>
      <trkpt lat="49.2372" lon="0.09227">
        <ele>138.2</ele>
        <time>2024-10-13T07:27:13Z</time>
      </trkpt>
      <trkpt lat="49.23717" lon="0.0924">
        <ele>138</ele>
        <time>2024-10-13T07:27:14Z</time>
      </trkpt>
      <trkpt lat="49.23713" lon="0.09254">
        <ele>137.8</ele>
        <time>2024-10-13T07:27:15Z</time>
      </trkpt>
      <trkpt lat="49.2371" lon="0.09267">
        <ele>137.8</ele>
        <time>2024-10-13T07:27:16Z</time>
      </trkpt>
      <trkpt lat="49.23706" lon="0.0928">
        <ele>137.6</ele>
        <time>2024-10-13T07:27:17Z</time>
      </trkpt>
      <trkpt lat="49.23701" lon="0.09295">
        <ele>137.6</ele>
        <time>2024-10-13T07:27:18Z</time>
      </trkpt>
      <trkpt lat="49.23697" lon="0.09305">
        <ele>137.6</ele>
        <time>2024-10-13T07:27:19Z</time>
      </trkpt>
      <trkpt lat="49.23692" lon="0.09318">
        <ele>137.6</ele>
        <time>2024-10-13T07:27:20Z</time>
      </trkpt>
      <trkpt lat="49.23686" lon="0.09332">
        <ele>137.6</ele>
        <time>2024-10-13T07:27:21Z</time>
      </trkpt>
      <trkpt lat="49.23682" lon="0.09341">
        <ele>137.6</ele>
        <time>2024-10-13T07:27:22Z</time>
      </trkpt>
      <trkpt lat="49.23677" lon="0.09353">
        <ele>137.6</ele>
        <time>2024-10-13T07:27:23Z</time>
      </trkpt>
      <trkpt lat="49.23672" lon="0.09364">
        <ele>137.6</ele>
        <time>2024-10-13T07:27:24Z</time>
      </trkpt>
      <trkpt lat="49.23667" lon="0.09376">
        <ele>137.6</ele>
        <time>2024-10-13T07:27:25Z</time>
      </trkpt>
      <trkpt lat="49.23661" lon="0.0939">
        <ele>137.6</ele>
        <time>2024-10-13T07:27:26Z</time>
      </trkpt>
      <trkpt lat="49.23657" lon="0.094">
        <ele>137.6</ele>
        <time>2024-10-13T07:27:27Z</time>
      </trkpt>
      <trkpt lat="49.23652" lon="0.09411">
        <ele>137.6</ele>
        <time>2024-10-13T07:27:28Z</time>
      </trkpt>
      <trkpt lat="49.23647" lon="0.09423">
        <ele>137.6</ele>
        <time>2024-10-13T07:27:29Z</time>
      </trkpt>
      <trkpt lat="49.2364" lon="0.09437">
        <ele>137.8</ele>
        <time>2024-10-13T07:27:30Z</time>
      </trkpt>
      <trkpt lat="49.23636" lon="0.09446">
        <ele>138</ele>
        <time>2024-10-13T07:27:31Z</time>
      </trkpt>
      <trkpt lat="49.23631" lon="0.09458">
        <ele>138</ele>
        <time>2024-10-13T07:27:32Z</time>
      </trkpt>
      <trkpt lat="49.23626" lon="0.0947">
        <ele>138</ele>
        <time>2024-10-13T07:27:33Z</time>
      </trkpt>
      <trkpt lat="49.2362" lon="0.09481">
        <ele>138.2</ele>
        <time>2024-10-13T07:27:34Z</time>
      </trkpt>
      <trkpt lat="49.23615" lon="0.09492">
        <ele>138.2</ele>
        <time>2024-10-13T07:27:35Z</time>
      </trkpt>
      <trkpt lat="49.23609" lon="0.09505">
        <ele>138.4</ele>
        <time>2024-10-13T07:27:36Z</time>
      </trkpt>
      <trkpt lat="49.23605" lon="0.09513">
        <ele>138.4</ele>
        <time>2024-10-13T07:27:37Z</time>
      </trkpt>
      <trkpt lat="49.23599" lon="0.09523">
        <ele>138.4</ele>
        <time>2024-10-13T07:27:38Z</time>
      </trkpt>
      <trkpt lat="49.23593" lon="0.09535">
        <ele>138.4</ele>
        <time>2024-10-13T07:27:39Z</time>
      </trkpt>
      <trkpt lat="49.23589" lon="0.09543">
        <ele>138.6</ele>
        <time>2024-10-13T07:27:40Z</time>
      </trkpt>
      <trkpt lat="49.23582" lon="0.09554">
        <ele>138.6</ele>
        <time>2024-10-13T07:27:41Z</time>
      </trkpt>
      <trkpt lat="49.23578" lon="0.09562">
        <ele>138.6</ele>
        <time>2024-10-13T07:27:42Z</time>
      </trkpt>
      <trkpt lat="49.23573" lon="0.09571">
        <ele>138.6</ele>
        <time>2024-10-13T07:27:43Z</time>
      </trkpt>
      <trkpt lat="49.23568" lon="0.09579">
        <ele>138.6</ele>
        <time>2024-10-13T07:27:44Z</time>
      </trkpt>
      <trkpt lat="49.23563" lon="0.09588">
        <ele>138.6</ele>
        <time>2024-10-13T07:27:45Z</time>
      </trkpt>
      <trkpt lat="49.23558" lon="0.09597">
        <ele>138.6</ele>
        <time>2024-10-13T07:27:46Z</time>
      </trkpt>
      <trkpt lat="49.23552" lon="0.09607">
        <ele>138.6</ele>
        <time>2024-10-13T07:27:47Z</time>
      </trkpt>
      <trkpt lat="49.23549" lon="0.09613">
        <ele>138.6</ele>
        <time>2024-10-13T07:27:48Z</time>
      </trkpt>
      <trkpt lat="49.23544" lon="0.09621">
        <ele>138.6</ele>
        <time>2024-10-13T07:27:49Z</time>
      </trkpt>
      <trkpt lat="49.2354" lon="0.09629">
        <ele>138.6</ele>
        <time>2024-10-13T07:27:50Z</time>
      </trkpt>
      <trkpt lat="49.23535" lon="0.09636">
        <ele>138.6</ele>
        <time>2024-10-13T07:27:51Z</time>
      </trkpt>
      <trkpt lat="49.23531" lon="0.09643">
        <ele>138.4</ele>
        <time>2024-10-13T07:27:52Z</time>
      </trkpt>
      <trkpt lat="49.23527" lon="0.09651">
        <ele>138.4</ele>
        <time>2024-10-13T07:27:53Z</time>
      </trkpt>
      <trkpt lat="49.23523" lon="0.09657">
        <ele>138.4</ele>
        <time>2024-10-13T07:27:54Z</time>
      </trkpt>
      <trkpt lat="49.23518" lon="0.09662">
        <ele>138.4</ele>
        <time>2024-10-13T07:27:55Z</time>
      </trkpt>
      <trkpt lat="49.23511" lon="0.09668">
        <ele>138.2</ele>
        <time>2024-10-13T07:27:56Z</time>
      </trkpt>
      <trkpt lat="49.23507" lon="0.09672">
        <ele>138.2</ele>
        <time>2024-10-13T07:27:57Z</time>
      </trkpt>
      <trkpt lat="49.23503" lon="0.0968">
        <ele>138.2</ele>
        <time>2024-10-13T07:27:58Z</time>
      </trkpt>
      <trkpt lat="49.23501" lon="0.09688">
        <ele>138.2</ele>
        <time>2024-10-13T07:27:59Z</time>
      </trkpt>
      <trkpt lat="49.23498" lon="0.09698">
        <ele>138</ele>
        <time>2024-10-13T07:28:00Z</time>
      </trkpt>
      <trkpt lat="49.23496" lon="0.09707">
        <ele>138</ele>
        <time>2024-10-13T07:28:01Z</time>
      </trkpt>
      <trkpt lat="49.23492" lon="0.09715">
        <ele>138</ele>
        <time>2024-10-13T07:28:02Z</time>
      </trkpt>
      <trkpt lat="49.23487" lon="0.09723">
        <ele>138</ele>
        <time>2024-10-13T07:28:03Z</time>
      </trkpt>
      <trkpt lat="49.23482" lon="0.09731">
        <ele>137.8</ele>
        <time>2024-10-13T07:28:04Z</time>
      </trkpt>
      <trkpt lat="49.23476" lon="0.09741">
        <ele>137.8</ele>
        <time>2024-10-13T07:28:05Z</time>
      </trkpt>
      <trkpt lat="49.23472" lon="0.09748">
        <ele>137.6</ele>
        <time>2024-10-13T07:28:06Z</time>
      </trkpt>
      <trkpt lat="49.23467" lon="0.09757">
        <ele>137.6</ele>
        <time>2024-10-13T07:28:07Z</time>
      </trkpt>
      <trkpt lat="49.23461" lon="0.09766">
        <ele>137.4</ele>
        <time>2024-10-13T07:28:08Z</time>
      </trkpt>
      <trkpt lat="49.23455" lon="0.09775">
        <ele>137.2</ele>
        <time>2024-10-13T07:28:09Z</time>
      </trkpt>
      <trkpt lat="49.23449" lon="0.09784">
        <ele>137.2</ele>
        <time>2024-10-13T07:28:10Z</time>
      </trkpt>
      <trkpt lat="49.23442" lon="0.09795">
        <ele>137.2</ele>
        <time>2024-10-13T07:28:11Z</time>
      </trkpt>
      <trkpt lat="49.23437" lon="0.09802">
        <ele>137</ele>
        <time>2024-10-13T07:28:12Z</time>
      </trkpt>
      <trkpt lat="49.23431" lon="0.09812">
        <ele>137</ele>
        <time>2024-10-13T07:28:13Z</time>
      </trkpt>
      <trkpt lat="49.23425" lon="0.09821">
        <ele>137</ele>
        <time>2024-10-13T07:28:14Z</time>
      </trkpt>
      <trkpt lat="49.23418" lon="0.09831">
        <ele>137</ele>
        <time>2024-10-13T07:28:15Z</time>
      </trkpt>
      <trkpt lat="49.23412" lon="0.0984">
        <ele>136.8</ele>
        <time>2024-10-13T07:28:16Z</time>
      </trkpt>
      <trkpt lat="49.23406" lon="0.09849">
        <ele>136.6</ele>
        <time>2024-10-13T07:28:17Z</time>
      </trkpt>
      <trkpt lat="49.234" lon="0.09859">
        <ele>136.6</ele>
        <time>2024-10-13T07:28:18Z</time>
      </trkpt>
      <trkpt lat="49.23394" lon="0.09868">
        <ele>136.4</ele>
        <time>2024-10-13T07:28:19Z</time>
      </trkpt>
      <trkpt lat="49.23387" lon="0.09877">
        <ele>136.2</ele>
        <time>2024-10-13T07:28:20Z</time>
      </trkpt>
      <trkpt lat="49.23381" lon="0.09886">
        <ele>135.8</ele>
        <time>2024-10-13T07:28:21Z</time>
      </trkpt>
      <trkpt lat="49.23374" lon="0.09896">
        <ele>135.6</ele>
        <time>2024-10-13T07:28:22Z</time>
      </trkpt>
      <trkpt lat="49.23368" lon="0.09905">
        <ele>135.4</ele>
        <time>2024-10-13T07:28:23Z</time>
      </trkpt>
      <trkpt lat="49.23361" lon="0.09914">
        <ele>135.2</ele>
        <time>2024-10-13T07:28:24Z</time>
      </trkpt>
      <trkpt lat="49.23353" lon="0.09925">
        <ele>135.2</ele>
        <time>2024-10-13T07:28:25Z</time>
      </trkpt>
      <trkpt lat="49.23347" lon="0.09932">
        <ele>135</ele>
        <time>2024-10-13T07:28:26Z</time>
      </trkpt>
      <trkpt lat="49.2334" lon="0.09941">
        <ele>134.8</ele>
        <time>2024-10-13T07:28:27Z</time>
      </trkpt>
      <trkpt lat="49.23332" lon="0.09952">
        <ele>134.6</ele>
        <time>2024-10-13T07:28:28Z</time>
      </trkpt>
      <trkpt lat="49.23327" lon="0.0996">
        <ele>134.6</ele>
        <time>2024-10-13T07:28:29Z</time>
      </trkpt>
      <trkpt lat="49.2332" lon="0.0997">
        <ele>134.2</ele>
        <time>2024-10-13T07:28:30Z</time>
      </trkpt>
      <trkpt lat="49.23312" lon="0.09981">
        <ele>134</ele>
        <time>2024-10-13T07:28:31Z</time>
      </trkpt>
      <trkpt lat="49.23306" lon="0.09988">
        <ele>133.8</ele>
        <time>2024-10-13T07:28:32Z</time>
      </trkpt>
      <trkpt lat="49.23299" lon="0.09997">
        <ele>133.6</ele>
        <time>2024-10-13T07:28:33Z</time>
      </trkpt>
      <trkpt lat="49.23291" lon="0.10007">
        <ele>133.4</ele>
        <time>2024-10-13T07:28:34Z</time>
      </trkpt>
      <trkpt lat="49.23286" lon="0.10013">
        <ele>133.4</ele>
        <time>2024-10-13T07:28:35Z</time>
      </trkpt>
      <trkpt lat="49.2328" lon="0.1002">
        <ele>133.4</ele>
        <time>2024-10-13T07:28:36Z</time>
      </trkpt>
      <trkpt lat="49.23273" lon="0.10027">
        <ele>133.4</ele>
        <time>2024-10-13T07:28:37Z</time>
      </trkpt>
      <trkpt lat="49.23266" lon="0.10035">
        <ele>133.4</ele>
        <time>2024-10-13T07:28:38Z</time>
      </trkpt>
      <trkpt lat="49.23258" lon="0.10042">
        <ele>133.4</ele>
        <time>2024-10-13T07:28:39Z</time>
      </trkpt>
      <trkpt lat="49.23251" lon="0.10048">
        <ele>133.2</ele>
        <time>2024-10-13T07:28:40Z</time>
      </trkpt>
      <trkpt lat="49.23243" lon="0.10054">
        <ele>133.2</ele>
        <time>2024-10-13T07:28:41Z</time>
      </trkpt>
      <trkpt lat="49.23234" lon="0.1006">
        <ele>133.2</ele>
        <time>2024-10-13T07:28:42Z</time>
      </trkpt>
      <trkpt lat="49.23225" lon="0.10065">
        <ele>133.2</ele>
        <time>2024-10-13T07:28:43Z</time>
      </trkpt>
      <trkpt lat="49.23214" lon="0.10071">
        <ele>133</ele>
        <time>2024-10-13T07:28:44Z</time>
      </trkpt>
      <trkpt lat="49.23204" lon="0.10075">
        <ele>133</ele>
        <time>2024-10-13T07:28:45Z</time>
      </trkpt>
      <trkpt lat="49.23196" lon="0.10078">
        <ele>133</ele>
        <time>2024-10-13T07:28:46Z</time>
      </trkpt>
      <trkpt lat="49.23184" lon="0.10082">
        <ele>133</ele>
        <time>2024-10-13T07:28:47Z</time>
      </trkpt>
      <trkpt lat="49.23175" lon="0.10084">
        <ele>133</ele>
        <time>2024-10-13T07:28:48Z</time>
      </trkpt>
      <trkpt lat="49.23164" lon="0.10086">
        <ele>133</ele>
        <time>2024-10-13T07:28:49Z</time>
      </trkpt>
      <trkpt lat="49.23152" lon="0.10089">
        <ele>132.6</ele>
        <time>2024-10-13T07:28:50Z</time>
      </trkpt>
      <trkpt lat="49.2314" lon="0.10093">
        <ele>132</ele>
        <time>2024-10-13T07:28:51Z</time>
      </trkpt>
      <trkpt lat="49.23128" lon="0.10097">
        <ele>131.6</ele>
        <time>2024-10-13T07:28:52Z</time>
      </trkpt>
      <trkpt lat="49.23114" lon="0.10103">
        <ele>130.8</ele>
        <time>2024-10-13T07:28:53Z</time>
      </trkpt>
      <trkpt lat="49.23105" lon="0.1011">
        <ele>130.2</ele>
        <time>2024-10-13T07:28:54Z</time>
      </trkpt>
      <trkpt lat="49.23094" lon="0.10118">
        <ele>129.4</ele>
        <time>2024-10-13T07:28:55Z</time>
      </trkpt>
      <trkpt lat="49.23084" lon="0.10128">
        <ele>128.4</ele>
        <time>2024-10-13T07:28:56Z</time>
      </trkpt>
      <trkpt lat="49.23075" lon="0.10138">
        <ele>127.6</ele>
        <time>2024-10-13T07:28:57Z</time>
      </trkpt>
      <trkpt lat="49.23067" lon="0.10148">
        <ele>126.6</ele>
        <time>2024-10-13T07:28:58Z</time>
      </trkpt>
      <trkpt lat="49.2306" lon="0.10158">
        <ele>125.4</ele>
        <time>2024-10-13T07:28:59Z</time>
      </trkpt>
      <trkpt lat="49.23054" lon="0.10168">
        <ele>124.4</ele>
        <time>2024-10-13T07:29:00Z</time>
      </trkpt>
      <trkpt lat="49.23048" lon="0.10178">
        <ele>124</ele>
        <time>2024-10-13T07:29:01Z</time>
      </trkpt>
      <trkpt lat="49.23042" lon="0.1019">
        <ele>123.6</ele>
        <time>2024-10-13T07:29:02Z</time>
      </trkpt>
      <trkpt lat="49.23039" lon="0.10199">
        <ele>123.4</ele>
        <time>2024-10-13T07:29:03Z</time>
      </trkpt>
      <trkpt lat="49.23035" lon="0.10209">
        <ele>123.4</ele>
        <time>2024-10-13T07:29:04Z</time>
      </trkpt>
      <trkpt lat="49.23032" lon="0.10218">
        <ele>123.4</ele>
        <time>2024-10-13T07:29:05Z</time>
      </trkpt>
      <trkpt lat="49.23028" lon="0.10227">
        <ele>123.4</ele>
        <time>2024-10-13T07:29:06Z</time>
      </trkpt>
      <trkpt lat="49.23025" lon="0.10236">
        <ele>123.4</ele>
        <time>2024-10-13T07:29:07Z</time>
      </trkpt>
      <trkpt lat="49.23022" lon="0.10246">
        <ele>123.4</ele>
        <time>2024-10-13T07:29:08Z</time>
      </trkpt>
      <trkpt lat="49.23018" lon="0.10255">
        <ele>123.4</ele>
        <time>2024-10-13T07:29:09Z</time>
      </trkpt>
      <trkpt lat="49.23015" lon="0.10263">
        <ele>124</ele>
        <time>2024-10-13T07:29:10Z</time>
      </trkpt>
      <trkpt lat="49.23011" lon="0.10272">
        <ele>124.6</ele>
        <time>2024-10-13T07:29:11Z</time>
      </trkpt>
      <trkpt lat="49.23008" lon="0.1028">
        <ele>125.6</ele>
        <time>2024-10-13T07:29:12Z</time>
      </trkpt>
      <trkpt lat="49.23004" lon="0.10289">
        <ele>126.4</ele>
        <time>2024-10-13T07:29:13Z</time>
      </trkpt>
      <trkpt lat="49.23001" lon="0.10297">
        <ele>127</ele>
        <time>2024-10-13T07:29:14Z</time>
      </trkpt>
      <trkpt lat="49.22997" lon="0.10305">
        <ele>127.8</ele>
        <time>2024-10-13T07:29:15Z</time>
      </trkpt>
      <trkpt lat="49.22994" lon="0.10313">
        <ele>128.4</ele>
        <time>2024-10-13T07:29:16Z</time>
      </trkpt>
      <trkpt lat="49.2299" lon="0.10322">
        <ele>129</ele>
        <time>2024-10-13T07:29:17Z</time>
      </trkpt>
      <trkpt lat="49.22987" lon="0.1033">
        <ele>129.4</ele>
        <time>2024-10-13T07:29:18Z</time>
      </trkpt>
      <trkpt lat="49.22983" lon="0.1034">
        <ele>130</ele>
        <time>2024-10-13T07:29:19Z</time>
      </trkpt>
      <trkpt lat="49.2298" lon="0.10349">
        <ele>130.4</ele>
        <time>2024-10-13T07:29:20Z</time>
      </trkpt>
      <trkpt lat="49.22977" lon="0.10358">
        <ele>130.8</ele>
        <time>2024-10-13T07:29:21Z</time>
      </trkpt>
      <trkpt lat="49.22975" lon="0.10368">
        <ele>131.8</ele>
        <time>2024-10-13T07:29:22Z</time>
      </trkpt>
      <trkpt lat="49.22971" lon="0.10377">
        <ele>132.2</ele>
        <time>2024-10-13T07:29:23Z</time>
      </trkpt>
      <trkpt lat="49.22968" lon="0.10386">
        <ele>132.4</ele>
        <time>2024-10-13T07:29:24Z</time>
      </trkpt>
      <trkpt lat="49.22964" lon="0.10396">
        <ele>132.8</ele>
        <time>2024-10-13T07:29:25Z</time>
      </trkpt>
      <trkpt lat="49.2296" lon="0.10405">
        <ele>133.2</ele>
        <time>2024-10-13T07:29:26Z</time>
      </trkpt>
      <trkpt lat="49.22956" lon="0.10414">
        <ele>133.6</ele>
        <time>2024-10-13T07:29:27Z</time>
      </trkpt>
      <trkpt lat="49.22952" lon="0.10423">
        <ele>133.8</ele>
        <time>2024-10-13T07:29:28Z</time>
      </trkpt>
      <trkpt lat="49.22948" lon="0.10433">
        <ele>134</ele>
        <time>2024-10-13T07:29:29Z</time>
      </trkpt>
      <trkpt lat="49.22944" lon="0.10442">
        <ele>134.2</ele>
        <time>2024-10-13T07:29:30Z</time>
      </trkpt>
      <trkpt lat="49.22941" lon="0.10452">
        <ele>134.4</ele>
        <time>2024-10-13T07:29:31Z</time>
      </trkpt>
      <trkpt lat="49.22937" lon="0.10462">
        <ele>134.6</ele>
        <time>2024-10-13T07:29:32Z</time>
      </trkpt>
      <trkpt lat="49.22933" lon="0.10472">
        <ele>134.6</ele>
        <time>2024-10-13T07:29:33Z</time>
      </trkpt>
      <trkpt lat="49.22929" lon="0.10482">
        <ele>134.8</ele>
        <time>2024-10-13T07:29:34Z</time>
      </trkpt>
      <trkpt lat="49.22926" lon="0.10492">
        <ele>134.8</ele>
        <time>2024-10-13T07:29:35Z</time>
      </trkpt>
      <trkpt lat="49.22921" lon="0.10503">
        <ele>134.8</ele>
        <time>2024-10-13T07:29:36Z</time>
      </trkpt>
      <trkpt lat="49.22917" lon="0.10515">
        <ele>134.8</ele>
        <time>2024-10-13T07:29:37Z</time>
      </trkpt>
      <trkpt lat="49.22914" lon="0.10524">
        <ele>135</ele>
        <time>2024-10-13T07:29:38Z</time>
      </trkpt>
      <trkpt lat="49.2291" lon="0.10536">
        <ele>135</ele>
        <time>2024-10-13T07:29:39Z</time>
      </trkpt>
      <trkpt lat="49.22906" lon="0.10547">
        <ele>135</ele>
        <time>2024-10-13T07:29:40Z</time>
      </trkpt>
      <trkpt lat="49.22902" lon="0.10558">
        <ele>135</ele>
        <time>2024-10-13T07:29:41Z</time>
      </trkpt>
      <trkpt lat="49.22898" lon="0.10569">
        <ele>135</ele>
        <time>2024-10-13T07:29:42Z</time>
      </trkpt>
      <trkpt lat="49.22893" lon="0.10579">
        <ele>135</ele>
        <time>2024-10-13T07:29:43Z</time>
      </trkpt>
      <trkpt lat="49.22889" lon="0.1059">
        <ele>135.2</ele>
        <time>2024-10-13T07:29:44Z</time>
      </trkpt>
      <trkpt lat="49.22885" lon="0.10601">
        <ele>135.2</ele>
        <time>2024-10-13T07:29:45Z</time>
      </trkpt>
      <trkpt lat="49.2288" lon="0.10614">
        <ele>135.2</ele>
        <time>2024-10-13T07:29:46Z</time>
      </trkpt>
      <trkpt lat="49.22877" lon="0.10623">
        <ele>135.2</ele>
        <time>2024-10-13T07:29:47Z</time>
      </trkpt>
      <trkpt lat="49.22873" lon="0.10633">
        <ele>135.2</ele>
        <time>2024-10-13T07:29:48Z</time>
      </trkpt>
      <trkpt lat="49.22868" lon="0.10645">
        <ele>135.2</ele>
        <time>2024-10-13T07:29:49Z</time>
      </trkpt>
      <trkpt lat="49.22864" lon="0.10656">
        <ele>135.2</ele>
        <time>2024-10-13T07:29:50Z</time>
      </trkpt>
      <trkpt lat="49.2286" lon="0.10668">
        <ele>135.2</ele>
        <time>2024-10-13T07:29:51Z</time>
      </trkpt>
      <trkpt lat="49.22855" lon="0.10679">
        <ele>135.2</ele>
        <time>2024-10-13T07:29:52Z</time>
      </trkpt>
      <trkpt lat="49.22851" lon="0.10691">
        <ele>135.2</ele>
        <time>2024-10-13T07:29:53Z</time>
      </trkpt>
      <trkpt lat="49.22847" lon="0.10703">
        <ele>135.2</ele>
        <time>2024-10-13T07:29:54Z</time>
      </trkpt>
      <trkpt lat="49.22842" lon="0.10715">
        <ele>135.2</ele>
        <time>2024-10-13T07:29:55Z</time>
      </trkpt>
      <trkpt lat="49.22837" lon="0.10727">
        <ele>135.2</ele>
        <time>2024-10-13T07:29:56Z</time>
      </trkpt>
      <trkpt lat="49.22832" lon="0.10739">
        <ele>135.2</ele>
        <time>2024-10-13T07:29:57Z</time>
      </trkpt>
      <trkpt lat="49.22828" lon="0.10751">
        <ele>135</ele>
        <time>2024-10-13T07:29:58Z</time>
      </trkpt>
      <trkpt lat="49.22822" lon="0.10765">
        <ele>135</ele>
        <time>2024-10-13T07:29:59Z</time>
      </trkpt>
      <trkpt lat="49.22818" lon="0.10775">
        <ele>135</ele>
        <time>2024-10-13T07:30:00Z</time>
      </trkpt>
      <trkpt lat="49.22813" lon="0.10786">
        <ele>134.8</ele>
        <time>2024-10-13T07:30:01Z</time>
      </trkpt>
      <trkpt lat="49.22808" lon="0.10797">
        <ele>134.8</ele>
        <time>2024-10-13T07:30:02Z</time>
      </trkpt>
      <trkpt lat="49.22802" lon="0.10808">
        <ele>134.4</ele>
        <time>2024-10-13T07:30:03Z</time>
      </trkpt>
      <trkpt lat="49.22796" lon="0.1082">
        <ele>134</ele>
        <time>2024-10-13T07:30:04Z</time>
      </trkpt>
      <trkpt lat="49.22791" lon="0.10832">
        <ele>133.8</ele>
        <time>2024-10-13T07:30:05Z</time>
      </trkpt>
      <trkpt lat="49.22785" lon="0.10843">
        <ele>133.6</ele>
        <time>2024-10-13T07:30:06Z</time>
      </trkpt>
      <trkpt lat="49.2278" lon="0.10855">
        <ele>133.6</ele>
        <time>2024-10-13T07:30:07Z</time>
      </trkpt>
      <trkpt lat="49.22774" lon="0.10867">
        <ele>133.4</ele>
        <time>2024-10-13T07:30:08Z</time>
      </trkpt>
      <trkpt lat="49.22769" lon="0.10879">
        <ele>133</ele>
        <time>2024-10-13T07:30:09Z</time>
      </trkpt>
      <trkpt lat="49.22764" lon="0.10891">
        <ele>132.8</ele>
        <time>2024-10-13T07:30:10Z</time>
      </trkpt>
      <trkpt lat="49.22758" lon="0.10902">
        <ele>132.4</ele>
        <time>2024-10-13T07:30:11Z</time>
      </trkpt>
      <trkpt lat="49.22753" lon="0.10914">
        <ele>132.2</ele>
        <time>2024-10-13T07:30:12Z</time>
      </trkpt>
      <trkpt lat="49.22748" lon="0.10925">
        <ele>132</ele>
        <time>2024-10-13T07:30:13Z</time>
      </trkpt>
      <trkpt lat="49.22744" lon="0.10936">
        <ele>132</ele>
        <time>2024-10-13T07:30:14Z</time>
      </trkpt>
      <trkpt lat="49.2274" lon="0.10947">
        <ele>132</ele>
        <time>2024-10-13T07:30:15Z</time>
      </trkpt>
      <trkpt lat="49.22735" lon="0.10957">
        <ele>131.8</ele>
        <time>2024-10-13T07:30:16Z</time>
      </trkpt>
      <trkpt lat="49.22731" lon="0.10967">
        <ele>131.8</ele>
        <time>2024-10-13T07:30:17Z</time>
      </trkpt>
      <trkpt lat="49.22727" lon="0.10977">
        <ele>131.8</ele>
        <time>2024-10-13T07:30:18Z</time>
      </trkpt>
      <trkpt lat="49.22723" lon="0.10987">
        <ele>131.8</ele>
        <time>2024-10-13T07:30:19Z</time>
      </trkpt>
      <trkpt lat="49.2272" lon="0.10997">
        <ele>131.8</ele>
        <time>2024-10-13T07:30:20Z</time>
      </trkpt>
      <trkpt lat="49.22716" lon="0.11007">
        <ele>131.8</ele>
        <time>2024-10-13T07:30:21Z</time>
      </trkpt>
      <trkpt lat="49.22713" lon="0.11016">
        <ele>131.8</ele>
        <time>2024-10-13T07:30:22Z</time>
      </trkpt>
      <trkpt lat="49.22709" lon="0.11025">
        <ele>131.8</ele>
        <time>2024-10-13T07:30:23Z</time>
      </trkpt>
      <trkpt lat="49.22705" lon="0.11034">
        <ele>132</ele>
        <time>2024-10-13T07:30:24Z</time>
      </trkpt>
      <trkpt lat="49.227" lon="0.11044">
        <ele>132.2</ele>
        <time>2024-10-13T07:30:25Z</time>
      </trkpt>
      <trkpt lat="49.22696" lon="0.11053">
        <ele>132.6</ele>
        <time>2024-10-13T07:30:26Z</time>
      </trkpt>
      <trkpt lat="49.22692" lon="0.11063">
        <ele>132.8</ele>
        <time>2024-10-13T07:30:27Z</time>
      </trkpt>
      <trkpt lat="49.22687" lon="0.11072">
        <ele>133.2</ele>
        <time>2024-10-13T07:30:28Z</time>
      </trkpt>
      <trkpt lat="49.22683" lon="0.11082">
        <ele>133.4</ele>
        <time>2024-10-13T07:30:29Z</time>
      </trkpt>
      <trkpt lat="49.22679" lon="0.11092">
        <ele>133.4</ele>
        <time>2024-10-13T07:30:30Z</time>
      </trkpt>
      <trkpt lat="49.22674" lon="0.11102">
        <ele>133.6</ele>
        <time>2024-10-13T07:30:31Z</time>
      </trkpt>
      <trkpt lat="49.22669" lon="0.11113">
        <ele>133.6</ele>
        <time>2024-10-13T07:30:32Z</time>
      </trkpt>
      <trkpt lat="49.22665" lon="0.11123">
        <ele>133.8</ele>
        <time>2024-10-13T07:30:33Z</time>
      </trkpt>
      <trkpt lat="49.2266" lon="0.11133">
        <ele>134</ele>
        <time>2024-10-13T07:30:34Z</time>
      </trkpt>
      <trkpt lat="49.22656" lon="0.11144">
        <ele>134.2</ele>
        <time>2024-10-13T07:30:35Z</time>
      </trkpt>
      <trkpt lat="49.22651" lon="0.11155">
        <ele>134.4</ele>
        <time>2024-10-13T07:30:36Z</time>
      </trkpt>
      <trkpt lat="49.22646" lon="0.11166">
        <ele>134.4</ele>
        <time>2024-10-13T07:30:37Z</time>
      </trkpt>
      <trkpt lat="49.22641" lon="0.11177">
        <ele>134.6</ele>
        <time>2024-10-13T07:30:38Z</time>
      </trkpt>
      <trkpt lat="49.22636" lon="0.11188">
        <ele>134.6</ele>
        <time>2024-10-13T07:30:39Z</time>
      </trkpt>
      <trkpt lat="49.22632" lon="0.11199">
        <ele>134.8</ele>
        <time>2024-10-13T07:30:40Z</time>
      </trkpt>
      <trkpt lat="49.22627" lon="0.1121">
        <ele>134.8</ele>
        <time>2024-10-13T07:30:41Z</time>
      </trkpt>
      <trkpt lat="49.22622" lon="0.11221">
        <ele>134.8</ele>
        <time>2024-10-13T07:30:42Z</time>
      </trkpt>
      <trkpt lat="49.22617" lon="0.11231">
        <ele>134.8</ele>
        <time>2024-10-13T07:30:43Z</time>
      </trkpt>
      <trkpt lat="49.22612" lon="0.11242">
        <ele>134.8</ele>
        <time>2024-10-13T07:30:44Z</time>
      </trkpt>
      <trkpt lat="49.22607" lon="0.11252">
        <ele>135</ele>
        <time>2024-10-13T07:30:45Z</time>
      </trkpt>
      <trkpt lat="49.22603" lon="0.11262">
        <ele>135</ele>
        <time>2024-10-13T07:30:46Z</time>
      </trkpt>
      <trkpt lat="49.22599" lon="0.11272">
        <ele>135</ele>
        <time>2024-10-13T07:30:47Z</time>
      </trkpt>
      <trkpt lat="49.22595" lon="0.11281">
        <ele>135</ele>
        <time>2024-10-13T07:30:48Z</time>
      </trkpt>
      <trkpt lat="49.22591" lon="0.11291">
        <ele>135</ele>
        <time>2024-10-13T07:30:49Z</time>
      </trkpt>
      <trkpt lat="49.22587" lon="0.113">
        <ele>135.2</ele>
        <time>2024-10-13T07:30:50Z</time>
      </trkpt>
      <trkpt lat="49.22583" lon="0.11309">
        <ele>135.2</ele>
        <time>2024-10-13T07:30:51Z</time>
      </trkpt>
      <trkpt lat="49.22578" lon="0.11319">
        <ele>135.2</ele>
        <time>2024-10-13T07:30:52Z</time>
      </trkpt>
      <trkpt lat="49.22574" lon="0.11328">
        <ele>135.4</ele>
        <time>2024-10-13T07:30:53Z</time>
      </trkpt>
      <trkpt lat="49.22569" lon="0.1134">
        <ele>135.4</ele>
        <time>2024-10-13T07:30:54Z</time>
      </trkpt>
      <trkpt lat="49.22566" lon="0.11348">
        <ele>135.4</ele>
        <time>2024-10-13T07:30:55Z</time>
      </trkpt>
      <trkpt lat="49.22561" lon="0.11358">
        <ele>135.4</ele>
        <time>2024-10-13T07:30:56Z</time>
      </trkpt>
      <trkpt lat="49.22556" lon="0.11369">
        <ele>135.4</ele>
        <time>2024-10-13T07:30:57Z</time>
      </trkpt>
      <trkpt lat="49.22553" lon="0.11377">
        <ele>135.4</ele>
        <time>2024-10-13T07:30:58Z</time>
      </trkpt>
      <trkpt lat="49.22549" lon="0.11387">
        <ele>135.4</ele>
        <time>2024-10-13T07:30:59Z</time>
      </trkpt>
      <trkpt lat="49.22544" lon="0.11399">
        <ele>135.4</ele>
        <time>2024-10-13T07:31:00Z</time>
      </trkpt>
      <trkpt lat="49.2254" lon="0.11406">
        <ele>135.4</ele>
        <time>2024-10-13T07:31:01Z</time>
      </trkpt>
      <trkpt lat="49.22535" lon="0.11418">
        <ele>135.4</ele>
        <time>2024-10-13T07:31:02Z</time>
      </trkpt>
      <trkpt lat="49.22532" lon="0.11426">
        <ele>135.4</ele>
        <time>2024-10-13T07:31:03Z</time>
      </trkpt>
      <trkpt lat="49.22527" lon="0.11435">
        <ele>135.4</ele>
        <time>2024-10-13T07:31:04Z</time>
      </trkpt>
      <trkpt lat="49.22521" lon="0.11447">
        <ele>135.2</ele>
        <time>2024-10-13T07:31:05Z</time>
      </trkpt>
      <trkpt lat="49.22518" lon="0.11455">
        <ele>135.2</ele>
        <time>2024-10-13T07:31:06Z</time>
      </trkpt>
      <trkpt lat="49.22513" lon="0.11465">
        <ele>135.2</ele>
        <time>2024-10-13T07:31:07Z</time>
      </trkpt>
      <trkpt lat="49.22508" lon="0.11475">
        <ele>135.2</ele>
        <time>2024-10-13T07:31:08Z</time>
      </trkpt>
      <trkpt lat="49.22503" lon="0.11485">
        <ele>135</ele>
        <time>2024-10-13T07:31:09Z</time>
      </trkpt>
      <trkpt lat="49.22498" lon="0.11495">
        <ele>135</ele>
        <time>2024-10-13T07:31:10Z</time>
      </trkpt>
      <trkpt lat="49.22492" lon="0.11508">
        <ele>135</ele>
        <time>2024-10-13T07:31:11Z</time>
      </trkpt>
      <trkpt lat="49.22488" lon="0.11516">
        <ele>135</ele>
        <time>2024-10-13T07:31:12Z</time>
      </trkpt>
      <trkpt lat="49.22483" lon="0.11527">
        <ele>135</ele>
        <time>2024-10-13T07:31:13Z</time>
      </trkpt>
      <trkpt lat="49.22477" lon="0.1154">
        <ele>134.8</ele>
        <time>2024-10-13T07:31:14Z</time>
      </trkpt>
      <trkpt lat="49.22473" lon="0.11548">
        <ele>134.8</ele>
        <time>2024-10-13T07:31:15Z</time>
      </trkpt>
      <trkpt lat="49.22467" lon="0.11559">
        <ele>134.8</ele>
        <time>2024-10-13T07:31:16Z</time>
      </trkpt>
      <trkpt lat="49.22462" lon="0.11569">
        <ele>134.6</ele>
        <time>2024-10-13T07:31:17Z</time>
      </trkpt>
      <trkpt lat="49.22457" lon="0.1158">
        <ele>134.6</ele>
        <time>2024-10-13T07:31:18Z</time>
      </trkpt>
      <trkpt lat="49.22451" lon="0.1159">
        <ele>134.6</ele>
        <time>2024-10-13T07:31:19Z</time>
      </trkpt>
      <trkpt lat="49.22445" lon="0.11603">
        <ele>134.4</ele>
        <time>2024-10-13T07:31:20Z</time>
      </trkpt>
      <trkpt lat="49.2244" lon="0.11611">
        <ele>134.2</ele>
        <time>2024-10-13T07:31:21Z</time>
      </trkpt>
      <trkpt lat="49.22435" lon="0.11622">
        <ele>134.2</ele>
        <time>2024-10-13T07:31:22Z</time>
      </trkpt>
      <trkpt lat="49.22429" lon="0.11633">
        <ele>134.2</ele>
        <time>2024-10-13T07:31:23Z</time>
      </trkpt>
      <trkpt lat="49.22424" lon="0.11644">
        <ele>134</ele>
        <time>2024-10-13T07:31:24Z</time>
      </trkpt>
      <trkpt lat="49.22418" lon="0.11655">
        <ele>134</ele>
        <time>2024-10-13T07:31:25Z</time>
      </trkpt>
      <trkpt lat="49.22411" lon="0.11669">
        <ele>134</ele>
        <time>2024-10-13T07:31:26Z</time>
      </trkpt>
      <trkpt lat="49.22407" lon="0.11678">
        <ele>134</ele>
        <time>2024-10-13T07:31:27Z</time>
      </trkpt>
      <trkpt lat="49.22401" lon="0.11689">
        <ele>133.8</ele>
        <time>2024-10-13T07:31:28Z</time>
      </trkpt>
      <trkpt lat="49.22396" lon="0.11701">
        <ele>133.6</ele>
        <time>2024-10-13T07:31:29Z</time>
      </trkpt>
      <trkpt lat="49.22391" lon="0.11714">
        <ele>133.6</ele>
        <time>2024-10-13T07:31:30Z</time>
      </trkpt>
      <trkpt lat="49.22386" lon="0.11726">
        <ele>133.4</ele>
        <time>2024-10-13T07:31:31Z</time>
      </trkpt>
      <trkpt lat="49.22381" lon="0.11741">
        <ele>133.2</ele>
        <time>2024-10-13T07:31:32Z</time>
      </trkpt>
      <trkpt lat="49.22377" lon="0.11751">
        <ele>133.2</ele>
        <time>2024-10-13T07:31:33Z</time>
      </trkpt>
      <trkpt lat="49.22373" lon="0.11763">
        <ele>133.2</ele>
        <time>2024-10-13T07:31:34Z</time>
      </trkpt>
      <trkpt lat="49.22368" lon="0.11775">
        <ele>133</ele>
        <time>2024-10-13T07:31:35Z</time>
      </trkpt>
      <trkpt lat="49.22365" lon="0.11787">
        <ele>133</ele>
        <time>2024-10-13T07:31:36Z</time>
      </trkpt>
      <trkpt lat="49.22361" lon="0.118">
        <ele>133</ele>
        <time>2024-10-13T07:31:37Z</time>
      </trkpt>
      <trkpt lat="49.22357" lon="0.11812">
        <ele>132.8</ele>
        <time>2024-10-13T07:31:38Z</time>
      </trkpt>
      <trkpt lat="49.22353" lon="0.11825">
        <ele>132.8</ele>
        <time>2024-10-13T07:31:39Z</time>
      </trkpt>
      <trkpt lat="49.22349" lon="0.11837">
        <ele>132.6</ele>
        <time>2024-10-13T07:31:40Z</time>
      </trkpt>
      <trkpt lat="49.22345" lon="0.11849">
        <ele>132.6</ele>
        <time>2024-10-13T07:31:41Z</time>
      </trkpt>
      <trkpt lat="49.22342" lon="0.11861">
        <ele>132.6</ele>
        <time>2024-10-13T07:31:42Z</time>
      </trkpt>
      <trkpt lat="49.22338" lon="0.11874">
        <ele>132.6</ele>
        <time>2024-10-13T07:31:43Z</time>
      </trkpt>
      <trkpt lat="49.22334" lon="0.11886">
        <ele>132.6</ele>
        <time>2024-10-13T07:31:44Z</time>
      </trkpt>
      <trkpt lat="49.22331" lon="0.11898">
        <ele>132.6</ele>
        <time>2024-10-13T07:31:45Z</time>
      </trkpt>
      <trkpt lat="49.22327" lon="0.1191">
        <ele>132.6</ele>
        <time>2024-10-13T07:31:46Z</time>
      </trkpt>
      <trkpt lat="49.22323" lon="0.11921">
        <ele>132.6</ele>
        <time>2024-10-13T07:31:47Z</time>
      </trkpt>
      <trkpt lat="49.22319" lon="0.11933">
        <ele>132.6</ele>
        <time>2024-10-13T07:31:48Z</time>
      </trkpt>
      <trkpt lat="49.22316" lon="0.11944">
        <ele>132.6</ele>
        <time>2024-10-13T07:31:49Z</time>
      </trkpt>
      <trkpt lat="49.22312" lon="0.11955">
        <ele>132.6</ele>
        <time>2024-10-13T07:31:50Z</time>
      </trkpt>
      <trkpt lat="49.22308" lon="0.11966">
        <ele>132.8</ele>
        <time>2024-10-13T07:31:51Z</time>
      </trkpt>
      <trkpt lat="49.22305" lon="0.11977">
        <ele>132.8</ele>
        <time>2024-10-13T07:31:52Z</time>
      </trkpt>
      <trkpt lat="49.22302" lon="0.11989">
        <ele>133</ele>
        <time>2024-10-13T07:31:53Z</time>
      </trkpt>
      <trkpt lat="49.22298" lon="0.12">
        <ele>133</ele>
        <time>2024-10-13T07:31:54Z</time>
      </trkpt>
      <trkpt lat="49.22294" lon="0.12012">
        <ele>133.2</ele>
        <time>2024-10-13T07:31:55Z</time>
      </trkpt>
      <trkpt lat="49.22291" lon="0.12024">
        <ele>133.4</ele>
        <time>2024-10-13T07:31:56Z</time>
      </trkpt>
      <trkpt lat="49.22287" lon="0.12035">
        <ele>133.4</ele>
        <time>2024-10-13T07:31:57Z</time>
      </trkpt>
      <trkpt lat="49.22283" lon="0.12046">
        <ele>133.6</ele>
        <time>2024-10-13T07:31:58Z</time>
      </trkpt>
      <trkpt lat="49.22279" lon="0.12057">
        <ele>133.8</ele>
        <time>2024-10-13T07:31:59Z</time>
      </trkpt>
      <trkpt lat="49.22276" lon="0.12068">
        <ele>133.8</ele>
        <time>2024-10-13T07:32:00Z</time>
      </trkpt>
      <trkpt lat="49.22272" lon="0.12079">
        <ele>133.8</ele>
        <time>2024-10-13T07:32:01Z</time>
      </trkpt>
      <trkpt lat="49.22269" lon="0.12091">
        <ele>134</ele>
        <time>2024-10-13T07:32:02Z</time>
      </trkpt>
      <trkpt lat="49.22265" lon="0.12102">
        <ele>134</ele>
        <time>2024-10-13T07:32:03Z</time>
      </trkpt>
      <trkpt lat="49.22261" lon="0.12113">
        <ele>134.2</ele>
        <time>2024-10-13T07:32:04Z</time>
      </trkpt>
      <trkpt lat="49.22257" lon="0.12125">
        <ele>134.2</ele>
        <time>2024-10-13T07:32:05Z</time>
      </trkpt>
      <trkpt lat="49.22254" lon="0.12137">
        <ele>134.4</ele>
        <time>2024-10-13T07:32:06Z</time>
      </trkpt>
      <trkpt lat="49.2225" lon="0.12148">
        <ele>134.4</ele>
        <time>2024-10-13T07:32:07Z</time>
      </trkpt>
      <trkpt lat="49.22246" lon="0.1216">
        <ele>134.6</ele>
        <time>2024-10-13T07:32:08Z</time>
      </trkpt>
      <trkpt lat="49.22242" lon="0.12172">
        <ele>134.8</ele>
        <time>2024-10-13T07:32:09Z</time>
      </trkpt>
      <trkpt lat="49.22238" lon="0.12184">
        <ele>134.8</ele>
        <time>2024-10-13T07:32:10Z</time>
      </trkpt>
      <trkpt lat="49.22234" lon="0.12197">
        <ele>135</ele>
        <time>2024-10-13T07:32:11Z</time>
      </trkpt>
      <trkpt lat="49.2223" lon="0.12209">
        <ele>135</ele>
        <time>2024-10-13T07:32:12Z</time>
      </trkpt>
      <trkpt lat="49.22226" lon="0.12222">
        <ele>135</ele>
        <time>2024-10-13T07:32:13Z</time>
      </trkpt>
      <trkpt lat="49.22222" lon="0.12234">
        <ele>135.2</ele>
        <time>2024-10-13T07:32:14Z</time>
      </trkpt>
      <trkpt lat="49.22218" lon="0.12246">
        <ele>135.2</ele>
        <time>2024-10-13T07:32:15Z</time>
      </trkpt>
      <trkpt lat="49.22214" lon="0.12258">
        <ele>135.2</ele>
        <time>2024-10-13T07:32:16Z</time>
      </trkpt>
      <trkpt lat="49.2221" lon="0.1227">
        <ele>135.2</ele>
        <time>2024-10-13T07:32:17Z</time>
      </trkpt>
      <trkpt lat="49.22206" lon="0.12281">
        <ele>135.2</ele>
        <time>2024-10-13T07:32:18Z</time>
      </trkpt>
      <trkpt lat="49.22203" lon="0.12292">
        <ele>135.2</ele>
        <time>2024-10-13T07:32:19Z</time>
      </trkpt>
      <trkpt lat="49.22199" lon="0.12304">
        <ele>135.2</ele>
        <time>2024-10-13T07:32:20Z</time>
      </trkpt>
      <trkpt lat="49.22196" lon="0.12316">
        <ele>135.2</ele>
        <time>2024-10-13T07:32:21Z</time>
      </trkpt>
      <trkpt lat="49.22192" lon="0.12327">
        <ele>135.2</ele>
        <time>2024-10-13T07:32:22Z</time>
      </trkpt>
      <trkpt lat="49.22188" lon="0.12338">
        <ele>135.2</ele>
        <time>2024-10-13T07:32:23Z</time>
      </trkpt>
      <trkpt lat="49.22184" lon="0.12349">
        <ele>135</ele>
        <time>2024-10-13T07:32:24Z</time>
      </trkpt>
      <trkpt lat="49.2218" lon="0.1236">
        <ele>135</ele>
        <time>2024-10-13T07:32:25Z</time>
      </trkpt>
      <trkpt lat="49.22177" lon="0.12372">
        <ele>135</ele>
        <time>2024-10-13T07:32:26Z</time>
      </trkpt>
      <trkpt lat="49.22173" lon="0.12383">
        <ele>135</ele>
        <time>2024-10-13T07:32:27Z</time>
      </trkpt>
      <trkpt lat="49.2217" lon="0.12395">
        <ele>134.8</ele>
        <time>2024-10-13T07:32:28Z</time>
      </trkpt>
      <trkpt lat="49.22166" lon="0.12407">
        <ele>134.8</ele>
        <time>2024-10-13T07:32:29Z</time>
      </trkpt>
      <trkpt lat="49.22162" lon="0.12418">
        <ele>134.8</ele>
        <time>2024-10-13T07:32:30Z</time>
      </trkpt>
      <trkpt lat="49.22158" lon="0.12431">
        <ele>134.8</ele>
        <time>2024-10-13T07:32:31Z</time>
      </trkpt>
      <trkpt lat="49.22154" lon="0.12443">
        <ele>134.8</ele>
        <time>2024-10-13T07:32:32Z</time>
      </trkpt>
      <trkpt lat="49.2215" lon="0.12455">
        <ele>134.6</ele>
        <time>2024-10-13T07:32:33Z</time>
      </trkpt>
      <trkpt lat="49.22146" lon="0.12467">
        <ele>134.6</ele>
        <time>2024-10-13T07:32:34Z</time>
      </trkpt>
      <trkpt lat="49.22142" lon="0.12479">
        <ele>134.4</ele>
        <time>2024-10-13T07:32:35Z</time>
      </trkpt>
      <trkpt lat="49.22138" lon="0.12492">
        <ele>134.4</ele>
        <time>2024-10-13T07:32:36Z</time>
      </trkpt>
      <trkpt lat="49.22134" lon="0.12504">
        <ele>134.2</ele>
        <time>2024-10-13T07:32:37Z</time>
      </trkpt>
      <trkpt lat="49.22131" lon="0.12516">
        <ele>134.2</ele>
        <time>2024-10-13T07:32:38Z</time>
      </trkpt>
      <trkpt lat="49.22127" lon="0.12529">
        <ele>134</ele>
        <time>2024-10-13T07:32:39Z</time>
      </trkpt>
      <trkpt lat="49.22123" lon="0.12541">
        <ele>134</ele>
        <time>2024-10-13T07:32:40Z</time>
      </trkpt>
      <trkpt lat="49.22119" lon="0.12553">
        <ele>134</ele>
        <time>2024-10-13T07:32:41Z</time>
      </trkpt>
      <trkpt lat="49.22116" lon="0.12565">
        <ele>134</ele>
        <time>2024-10-13T07:32:42Z</time>
      </trkpt>
      <trkpt lat="49.22112" lon="0.12578">
        <ele>134</ele>
        <time>2024-10-13T07:32:43Z</time>
      </trkpt>
      <trkpt lat="49.22109" lon="0.12589">
        <ele>134</ele>
        <time>2024-10-13T07:32:44Z</time>
      </trkpt>
      <trkpt lat="49.22105" lon="0.12601">
        <ele>134</ele>
        <time>2024-10-13T07:32:45Z</time>
      </trkpt>
      <trkpt lat="49.22101" lon="0.12613">
        <ele>134</ele>
        <time>2024-10-13T07:32:46Z</time>
      </trkpt>
      <trkpt lat="49.22098" lon="0.12624">
        <ele>134</ele>
        <time>2024-10-13T07:32:47Z</time>
      </trkpt>
      <trkpt lat="49.22095" lon="0.12635">
        <ele>134</ele>
        <time>2024-10-13T07:32:48Z</time>
      </trkpt>
      <trkpt lat="49.22091" lon="0.12646">
        <ele>134</ele>
        <time>2024-10-13T07:32:49Z</time>
      </trkpt>
      <trkpt lat="49.22088" lon="0.12657">
        <ele>134</ele>
        <time>2024-10-13T07:32:50Z</time>
      </trkpt>
      <trkpt lat="49.22084" lon="0.12668">
        <ele>134</ele>
        <time>2024-10-13T07:32:51Z</time>
      </trkpt>
      <trkpt lat="49.2208" lon="0.1268">
        <ele>134.2</ele>
        <time>2024-10-13T07:32:52Z</time>
      </trkpt>
      <trkpt lat="49.22077" lon="0.12691">
        <ele>134.2</ele>
        <time>2024-10-13T07:32:53Z</time>
      </trkpt>
      <trkpt lat="49.22073" lon="0.12702">
        <ele>134.2</ele>
        <time>2024-10-13T07:32:54Z</time>
      </trkpt>
      <trkpt lat="49.22069" lon="0.12713">
        <ele>134.2</ele>
        <time>2024-10-13T07:32:55Z</time>
      </trkpt>
      <trkpt lat="49.22066" lon="0.12724">
        <ele>134.2</ele>
        <time>2024-10-13T07:32:56Z</time>
      </trkpt>
      <trkpt lat="49.22062" lon="0.12735">
        <ele>134.4</ele>
        <time>2024-10-13T07:32:57Z</time>
      </trkpt>
      <trkpt lat="49.22059" lon="0.12746">
        <ele>134.4</ele>
        <time>2024-10-13T07:32:58Z</time>
      </trkpt>
      <trkpt lat="49.22055" lon="0.12757">
        <ele>134.4</ele>
        <time>2024-10-13T07:32:59Z</time>
      </trkpt>
      <trkpt lat="49.22051" lon="0.12768">
        <ele>134.6</ele>
        <time>2024-10-13T07:33:00Z</time>
      </trkpt>
      <trkpt lat="49.22047" lon="0.12779">
        <ele>134.6</ele>
        <time>2024-10-13T07:33:01Z</time>
      </trkpt>
      <trkpt lat="49.22044" lon="0.1279">
        <ele>134.6</ele>
        <time>2024-10-13T07:33:02Z</time>
      </trkpt>
      <trkpt lat="49.2204" lon="0.12801">
        <ele>134.8</ele>
        <time>2024-10-13T07:33:03Z</time>
      </trkpt>
      <trkpt lat="49.22036" lon="0.12813">
        <ele>134.8</ele>
        <time>2024-10-13T07:33:04Z</time>
      </trkpt>
      <trkpt lat="49.22031" lon="0.12824">
        <ele>134.8</ele>
        <time>2024-10-13T07:33:05Z</time>
      </trkpt>
      <trkpt lat="49.22027" lon="0.12836">
        <ele>135</ele>
        <time>2024-10-13T07:33:06Z</time>
      </trkpt>
      <trkpt lat="49.22022" lon="0.12847">
        <ele>135</ele>
        <time>2024-10-13T07:33:07Z</time>
      </trkpt>
      <trkpt lat="49.22017" lon="0.12859">
        <ele>135.2</ele>
        <time>2024-10-13T07:33:08Z</time>
      </trkpt>
      <trkpt lat="49.22011" lon="0.1287">
        <ele>135.2</ele>
        <time>2024-10-13T07:33:09Z</time>
      </trkpt>
      <trkpt lat="49.22006" lon="0.12881">
        <ele>135.2</ele>
        <time>2024-10-13T07:33:10Z</time>
      </trkpt>
      <trkpt lat="49.22001" lon="0.12892">
        <ele>135.2</ele>
        <time>2024-10-13T07:33:11Z</time>
      </trkpt>
      <trkpt lat="49.21995" lon="0.12903">
        <ele>135.2</ele>
        <time>2024-10-13T07:33:12Z</time>
      </trkpt>
      <trkpt lat="49.2199" lon="0.12914">
        <ele>135.2</ele>
        <time>2024-10-13T07:33:13Z</time>
      </trkpt>
      <trkpt lat="49.21984" lon="0.12924">
        <ele>135.2</ele>
        <time>2024-10-13T07:33:14Z</time>
      </trkpt>
      <trkpt lat="49.21978" lon="0.12934">
        <ele>135.2</ele>
        <time>2024-10-13T07:33:15Z</time>
      </trkpt>
      <trkpt lat="49.21972" lon="0.12945">
        <ele>135.2</ele>
        <time>2024-10-13T07:33:16Z</time>
      </trkpt>
      <trkpt lat="49.21967" lon="0.12955">
        <ele>135.2</ele>
        <time>2024-10-13T07:33:17Z</time>
      </trkpt>
      <trkpt lat="49.21962" lon="0.12965">
        <ele>134.8</ele>
        <time>2024-10-13T07:33:18Z</time>
      </trkpt>
      <trkpt lat="49.21956" lon="0.12975">
        <ele>134.8</ele>
        <time>2024-10-13T07:33:19Z</time>
      </trkpt>
      <trkpt lat="49.2195" lon="0.12986">
        <ele>134.6</ele>
        <time>2024-10-13T07:33:20Z</time>
      </trkpt>
      <trkpt lat="49.21944" lon="0.12996">
        <ele>134.4</ele>
        <time>2024-10-13T07:33:21Z</time>
      </trkpt>
      <trkpt lat="49.21938" lon="0.13006">
        <ele>134.4</ele>
        <time>2024-10-13T07:33:22Z</time>
      </trkpt>
      <trkpt lat="49.21933" lon="0.13017">
        <ele>134.2</ele>
        <time>2024-10-13T07:33:23Z</time>
      </trkpt>
      <trkpt lat="49.21927" lon="0.13028">
        <ele>134</ele>
        <time>2024-10-13T07:33:24Z</time>
      </trkpt>
      <trkpt lat="49.21921" lon="0.13039">
        <ele>133.8</ele>
        <time>2024-10-13T07:33:25Z</time>
      </trkpt>
      <trkpt lat="49.21915" lon="0.13049">
        <ele>133.6</ele>
        <time>2024-10-13T07:33:26Z</time>
      </trkpt>
      <trkpt lat="49.21909" lon="0.13061">
        <ele>133</ele>
        <time>2024-10-13T07:33:27Z</time>
      </trkpt>
      <trkpt lat="49.21904" lon="0.13072">
        <ele>132.8</ele>
        <time>2024-10-13T07:33:28Z</time>
      </trkpt>
      <trkpt lat="49.21898" lon="0.13083">
        <ele>132.8</ele>
        <time>2024-10-13T07:33:29Z</time>
      </trkpt>
      <trkpt lat="49.21892" lon="0.13094">
        <ele>132.6</ele>
        <time>2024-10-13T07:33:30Z</time>
      </trkpt>
      <trkpt lat="49.21887" lon="0.13105">
        <ele>132.6</ele>
        <time>2024-10-13T07:33:31Z</time>
      </trkpt>
      <trkpt lat="49.21881" lon="0.13116">
        <ele>132.4</ele>
        <time>2024-10-13T07:33:32Z</time>
      </trkpt>
      <trkpt lat="49.21876" lon="0.13127">
        <ele>132.4</ele>
        <time>2024-10-13T07:33:33Z</time>
      </trkpt>
      <trkpt lat="49.21871" lon="0.13139">
        <ele>132.2</ele>
        <time>2024-10-13T07:33:34Z</time>
      </trkpt>
      <trkpt lat="49.21865" lon="0.1315">
        <ele>132</ele>
        <time>2024-10-13T07:33:35Z</time>
      </trkpt>
      <trkpt lat="49.2186" lon="0.13161">
        <ele>131.8</ele>
        <time>2024-10-13T07:33:36Z</time>
      </trkpt>
      <trkpt lat="49.21854" lon="0.13173">
        <ele>131.6</ele>
        <time>2024-10-13T07:33:37Z</time>
      </trkpt>
      <trkpt lat="49.21849" lon="0.13184">
        <ele>131.4</ele>
        <time>2024-10-13T07:33:38Z</time>
      </trkpt>
      <trkpt lat="49.21843" lon="0.13196">
        <ele>131.2</ele>
        <time>2024-10-13T07:33:39Z</time>
      </trkpt>
      <trkpt lat="49.21838" lon="0.13207">
        <ele>131.2</ele>
        <time>2024-10-13T07:33:40Z</time>
      </trkpt>
      <trkpt lat="49.21833" lon="0.13218">
        <ele>131</ele>
        <time>2024-10-13T07:33:41Z</time>
      </trkpt>
      <trkpt lat="49.21828" lon="0.13229">
        <ele>130.8</ele>
        <time>2024-10-13T07:33:42Z</time>
      </trkpt>
      <trkpt lat="49.21823" lon="0.13239">
        <ele>130.8</ele>
        <time>2024-10-13T07:33:43Z</time>
      </trkpt>
      <trkpt lat="49.21818" lon="0.1325">
        <ele>130.8</ele>
        <time>2024-10-13T07:33:44Z</time>
      </trkpt>
      <trkpt lat="49.21813" lon="0.1326">
        <ele>130.8</ele>
        <time>2024-10-13T07:33:45Z</time>
      </trkpt>
      <trkpt lat="49.21809" lon="0.1327">
        <ele>130.8</ele>
        <time>2024-10-13T07:33:46Z</time>
      </trkpt>
      <trkpt lat="49.21804" lon="0.1328">
        <ele>130.8</ele>
        <time>2024-10-13T07:33:47Z</time>
      </trkpt>
      <trkpt lat="49.21799" lon="0.1329">
        <ele>130.8</ele>
        <time>2024-10-13T07:33:48Z</time>
      </trkpt>
      <trkpt lat="49.21795" lon="0.133">
        <ele>130.8</ele>
        <time>2024-10-13T07:33:49Z</time>
      </trkpt>
      <trkpt lat="49.21791" lon="0.1331">
        <ele>130.8</ele>
        <time>2024-10-13T07:33:50Z</time>
      </trkpt>
      <trkpt lat="49.21786" lon="0.1332">
        <ele>130.8</ele>
        <time>2024-10-13T07:33:51Z</time>
      </trkpt>
      <trkpt lat="49.21781" lon="0.1333">
        <ele>130.8</ele>
        <time>2024-10-13T07:33:52Z</time>
      </trkpt>
      <trkpt lat="49.21777" lon="0.1334">
        <ele>130.8</ele>
        <time>2024-10-13T07:33:53Z</time>
      </trkpt>
      <trkpt lat="49.21772" lon="0.1335">
        <ele>130.8</ele>
        <time>2024-10-13T07:33:54Z</time>
      </trkpt>
      <trkpt lat="49.21768" lon="0.13359">
        <ele>131</ele>
        <time>2024-10-13T07:33:55Z</time>
      </trkpt>
      <trkpt lat="49.21763" lon="0.13369">
        <ele>131</ele>
        <time>2024-10-13T07:33:56Z</time>
      </trkpt>
      <trkpt lat="49.21758" lon="0.13379">
        <ele>131.2</ele>
        <time>2024-10-13T07:33:57Z</time>
      </trkpt>
      <trkpt lat="49.21754" lon="0.13389">
        <ele>131.6</ele>
        <time>2024-10-13T07:33:58Z</time>
      </trkpt>
      <trkpt lat="49.21749" lon="0.13398">
        <ele>131.8</ele>
        <time>2024-10-13T07:33:59Z</time>
      </trkpt>
      <trkpt lat="49.21744" lon="0.13408">
        <ele>132</ele>
        <time>2024-10-13T07:34:00Z</time>
      </trkpt>
      <trkpt lat="49.21739" lon="0.13417">
        <ele>132.2</ele>
        <time>2024-10-13T07:34:01Z</time>
      </trkpt>
      <trkpt lat="49.21734" lon="0.13426">
        <ele>132.4</ele>
        <time>2024-10-13T07:34:02Z</time>
      </trkpt>
      <trkpt lat="49.21729" lon="0.13435">
        <ele>132.6</ele>
        <time>2024-10-13T07:34:03Z</time>
      </trkpt>
      <trkpt lat="49.21723" lon="0.13444">
        <ele>132.6</ele>
        <time>2024-10-13T07:34:04Z</time>
      </trkpt>
      <trkpt lat="49.21717" lon="0.13453">
        <ele>132.8</ele>
        <time>2024-10-13T07:34:05Z</time>
      </trkpt>
      <trkpt lat="49.21711" lon="0.13461">
        <ele>133</ele>
        <time>2024-10-13T07:34:06Z</time>
      </trkpt>
      <trkpt lat="49.21705" lon="0.13469">
        <ele>133</ele>
        <time>2024-10-13T07:34:07Z</time>
      </trkpt>
      <trkpt lat="49.21699" lon="0.13477">
        <ele>133.2</ele>
        <time>2024-10-13T07:34:08Z</time>
      </trkpt>
      <trkpt lat="49.21694" lon="0.13485">
        <ele>133.4</ele>
        <time>2024-10-13T07:34:09Z</time>
      </trkpt>
      <trkpt lat="49.21688" lon="0.13492">
        <ele>133.4</ele>
        <time>2024-10-13T07:34:10Z</time>
      </trkpt>
      <trkpt lat="49.21683" lon="0.13499">
        <ele>133.6</ele>
        <time>2024-10-13T07:34:11Z</time>
      </trkpt>
      <trkpt lat="49.21677" lon="0.13507">
        <ele>133.6</ele>
        <time>2024-10-13T07:34:12Z</time>
      </trkpt>
      <trkpt lat="49.21672" lon="0.13514">
        <ele>133.8</ele>
        <time>2024-10-13T07:34:13Z</time>
      </trkpt>
      <trkpt lat="49.21667" lon="0.13521">
        <ele>133.8</ele>
        <time>2024-10-13T07:34:14Z</time>
      </trkpt>
      <trkpt lat="49.21662" lon="0.13528">
        <ele>133.8</ele>
        <time>2024-10-13T07:34:15Z</time>
      </trkpt>
      <trkpt lat="49.21657" lon="0.13535">
        <ele>133.8</ele>
        <time>2024-10-13T07:34:16Z</time>
      </trkpt>
      <trkpt lat="49.21652" lon="0.13541">
        <ele>133.8</ele>
        <time>2024-10-13T07:34:17Z</time>
      </trkpt>
      <trkpt lat="49.21648" lon="0.13548">
        <ele>133.8</ele>
        <time>2024-10-13T07:34:18Z</time>
      </trkpt>
      <trkpt lat="49.21643" lon="0.13554">
        <ele>133.8</ele>
        <time>2024-10-13T07:34:19Z</time>
      </trkpt>
      <trkpt lat="49.21639" lon="0.13559">
        <ele>133.8</ele>
        <time>2024-10-13T07:34:20Z</time>
      </trkpt>
      <trkpt lat="49.21635" lon="0.13565">
        <ele>133.8</ele>
        <time>2024-10-13T07:34:21Z</time>
      </trkpt>
      <trkpt lat="49.21631" lon="0.13569">
        <ele>133.8</ele>
        <time>2024-10-13T07:34:22Z</time>
      </trkpt>
      <trkpt lat="49.21627" lon="0.13573">
        <ele>133.6</ele>
        <time>2024-10-13T07:34:23Z</time>
      </trkpt>
      <trkpt lat="49.21624" lon="0.13577">
        <ele>133.6</ele>
        <time>2024-10-13T07:34:24Z</time>
      </trkpt>
      <trkpt lat="49.21622" lon="0.13581">
        <ele>133.6</ele>
        <time>2024-10-13T07:34:25Z</time>
      </trkpt>
      <trkpt lat="49.21619" lon="0.13585">
        <ele>133.6</ele>
        <time>2024-10-13T07:34:26Z</time>
      </trkpt>
      <trkpt lat="49.21616" lon="0.13588">
        <ele>133.6</ele>
        <time>2024-10-13T07:34:27Z</time>
      </trkpt>
      <trkpt lat="49.21614" lon="0.13591">
        <ele>133.4</ele>
        <time>2024-10-13T07:34:28Z</time>
      </trkpt>
      <trkpt lat="49.21612" lon="0.13594">
        <ele>133.4</ele>
        <time>2024-10-13T07:34:29Z</time>
      </trkpt>
      <trkpt lat="49.2161" lon="0.13598">
        <ele>133.4</ele>
        <time>2024-10-13T07:34:30Z</time>
      </trkpt>
      <trkpt lat="49.21608" lon="0.13601">
        <ele>133.4</ele>
        <time>2024-10-13T07:34:31Z</time>
      </trkpt>
      <trkpt lat="49.21607" lon="0.13605">
        <ele>133.4</ele>
        <time>2024-10-13T07:34:32Z</time>
      </trkpt>
      <trkpt lat="49.21607" lon="0.13609">
        <ele>133.4</ele>
        <time>2024-10-13T07:34:33Z</time>
      </trkpt>
      <trkpt lat="49.21608" lon="0.13614">
        <ele>133.2</ele>
        <time>2024-10-13T07:34:34Z</time>
      </trkpt>
      <trkpt lat="49.21609" lon="0.13617">
        <ele>133.2</ele>
        <time>2024-10-13T07:34:35Z</time>
      </trkpt>
      <trkpt lat="49.2161" lon="0.1362">
        <ele>133.2</ele>
        <time>2024-10-13T07:34:36Z</time>
      </trkpt>
      <trkpt lat="49.21611" lon="0.13623">
        <ele>133</ele>
        <time>2024-10-13T07:34:37Z</time>
      </trkpt>
      <trkpt lat="49.21613" lon="0.13626">
        <ele>133</ele>
        <time>2024-10-13T07:34:38Z</time>
      </trkpt>
      <trkpt lat="49.21614" lon="0.13629">
        <ele>133</ele>
        <time>2024-10-13T07:34:39Z</time>
      </trkpt>
      <trkpt lat="49.21615" lon="0.13632">
        <ele>133</ele>
        <time>2024-10-13T07:34:40Z</time>
      </trkpt>
      <trkpt lat="49.21616" lon="0.13635">
        <ele>132.8</ele>
        <time>2024-10-13T07:34:41Z</time>
      </trkpt>
      <trkpt lat="49.21618" lon="0.13639">
        <ele>132.8</ele>
        <time>2024-10-13T07:34:42Z</time>
      </trkpt>
      <trkpt lat="49.21619" lon="0.13642">
        <ele>132.8</ele>
        <time>2024-10-13T07:34:43Z</time>
      </trkpt>
      <trkpt lat="49.21621" lon="0.13645">
        <ele>132.8</ele>
        <time>2024-10-13T07:34:44Z</time>
      </trkpt>
      <trkpt lat="49.21622" lon="0.13649">
        <ele>132.8</ele>
        <time>2024-10-13T07:34:45Z</time>
      </trkpt>
      <trkpt lat="49.21623" lon="0.13652">
        <ele>132.8</ele>
        <time>2024-10-13T07:34:46Z</time>
      </trkpt>
      <trkpt lat="49.21624" lon="0.13655">
        <ele>132.6</ele>
        <time>2024-10-13T07:34:47Z</time>
      </trkpt>
      <trkpt lat="49.21624" lon="0.13657">
        <ele>132.6</ele>
        <time>2024-10-13T07:34:48Z</time>
      </trkpt>
      <trkpt lat="49.21624" lon="0.13657">
        <ele>132.6</ele>
        <time>2024-10-13T07:34:49Z</time>
      </trkpt>
      <trkpt lat="49.21624" lon="0.13657">
        <ele>132.4</ele>
        <time>2024-10-13T07:34:50Z</time>
      </trkpt>
      <trkpt lat="49.21628" lon="0.13663">
        <ele>131.8</ele>
        <time>2024-10-13T07:35:50Z</time>
      </trkpt>
      <trkpt lat="49.2163" lon="0.13666">
        <ele>131.8</ele>
        <time>2024-10-13T07:35:51Z</time>
      </trkpt>
      <trkpt lat="49.21631" lon="0.13668">
        <ele>131.8</ele>
        <time>2024-10-13T07:35:52Z</time>
      </trkpt>
      <trkpt lat="49.21633" lon="0.1367">
        <ele>131.8</ele>
        <time>2024-10-13T07:35:53Z</time>
      </trkpt>
      <trkpt lat="49.21634" lon="0.13673">
        <ele>131.8</ele>
        <time>2024-10-13T07:35:54Z</time>
      </trkpt>
      <trkpt lat="49.21635" lon="0.13676">
        <ele>131.8</ele>
        <time>2024-10-13T07:35:55Z</time>
      </trkpt>
      <trkpt lat="49.21637" lon="0.1368">
        <ele>131.8</ele>
        <time>2024-10-13T07:35:56Z</time>
      </trkpt>
      <trkpt lat="49.21638" lon="0.13684">
        <ele>131.8</ele>
        <time>2024-10-13T07:35:57Z</time>
      </trkpt>
      <trkpt lat="49.21639" lon="0.13688">
        <ele>131.8</ele>
        <time>2024-10-13T07:35:58Z</time>
      </trkpt>
      <trkpt lat="49.21641" lon="0.13693">
        <ele>131.8</ele>
        <time>2024-10-13T07:35:59Z</time>
      </trkpt>
      <trkpt lat="49.21642" lon="0.13698">
        <ele>131.8</ele>
        <time>2024-10-13T07:36:00Z</time>
      </trkpt>
      <trkpt lat="49.21644" lon="0.13704">
        <ele>131.8</ele>
        <time>2024-10-13T07:36:01Z</time>
      </trkpt>
      <trkpt lat="49.21645" lon="0.13711">
        <ele>131.8</ele>
        <time>2024-10-13T07:36:02Z</time>
      </trkpt>
      <trkpt lat="49.21647" lon="0.13718">
        <ele>131.6</ele>
        <time>2024-10-13T07:36:03Z</time>
      </trkpt>
      <trkpt lat="49.2165" lon="0.13724">
        <ele>131.6</ele>
        <time>2024-10-13T07:36:04Z</time>
      </trkpt>
      <trkpt lat="49.21652" lon="0.13731">
        <ele>131.6</ele>
        <time>2024-10-13T07:36:05Z</time>
      </trkpt>
      <trkpt lat="49.21655" lon="0.13738">
        <ele>131.4</ele>
        <time>2024-10-13T07:36:06Z</time>
      </trkpt>
      <trkpt lat="49.21659" lon="0.13745">
        <ele>131.4</ele>
        <time>2024-10-13T07:36:07Z</time>
      </trkpt>
      <trkpt lat="49.21661" lon="0.13752">
        <ele>131.2</ele>
        <time>2024-10-13T07:36:08Z</time>
      </trkpt>
      <trkpt lat="49.21664" lon="0.13759">
        <ele>131.2</ele>
        <time>2024-10-13T07:36:09Z</time>
      </trkpt>
      <trkpt lat="49.21667" lon="0.13766">
        <ele>131.2</ele>
        <time>2024-10-13T07:36:10Z</time>
      </trkpt>
      <trkpt lat="49.2167" lon="0.13773">
        <ele>131</ele>
        <time>2024-10-13T07:36:11Z</time>
      </trkpt>
      <trkpt lat="49.21673" lon="0.1378">
        <ele>130.8</ele>
        <time>2024-10-13T07:36:12Z</time>
      </trkpt>
      <trkpt lat="49.21675" lon="0.13787">
        <ele>130.8</ele>
        <time>2024-10-13T07:36:13Z</time>
      </trkpt>
      <trkpt lat="49.21678" lon="0.13794">
        <ele>130.6</ele>
        <time>2024-10-13T07:36:14Z</time>
      </trkpt>
      <trkpt lat="49.2168" lon="0.13801">
        <ele>130.4</ele>
        <time>2024-10-13T07:36:15Z</time>
      </trkpt>
      <trkpt lat="49.21681" lon="0.13809">
        <ele>130.2</ele>
        <time>2024-10-13T07:36:16Z</time>
      </trkpt>
      <trkpt lat="49.21681" lon="0.13817">
        <ele>130.2</ele>
        <time>2024-10-13T07:36:17Z</time>
      </trkpt>
      <trkpt lat="49.2168" lon="0.13826">
        <ele>130</ele>
        <time>2024-10-13T07:36:18Z</time>
      </trkpt>
      <trkpt lat="49.21679" lon="0.13834">
        <ele>130</ele>
        <time>2024-10-13T07:36:19Z</time>
      </trkpt>
      <trkpt lat="49.21678" lon="0.13843">
        <ele>130</ele>
        <time>2024-10-13T07:36:20Z</time>
      </trkpt>
      <trkpt lat="49.21677" lon="0.13852">
        <ele>129.8</ele>
        <time>2024-10-13T07:36:21Z</time>
      </trkpt>
      <trkpt lat="49.21676" lon="0.13861">
        <ele>129.8</ele>
        <time>2024-10-13T07:36:22Z</time>
      </trkpt>
      <trkpt lat="49.21675" lon="0.13871">
        <ele>129.6</ele>
        <time>2024-10-13T07:36:23Z</time>
      </trkpt>
      <trkpt lat="49.21674" lon="0.13881">
        <ele>129.6</ele>
        <time>2024-10-13T07:36:24Z</time>
      </trkpt>
      <trkpt lat="49.21673" lon="0.13891">
        <ele>129.4</ele>
        <time>2024-10-13T07:36:25Z</time>
      </trkpt>
      <trkpt lat="49.21673" lon="0.13901">
        <ele>129.2</ele>
        <time>2024-10-13T07:36:26Z</time>
      </trkpt>
      <trkpt lat="49.21672" lon="0.13912">
        <ele>129</ele>
        <time>2024-10-13T07:36:27Z</time>
      </trkpt>
      <trkpt lat="49.21672" lon="0.13923">
        <ele>128.8</ele>
        <time>2024-10-13T07:36:28Z</time>
      </trkpt>
      <trkpt lat="49.21671" lon="0.13933">
        <ele>128.8</ele>
        <time>2024-10-13T07:36:29Z</time>
      </trkpt>
      <trkpt lat="49.21669" lon="0.13944">
        <ele>128.6</ele>
        <time>2024-10-13T07:36:30Z</time>
      </trkpt>
      <trkpt lat="49.21668" lon="0.13954">
        <ele>128.6</ele>
        <time>2024-10-13T07:36:31Z</time>
      </trkpt>
      <trkpt lat="49.21668" lon="0.13965">
        <ele>128.6</ele>
        <time>2024-10-13T07:36:32Z</time>
      </trkpt>
      <trkpt lat="49.21667" lon="0.13976">
        <ele>128.6</ele>
        <time>2024-10-13T07:36:33Z</time>
      </trkpt>
      <trkpt lat="49.21666" lon="0.13987">
        <ele>128.6</ele>
        <time>2024-10-13T07:36:34Z</time>
      </trkpt>
      <trkpt lat="49.21665" lon="0.13997">
        <ele>128.6</ele>
        <time>2024-10-13T07:36:35Z</time>
      </trkpt>
      <trkpt lat="49.21664" lon="0.14007">
        <ele>128.6</ele>
        <time>2024-10-13T07:36:36Z</time>
      </trkpt>
      <trkpt lat="49.21663" lon="0.14018">
        <ele>128.6</ele>
        <time>2024-10-13T07:36:37Z</time>
      </trkpt>
      <trkpt lat="49.21662" lon="0.14028">
        <ele>128.6</ele>
        <time>2024-10-13T07:36:38Z</time>
      </trkpt>
      <trkpt lat="49.21662" lon="0.14037">
        <ele>128.6</ele>
        <time>2024-10-13T07:36:39Z</time>
      </trkpt>
      <trkpt lat="49.21661" lon="0.14047">
        <ele>128.6</ele>
        <time>2024-10-13T07:36:40Z</time>
      </trkpt>
      <trkpt lat="49.2166" lon="0.14056">
        <ele>128.6</ele>
        <time>2024-10-13T07:36:41Z</time>
      </trkpt>
      <trkpt lat="49.21659" lon="0.14065">
        <ele>128.6</ele>
        <time>2024-10-13T07:36:42Z</time>
      </trkpt>
      <trkpt lat="49.21659" lon="0.14074">
        <ele>128.8</ele>
        <time>2024-10-13T07:36:43Z</time>
      </trkpt>
      <trkpt lat="49.21659" lon="0.14083">
        <ele>128.8</ele>
        <time>2024-10-13T07:36:44Z</time>
      </trkpt>
      <trkpt lat="49.21659" lon="0.14092">
        <ele>129</ele>
        <time>2024-10-13T07:36:45Z</time>
      </trkpt>
      <trkpt lat="49.2166" lon="0.14101">
        <ele>129.2</ele>
        <time>2024-10-13T07:36:46Z</time>
      </trkpt>
      <trkpt lat="49.2166" lon="0.1411">
        <ele>129.4</ele>
        <time>2024-10-13T07:36:47Z</time>
      </trkpt>
      <trkpt lat="49.21661" lon="0.14119">
        <ele>129.6</ele>
        <time>2024-10-13T07:36:48Z</time>
      </trkpt>
      <trkpt lat="49.21661" lon="0.14128">
        <ele>129.6</ele>
        <time>2024-10-13T07:36:49Z</time>
      </trkpt>
      <trkpt lat="49.21662" lon="0.14138">
        <ele>129.8</ele>
        <time>2024-10-13T07:36:50Z</time>
      </trkpt>
      <trkpt lat="49.21663" lon="0.14147">
        <ele>129.8</ele>
        <time>2024-10-13T07:36:51Z</time>
      </trkpt>
      <trkpt lat="49.21664" lon="0.14156">
        <ele>130</ele>
        <time>2024-10-13T07:36:52Z</time>
      </trkpt>
      <trkpt lat="49.21665" lon="0.14165">
        <ele>130</ele>
        <time>2024-10-13T07:36:53Z</time>
      </trkpt>
      <trkpt lat="49.21667" lon="0.14174">
        <ele>130.2</ele>
        <time>2024-10-13T07:36:54Z</time>
      </trkpt>
      <trkpt lat="49.21667" lon="0.14184">
        <ele>130.4</ele>
        <time>2024-10-13T07:36:55Z</time>
      </trkpt>
      <trkpt lat="49.21668" lon="0.14193">
        <ele>130.4</ele>
        <time>2024-10-13T07:36:56Z</time>
      </trkpt>
      <trkpt lat="49.2167" lon="0.14203">
        <ele>130.4</ele>
        <time>2024-10-13T07:36:57Z</time>
      </trkpt>
      <trkpt lat="49.21671" lon="0.14213">
        <ele>130.6</ele>
        <time>2024-10-13T07:36:58Z</time>
      </trkpt>
      <trkpt lat="49.21672" lon="0.14222">
        <ele>130.6</ele>
        <time>2024-10-13T07:36:59Z</time>
      </trkpt>
      <trkpt lat="49.21674" lon="0.14232">
        <ele>130.6</ele>
        <time>2024-10-13T07:37:00Z</time>
      </trkpt>
      <trkpt lat="49.21675" lon="0.14241">
        <ele>130.8</ele>
        <time>2024-10-13T07:37:01Z</time>
      </trkpt>
      <trkpt lat="49.21676" lon="0.14252">
        <ele>130.8</ele>
        <time>2024-10-13T07:37:02Z</time>
      </trkpt>
      <trkpt lat="49.21677" lon="0.14262">
        <ele>130.8</ele>
        <time>2024-10-13T07:37:03Z</time>
      </trkpt>
      <trkpt lat="49.21677" lon="0.14273">
        <ele>130.8</ele>
        <time>2024-10-13T07:37:04Z</time>
      </trkpt>
      <trkpt lat="49.21677" lon="0.14284">
        <ele>130.8</ele>
        <time>2024-10-13T07:37:05Z</time>
      </trkpt>
      <trkpt lat="49.21677" lon="0.14295">
        <ele>130.8</ele>
        <time>2024-10-13T07:37:06Z</time>
      </trkpt>
      <trkpt lat="49.21676" lon="0.14306">
        <ele>130.8</ele>
        <time>2024-10-13T07:37:07Z</time>
      </trkpt>
      <trkpt lat="49.21675" lon="0.14318">
        <ele>130.8</ele>
        <time>2024-10-13T07:37:08Z</time>
      </trkpt>
      <trkpt lat="49.21673" lon="0.14329">
        <ele>130.6</ele>
        <time>2024-10-13T07:37:09Z</time>
      </trkpt>
      <trkpt lat="49.21671" lon="0.1434">
        <ele>130.6</ele>
        <time>2024-10-13T07:37:10Z</time>
      </trkpt>
      <trkpt lat="49.21669" lon="0.14351">
        <ele>130.6</ele>
        <time>2024-10-13T07:37:11Z</time>
      </trkpt>
      <trkpt lat="49.21666" lon="0.14362">
        <ele>130.4</ele>
        <time>2024-10-13T07:37:12Z</time>
      </trkpt>
      <trkpt lat="49.21664" lon="0.14374">
        <ele>130.4</ele>
        <time>2024-10-13T07:37:13Z</time>
      </trkpt>
      <trkpt lat="49.21662" lon="0.14385">
        <ele>130.2</ele>
        <time>2024-10-13T07:37:14Z</time>
      </trkpt>
      <trkpt lat="49.2166" lon="0.14397">
        <ele>130.2</ele>
        <time>2024-10-13T07:37:15Z</time>
      </trkpt>
      <trkpt lat="49.21659" lon="0.14409">
        <ele>129.8</ele>
        <time>2024-10-13T07:37:16Z</time>
      </trkpt>
      <trkpt lat="49.21658" lon="0.1442">
        <ele>129.6</ele>
        <time>2024-10-13T07:37:17Z</time>
      </trkpt>
      <trkpt lat="49.21657" lon="0.14432">
        <ele>129.6</ele>
        <time>2024-10-13T07:37:18Z</time>
      </trkpt>
      <trkpt lat="49.21657" lon="0.14444">
        <ele>129.4</ele>
        <time>2024-10-13T07:37:19Z</time>
      </trkpt>
      <trkpt lat="49.21656" lon="0.14456">
        <ele>129.4</ele>
        <time>2024-10-13T07:37:20Z</time>
      </trkpt>
      <trkpt lat="49.21655" lon="0.14468">
        <ele>129.4</ele>
        <time>2024-10-13T07:37:21Z</time>
      </trkpt>
      <trkpt lat="49.21654" lon="0.14481">
        <ele>129.2</ele>
        <time>2024-10-13T07:37:22Z</time>
      </trkpt>
      <trkpt lat="49.21653" lon="0.14493">
        <ele>129.2</ele>
        <time>2024-10-13T07:37:23Z</time>
      </trkpt>
      <trkpt lat="49.21653" lon="0.14506">
        <ele>129</ele>
        <time>2024-10-13T07:37:24Z</time>
      </trkpt>
      <trkpt lat="49.21652" lon="0.14518">
        <ele>129</ele>
        <time>2024-10-13T07:37:25Z</time>
      </trkpt>
      <trkpt lat="49.21651" lon="0.14531">
        <ele>129</ele>
        <time>2024-10-13T07:37:26Z</time>
      </trkpt>
      <trkpt lat="49.21651" lon="0.14544">
        <ele>129</ele>
        <time>2024-10-13T07:37:27Z</time>
      </trkpt>
      <trkpt lat="49.2165" lon="0.14557">
        <ele>128.8</ele>
        <time>2024-10-13T07:37:28Z</time>
      </trkpt>
      <trkpt lat="49.2165" lon="0.1457">
        <ele>128.8</ele>
        <time>2024-10-13T07:37:29Z</time>
      </trkpt>
      <trkpt lat="49.21649" lon="0.14583">
        <ele>128.6</ele>
        <time>2024-10-13T07:37:30Z</time>
      </trkpt>
      <trkpt lat="49.21649" lon="0.14596">
        <ele>128.6</ele>
        <time>2024-10-13T07:37:31Z</time>
      </trkpt>
      <trkpt lat="49.21648" lon="0.14609">
        <ele>128.4</ele>
        <time>2024-10-13T07:37:32Z</time>
      </trkpt>
      <trkpt lat="49.21648" lon="0.14621">
        <ele>128.2</ele>
        <time>2024-10-13T07:37:33Z</time>
      </trkpt>
      <trkpt lat="49.21648" lon="0.14634">
        <ele>128</ele>
        <time>2024-10-13T07:37:34Z</time>
      </trkpt>
      <trkpt lat="49.21647" lon="0.14647">
        <ele>128</ele>
        <time>2024-10-13T07:37:35Z</time>
      </trkpt>
      <trkpt lat="49.21647" lon="0.14659">
        <ele>128</ele>
        <time>2024-10-13T07:37:36Z</time>
      </trkpt>
      <trkpt lat="49.21647" lon="0.14672">
        <ele>128</ele>
        <time>2024-10-13T07:37:37Z</time>
      </trkpt>
      <trkpt lat="49.21647" lon="0.14684">
        <ele>128</ele>
        <time>2024-10-13T07:37:38Z</time>
      </trkpt>
      <trkpt lat="49.21648" lon="0.14696">
        <ele>128</ele>
        <time>2024-10-13T07:37:39Z</time>
      </trkpt>
      <trkpt lat="49.21648" lon="0.14709">
        <ele>127.8</ele>
        <time>2024-10-13T07:37:40Z</time>
      </trkpt>
      <trkpt lat="49.21649" lon="0.14721">
        <ele>127.8</ele>
        <time>2024-10-13T07:37:41Z</time>
      </trkpt>
      <trkpt lat="49.21649" lon="0.14733">
        <ele>127.8</ele>
        <time>2024-10-13T07:37:42Z</time>
      </trkpt>
      <trkpt lat="49.2165" lon="0.14746">
        <ele>127.8</ele>
        <time>2024-10-13T07:37:43Z</time>
      </trkpt>
      <trkpt lat="49.2165" lon="0.14759">
        <ele>127.8</ele>
        <time>2024-10-13T07:37:44Z</time>
      </trkpt>
      <trkpt lat="49.2165" lon="0.14771">
        <ele>127.8</ele>
        <time>2024-10-13T07:37:45Z</time>
      </trkpt>
      <trkpt lat="49.21651" lon="0.14783">
        <ele>127.8</ele>
        <time>2024-10-13T07:37:46Z</time>
      </trkpt>
      <trkpt lat="49.21652" lon="0.14796">
        <ele>128</ele>
        <time>2024-10-13T07:37:47Z</time>
      </trkpt>
      <trkpt lat="49.21653" lon="0.14808">
        <ele>128</ele>
        <time>2024-10-13T07:37:48Z</time>
      </trkpt>
      <trkpt lat="49.21653" lon="0.1482">
        <ele>128</ele>
        <time>2024-10-13T07:37:49Z</time>
      </trkpt>
      <trkpt lat="49.21654" lon="0.14833">
        <ele>128</ele>
        <time>2024-10-13T07:37:50Z</time>
      </trkpt>
      <trkpt lat="49.21654" lon="0.14845">
        <ele>128.2</ele>
        <time>2024-10-13T07:37:51Z</time>
      </trkpt>
      <trkpt lat="49.21655" lon="0.14858">
        <ele>128.2</ele>
        <time>2024-10-13T07:37:52Z</time>
      </trkpt>
      <trkpt lat="49.21656" lon="0.14871">
        <ele>128.2</ele>
        <time>2024-10-13T07:37:53Z</time>
      </trkpt>
      <trkpt lat="49.21656" lon="0.14883">
        <ele>128.2</ele>
        <time>2024-10-13T07:37:54Z</time>
      </trkpt>
      <trkpt lat="49.21657" lon="0.14896">
        <ele>128.4</ele>
        <time>2024-10-13T07:37:55Z</time>
      </trkpt>
      <trkpt lat="49.21657" lon="0.14908">
        <ele>128.4</ele>
        <time>2024-10-13T07:37:56Z</time>
      </trkpt>
      <trkpt lat="49.21657" lon="0.1492">
        <ele>128.4</ele>
        <time>2024-10-13T07:37:57Z</time>
      </trkpt>
      <trkpt lat="49.21657" lon="0.14933">
        <ele>128.4</ele>
        <time>2024-10-13T07:37:58Z</time>
      </trkpt>
      <trkpt lat="49.21656" lon="0.14945">
        <ele>128.4</ele>
        <time>2024-10-13T07:37:59Z</time>
      </trkpt>
      <trkpt lat="49.21655" lon="0.14957">
        <ele>128.4</ele>
        <time>2024-10-13T07:38:00Z</time>
      </trkpt>
      <trkpt lat="49.21655" lon="0.1497">
        <ele>128.4</ele>
        <time>2024-10-13T07:38:01Z</time>
      </trkpt>
      <trkpt lat="49.21654" lon="0.14982">
        <ele>128.6</ele>
        <time>2024-10-13T07:38:02Z</time>
      </trkpt>
      <trkpt lat="49.21653" lon="0.14994">
        <ele>128.6</ele>
        <time>2024-10-13T07:38:03Z</time>
      </trkpt>
      <trkpt lat="49.21652" lon="0.15006">
        <ele>128.6</ele>
        <time>2024-10-13T07:38:04Z</time>
      </trkpt>
      <trkpt lat="49.21651" lon="0.15019">
        <ele>128.6</ele>
        <time>2024-10-13T07:38:05Z</time>
      </trkpt>
      <trkpt lat="49.2165" lon="0.15031">
        <ele>128.6</ele>
        <time>2024-10-13T07:38:06Z</time>
      </trkpt>
      <trkpt lat="49.21648" lon="0.15043">
        <ele>128.6</ele>
        <time>2024-10-13T07:38:07Z</time>
      </trkpt>
      <trkpt lat="49.21648" lon="0.15057">
        <ele>128.6</ele>
        <time>2024-10-13T07:38:08Z</time>
      </trkpt>
      <trkpt lat="49.21647" lon="0.1507">
        <ele>128.6</ele>
        <time>2024-10-13T07:38:09Z</time>
      </trkpt>
      <trkpt lat="49.21645" lon="0.15083">
        <ele>128.4</ele>
        <time>2024-10-13T07:38:10Z</time>
      </trkpt>
      <trkpt lat="49.21644" lon="0.15097">
        <ele>128.4</ele>
        <time>2024-10-13T07:38:11Z</time>
      </trkpt>
      <trkpt lat="49.21643" lon="0.1511">
        <ele>128.4</ele>
        <time>2024-10-13T07:38:12Z</time>
      </trkpt>
      <trkpt lat="49.21642" lon="0.15123">
        <ele>128.4</ele>
        <time>2024-10-13T07:38:13Z</time>
      </trkpt>
      <trkpt lat="49.2164" lon="0.15137">
        <ele>128.2</ele>
        <time>2024-10-13T07:38:14Z</time>
      </trkpt>
      <trkpt lat="49.21639" lon="0.1515">
        <ele>128.2</ele>
        <time>2024-10-13T07:38:15Z</time>
      </trkpt>
      <trkpt lat="49.21637" lon="0.15163">
        <ele>128.2</ele>
        <time>2024-10-13T07:38:16Z</time>
      </trkpt>
      <trkpt lat="49.21636" lon="0.15177">
        <ele>128.2</ele>
        <time>2024-10-13T07:38:17Z</time>
      </trkpt>
      <trkpt lat="49.21634" lon="0.1519">
        <ele>128.2</ele>
        <time>2024-10-13T07:38:18Z</time>
      </trkpt>
      <trkpt lat="49.21632" lon="0.15203">
        <ele>127.8</ele>
        <time>2024-10-13T07:38:19Z</time>
      </trkpt>
      <trkpt lat="49.2163" lon="0.15216">
        <ele>127.4</ele>
        <time>2024-10-13T07:38:20Z</time>
      </trkpt>
      <trkpt lat="49.21627" lon="0.15229">
        <ele>127</ele>
        <time>2024-10-13T07:38:21Z</time>
      </trkpt>
      <trkpt lat="49.21623" lon="0.15241">
        <ele>126.4</ele>
        <time>2024-10-13T07:38:22Z</time>
      </trkpt>
      <trkpt lat="49.21619" lon="0.15254">
        <ele>126.2</ele>
        <time>2024-10-13T07:38:23Z</time>
      </trkpt>
      <trkpt lat="49.21615" lon="0.15267">
        <ele>126.2</ele>
        <time>2024-10-13T07:38:24Z</time>
      </trkpt>
      <trkpt lat="49.21611" lon="0.1528">
        <ele>126.2</ele>
        <time>2024-10-13T07:38:25Z</time>
      </trkpt>
      <trkpt lat="49.21608" lon="0.15293">
        <ele>126.2</ele>
        <time>2024-10-13T07:38:26Z</time>
      </trkpt>
      <trkpt lat="49.21604" lon="0.15306">
        <ele>126</ele>
        <time>2024-10-13T07:38:27Z</time>
      </trkpt>
      <trkpt lat="49.216" lon="0.15318">
        <ele>125.6</ele>
        <time>2024-10-13T07:38:28Z</time>
      </trkpt>
      <trkpt lat="49.21596" lon="0.1533">
        <ele>125.4</ele>
        <time>2024-10-13T07:38:29Z</time>
      </trkpt>
      <trkpt lat="49.21592" lon="0.15342">
        <ele>125.2</ele>
        <time>2024-10-13T07:38:30Z</time>
      </trkpt>
      <trkpt lat="49.21588" lon="0.15355">
        <ele>125</ele>
        <time>2024-10-13T07:38:31Z</time>
      </trkpt>
      <trkpt lat="49.21585" lon="0.15367">
        <ele>124.8</ele>
        <time>2024-10-13T07:38:32Z</time>
      </trkpt>
      <trkpt lat="49.21581" lon="0.15379">
        <ele>124.6</ele>
        <time>2024-10-13T07:38:33Z</time>
      </trkpt>
      <trkpt lat="49.21578" lon="0.1539">
        <ele>124.2</ele>
        <time>2024-10-13T07:38:34Z</time>
      </trkpt>
      <trkpt lat="49.21576" lon="0.15401">
        <ele>124</ele>
        <time>2024-10-13T07:38:35Z</time>
      </trkpt>
      <trkpt lat="49.21574" lon="0.15412">
        <ele>124</ele>
        <time>2024-10-13T07:38:36Z</time>
      </trkpt>
      <trkpt lat="49.21571" lon="0.15423">
        <ele>123.8</ele>
        <time>2024-10-13T07:38:37Z</time>
      </trkpt>
      <trkpt lat="49.2157" lon="0.15435">
        <ele>123.8</ele>
        <time>2024-10-13T07:38:38Z</time>
      </trkpt>
      <trkpt lat="49.21568" lon="0.15446">
        <ele>123.8</ele>
        <time>2024-10-13T07:38:39Z</time>
      </trkpt>
      <trkpt lat="49.21567" lon="0.15457">
        <ele>123.8</ele>
        <time>2024-10-13T07:38:40Z</time>
      </trkpt>
      <trkpt lat="49.21565" lon="0.15468">
        <ele>123.8</ele>
        <time>2024-10-13T07:38:41Z</time>
      </trkpt>
      <trkpt lat="49.21564" lon="0.15478">
        <ele>123.8</ele>
        <time>2024-10-13T07:38:42Z</time>
      </trkpt>
      <trkpt lat="49.21562" lon="0.15489">
        <ele>123.8</ele>
        <time>2024-10-13T07:38:43Z</time>
      </trkpt>
      <trkpt lat="49.21562" lon="0.155">
        <ele>124</ele>
        <time>2024-10-13T07:38:44Z</time>
      </trkpt>
      <trkpt lat="49.21561" lon="0.15511">
        <ele>124.2</ele>
        <time>2024-10-13T07:38:45Z</time>
      </trkpt>
      <trkpt lat="49.2156" lon="0.15523">
        <ele>124.4</ele>
        <time>2024-10-13T07:38:46Z</time>
      </trkpt>
      <trkpt lat="49.2156" lon="0.15534">
        <ele>124.6</ele>
        <time>2024-10-13T07:38:47Z</time>
      </trkpt>
      <trkpt lat="49.2156" lon="0.15544">
        <ele>124.8</ele>
        <time>2024-10-13T07:38:48Z</time>
      </trkpt>
      <trkpt lat="49.21559" lon="0.15555">
        <ele>125</ele>
        <time>2024-10-13T07:38:49Z</time>
      </trkpt>
      <trkpt lat="49.21559" lon="0.15565">
        <ele>125.2</ele>
        <time>2024-10-13T07:38:50Z</time>
      </trkpt>
      <trkpt lat="49.21559" lon="0.15576">
        <ele>125.4</ele>
        <time>2024-10-13T07:38:51Z</time>
      </trkpt>
      <trkpt lat="49.2156" lon="0.15587">
        <ele>125.8</ele>
        <time>2024-10-13T07:38:52Z</time>
      </trkpt>
      <trkpt lat="49.21559" lon="0.15598">
        <ele>126.2</ele>
        <time>2024-10-13T07:38:53Z</time>
      </trkpt>
      <trkpt lat="49.21559" lon="0.15609">
        <ele>126.6</ele>
        <time>2024-10-13T07:38:54Z</time>
      </trkpt>
      <trkpt lat="49.21559" lon="0.1562">
        <ele>126.8</ele>
        <time>2024-10-13T07:38:55Z</time>
      </trkpt>
      <trkpt lat="49.2156" lon="0.15631">
        <ele>127</ele>
        <time>2024-10-13T07:38:56Z</time>
      </trkpt>
      <trkpt lat="49.21561" lon="0.15642">
        <ele>127.2</ele>
        <time>2024-10-13T07:38:57Z</time>
      </trkpt>
      <trkpt lat="49.21562" lon="0.15653">
        <ele>127.2</ele>
        <time>2024-10-13T07:38:58Z</time>
      </trkpt>
      <trkpt lat="49.21563" lon="0.15665">
        <ele>127.2</ele>
        <time>2024-10-13T07:38:59Z</time>
      </trkpt>
      <trkpt lat="49.21563" lon="0.15676">
        <ele>127.4</ele>
        <time>2024-10-13T07:39:00Z</time>
      </trkpt>
      <trkpt lat="49.21564" lon="0.15687">
        <ele>127.4</ele>
        <time>2024-10-13T07:39:01Z</time>
      </trkpt>
      <trkpt lat="49.21565" lon="0.15698">
        <ele>127.8</ele>
        <time>2024-10-13T07:39:02Z</time>
      </trkpt>
      <trkpt lat="49.21566" lon="0.15708">
        <ele>128</ele>
        <time>2024-10-13T07:39:03Z</time>
      </trkpt>
      <trkpt lat="49.21567" lon="0.15719">
        <ele>128.2</ele>
        <time>2024-10-13T07:39:04Z</time>
      </trkpt>
      <trkpt lat="49.21568" lon="0.1573">
        <ele>128.4</ele>
        <time>2024-10-13T07:39:05Z</time>
      </trkpt>
      <trkpt lat="49.21569" lon="0.15741">
        <ele>128.6</ele>
        <time>2024-10-13T07:39:06Z</time>
      </trkpt>
      <trkpt lat="49.2157" lon="0.15751">
        <ele>128.6</ele>
        <time>2024-10-13T07:39:07Z</time>
      </trkpt>
      <trkpt lat="49.21572" lon="0.15762">
        <ele>128.8</ele>
        <time>2024-10-13T07:39:08Z</time>
      </trkpt>
      <trkpt lat="49.21573" lon="0.15772">
        <ele>129</ele>
        <time>2024-10-13T07:39:09Z</time>
      </trkpt>
      <trkpt lat="49.21575" lon="0.15783">
        <ele>129.2</ele>
        <time>2024-10-13T07:39:10Z</time>
      </trkpt>
      <trkpt lat="49.21577" lon="0.15793">
        <ele>129.4</ele>
        <time>2024-10-13T07:39:11Z</time>
      </trkpt>
      <trkpt lat="49.21579" lon="0.15804">
        <ele>129.4</ele>
        <time>2024-10-13T07:39:12Z</time>
      </trkpt>
      <trkpt lat="49.21581" lon="0.15814">
        <ele>129.6</ele>
        <time>2024-10-13T07:39:13Z</time>
      </trkpt>
      <trkpt lat="49.21583" lon="0.15825">
        <ele>129.6</ele>
        <time>2024-10-13T07:39:14Z</time>
      </trkpt>
      <trkpt lat="49.21584" lon="0.15836">
        <ele>129.6</ele>
        <time>2024-10-13T07:39:15Z</time>
      </trkpt>
      <trkpt lat="49.21587" lon="0.15847">
        <ele>129.8</ele>
        <time>2024-10-13T07:39:16Z</time>
      </trkpt>
      <trkpt lat="49.21589" lon="0.15857">
        <ele>129.8</ele>
        <time>2024-10-13T07:39:17Z</time>
      </trkpt>
      <trkpt lat="49.21591" lon="0.15871">
        <ele>130</ele>
        <time>2024-10-13T07:39:18Z</time>
      </trkpt>
      <trkpt lat="49.21593" lon="0.1588">
        <ele>130</ele>
        <time>2024-10-13T07:39:19Z</time>
      </trkpt>
      <trkpt lat="49.21595" lon="0.1589">
        <ele>130.2</ele>
        <time>2024-10-13T07:39:20Z</time>
      </trkpt>
      <trkpt lat="49.21597" lon="0.15901">
        <ele>130.4</ele>
        <time>2024-10-13T07:39:21Z</time>
      </trkpt>
      <trkpt lat="49.216" lon="0.15911">
        <ele>130.4</ele>
        <time>2024-10-13T07:39:22Z</time>
      </trkpt>
      <trkpt lat="49.21602" lon="0.15922">
        <ele>130.4</ele>
        <time>2024-10-13T07:39:23Z</time>
      </trkpt>
      <trkpt lat="49.21605" lon="0.15932">
        <ele>130.6</ele>
        <time>2024-10-13T07:39:24Z</time>
      </trkpt>
      <trkpt lat="49.21607" lon="0.15943">
        <ele>130.6</ele>
        <time>2024-10-13T07:39:25Z</time>
      </trkpt>
      <trkpt lat="49.2161" lon="0.15954">
        <ele>130.6</ele>
        <time>2024-10-13T07:39:26Z</time>
      </trkpt>
      <trkpt lat="49.21611" lon="0.15965">
        <ele>130.6</ele>
        <time>2024-10-13T07:39:27Z</time>
      </trkpt>
      <trkpt lat="49.21613" lon="0.15976">
        <ele>130.8</ele>
        <time>2024-10-13T07:39:28Z</time>
      </trkpt>
      <trkpt lat="49.21615" lon="0.15987">
        <ele>130.8</ele>
        <time>2024-10-13T07:39:29Z</time>
      </trkpt>
      <trkpt lat="49.21616" lon="0.15999">
        <ele>131</ele>
        <time>2024-10-13T07:39:30Z</time>
      </trkpt>
      <trkpt lat="49.21618" lon="0.16011">
        <ele>131</ele>
        <time>2024-10-13T07:39:31Z</time>
      </trkpt>
      <trkpt lat="49.2162" lon="0.16023">
        <ele>131</ele>
        <time>2024-10-13T07:39:32Z</time>
      </trkpt>
      <trkpt lat="49.21621" lon="0.16035">
        <ele>131</ele>
        <time>2024-10-13T07:39:33Z</time>
      </trkpt>
      <trkpt lat="49.21622" lon="0.16048">
        <ele>131</ele>
        <time>2024-10-13T07:39:34Z</time>
      </trkpt>
      <trkpt lat="49.21624" lon="0.1606">
        <ele>131</ele>
        <time>2024-10-13T07:39:35Z</time>
      </trkpt>
      <trkpt lat="49.21627" lon="0.16072">
        <ele>131</ele>
        <time>2024-10-13T07:39:36Z</time>
      </trkpt>
      <trkpt lat="49.21629" lon="0.16083">
        <ele>131</ele>
        <time>2024-10-13T07:39:37Z</time>
      </trkpt>
      <trkpt lat="49.21631" lon="0.16094">
        <ele>131</ele>
        <time>2024-10-13T07:39:38Z</time>
      </trkpt>
      <trkpt lat="49.21633" lon="0.16104">
        <ele>131</ele>
        <time>2024-10-13T07:39:39Z</time>
      </trkpt>
      <trkpt lat="49.21636" lon="0.16115">
        <ele>131</ele>
        <time>2024-10-13T07:39:40Z</time>
      </trkpt>
      <trkpt lat="49.21639" lon="0.16126">
        <ele>131</ele>
        <time>2024-10-13T07:39:41Z</time>
      </trkpt>
      <trkpt lat="49.21641" lon="0.16136">
        <ele>131</ele>
        <time>2024-10-13T07:39:42Z</time>
      </trkpt>
      <trkpt lat="49.21644" lon="0.16148">
        <ele>130.6</ele>
        <time>2024-10-13T07:39:43Z</time>
      </trkpt>
      <trkpt lat="49.21646" lon="0.16159">
        <ele>130.6</ele>
        <time>2024-10-13T07:39:44Z</time>
      </trkpt>
      <trkpt lat="49.21649" lon="0.16171">
        <ele>130.6</ele>
        <time>2024-10-13T07:39:45Z</time>
      </trkpt>
      <trkpt lat="49.21652" lon="0.16182">
        <ele>130.6</ele>
        <time>2024-10-13T07:39:46Z</time>
      </trkpt>
      <trkpt lat="49.21655" lon="0.16194">
        <ele>130.6</ele>
        <time>2024-10-13T07:39:47Z</time>
      </trkpt>
      <trkpt lat="49.21657" lon="0.16205">
        <ele>130.6</ele>
        <time>2024-10-13T07:39:48Z</time>
      </trkpt>
      <trkpt lat="49.2166" lon="0.16217">
        <ele>130.6</ele>
        <time>2024-10-13T07:39:49Z</time>
      </trkpt>
      <trkpt lat="49.21663" lon="0.16229">
        <ele>130.4</ele>
        <time>2024-10-13T07:39:50Z</time>
      </trkpt>
      <trkpt lat="49.21667" lon="0.16241">
        <ele>130.2</ele>
        <time>2024-10-13T07:39:51Z</time>
      </trkpt>
      <trkpt lat="49.2167" lon="0.16253">
        <ele>130</ele>
        <time>2024-10-13T07:39:52Z</time>
      </trkpt>
      <trkpt lat="49.21672" lon="0.16265">
        <ele>130</ele>
        <time>2024-10-13T07:39:53Z</time>
      </trkpt>
      <trkpt lat="49.21676" lon="0.16276">
        <ele>129.8</ele>
        <time>2024-10-13T07:39:54Z</time>
      </trkpt>
      <trkpt lat="49.21679" lon="0.16288">
        <ele>129.6</ele>
        <time>2024-10-13T07:39:55Z</time>
      </trkpt>
      <trkpt lat="49.21682" lon="0.163">
        <ele>129.4</ele>
        <time>2024-10-13T07:39:56Z</time>
      </trkpt>
      <trkpt lat="49.21685" lon="0.16312">
        <ele>129.2</ele>
        <time>2024-10-13T07:39:57Z</time>
      </trkpt>
      <trkpt lat="49.21688" lon="0.16324">
        <ele>129</ele>
        <time>2024-10-13T07:39:58Z</time>
      </trkpt>
      <trkpt lat="49.21691" lon="0.16336">
        <ele>129</ele>
        <time>2024-10-13T07:39:59Z</time>
      </trkpt>
      <trkpt lat="49.21694" lon="0.16349">
        <ele>128.8</ele>
        <time>2024-10-13T07:40:00Z</time>
      </trkpt>
      <trkpt lat="49.21697" lon="0.16361">
        <ele>128.8</ele>
        <time>2024-10-13T07:40:01Z</time>
      </trkpt>
      <trkpt lat="49.21699" lon="0.16374">
        <ele>128.6</ele>
        <time>2024-10-13T07:40:02Z</time>
      </trkpt>
      <trkpt lat="49.21701" lon="0.16386">
        <ele>128.4</ele>
        <time>2024-10-13T07:40:03Z</time>
      </trkpt>
      <trkpt lat="49.21703" lon="0.16398">
        <ele>128.4</ele>
        <time>2024-10-13T07:40:04Z</time>
      </trkpt>
      <trkpt lat="49.21705" lon="0.1641">
        <ele>128.2</ele>
        <time>2024-10-13T07:40:05Z</time>
      </trkpt>
      <trkpt lat="49.21706" lon="0.16422">
        <ele>128.2</ele>
        <time>2024-10-13T07:40:06Z</time>
      </trkpt>
      <trkpt lat="49.21707" lon="0.16434">
        <ele>128</ele>
        <time>2024-10-13T07:40:07Z</time>
      </trkpt>
      <trkpt lat="49.21708" lon="0.16446">
        <ele>127.8</ele>
        <time>2024-10-13T07:40:08Z</time>
      </trkpt>
      <trkpt lat="49.21709" lon="0.16458">
        <ele>127.6</ele>
        <time>2024-10-13T07:40:09Z</time>
      </trkpt>
      <trkpt lat="49.2171" lon="0.1647">
        <ele>127.4</ele>
        <time>2024-10-13T07:40:10Z</time>
      </trkpt>
      <trkpt lat="49.21712" lon="0.16481">
        <ele>127.2</ele>
        <time>2024-10-13T07:40:11Z</time>
      </trkpt>
      <trkpt lat="49.21714" lon="0.16493">
        <ele>127</ele>
        <time>2024-10-13T07:40:12Z</time>
      </trkpt>
      <trkpt lat="49.21716" lon="0.16504">
        <ele>127</ele>
        <time>2024-10-13T07:40:13Z</time>
      </trkpt>
      <trkpt lat="49.21718" lon="0.16515">
        <ele>126.8</ele>
        <time>2024-10-13T07:40:14Z</time>
      </trkpt>
      <trkpt lat="49.21719" lon="0.16526">
        <ele>126.8</ele>
        <time>2024-10-13T07:40:15Z</time>
      </trkpt>
      <trkpt lat="49.2172" lon="0.16537">
        <ele>126.6</ele>
        <time>2024-10-13T07:40:16Z</time>
      </trkpt>
      <trkpt lat="49.21721" lon="0.16547">
        <ele>126.6</ele>
        <time>2024-10-13T07:40:17Z</time>
      </trkpt>
      <trkpt lat="49.21722" lon="0.16557">
        <ele>126.6</ele>
        <time>2024-10-13T07:40:18Z</time>
      </trkpt>
      <trkpt lat="49.21723" lon="0.16566">
        <ele>126.6</ele>
        <time>2024-10-13T07:40:19Z</time>
      </trkpt>
      <trkpt lat="49.21724" lon="0.16575">
        <ele>126.4</ele>
        <time>2024-10-13T07:40:20Z</time>
      </trkpt>
      <trkpt lat="49.21725" lon="0.16584">
        <ele>126.4</ele>
        <time>2024-10-13T07:40:21Z</time>
      </trkpt>
      <trkpt lat="49.21726" lon="0.16593">
        <ele>126.4</ele>
        <time>2024-10-13T07:40:22Z</time>
      </trkpt>
      <trkpt lat="49.21727" lon="0.16603">
        <ele>126.4</ele>
        <time>2024-10-13T07:40:23Z</time>
      </trkpt>
      <trkpt lat="49.21727" lon="0.16613">
        <ele>126.4</ele>
        <time>2024-10-13T07:40:24Z</time>
      </trkpt>
      <trkpt lat="49.21727" lon="0.16624">
        <ele>126.4</ele>
        <time>2024-10-13T07:40:25Z</time>
      </trkpt>
      <trkpt lat="49.21727" lon="0.16634">
        <ele>126.4</ele>
        <time>2024-10-13T07:40:26Z</time>
      </trkpt>
      <trkpt lat="49.21726" lon="0.16645">
        <ele>126.4</ele>
        <time>2024-10-13T07:40:27Z</time>
      </trkpt>
      <trkpt lat="49.21725" lon="0.16655">
        <ele>126.4</ele>
        <time>2024-10-13T07:40:28Z</time>
      </trkpt>
      <trkpt lat="49.21724" lon="0.16666">
        <ele>126.4</ele>
        <time>2024-10-13T07:40:29Z</time>
      </trkpt>
      <trkpt lat="49.21724" lon="0.16677">
        <ele>126.4</ele>
        <time>2024-10-13T07:40:30Z</time>
      </trkpt>
      <trkpt lat="49.21724" lon="0.16687">
        <ele>126.4</ele>
        <time>2024-10-13T07:40:31Z</time>
      </trkpt>
      <trkpt lat="49.21724" lon="0.16698">
        <ele>126.4</ele>
        <time>2024-10-13T07:40:32Z</time>
      </trkpt>
      <trkpt lat="49.21723" lon="0.16709">
        <ele>126.4</ele>
        <time>2024-10-13T07:40:33Z</time>
      </trkpt>
      <trkpt lat="49.21723" lon="0.1672">
        <ele>126.4</ele>
        <time>2024-10-13T07:40:34Z</time>
      </trkpt>
      <trkpt lat="49.21723" lon="0.16731">
        <ele>126.4</ele>
        <time>2024-10-13T07:40:35Z</time>
      </trkpt>
      <trkpt lat="49.21722" lon="0.16742">
        <ele>126.4</ele>
        <time>2024-10-13T07:40:36Z</time>
      </trkpt>
      <trkpt lat="49.21722" lon="0.16753">
        <ele>126.4</ele>
        <time>2024-10-13T07:40:37Z</time>
      </trkpt>
      <trkpt lat="49.21722" lon="0.16764">
        <ele>126.4</ele>
        <time>2024-10-13T07:40:38Z</time>
      </trkpt>
      <trkpt lat="49.21722" lon="0.16775">
        <ele>126.4</ele>
        <time>2024-10-13T07:40:39Z</time>
      </trkpt>
      <trkpt lat="49.21723" lon="0.16786">
        <ele>126.6</ele>
        <time>2024-10-13T07:40:40Z</time>
      </trkpt>
      <trkpt lat="49.21723" lon="0.16798">
        <ele>126.6</ele>
        <time>2024-10-13T07:40:41Z</time>
      </trkpt>
      <trkpt lat="49.21723" lon="0.16808">
        <ele>126.8</ele>
        <time>2024-10-13T07:40:42Z</time>
      </trkpt>
      <trkpt lat="49.21723" lon="0.16819">
        <ele>127</ele>
        <time>2024-10-13T07:40:43Z</time>
      </trkpt>
      <trkpt lat="49.21723" lon="0.1683">
        <ele>127</ele>
        <time>2024-10-13T07:40:44Z</time>
      </trkpt>
      <trkpt lat="49.21723" lon="0.16841">
        <ele>127</ele>
        <time>2024-10-13T07:40:45Z</time>
      </trkpt>
      <trkpt lat="49.21723" lon="0.16851">
        <ele>127.2</ele>
        <time>2024-10-13T07:40:46Z</time>
      </trkpt>
      <trkpt lat="49.21723" lon="0.16862">
        <ele>127.4</ele>
        <time>2024-10-13T07:40:47Z</time>
      </trkpt>
      <trkpt lat="49.21723" lon="0.16873">
        <ele>127.6</ele>
        <time>2024-10-13T07:40:48Z</time>
      </trkpt>
      <trkpt lat="49.21723" lon="0.16884">
        <ele>127.6</ele>
        <time>2024-10-13T07:40:49Z</time>
      </trkpt>
      <trkpt lat="49.21723" lon="0.16894">
        <ele>127.8</ele>
        <time>2024-10-13T07:40:50Z</time>
      </trkpt>
      <trkpt lat="49.21723" lon="0.16905">
        <ele>127.8</ele>
        <time>2024-10-13T07:40:51Z</time>
      </trkpt>
      <trkpt lat="49.21723" lon="0.16916">
        <ele>128.2</ele>
        <time>2024-10-13T07:40:52Z</time>
      </trkpt>
      <trkpt lat="49.21723" lon="0.16926">
        <ele>128.6</ele>
        <time>2024-10-13T07:40:53Z</time>
      </trkpt>
      <trkpt lat="49.21724" lon="0.16937">
        <ele>128.8</ele>
        <time>2024-10-13T07:40:54Z</time>
      </trkpt>
      <trkpt lat="49.21723" lon="0.16947">
        <ele>129</ele>
        <time>2024-10-13T07:40:55Z</time>
      </trkpt>
      <trkpt lat="49.21724" lon="0.16958">
        <ele>129.2</ele>
        <time>2024-10-13T07:40:56Z</time>
      </trkpt>
      <trkpt lat="49.21724" lon="0.16969">
        <ele>129.4</ele>
        <time>2024-10-13T07:40:57Z</time>
      </trkpt>
      <trkpt lat="49.21724" lon="0.1698">
        <ele>129.4</ele>
        <time>2024-10-13T07:40:58Z</time>
      </trkpt>
      <trkpt lat="49.21725" lon="0.16991">
        <ele>129.4</ele>
        <time>2024-10-13T07:40:59Z</time>
      </trkpt>
      <trkpt lat="49.21726" lon="0.17002">
        <ele>129.8</ele>
        <time>2024-10-13T07:41:00Z</time>
      </trkpt>
      <trkpt lat="49.21727" lon="0.17013">
        <ele>130</ele>
        <time>2024-10-13T07:41:01Z</time>
      </trkpt>
      <trkpt lat="49.21727" lon="0.17025">
        <ele>130</ele>
        <time>2024-10-13T07:41:02Z</time>
      </trkpt>
      <trkpt lat="49.21728" lon="0.17037">
        <ele>130.2</ele>
        <time>2024-10-13T07:41:03Z</time>
      </trkpt>
      <trkpt lat="49.21729" lon="0.1705">
        <ele>130.2</ele>
        <time>2024-10-13T07:41:04Z</time>
      </trkpt>
      <trkpt lat="49.2173" lon="0.17061">
        <ele>130.2</ele>
        <time>2024-10-13T07:41:05Z</time>
      </trkpt>
      <trkpt lat="49.21731" lon="0.17073">
        <ele>130.2</ele>
        <time>2024-10-13T07:41:06Z</time>
      </trkpt>
      <trkpt lat="49.21731" lon="0.17085">
        <ele>130.4</ele>
        <time>2024-10-13T07:41:07Z</time>
      </trkpt>
      <trkpt lat="49.21733" lon="0.17097">
        <ele>130.4</ele>
        <time>2024-10-13T07:41:08Z</time>
      </trkpt>
      <trkpt lat="49.21734" lon="0.17109">
        <ele>130.4</ele>
        <time>2024-10-13T07:41:09Z</time>
      </trkpt>
      <trkpt lat="49.21735" lon="0.17121">
        <ele>130.4</ele>
        <time>2024-10-13T07:41:10Z</time>
      </trkpt>
      <trkpt lat="49.21736" lon="0.17133">
        <ele>130.4</ele>
        <time>2024-10-13T07:41:11Z</time>
      </trkpt>
      <trkpt lat="49.21737" lon="0.17145">
        <ele>130.4</ele>
        <time>2024-10-13T07:41:12Z</time>
      </trkpt>
      <trkpt lat="49.21738" lon="0.17157">
        <ele>130.4</ele>
        <time>2024-10-13T07:41:13Z</time>
      </trkpt>
      <trkpt lat="49.2174" lon="0.17169">
        <ele>130.4</ele>
        <time>2024-10-13T07:41:14Z</time>
      </trkpt>
      <trkpt lat="49.2174" lon="0.17182">
        <ele>130.4</ele>
        <time>2024-10-13T07:41:15Z</time>
      </trkpt>
      <trkpt lat="49.21741" lon="0.17195">
        <ele>130.4</ele>
        <time>2024-10-13T07:41:16Z</time>
      </trkpt>
      <trkpt lat="49.21741" lon="0.17207">
        <ele>130.4</ele>
        <time>2024-10-13T07:41:17Z</time>
      </trkpt>
      <trkpt lat="49.21741" lon="0.1722">
        <ele>130.2</ele>
        <time>2024-10-13T07:41:18Z</time>
      </trkpt>
      <trkpt lat="49.21741" lon="0.17233">
        <ele>130.2</ele>
        <time>2024-10-13T07:41:19Z</time>
      </trkpt>
      <trkpt lat="49.21741" lon="0.17245">
        <ele>130.2</ele>
        <time>2024-10-13T07:41:20Z</time>
      </trkpt>
      <trkpt lat="49.21741" lon="0.17257">
        <ele>130</ele>
        <time>2024-10-13T07:41:21Z</time>
      </trkpt>
      <trkpt lat="49.2174" lon="0.17269">
        <ele>129.8</ele>
        <time>2024-10-13T07:41:22Z</time>
      </trkpt>
      <trkpt lat="49.2174" lon="0.17282">
        <ele>129.6</ele>
        <time>2024-10-13T07:41:23Z</time>
      </trkpt>
      <trkpt lat="49.2174" lon="0.17294">
        <ele>129.2</ele>
        <time>2024-10-13T07:41:24Z</time>
      </trkpt>
      <trkpt lat="49.21741" lon="0.17306">
        <ele>129.2</ele>
        <time>2024-10-13T07:41:25Z</time>
      </trkpt>
      <trkpt lat="49.21741" lon="0.17319">
        <ele>129</ele>
        <time>2024-10-13T07:41:26Z</time>
      </trkpt>
      <trkpt lat="49.21742" lon="0.17331">
        <ele>129</ele>
        <time>2024-10-13T07:41:27Z</time>
      </trkpt>
      <trkpt lat="49.21743" lon="0.17343">
        <ele>128.8</ele>
        <time>2024-10-13T07:41:28Z</time>
      </trkpt>
      <trkpt lat="49.21743" lon="0.17356">
        <ele>128.8</ele>
        <time>2024-10-13T07:41:29Z</time>
      </trkpt>
      <trkpt lat="49.21745" lon="0.17368">
        <ele>128.6</ele>
        <time>2024-10-13T07:41:30Z</time>
      </trkpt>
      <trkpt lat="49.21747" lon="0.17379">
        <ele>128.2</ele>
        <time>2024-10-13T07:41:31Z</time>
      </trkpt>
      <trkpt lat="49.2175" lon="0.1739">
        <ele>128</ele>
        <time>2024-10-13T07:41:32Z</time>
      </trkpt>
      <trkpt lat="49.21754" lon="0.174">
        <ele>128</ele>
        <time>2024-10-13T07:41:33Z</time>
      </trkpt>
      <trkpt lat="49.21759" lon="0.1741">
        <ele>128</ele>
        <time>2024-10-13T07:41:34Z</time>
      </trkpt>
      <trkpt lat="49.21766" lon="0.17417">
        <ele>127.8</ele>
        <time>2024-10-13T07:41:35Z</time>
      </trkpt>
      <trkpt lat="49.21773" lon="0.17424">
        <ele>127.8</ele>
        <time>2024-10-13T07:41:36Z</time>
      </trkpt>
      <trkpt lat="49.21781" lon="0.1743">
        <ele>127.6</ele>
        <time>2024-10-13T07:41:37Z</time>
      </trkpt>
      <trkpt lat="49.21788" lon="0.17435">
        <ele>127.4</ele>
        <time>2024-10-13T07:41:38Z</time>
      </trkpt>
      <trkpt lat="49.21796" lon="0.1744">
        <ele>127.2</ele>
        <time>2024-10-13T07:41:39Z</time>
      </trkpt>
      <trkpt lat="49.21804" lon="0.17443">
        <ele>127.2</ele>
        <time>2024-10-13T07:41:40Z</time>
      </trkpt>
      <trkpt lat="49.21812" lon="0.17447">
        <ele>127</ele>
        <time>2024-10-13T07:41:41Z</time>
      </trkpt>
      <trkpt lat="49.2182" lon="0.17451">
        <ele>127</ele>
        <time>2024-10-13T07:41:42Z</time>
      </trkpt>
      <trkpt lat="49.21828" lon="0.17454">
        <ele>126.8</ele>
        <time>2024-10-13T07:41:43Z</time>
      </trkpt>
      <trkpt lat="49.21836" lon="0.17458">
        <ele>126.8</ele>
        <time>2024-10-13T07:41:44Z</time>
      </trkpt>
      <trkpt lat="49.21843" lon="0.17463">
        <ele>126.8</ele>
        <time>2024-10-13T07:41:45Z</time>
      </trkpt>
      <trkpt lat="49.2185" lon="0.17468">
        <ele>126.6</ele>
        <time>2024-10-13T07:41:46Z</time>
      </trkpt>
      <trkpt lat="49.21857" lon="0.17475">
        <ele>126.4</ele>
        <time>2024-10-13T07:41:47Z</time>
      </trkpt>
      <trkpt lat="49.21862" lon="0.17484">
        <ele>126.4</ele>
        <time>2024-10-13T07:41:48Z</time>
      </trkpt>
      <trkpt lat="49.21867" lon="0.17494">
        <ele>126.2</ele>
        <time>2024-10-13T07:41:49Z</time>
      </trkpt>
      <trkpt lat="49.2187" lon="0.17504">
        <ele>126.2</ele>
        <time>2024-10-13T07:41:50Z</time>
      </trkpt>
      <trkpt lat="49.21873" lon="0.17515">
        <ele>126.2</ele>
        <time>2024-10-13T07:41:51Z</time>
      </trkpt>
      <trkpt lat="49.21875" lon="0.17526">
        <ele>126</ele>
        <time>2024-10-13T07:41:52Z</time>
      </trkpt>
      <trkpt lat="49.21877" lon="0.17537">
        <ele>126</ele>
        <time>2024-10-13T07:41:53Z</time>
      </trkpt>
      <trkpt lat="49.21878" lon="0.17547">
        <ele>126</ele>
        <time>2024-10-13T07:41:54Z</time>
      </trkpt>
      <trkpt lat="49.2188" lon="0.17557">
        <ele>126</ele>
        <time>2024-10-13T07:41:55Z</time>
      </trkpt>
      <trkpt lat="49.21882" lon="0.17567">
        <ele>126</ele>
        <time>2024-10-13T07:41:56Z</time>
      </trkpt>
      <trkpt lat="49.21883" lon="0.17577">
        <ele>126</ele>
        <time>2024-10-13T07:41:57Z</time>
      </trkpt>
      <trkpt lat="49.21885" lon="0.17587">
        <ele>126</ele>
        <time>2024-10-13T07:41:58Z</time>
      </trkpt>
      <trkpt lat="49.21886" lon="0.17596">
        <ele>126</ele>
        <time>2024-10-13T07:41:59Z</time>
      </trkpt>
      <trkpt lat="49.21888" lon="0.17608">
        <ele>126</ele>
        <time>2024-10-13T07:42:00Z</time>
      </trkpt>
      <trkpt lat="49.21889" lon="0.17615">
        <ele>126.2</ele>
        <time>2024-10-13T07:42:01Z</time>
      </trkpt>
      <trkpt lat="49.2189" lon="0.17624">
        <ele>126.2</ele>
        <time>2024-10-13T07:42:02Z</time>
      </trkpt>
      <trkpt lat="49.21892" lon="0.17633">
        <ele>126.4</ele>
        <time>2024-10-13T07:42:03Z</time>
      </trkpt>
      <trkpt lat="49.21894" lon="0.17642">
        <ele>126.8</ele>
        <time>2024-10-13T07:42:04Z</time>
      </trkpt>
      <trkpt lat="49.21895" lon="0.17651">
        <ele>127.2</ele>
        <time>2024-10-13T07:42:05Z</time>
      </trkpt>
      <trkpt lat="49.21897" lon="0.1766">
        <ele>127.4</ele>
        <time>2024-10-13T07:42:06Z</time>
      </trkpt>
      <trkpt lat="49.21898" lon="0.17669">
        <ele>127.8</ele>
        <time>2024-10-13T07:42:07Z</time>
      </trkpt>
      <trkpt lat="49.219" lon="0.17677">
        <ele>127.8</ele>
        <time>2024-10-13T07:42:08Z</time>
      </trkpt>
      <trkpt lat="49.21902" lon="0.17688">
        <ele>128</ele>
        <time>2024-10-13T07:42:09Z</time>
      </trkpt>
      <trkpt lat="49.21903" lon="0.17696">
        <ele>128.2</ele>
        <time>2024-10-13T07:42:10Z</time>
      </trkpt>
      <trkpt lat="49.21905" lon="0.17707">
        <ele>128.6</ele>
        <time>2024-10-13T07:42:11Z</time>
      </trkpt>
      <trkpt lat="49.21907" lon="0.17714">
        <ele>128.8</ele>
        <time>2024-10-13T07:42:12Z</time>
      </trkpt>
      <trkpt lat="49.21909" lon="0.17724">
        <ele>129</ele>
        <time>2024-10-13T07:42:13Z</time>
      </trkpt>
      <trkpt lat="49.21911" lon="0.17733">
        <ele>129.2</ele>
        <time>2024-10-13T07:42:14Z</time>
      </trkpt>
      <trkpt lat="49.21914" lon="0.17741">
        <ele>129.4</ele>
        <time>2024-10-13T07:42:15Z</time>
      </trkpt>
      <trkpt lat="49.21916" lon="0.1775">
        <ele>129.6</ele>
        <time>2024-10-13T07:42:16Z</time>
      </trkpt>
      <trkpt lat="49.21918" lon="0.1776">
        <ele>129.8</ele>
        <time>2024-10-13T07:42:17Z</time>
      </trkpt>
      <trkpt lat="49.2192" lon="0.1777">
        <ele>130</ele>
        <time>2024-10-13T07:42:18Z</time>
      </trkpt>
      <trkpt lat="49.21921" lon="0.17778">
        <ele>130</ele>
        <time>2024-10-13T07:42:19Z</time>
      </trkpt>
      <trkpt lat="49.21923" lon="0.17788">
        <ele>130.2</ele>
        <time>2024-10-13T07:42:20Z</time>
      </trkpt>
      <trkpt lat="49.21924" lon="0.17798">
        <ele>130.2</ele>
        <time>2024-10-13T07:42:21Z</time>
      </trkpt>
      <trkpt lat="49.21925" lon="0.17809">
        <ele>130.4</ele>
        <time>2024-10-13T07:42:22Z</time>
      </trkpt>
      <trkpt lat="49.21926" lon="0.1782">
        <ele>130.6</ele>
        <time>2024-10-13T07:42:23Z</time>
      </trkpt>
      <trkpt lat="49.21927" lon="0.17831">
        <ele>130.8</ele>
        <time>2024-10-13T07:42:24Z</time>
      </trkpt>
      <trkpt lat="49.21928" lon="0.17842">
        <ele>131</ele>
        <time>2024-10-13T07:42:25Z</time>
      </trkpt>
      <trkpt lat="49.21929" lon="0.17856">
        <ele>131.2</ele>
        <time>2024-10-13T07:42:26Z</time>
      </trkpt>
      <trkpt lat="49.21929" lon="0.17867">
        <ele>131.4</ele>
        <time>2024-10-13T07:42:27Z</time>
      </trkpt>
      <trkpt lat="49.2193" lon="0.17877">
        <ele>131.6</ele>
        <time>2024-10-13T07:42:28Z</time>
      </trkpt>
      <trkpt lat="49.21931" lon="0.17888">
        <ele>131.6</ele>
        <time>2024-10-13T07:42:29Z</time>
      </trkpt>
      <trkpt lat="49.21932" lon="0.17903">
        <ele>131.8</ele>
        <time>2024-10-13T07:42:30Z</time>
      </trkpt>
      <trkpt lat="49.21932" lon="0.17912">
        <ele>131.8</ele>
        <time>2024-10-13T07:42:31Z</time>
      </trkpt>
      <trkpt lat="49.21933" lon="0.17924">
        <ele>131.8</ele>
        <time>2024-10-13T07:42:32Z</time>
      </trkpt>
      <trkpt lat="49.21934" lon="0.17936">
        <ele>131.8</ele>
        <time>2024-10-13T07:42:33Z</time>
      </trkpt>
      <trkpt lat="49.21934" lon="0.17947">
        <ele>132</ele>
        <time>2024-10-13T07:42:34Z</time>
      </trkpt>
      <trkpt lat="49.21935" lon="0.17961">
        <ele>132</ele>
        <time>2024-10-13T07:42:35Z</time>
      </trkpt>
      <trkpt lat="49.21936" lon="0.17971">
        <ele>132</ele>
        <time>2024-10-13T07:42:36Z</time>
      </trkpt>
      <trkpt lat="49.21936" lon="0.17982">
        <ele>132</ele>
        <time>2024-10-13T07:42:37Z</time>
      </trkpt>
      <trkpt lat="49.21936" lon="0.17993">
        <ele>132</ele>
        <time>2024-10-13T07:42:38Z</time>
      </trkpt>
      <trkpt lat="49.21936" lon="0.18004">
        <ele>132</ele>
        <time>2024-10-13T07:42:39Z</time>
      </trkpt>
      <trkpt lat="49.21936" lon="0.18015">
        <ele>132.2</ele>
        <time>2024-10-13T07:42:40Z</time>
      </trkpt>
      <trkpt lat="49.21936" lon="0.18026">
        <ele>132.2</ele>
        <time>2024-10-13T07:42:41Z</time>
      </trkpt>
      <trkpt lat="49.21935" lon="0.18037">
        <ele>132.2</ele>
        <time>2024-10-13T07:42:42Z</time>
      </trkpt>
      <trkpt lat="49.21934" lon="0.18048">
        <ele>132.2</ele>
        <time>2024-10-13T07:42:43Z</time>
      </trkpt>
      <trkpt lat="49.21934" lon="0.1806">
        <ele>132.4</ele>
        <time>2024-10-13T07:42:44Z</time>
      </trkpt>
      <trkpt lat="49.21934" lon="0.18071">
        <ele>132.4</ele>
        <time>2024-10-13T07:42:45Z</time>
      </trkpt>
      <trkpt lat="49.21934" lon="0.18082">
        <ele>132.4</ele>
        <time>2024-10-13T07:42:46Z</time>
      </trkpt>
      <trkpt lat="49.21934" lon="0.18095">
        <ele>132.4</ele>
        <time>2024-10-13T07:42:47Z</time>
      </trkpt>
      <trkpt lat="49.21934" lon="0.18104">
        <ele>132.6</ele>
        <time>2024-10-13T07:42:48Z</time>
      </trkpt>
      <trkpt lat="49.21934" lon="0.18114">
        <ele>132.6</ele>
        <time>2024-10-13T07:42:49Z</time>
      </trkpt>
      <trkpt lat="49.21935" lon="0.18124">
        <ele>132.6</ele>
        <time>2024-10-13T07:42:50Z</time>
      </trkpt>
      <trkpt lat="49.21937" lon="0.18134">
        <ele>132.8</ele>
        <time>2024-10-13T07:42:51Z</time>
      </trkpt>
      <trkpt lat="49.21938" lon="0.18144">
        <ele>132.8</ele>
        <time>2024-10-13T07:42:52Z</time>
      </trkpt>
      <trkpt lat="49.21939" lon="0.18155">
        <ele>133</ele>
        <time>2024-10-13T07:42:53Z</time>
      </trkpt>
      <trkpt lat="49.2194" lon="0.18165">
        <ele>133</ele>
        <time>2024-10-13T07:42:54Z</time>
      </trkpt>
      <trkpt lat="49.21941" lon="0.18175">
        <ele>133.2</ele>
        <time>2024-10-13T07:42:55Z</time>
      </trkpt>
      <trkpt lat="49.21943" lon="0.18185">
        <ele>133.2</ele>
        <time>2024-10-13T07:42:56Z</time>
      </trkpt>
      <trkpt lat="49.21944" lon="0.18195">
        <ele>133.2</ele>
        <time>2024-10-13T07:42:57Z</time>
      </trkpt>
      <trkpt lat="49.21945" lon="0.18205">
        <ele>133.2</ele>
        <time>2024-10-13T07:42:58Z</time>
      </trkpt>
      <trkpt lat="49.21946" lon="0.18215">
        <ele>133.4</ele>
        <time>2024-10-13T07:42:59Z</time>
      </trkpt>
      <trkpt lat="49.21947" lon="0.18225">
        <ele>133.6</ele>
        <time>2024-10-13T07:43:00Z</time>
      </trkpt>
      <trkpt lat="49.21948" lon="0.18235">
        <ele>133.8</ele>
        <time>2024-10-13T07:43:01Z</time>
      </trkpt>
      <trkpt lat="49.2195" lon="0.18247">
        <ele>133.8</ele>
        <time>2024-10-13T07:43:02Z</time>
      </trkpt>
      <trkpt lat="49.21951" lon="0.18255">
        <ele>134</ele>
        <time>2024-10-13T07:43:03Z</time>
      </trkpt>
      <trkpt lat="49.21951" lon="0.18265">
        <ele>134</ele>
        <time>2024-10-13T07:43:04Z</time>
      </trkpt>
      <trkpt lat="49.21952" lon="0.18277">
        <ele>134.2</ele>
        <time>2024-10-13T07:43:05Z</time>
      </trkpt>
      <trkpt lat="49.21953" lon="0.18285">
        <ele>134</ele>
        <time>2024-10-13T07:43:06Z</time>
      </trkpt>
      <trkpt lat="49.21953" lon="0.18295">
        <ele>134</ele>
        <time>2024-10-13T07:43:07Z</time>
      </trkpt>
      <trkpt lat="49.21954" lon="0.18304">
        <ele>134</ele>
        <time>2024-10-13T07:43:08Z</time>
      </trkpt>
      <trkpt lat="49.21954" lon="0.18315">
        <ele>134.4</ele>
        <time>2024-10-13T07:43:09Z</time>
      </trkpt>
      <trkpt lat="49.21955" lon="0.18325">
        <ele>134.4</ele>
        <time>2024-10-13T07:43:10Z</time>
      </trkpt>
      <trkpt lat="49.21956" lon="0.18335">
        <ele>134.4</ele>
        <time>2024-10-13T07:43:11Z</time>
      </trkpt>
      <trkpt lat="49.21956" lon="0.18346">
        <ele>134.6</ele>
        <time>2024-10-13T07:43:12Z</time>
      </trkpt>
      <trkpt lat="49.21957" lon="0.18356">
        <ele>134.8</ele>
        <time>2024-10-13T07:43:13Z</time>
      </trkpt>
      <trkpt lat="49.21957" lon="0.18367">
        <ele>134.8</ele>
        <time>2024-10-13T07:43:14Z</time>
      </trkpt>
      <trkpt lat="49.21958" lon="0.18377">
        <ele>135</ele>
        <time>2024-10-13T07:43:15Z</time>
      </trkpt>
      <trkpt lat="49.21958" lon="0.18388">
        <ele>135</ele>
        <time>2024-10-13T07:43:16Z</time>
      </trkpt>
      <trkpt lat="49.21958" lon="0.18398">
        <ele>135.2</ele>
        <time>2024-10-13T07:43:17Z</time>
      </trkpt>
      <trkpt lat="49.21958" lon="0.18409">
        <ele>135.2</ele>
        <time>2024-10-13T07:43:18Z</time>
      </trkpt>
      <trkpt lat="49.21959" lon="0.1842">
        <ele>135.2</ele>
        <time>2024-10-13T07:43:19Z</time>
      </trkpt>
      <trkpt lat="49.21958" lon="0.18431">
        <ele>135.4</ele>
        <time>2024-10-13T07:43:20Z</time>
      </trkpt>
      <trkpt lat="49.21958" lon="0.18442">
        <ele>135.4</ele>
        <time>2024-10-13T07:43:21Z</time>
      </trkpt>
      <trkpt lat="49.21957" lon="0.18455">
        <ele>135.6</ele>
        <time>2024-10-13T07:43:22Z</time>
      </trkpt>
      <trkpt lat="49.21957" lon="0.18463">
        <ele>135.8</ele>
        <time>2024-10-13T07:43:23Z</time>
      </trkpt>
      <trkpt lat="49.21957" lon="0.18474">
        <ele>136</ele>
        <time>2024-10-13T07:43:24Z</time>
      </trkpt>
      <trkpt lat="49.21957" lon="0.18487">
        <ele>136</ele>
        <time>2024-10-13T07:43:25Z</time>
      </trkpt>
      <trkpt lat="49.21956" lon="0.18496">
        <ele>136.2</ele>
        <time>2024-10-13T07:43:26Z</time>
      </trkpt>
      <trkpt lat="49.21956" lon="0.18507">
        <ele>136.2</ele>
        <time>2024-10-13T07:43:27Z</time>
      </trkpt>
      <trkpt lat="49.21956" lon="0.1852">
        <ele>136.2</ele>
        <time>2024-10-13T07:43:28Z</time>
      </trkpt>
      <trkpt lat="49.21956" lon="0.18529">
        <ele>136.2</ele>
        <time>2024-10-13T07:43:29Z</time>
      </trkpt>
      <trkpt lat="49.21957" lon="0.18539">
        <ele>136.2</ele>
        <time>2024-10-13T07:43:30Z</time>
      </trkpt>
      <trkpt lat="49.21957" lon="0.18552">
        <ele>136.2</ele>
        <time>2024-10-13T07:43:31Z</time>
      </trkpt>
      <trkpt lat="49.21958" lon="0.18561">
        <ele>136.2</ele>
        <time>2024-10-13T07:43:32Z</time>
      </trkpt>
      <trkpt lat="49.21959" lon="0.18572">
        <ele>136.2</ele>
        <time>2024-10-13T07:43:33Z</time>
      </trkpt>
      <trkpt lat="49.21959" lon="0.18585">
        <ele>136.4</ele>
        <time>2024-10-13T07:43:34Z</time>
      </trkpt>
      <trkpt lat="49.2196" lon="0.18596">
        <ele>136.4</ele>
        <time>2024-10-13T07:43:35Z</time>
      </trkpt>
      <trkpt lat="49.2196" lon="0.18604">
        <ele>136.4</ele>
        <time>2024-10-13T07:43:36Z</time>
      </trkpt>
      <trkpt lat="49.2196" lon="0.18615">
        <ele>136.6</ele>
        <time>2024-10-13T07:43:37Z</time>
      </trkpt>
      <trkpt lat="49.2196" lon="0.18628">
        <ele>136.8</ele>
        <time>2024-10-13T07:43:38Z</time>
      </trkpt>
      <trkpt lat="49.2196" lon="0.18639">
        <ele>137</ele>
        <time>2024-10-13T07:43:39Z</time>
      </trkpt>
      <trkpt lat="49.2196" lon="0.18648">
        <ele>137.2</ele>
        <time>2024-10-13T07:43:40Z</time>
      </trkpt>
      <trkpt lat="49.2196" lon="0.18659">
        <ele>137.2</ele>
        <time>2024-10-13T07:43:41Z</time>
      </trkpt>
      <trkpt lat="49.2196" lon="0.18669">
        <ele>137.4</ele>
        <time>2024-10-13T07:43:42Z</time>
      </trkpt>
      <trkpt lat="49.21961" lon="0.1868">
        <ele>137.4</ele>
        <time>2024-10-13T07:43:43Z</time>
      </trkpt>
      <trkpt lat="49.21961" lon="0.18691">
        <ele>137.6</ele>
        <time>2024-10-13T07:43:44Z</time>
      </trkpt>
      <trkpt lat="49.21961" lon="0.18702">
        <ele>137.6</ele>
        <time>2024-10-13T07:43:45Z</time>
      </trkpt>
      <trkpt lat="49.21961" lon="0.18712">
        <ele>137.8</ele>
        <time>2024-10-13T07:43:46Z</time>
      </trkpt>
      <trkpt lat="49.21961" lon="0.18725">
        <ele>138</ele>
        <time>2024-10-13T07:43:47Z</time>
      </trkpt>
      <trkpt lat="49.21961" lon="0.18736">
        <ele>138</ele>
        <time>2024-10-13T07:43:48Z</time>
      </trkpt>
      <trkpt lat="49.21961" lon="0.18744">
        <ele>138.2</ele>
        <time>2024-10-13T07:43:49Z</time>
      </trkpt>
      <trkpt lat="49.21961" lon="0.18756">
        <ele>138.4</ele>
        <time>2024-10-13T07:43:50Z</time>
      </trkpt>
      <trkpt lat="49.21961" lon="0.18767">
        <ele>138.4</ele>
        <time>2024-10-13T07:43:51Z</time>
      </trkpt>
      <trkpt lat="49.21961" lon="0.18775">
        <ele>138.6</ele>
        <time>2024-10-13T07:43:52Z</time>
      </trkpt>
      <trkpt lat="49.21961" lon="0.18787">
        <ele>138.8</ele>
        <time>2024-10-13T07:43:53Z</time>
      </trkpt>
      <trkpt lat="49.21961" lon="0.18795">
        <ele>139</ele>
        <time>2024-10-13T07:43:54Z</time>
      </trkpt>
      <trkpt lat="49.21961" lon="0.18805">
        <ele>139</ele>
        <time>2024-10-13T07:43:55Z</time>
      </trkpt>
      <trkpt lat="49.21961" lon="0.18815">
        <ele>139.2</ele>
        <time>2024-10-13T07:43:56Z</time>
      </trkpt>
      <trkpt lat="49.21961" lon="0.18827">
        <ele>139.2</ele>
        <time>2024-10-13T07:43:57Z</time>
      </trkpt>
      <trkpt lat="49.21961" lon="0.18836">
        <ele>139.4</ele>
        <time>2024-10-13T07:43:58Z</time>
      </trkpt>
      <trkpt lat="49.2196" lon="0.18848">
        <ele>139.4</ele>
        <time>2024-10-13T07:43:59Z</time>
      </trkpt>
      <trkpt lat="49.2196" lon="0.18856">
        <ele>139.6</ele>
        <time>2024-10-13T07:44:00Z</time>
      </trkpt>
      <trkpt lat="49.21959" lon="0.18867">
        <ele>139.6</ele>
        <time>2024-10-13T07:44:01Z</time>
      </trkpt>
      <trkpt lat="49.21959" lon="0.18877">
        <ele>139.8</ele>
        <time>2024-10-13T07:44:02Z</time>
      </trkpt>
      <trkpt lat="49.21959" lon="0.18887">
        <ele>139.8</ele>
        <time>2024-10-13T07:44:03Z</time>
      </trkpt>
      <trkpt lat="49.21958" lon="0.18898">
        <ele>139.8</ele>
        <time>2024-10-13T07:44:04Z</time>
      </trkpt>
      <trkpt lat="49.21957" lon="0.18908">
        <ele>139.8</ele>
        <time>2024-10-13T07:44:05Z</time>
      </trkpt>
      <trkpt lat="49.21957" lon="0.18921">
        <ele>140</ele>
        <time>2024-10-13T07:44:06Z</time>
      </trkpt>
      <trkpt lat="49.21957" lon="0.18929">
        <ele>140.2</ele>
        <time>2024-10-13T07:44:07Z</time>
      </trkpt>
      <trkpt lat="49.21957" lon="0.1894">
        <ele>140.4</ele>
        <time>2024-10-13T07:44:08Z</time>
      </trkpt>
      <trkpt lat="49.21957" lon="0.18952">
        <ele>140.4</ele>
        <time>2024-10-13T07:44:09Z</time>
      </trkpt>
      <trkpt lat="49.21957" lon="0.18963">
        <ele>140.6</ele>
        <time>2024-10-13T07:44:10Z</time>
      </trkpt>
      <trkpt lat="49.21957" lon="0.18971">
        <ele>140.6</ele>
        <time>2024-10-13T07:44:11Z</time>
      </trkpt>
      <trkpt lat="49.21957" lon="0.18982">
        <ele>140.6</ele>
        <time>2024-10-13T07:44:12Z</time>
      </trkpt>
      <trkpt lat="49.21957" lon="0.1899">
        <ele>140.8</ele>
        <time>2024-10-13T07:44:13Z</time>
      </trkpt>
      <trkpt lat="49.21957" lon="0.19">
        <ele>141</ele>
        <time>2024-10-13T07:44:14Z</time>
      </trkpt>
      <trkpt lat="49.21957" lon="0.19011">
        <ele>141</ele>
        <time>2024-10-13T07:44:15Z</time>
      </trkpt>
      <trkpt lat="49.21958" lon="0.19019">
        <ele>141</ele>
        <time>2024-10-13T07:44:16Z</time>
      </trkpt>
      <trkpt lat="49.21958" lon="0.19028">
        <ele>141</ele>
        <time>2024-10-13T07:44:17Z</time>
      </trkpt>
      <trkpt lat="49.21959" lon="0.1904">
        <ele>141</ele>
        <time>2024-10-13T07:44:18Z</time>
      </trkpt>
      <trkpt lat="49.2196" lon="0.19048">
        <ele>141</ele>
        <time>2024-10-13T07:44:19Z</time>
      </trkpt>
      <trkpt lat="49.21963" lon="0.19057">
        <ele>141.2</ele>
        <time>2024-10-13T07:44:20Z</time>
      </trkpt>
      <trkpt lat="49.21966" lon="0.19066">
        <ele>141.2</ele>
        <time>2024-10-13T07:44:21Z</time>
      </trkpt>
      <trkpt lat="49.2197" lon="0.19074">
        <ele>141.2</ele>
        <time>2024-10-13T07:44:22Z</time>
      </trkpt>
      <trkpt lat="49.21975" lon="0.1908">
        <ele>141.2</ele>
        <time>2024-10-13T07:44:23Z</time>
      </trkpt>
      <trkpt lat="49.21981" lon="0.19087">
        <ele>141.2</ele>
        <time>2024-10-13T07:44:24Z</time>
      </trkpt>
      <trkpt lat="49.21987" lon="0.19093">
        <ele>141.2</ele>
        <time>2024-10-13T07:44:25Z</time>
      </trkpt>
      <trkpt lat="49.21993" lon="0.19098">
        <ele>141.2</ele>
        <time>2024-10-13T07:44:26Z</time>
      </trkpt>
      <trkpt lat="49.22001" lon="0.19105">
        <ele>141.2</ele>
        <time>2024-10-13T07:44:27Z</time>
      </trkpt>
      <trkpt lat="49.22007" lon="0.1911">
        <ele>141.2</ele>
        <time>2024-10-13T07:44:28Z</time>
      </trkpt>
      <trkpt lat="49.22013" lon="0.19116">
        <ele>141.2</ele>
        <time>2024-10-13T07:44:29Z</time>
      </trkpt>
      <trkpt lat="49.22021" lon="0.19123">
        <ele>141.2</ele>
        <time>2024-10-13T07:44:30Z</time>
      </trkpt>
      <trkpt lat="49.22026" lon="0.19129">
        <ele>141</ele>
        <time>2024-10-13T07:44:31Z</time>
      </trkpt>
      <trkpt lat="49.22032" lon="0.19135">
        <ele>141</ele>
        <time>2024-10-13T07:44:32Z</time>
      </trkpt>
      <trkpt lat="49.2204" lon="0.19143">
        <ele>141</ele>
        <time>2024-10-13T07:44:33Z</time>
      </trkpt>
      <trkpt lat="49.22045" lon="0.19148">
        <ele>140.8</ele>
        <time>2024-10-13T07:44:34Z</time>
      </trkpt>
      <trkpt lat="49.22051" lon="0.19154">
        <ele>140.6</ele>
        <time>2024-10-13T07:44:35Z</time>
      </trkpt>
      <trkpt lat="49.22058" lon="0.19161">
        <ele>140.4</ele>
        <time>2024-10-13T07:44:36Z</time>
      </trkpt>
      <trkpt lat="49.22064" lon="0.19168">
        <ele>140.2</ele>
        <time>2024-10-13T07:44:37Z</time>
      </trkpt>
      <trkpt lat="49.22071" lon="0.19175">
        <ele>139.8</ele>
        <time>2024-10-13T07:44:38Z</time>
      </trkpt>
      <trkpt lat="49.22078" lon="0.19184">
        <ele>139.4</ele>
        <time>2024-10-13T07:44:39Z</time>
      </trkpt>
      <trkpt lat="49.22082" lon="0.1919">
        <ele>139.2</ele>
        <time>2024-10-13T07:44:40Z</time>
      </trkpt>
      <trkpt lat="49.22089" lon="0.19199">
        <ele>138.8</ele>
        <time>2024-10-13T07:44:41Z</time>
      </trkpt>
      <trkpt lat="49.22094" lon="0.19206">
        <ele>138.4</ele>
        <time>2024-10-13T07:44:42Z</time>
      </trkpt>
      <trkpt lat="49.221" lon="0.19215">
        <ele>138.2</ele>
        <time>2024-10-13T07:44:43Z</time>
      </trkpt>
      <trkpt lat="49.22105" lon="0.19225">
        <ele>138</ele>
        <time>2024-10-13T07:44:44Z</time>
      </trkpt>
      <trkpt lat="49.2211" lon="0.19235">
        <ele>137.4</ele>
        <time>2024-10-13T07:44:45Z</time>
      </trkpt>
      <trkpt lat="49.22114" lon="0.19247">
        <ele>137</ele>
        <time>2024-10-13T07:44:46Z</time>
      </trkpt>
      <trkpt lat="49.22117" lon="0.19259">
        <ele>136.2</ele>
        <time>2024-10-13T07:44:47Z</time>
      </trkpt>
      <trkpt lat="49.22118" lon="0.19273">
        <ele>135.6</ele>
        <time>2024-10-13T07:44:48Z</time>
      </trkpt>
      <trkpt lat="49.22119" lon="0.19288">
        <ele>135.2</ele>
        <time>2024-10-13T07:44:49Z</time>
      </trkpt>
      <trkpt lat="49.2212" lon="0.19305">
        <ele>134.4</ele>
        <time>2024-10-13T07:44:50Z</time>
      </trkpt>
      <trkpt lat="49.22121" lon="0.19318">
        <ele>134</ele>
        <time>2024-10-13T07:44:51Z</time>
      </trkpt>
      <trkpt lat="49.22123" lon="0.19333">
        <ele>133.2</ele>
        <time>2024-10-13T07:44:52Z</time>
      </trkpt>
      <trkpt lat="49.22127" lon="0.19352">
        <ele>132.4</ele>
        <time>2024-10-13T07:44:53Z</time>
      </trkpt>
      <trkpt lat="49.22131" lon="0.19364">
        <ele>131.6</ele>
        <time>2024-10-13T07:44:54Z</time>
      </trkpt>
      <trkpt lat="49.22136" lon="0.19377">
        <ele>130.6</ele>
        <time>2024-10-13T07:44:55Z</time>
      </trkpt>
      <trkpt lat="49.22142" lon="0.19393">
        <ele>129.8</ele>
        <time>2024-10-13T07:44:56Z</time>
      </trkpt>
      <trkpt lat="49.22149" lon="0.19405">
        <ele>129</ele>
        <time>2024-10-13T07:44:57Z</time>
      </trkpt>
      <trkpt lat="49.22155" lon="0.19414">
        <ele>128.4</ele>
        <time>2024-10-13T07:44:58Z</time>
      </trkpt>
      <trkpt lat="49.22164" lon="0.19428">
        <ele>127.4</ele>
        <time>2024-10-13T07:44:59Z</time>
      </trkpt>
      <trkpt lat="49.22173" lon="0.19438">
        <ele>126.4</ele>
        <time>2024-10-13T07:45:00Z</time>
      </trkpt>
      <trkpt lat="49.22182" lon="0.19447">
        <ele>125.6</ele>
        <time>2024-10-13T07:45:01Z</time>
      </trkpt>
      <trkpt lat="49.22191" lon="0.19456">
        <ele>124.6</ele>
        <time>2024-10-13T07:45:02Z</time>
      </trkpt>
      <trkpt lat="49.22199" lon="0.19463">
        <ele>124</ele>
        <time>2024-10-13T07:45:03Z</time>
      </trkpt>
      <trkpt lat="49.22207" lon="0.19469">
        <ele>122.6</ele>
        <time>2024-10-13T07:45:04Z</time>
      </trkpt>
      <trkpt lat="49.22213" lon="0.19476">
        <ele>121.6</ele>
        <time>2024-10-13T07:45:05Z</time>
      </trkpt>
      <trkpt lat="49.22221" lon="0.19485">
        <ele>120.6</ele>
        <time>2024-10-13T07:45:06Z</time>
      </trkpt>
      <trkpt lat="49.22227" lon="0.19497">
        <ele>119.8</ele>
        <time>2024-10-13T07:45:07Z</time>
      </trkpt>
      <trkpt lat="49.22232" lon="0.19509">
        <ele>118.8</ele>
        <time>2024-10-13T07:45:08Z</time>
      </trkpt>
      <trkpt lat="49.22238" lon="0.19525">
        <ele>118.2</ele>
        <time>2024-10-13T07:45:09Z</time>
      </trkpt>
      <trkpt lat="49.22242" lon="0.19536">
        <ele>117.6</ele>
        <time>2024-10-13T07:45:10Z</time>
      </trkpt>
      <trkpt lat="49.22246" lon="0.19553">
        <ele>117</ele>
        <time>2024-10-13T07:45:11Z</time>
      </trkpt>
      <trkpt lat="49.22249" lon="0.19568">
        <ele>116.2</ele>
        <time>2024-10-13T07:45:12Z</time>
      </trkpt>
      <trkpt lat="49.22251" lon="0.1958">
        <ele>115.4</ele>
        <time>2024-10-13T07:45:13Z</time>
      </trkpt>
      <trkpt lat="49.22256" lon="0.19598">
        <ele>114.6</ele>
        <time>2024-10-13T07:45:14Z</time>
      </trkpt>
      <trkpt lat="49.22261" lon="0.19612">
        <ele>114.2</ele>
        <time>2024-10-13T07:45:15Z</time>
      </trkpt>
      <trkpt lat="49.22266" lon="0.19623">
        <ele>113.6</ele>
        <time>2024-10-13T07:45:16Z</time>
      </trkpt>
      <trkpt lat="49.22273" lon="0.19639">
        <ele>112.6</ele>
        <time>2024-10-13T07:45:17Z</time>
      </trkpt>
      <trkpt lat="49.2228" lon="0.19651">
        <ele>111.6</ele>
        <time>2024-10-13T07:45:18Z</time>
      </trkpt>
      <trkpt lat="49.22289" lon="0.19662">
        <ele>110.6</ele>
        <time>2024-10-13T07:45:19Z</time>
      </trkpt>
      <trkpt lat="49.22297" lon="0.19672">
        <ele>110</ele>
        <time>2024-10-13T07:45:20Z</time>
      </trkpt>
      <trkpt lat="49.22306" lon="0.19682">
        <ele>109</ele>
        <time>2024-10-13T07:45:21Z</time>
      </trkpt>
      <trkpt lat="49.22315" lon="0.19691">
        <ele>108.2</ele>
        <time>2024-10-13T07:45:22Z</time>
      </trkpt>
      <trkpt lat="49.22322" lon="0.19698">
        <ele>107.4</ele>
        <time>2024-10-13T07:45:23Z</time>
      </trkpt>
      <trkpt lat="49.22332" lon="0.19709">
        <ele>106.6</ele>
        <time>2024-10-13T07:45:24Z</time>
      </trkpt>
      <trkpt lat="49.2234" lon="0.19719">
        <ele>105.8</ele>
        <time>2024-10-13T07:45:25Z</time>
      </trkpt>
      <trkpt lat="49.22345" lon="0.19727">
        <ele>105</ele>
        <time>2024-10-13T07:45:26Z</time>
      </trkpt>
      <trkpt lat="49.22353" lon="0.19739">
        <ele>104.2</ele>
        <time>2024-10-13T07:45:27Z</time>
      </trkpt>
      <trkpt lat="49.22359" lon="0.1975">
        <ele>103.4</ele>
        <time>2024-10-13T07:45:28Z</time>
      </trkpt>
      <trkpt lat="49.22363" lon="0.1976">
        <ele>102.6</ele>
        <time>2024-10-13T07:45:29Z</time>
      </trkpt>
      <trkpt lat="49.22366" lon="0.19773">
        <ele>101.8</ele>
        <time>2024-10-13T07:45:30Z</time>
      </trkpt>
      <trkpt lat="49.22369" lon="0.19789">
        <ele>101</ele>
        <time>2024-10-13T07:45:31Z</time>
      </trkpt>
      <trkpt lat="49.22369" lon="0.19801">
        <ele>100.4</ele>
        <time>2024-10-13T07:45:32Z</time>
      </trkpt>
      <trkpt lat="49.22368" lon="0.19819">
        <ele>99.8</ele>
        <time>2024-10-13T07:45:33Z</time>
      </trkpt>
      <trkpt lat="49.22365" lon="0.19835">
        <ele>98.8</ele>
        <time>2024-10-13T07:45:34Z</time>
      </trkpt>
      <trkpt lat="49.22363" lon="0.19847">
        <ele>98</ele>
        <time>2024-10-13T07:45:35Z</time>
      </trkpt>
      <trkpt lat="49.2236" lon="0.19866">
        <ele>97.4</ele>
        <time>2024-10-13T07:45:36Z</time>
      </trkpt>
      <trkpt lat="49.22357" lon="0.19877">
        <ele>97</ele>
        <time>2024-10-13T07:45:37Z</time>
      </trkpt>
      <trkpt lat="49.22356" lon="0.19889">
        <ele>96.2</ele>
        <time>2024-10-13T07:45:38Z</time>
      </trkpt>
      <trkpt lat="49.22357" lon="0.19903">
        <ele>95.4</ele>
        <time>2024-10-13T07:45:39Z</time>
      </trkpt>
      <trkpt lat="49.22359" lon="0.19913">
        <ele>94.8</ele>
        <time>2024-10-13T07:45:40Z</time>
      </trkpt>
      <trkpt lat="49.22362" lon="0.19925">
        <ele>93.8</ele>
        <time>2024-10-13T07:45:41Z</time>
      </trkpt>
      <trkpt lat="49.22369" lon="0.1994">
        <ele>93.2</ele>
        <time>2024-10-13T07:45:42Z</time>
      </trkpt>
      <trkpt lat="49.22376" lon="0.1995">
        <ele>92.6</ele>
        <time>2024-10-13T07:45:43Z</time>
      </trkpt>
      <trkpt lat="49.22383" lon="0.19957">
        <ele>91.4</ele>
        <time>2024-10-13T07:45:44Z</time>
      </trkpt>
      <trkpt lat="49.22394" lon="0.19965">
        <ele>90.8</ele>
        <time>2024-10-13T07:45:45Z</time>
      </trkpt>
      <trkpt lat="49.22401" lon="0.19968">
        <ele>90.4</ele>
        <time>2024-10-13T07:45:46Z</time>
      </trkpt>
      <trkpt lat="49.22411" lon="0.1997">
        <ele>90.2</ele>
        <time>2024-10-13T07:45:47Z</time>
      </trkpt>
      <trkpt lat="49.22422" lon="0.19969">
        <ele>89.8</ele>
        <time>2024-10-13T07:45:48Z</time>
      </trkpt>
      <trkpt lat="49.2243" lon="0.19965">
        <ele>89.2</ele>
        <time>2024-10-13T07:45:49Z</time>
      </trkpt>
      <trkpt lat="49.22439" lon="0.1996">
        <ele>88.4</ele>
        <time>2024-10-13T07:45:50Z</time>
      </trkpt>
      <trkpt lat="49.22448" lon="0.19953">
        <ele>87.6</ele>
        <time>2024-10-13T07:45:51Z</time>
      </trkpt>
      <trkpt lat="49.22457" lon="0.19945">
        <ele>86.6</ele>
        <time>2024-10-13T07:45:52Z</time>
      </trkpt>
      <trkpt lat="49.22464" lon="0.19937">
        <ele>85.2</ele>
        <time>2024-10-13T07:45:53Z</time>
      </trkpt>
      <trkpt lat="49.22472" lon="0.1993">
        <ele>84.2</ele>
        <time>2024-10-13T07:45:54Z</time>
      </trkpt>
      <trkpt lat="49.22481" lon="0.19925">
        <ele>82.4</ele>
        <time>2024-10-13T07:45:55Z</time>
      </trkpt>
      <trkpt lat="49.2249" lon="0.19921">
        <ele>81.8</ele>
        <time>2024-10-13T07:45:56Z</time>
      </trkpt>
      <trkpt lat="49.225" lon="0.1992">
        <ele>80.8</ele>
        <time>2024-10-13T07:45:57Z</time>
      </trkpt>
      <trkpt lat="49.2251" lon="0.19921">
        <ele>80</ele>
        <time>2024-10-13T07:45:58Z</time>
      </trkpt>
      <trkpt lat="49.22521" lon="0.19923">
        <ele>79.2</ele>
        <time>2024-10-13T07:45:59Z</time>
      </trkpt>
      <trkpt lat="49.22533" lon="0.19928">
        <ele>78</ele>
        <time>2024-10-13T07:46:00Z</time>
      </trkpt>
      <trkpt lat="49.22542" lon="0.19932">
        <ele>77.2</ele>
        <time>2024-10-13T07:46:01Z</time>
      </trkpt>
      <trkpt lat="49.22553" lon="0.19936">
        <ele>76.4</ele>
        <time>2024-10-13T07:46:02Z</time>
      </trkpt>
      <trkpt lat="49.22564" lon="0.19941">
        <ele>75.8</ele>
        <time>2024-10-13T07:46:03Z</time>
      </trkpt>
      <trkpt lat="49.22573" lon="0.19945">
        <ele>75.2</ele>
        <time>2024-10-13T07:46:04Z</time>
      </trkpt>
      <trkpt lat="49.22581" lon="0.1995">
        <ele>74</ele>
        <time>2024-10-13T07:46:05Z</time>
      </trkpt>
      <trkpt lat="49.22589" lon="0.19955">
        <ele>73</ele>
        <time>2024-10-13T07:46:06Z</time>
      </trkpt>
      <trkpt lat="49.22597" lon="0.19962">
        <ele>72</ele>
        <time>2024-10-13T07:46:07Z</time>
      </trkpt>
      <trkpt lat="49.22605" lon="0.19972">
        <ele>70.8</ele>
        <time>2024-10-13T07:46:08Z</time>
      </trkpt>
      <trkpt lat="49.22609" lon="0.19982">
        <ele>69.6</ele>
        <time>2024-10-13T07:46:09Z</time>
      </trkpt>
      <trkpt lat="49.22612" lon="0.19996">
        <ele>68.4</ele>
        <time>2024-10-13T07:46:10Z</time>
      </trkpt>
      <trkpt lat="49.22613" lon="0.2001">
        <ele>67.4</ele>
        <time>2024-10-13T07:46:11Z</time>
      </trkpt>
      <trkpt lat="49.22612" lon="0.20025">
        <ele>66.6</ele>
        <time>2024-10-13T07:46:12Z</time>
      </trkpt>
      <trkpt lat="49.2261" lon="0.2004">
        <ele>66</ele>
        <time>2024-10-13T07:46:13Z</time>
      </trkpt>
      <trkpt lat="49.22608" lon="0.20054">
        <ele>65.6</ele>
        <time>2024-10-13T07:46:14Z</time>
      </trkpt>
      <trkpt lat="49.22605" lon="0.20067">
        <ele>65</ele>
        <time>2024-10-13T07:46:15Z</time>
      </trkpt>
      <trkpt lat="49.22602" lon="0.20079">
        <ele>64.4</ele>
        <time>2024-10-13T07:46:16Z</time>
      </trkpt>
      <trkpt lat="49.226" lon="0.20092">
        <ele>63.6</ele>
        <time>2024-10-13T07:46:17Z</time>
      </trkpt>
      <trkpt lat="49.22598" lon="0.20104">
        <ele>62.8</ele>
        <time>2024-10-13T07:46:18Z</time>
      </trkpt>
      <trkpt lat="49.22596" lon="0.20117">
        <ele>62</ele>
        <time>2024-10-13T07:46:19Z</time>
      </trkpt>
      <trkpt lat="49.22595" lon="0.20132">
        <ele>61.4</ele>
        <time>2024-10-13T07:46:20Z</time>
      </trkpt>
      <trkpt lat="49.22595" lon="0.20143">
        <ele>60.8</ele>
        <time>2024-10-13T07:46:21Z</time>
      </trkpt>
      <trkpt lat="49.22596" lon="0.20157">
        <ele>60.4</ele>
        <time>2024-10-13T07:46:22Z</time>
      </trkpt>
      <trkpt lat="49.22597" lon="0.20175">
        <ele>60</ele>
        <time>2024-10-13T07:46:23Z</time>
      </trkpt>
      <trkpt lat="49.22599" lon="0.20186">
        <ele>59.8</ele>
        <time>2024-10-13T07:46:24Z</time>
      </trkpt>
      <trkpt lat="49.22601" lon="0.20201">
        <ele>59.6</ele>
        <time>2024-10-13T07:46:25Z</time>
      </trkpt>
      <trkpt lat="49.22602" lon="0.20216">
        <ele>59.4</ele>
        <time>2024-10-13T07:46:26Z</time>
      </trkpt>
      <trkpt lat="49.22602" lon="0.20231">
        <ele>58.8</ele>
        <time>2024-10-13T07:46:27Z</time>
      </trkpt>
      <trkpt lat="49.226" lon="0.20246">
        <ele>58.6</ele>
        <time>2024-10-13T07:46:28Z</time>
      </trkpt>
      <trkpt lat="49.22597" lon="0.20262">
        <ele>58</ele>
        <time>2024-10-13T07:46:29Z</time>
      </trkpt>
      <trkpt lat="49.22593" lon="0.20277">
        <ele>57.6</ele>
        <time>2024-10-13T07:46:30Z</time>
      </trkpt>
      <trkpt lat="49.2259" lon="0.20293">
        <ele>56.8</ele>
        <time>2024-10-13T07:46:31Z</time>
      </trkpt>
      <trkpt lat="49.2259" lon="0.20305">
        <ele>56.4</ele>
        <time>2024-10-13T07:46:32Z</time>
      </trkpt>
      <trkpt lat="49.22589" lon="0.20316">
        <ele>55.6</ele>
        <time>2024-10-13T07:46:33Z</time>
      </trkpt>
      <trkpt lat="49.22588" lon="0.2034">
        <ele>54.6</ele>
        <time>2024-10-13T07:46:34Z</time>
      </trkpt>
      <trkpt lat="49.22589" lon="0.2036">
        <ele>53.8</ele>
        <time>2024-10-13T07:46:35Z</time>
      </trkpt>
      <trkpt lat="49.2259" lon="0.20377">
        <ele>52.6</ele>
        <time>2024-10-13T07:46:36Z</time>
      </trkpt>
      <trkpt lat="49.22592" lon="0.20397">
        <ele>52</ele>
        <time>2024-10-13T07:46:37Z</time>
      </trkpt>
      <trkpt lat="49.22594" lon="0.2041">
        <ele>51.2</ele>
        <time>2024-10-13T07:46:38Z</time>
      </trkpt>
      <trkpt lat="49.22597" lon="0.20427">
        <ele>50.4</ele>
        <time>2024-10-13T07:46:39Z</time>
      </trkpt>
      <trkpt lat="49.226" lon="0.20443">
        <ele>49.8</ele>
        <time>2024-10-13T07:46:40Z</time>
      </trkpt>
      <trkpt lat="49.22604" lon="0.2046">
        <ele>49</ele>
        <time>2024-10-13T07:46:41Z</time>
      </trkpt>
      <trkpt lat="49.22607" lon="0.20476">
        <ele>48</ele>
        <time>2024-10-13T07:46:42Z</time>
      </trkpt>
      <trkpt lat="49.22612" lon="0.20495">
        <ele>47.4</ele>
        <time>2024-10-13T07:46:43Z</time>
      </trkpt>
      <trkpt lat="49.22615" lon="0.20508">
        <ele>46.6</ele>
        <time>2024-10-13T07:46:44Z</time>
      </trkpt>
      <trkpt lat="49.22618" lon="0.20523">
        <ele>45.8</ele>
        <time>2024-10-13T07:46:45Z</time>
      </trkpt>
      <trkpt lat="49.22621" lon="0.20538">
        <ele>45.2</ele>
        <time>2024-10-13T07:46:46Z</time>
      </trkpt>
      <trkpt lat="49.22625" lon="0.20553">
        <ele>43.8</ele>
        <time>2024-10-13T07:46:47Z</time>
      </trkpt>
      <trkpt lat="49.22629" lon="0.2057">
        <ele>43.2</ele>
        <time>2024-10-13T07:46:48Z</time>
      </trkpt>
      <trkpt lat="49.22634" lon="0.20584">
        <ele>42.4</ele>
        <time>2024-10-13T07:46:49Z</time>
      </trkpt>
      <trkpt lat="49.22638" lon="0.20595">
        <ele>42</ele>
        <time>2024-10-13T07:46:50Z</time>
      </trkpt>
      <trkpt lat="49.22643" lon="0.20609">
        <ele>41.2</ele>
        <time>2024-10-13T07:46:51Z</time>
      </trkpt>
      <trkpt lat="49.22649" lon="0.20626">
        <ele>40.8</ele>
        <time>2024-10-13T07:46:52Z</time>
      </trkpt>
      <trkpt lat="49.22653" lon="0.20637">
        <ele>40.2</ele>
        <time>2024-10-13T07:46:53Z</time>
      </trkpt>
      <trkpt lat="49.22659" lon="0.20654">
        <ele>39.8</ele>
        <time>2024-10-13T07:46:54Z</time>
      </trkpt>
      <trkpt lat="49.22662" lon="0.20665">
        <ele>39.4</ele>
        <time>2024-10-13T07:46:55Z</time>
      </trkpt>
      <trkpt lat="49.22667" lon="0.20679">
        <ele>39</ele>
        <time>2024-10-13T07:46:56Z</time>
      </trkpt>
      <trkpt lat="49.22673" lon="0.20696">
        <ele>38.6</ele>
        <time>2024-10-13T07:46:57Z</time>
      </trkpt>
      <trkpt lat="49.22677" lon="0.2071">
        <ele>38.2</ele>
        <time>2024-10-13T07:46:58Z</time>
      </trkpt>
      <trkpt lat="49.22682" lon="0.20721">
        <ele>37.6</ele>
        <time>2024-10-13T07:46:59Z</time>
      </trkpt>
      <trkpt lat="49.22688" lon="0.20734">
        <ele>37</ele>
        <time>2024-10-13T07:47:00Z</time>
      </trkpt>
      <trkpt lat="49.22695" lon="0.20749">
        <ele>36.4</ele>
        <time>2024-10-13T07:47:01Z</time>
      </trkpt>
      <trkpt lat="49.227" lon="0.20759">
        <ele>35.8</ele>
        <time>2024-10-13T07:47:02Z</time>
      </trkpt>
      <trkpt lat="49.22707" lon="0.2077">
        <ele>35</ele>
        <time>2024-10-13T07:47:03Z</time>
      </trkpt>
      <trkpt lat="49.22715" lon="0.20784">
        <ele>34.6</ele>
        <time>2024-10-13T07:47:04Z</time>
      </trkpt>
      <trkpt lat="49.2272" lon="0.20793">
        <ele>33.8</ele>
        <time>2024-10-13T07:47:05Z</time>
      </trkpt>
      <trkpt lat="49.22727" lon="0.20805">
        <ele>33.2</ele>
        <time>2024-10-13T07:47:06Z</time>
      </trkpt>
      <trkpt lat="49.22734" lon="0.20816">
        <ele>32.8</ele>
        <time>2024-10-13T07:47:07Z</time>
      </trkpt>
      <trkpt lat="49.22741" lon="0.20827">
        <ele>32.2</ele>
        <time>2024-10-13T07:47:08Z</time>
      </trkpt>
      <trkpt lat="49.22749" lon="0.20842">
        <ele>31.8</ele>
        <time>2024-10-13T07:47:09Z</time>
      </trkpt>
      <trkpt lat="49.22754" lon="0.20852">
        <ele>31.4</ele>
        <time>2024-10-13T07:47:10Z</time>
      </trkpt>
      <trkpt lat="49.2276" lon="0.20865">
        <ele>31</ele>
        <time>2024-10-13T07:47:11Z</time>
      </trkpt>
      <trkpt lat="49.22766" lon="0.2088">
        <ele>30.6</ele>
        <time>2024-10-13T07:47:12Z</time>
      </trkpt>
      <trkpt lat="49.22771" lon="0.20895">
        <ele>30.2</ele>
        <time>2024-10-13T07:47:13Z</time>
      </trkpt>
      <trkpt lat="49.22775" lon="0.20911">
        <ele>29.6</ele>
        <time>2024-10-13T07:47:14Z</time>
      </trkpt>
      <trkpt lat="49.22778" lon="0.20931">
        <ele>29.4</ele>
        <time>2024-10-13T07:47:15Z</time>
      </trkpt>
      <trkpt lat="49.22779" lon="0.20944">
        <ele>29</ele>
        <time>2024-10-13T07:47:16Z</time>
      </trkpt>
      <trkpt lat="49.2278" lon="0.20961">
        <ele>28.8</ele>
        <time>2024-10-13T07:47:17Z</time>
      </trkpt>
      <trkpt lat="49.22781" lon="0.20977">
        <ele>28.4</ele>
        <time>2024-10-13T07:47:18Z</time>
      </trkpt>
      <trkpt lat="49.22781" lon="0.20997">
        <ele>27.8</ele>
        <time>2024-10-13T07:47:19Z</time>
      </trkpt>
      <trkpt lat="49.22781" lon="0.2101">
        <ele>27.4</ele>
        <time>2024-10-13T07:47:20Z</time>
      </trkpt>
      <trkpt lat="49.22782" lon="0.21029">
        <ele>26.8</ele>
        <time>2024-10-13T07:47:21Z</time>
      </trkpt>
      <trkpt lat="49.22784" lon="0.2104">
        <ele>26.4</ele>
        <time>2024-10-13T07:47:22Z</time>
      </trkpt>
      <trkpt lat="49.22785" lon="0.21055">
        <ele>26.2</ele>
        <time>2024-10-13T07:47:23Z</time>
      </trkpt>
      <trkpt lat="49.22787" lon="0.21073">
        <ele>26.2</ele>
        <time>2024-10-13T07:47:24Z</time>
      </trkpt>
      <trkpt lat="49.22789" lon="0.21088">
        <ele>26</ele>
        <time>2024-10-13T07:47:25Z</time>
      </trkpt>
      <trkpt lat="49.22791" lon="0.211">
        <ele>26</ele>
        <time>2024-10-13T07:47:26Z</time>
      </trkpt>
      <trkpt lat="49.22794" lon="0.21117">
        <ele>25.8</ele>
        <time>2024-10-13T07:47:27Z</time>
      </trkpt>
      <trkpt lat="49.22796" lon="0.21128">
        <ele>25.8</ele>
        <time>2024-10-13T07:47:28Z</time>
      </trkpt>
      <trkpt lat="49.22798" lon="0.21144">
        <ele>25.6</ele>
        <time>2024-10-13T07:47:29Z</time>
      </trkpt>
      <trkpt lat="49.22799" lon="0.21156">
        <ele>25.6</ele>
        <time>2024-10-13T07:47:30Z</time>
      </trkpt>
      <trkpt lat="49.228" lon="0.21164">
        <ele>25.6</ele>
        <time>2024-10-13T07:47:31Z</time>
      </trkpt>
      <trkpt lat="49.228" lon="0.21172">
        <ele>25.4</ele>
        <time>2024-10-13T07:47:32Z</time>
      </trkpt>
      <trkpt lat="49.22801" lon="0.21179">
        <ele>25.2</ele>
        <time>2024-10-13T07:47:33Z</time>
      </trkpt>
      <trkpt lat="49.22802" lon="0.21185">
        <ele>24.8</ele>
        <time>2024-10-13T07:47:34Z</time>
      </trkpt>
      <trkpt lat="49.22803" lon="0.21189">
        <ele>24.4</ele>
        <time>2024-10-13T07:47:35Z</time>
      </trkpt>
      <trkpt lat="49.22803" lon="0.21193">
        <ele>23.8</ele>
        <time>2024-10-13T07:47:36Z</time>
      </trkpt>
      <trkpt lat="49.22803" lon="0.21195">
        <ele>23.2</ele>
        <time>2024-10-13T07:47:37Z</time>
      </trkpt>
      <trkpt lat="49.22803" lon="0.21195">
        <ele>22.6</ele>
        <time>2024-10-13T07:47:38Z</time>
      </trkpt>
      <trkpt lat="49.22803" lon="0.21195">
        <ele>22.4</ele>
        <time>2024-10-13T07:47:39Z</time>
      </trkpt>
      <trkpt lat="49.22805" lon="0.21205">
        <ele>22.2</ele>
        <time>2024-10-13T07:48:13Z</time>
      </trkpt>
      <trkpt lat="49.22805" lon="0.21208">
        <ele>22.2</ele>
        <time>2024-10-13T07:48:14Z</time>
      </trkpt>
      <trkpt lat="49.22806" lon="0.21213">
        <ele>22.2</ele>
        <time>2024-10-13T07:48:15Z</time>
      </trkpt>
      <trkpt lat="49.22806" lon="0.21218">
        <ele>22.2</ele>
        <time>2024-10-13T07:48:16Z</time>
      </trkpt>
      <trkpt lat="49.22806" lon="0.21224">
        <ele>22.2</ele>
        <time>2024-10-13T07:48:17Z</time>
      </trkpt>
      <trkpt lat="49.22807" lon="0.21232">
        <ele>22</ele>
        <time>2024-10-13T07:48:18Z</time>
      </trkpt>
      <trkpt lat="49.22807" lon="0.21238">
        <ele>22</ele>
        <time>2024-10-13T07:48:19Z</time>
      </trkpt>
      <trkpt lat="49.22808" lon="0.21246">
        <ele>22</ele>
        <time>2024-10-13T07:48:20Z</time>
      </trkpt>
      <trkpt lat="49.22808" lon="0.21255">
        <ele>22</ele>
        <time>2024-10-13T07:48:21Z</time>
      </trkpt>
      <trkpt lat="49.22809" lon="0.21264">
        <ele>22</ele>
        <time>2024-10-13T07:48:22Z</time>
      </trkpt>
      <trkpt lat="49.2281" lon="0.21272">
        <ele>21.8</ele>
        <time>2024-10-13T07:48:23Z</time>
      </trkpt>
      <trkpt lat="49.22811" lon="0.2128">
        <ele>21.6</ele>
        <time>2024-10-13T07:48:24Z</time>
      </trkpt>
      <trkpt lat="49.22812" lon="0.21289">
        <ele>21.4</ele>
        <time>2024-10-13T07:48:25Z</time>
      </trkpt>
      <trkpt lat="49.22814" lon="0.21297">
        <ele>21.2</ele>
        <time>2024-10-13T07:48:26Z</time>
      </trkpt>
      <trkpt lat="49.22815" lon="0.21305">
        <ele>21</ele>
        <time>2024-10-13T07:48:27Z</time>
      </trkpt>
      <trkpt lat="49.22815" lon="0.21315">
        <ele>20.8</ele>
        <time>2024-10-13T07:48:28Z</time>
      </trkpt>
      <trkpt lat="49.22816" lon="0.21322">
        <ele>20.6</ele>
        <time>2024-10-13T07:48:29Z</time>
      </trkpt>
      <trkpt lat="49.22816" lon="0.21331">
        <ele>20.4</ele>
        <time>2024-10-13T07:48:30Z</time>
      </trkpt>
      <trkpt lat="49.22817" lon="0.21343">
        <ele>20.2</ele>
        <time>2024-10-13T07:48:31Z</time>
      </trkpt>
      <trkpt lat="49.22818" lon="0.21351">
        <ele>20</ele>
        <time>2024-10-13T07:48:32Z</time>
      </trkpt>
      <trkpt lat="49.22819" lon="0.21363">
        <ele>19.8</ele>
        <time>2024-10-13T07:48:33Z</time>
      </trkpt>
      <trkpt lat="49.2282" lon="0.21374">
        <ele>19.8</ele>
        <time>2024-10-13T07:48:34Z</time>
      </trkpt>
      <trkpt lat="49.22821" lon="0.21383">
        <ele>19.8</ele>
        <time>2024-10-13T07:48:35Z</time>
      </trkpt>
      <trkpt lat="49.22823" lon="0.21396">
        <ele>19.6</ele>
        <time>2024-10-13T07:48:36Z</time>
      </trkpt>
      <trkpt lat="49.22825" lon="0.21405">
        <ele>19.6</ele>
        <time>2024-10-13T07:48:37Z</time>
      </trkpt>
      <trkpt lat="49.22828" lon="0.21415">
        <ele>19.4</ele>
        <time>2024-10-13T07:48:38Z</time>
      </trkpt>
      <trkpt lat="49.22833" lon="0.21428">
        <ele>19.4</ele>
        <time>2024-10-13T07:48:39Z</time>
      </trkpt>
      <trkpt lat="49.22838" lon="0.21439">
        <ele>19.4</ele>
        <time>2024-10-13T07:48:40Z</time>
      </trkpt>
      <trkpt lat="49.22842" lon="0.21446">
        <ele>19.2</ele>
        <time>2024-10-13T07:48:41Z</time>
      </trkpt>
      <trkpt lat="49.22847" lon="0.21456">
        <ele>18.8</ele>
        <time>2024-10-13T07:48:42Z</time>
      </trkpt>
      <trkpt lat="49.22853" lon="0.21465">
        <ele>18.4</ele>
        <time>2024-10-13T07:48:43Z</time>
      </trkpt>
      <trkpt lat="49.22858" lon="0.21474">
        <ele>18</ele>
        <time>2024-10-13T07:48:44Z</time>
      </trkpt>
      <trkpt lat="49.22865" lon="0.21485">
        <ele>17.8</ele>
        <time>2024-10-13T07:48:45Z</time>
      </trkpt>
      <trkpt lat="49.2287" lon="0.21492">
        <ele>17.4</ele>
        <time>2024-10-13T07:48:46Z</time>
      </trkpt>
      <trkpt lat="49.22875" lon="0.21501">
        <ele>17.2</ele>
        <time>2024-10-13T07:48:47Z</time>
      </trkpt>
      <trkpt lat="49.22882" lon="0.21511">
        <ele>17</ele>
        <time>2024-10-13T07:48:48Z</time>
      </trkpt>
      <trkpt lat="49.22886" lon="0.21517">
        <ele>16.8</ele>
        <time>2024-10-13T07:48:49Z</time>
      </trkpt>
      <trkpt lat="49.22892" lon="0.21525">
        <ele>16.8</ele>
        <time>2024-10-13T07:48:50Z</time>
      </trkpt>
      <trkpt lat="49.22897" lon="0.21534">
        <ele>16.8</ele>
        <time>2024-10-13T07:48:51Z</time>
      </trkpt>
      <trkpt lat="49.22903" lon="0.21543">
        <ele>16.8</ele>
        <time>2024-10-13T07:48:52Z</time>
      </trkpt>
      <trkpt lat="49.22908" lon="0.21551">
        <ele>16.8</ele>
        <time>2024-10-13T07:48:53Z</time>
      </trkpt>
      <trkpt lat="49.22915" lon="0.21561">
        <ele>16.8</ele>
        <time>2024-10-13T07:48:54Z</time>
      </trkpt>
      <trkpt lat="49.2292" lon="0.21568">
        <ele>16.8</ele>
        <time>2024-10-13T07:48:55Z</time>
      </trkpt>
      <trkpt lat="49.22925" lon="0.21576">
        <ele>16.6</ele>
        <time>2024-10-13T07:48:56Z</time>
      </trkpt>
      <trkpt lat="49.22931" lon="0.21587">
        <ele>16.6</ele>
        <time>2024-10-13T07:48:57Z</time>
      </trkpt>
      <trkpt lat="49.22936" lon="0.21596">
        <ele>16.6</ele>
        <time>2024-10-13T07:48:58Z</time>
      </trkpt>
      <trkpt lat="49.22939" lon="0.21604">
        <ele>16.4</ele>
        <time>2024-10-13T07:48:59Z</time>
      </trkpt>
      <trkpt lat="49.22944" lon="0.21616">
        <ele>16.4</ele>
        <time>2024-10-13T07:49:00Z</time>
      </trkpt>
      <trkpt lat="49.22949" lon="0.21626">
        <ele>16.6</ele>
        <time>2024-10-13T07:49:01Z</time>
      </trkpt>
      <trkpt lat="49.22952" lon="0.21635">
        <ele>16.6</ele>
        <time>2024-10-13T07:49:02Z</time>
      </trkpt>
      <trkpt lat="49.22956" lon="0.21645">
        <ele>16.6</ele>
        <time>2024-10-13T07:49:03Z</time>
      </trkpt>
      <trkpt lat="49.2296" lon="0.21655">
        <ele>16.6</ele>
        <time>2024-10-13T07:49:04Z</time>
      </trkpt>
      <trkpt lat="49.22964" lon="0.21668">
        <ele>16.6</ele>
        <time>2024-10-13T07:49:05Z</time>
      </trkpt>
      <trkpt lat="49.22967" lon="0.21676">
        <ele>16.8</ele>
        <time>2024-10-13T07:49:06Z</time>
      </trkpt>
      <trkpt lat="49.22971" lon="0.21688">
        <ele>16.8</ele>
        <time>2024-10-13T07:49:07Z</time>
      </trkpt>
      <trkpt lat="49.22973" lon="0.21696">
        <ele>16.8</ele>
        <time>2024-10-13T07:49:08Z</time>
      </trkpt>
      <trkpt lat="49.22976" lon="0.21708">
        <ele>16.8</ele>
        <time>2024-10-13T07:49:09Z</time>
      </trkpt>
      <trkpt lat="49.22979" lon="0.21718">
        <ele>16.8</ele>
        <time>2024-10-13T07:49:10Z</time>
      </trkpt>
      <trkpt lat="49.2298" lon="0.21726">
        <ele>16.8</ele>
        <time>2024-10-13T07:49:11Z</time>
      </trkpt>
      <trkpt lat="49.22981" lon="0.21738">
        <ele>16.8</ele>
        <time>2024-10-13T07:49:12Z</time>
      </trkpt>
      <trkpt lat="49.22982" lon="0.21748">
        <ele>16.8</ele>
        <time>2024-10-13T07:49:13Z</time>
      </trkpt>
      <trkpt lat="49.22983" lon="0.21756">
        <ele>16.8</ele>
        <time>2024-10-13T07:49:14Z</time>
      </trkpt>
      <trkpt lat="49.22983" lon="0.21768">
        <ele>16.8</ele>
        <time>2024-10-13T07:49:15Z</time>
      </trkpt>
      <trkpt lat="49.22983" lon="0.21777">
        <ele>16.8</ele>
        <time>2024-10-13T07:49:16Z</time>
      </trkpt>
      <trkpt lat="49.22982" lon="0.21785">
        <ele>17</ele>
        <time>2024-10-13T07:49:17Z</time>
      </trkpt>
      <trkpt lat="49.2298" lon="0.21795">
        <ele>17</ele>
        <time>2024-10-13T07:49:18Z</time>
      </trkpt>
      <trkpt lat="49.22978" lon="0.21802">
        <ele>17</ele>
        <time>2024-10-13T07:49:19Z</time>
      </trkpt>
      <trkpt lat="49.22975" lon="0.2181">
        <ele>17</ele>
        <time>2024-10-13T07:49:20Z</time>
      </trkpt>
      <trkpt lat="49.22972" lon="0.21819">
        <ele>17</ele>
        <time>2024-10-13T07:49:21Z</time>
      </trkpt>
      <trkpt lat="49.2297" lon="0.21826">
        <ele>17</ele>
        <time>2024-10-13T07:49:22Z</time>
      </trkpt>
      <trkpt lat="49.22969" lon="0.21836">
        <ele>17.2</ele>
        <time>2024-10-13T07:49:23Z</time>
      </trkpt>
      <trkpt lat="49.2297" lon="0.21848">
        <ele>17.2</ele>
        <time>2024-10-13T07:49:24Z</time>
      </trkpt>
      <trkpt lat="49.22972" lon="0.21855">
        <ele>17.2</ele>
        <time>2024-10-13T07:49:25Z</time>
      </trkpt>
      <trkpt lat="49.22975" lon="0.21863">
        <ele>17.4</ele>
        <time>2024-10-13T07:49:26Z</time>
      </trkpt>
      <trkpt lat="49.22979" lon="0.21872">
        <ele>17.4</ele>
        <time>2024-10-13T07:49:27Z</time>
      </trkpt>
      <trkpt lat="49.22983" lon="0.21881">
        <ele>17.4</ele>
        <time>2024-10-13T07:49:28Z</time>
      </trkpt>
      <trkpt lat="49.22987" lon="0.2189">
        <ele>17.4</ele>
        <time>2024-10-13T07:49:29Z</time>
      </trkpt>
      <trkpt lat="49.2299" lon="0.219">
        <ele>17.4</ele>
        <time>2024-10-13T07:49:30Z</time>
      </trkpt>
      <trkpt lat="49.22992" lon="0.2191">
        <ele>17.4</ele>
        <time>2024-10-13T07:49:31Z</time>
      </trkpt>
      <trkpt lat="49.22994" lon="0.2192">
        <ele>17.4</ele>
        <time>2024-10-13T07:49:32Z</time>
      </trkpt>
      <trkpt lat="49.22997" lon="0.21929">
        <ele>17.6</ele>
        <time>2024-10-13T07:49:33Z</time>
      </trkpt>
      <trkpt lat="49.23" lon="0.2194">
        <ele>17.4</ele>
        <time>2024-10-13T07:49:34Z</time>
      </trkpt>
      <trkpt lat="49.23003" lon="0.21947">
        <ele>17.4</ele>
        <time>2024-10-13T07:49:35Z</time>
      </trkpt>
      <trkpt lat="49.23007" lon="0.21957">
        <ele>17.4</ele>
        <time>2024-10-13T07:49:36Z</time>
      </trkpt>
      <trkpt lat="49.23011" lon="0.21964">
        <ele>17.6</ele>
        <time>2024-10-13T07:49:37Z</time>
      </trkpt>
      <trkpt lat="49.23015" lon="0.21971">
        <ele>17.6</ele>
        <time>2024-10-13T07:49:38Z</time>
      </trkpt>
      <trkpt lat="49.23019" lon="0.21978">
        <ele>17.6</ele>
        <time>2024-10-13T07:49:39Z</time>
      </trkpt>
      <trkpt lat="49.23025" lon="0.21986">
        <ele>17.6</ele>
        <time>2024-10-13T07:49:40Z</time>
      </trkpt>
      <trkpt lat="49.23029" lon="0.21991">
        <ele>17.4</ele>
        <time>2024-10-13T07:49:41Z</time>
      </trkpt>
      <trkpt lat="49.23034" lon="0.21996">
        <ele>17.4</ele>
        <time>2024-10-13T07:49:42Z</time>
      </trkpt>
      <trkpt lat="49.2304" lon="0.22001">
        <ele>17.4</ele>
        <time>2024-10-13T07:49:43Z</time>
      </trkpt>
      <trkpt lat="49.23045" lon="0.22005">
        <ele>17.4</ele>
        <time>2024-10-13T07:49:44Z</time>
      </trkpt>
      <trkpt lat="49.2305" lon="0.22009">
        <ele>17.4</ele>
        <time>2024-10-13T07:49:45Z</time>
      </trkpt>
      <trkpt lat="49.23056" lon="0.22013">
        <ele>17.4</ele>
        <time>2024-10-13T07:49:46Z</time>
      </trkpt>
      <trkpt lat="49.23061" lon="0.22017">
        <ele>17.4</ele>
        <time>2024-10-13T07:49:47Z</time>
      </trkpt>
      <trkpt lat="49.23066" lon="0.22021">
        <ele>17.4</ele>
        <time>2024-10-13T07:49:48Z</time>
      </trkpt>
      <trkpt lat="49.23071" lon="0.22025">
        <ele>17.4</ele>
        <time>2024-10-13T07:49:49Z</time>
      </trkpt>
      <trkpt lat="49.23077" lon="0.2203">
        <ele>17.4</ele>
        <time>2024-10-13T07:49:50Z</time>
      </trkpt>
      <trkpt lat="49.23081" lon="0.22034">
        <ele>17.6</ele>
        <time>2024-10-13T07:49:51Z</time>
      </trkpt>
      <trkpt lat="49.23086" lon="0.22039">
        <ele>17.6</ele>
        <time>2024-10-13T07:49:52Z</time>
      </trkpt>
      <trkpt lat="49.23089" lon="0.22043">
        <ele>17.6</ele>
        <time>2024-10-13T07:49:53Z</time>
      </trkpt>
      <trkpt lat="49.23093" lon="0.22048">
        <ele>17.8</ele>
        <time>2024-10-13T07:49:54Z</time>
      </trkpt>
      <trkpt lat="49.23097" lon="0.22053">
        <ele>17.8</ele>
        <time>2024-10-13T07:49:55Z</time>
      </trkpt>
      <trkpt lat="49.231" lon="0.22058">
        <ele>17.8</ele>
        <time>2024-10-13T07:49:56Z</time>
      </trkpt>
      <trkpt lat="49.23103" lon="0.22063">
        <ele>18</ele>
        <time>2024-10-13T07:49:57Z</time>
      </trkpt>
      <trkpt lat="49.23106" lon="0.22069">
        <ele>18.2</ele>
        <time>2024-10-13T07:49:58Z</time>
      </trkpt>
      <trkpt lat="49.23109" lon="0.22075">
        <ele>18.6</ele>
        <time>2024-10-13T07:49:59Z</time>
      </trkpt>
      <trkpt lat="49.23111" lon="0.2208">
        <ele>18.8</ele>
        <time>2024-10-13T07:50:00Z</time>
      </trkpt>
      <trkpt lat="49.23113" lon="0.22086">
        <ele>19.2</ele>
        <time>2024-10-13T07:50:01Z</time>
      </trkpt>
      <trkpt lat="49.23115" lon="0.22092">
        <ele>19.4</ele>
        <time>2024-10-13T07:50:02Z</time>
      </trkpt>
      <trkpt lat="49.23116" lon="0.22099">
        <ele>19.8</ele>
        <time>2024-10-13T07:50:03Z</time>
      </trkpt>
      <trkpt lat="49.23116" lon="0.22105">
        <ele>20</ele>
        <time>2024-10-13T07:50:04Z</time>
      </trkpt>
      <trkpt lat="49.23117" lon="0.22113">
        <ele>20.4</ele>
        <time>2024-10-13T07:50:05Z</time>
      </trkpt>
      <trkpt lat="49.23118" lon="0.22119">
        <ele>20.8</ele>
        <time>2024-10-13T07:50:06Z</time>
      </trkpt>
      <trkpt lat="49.23119" lon="0.22125">
        <ele>21</ele>
        <time>2024-10-13T07:50:07Z</time>
      </trkpt>
      <trkpt lat="49.2312" lon="0.22132">
        <ele>21.4</ele>
        <time>2024-10-13T07:50:08Z</time>
      </trkpt>
      <trkpt lat="49.23121" lon="0.22138">
        <ele>21.6</ele>
        <time>2024-10-13T07:50:09Z</time>
      </trkpt>
      <trkpt lat="49.23122" lon="0.22145">
        <ele>22.2</ele>
        <time>2024-10-13T07:50:10Z</time>
      </trkpt>
      <trkpt lat="49.23123" lon="0.22151">
        <ele>22.6</ele>
        <time>2024-10-13T07:50:11Z</time>
      </trkpt>
      <trkpt lat="49.23124" lon="0.22158">
        <ele>23</ele>
        <time>2024-10-13T07:50:12Z</time>
      </trkpt>
      <trkpt lat="49.23124" lon="0.22165">
        <ele>23.4</ele>
        <time>2024-10-13T07:50:13Z</time>
      </trkpt>
      <trkpt lat="49.23125" lon="0.22172">
        <ele>23.8</ele>
        <time>2024-10-13T07:50:14Z</time>
      </trkpt>
      <trkpt lat="49.23126" lon="0.22178">
        <ele>24.2</ele>
        <time>2024-10-13T07:50:15Z</time>
      </trkpt>
      <trkpt lat="49.23127" lon="0.22185">
        <ele>24.6</ele>
        <time>2024-10-13T07:50:16Z</time>
      </trkpt>
      <trkpt lat="49.23128" lon="0.22193">
        <ele>24.8</ele>
        <time>2024-10-13T07:50:17Z</time>
      </trkpt>
      <trkpt lat="49.23129" lon="0.222">
        <ele>25.4</ele>
        <time>2024-10-13T07:50:18Z</time>
      </trkpt>
      <trkpt lat="49.2313" lon="0.22208">
        <ele>25.6</ele>
        <time>2024-10-13T07:50:19Z</time>
      </trkpt>
      <trkpt lat="49.23131" lon="0.22217">
        <ele>26</ele>
        <time>2024-10-13T07:50:20Z</time>
      </trkpt>
      <trkpt lat="49.23132" lon="0.22223">
        <ele>26.4</ele>
        <time>2024-10-13T07:50:21Z</time>
      </trkpt>
      <trkpt lat="49.23133" lon="0.22231">
        <ele>26.6</ele>
        <time>2024-10-13T07:50:22Z</time>
      </trkpt>
      <trkpt lat="49.23133" lon="0.22239">
        <ele>26.8</ele>
        <time>2024-10-13T07:50:23Z</time>
      </trkpt>
      <trkpt lat="49.23134" lon="0.22248">
        <ele>27</ele>
        <time>2024-10-13T07:50:24Z</time>
      </trkpt>
      <trkpt lat="49.23134" lon="0.22256">
        <ele>27.2</ele>
        <time>2024-10-13T07:50:25Z</time>
      </trkpt>
      <trkpt lat="49.23135" lon="0.22266">
        <ele>27.6</ele>
        <time>2024-10-13T07:50:26Z</time>
      </trkpt>
      <trkpt lat="49.23135" lon="0.22273">
        <ele>27.8</ele>
        <time>2024-10-13T07:50:27Z</time>
      </trkpt>
      <trkpt lat="49.23134" lon="0.22282">
        <ele>27.8</ele>
        <time>2024-10-13T07:50:28Z</time>
      </trkpt>
      <trkpt lat="49.23131" lon="0.2229">
        <ele>28.2</ele>
        <time>2024-10-13T07:50:29Z</time>
      </trkpt>
      <trkpt lat="49.23128" lon="0.22298">
        <ele>28.2</ele>
        <time>2024-10-13T07:50:30Z</time>
      </trkpt>
      <trkpt lat="49.23122" lon="0.22304">
        <ele>28.4</ele>
        <time>2024-10-13T07:50:31Z</time>
      </trkpt>
      <trkpt lat="49.23116" lon="0.22308">
        <ele>28.4</ele>
        <time>2024-10-13T07:50:32Z</time>
      </trkpt>
      <trkpt lat="49.23109" lon="0.22312">
        <ele>28.4</ele>
        <time>2024-10-13T07:50:33Z</time>
      </trkpt>
      <trkpt lat="49.23101" lon="0.22313">
        <ele>28.4</ele>
        <time>2024-10-13T07:50:34Z</time>
      </trkpt>
      <trkpt lat="49.23091" lon="0.22314">
        <ele>28.4</ele>
        <time>2024-10-13T07:50:35Z</time>
      </trkpt>
      <trkpt lat="49.23085" lon="0.22313">
        <ele>28.4</ele>
        <time>2024-10-13T07:50:36Z</time>
      </trkpt>
      <trkpt lat="49.23076" lon="0.22313">
        <ele>28.4</ele>
        <time>2024-10-13T07:50:37Z</time>
      </trkpt>
      <trkpt lat="49.23065" lon="0.22314">
        <ele>28.4</ele>
        <time>2024-10-13T07:50:38Z</time>
      </trkpt>
      <trkpt lat="49.23058" lon="0.22315">
        <ele>28.4</ele>
        <time>2024-10-13T07:50:39Z</time>
      </trkpt>
      <trkpt lat="49.23049" lon="0.22316">
        <ele>28.4</ele>
        <time>2024-10-13T07:50:40Z</time>
      </trkpt>
      <trkpt lat="49.23038" lon="0.22317">
        <ele>28.4</ele>
        <time>2024-10-13T07:50:41Z</time>
      </trkpt>
      <trkpt lat="49.23031" lon="0.2232">
        <ele>28</ele>
        <time>2024-10-13T07:50:42Z</time>
      </trkpt>
      <trkpt lat="49.23024" lon="0.22324">
        <ele>27.6</ele>
        <time>2024-10-13T07:50:43Z</time>
      </trkpt>
      <trkpt lat="49.23015" lon="0.2233">
        <ele>26.8</ele>
        <time>2024-10-13T07:50:44Z</time>
      </trkpt>
      <trkpt lat="49.23012" lon="0.22337">
        <ele>26.2</ele>
        <time>2024-10-13T07:50:45Z</time>
      </trkpt>
      <trkpt lat="49.23009" lon="0.22346">
        <ele>25.4</ele>
        <time>2024-10-13T07:50:46Z</time>
      </trkpt>
      <trkpt lat="49.23008" lon="0.22356">
        <ele>24.8</ele>
        <time>2024-10-13T07:50:47Z</time>
      </trkpt>
      <trkpt lat="49.23007" lon="0.22366">
        <ele>24.4</ele>
        <time>2024-10-13T07:50:48Z</time>
      </trkpt>
      <trkpt lat="49.23007" lon="0.22375">
        <ele>24.2</ele>
        <time>2024-10-13T07:50:49Z</time>
      </trkpt>
      <trkpt lat="49.23008" lon="0.22383">
        <ele>24</ele>
        <time>2024-10-13T07:50:50Z</time>
      </trkpt>
      <trkpt lat="49.23008" lon="0.22391">
        <ele>24</ele>
        <time>2024-10-13T07:50:51Z</time>
      </trkpt>
      <trkpt lat="49.23009" lon="0.22399">
        <ele>24</ele>
        <time>2024-10-13T07:50:52Z</time>
      </trkpt>
      <trkpt lat="49.2301" lon="0.22407">
        <ele>24</ele>
        <time>2024-10-13T07:50:53Z</time>
      </trkpt>
      <trkpt lat="49.23011" lon="0.22415">
        <ele>23.8</ele>
        <time>2024-10-13T07:50:54Z</time>
      </trkpt>
      <trkpt lat="49.23012" lon="0.22422">
        <ele>23.8</ele>
        <time>2024-10-13T07:50:55Z</time>
      </trkpt>
      <trkpt lat="49.23012" lon="0.22428">
        <ele>23.8</ele>
        <time>2024-10-13T07:50:56Z</time>
      </trkpt>
      <trkpt lat="49.23013" lon="0.22436">
        <ele>24</ele>
        <time>2024-10-13T07:50:57Z</time>
      </trkpt>
      <trkpt lat="49.23014" lon="0.22443">
        <ele>24.2</ele>
        <time>2024-10-13T07:50:58Z</time>
      </trkpt>
      <trkpt lat="49.23015" lon="0.22448">
        <ele>24.4</ele>
        <time>2024-10-13T07:50:59Z</time>
      </trkpt>
      <trkpt lat="49.23016" lon="0.22455">
        <ele>24.8</ele>
        <time>2024-10-13T07:51:00Z</time>
      </trkpt>
      <trkpt lat="49.23017" lon="0.22461">
        <ele>25.2</ele>
        <time>2024-10-13T07:51:01Z</time>
      </trkpt>
      <trkpt lat="49.23018" lon="0.22466">
        <ele>25.8</ele>
        <time>2024-10-13T07:51:02Z</time>
      </trkpt>
      <trkpt lat="49.23019" lon="0.22474">
        <ele>26.2</ele>
        <time>2024-10-13T07:51:03Z</time>
      </trkpt>
      <trkpt lat="49.23021" lon="0.2248">
        <ele>26.6</ele>
        <time>2024-10-13T07:51:04Z</time>
      </trkpt>
      <trkpt lat="49.23022" lon="0.22483">
        <ele>27</ele>
        <time>2024-10-13T07:51:05Z</time>
      </trkpt>
      <trkpt lat="49.23025" lon="0.22488">
        <ele>27.4</ele>
        <time>2024-10-13T07:51:06Z</time>
      </trkpt>
      <trkpt lat="49.23028" lon="0.2249">
        <ele>27.6</ele>
        <time>2024-10-13T07:51:07Z</time>
      </trkpt>
      <trkpt lat="49.23031" lon="0.22493">
        <ele>27.8</ele>
        <time>2024-10-13T07:51:08Z</time>
      </trkpt>
      <trkpt lat="49.23035" lon="0.22495">
        <ele>28.2</ele>
        <time>2024-10-13T07:51:09Z</time>
      </trkpt>
      <trkpt lat="49.23037" lon="0.22497">
        <ele>28.4</ele>
        <time>2024-10-13T07:51:10Z</time>
      </trkpt>
      <trkpt lat="49.2304" lon="0.225">
        <ele>28.8</ele>
        <time>2024-10-13T07:51:11Z</time>
      </trkpt>
      <trkpt lat="49.23043" lon="0.22502">
        <ele>29</ele>
        <time>2024-10-13T07:51:12Z</time>
      </trkpt>
      <trkpt lat="49.23047" lon="0.22504">
        <ele>29.4</ele>
        <time>2024-10-13T07:51:13Z</time>
      </trkpt>
      <trkpt lat="49.2305" lon="0.22506">
        <ele>29.8</ele>
        <time>2024-10-13T07:51:14Z</time>
      </trkpt>
      <trkpt lat="49.23052" lon="0.2251">
        <ele>30.2</ele>
        <time>2024-10-13T07:51:15Z</time>
      </trkpt>
      <trkpt lat="49.23054" lon="0.22515">
        <ele>30.6</ele>
        <time>2024-10-13T07:51:16Z</time>
      </trkpt>
      <trkpt lat="49.23055" lon="0.22521">
        <ele>31</ele>
        <time>2024-10-13T07:51:17Z</time>
      </trkpt>
      <trkpt lat="49.23056" lon="0.22527">
        <ele>31.4</ele>
        <time>2024-10-13T07:51:18Z</time>
      </trkpt>
      <trkpt lat="49.23056" lon="0.22533">
        <ele>31.8</ele>
        <time>2024-10-13T07:51:19Z</time>
      </trkpt>
      <trkpt lat="49.23055" lon="0.22539">
        <ele>32</ele>
        <time>2024-10-13T07:51:20Z</time>
      </trkpt>
      <trkpt lat="49.23053" lon="0.22543">
        <ele>32.4</ele>
        <time>2024-10-13T07:51:21Z</time>
      </trkpt>
      <trkpt lat="49.2305" lon="0.22547">
        <ele>32.8</ele>
        <time>2024-10-13T07:51:22Z</time>
      </trkpt>
      <trkpt lat="49.23046" lon="0.2255">
        <ele>33</ele>
        <time>2024-10-13T07:51:23Z</time>
      </trkpt>
      <trkpt lat="49.23042" lon="0.22551">
        <ele>33.2</ele>
        <time>2024-10-13T07:51:24Z</time>
      </trkpt>
      <trkpt lat="49.23037" lon="0.22553">
        <ele>33.4</ele>
        <time>2024-10-13T07:51:25Z</time>
      </trkpt>
      <trkpt lat="49.23034" lon="0.22554">
        <ele>33.6</ele>
        <time>2024-10-13T07:51:26Z</time>
      </trkpt>
      <trkpt lat="49.23029" lon="0.22555">
        <ele>33.6</ele>
        <time>2024-10-13T07:51:27Z</time>
      </trkpt>
      <trkpt lat="49.23023" lon="0.22556">
        <ele>33.6</ele>
        <time>2024-10-13T07:51:28Z</time>
      </trkpt>
      <trkpt lat="49.23019" lon="0.22557">
        <ele>33.6</ele>
        <time>2024-10-13T07:51:29Z</time>
      </trkpt>
      <trkpt lat="49.23014" lon="0.22559">
        <ele>33.6</ele>
        <time>2024-10-13T07:51:30Z</time>
      </trkpt>
      <trkpt lat="49.23009" lon="0.2256">
        <ele>33.6</ele>
        <time>2024-10-13T07:51:31Z</time>
      </trkpt>
      <trkpt lat="49.23004" lon="0.22562">
        <ele>33.6</ele>
        <time>2024-10-13T07:51:32Z</time>
      </trkpt>
      <trkpt lat="49.22999" lon="0.22563">
        <ele>33.6</ele>
        <time>2024-10-13T07:51:33Z</time>
      </trkpt>
      <trkpt lat="49.22993" lon="0.22565">
        <ele>33.6</ele>
        <time>2024-10-13T07:51:34Z</time>
      </trkpt>
      <trkpt lat="49.22988" lon="0.22566">
        <ele>33.6</ele>
        <time>2024-10-13T07:51:35Z</time>
      </trkpt>
      <trkpt lat="49.22983" lon="0.22566">
        <ele>33.6</ele>
        <time>2024-10-13T07:51:36Z</time>
      </trkpt>
      <trkpt lat="49.22977" lon="0.22567">
        <ele>33.6</ele>
        <time>2024-10-13T07:51:37Z</time>
      </trkpt>
      <trkpt lat="49.22972" lon="0.22568">
        <ele>33.4</ele>
        <time>2024-10-13T07:51:38Z</time>
      </trkpt>
      <trkpt lat="49.22966" lon="0.22569">
        <ele>33.4</ele>
        <time>2024-10-13T07:51:39Z</time>
      </trkpt>
      <trkpt lat="49.22961" lon="0.22569">
        <ele>33.2</ele>
        <time>2024-10-13T07:51:40Z</time>
      </trkpt>
      <trkpt lat="49.22955" lon="0.22569">
        <ele>32.8</ele>
        <time>2024-10-13T07:51:41Z</time>
      </trkpt>
      <trkpt lat="49.22949" lon="0.22569">
        <ele>32.6</ele>
        <time>2024-10-13T07:51:42Z</time>
      </trkpt>
      <trkpt lat="49.22943" lon="0.22569">
        <ele>32.4</ele>
        <time>2024-10-13T07:51:43Z</time>
      </trkpt>
      <trkpt lat="49.22937" lon="0.22569">
        <ele>32.2</ele>
        <time>2024-10-13T07:51:44Z</time>
      </trkpt>
      <trkpt lat="49.22931" lon="0.2257">
        <ele>32</ele>
        <time>2024-10-13T07:51:45Z</time>
      </trkpt>
      <trkpt lat="49.22923" lon="0.2257">
        <ele>32</ele>
        <time>2024-10-13T07:51:46Z</time>
      </trkpt>
      <trkpt lat="49.22919" lon="0.2257">
        <ele>31.8</ele>
        <time>2024-10-13T07:51:47Z</time>
      </trkpt>
      <trkpt lat="49.22913" lon="0.2257">
        <ele>31.4</ele>
        <time>2024-10-13T07:51:48Z</time>
      </trkpt>
      <trkpt lat="49.22905" lon="0.22571">
        <ele>31.4</ele>
        <time>2024-10-13T07:51:49Z</time>
      </trkpt>
      <trkpt lat="49.229" lon="0.22571">
        <ele>31.2</ele>
        <time>2024-10-13T07:51:50Z</time>
      </trkpt>
      <trkpt lat="49.22892" lon="0.22571">
        <ele>31.2</ele>
        <time>2024-10-13T07:51:51Z</time>
      </trkpt>
      <trkpt lat="49.22887" lon="0.22571">
        <ele>31</ele>
        <time>2024-10-13T07:51:52Z</time>
      </trkpt>
      <trkpt lat="49.2288" lon="0.22571">
        <ele>30.8</ele>
        <time>2024-10-13T07:51:53Z</time>
      </trkpt>
      <trkpt lat="49.22873" lon="0.22571">
        <ele>30.8</ele>
        <time>2024-10-13T07:51:54Z</time>
      </trkpt>
      <trkpt lat="49.22865" lon="0.22571">
        <ele>30.6</ele>
        <time>2024-10-13T07:51:55Z</time>
      </trkpt>
      <trkpt lat="49.22858" lon="0.2257">
        <ele>30.4</ele>
        <time>2024-10-13T07:51:56Z</time>
      </trkpt>
      <trkpt lat="49.22851" lon="0.2257">
        <ele>30.4</ele>
        <time>2024-10-13T07:51:57Z</time>
      </trkpt>
      <trkpt lat="49.22844" lon="0.2257">
        <ele>30.2</ele>
        <time>2024-10-13T07:51:58Z</time>
      </trkpt>
      <trkpt lat="49.22836" lon="0.2257">
        <ele>30.2</ele>
        <time>2024-10-13T07:51:59Z</time>
      </trkpt>
      <trkpt lat="49.22829" lon="0.22569">
        <ele>30</ele>
        <time>2024-10-13T07:52:00Z</time>
      </trkpt>
      <trkpt lat="49.2282" lon="0.22569">
        <ele>29.8</ele>
        <time>2024-10-13T07:52:01Z</time>
      </trkpt>
      <trkpt lat="49.22814" lon="0.2257">
        <ele>29.6</ele>
        <time>2024-10-13T07:52:02Z</time>
      </trkpt>
      <trkpt lat="49.22807" lon="0.2257">
        <ele>29.4</ele>
        <time>2024-10-13T07:52:03Z</time>
      </trkpt>
      <trkpt lat="49.22798" lon="0.22571">
        <ele>29.2</ele>
        <time>2024-10-13T07:52:04Z</time>
      </trkpt>
      <trkpt lat="49.22792" lon="0.22572">
        <ele>29</ele>
        <time>2024-10-13T07:52:05Z</time>
      </trkpt>
      <trkpt lat="49.22786" lon="0.22572">
        <ele>29</ele>
        <time>2024-10-13T07:52:06Z</time>
      </trkpt>
      <trkpt lat="49.2278" lon="0.22572">
        <ele>28.8</ele>
        <time>2024-10-13T07:52:07Z</time>
      </trkpt>
      <trkpt lat="49.22774" lon="0.22572">
        <ele>28.8</ele>
        <time>2024-10-13T07:52:08Z</time>
      </trkpt>
      <trkpt lat="49.22768" lon="0.22572">
        <ele>28.8</ele>
        <time>2024-10-13T07:52:09Z</time>
      </trkpt>
      <trkpt lat="49.22762" lon="0.22572">
        <ele>28.8</ele>
        <time>2024-10-13T07:52:10Z</time>
      </trkpt>
      <trkpt lat="49.22759" lon="0.22572">
        <ele>28.8</ele>
        <time>2024-10-13T07:52:11Z</time>
      </trkpt>
      <trkpt lat="49.22755" lon="0.22574">
        <ele>28.8</ele>
        <time>2024-10-13T07:52:12Z</time>
      </trkpt>
      <trkpt lat="49.22752" lon="0.22578">
        <ele>28.8</ele>
        <time>2024-10-13T07:52:13Z</time>
      </trkpt>
      <trkpt lat="49.22749" lon="0.22582">
        <ele>28.8</ele>
        <time>2024-10-13T07:52:14Z</time>
      </trkpt>
      <trkpt lat="49.22748" lon="0.22587">
        <ele>29</ele>
        <time>2024-10-13T07:52:15Z</time>
      </trkpt>
      <trkpt lat="49.22746" lon="0.22593">
        <ele>29</ele>
        <time>2024-10-13T07:52:16Z</time>
      </trkpt>
      <trkpt lat="49.22745" lon="0.22599">
        <ele>29.2</ele>
        <time>2024-10-13T07:52:17Z</time>
      </trkpt>
      <trkpt lat="49.22743" lon="0.22604">
        <ele>29.4</ele>
        <time>2024-10-13T07:52:18Z</time>
      </trkpt>
      <trkpt lat="49.22741" lon="0.22612">
        <ele>29.6</ele>
        <time>2024-10-13T07:52:19Z</time>
      </trkpt>
      <trkpt lat="49.22739" lon="0.22617">
        <ele>29.6</ele>
        <time>2024-10-13T07:52:20Z</time>
      </trkpt>
      <trkpt lat="49.22736" lon="0.22623">
        <ele>29.8</ele>
        <time>2024-10-13T07:52:21Z</time>
      </trkpt>
      <trkpt lat="49.22735" lon="0.22631">
        <ele>29.8</ele>
        <time>2024-10-13T07:52:22Z</time>
      </trkpt>
      <trkpt lat="49.22735" lon="0.22637">
        <ele>30</ele>
        <time>2024-10-13T07:52:23Z</time>
      </trkpt>
      <trkpt lat="49.22736" lon="0.22643">
        <ele>30.2</ele>
        <time>2024-10-13T07:52:24Z</time>
      </trkpt>
      <trkpt lat="49.22737" lon="0.22653">
        <ele>30.2</ele>
        <time>2024-10-13T07:52:25Z</time>
      </trkpt>
      <trkpt lat="49.22738" lon="0.22659">
        <ele>30.6</ele>
        <time>2024-10-13T07:52:26Z</time>
      </trkpt>
      <trkpt lat="49.2274" lon="0.22666">
        <ele>31</ele>
        <time>2024-10-13T07:52:27Z</time>
      </trkpt>
      <trkpt lat="49.22742" lon="0.22673">
        <ele>31.4</ele>
        <time>2024-10-13T07:52:28Z</time>
      </trkpt>
      <trkpt lat="49.22744" lon="0.22679">
        <ele>31.6</ele>
        <time>2024-10-13T07:52:29Z</time>
      </trkpt>
      <trkpt lat="49.22746" lon="0.22686">
        <ele>31.8</ele>
        <time>2024-10-13T07:52:30Z</time>
      </trkpt>
      <trkpt lat="49.22748" lon="0.22693">
        <ele>32.2</ele>
        <time>2024-10-13T07:52:31Z</time>
      </trkpt>
      <trkpt lat="49.2275" lon="0.22699">
        <ele>32.4</ele>
        <time>2024-10-13T07:52:32Z</time>
      </trkpt>
      <trkpt lat="49.22751" lon="0.22706">
        <ele>32.6</ele>
        <time>2024-10-13T07:52:33Z</time>
      </trkpt>
      <trkpt lat="49.22752" lon="0.22713">
        <ele>32.8</ele>
        <time>2024-10-13T07:52:34Z</time>
      </trkpt>
      <trkpt lat="49.22753" lon="0.2272">
        <ele>33.2</ele>
        <time>2024-10-13T07:52:35Z</time>
      </trkpt>
      <trkpt lat="49.22754" lon="0.22728">
        <ele>33.4</ele>
        <time>2024-10-13T07:52:36Z</time>
      </trkpt>
      <trkpt lat="49.22755" lon="0.22736">
        <ele>33.8</ele>
        <time>2024-10-13T07:52:37Z</time>
      </trkpt>
      <trkpt lat="49.22755" lon="0.22744">
        <ele>33.8</ele>
        <time>2024-10-13T07:52:38Z</time>
      </trkpt>
      <trkpt lat="49.22755" lon="0.22752">
        <ele>34</ele>
        <time>2024-10-13T07:52:39Z</time>
      </trkpt>
      <trkpt lat="49.22755" lon="0.2276">
        <ele>34.2</ele>
        <time>2024-10-13T07:52:40Z</time>
      </trkpt>
      <trkpt lat="49.22755" lon="0.22767">
        <ele>34.4</ele>
        <time>2024-10-13T07:52:41Z</time>
      </trkpt>
      <trkpt lat="49.22754" lon="0.22775">
        <ele>34.6</ele>
        <time>2024-10-13T07:52:42Z</time>
      </trkpt>
      <trkpt lat="49.22754" lon="0.22784">
        <ele>34.6</ele>
        <time>2024-10-13T07:52:43Z</time>
      </trkpt>
      <trkpt lat="49.22753" lon="0.22791">
        <ele>34.8</ele>
        <time>2024-10-13T07:52:44Z</time>
      </trkpt>
      <trkpt lat="49.22753" lon="0.22799">
        <ele>35</ele>
        <time>2024-10-13T07:52:45Z</time>
      </trkpt>
      <trkpt lat="49.22752" lon="0.22808">
        <ele>35</ele>
        <time>2024-10-13T07:52:46Z</time>
      </trkpt>
      <trkpt lat="49.22752" lon="0.22814">
        <ele>35.2</ele>
        <time>2024-10-13T07:52:47Z</time>
      </trkpt>
      <trkpt lat="49.22752" lon="0.22822">
        <ele>35.4</ele>
        <time>2024-10-13T07:52:48Z</time>
      </trkpt>
      <trkpt lat="49.22751" lon="0.22832">
        <ele>35.6</ele>
        <time>2024-10-13T07:52:49Z</time>
      </trkpt>
      <trkpt lat="49.22751" lon="0.22839">
        <ele>35.8</ele>
        <time>2024-10-13T07:52:50Z</time>
      </trkpt>
      <trkpt lat="49.2275" lon="0.22848">
        <ele>35.8</ele>
        <time>2024-10-13T07:52:51Z</time>
      </trkpt>
      <trkpt lat="49.2275" lon="0.22854">
        <ele>36.2</ele>
        <time>2024-10-13T07:52:52Z</time>
      </trkpt>
      <trkpt lat="49.2275" lon="0.22862">
        <ele>36.2</ele>
        <time>2024-10-13T07:52:53Z</time>
      </trkpt>
      <trkpt lat="49.22749" lon="0.22869">
        <ele>36.4</ele>
        <time>2024-10-13T07:52:54Z</time>
      </trkpt>
      <trkpt lat="49.22748" lon="0.22876">
        <ele>36.6</ele>
        <time>2024-10-13T07:52:55Z</time>
      </trkpt>
      <trkpt lat="49.22747" lon="0.22883">
        <ele>36.8</ele>
        <time>2024-10-13T07:52:56Z</time>
      </trkpt>
      <trkpt lat="49.22745" lon="0.2289">
        <ele>37</ele>
        <time>2024-10-13T07:52:57Z</time>
      </trkpt>
      <trkpt lat="49.22744" lon="0.22897">
        <ele>37.2</ele>
        <time>2024-10-13T07:52:58Z</time>
      </trkpt>
      <trkpt lat="49.22743" lon="0.22904">
        <ele>37.4</ele>
        <time>2024-10-13T07:52:59Z</time>
      </trkpt>
      <trkpt lat="49.22742" lon="0.22911">
        <ele>37.4</ele>
        <time>2024-10-13T07:53:00Z</time>
      </trkpt>
      <trkpt lat="49.2274" lon="0.22917">
        <ele>37.8</ele>
        <time>2024-10-13T07:53:01Z</time>
      </trkpt>
      <trkpt lat="49.22739" lon="0.22923">
        <ele>37.8</ele>
        <time>2024-10-13T07:53:02Z</time>
      </trkpt>
      <trkpt lat="49.22737" lon="0.22929">
        <ele>38</ele>
        <time>2024-10-13T07:53:03Z</time>
      </trkpt>
      <trkpt lat="49.22736" lon="0.22936">
        <ele>38.2</ele>
        <time>2024-10-13T07:53:04Z</time>
      </trkpt>
      <trkpt lat="49.22734" lon="0.22941">
        <ele>38.2</ele>
        <time>2024-10-13T07:53:05Z</time>
      </trkpt>
      <trkpt lat="49.22732" lon="0.22948">
        <ele>38.4</ele>
        <time>2024-10-13T07:53:06Z</time>
      </trkpt>
      <trkpt lat="49.22731" lon="0.22953">
        <ele>38.6</ele>
        <time>2024-10-13T07:53:07Z</time>
      </trkpt>
      <trkpt lat="49.2273" lon="0.22959">
        <ele>38.6</ele>
        <time>2024-10-13T07:53:08Z</time>
      </trkpt>
      <trkpt lat="49.22728" lon="0.22965">
        <ele>38.8</ele>
        <time>2024-10-13T07:53:09Z</time>
      </trkpt>
      <trkpt lat="49.22727" lon="0.22971">
        <ele>39.2</ele>
        <time>2024-10-13T07:53:10Z</time>
      </trkpt>
      <trkpt lat="49.22725" lon="0.22977">
        <ele>39.4</ele>
        <time>2024-10-13T07:53:11Z</time>
      </trkpt>
      <trkpt lat="49.22723" lon="0.22984">
        <ele>39.6</ele>
        <time>2024-10-13T07:53:12Z</time>
      </trkpt>
      <trkpt lat="49.22722" lon="0.22989">
        <ele>39.6</ele>
        <time>2024-10-13T07:53:13Z</time>
      </trkpt>
      <trkpt lat="49.2272" lon="0.22995">
        <ele>39.8</ele>
        <time>2024-10-13T07:53:14Z</time>
      </trkpt>
      <trkpt lat="49.22719" lon="0.23003">
        <ele>40</ele>
        <time>2024-10-13T07:53:15Z</time>
      </trkpt>
      <trkpt lat="49.22717" lon="0.23008">
        <ele>40.4</ele>
        <time>2024-10-13T07:53:16Z</time>
      </trkpt>
      <trkpt lat="49.22716" lon="0.23014">
        <ele>40.6</ele>
        <time>2024-10-13T07:53:17Z</time>
      </trkpt>
      <trkpt lat="49.22714" lon="0.23021">
        <ele>40.6</ele>
        <time>2024-10-13T07:53:18Z</time>
      </trkpt>
      <trkpt lat="49.22712" lon="0.23027">
        <ele>41</ele>
        <time>2024-10-13T07:53:19Z</time>
      </trkpt>
      <trkpt lat="49.2271" lon="0.23033">
        <ele>41.4</ele>
        <time>2024-10-13T07:53:20Z</time>
      </trkpt>
      <trkpt lat="49.22708" lon="0.2304">
        <ele>41.6</ele>
        <time>2024-10-13T07:53:21Z</time>
      </trkpt>
      <trkpt lat="49.22707" lon="0.23047">
        <ele>41.8</ele>
        <time>2024-10-13T07:53:22Z</time>
      </trkpt>
      <trkpt lat="49.22705" lon="0.23054">
        <ele>42</ele>
        <time>2024-10-13T07:53:23Z</time>
      </trkpt>
      <trkpt lat="49.22704" lon="0.23062">
        <ele>42.2</ele>
        <time>2024-10-13T07:53:24Z</time>
      </trkpt>
      <trkpt lat="49.22702" lon="0.23069">
        <ele>42.6</ele>
        <time>2024-10-13T07:53:25Z</time>
      </trkpt>
      <trkpt lat="49.227" lon="0.23077">
        <ele>43</ele>
        <time>2024-10-13T07:53:26Z</time>
      </trkpt>
      <trkpt lat="49.22699" lon="0.23084">
        <ele>43.2</ele>
        <time>2024-10-13T07:53:27Z</time>
      </trkpt>
      <trkpt lat="49.22697" lon="0.23092">
        <ele>43.4</ele>
        <time>2024-10-13T07:53:28Z</time>
      </trkpt>
      <trkpt lat="49.22696" lon="0.23099">
        <ele>43.6</ele>
        <time>2024-10-13T07:53:29Z</time>
      </trkpt>
      <trkpt lat="49.22695" lon="0.23106">
        <ele>43.6</ele>
        <time>2024-10-13T07:53:30Z</time>
      </trkpt>
      <trkpt lat="49.22693" lon="0.23114">
        <ele>43.8</ele>
        <time>2024-10-13T07:53:31Z</time>
      </trkpt>
      <trkpt lat="49.22692" lon="0.23121">
        <ele>44</ele>
        <time>2024-10-13T07:53:32Z</time>
      </trkpt>
      <trkpt lat="49.2269" lon="0.23128">
        <ele>44.2</ele>
        <time>2024-10-13T07:53:33Z</time>
      </trkpt>
      <trkpt lat="49.22688" lon="0.23136">
        <ele>44.4</ele>
        <time>2024-10-13T07:53:34Z</time>
      </trkpt>
      <trkpt lat="49.22687" lon="0.23143">
        <ele>44.6</ele>
        <time>2024-10-13T07:53:35Z</time>
      </trkpt>
      <trkpt lat="49.22685" lon="0.23149">
        <ele>45</ele>
        <time>2024-10-13T07:53:36Z</time>
      </trkpt>
      <trkpt lat="49.22683" lon="0.23156">
        <ele>45.2</ele>
        <time>2024-10-13T07:53:37Z</time>
      </trkpt>
      <trkpt lat="49.2268" lon="0.23164">
        <ele>45.4</ele>
        <time>2024-10-13T07:53:38Z</time>
      </trkpt>
      <trkpt lat="49.22678" lon="0.23172">
        <ele>45.6</ele>
        <time>2024-10-13T07:53:39Z</time>
      </trkpt>
      <trkpt lat="49.22677" lon="0.23179">
        <ele>45.8</ele>
        <time>2024-10-13T07:53:40Z</time>
      </trkpt>
      <trkpt lat="49.22675" lon="0.23186">
        <ele>46</ele>
        <time>2024-10-13T07:53:41Z</time>
      </trkpt>
      <trkpt lat="49.22673" lon="0.23193">
        <ele>46.2</ele>
        <time>2024-10-13T07:53:42Z</time>
      </trkpt>
      <trkpt lat="49.22671" lon="0.23201">
        <ele>46.4</ele>
        <time>2024-10-13T07:53:43Z</time>
      </trkpt>
      <trkpt lat="49.22669" lon="0.23208">
        <ele>46.6</ele>
        <time>2024-10-13T07:53:44Z</time>
      </trkpt>
      <trkpt lat="49.22667" lon="0.23216">
        <ele>46.8</ele>
        <time>2024-10-13T07:53:45Z</time>
      </trkpt>
      <trkpt lat="49.22666" lon="0.23224">
        <ele>47</ele>
        <time>2024-10-13T07:53:46Z</time>
      </trkpt>
      <trkpt lat="49.22664" lon="0.23231">
        <ele>47.2</ele>
        <time>2024-10-13T07:53:47Z</time>
      </trkpt>
      <trkpt lat="49.22662" lon="0.23238">
        <ele>47.4</ele>
        <time>2024-10-13T07:53:48Z</time>
      </trkpt>
      <trkpt lat="49.2266" lon="0.23245">
        <ele>47.4</ele>
        <time>2024-10-13T07:53:49Z</time>
      </trkpt>
      <trkpt lat="49.22658" lon="0.23253">
        <ele>47.6</ele>
        <time>2024-10-13T07:53:50Z</time>
      </trkpt>
      <trkpt lat="49.22656" lon="0.23261">
        <ele>47.6</ele>
        <time>2024-10-13T07:53:51Z</time>
      </trkpt>
      <trkpt lat="49.22655" lon="0.23268">
        <ele>47.8</ele>
        <time>2024-10-13T07:53:52Z</time>
      </trkpt>
      <trkpt lat="49.22653" lon="0.23276">
        <ele>47.8</ele>
        <time>2024-10-13T07:53:53Z</time>
      </trkpt>
      <trkpt lat="49.22651" lon="0.23284">
        <ele>48</ele>
        <time>2024-10-13T07:53:54Z</time>
      </trkpt>
      <trkpt lat="49.2265" lon="0.2329">
        <ele>48</ele>
        <time>2024-10-13T07:53:55Z</time>
      </trkpt>
      <trkpt lat="49.22648" lon="0.23297">
        <ele>48.2</ele>
        <time>2024-10-13T07:53:56Z</time>
      </trkpt>
      <trkpt lat="49.22647" lon="0.23305">
        <ele>48.4</ele>
        <time>2024-10-13T07:53:57Z</time>
      </trkpt>
      <trkpt lat="49.22645" lon="0.23311">
        <ele>48.6</ele>
        <time>2024-10-13T07:53:58Z</time>
      </trkpt>
      <trkpt lat="49.22644" lon="0.23318">
        <ele>49</ele>
        <time>2024-10-13T07:53:59Z</time>
      </trkpt>
      <trkpt lat="49.22642" lon="0.23325">
        <ele>49.2</ele>
        <time>2024-10-13T07:54:00Z</time>
      </trkpt>
      <trkpt lat="49.2264" lon="0.23332">
        <ele>49.4</ele>
        <time>2024-10-13T07:54:01Z</time>
      </trkpt>
      <trkpt lat="49.22638" lon="0.23339">
        <ele>49.4</ele>
        <time>2024-10-13T07:54:02Z</time>
      </trkpt>
      <trkpt lat="49.22636" lon="0.23345">
        <ele>49.8</ele>
        <time>2024-10-13T07:54:03Z</time>
      </trkpt>
      <trkpt lat="49.22635" lon="0.23351">
        <ele>50</ele>
        <time>2024-10-13T07:54:04Z</time>
      </trkpt>
      <trkpt lat="49.22634" lon="0.23358">
        <ele>50</ele>
        <time>2024-10-13T07:54:05Z</time>
      </trkpt>
      <trkpt lat="49.22632" lon="0.23364">
        <ele>50.2</ele>
        <time>2024-10-13T07:54:06Z</time>
      </trkpt>
      <trkpt lat="49.22631" lon="0.23371">
        <ele>50.4</ele>
        <time>2024-10-13T07:54:07Z</time>
      </trkpt>
      <trkpt lat="49.22629" lon="0.23378">
        <ele>50.4</ele>
        <time>2024-10-13T07:54:08Z</time>
      </trkpt>
      <trkpt lat="49.22628" lon="0.23386">
        <ele>50.8</ele>
        <time>2024-10-13T07:54:09Z</time>
      </trkpt>
      <trkpt lat="49.22627" lon="0.23393">
        <ele>51</ele>
        <time>2024-10-13T07:54:10Z</time>
      </trkpt>
      <trkpt lat="49.22625" lon="0.234">
        <ele>51.2</ele>
        <time>2024-10-13T07:54:11Z</time>
      </trkpt>
      <trkpt lat="49.22624" lon="0.23407">
        <ele>51.6</ele>
        <time>2024-10-13T07:54:12Z</time>
      </trkpt>
      <trkpt lat="49.22622" lon="0.23415">
        <ele>51.8</ele>
        <time>2024-10-13T07:54:13Z</time>
      </trkpt>
      <trkpt lat="49.22621" lon="0.23423">
        <ele>52.2</ele>
        <time>2024-10-13T07:54:14Z</time>
      </trkpt>
      <trkpt lat="49.22619" lon="0.2343">
        <ele>52.6</ele>
        <time>2024-10-13T07:54:15Z</time>
      </trkpt>
      <trkpt lat="49.22618" lon="0.23438">
        <ele>52.8</ele>
        <time>2024-10-13T07:54:16Z</time>
      </trkpt>
      <trkpt lat="49.22617" lon="0.23446">
        <ele>53</ele>
        <time>2024-10-13T07:54:17Z</time>
      </trkpt>
      <trkpt lat="49.22615" lon="0.23453">
        <ele>53</ele>
        <time>2024-10-13T07:54:18Z</time>
      </trkpt>
      <trkpt lat="49.22613" lon="0.2346">
        <ele>53.2</ele>
        <time>2024-10-13T07:54:19Z</time>
      </trkpt>
      <trkpt lat="49.22612" lon="0.23468">
        <ele>53.2</ele>
        <time>2024-10-13T07:54:20Z</time>
      </trkpt>
      <trkpt lat="49.22611" lon="0.23476">
        <ele>53.4</ele>
        <time>2024-10-13T07:54:21Z</time>
      </trkpt>
      <trkpt lat="49.2261" lon="0.23484">
        <ele>53.6</ele>
        <time>2024-10-13T07:54:22Z</time>
      </trkpt>
      <trkpt lat="49.22609" lon="0.23494">
        <ele>53.6</ele>
        <time>2024-10-13T07:54:23Z</time>
      </trkpt>
      <trkpt lat="49.22609" lon="0.235">
        <ele>53.8</ele>
        <time>2024-10-13T07:54:24Z</time>
      </trkpt>
      <trkpt lat="49.22609" lon="0.23509">
        <ele>53.8</ele>
        <time>2024-10-13T07:54:25Z</time>
      </trkpt>
      <trkpt lat="49.22609" lon="0.23519">
        <ele>53.8</ele>
        <time>2024-10-13T07:54:26Z</time>
      </trkpt>
      <trkpt lat="49.22609" lon="0.23528">
        <ele>53.8</ele>
        <time>2024-10-13T07:54:27Z</time>
      </trkpt>
      <trkpt lat="49.22609" lon="0.23538">
        <ele>53.8</ele>
        <time>2024-10-13T07:54:28Z</time>
      </trkpt>
      <trkpt lat="49.22609" lon="0.23548">
        <ele>53.8</ele>
        <time>2024-10-13T07:54:29Z</time>
      </trkpt>
      <trkpt lat="49.22609" lon="0.23558">
        <ele>53.8</ele>
        <time>2024-10-13T07:54:30Z</time>
      </trkpt>
      <trkpt lat="49.22609" lon="0.23568">
        <ele>53.8</ele>
        <time>2024-10-13T07:54:31Z</time>
      </trkpt>
      <trkpt lat="49.22609" lon="0.23577">
        <ele>53.8</ele>
        <time>2024-10-13T07:54:32Z</time>
      </trkpt>
      <trkpt lat="49.22608" lon="0.23587">
        <ele>53.8</ele>
        <time>2024-10-13T07:54:33Z</time>
      </trkpt>
      <trkpt lat="49.22608" lon="0.23597">
        <ele>53.8</ele>
        <time>2024-10-13T07:54:34Z</time>
      </trkpt>
      <trkpt lat="49.22607" lon="0.23607">
        <ele>53.8</ele>
        <time>2024-10-13T07:54:35Z</time>
      </trkpt>
      <trkpt lat="49.22606" lon="0.23617">
        <ele>53.8</ele>
        <time>2024-10-13T07:54:36Z</time>
      </trkpt>
      <trkpt lat="49.22604" lon="0.23627">
        <ele>53.8</ele>
        <time>2024-10-13T07:54:37Z</time>
      </trkpt>
      <trkpt lat="49.22604" lon="0.23636">
        <ele>53.4</ele>
        <time>2024-10-13T07:54:38Z</time>
      </trkpt>
      <trkpt lat="49.22603" lon="0.23645">
        <ele>53.4</ele>
        <time>2024-10-13T07:54:39Z</time>
      </trkpt>
      <trkpt lat="49.22602" lon="0.23654">
        <ele>53.4</ele>
        <time>2024-10-13T07:54:40Z</time>
      </trkpt>
      <trkpt lat="49.22601" lon="0.23662">
        <ele>53.4</ele>
        <time>2024-10-13T07:54:41Z</time>
      </trkpt>
      <trkpt lat="49.22599" lon="0.23671">
        <ele>53.4</ele>
        <time>2024-10-13T07:54:42Z</time>
      </trkpt>
      <trkpt lat="49.22598" lon="0.23679">
        <ele>53.4</ele>
        <time>2024-10-13T07:54:43Z</time>
      </trkpt>
      <trkpt lat="49.22597" lon="0.23688">
        <ele>53.4</ele>
        <time>2024-10-13T07:54:44Z</time>
      </trkpt>
      <trkpt lat="49.22595" lon="0.23696">
        <ele>53.4</ele>
        <time>2024-10-13T07:54:45Z</time>
      </trkpt>
      <trkpt lat="49.22594" lon="0.23704">
        <ele>53.4</ele>
        <time>2024-10-13T07:54:46Z</time>
      </trkpt>
      <trkpt lat="49.22592" lon="0.23712">
        <ele>54</ele>
        <time>2024-10-13T07:54:47Z</time>
      </trkpt>
      <trkpt lat="49.22591" lon="0.2372">
        <ele>54.2</ele>
        <time>2024-10-13T07:54:48Z</time>
      </trkpt>
      <trkpt lat="49.2259" lon="0.23729">
        <ele>54.2</ele>
        <time>2024-10-13T07:54:49Z</time>
      </trkpt>
      <trkpt lat="49.22588" lon="0.23737">
        <ele>54.4</ele>
        <time>2024-10-13T07:54:50Z</time>
      </trkpt>
      <trkpt lat="49.22586" lon="0.23745">
        <ele>54.6</ele>
        <time>2024-10-13T07:54:51Z</time>
      </trkpt>
      <trkpt lat="49.22584" lon="0.23754">
        <ele>54.8</ele>
        <time>2024-10-13T07:54:52Z</time>
      </trkpt>
      <trkpt lat="49.22582" lon="0.23762">
        <ele>55</ele>
        <time>2024-10-13T07:54:53Z</time>
      </trkpt>
      <trkpt lat="49.2258" lon="0.23771">
        <ele>55</ele>
        <time>2024-10-13T07:54:54Z</time>
      </trkpt>
      <trkpt lat="49.22577" lon="0.2378">
        <ele>55.2</ele>
        <time>2024-10-13T07:54:55Z</time>
      </trkpt>
      <trkpt lat="49.22575" lon="0.23789">
        <ele>55.4</ele>
        <time>2024-10-13T07:54:56Z</time>
      </trkpt>
      <trkpt lat="49.22573" lon="0.23798">
        <ele>55.6</ele>
        <time>2024-10-13T07:54:57Z</time>
      </trkpt>
      <trkpt lat="49.22571" lon="0.23807">
        <ele>55.8</ele>
        <time>2024-10-13T07:54:58Z</time>
      </trkpt>
      <trkpt lat="49.22568" lon="0.23816">
        <ele>55.8</ele>
        <time>2024-10-13T07:54:59Z</time>
      </trkpt>
      <trkpt lat="49.22566" lon="0.23825">
        <ele>55.8</ele>
        <time>2024-10-13T07:55:00Z</time>
      </trkpt>
      <trkpt lat="49.22563" lon="0.23834">
        <ele>56</ele>
        <time>2024-10-13T07:55:01Z</time>
      </trkpt>
      <trkpt lat="49.2256" lon="0.23842">
        <ele>56</ele>
        <time>2024-10-13T07:55:02Z</time>
      </trkpt>
      <trkpt lat="49.22558" lon="0.2385">
        <ele>56</ele>
        <time>2024-10-13T07:55:03Z</time>
      </trkpt>
      <trkpt lat="49.22555" lon="0.23859">
        <ele>56</ele>
        <time>2024-10-13T07:55:04Z</time>
      </trkpt>
      <trkpt lat="49.22553" lon="0.23867">
        <ele>56</ele>
        <time>2024-10-13T07:55:05Z</time>
      </trkpt>
      <trkpt lat="49.22551" lon="0.23874">
        <ele>56</ele>
        <time>2024-10-13T07:55:06Z</time>
      </trkpt>
      <trkpt lat="49.2255" lon="0.23881">
        <ele>56</ele>
        <time>2024-10-13T07:55:07Z</time>
      </trkpt>
      <trkpt lat="49.22549" lon="0.23888">
        <ele>56</ele>
        <time>2024-10-13T07:55:08Z</time>
      </trkpt>
      <trkpt lat="49.22549" lon="0.23895">
        <ele>56</ele>
        <time>2024-10-13T07:55:09Z</time>
      </trkpt>
      <trkpt lat="49.22548" lon="0.23902">
        <ele>56.2</ele>
        <time>2024-10-13T07:55:10Z</time>
      </trkpt>
      <trkpt lat="49.22547" lon="0.23908">
        <ele>56.2</ele>
        <time>2024-10-13T07:55:11Z</time>
      </trkpt>
      <trkpt lat="49.22547" lon="0.23915">
        <ele>56.4</ele>
        <time>2024-10-13T07:55:12Z</time>
      </trkpt>
      <trkpt lat="49.22546" lon="0.23922">
        <ele>56.6</ele>
        <time>2024-10-13T07:55:13Z</time>
      </trkpt>
      <trkpt lat="49.22546" lon="0.23929">
        <ele>57</ele>
        <time>2024-10-13T07:55:14Z</time>
      </trkpt>
      <trkpt lat="49.22546" lon="0.23936">
        <ele>57.4</ele>
        <time>2024-10-13T07:55:15Z</time>
      </trkpt>
      <trkpt lat="49.22545" lon="0.23944">
        <ele>57.6</ele>
        <time>2024-10-13T07:55:16Z</time>
      </trkpt>
      <trkpt lat="49.22545" lon="0.2395">
        <ele>58</ele>
        <time>2024-10-13T07:55:17Z</time>
      </trkpt>
      <trkpt lat="49.22544" lon="0.23957">
        <ele>58.2</ele>
        <time>2024-10-13T07:55:18Z</time>
      </trkpt>
      <trkpt lat="49.22542" lon="0.23964">
        <ele>58.6</ele>
        <time>2024-10-13T07:55:19Z</time>
      </trkpt>
      <trkpt lat="49.22541" lon="0.23971">
        <ele>59</ele>
        <time>2024-10-13T07:55:20Z</time>
      </trkpt>
      <trkpt lat="49.22538" lon="0.23978">
        <ele>59.4</ele>
        <time>2024-10-13T07:55:21Z</time>
      </trkpt>
      <trkpt lat="49.22536" lon="0.23984">
        <ele>59.8</ele>
        <time>2024-10-13T07:55:22Z</time>
      </trkpt>
      <trkpt lat="49.22533" lon="0.23991">
        <ele>60.2</ele>
        <time>2024-10-13T07:55:23Z</time>
      </trkpt>
      <trkpt lat="49.2253" lon="0.23997">
        <ele>60.6</ele>
        <time>2024-10-13T07:55:24Z</time>
      </trkpt>
      <trkpt lat="49.22527" lon="0.24003">
        <ele>61</ele>
        <time>2024-10-13T07:55:25Z</time>
      </trkpt>
      <trkpt lat="49.22524" lon="0.2401">
        <ele>61.2</ele>
        <time>2024-10-13T07:55:26Z</time>
      </trkpt>
      <trkpt lat="49.22522" lon="0.24017">
        <ele>61.4</ele>
        <time>2024-10-13T07:55:27Z</time>
      </trkpt>
      <trkpt lat="49.22519" lon="0.24024">
        <ele>61.6</ele>
        <time>2024-10-13T07:55:28Z</time>
      </trkpt>
      <trkpt lat="49.22517" lon="0.24031">
        <ele>62</ele>
        <time>2024-10-13T07:55:29Z</time>
      </trkpt>
      <trkpt lat="49.22516" lon="0.24039">
        <ele>62.4</ele>
        <time>2024-10-13T07:55:30Z</time>
      </trkpt>
      <trkpt lat="49.22514" lon="0.24047">
        <ele>62.8</ele>
        <time>2024-10-13T07:55:31Z</time>
      </trkpt>
      <trkpt lat="49.22513" lon="0.24055">
        <ele>62.8</ele>
        <time>2024-10-13T07:55:32Z</time>
      </trkpt>
      <trkpt lat="49.22512" lon="0.24063">
        <ele>63.2</ele>
        <time>2024-10-13T07:55:33Z</time>
      </trkpt>
      <trkpt lat="49.22512" lon="0.24071">
        <ele>63.4</ele>
        <time>2024-10-13T07:55:34Z</time>
      </trkpt>
      <trkpt lat="49.22512" lon="0.24079">
        <ele>63.4</ele>
        <time>2024-10-13T07:55:35Z</time>
      </trkpt>
      <trkpt lat="49.22513" lon="0.24087">
        <ele>63.6</ele>
        <time>2024-10-13T07:55:36Z</time>
      </trkpt>
      <trkpt lat="49.22514" lon="0.24095">
        <ele>63.8</ele>
        <time>2024-10-13T07:55:37Z</time>
      </trkpt>
      <trkpt lat="49.22515" lon="0.24103">
        <ele>63.8</ele>
        <time>2024-10-13T07:55:38Z</time>
      </trkpt>
      <trkpt lat="49.22516" lon="0.24112">
        <ele>64</ele>
        <time>2024-10-13T07:55:39Z</time>
      </trkpt>
      <trkpt lat="49.22517" lon="0.2412">
        <ele>64</ele>
        <time>2024-10-13T07:55:40Z</time>
      </trkpt>
      <trkpt lat="49.22518" lon="0.24129">
        <ele>64.2</ele>
        <time>2024-10-13T07:55:41Z</time>
      </trkpt>
      <trkpt lat="49.2252" lon="0.24138">
        <ele>64.4</ele>
        <time>2024-10-13T07:55:42Z</time>
      </trkpt>
      <trkpt lat="49.2252" lon="0.24147">
        <ele>64.6</ele>
        <time>2024-10-13T07:55:43Z</time>
      </trkpt>
      <trkpt lat="49.22521" lon="0.24156">
        <ele>64.6</ele>
        <time>2024-10-13T07:55:44Z</time>
      </trkpt>
      <trkpt lat="49.22523" lon="0.24164">
        <ele>64.6</ele>
        <time>2024-10-13T07:55:45Z</time>
      </trkpt>
      <trkpt lat="49.22524" lon="0.24173">
        <ele>64.6</ele>
        <time>2024-10-13T07:55:46Z</time>
      </trkpt>
      <trkpt lat="49.22524" lon="0.24182">
        <ele>64.8</ele>
        <time>2024-10-13T07:55:47Z</time>
      </trkpt>
      <trkpt lat="49.22525" lon="0.24191">
        <ele>64.8</ele>
        <time>2024-10-13T07:55:48Z</time>
      </trkpt>
      <trkpt lat="49.22526" lon="0.242">
        <ele>64.8</ele>
        <time>2024-10-13T07:55:49Z</time>
      </trkpt>
      <trkpt lat="49.22527" lon="0.2421">
        <ele>64.8</ele>
        <time>2024-10-13T07:55:50Z</time>
      </trkpt>
      <trkpt lat="49.22528" lon="0.24219">
        <ele>65</ele>
        <time>2024-10-13T07:55:51Z</time>
      </trkpt>
      <trkpt lat="49.22528" lon="0.24228">
        <ele>65</ele>
        <time>2024-10-13T07:55:52Z</time>
      </trkpt>
      <trkpt lat="49.22529" lon="0.24238">
        <ele>65</ele>
        <time>2024-10-13T07:55:53Z</time>
      </trkpt>
      <trkpt lat="49.22529" lon="0.24247">
        <ele>65.2</ele>
        <time>2024-10-13T07:55:54Z</time>
      </trkpt>
      <trkpt lat="49.2253" lon="0.24256">
        <ele>65.2</ele>
        <time>2024-10-13T07:55:55Z</time>
      </trkpt>
      <trkpt lat="49.2253" lon="0.24265">
        <ele>65.2</ele>
        <time>2024-10-13T07:55:56Z</time>
      </trkpt>
      <trkpt lat="49.22531" lon="0.24275">
        <ele>65.2</ele>
        <time>2024-10-13T07:55:57Z</time>
      </trkpt>
      <trkpt lat="49.22531" lon="0.24285">
        <ele>65.2</ele>
        <time>2024-10-13T07:55:58Z</time>
      </trkpt>
      <trkpt lat="49.22531" lon="0.24295">
        <ele>65.4</ele>
        <time>2024-10-13T07:55:59Z</time>
      </trkpt>
      <trkpt lat="49.2253" lon="0.24305">
        <ele>65.4</ele>
        <time>2024-10-13T07:56:00Z</time>
      </trkpt>
      <trkpt lat="49.2253" lon="0.24315">
        <ele>65.4</ele>
        <time>2024-10-13T07:56:01Z</time>
      </trkpt>
      <trkpt lat="49.22529" lon="0.24325">
        <ele>65.6</ele>
        <time>2024-10-13T07:56:02Z</time>
      </trkpt>
      <trkpt lat="49.22528" lon="0.24334">
        <ele>65.6</ele>
        <time>2024-10-13T07:56:03Z</time>
      </trkpt>
      <trkpt lat="49.22526" lon="0.24344">
        <ele>65.6</ele>
        <time>2024-10-13T07:56:04Z</time>
      </trkpt>
      <trkpt lat="49.22525" lon="0.24352">
        <ele>65.6</ele>
        <time>2024-10-13T07:56:05Z</time>
      </trkpt>
      <trkpt lat="49.22524" lon="0.24361">
        <ele>65.6</ele>
        <time>2024-10-13T07:56:06Z</time>
      </trkpt>
      <trkpt lat="49.22522" lon="0.2437">
        <ele>65.6</ele>
        <time>2024-10-13T07:56:07Z</time>
      </trkpt>
      <trkpt lat="49.2252" lon="0.24379">
        <ele>65.6</ele>
        <time>2024-10-13T07:56:08Z</time>
      </trkpt>
      <trkpt lat="49.22519" lon="0.24388">
        <ele>65.8</ele>
        <time>2024-10-13T07:56:09Z</time>
      </trkpt>
      <trkpt lat="49.22517" lon="0.24397">
        <ele>65.8</ele>
        <time>2024-10-13T07:56:10Z</time>
      </trkpt>
      <trkpt lat="49.22515" lon="0.24406">
        <ele>65.8</ele>
        <time>2024-10-13T07:56:11Z</time>
      </trkpt>
      <trkpt lat="49.22514" lon="0.24415">
        <ele>65.8</ele>
        <time>2024-10-13T07:56:12Z</time>
      </trkpt>
      <trkpt lat="49.22511" lon="0.24424">
        <ele>66</ele>
        <time>2024-10-13T07:56:13Z</time>
      </trkpt>
      <trkpt lat="49.22508" lon="0.24433">
        <ele>66</ele>
        <time>2024-10-13T07:56:14Z</time>
      </trkpt>
      <trkpt lat="49.22505" lon="0.24442">
        <ele>66</ele>
        <time>2024-10-13T07:56:15Z</time>
      </trkpt>
      <trkpt lat="49.22501" lon="0.24451">
        <ele>65.8</ele>
        <time>2024-10-13T07:56:16Z</time>
      </trkpt>
      <trkpt lat="49.22496" lon="0.24458">
        <ele>66</ele>
        <time>2024-10-13T07:56:17Z</time>
      </trkpt>
      <trkpt lat="49.22491" lon="0.24465">
        <ele>66</ele>
        <time>2024-10-13T07:56:18Z</time>
      </trkpt>
      <trkpt lat="49.22486" lon="0.2447">
        <ele>66.2</ele>
        <time>2024-10-13T07:56:19Z</time>
      </trkpt>
      <trkpt lat="49.22481" lon="0.24475">
        <ele>66</ele>
        <time>2024-10-13T07:56:20Z</time>
      </trkpt>
      <trkpt lat="49.22476" lon="0.24478">
        <ele>66.2</ele>
        <time>2024-10-13T07:56:21Z</time>
      </trkpt>
      <trkpt lat="49.22471" lon="0.24481">
        <ele>66</ele>
        <time>2024-10-13T07:56:22Z</time>
      </trkpt>
      <trkpt lat="49.22467" lon="0.24483">
        <ele>66.2</ele>
        <time>2024-10-13T07:56:23Z</time>
      </trkpt>
      <trkpt lat="49.22463" lon="0.24486">
        <ele>66.4</ele>
        <time>2024-10-13T07:56:24Z</time>
      </trkpt>
      <trkpt lat="49.22458" lon="0.24488">
        <ele>66.4</ele>
        <time>2024-10-13T07:56:25Z</time>
      </trkpt>
      <trkpt lat="49.22454" lon="0.2449">
        <ele>66.4</ele>
        <time>2024-10-13T07:56:26Z</time>
      </trkpt>
      <trkpt lat="49.2245" lon="0.24493">
        <ele>66.6</ele>
        <time>2024-10-13T07:56:27Z</time>
      </trkpt>
      <trkpt lat="49.22446" lon="0.24495">
        <ele>66.8</ele>
        <time>2024-10-13T07:56:28Z</time>
      </trkpt>
      <trkpt lat="49.22443" lon="0.24498">
        <ele>67.2</ele>
        <time>2024-10-13T07:56:29Z</time>
      </trkpt>
      <trkpt lat="49.22439" lon="0.24501">
        <ele>67.4</ele>
        <time>2024-10-13T07:56:30Z</time>
      </trkpt>
      <trkpt lat="49.22436" lon="0.24504">
        <ele>67.8</ele>
        <time>2024-10-13T07:56:31Z</time>
      </trkpt>
      <trkpt lat="49.22433" lon="0.24506">
        <ele>68.2</ele>
        <time>2024-10-13T07:56:32Z</time>
      </trkpt>
      <trkpt lat="49.2243" lon="0.24509">
        <ele>68.6</ele>
        <time>2024-10-13T07:56:33Z</time>
      </trkpt>
      <trkpt lat="49.22428" lon="0.24512">
        <ele>68.8</ele>
        <time>2024-10-13T07:56:34Z</time>
      </trkpt>
      <trkpt lat="49.22425" lon="0.24516">
        <ele>69.2</ele>
        <time>2024-10-13T07:56:35Z</time>
      </trkpt>
      <trkpt lat="49.22423" lon="0.2452">
        <ele>69.8</ele>
        <time>2024-10-13T07:56:36Z</time>
      </trkpt>
      <trkpt lat="49.22421" lon="0.24524">
        <ele>70.4</ele>
        <time>2024-10-13T07:56:37Z</time>
      </trkpt>
      <trkpt lat="49.22419" lon="0.24528">
        <ele>70.6</ele>
        <time>2024-10-13T07:56:38Z</time>
      </trkpt>
      <trkpt lat="49.22416" lon="0.24531">
        <ele>71</ele>
        <time>2024-10-13T07:56:39Z</time>
      </trkpt>
      <trkpt lat="49.22413" lon="0.24535">
        <ele>71.4</ele>
        <time>2024-10-13T07:56:40Z</time>
      </trkpt>
      <trkpt lat="49.2241" lon="0.2454">
        <ele>71.8</ele>
        <time>2024-10-13T07:56:41Z</time>
      </trkpt>
      <trkpt lat="49.22408" lon="0.24544">
        <ele>72</ele>
        <time>2024-10-13T07:56:42Z</time>
      </trkpt>
      <trkpt lat="49.22405" lon="0.24549">
        <ele>72.4</ele>
        <time>2024-10-13T07:56:43Z</time>
      </trkpt>
      <trkpt lat="49.22402" lon="0.24553">
        <ele>72.6</ele>
        <time>2024-10-13T07:56:44Z</time>
      </trkpt>
      <trkpt lat="49.22399" lon="0.24558">
        <ele>72.8</ele>
        <time>2024-10-13T07:56:45Z</time>
      </trkpt>
      <trkpt lat="49.22397" lon="0.24562">
        <ele>73</ele>
        <time>2024-10-13T07:56:46Z</time>
      </trkpt>
      <trkpt lat="49.22395" lon="0.24567">
        <ele>73.2</ele>
        <time>2024-10-13T07:56:47Z</time>
      </trkpt>
      <trkpt lat="49.22393" lon="0.24571">
        <ele>73.2</ele>
        <time>2024-10-13T07:56:48Z</time>
      </trkpt>
      <trkpt lat="49.22391" lon="0.24576">
        <ele>73.4</ele>
        <time>2024-10-13T07:56:49Z</time>
      </trkpt>
      <trkpt lat="49.2239" lon="0.2458">
        <ele>73.6</ele>
        <time>2024-10-13T07:56:50Z</time>
      </trkpt>
      <trkpt lat="49.22388" lon="0.24585">
        <ele>73.6</ele>
        <time>2024-10-13T07:56:51Z</time>
      </trkpt>
      <trkpt lat="49.22386" lon="0.2459">
        <ele>73.8</ele>
        <time>2024-10-13T07:56:52Z</time>
      </trkpt>
      <trkpt lat="49.22385" lon="0.24594">
        <ele>74</ele>
        <time>2024-10-13T07:56:53Z</time>
      </trkpt>
      <trkpt lat="49.22383" lon="0.24598">
        <ele>74</ele>
        <time>2024-10-13T07:56:54Z</time>
      </trkpt>
      <trkpt lat="49.2238" lon="0.24603">
        <ele>74.2</ele>
        <time>2024-10-13T07:56:55Z</time>
      </trkpt>
      <trkpt lat="49.22378" lon="0.24608">
        <ele>74.2</ele>
        <time>2024-10-13T07:56:56Z</time>
      </trkpt>
      <trkpt lat="49.22376" lon="0.24614">
        <ele>74.2</ele>
        <time>2024-10-13T07:56:57Z</time>
      </trkpt>
      <trkpt lat="49.22374" lon="0.24619">
        <ele>74.2</ele>
        <time>2024-10-13T07:56:58Z</time>
      </trkpt>
      <trkpt lat="49.22372" lon="0.24625">
        <ele>74.2</ele>
        <time>2024-10-13T07:56:59Z</time>
      </trkpt>
      <trkpt lat="49.22369" lon="0.2463">
        <ele>74.2</ele>
        <time>2024-10-13T07:57:00Z</time>
      </trkpt>
      <trkpt lat="49.22368" lon="0.24634">
        <ele>74.2</ele>
        <time>2024-10-13T07:57:01Z</time>
      </trkpt>
      <trkpt lat="49.22366" lon="0.24638">
        <ele>74.2</ele>
        <time>2024-10-13T07:57:02Z</time>
      </trkpt>
      <trkpt lat="49.22364" lon="0.24643">
        <ele>74.2</ele>
        <time>2024-10-13T07:57:03Z</time>
      </trkpt>
      <trkpt lat="49.22362" lon="0.24648">
        <ele>74.2</ele>
        <time>2024-10-13T07:57:04Z</time>
      </trkpt>
      <trkpt lat="49.22361" lon="0.24652">
        <ele>74.2</ele>
        <time>2024-10-13T07:57:05Z</time>
      </trkpt>
      <trkpt lat="49.22359" lon="0.24657">
        <ele>74.2</ele>
        <time>2024-10-13T07:57:06Z</time>
      </trkpt>
      <trkpt lat="49.22358" lon="0.24661">
        <ele>74.2</ele>
        <time>2024-10-13T07:57:07Z</time>
      </trkpt>
      <trkpt lat="49.22357" lon="0.24665">
        <ele>74.2</ele>
        <time>2024-10-13T07:57:08Z</time>
      </trkpt>
      <trkpt lat="49.22356" lon="0.24669">
        <ele>74.2</ele>
        <time>2024-10-13T07:57:09Z</time>
      </trkpt>
      <trkpt lat="49.22355" lon="0.24674">
        <ele>74</ele>
        <time>2024-10-13T07:57:10Z</time>
      </trkpt>
      <trkpt lat="49.22354" lon="0.24678">
        <ele>74</ele>
        <time>2024-10-13T07:57:11Z</time>
      </trkpt>
      <trkpt lat="49.22352" lon="0.24682">
        <ele>74</ele>
        <time>2024-10-13T07:57:12Z</time>
      </trkpt>
      <trkpt lat="49.22351" lon="0.24684">
        <ele>74</ele>
        <time>2024-10-13T07:57:13Z</time>
      </trkpt>
      <trkpt lat="49.22349" lon="0.24687">
        <ele>73.8</ele>
        <time>2024-10-13T07:57:14Z</time>
      </trkpt>
      <trkpt lat="49.22348" lon="0.2469">
        <ele>73.8</ele>
        <time>2024-10-13T07:57:15Z</time>
      </trkpt>
      <trkpt lat="49.22347" lon="0.24693">
        <ele>73.8</ele>
        <time>2024-10-13T07:57:16Z</time>
      </trkpt>
      <trkpt lat="49.22346" lon="0.24696">
        <ele>73.8</ele>
        <time>2024-10-13T07:57:17Z</time>
      </trkpt>
      <trkpt lat="49.22345" lon="0.247">
        <ele>73.6</ele>
        <time>2024-10-13T07:57:18Z</time>
      </trkpt>
      <trkpt lat="49.22344" lon="0.24703">
        <ele>73.6</ele>
        <time>2024-10-13T07:57:19Z</time>
      </trkpt>
      <trkpt lat="49.22343" lon="0.24707">
        <ele>73.6</ele>
        <time>2024-10-13T07:57:20Z</time>
      </trkpt>
      <trkpt lat="49.22342" lon="0.2471">
        <ele>73.6</ele>
        <time>2024-10-13T07:57:21Z</time>
      </trkpt>
      <trkpt lat="49.2234" lon="0.24713">
        <ele>73.4</ele>
        <time>2024-10-13T07:57:22Z</time>
      </trkpt>
      <trkpt lat="49.22339" lon="0.24717">
        <ele>73.4</ele>
        <time>2024-10-13T07:57:23Z</time>
      </trkpt>
      <trkpt lat="49.22337" lon="0.24721">
        <ele>73.4</ele>
        <time>2024-10-13T07:57:24Z</time>
      </trkpt>
      <trkpt lat="49.22335" lon="0.24725">
        <ele>73.2</ele>
        <time>2024-10-13T07:57:25Z</time>
      </trkpt>
      <trkpt lat="49.22333" lon="0.24729">
        <ele>73.2</ele>
        <time>2024-10-13T07:57:26Z</time>
      </trkpt>
      <trkpt lat="49.22331" lon="0.24734">
        <ele>73.2</ele>
        <time>2024-10-13T07:57:27Z</time>
      </trkpt>
      <trkpt lat="49.22329" lon="0.24738">
        <ele>73.2</ele>
        <time>2024-10-13T07:57:28Z</time>
      </trkpt>
      <trkpt lat="49.22327" lon="0.24743">
        <ele>73.2</ele>
        <time>2024-10-13T07:57:29Z</time>
      </trkpt>
      <trkpt lat="49.22324" lon="0.24747">
        <ele>73</ele>
        <time>2024-10-13T07:57:30Z</time>
      </trkpt>
      <trkpt lat="49.22322" lon="0.24752">
        <ele>73</ele>
        <time>2024-10-13T07:57:31Z</time>
      </trkpt>
      <trkpt lat="49.2232" lon="0.24756">
        <ele>72.8</ele>
        <time>2024-10-13T07:57:32Z</time>
      </trkpt>
      <trkpt lat="49.22318" lon="0.2476">
        <ele>72.8</ele>
        <time>2024-10-13T07:57:33Z</time>
      </trkpt>
      <trkpt lat="49.22315" lon="0.24765">
        <ele>72.8</ele>
        <time>2024-10-13T07:57:34Z</time>
      </trkpt>
      <trkpt lat="49.22312" lon="0.2477">
        <ele>72.6</ele>
        <time>2024-10-13T07:57:35Z</time>
      </trkpt>
      <trkpt lat="49.22309" lon="0.24775">
        <ele>72.6</ele>
        <time>2024-10-13T07:57:36Z</time>
      </trkpt>
      <trkpt lat="49.22306" lon="0.24781">
        <ele>72.4</ele>
        <time>2024-10-13T07:57:37Z</time>
      </trkpt>
      <trkpt lat="49.22302" lon="0.24786">
        <ele>72.4</ele>
        <time>2024-10-13T07:57:38Z</time>
      </trkpt>
      <trkpt lat="49.22299" lon="0.24791">
        <ele>72.4</ele>
        <time>2024-10-13T07:57:39Z</time>
      </trkpt>
      <trkpt lat="49.22295" lon="0.24796">
        <ele>72.2</ele>
        <time>2024-10-13T07:57:40Z</time>
      </trkpt>
      <trkpt lat="49.22292" lon="0.24801">
        <ele>72.2</ele>
        <time>2024-10-13T07:57:41Z</time>
      </trkpt>
      <trkpt lat="49.22289" lon="0.24806">
        <ele>72.2</ele>
        <time>2024-10-13T07:57:42Z</time>
      </trkpt>
      <trkpt lat="49.22285" lon="0.24811">
        <ele>72.2</ele>
        <time>2024-10-13T07:57:43Z</time>
      </trkpt>
      <trkpt lat="49.22281" lon="0.24815">
        <ele>72</ele>
        <time>2024-10-13T07:57:44Z</time>
      </trkpt>
      <trkpt lat="49.22278" lon="0.2482">
        <ele>72</ele>
        <time>2024-10-13T07:57:45Z</time>
      </trkpt>
      <trkpt lat="49.22274" lon="0.24824">
        <ele>72</ele>
        <time>2024-10-13T07:57:46Z</time>
      </trkpt>
      <trkpt lat="49.2227" lon="0.24828">
        <ele>72</ele>
        <time>2024-10-13T07:57:47Z</time>
      </trkpt>
      <trkpt lat="49.22266" lon="0.24833">
        <ele>72</ele>
        <time>2024-10-13T07:57:48Z</time>
      </trkpt>
      <trkpt lat="49.22262" lon="0.24838">
        <ele>71.8</ele>
        <time>2024-10-13T07:57:49Z</time>
      </trkpt>
      <trkpt lat="49.22257" lon="0.24842">
        <ele>71.8</ele>
        <time>2024-10-13T07:57:50Z</time>
      </trkpt>
      <trkpt lat="49.22253" lon="0.24847">
        <ele>71.8</ele>
        <time>2024-10-13T07:57:51Z</time>
      </trkpt>
      <trkpt lat="49.22247" lon="0.24852">
        <ele>71.8</ele>
        <time>2024-10-13T07:57:52Z</time>
      </trkpt>
      <trkpt lat="49.22242" lon="0.24857">
        <ele>71.8</ele>
        <time>2024-10-13T07:57:53Z</time>
      </trkpt>
      <trkpt lat="49.22237" lon="0.24862">
        <ele>71.6</ele>
        <time>2024-10-13T07:57:54Z</time>
      </trkpt>
      <trkpt lat="49.22231" lon="0.24867">
        <ele>71.6</ele>
        <time>2024-10-13T07:57:55Z</time>
      </trkpt>
      <trkpt lat="49.22225" lon="0.24873">
        <ele>71.6</ele>
        <time>2024-10-13T07:57:56Z</time>
      </trkpt>
      <trkpt lat="49.22219" lon="0.24879">
        <ele>71.6</ele>
        <time>2024-10-13T07:57:57Z</time>
      </trkpt>
      <trkpt lat="49.22213" lon="0.24885">
        <ele>71.4</ele>
        <time>2024-10-13T07:57:58Z</time>
      </trkpt>
      <trkpt lat="49.22207" lon="0.24892">
        <ele>71.4</ele>
        <time>2024-10-13T07:57:59Z</time>
      </trkpt>
      <trkpt lat="49.22201" lon="0.24899">
        <ele>71</ele>
        <time>2024-10-13T07:58:00Z</time>
      </trkpt>
      <trkpt lat="49.22194" lon="0.24905">
        <ele>70.8</ele>
        <time>2024-10-13T07:58:01Z</time>
      </trkpt>
      <trkpt lat="49.22189" lon="0.24913">
        <ele>70.4</ele>
        <time>2024-10-13T07:58:02Z</time>
      </trkpt>
      <trkpt lat="49.22183" lon="0.24921">
        <ele>70.2</ele>
        <time>2024-10-13T07:58:03Z</time>
      </trkpt>
      <trkpt lat="49.22179" lon="0.24929">
        <ele>70.2</ele>
        <time>2024-10-13T07:58:04Z</time>
      </trkpt>
      <trkpt lat="49.22175" lon="0.24938">
        <ele>70.2</ele>
        <time>2024-10-13T07:58:05Z</time>
      </trkpt>
      <trkpt lat="49.22171" lon="0.24946">
        <ele>70</ele>
        <time>2024-10-13T07:58:06Z</time>
      </trkpt>
      <trkpt lat="49.22167" lon="0.24955">
        <ele>70</ele>
        <time>2024-10-13T07:58:07Z</time>
      </trkpt>
      <trkpt lat="49.22164" lon="0.24964">
        <ele>70</ele>
        <time>2024-10-13T07:58:08Z</time>
      </trkpt>
      <trkpt lat="49.22162" lon="0.24972">
        <ele>70</ele>
        <time>2024-10-13T07:58:09Z</time>
      </trkpt>
      <trkpt lat="49.22159" lon="0.2498">
        <ele>70</ele>
        <time>2024-10-13T07:58:10Z</time>
      </trkpt>
      <trkpt lat="49.22158" lon="0.24988">
        <ele>70</ele>
        <time>2024-10-13T07:58:11Z</time>
      </trkpt>
      <trkpt lat="49.22155" lon="0.24996">
        <ele>70</ele>
        <time>2024-10-13T07:58:12Z</time>
      </trkpt>
      <trkpt lat="49.22152" lon="0.25004">
        <ele>70</ele>
        <time>2024-10-13T07:58:13Z</time>
      </trkpt>
      <trkpt lat="49.22149" lon="0.25011">
        <ele>70.2</ele>
        <time>2024-10-13T07:58:14Z</time>
      </trkpt>
      <trkpt lat="49.22146" lon="0.25018">
        <ele>70.2</ele>
        <time>2024-10-13T07:58:15Z</time>
      </trkpt>
      <trkpt lat="49.22143" lon="0.25024">
        <ele>70.4</ele>
        <time>2024-10-13T07:58:16Z</time>
      </trkpt>
      <trkpt lat="49.2214" lon="0.2503">
        <ele>70.6</ele>
        <time>2024-10-13T07:58:17Z</time>
      </trkpt>
      <trkpt lat="49.22137" lon="0.25036">
        <ele>71</ele>
        <time>2024-10-13T07:58:18Z</time>
      </trkpt>
      <trkpt lat="49.22133" lon="0.25042">
        <ele>71.2</ele>
        <time>2024-10-13T07:58:19Z</time>
      </trkpt>
      <trkpt lat="49.22131" lon="0.25048">
        <ele>71.6</ele>
        <time>2024-10-13T07:58:20Z</time>
      </trkpt>
      <trkpt lat="49.22128" lon="0.25053">
        <ele>72</ele>
        <time>2024-10-13T07:58:21Z</time>
      </trkpt>
      <trkpt lat="49.22124" lon="0.25058">
        <ele>72.4</ele>
        <time>2024-10-13T07:58:22Z</time>
      </trkpt>
      <trkpt lat="49.22121" lon="0.25064">
        <ele>72.6</ele>
        <time>2024-10-13T07:58:23Z</time>
      </trkpt>
      <trkpt lat="49.22118" lon="0.25069">
        <ele>73</ele>
        <time>2024-10-13T07:58:24Z</time>
      </trkpt>
      <trkpt lat="49.22114" lon="0.25074">
        <ele>73.6</ele>
        <time>2024-10-13T07:58:25Z</time>
      </trkpt>
      <trkpt lat="49.22111" lon="0.25078">
        <ele>74</ele>
        <time>2024-10-13T07:58:26Z</time>
      </trkpt>
      <trkpt lat="49.22108" lon="0.25083">
        <ele>74.4</ele>
        <time>2024-10-13T07:58:27Z</time>
      </trkpt>
      <trkpt lat="49.22105" lon="0.25088">
        <ele>74.8</ele>
        <time>2024-10-13T07:58:28Z</time>
      </trkpt>
      <trkpt lat="49.22101" lon="0.25092">
        <ele>75</ele>
        <time>2024-10-13T07:58:29Z</time>
      </trkpt>
      <trkpt lat="49.22098" lon="0.25096">
        <ele>75.4</ele>
        <time>2024-10-13T07:58:30Z</time>
      </trkpt>
      <trkpt lat="49.22095" lon="0.25099">
        <ele>75.8</ele>
        <time>2024-10-13T07:58:31Z</time>
      </trkpt>
      <trkpt lat="49.22091" lon="0.25104">
        <ele>76</ele>
        <time>2024-10-13T07:58:32Z</time>
      </trkpt>
      <trkpt lat="49.22088" lon="0.25109">
        <ele>76.2</ele>
        <time>2024-10-13T07:58:33Z</time>
      </trkpt>
      <trkpt lat="49.22086" lon="0.25113">
        <ele>76.4</ele>
        <time>2024-10-13T07:58:34Z</time>
      </trkpt>
      <trkpt lat="49.22083" lon="0.25117">
        <ele>76.8</ele>
        <time>2024-10-13T07:58:35Z</time>
      </trkpt>
      <trkpt lat="49.2208" lon="0.25122">
        <ele>77</ele>
        <time>2024-10-13T07:58:36Z</time>
      </trkpt>
      <trkpt lat="49.22077" lon="0.25126">
        <ele>77.4</ele>
        <time>2024-10-13T07:58:37Z</time>
      </trkpt>
      <trkpt lat="49.22074" lon="0.2513">
        <ele>77.8</ele>
        <time>2024-10-13T07:58:38Z</time>
      </trkpt>
      <trkpt lat="49.2207" lon="0.25133">
        <ele>78</ele>
        <time>2024-10-13T07:58:39Z</time>
      </trkpt>
      <trkpt lat="49.22067" lon="0.25137">
        <ele>78.4</ele>
        <time>2024-10-13T07:58:40Z</time>
      </trkpt>
      <trkpt lat="49.22064" lon="0.2514">
        <ele>78.6</ele>
        <time>2024-10-13T07:58:41Z</time>
      </trkpt>
      <trkpt lat="49.22061" lon="0.25144">
        <ele>78.8</ele>
        <time>2024-10-13T07:58:42Z</time>
      </trkpt>
      <trkpt lat="49.22058" lon="0.25147">
        <ele>79</ele>
        <time>2024-10-13T07:58:43Z</time>
      </trkpt>
      <trkpt lat="49.22054" lon="0.25151">
        <ele>79.2</ele>
        <time>2024-10-13T07:58:44Z</time>
      </trkpt>
      <trkpt lat="49.22051" lon="0.25154">
        <ele>79.4</ele>
        <time>2024-10-13T07:58:45Z</time>
      </trkpt>
      <trkpt lat="49.22048" lon="0.25157">
        <ele>79.6</ele>
        <time>2024-10-13T07:58:46Z</time>
      </trkpt>
      <trkpt lat="49.22045" lon="0.2516">
        <ele>79.8</ele>
        <time>2024-10-13T07:58:47Z</time>
      </trkpt>
      <trkpt lat="49.22043" lon="0.25163">
        <ele>80</ele>
        <time>2024-10-13T07:58:48Z</time>
      </trkpt>
      <trkpt lat="49.2204" lon="0.25166">
        <ele>80.4</ele>
        <time>2024-10-13T07:58:49Z</time>
      </trkpt>
      <trkpt lat="49.22037" lon="0.25169">
        <ele>80.4</ele>
        <time>2024-10-13T07:58:50Z</time>
      </trkpt>
      <trkpt lat="49.22035" lon="0.25172">
        <ele>80.8</ele>
        <time>2024-10-13T07:58:51Z</time>
      </trkpt>
      <trkpt lat="49.22032" lon="0.25175">
        <ele>81</ele>
        <time>2024-10-13T07:58:52Z</time>
      </trkpt>
      <trkpt lat="49.22029" lon="0.25178">
        <ele>81.4</ele>
        <time>2024-10-13T07:58:53Z</time>
      </trkpt>
      <trkpt lat="49.22026" lon="0.25182">
        <ele>81.6</ele>
        <time>2024-10-13T07:58:54Z</time>
      </trkpt>
      <trkpt lat="49.22024" lon="0.25184">
        <ele>82</ele>
        <time>2024-10-13T07:58:55Z</time>
      </trkpt>
      <trkpt lat="49.22023" lon="0.25186">
        <ele>82.2</ele>
        <time>2024-10-13T07:58:56Z</time>
      </trkpt>
      <trkpt lat="49.22021" lon="0.25189">
        <ele>82.6</ele>
        <time>2024-10-13T07:58:57Z</time>
      </trkpt>
      <trkpt lat="49.22019" lon="0.25192">
        <ele>82.8</ele>
        <time>2024-10-13T07:58:58Z</time>
      </trkpt>
      <trkpt lat="49.22017" lon="0.25195">
        <ele>83</ele>
        <time>2024-10-13T07:58:59Z</time>
      </trkpt>
      <trkpt lat="49.22015" lon="0.25198">
        <ele>83.4</ele>
        <time>2024-10-13T07:59:00Z</time>
      </trkpt>
      <trkpt lat="49.22013" lon="0.25201">
        <ele>83.6</ele>
        <time>2024-10-13T07:59:01Z</time>
      </trkpt>
      <trkpt lat="49.22011" lon="0.25204">
        <ele>83.8</ele>
        <time>2024-10-13T07:59:02Z</time>
      </trkpt>
      <trkpt lat="49.2201" lon="0.25206">
        <ele>84</ele>
        <time>2024-10-13T07:59:03Z</time>
      </trkpt>
      <trkpt lat="49.22008" lon="0.25209">
        <ele>84.2</ele>
        <time>2024-10-13T07:59:04Z</time>
      </trkpt>
      <trkpt lat="49.22006" lon="0.25212">
        <ele>84.4</ele>
        <time>2024-10-13T07:59:05Z</time>
      </trkpt>
      <trkpt lat="49.22005" lon="0.25215">
        <ele>84.6</ele>
        <time>2024-10-13T07:59:06Z</time>
      </trkpt>
      <trkpt lat="49.22003" lon="0.25218">
        <ele>84.8</ele>
        <time>2024-10-13T07:59:07Z</time>
      </trkpt>
      <trkpt lat="49.22001" lon="0.25222">
        <ele>85</ele>
        <time>2024-10-13T07:59:08Z</time>
      </trkpt>
      <trkpt lat="49.21999" lon="0.25226">
        <ele>85.2</ele>
        <time>2024-10-13T07:59:09Z</time>
      </trkpt>
      <trkpt lat="49.21997" lon="0.25229">
        <ele>85.4</ele>
        <time>2024-10-13T07:59:10Z</time>
      </trkpt>
      <trkpt lat="49.21996" lon="0.25232">
        <ele>85.6</ele>
        <time>2024-10-13T07:59:11Z</time>
      </trkpt>
      <trkpt lat="49.21994" lon="0.25235">
        <ele>85.6</ele>
        <time>2024-10-13T07:59:12Z</time>
      </trkpt>
      <trkpt lat="49.21992" lon="0.25237">
        <ele>85.8</ele>
        <time>2024-10-13T07:59:13Z</time>
      </trkpt>
      <trkpt lat="49.2199" lon="0.2524">
        <ele>86</ele>
        <time>2024-10-13T07:59:14Z</time>
      </trkpt>
      <trkpt lat="49.21989" lon="0.25244">
        <ele>86.2</ele>
        <time>2024-10-13T07:59:15Z</time>
      </trkpt>
      <trkpt lat="49.21987" lon="0.25247">
        <ele>86.4</ele>
        <time>2024-10-13T07:59:16Z</time>
      </trkpt>
      <trkpt lat="49.21986" lon="0.25252">
        <ele>86.6</ele>
        <time>2024-10-13T07:59:17Z</time>
      </trkpt>
      <trkpt lat="49.21984" lon="0.25256">
        <ele>86.8</ele>
        <time>2024-10-13T07:59:18Z</time>
      </trkpt>
      <trkpt lat="49.21981" lon="0.25261">
        <ele>87</ele>
        <time>2024-10-13T07:59:19Z</time>
      </trkpt>
      <trkpt lat="49.21979" lon="0.25265">
        <ele>87.2</ele>
        <time>2024-10-13T07:59:20Z</time>
      </trkpt>
      <trkpt lat="49.21977" lon="0.25271">
        <ele>87.4</ele>
        <time>2024-10-13T07:59:21Z</time>
      </trkpt>
      <trkpt lat="49.21975" lon="0.25277">
        <ele>87.4</ele>
        <time>2024-10-13T07:59:22Z</time>
      </trkpt>
      <trkpt lat="49.21972" lon="0.25283">
        <ele>87.6</ele>
        <time>2024-10-13T07:59:23Z</time>
      </trkpt>
      <trkpt lat="49.21969" lon="0.25289">
        <ele>87.8</ele>
        <time>2024-10-13T07:59:24Z</time>
      </trkpt>
      <trkpt lat="49.21966" lon="0.25296">
        <ele>87.8</ele>
        <time>2024-10-13T07:59:25Z</time>
      </trkpt>
      <trkpt lat="49.21963" lon="0.25303">
        <ele>88</ele>
        <time>2024-10-13T07:59:26Z</time>
      </trkpt>
      <trkpt lat="49.21961" lon="0.25309">
        <ele>88</ele>
        <time>2024-10-13T07:59:27Z</time>
      </trkpt>
      <trkpt lat="49.21959" lon="0.25316">
        <ele>88</ele>
        <time>2024-10-13T07:59:28Z</time>
      </trkpt>
      <trkpt lat="49.21955" lon="0.25323">
        <ele>88</ele>
        <time>2024-10-13T07:59:29Z</time>
      </trkpt>
      <trkpt lat="49.21953" lon="0.2533">
        <ele>88.2</ele>
        <time>2024-10-13T07:59:30Z</time>
      </trkpt>
      <trkpt lat="49.2195" lon="0.25337">
        <ele>88.2</ele>
        <time>2024-10-13T07:59:31Z</time>
      </trkpt>
      <trkpt lat="49.21946" lon="0.25345">
        <ele>88.2</ele>
        <time>2024-10-13T07:59:32Z</time>
      </trkpt>
      <trkpt lat="49.21944" lon="0.25352">
        <ele>88.2</ele>
        <time>2024-10-13T07:59:33Z</time>
      </trkpt>
      <trkpt lat="49.21941" lon="0.2536">
        <ele>88.2</ele>
        <time>2024-10-13T07:59:34Z</time>
      </trkpt>
      <trkpt lat="49.21939" lon="0.25367">
        <ele>88.2</ele>
        <time>2024-10-13T07:59:35Z</time>
      </trkpt>
      <trkpt lat="49.21937" lon="0.25374">
        <ele>88.2</ele>
        <time>2024-10-13T07:59:36Z</time>
      </trkpt>
      <trkpt lat="49.21934" lon="0.25382">
        <ele>88</ele>
        <time>2024-10-13T07:59:37Z</time>
      </trkpt>
      <trkpt lat="49.21931" lon="0.25389">
        <ele>88</ele>
        <time>2024-10-13T07:59:38Z</time>
      </trkpt>
      <trkpt lat="49.21928" lon="0.25397">
        <ele>88</ele>
        <time>2024-10-13T07:59:39Z</time>
      </trkpt>
      <trkpt lat="49.21926" lon="0.25404">
        <ele>88</ele>
        <time>2024-10-13T07:59:40Z</time>
      </trkpt>
      <trkpt lat="49.21923" lon="0.25412">
        <ele>87.8</ele>
        <time>2024-10-13T07:59:41Z</time>
      </trkpt>
      <trkpt lat="49.2192" lon="0.25419">
        <ele>87.8</ele>
        <time>2024-10-13T07:59:42Z</time>
      </trkpt>
      <trkpt lat="49.21918" lon="0.25427">
        <ele>87.8</ele>
        <time>2024-10-13T07:59:43Z</time>
      </trkpt>
      <trkpt lat="49.21914" lon="0.25435">
        <ele>87.6</ele>
        <time>2024-10-13T07:59:44Z</time>
      </trkpt>
      <trkpt lat="49.21911" lon="0.25443">
        <ele>87.8</ele>
        <time>2024-10-13T07:59:45Z</time>
      </trkpt>
      <trkpt lat="49.21908" lon="0.25452">
        <ele>87.8</ele>
        <time>2024-10-13T07:59:46Z</time>
      </trkpt>
      <trkpt lat="49.21905" lon="0.2546">
        <ele>87.4</ele>
        <time>2024-10-13T07:59:47Z</time>
      </trkpt>
      <trkpt lat="49.21902" lon="0.25469">
        <ele>87.4</ele>
        <time>2024-10-13T07:59:48Z</time>
      </trkpt>
      <trkpt lat="49.21898" lon="0.25477">
        <ele>87.4</ele>
        <time>2024-10-13T07:59:49Z</time>
      </trkpt>
      <trkpt lat="49.21893" lon="0.25486">
        <ele>87.4</ele>
        <time>2024-10-13T07:59:50Z</time>
      </trkpt>
      <trkpt lat="49.2189" lon="0.25492">
        <ele>87.4</ele>
        <time>2024-10-13T07:59:51Z</time>
      </trkpt>
      <trkpt lat="49.21886" lon="0.255">
        <ele>87.4</ele>
        <time>2024-10-13T07:59:52Z</time>
      </trkpt>
      <trkpt lat="49.21881" lon="0.25508">
        <ele>87.4</ele>
        <time>2024-10-13T07:59:53Z</time>
      </trkpt>
      <trkpt lat="49.21878" lon="0.25514">
        <ele>87.4</ele>
        <time>2024-10-13T07:59:54Z</time>
      </trkpt>
      <trkpt lat="49.21874" lon="0.25521">
        <ele>87.4</ele>
        <time>2024-10-13T07:59:55Z</time>
      </trkpt>
      <trkpt lat="49.21869" lon="0.25529">
        <ele>87.4</ele>
        <time>2024-10-13T07:59:56Z</time>
      </trkpt>
      <trkpt lat="49.21866" lon="0.25534">
        <ele>87.4</ele>
        <time>2024-10-13T07:59:57Z</time>
      </trkpt>
      <trkpt lat="49.21863" lon="0.25541">
        <ele>87.4</ele>
        <time>2024-10-13T07:59:58Z</time>
      </trkpt>
      <trkpt lat="49.21857" lon="0.25549">
        <ele>87.4</ele>
        <time>2024-10-13T07:59:59Z</time>
      </trkpt>
      <trkpt lat="49.21854" lon="0.25555">
        <ele>87.4</ele>
        <time>2024-10-13T08:00:00Z</time>
      </trkpt>
      <trkpt lat="49.21849" lon="0.25563">
        <ele>87.6</ele>
        <time>2024-10-13T08:00:01Z</time>
      </trkpt>
      <trkpt lat="49.21845" lon="0.2557">
        <ele>87.8</ele>
        <time>2024-10-13T08:00:02Z</time>
      </trkpt>
      <trkpt lat="49.21841" lon="0.25576">
        <ele>88</ele>
        <time>2024-10-13T08:00:03Z</time>
      </trkpt>
      <trkpt lat="49.21837" lon="0.25583">
        <ele>88.2</ele>
        <time>2024-10-13T08:00:04Z</time>
      </trkpt>
      <trkpt lat="49.21834" lon="0.25589">
        <ele>88.2</ele>
        <time>2024-10-13T08:00:05Z</time>
      </trkpt>
      <trkpt lat="49.2183" lon="0.25595">
        <ele>88.4</ele>
        <time>2024-10-13T08:00:06Z</time>
      </trkpt>
      <trkpt lat="49.21827" lon="0.256">
        <ele>88.6</ele>
        <time>2024-10-13T08:00:07Z</time>
      </trkpt>
      <trkpt lat="49.21822" lon="0.25607">
        <ele>88.8</ele>
        <time>2024-10-13T08:00:08Z</time>
      </trkpt>
      <trkpt lat="49.21819" lon="0.25613">
        <ele>89</ele>
        <time>2024-10-13T08:00:09Z</time>
      </trkpt>
      <trkpt lat="49.21816" lon="0.25619">
        <ele>89.2</ele>
        <time>2024-10-13T08:00:10Z</time>
      </trkpt>
      <trkpt lat="49.21813" lon="0.25625">
        <ele>89.4</ele>
        <time>2024-10-13T08:00:11Z</time>
      </trkpt>
      <trkpt lat="49.2181" lon="0.2563">
        <ele>90</ele>
        <time>2024-10-13T08:00:12Z</time>
      </trkpt>
      <trkpt lat="49.21807" lon="0.25636">
        <ele>90.2</ele>
        <time>2024-10-13T08:00:13Z</time>
      </trkpt>
      <trkpt lat="49.21804" lon="0.25642">
        <ele>90.4</ele>
        <time>2024-10-13T08:00:14Z</time>
      </trkpt>
      <trkpt lat="49.21801" lon="0.25647">
        <ele>90.6</ele>
        <time>2024-10-13T08:00:15Z</time>
      </trkpt>
      <trkpt lat="49.21799" lon="0.25653">
        <ele>90.6</ele>
        <time>2024-10-13T08:00:16Z</time>
      </trkpt>
      <trkpt lat="49.21796" lon="0.25658">
        <ele>90.8</ele>
        <time>2024-10-13T08:00:17Z</time>
      </trkpt>
      <trkpt lat="49.21793" lon="0.25664">
        <ele>91</ele>
        <time>2024-10-13T08:00:18Z</time>
      </trkpt>
      <trkpt lat="49.21791" lon="0.2567">
        <ele>91.2</ele>
        <time>2024-10-13T08:00:19Z</time>
      </trkpt>
      <trkpt lat="49.21789" lon="0.25677">
        <ele>91.6</ele>
        <time>2024-10-13T08:00:20Z</time>
      </trkpt>
      <trkpt lat="49.21786" lon="0.25683">
        <ele>91.8</ele>
        <time>2024-10-13T08:00:21Z</time>
      </trkpt>
      <trkpt lat="49.21784" lon="0.25689">
        <ele>92</ele>
        <time>2024-10-13T08:00:22Z</time>
      </trkpt>
      <trkpt lat="49.21783" lon="0.25695">
        <ele>92.2</ele>
        <time>2024-10-13T08:00:23Z</time>
      </trkpt>
      <trkpt lat="49.21781" lon="0.25701">
        <ele>92.6</ele>
        <time>2024-10-13T08:00:24Z</time>
      </trkpt>
      <trkpt lat="49.21779" lon="0.25707">
        <ele>92.8</ele>
        <time>2024-10-13T08:00:25Z</time>
      </trkpt>
      <trkpt lat="49.21778" lon="0.25714">
        <ele>93</ele>
        <time>2024-10-13T08:00:26Z</time>
      </trkpt>
      <trkpt lat="49.21776" lon="0.2572">
        <ele>93.2</ele>
        <time>2024-10-13T08:00:27Z</time>
      </trkpt>
      <trkpt lat="49.21774" lon="0.25726">
        <ele>93.4</ele>
        <time>2024-10-13T08:00:28Z</time>
      </trkpt>
      <trkpt lat="49.21773" lon="0.25732">
        <ele>93.6</ele>
        <time>2024-10-13T08:00:29Z</time>
      </trkpt>
      <trkpt lat="49.21771" lon="0.25738">
        <ele>93.6</ele>
        <time>2024-10-13T08:00:30Z</time>
      </trkpt>
      <trkpt lat="49.21769" lon="0.25743">
        <ele>93.8</ele>
        <time>2024-10-13T08:00:31Z</time>
      </trkpt>
      <trkpt lat="49.21767" lon="0.25749">
        <ele>94</ele>
        <time>2024-10-13T08:00:32Z</time>
      </trkpt>
      <trkpt lat="49.21764" lon="0.25755">
        <ele>94.2</ele>
        <time>2024-10-13T08:00:33Z</time>
      </trkpt>
      <trkpt lat="49.21762" lon="0.2576">
        <ele>94.4</ele>
        <time>2024-10-13T08:00:34Z</time>
      </trkpt>
      <trkpt lat="49.2176" lon="0.25766">
        <ele>94.6</ele>
        <time>2024-10-13T08:00:35Z</time>
      </trkpt>
      <trkpt lat="49.21757" lon="0.25771">
        <ele>94.8</ele>
        <time>2024-10-13T08:00:36Z</time>
      </trkpt>
      <trkpt lat="49.21754" lon="0.25776">
        <ele>95</ele>
        <time>2024-10-13T08:00:37Z</time>
      </trkpt>
      <trkpt lat="49.21751" lon="0.25781">
        <ele>95</ele>
        <time>2024-10-13T08:00:38Z</time>
      </trkpt>
      <trkpt lat="49.21749" lon="0.25786">
        <ele>95.2</ele>
        <time>2024-10-13T08:00:39Z</time>
      </trkpt>
      <trkpt lat="49.21746" lon="0.25791">
        <ele>95.4</ele>
        <time>2024-10-13T08:00:40Z</time>
      </trkpt>
      <trkpt lat="49.21743" lon="0.25796">
        <ele>95.4</ele>
        <time>2024-10-13T08:00:41Z</time>
      </trkpt>
      <trkpt lat="49.2174" lon="0.258">
        <ele>95.6</ele>
        <time>2024-10-13T08:00:42Z</time>
      </trkpt>
      <trkpt lat="49.21737" lon="0.25805">
        <ele>95.8</ele>
        <time>2024-10-13T08:00:43Z</time>
      </trkpt>
      <trkpt lat="49.21734" lon="0.25809">
        <ele>96</ele>
        <time>2024-10-13T08:00:44Z</time>
      </trkpt>
      <trkpt lat="49.21731" lon="0.25813">
        <ele>96.2</ele>
        <time>2024-10-13T08:00:45Z</time>
      </trkpt>
      <trkpt lat="49.21727" lon="0.25817">
        <ele>96</ele>
        <time>2024-10-13T08:00:46Z</time>
      </trkpt>
      <trkpt lat="49.21724" lon="0.25822">
        <ele>96.2</ele>
        <time>2024-10-13T08:00:47Z</time>
      </trkpt>
      <trkpt lat="49.21722" lon="0.25826">
        <ele>96.4</ele>
        <time>2024-10-13T08:00:48Z</time>
      </trkpt>
      <trkpt lat="49.21719" lon="0.25831">
        <ele>96.4</ele>
        <time>2024-10-13T08:00:49Z</time>
      </trkpt>
      <trkpt lat="49.21716" lon="0.25834">
        <ele>96.6</ele>
        <time>2024-10-13T08:00:50Z</time>
      </trkpt>
      <trkpt lat="49.21712" lon="0.25838">
        <ele>96.8</ele>
        <time>2024-10-13T08:00:51Z</time>
      </trkpt>
      <trkpt lat="49.21709" lon="0.25843">
        <ele>97</ele>
        <time>2024-10-13T08:00:52Z</time>
      </trkpt>
      <trkpt lat="49.21706" lon="0.25847">
        <ele>97.2</ele>
        <time>2024-10-13T08:00:53Z</time>
      </trkpt>
      <trkpt lat="49.21703" lon="0.25851">
        <ele>97.2</ele>
        <time>2024-10-13T08:00:54Z</time>
      </trkpt>
      <trkpt lat="49.217" lon="0.25856">
        <ele>97.4</ele>
        <time>2024-10-13T08:00:55Z</time>
      </trkpt>
      <trkpt lat="49.21698" lon="0.25861">
        <ele>97.6</ele>
        <time>2024-10-13T08:00:56Z</time>
      </trkpt>
      <trkpt lat="49.21695" lon="0.25865">
        <ele>97.8</ele>
        <time>2024-10-13T08:00:57Z</time>
      </trkpt>
      <trkpt lat="49.21693" lon="0.2587">
        <ele>98.2</ele>
        <time>2024-10-13T08:00:58Z</time>
      </trkpt>
      <trkpt lat="49.21691" lon="0.25875">
        <ele>98.4</ele>
        <time>2024-10-13T08:00:59Z</time>
      </trkpt>
      <trkpt lat="49.21689" lon="0.25881">
        <ele>98.8</ele>
        <time>2024-10-13T08:01:00Z</time>
      </trkpt>
      <trkpt lat="49.21687" lon="0.25886">
        <ele>99</ele>
        <time>2024-10-13T08:01:01Z</time>
      </trkpt>
      <trkpt lat="49.21685" lon="0.25891">
        <ele>99.4</ele>
        <time>2024-10-13T08:01:02Z</time>
      </trkpt>
      <trkpt lat="49.21683" lon="0.25896">
        <ele>99.4</ele>
        <time>2024-10-13T08:01:03Z</time>
      </trkpt>
      <trkpt lat="49.21681" lon="0.25901">
        <ele>99.8</ele>
        <time>2024-10-13T08:01:04Z</time>
      </trkpt>
      <trkpt lat="49.21679" lon="0.25906">
        <ele>100.4</ele>
        <time>2024-10-13T08:01:05Z</time>
      </trkpt>
      <trkpt lat="49.21678" lon="0.25911">
        <ele>100.6</ele>
        <time>2024-10-13T08:01:06Z</time>
      </trkpt>
      <trkpt lat="49.21676" lon="0.25916">
        <ele>100.8</ele>
        <time>2024-10-13T08:01:07Z</time>
      </trkpt>
      <trkpt lat="49.21674" lon="0.25921">
        <ele>101.2</ele>
        <time>2024-10-13T08:01:08Z</time>
      </trkpt>
      <trkpt lat="49.21673" lon="0.25926">
        <ele>101.4</ele>
        <time>2024-10-13T08:01:09Z</time>
      </trkpt>
      <trkpt lat="49.21671" lon="0.25932">
        <ele>101.8</ele>
        <time>2024-10-13T08:01:10Z</time>
      </trkpt>
      <trkpt lat="49.21669" lon="0.25937">
        <ele>102</ele>
        <time>2024-10-13T08:01:11Z</time>
      </trkpt>
      <trkpt lat="49.21668" lon="0.25941">
        <ele>102.2</ele>
        <time>2024-10-13T08:01:12Z</time>
      </trkpt>
      <trkpt lat="49.21666" lon="0.25946">
        <ele>102.4</ele>
        <time>2024-10-13T08:01:13Z</time>
      </trkpt>
      <trkpt lat="49.21665" lon="0.25951">
        <ele>102.8</ele>
        <time>2024-10-13T08:01:14Z</time>
      </trkpt>
      <trkpt lat="49.21663" lon="0.25955">
        <ele>103</ele>
        <time>2024-10-13T08:01:15Z</time>
      </trkpt>
      <trkpt lat="49.21661" lon="0.2596">
        <ele>103.2</ele>
        <time>2024-10-13T08:01:16Z</time>
      </trkpt>
      <trkpt lat="49.21659" lon="0.25965">
        <ele>103.4</ele>
        <time>2024-10-13T08:01:17Z</time>
      </trkpt>
      <trkpt lat="49.21657" lon="0.2597">
        <ele>103.6</ele>
        <time>2024-10-13T08:01:18Z</time>
      </trkpt>
      <trkpt lat="49.21655" lon="0.25975">
        <ele>103.8</ele>
        <time>2024-10-13T08:01:19Z</time>
      </trkpt>
      <trkpt lat="49.21652" lon="0.25979">
        <ele>104</ele>
        <time>2024-10-13T08:01:20Z</time>
      </trkpt>
      <trkpt lat="49.2165" lon="0.25984">
        <ele>104.2</ele>
        <time>2024-10-13T08:01:21Z</time>
      </trkpt>
      <trkpt lat="49.21647" lon="0.25988">
        <ele>104.4</ele>
        <time>2024-10-13T08:01:22Z</time>
      </trkpt>
      <trkpt lat="49.21645" lon="0.25992">
        <ele>104.6</ele>
        <time>2024-10-13T08:01:23Z</time>
      </trkpt>
      <trkpt lat="49.21642" lon="0.25996">
        <ele>104.8</ele>
        <time>2024-10-13T08:01:24Z</time>
      </trkpt>
      <trkpt lat="49.2164" lon="0.26">
        <ele>104.6</ele>
        <time>2024-10-13T08:01:25Z</time>
      </trkpt>
      <trkpt lat="49.21637" lon="0.26004">
        <ele>104.8</ele>
        <time>2024-10-13T08:01:26Z</time>
      </trkpt>
      <trkpt lat="49.21634" lon="0.26008">
        <ele>105.2</ele>
        <time>2024-10-13T08:01:27Z</time>
      </trkpt>
      <trkpt lat="49.21632" lon="0.26013">
        <ele>105.2</ele>
        <time>2024-10-13T08:01:28Z</time>
      </trkpt>
      <trkpt lat="49.21629" lon="0.26018">
        <ele>105.2</ele>
        <time>2024-10-13T08:01:29Z</time>
      </trkpt>
      <trkpt lat="49.21627" lon="0.26022">
        <ele>105.4</ele>
        <time>2024-10-13T08:01:30Z</time>
      </trkpt>
      <trkpt lat="49.21626" lon="0.26027">
        <ele>105.4</ele>
        <time>2024-10-13T08:01:31Z</time>
      </trkpt>
      <trkpt lat="49.21624" lon="0.26031">
        <ele>105.8</ele>
        <time>2024-10-13T08:01:32Z</time>
      </trkpt>
      <trkpt lat="49.21622" lon="0.26035">
        <ele>105.8</ele>
        <time>2024-10-13T08:01:33Z</time>
      </trkpt>
      <trkpt lat="49.2162" lon="0.26038">
        <ele>106</ele>
        <time>2024-10-13T08:01:34Z</time>
      </trkpt>
      <trkpt lat="49.21618" lon="0.26042">
        <ele>106</ele>
        <time>2024-10-13T08:01:35Z</time>
      </trkpt>
      <trkpt lat="49.21616" lon="0.26046">
        <ele>106.2</ele>
        <time>2024-10-13T08:01:36Z</time>
      </trkpt>
      <trkpt lat="49.21614" lon="0.2605">
        <ele>106.2</ele>
        <time>2024-10-13T08:01:37Z</time>
      </trkpt>
      <trkpt lat="49.21612" lon="0.26055">
        <ele>106.4</ele>
        <time>2024-10-13T08:01:38Z</time>
      </trkpt>
      <trkpt lat="49.2161" lon="0.26059">
        <ele>106.6</ele>
        <time>2024-10-13T08:01:39Z</time>
      </trkpt>
      <trkpt lat="49.21608" lon="0.26064">
        <ele>106.8</ele>
        <time>2024-10-13T08:01:40Z</time>
      </trkpt>
      <trkpt lat="49.21606" lon="0.26068">
        <ele>107</ele>
        <time>2024-10-13T08:01:41Z</time>
      </trkpt>
      <trkpt lat="49.21603" lon="0.26072">
        <ele>107</ele>
        <time>2024-10-13T08:01:42Z</time>
      </trkpt>
      <trkpt lat="49.21601" lon="0.26076">
        <ele>107.2</ele>
        <time>2024-10-13T08:01:43Z</time>
      </trkpt>
      <trkpt lat="49.21598" lon="0.26081">
        <ele>107.4</ele>
        <time>2024-10-13T08:01:44Z</time>
      </trkpt>
      <trkpt lat="49.21597" lon="0.26084">
        <ele>107.6</ele>
        <time>2024-10-13T08:01:45Z</time>
      </trkpt>
      <trkpt lat="49.21595" lon="0.26089">
        <ele>107.8</ele>
        <time>2024-10-13T08:01:46Z</time>
      </trkpt>
      <trkpt lat="49.21594" lon="0.26093">
        <ele>107.8</ele>
        <time>2024-10-13T08:01:47Z</time>
      </trkpt>
      <trkpt lat="49.21591" lon="0.26098">
        <ele>108</ele>
        <time>2024-10-13T08:01:48Z</time>
      </trkpt>
      <trkpt lat="49.21589" lon="0.26103">
        <ele>108</ele>
        <time>2024-10-13T08:01:49Z</time>
      </trkpt>
      <trkpt lat="49.21587" lon="0.26109">
        <ele>108.4</ele>
        <time>2024-10-13T08:01:50Z</time>
      </trkpt>
      <trkpt lat="49.21585" lon="0.26113">
        <ele>108.6</ele>
        <time>2024-10-13T08:01:51Z</time>
      </trkpt>
      <trkpt lat="49.21583" lon="0.26118">
        <ele>108.8</ele>
        <time>2024-10-13T08:01:52Z</time>
      </trkpt>
      <trkpt lat="49.21582" lon="0.26121">
        <ele>108.8</ele>
        <time>2024-10-13T08:01:53Z</time>
      </trkpt>
      <trkpt lat="49.21579" lon="0.26125">
        <ele>109.2</ele>
        <time>2024-10-13T08:01:54Z</time>
      </trkpt>
      <trkpt lat="49.21577" lon="0.26129">
        <ele>109.2</ele>
        <time>2024-10-13T08:01:55Z</time>
      </trkpt>
      <trkpt lat="49.21575" lon="0.26134">
        <ele>109.2</ele>
        <time>2024-10-13T08:01:56Z</time>
      </trkpt>
      <trkpt lat="49.21573" lon="0.26139">
        <ele>109.4</ele>
        <time>2024-10-13T08:01:57Z</time>
      </trkpt>
      <trkpt lat="49.21571" lon="0.26142">
        <ele>109.8</ele>
        <time>2024-10-13T08:01:58Z</time>
      </trkpt>
      <trkpt lat="49.21569" lon="0.26146">
        <ele>110</ele>
        <time>2024-10-13T08:01:59Z</time>
      </trkpt>
      <trkpt lat="49.21567" lon="0.26151">
        <ele>110.2</ele>
        <time>2024-10-13T08:02:00Z</time>
      </trkpt>
      <trkpt lat="49.21565" lon="0.26155">
        <ele>110.4</ele>
        <time>2024-10-13T08:02:01Z</time>
      </trkpt>
      <trkpt lat="49.21563" lon="0.2616">
        <ele>110.4</ele>
        <time>2024-10-13T08:02:02Z</time>
      </trkpt>
      <trkpt lat="49.2156" lon="0.26166">
        <ele>110.6</ele>
        <time>2024-10-13T08:02:03Z</time>
      </trkpt>
      <trkpt lat="49.21558" lon="0.2617">
        <ele>110.8</ele>
        <time>2024-10-13T08:02:04Z</time>
      </trkpt>
      <trkpt lat="49.21555" lon="0.26174">
        <ele>111</ele>
        <time>2024-10-13T08:02:05Z</time>
      </trkpt>
      <trkpt lat="49.21553" lon="0.26178">
        <ele>111.2</ele>
        <time>2024-10-13T08:02:06Z</time>
      </trkpt>
      <trkpt lat="49.2155" lon="0.26182">
        <ele>111.4</ele>
        <time>2024-10-13T08:02:07Z</time>
      </trkpt>
      <trkpt lat="49.21547" lon="0.26186">
        <ele>111.6</ele>
        <time>2024-10-13T08:02:08Z</time>
      </trkpt>
      <trkpt lat="49.21545" lon="0.26191">
        <ele>111.8</ele>
        <time>2024-10-13T08:02:09Z</time>
      </trkpt>
      <trkpt lat="49.21543" lon="0.26197">
        <ele>112</ele>
        <time>2024-10-13T08:02:10Z</time>
      </trkpt>
      <trkpt lat="49.21542" lon="0.26201">
        <ele>112.4</ele>
        <time>2024-10-13T08:02:11Z</time>
      </trkpt>
      <trkpt lat="49.2154" lon="0.26204">
        <ele>112.6</ele>
        <time>2024-10-13T08:02:12Z</time>
      </trkpt>
      <trkpt lat="49.21538" lon="0.26207">
        <ele>112.8</ele>
        <time>2024-10-13T08:02:13Z</time>
      </trkpt>
      <trkpt lat="49.21536" lon="0.26209">
        <ele>113</ele>
        <time>2024-10-13T08:02:14Z</time>
      </trkpt>
      <trkpt lat="49.21534" lon="0.26212">
        <ele>113.2</ele>
        <time>2024-10-13T08:02:15Z</time>
      </trkpt>
      <trkpt lat="49.21532" lon="0.26215">
        <ele>113.4</ele>
        <time>2024-10-13T08:02:16Z</time>
      </trkpt>
      <trkpt lat="49.2153" lon="0.26219">
        <ele>113.4</ele>
        <time>2024-10-13T08:02:17Z</time>
      </trkpt>
      <trkpt lat="49.2153" lon="0.26221">
        <ele>113.8</ele>
        <time>2024-10-13T08:02:18Z</time>
      </trkpt>
      <trkpt lat="49.21528" lon="0.26225">
        <ele>114</ele>
        <time>2024-10-13T08:02:19Z</time>
      </trkpt>
      <trkpt lat="49.21527" lon="0.26228">
        <ele>114.2</ele>
        <time>2024-10-13T08:02:20Z</time>
      </trkpt>
      <trkpt lat="49.21525" lon="0.26231">
        <ele>114.6</ele>
        <time>2024-10-13T08:02:21Z</time>
      </trkpt>
      <trkpt lat="49.21523" lon="0.26234">
        <ele>114.8</ele>
        <time>2024-10-13T08:02:22Z</time>
      </trkpt>
      <trkpt lat="49.21521" lon="0.26236">
        <ele>115</ele>
        <time>2024-10-13T08:02:23Z</time>
      </trkpt>
      <trkpt lat="49.21519" lon="0.26239">
        <ele>115.2</ele>
        <time>2024-10-13T08:02:24Z</time>
      </trkpt>
      <trkpt lat="49.21517" lon="0.26242">
        <ele>115.4</ele>
        <time>2024-10-13T08:02:25Z</time>
      </trkpt>
      <trkpt lat="49.21515" lon="0.26246">
        <ele>115.6</ele>
        <time>2024-10-13T08:02:26Z</time>
      </trkpt>
      <trkpt lat="49.21513" lon="0.26248">
        <ele>116</ele>
        <time>2024-10-13T08:02:27Z</time>
      </trkpt>
      <trkpt lat="49.21511" lon="0.2625">
        <ele>116.2</ele>
        <time>2024-10-13T08:02:28Z</time>
      </trkpt>
      <trkpt lat="49.21509" lon="0.26253">
        <ele>116.6</ele>
        <time>2024-10-13T08:02:29Z</time>
      </trkpt>
      <trkpt lat="49.21507" lon="0.26255">
        <ele>116.8</ele>
        <time>2024-10-13T08:02:30Z</time>
      </trkpt>
      <trkpt lat="49.21505" lon="0.26259">
        <ele>117</ele>
        <time>2024-10-13T08:02:31Z</time>
      </trkpt>
      <trkpt lat="49.21503" lon="0.26262">
        <ele>117.2</ele>
        <time>2024-10-13T08:02:32Z</time>
      </trkpt>
      <trkpt lat="49.21501" lon="0.26265">
        <ele>117.4</ele>
        <time>2024-10-13T08:02:33Z</time>
      </trkpt>
      <trkpt lat="49.215" lon="0.26269">
        <ele>117.6</ele>
        <time>2024-10-13T08:02:34Z</time>
      </trkpt>
      <trkpt lat="49.21498" lon="0.26272">
        <ele>118</ele>
        <time>2024-10-13T08:02:35Z</time>
      </trkpt>
      <trkpt lat="49.21496" lon="0.26275">
        <ele>118.4</ele>
        <time>2024-10-13T08:02:36Z</time>
      </trkpt>
      <trkpt lat="49.21494" lon="0.26279">
        <ele>118.6</ele>
        <time>2024-10-13T08:02:37Z</time>
      </trkpt>
      <trkpt lat="49.21492" lon="0.26282">
        <ele>119</ele>
        <time>2024-10-13T08:02:38Z</time>
      </trkpt>
      <trkpt lat="49.21491" lon="0.26285">
        <ele>119.2</ele>
        <time>2024-10-13T08:02:39Z</time>
      </trkpt>
      <trkpt lat="49.2149" lon="0.26288">
        <ele>119.4</ele>
        <time>2024-10-13T08:02:40Z</time>
      </trkpt>
      <trkpt lat="49.21488" lon="0.26291">
        <ele>119.8</ele>
        <time>2024-10-13T08:02:41Z</time>
      </trkpt>
      <trkpt lat="49.21486" lon="0.26294">
        <ele>120</ele>
        <time>2024-10-13T08:02:42Z</time>
      </trkpt>
      <trkpt lat="49.21485" lon="0.26296">
        <ele>120.2</ele>
        <time>2024-10-13T08:02:43Z</time>
      </trkpt>
      <trkpt lat="49.21483" lon="0.263">
        <ele>120.4</ele>
        <time>2024-10-13T08:02:44Z</time>
      </trkpt>
      <trkpt lat="49.21481" lon="0.26303">
        <ele>120.8</ele>
        <time>2024-10-13T08:02:45Z</time>
      </trkpt>
      <trkpt lat="49.21479" lon="0.26307">
        <ele>121</ele>
        <time>2024-10-13T08:02:46Z</time>
      </trkpt>
      <trkpt lat="49.21478" lon="0.26309">
        <ele>121.2</ele>
        <time>2024-10-13T08:02:47Z</time>
      </trkpt>
      <trkpt lat="49.21476" lon="0.26312">
        <ele>121.6</ele>
        <time>2024-10-13T08:02:48Z</time>
      </trkpt>
      <trkpt lat="49.21474" lon="0.26315">
        <ele>121.8</ele>
        <time>2024-10-13T08:02:49Z</time>
      </trkpt>
      <trkpt lat="49.21473" lon="0.26318">
        <ele>122.2</ele>
        <time>2024-10-13T08:02:50Z</time>
      </trkpt>
      <trkpt lat="49.21471" lon="0.26321">
        <ele>122.4</ele>
        <time>2024-10-13T08:02:51Z</time>
      </trkpt>
      <trkpt lat="49.21469" lon="0.26324">
        <ele>122.6</ele>
        <time>2024-10-13T08:02:52Z</time>
      </trkpt>
      <trkpt lat="49.21468" lon="0.26327">
        <ele>122.8</ele>
        <time>2024-10-13T08:02:53Z</time>
      </trkpt>
      <trkpt lat="49.21466" lon="0.26331">
        <ele>123</ele>
        <time>2024-10-13T08:02:54Z</time>
      </trkpt>
      <trkpt lat="49.21465" lon="0.26334">
        <ele>123.2</ele>
        <time>2024-10-13T08:02:55Z</time>
      </trkpt>
      <trkpt lat="49.21463" lon="0.26337">
        <ele>123.6</ele>
        <time>2024-10-13T08:02:56Z</time>
      </trkpt>
      <trkpt lat="49.21462" lon="0.2634">
        <ele>123.8</ele>
        <time>2024-10-13T08:02:57Z</time>
      </trkpt>
      <trkpt lat="49.21461" lon="0.26343">
        <ele>124</ele>
        <time>2024-10-13T08:02:58Z</time>
      </trkpt>
      <trkpt lat="49.21459" lon="0.26345">
        <ele>124.2</ele>
        <time>2024-10-13T08:02:59Z</time>
      </trkpt>
      <trkpt lat="49.21458" lon="0.26347">
        <ele>124.4</ele>
        <time>2024-10-13T08:03:00Z</time>
      </trkpt>
      <trkpt lat="49.21457" lon="0.26349">
        <ele>124.6</ele>
        <time>2024-10-13T08:03:01Z</time>
      </trkpt>
      <trkpt lat="49.21457" lon="0.26351">
        <ele>124.8</ele>
        <time>2024-10-13T08:03:02Z</time>
      </trkpt>
      <trkpt lat="49.21456" lon="0.26354">
        <ele>125</ele>
        <time>2024-10-13T08:03:03Z</time>
      </trkpt>
      <trkpt lat="49.21455" lon="0.26357">
        <ele>125.4</ele>
        <time>2024-10-13T08:03:04Z</time>
      </trkpt>
      <trkpt lat="49.21454" lon="0.2636">
        <ele>125.6</ele>
        <time>2024-10-13T08:03:05Z</time>
      </trkpt>
      <trkpt lat="49.21453" lon="0.26363">
        <ele>125.8</ele>
        <time>2024-10-13T08:03:06Z</time>
      </trkpt>
      <trkpt lat="49.21452" lon="0.26367">
        <ele>126</ele>
        <time>2024-10-13T08:03:07Z</time>
      </trkpt>
      <trkpt lat="49.21452" lon="0.2637">
        <ele>126.2</ele>
        <time>2024-10-13T08:03:08Z</time>
      </trkpt>
      <trkpt lat="49.21451" lon="0.26373">
        <ele>126.4</ele>
        <time>2024-10-13T08:03:09Z</time>
      </trkpt>
      <trkpt lat="49.21451" lon="0.26377">
        <ele>126.6</ele>
        <time>2024-10-13T08:03:10Z</time>
      </trkpt>
      <trkpt lat="49.2145" lon="0.2638">
        <ele>126.8</ele>
        <time>2024-10-13T08:03:11Z</time>
      </trkpt>
      <trkpt lat="49.21449" lon="0.26383">
        <ele>126.8</ele>
        <time>2024-10-13T08:03:12Z</time>
      </trkpt>
      <trkpt lat="49.21448" lon="0.26386">
        <ele>126.8</ele>
        <time>2024-10-13T08:03:13Z</time>
      </trkpt>
      <trkpt lat="49.21448" lon="0.26389">
        <ele>126.8</ele>
        <time>2024-10-13T08:03:14Z</time>
      </trkpt>
      <trkpt lat="49.21448" lon="0.26392">
        <ele>127</ele>
        <time>2024-10-13T08:03:15Z</time>
      </trkpt>
      <trkpt lat="49.21447" lon="0.26395">
        <ele>127</ele>
        <time>2024-10-13T08:03:16Z</time>
      </trkpt>
      <trkpt lat="49.21446" lon="0.26397">
        <ele>127</ele>
        <time>2024-10-13T08:03:17Z</time>
      </trkpt>
      <trkpt lat="49.21445" lon="0.264">
        <ele>127</ele>
        <time>2024-10-13T08:03:18Z</time>
      </trkpt>
      <trkpt lat="49.21444" lon="0.26402">
        <ele>127</ele>
        <time>2024-10-13T08:03:19Z</time>
      </trkpt>
      <trkpt lat="49.21444" lon="0.26405">
        <ele>127</ele>
        <time>2024-10-13T08:03:20Z</time>
      </trkpt>
      <trkpt lat="49.21444" lon="0.26407">
        <ele>127</ele>
        <time>2024-10-13T08:03:21Z</time>
      </trkpt>
      <trkpt lat="49.21443" lon="0.26409">
        <ele>127.2</ele>
        <time>2024-10-13T08:03:22Z</time>
      </trkpt>
      <trkpt lat="49.21442" lon="0.26411">
        <ele>127.2</ele>
        <time>2024-10-13T08:03:23Z</time>
      </trkpt>
      <trkpt lat="49.21442" lon="0.26419">
        <ele>127.6</ele>
        <time>2024-10-13T08:03:27Z</time>
      </trkpt>
      <trkpt lat="49.21441" lon="0.26422">
        <ele>127.6</ele>
        <time>2024-10-13T08:03:28Z</time>
      </trkpt>
      <trkpt lat="49.21441" lon="0.26425">
        <ele>127.6</ele>
        <time>2024-10-13T08:03:29Z</time>
      </trkpt>
      <trkpt lat="49.21441" lon="0.26428">
        <ele>127.8</ele>
        <time>2024-10-13T08:03:30Z</time>
      </trkpt>
      <trkpt lat="49.21442" lon="0.26431">
        <ele>127.8</ele>
        <time>2024-10-13T08:03:31Z</time>
      </trkpt>
      <trkpt lat="49.21441" lon="0.26434">
        <ele>127.8</ele>
        <time>2024-10-13T08:03:32Z</time>
      </trkpt>
      <trkpt lat="49.21441" lon="0.26437">
        <ele>127.8</ele>
        <time>2024-10-13T08:03:33Z</time>
      </trkpt>
      <trkpt lat="49.2144" lon="0.2644">
        <ele>128</ele>
        <time>2024-10-13T08:03:34Z</time>
      </trkpt>
      <trkpt lat="49.2144" lon="0.26443">
        <ele>128</ele>
        <time>2024-10-13T08:03:35Z</time>
      </trkpt>
      <trkpt lat="49.2144" lon="0.26446">
        <ele>128</ele>
        <time>2024-10-13T08:03:36Z</time>
      </trkpt>
      <trkpt lat="49.2144" lon="0.26449">
        <ele>128</ele>
        <time>2024-10-13T08:03:37Z</time>
      </trkpt>
      <trkpt lat="49.21439" lon="0.26452">
        <ele>128</ele>
        <time>2024-10-13T08:03:38Z</time>
      </trkpt>
      <trkpt lat="49.21439" lon="0.26455">
        <ele>128</ele>
        <time>2024-10-13T08:03:39Z</time>
      </trkpt>
      <trkpt lat="49.21439" lon="0.26458">
        <ele>128.2</ele>
        <time>2024-10-13T08:03:40Z</time>
      </trkpt>
      <trkpt lat="49.21438" lon="0.26462">
        <ele>128.2</ele>
        <time>2024-10-13T08:03:41Z</time>
      </trkpt>
      <trkpt lat="49.21438" lon="0.26465">
        <ele>128.2</ele>
        <time>2024-10-13T08:03:42Z</time>
      </trkpt>
      <trkpt lat="49.21437" lon="0.26468">
        <ele>128.4</ele>
        <time>2024-10-13T08:03:43Z</time>
      </trkpt>
      <trkpt lat="49.21437" lon="0.26472">
        <ele>128.4</ele>
        <time>2024-10-13T08:03:44Z</time>
      </trkpt>
      <trkpt lat="49.21437" lon="0.26475">
        <ele>128.6</ele>
        <time>2024-10-13T08:03:45Z</time>
      </trkpt>
      <trkpt lat="49.21436" lon="0.26479">
        <ele>128.6</ele>
        <time>2024-10-13T08:03:46Z</time>
      </trkpt>
      <trkpt lat="49.21435" lon="0.26484">
        <ele>128.8</ele>
        <time>2024-10-13T08:03:47Z</time>
      </trkpt>
      <trkpt lat="49.21435" lon="0.26488">
        <ele>128.8</ele>
        <time>2024-10-13T08:03:48Z</time>
      </trkpt>
      <trkpt lat="49.21435" lon="0.26492">
        <ele>129</ele>
        <time>2024-10-13T08:03:49Z</time>
      </trkpt>
      <trkpt lat="49.21435" lon="0.26496">
        <ele>129</ele>
        <time>2024-10-13T08:03:50Z</time>
      </trkpt>
      <trkpt lat="49.21434" lon="0.265">
        <ele>129</ele>
        <time>2024-10-13T08:03:51Z</time>
      </trkpt>
      <trkpt lat="49.21433" lon="0.26505">
        <ele>129.2</ele>
        <time>2024-10-13T08:03:52Z</time>
      </trkpt>
      <trkpt lat="49.21433" lon="0.26509">
        <ele>129.2</ele>
        <time>2024-10-13T08:03:53Z</time>
      </trkpt>
      <trkpt lat="49.21433" lon="0.26514">
        <ele>129.4</ele>
        <time>2024-10-13T08:03:54Z</time>
      </trkpt>
      <trkpt lat="49.21432" lon="0.26518">
        <ele>129.6</ele>
        <time>2024-10-13T08:03:55Z</time>
      </trkpt>
      <trkpt lat="49.21431" lon="0.26523">
        <ele>129.8</ele>
        <time>2024-10-13T08:03:56Z</time>
      </trkpt>
      <trkpt lat="49.21431" lon="0.26527">
        <ele>130</ele>
        <time>2024-10-13T08:03:57Z</time>
      </trkpt>
      <trkpt lat="49.21429" lon="0.26531">
        <ele>130.2</ele>
        <time>2024-10-13T08:03:58Z</time>
      </trkpt>
      <trkpt lat="49.21428" lon="0.26536">
        <ele>130.4</ele>
        <time>2024-10-13T08:03:59Z</time>
      </trkpt>
      <trkpt lat="49.21427" lon="0.26541">
        <ele>130.6</ele>
        <time>2024-10-13T08:04:00Z</time>
      </trkpt>
      <trkpt lat="49.21427" lon="0.26546">
        <ele>130.6</ele>
        <time>2024-10-13T08:04:01Z</time>
      </trkpt>
      <trkpt lat="49.21427" lon="0.26552">
        <ele>130.8</ele>
        <time>2024-10-13T08:04:02Z</time>
      </trkpt>
      <trkpt lat="49.21426" lon="0.26557">
        <ele>130.8</ele>
        <time>2024-10-13T08:04:03Z</time>
      </trkpt>
      <trkpt lat="49.21425" lon="0.26562">
        <ele>131</ele>
        <time>2024-10-13T08:04:04Z</time>
      </trkpt>
      <trkpt lat="49.21424" lon="0.26567">
        <ele>131.2</ele>
        <time>2024-10-13T08:04:05Z</time>
      </trkpt>
      <trkpt lat="49.21424" lon="0.26572">
        <ele>131.4</ele>
        <time>2024-10-13T08:04:06Z</time>
      </trkpt>
      <trkpt lat="49.21423" lon="0.26577">
        <ele>131.6</ele>
        <time>2024-10-13T08:04:07Z</time>
      </trkpt>
      <trkpt lat="49.21423" lon="0.26582">
        <ele>131.8</ele>
        <time>2024-10-13T08:04:08Z</time>
      </trkpt>
      <trkpt lat="49.21423" lon="0.26587">
        <ele>132</ele>
        <time>2024-10-13T08:04:09Z</time>
      </trkpt>
      <trkpt lat="49.21423" lon="0.26592">
        <ele>132.2</ele>
        <time>2024-10-13T08:04:10Z</time>
      </trkpt>
      <trkpt lat="49.21423" lon="0.26597">
        <ele>132.4</ele>
        <time>2024-10-13T08:04:11Z</time>
      </trkpt>
      <trkpt lat="49.21424" lon="0.26601">
        <ele>132.6</ele>
        <time>2024-10-13T08:04:12Z</time>
      </trkpt>
      <trkpt lat="49.21424" lon="0.26606">
        <ele>132.8</ele>
        <time>2024-10-13T08:04:13Z</time>
      </trkpt>
      <trkpt lat="49.21424" lon="0.2661">
        <ele>133</ele>
        <time>2024-10-13T08:04:14Z</time>
      </trkpt>
      <trkpt lat="49.21425" lon="0.26615">
        <ele>133.2</ele>
        <time>2024-10-13T08:04:15Z</time>
      </trkpt>
      <trkpt lat="49.21426" lon="0.2662">
        <ele>133.4</ele>
        <time>2024-10-13T08:04:16Z</time>
      </trkpt>
      <trkpt lat="49.21426" lon="0.26625">
        <ele>133.4</ele>
        <time>2024-10-13T08:04:17Z</time>
      </trkpt>
      <trkpt lat="49.21426" lon="0.2663">
        <ele>133.6</ele>
        <time>2024-10-13T08:04:18Z</time>
      </trkpt>
      <trkpt lat="49.21426" lon="0.26635">
        <ele>133.8</ele>
        <time>2024-10-13T08:04:19Z</time>
      </trkpt>
      <trkpt lat="49.21427" lon="0.2664">
        <ele>134</ele>
        <time>2024-10-13T08:04:20Z</time>
      </trkpt>
      <trkpt lat="49.21427" lon="0.26645">
        <ele>134.2</ele>
        <time>2024-10-13T08:04:21Z</time>
      </trkpt>
      <trkpt lat="49.21428" lon="0.26649">
        <ele>134.4</ele>
        <time>2024-10-13T08:04:22Z</time>
      </trkpt>
      <trkpt lat="49.21428" lon="0.26654">
        <ele>134.4</ele>
        <time>2024-10-13T08:04:23Z</time>
      </trkpt>
      <trkpt lat="49.21429" lon="0.26659">
        <ele>134.6</ele>
        <time>2024-10-13T08:04:24Z</time>
      </trkpt>
      <trkpt lat="49.21429" lon="0.26664">
        <ele>134.8</ele>
        <time>2024-10-13T08:04:25Z</time>
      </trkpt>
      <trkpt lat="49.21429" lon="0.26669">
        <ele>134.8</ele>
        <time>2024-10-13T08:04:26Z</time>
      </trkpt>
      <trkpt lat="49.21429" lon="0.26674">
        <ele>135</ele>
        <time>2024-10-13T08:04:27Z</time>
      </trkpt>
      <trkpt lat="49.21429" lon="0.26679">
        <ele>135</ele>
        <time>2024-10-13T08:04:28Z</time>
      </trkpt>
      <trkpt lat="49.21429" lon="0.26684">
        <ele>135.2</ele>
        <time>2024-10-13T08:04:29Z</time>
      </trkpt>
      <trkpt lat="49.2143" lon="0.26689">
        <ele>135.4</ele>
        <time>2024-10-13T08:04:30Z</time>
      </trkpt>
      <trkpt lat="49.2143" lon="0.26694">
        <ele>135.6</ele>
        <time>2024-10-13T08:04:31Z</time>
      </trkpt>
      <trkpt lat="49.2143" lon="0.26699">
        <ele>135.6</ele>
        <time>2024-10-13T08:04:32Z</time>
      </trkpt>
      <trkpt lat="49.21431" lon="0.26704">
        <ele>135.8</ele>
        <time>2024-10-13T08:04:33Z</time>
      </trkpt>
      <trkpt lat="49.21431" lon="0.26709">
        <ele>136</ele>
        <time>2024-10-13T08:04:34Z</time>
      </trkpt>
      <trkpt lat="49.21431" lon="0.26714">
        <ele>136.2</ele>
        <time>2024-10-13T08:04:35Z</time>
      </trkpt>
      <trkpt lat="49.21432" lon="0.2672">
        <ele>136.2</ele>
        <time>2024-10-13T08:04:36Z</time>
      </trkpt>
      <trkpt lat="49.21432" lon="0.26725">
        <ele>136.4</ele>
        <time>2024-10-13T08:04:37Z</time>
      </trkpt>
      <trkpt lat="49.21432" lon="0.26731">
        <ele>136.4</ele>
        <time>2024-10-13T08:04:38Z</time>
      </trkpt>
      <trkpt lat="49.21433" lon="0.26737">
        <ele>136.4</ele>
        <time>2024-10-13T08:04:39Z</time>
      </trkpt>
      <trkpt lat="49.21433" lon="0.26743">
        <ele>136.6</ele>
        <time>2024-10-13T08:04:40Z</time>
      </trkpt>
      <trkpt lat="49.21433" lon="0.26749">
        <ele>136.8</ele>
        <time>2024-10-13T08:04:41Z</time>
      </trkpt>
      <trkpt lat="49.21434" lon="0.26755">
        <ele>136.8</ele>
        <time>2024-10-13T08:04:42Z</time>
      </trkpt>
      <trkpt lat="49.21434" lon="0.26761">
        <ele>137</ele>
        <time>2024-10-13T08:04:43Z</time>
      </trkpt>
      <trkpt lat="49.21435" lon="0.26767">
        <ele>137</ele>
        <time>2024-10-13T08:04:44Z</time>
      </trkpt>
      <trkpt lat="49.21435" lon="0.26773">
        <ele>137</ele>
        <time>2024-10-13T08:04:45Z</time>
      </trkpt>
      <trkpt lat="49.21436" lon="0.26779">
        <ele>137.2</ele>
        <time>2024-10-13T08:04:46Z</time>
      </trkpt>
      <trkpt lat="49.21437" lon="0.26786">
        <ele>137.2</ele>
        <time>2024-10-13T08:04:47Z</time>
      </trkpt>
      <trkpt lat="49.21437" lon="0.26792">
        <ele>137.2</ele>
        <time>2024-10-13T08:04:48Z</time>
      </trkpt>
      <trkpt lat="49.21438" lon="0.26799">
        <ele>137.2</ele>
        <time>2024-10-13T08:04:49Z</time>
      </trkpt>
      <trkpt lat="49.21439" lon="0.26805">
        <ele>137.2</ele>
        <time>2024-10-13T08:04:50Z</time>
      </trkpt>
      <trkpt lat="49.21439" lon="0.26812">
        <ele>137.2</ele>
        <time>2024-10-13T08:04:51Z</time>
      </trkpt>
      <trkpt lat="49.2144" lon="0.26818">
        <ele>137.4</ele>
        <time>2024-10-13T08:04:52Z</time>
      </trkpt>
      <trkpt lat="49.21441" lon="0.26825">
        <ele>137.4</ele>
        <time>2024-10-13T08:04:53Z</time>
      </trkpt>
      <trkpt lat="49.21442" lon="0.26831">
        <ele>137.4</ele>
        <time>2024-10-13T08:04:54Z</time>
      </trkpt>
      <trkpt lat="49.21443" lon="0.26837">
        <ele>137.4</ele>
        <time>2024-10-13T08:04:55Z</time>
      </trkpt>
      <trkpt lat="49.21444" lon="0.26844">
        <ele>137.6</ele>
        <time>2024-10-13T08:04:56Z</time>
      </trkpt>
      <trkpt lat="49.21444" lon="0.26851">
        <ele>137.6</ele>
        <time>2024-10-13T08:04:57Z</time>
      </trkpt>
      <trkpt lat="49.21445" lon="0.26857">
        <ele>137.6</ele>
        <time>2024-10-13T08:04:58Z</time>
      </trkpt>
      <trkpt lat="49.21446" lon="0.26864">
        <ele>137.6</ele>
        <time>2024-10-13T08:04:59Z</time>
      </trkpt>
      <trkpt lat="49.21447" lon="0.26871">
        <ele>137.6</ele>
        <time>2024-10-13T08:05:00Z</time>
      </trkpt>
      <trkpt lat="49.21448" lon="0.26877">
        <ele>137.8</ele>
        <time>2024-10-13T08:05:01Z</time>
      </trkpt>
      <trkpt lat="49.2145" lon="0.26884">
        <ele>137.8</ele>
        <time>2024-10-13T08:05:02Z</time>
      </trkpt>
      <trkpt lat="49.21451" lon="0.26891">
        <ele>137.8</ele>
        <time>2024-10-13T08:05:03Z</time>
      </trkpt>
      <trkpt lat="49.21453" lon="0.26897">
        <ele>137.8</ele>
        <time>2024-10-13T08:05:04Z</time>
      </trkpt>
      <trkpt lat="49.21455" lon="0.26904">
        <ele>137.8</ele>
        <time>2024-10-13T08:05:05Z</time>
      </trkpt>
      <trkpt lat="49.21458" lon="0.26911">
        <ele>138</ele>
        <time>2024-10-13T08:05:06Z</time>
      </trkpt>
      <trkpt lat="49.2146" lon="0.26917">
        <ele>138</ele>
        <time>2024-10-13T08:05:07Z</time>
      </trkpt>
      <trkpt lat="49.21463" lon="0.26924">
        <ele>138</ele>
        <time>2024-10-13T08:05:08Z</time>
      </trkpt>
      <trkpt lat="49.21466" lon="0.2693">
        <ele>138.2</ele>
        <time>2024-10-13T08:05:09Z</time>
      </trkpt>
      <trkpt lat="49.21469" lon="0.26937">
        <ele>138.2</ele>
        <time>2024-10-13T08:05:10Z</time>
      </trkpt>
      <trkpt lat="49.21472" lon="0.26943">
        <ele>138.4</ele>
        <time>2024-10-13T08:05:11Z</time>
      </trkpt>
      <trkpt lat="49.21476" lon="0.26949">
        <ele>138.4</ele>
        <time>2024-10-13T08:05:12Z</time>
      </trkpt>
      <trkpt lat="49.2148" lon="0.26954">
        <ele>138.4</ele>
        <time>2024-10-13T08:05:13Z</time>
      </trkpt>
      <trkpt lat="49.21484" lon="0.2696">
        <ele>138.4</ele>
        <time>2024-10-13T08:05:14Z</time>
      </trkpt>
      <trkpt lat="49.21489" lon="0.26965">
        <ele>138.4</ele>
        <time>2024-10-13T08:05:15Z</time>
      </trkpt>
      <trkpt lat="49.21493" lon="0.26969">
        <ele>138.4</ele>
        <time>2024-10-13T08:05:16Z</time>
      </trkpt>
      <trkpt lat="49.21498" lon="0.26974">
        <ele>138.4</ele>
        <time>2024-10-13T08:05:17Z</time>
      </trkpt>
      <trkpt lat="49.21503" lon="0.26978">
        <ele>138.4</ele>
        <time>2024-10-13T08:05:18Z</time>
      </trkpt>
      <trkpt lat="49.21507" lon="0.26983">
        <ele>138.6</ele>
        <time>2024-10-13T08:05:19Z</time>
      </trkpt>
      <trkpt lat="49.21512" lon="0.26987">
        <ele>138.6</ele>
        <time>2024-10-13T08:05:20Z</time>
      </trkpt>
      <trkpt lat="49.21517" lon="0.26992">
        <ele>138.6</ele>
        <time>2024-10-13T08:05:21Z</time>
      </trkpt>
      <trkpt lat="49.21522" lon="0.26996">
        <ele>138.6</ele>
        <time>2024-10-13T08:05:22Z</time>
      </trkpt>
      <trkpt lat="49.21527" lon="0.27001">
        <ele>138.6</ele>
        <time>2024-10-13T08:05:23Z</time>
      </trkpt>
      <trkpt lat="49.21533" lon="0.27005">
        <ele>138.6</ele>
        <time>2024-10-13T08:05:24Z</time>
      </trkpt>
      <trkpt lat="49.21538" lon="0.2701">
        <ele>138.6</ele>
        <time>2024-10-13T08:05:25Z</time>
      </trkpt>
      <trkpt lat="49.21542" lon="0.27016">
        <ele>138.6</ele>
        <time>2024-10-13T08:05:26Z</time>
      </trkpt>
      <trkpt lat="49.21547" lon="0.27022">
        <ele>138.6</ele>
        <time>2024-10-13T08:05:27Z</time>
      </trkpt>
      <trkpt lat="49.21551" lon="0.27028">
        <ele>138.6</ele>
        <time>2024-10-13T08:05:28Z</time>
      </trkpt>
      <trkpt lat="49.21555" lon="0.27035">
        <ele>138.6</ele>
        <time>2024-10-13T08:05:29Z</time>
      </trkpt>
      <trkpt lat="49.21558" lon="0.27042">
        <ele>138.6</ele>
        <time>2024-10-13T08:05:30Z</time>
      </trkpt>
      <trkpt lat="49.21561" lon="0.27049">
        <ele>138.6</ele>
        <time>2024-10-13T08:05:31Z</time>
      </trkpt>
      <trkpt lat="49.21564" lon="0.27057">
        <ele>138.6</ele>
        <time>2024-10-13T08:05:32Z</time>
      </trkpt>
      <trkpt lat="49.21567" lon="0.27064">
        <ele>138.8</ele>
        <time>2024-10-13T08:05:33Z</time>
      </trkpt>
      <trkpt lat="49.2157" lon="0.27072">
        <ele>138.8</ele>
        <time>2024-10-13T08:05:34Z</time>
      </trkpt>
      <trkpt lat="49.21573" lon="0.2708">
        <ele>138.8</ele>
        <time>2024-10-13T08:05:35Z</time>
      </trkpt>
      <trkpt lat="49.21576" lon="0.27087">
        <ele>138.8</ele>
        <time>2024-10-13T08:05:36Z</time>
      </trkpt>
      <trkpt lat="49.21578" lon="0.27096">
        <ele>138.8</ele>
        <time>2024-10-13T08:05:37Z</time>
      </trkpt>
      <trkpt lat="49.2158" lon="0.27104">
        <ele>138.8</ele>
        <time>2024-10-13T08:05:38Z</time>
      </trkpt>
      <trkpt lat="49.21582" lon="0.27112">
        <ele>138.8</ele>
        <time>2024-10-13T08:05:39Z</time>
      </trkpt>
      <trkpt lat="49.21583" lon="0.2712">
        <ele>138.8</ele>
        <time>2024-10-13T08:05:40Z</time>
      </trkpt>
      <trkpt lat="49.21585" lon="0.27128">
        <ele>138.8</ele>
        <time>2024-10-13T08:05:41Z</time>
      </trkpt>
      <trkpt lat="49.21587" lon="0.27137">
        <ele>138.8</ele>
        <time>2024-10-13T08:05:42Z</time>
      </trkpt>
      <trkpt lat="49.21588" lon="0.27146">
        <ele>138.8</ele>
        <time>2024-10-13T08:05:43Z</time>
      </trkpt>
      <trkpt lat="49.21591" lon="0.27155">
        <ele>139</ele>
        <time>2024-10-13T08:05:44Z</time>
      </trkpt>
      <trkpt lat="49.21593" lon="0.27163">
        <ele>139</ele>
        <time>2024-10-13T08:05:45Z</time>
      </trkpt>
      <trkpt lat="49.21597" lon="0.27172">
        <ele>139</ele>
        <time>2024-10-13T08:05:46Z</time>
      </trkpt>
      <trkpt lat="49.216" lon="0.2718">
        <ele>139</ele>
        <time>2024-10-13T08:05:47Z</time>
      </trkpt>
      <trkpt lat="49.21605" lon="0.27188">
        <ele>139</ele>
        <time>2024-10-13T08:05:48Z</time>
      </trkpt>
      <trkpt lat="49.21609" lon="0.27195">
        <ele>139</ele>
        <time>2024-10-13T08:05:49Z</time>
      </trkpt>
      <trkpt lat="49.21615" lon="0.27201">
        <ele>139</ele>
        <time>2024-10-13T08:05:50Z</time>
      </trkpt>
      <trkpt lat="49.2162" lon="0.27207">
        <ele>139</ele>
        <time>2024-10-13T08:05:51Z</time>
      </trkpt>
      <trkpt lat="49.21626" lon="0.27212">
        <ele>139</ele>
        <time>2024-10-13T08:05:52Z</time>
      </trkpt>
      <trkpt lat="49.21631" lon="0.27218">
        <ele>139</ele>
        <time>2024-10-13T08:05:53Z</time>
      </trkpt>
      <trkpt lat="49.21637" lon="0.27223">
        <ele>138.8</ele>
        <time>2024-10-13T08:05:54Z</time>
      </trkpt>
      <trkpt lat="49.21643" lon="0.27228">
        <ele>138.6</ele>
        <time>2024-10-13T08:05:55Z</time>
      </trkpt>
      <trkpt lat="49.21648" lon="0.27232">
        <ele>138.4</ele>
        <time>2024-10-13T08:05:56Z</time>
      </trkpt>
      <trkpt lat="49.21652" lon="0.27237">
        <ele>138.2</ele>
        <time>2024-10-13T08:05:57Z</time>
      </trkpt>
      <trkpt lat="49.21655" lon="0.27243">
        <ele>137.8</ele>
        <time>2024-10-13T08:05:58Z</time>
      </trkpt>
      <trkpt lat="49.21657" lon="0.2725">
        <ele>137.8</ele>
        <time>2024-10-13T08:05:59Z</time>
      </trkpt>
      <trkpt lat="49.21657" lon="0.27257">
        <ele>137.8</ele>
        <time>2024-10-13T08:06:00Z</time>
      </trkpt>
      <trkpt lat="49.21655" lon="0.27265">
        <ele>137.6</ele>
        <time>2024-10-13T08:06:01Z</time>
      </trkpt>
      <trkpt lat="49.21652" lon="0.27272">
        <ele>137.6</ele>
        <time>2024-10-13T08:06:02Z</time>
      </trkpt>
      <trkpt lat="49.21649" lon="0.27279">
        <ele>137.6</ele>
        <time>2024-10-13T08:06:03Z</time>
      </trkpt>
      <trkpt lat="49.21646" lon="0.27286">
        <ele>137.4</ele>
        <time>2024-10-13T08:06:04Z</time>
      </trkpt>
      <trkpt lat="49.21643" lon="0.27293">
        <ele>137.4</ele>
        <time>2024-10-13T08:06:05Z</time>
      </trkpt>
      <trkpt lat="49.2164" lon="0.27301">
        <ele>137.4</ele>
        <time>2024-10-13T08:06:06Z</time>
      </trkpt>
      <trkpt lat="49.21637" lon="0.27308">
        <ele>137.2</ele>
        <time>2024-10-13T08:06:07Z</time>
      </trkpt>
      <trkpt lat="49.21635" lon="0.27316">
        <ele>137.2</ele>
        <time>2024-10-13T08:06:08Z</time>
      </trkpt>
      <trkpt lat="49.21632" lon="0.27324">
        <ele>137</ele>
        <time>2024-10-13T08:06:09Z</time>
      </trkpt>
      <trkpt lat="49.21629" lon="0.27333">
        <ele>137</ele>
        <time>2024-10-13T08:06:10Z</time>
      </trkpt>
      <trkpt lat="49.21626" lon="0.27341">
        <ele>136.8</ele>
        <time>2024-10-13T08:06:11Z</time>
      </trkpt>
      <trkpt lat="49.21623" lon="0.27349">
        <ele>136.8</ele>
        <time>2024-10-13T08:06:12Z</time>
      </trkpt>
      <trkpt lat="49.2162" lon="0.27358">
        <ele>136.6</ele>
        <time>2024-10-13T08:06:13Z</time>
      </trkpt>
      <trkpt lat="49.21616" lon="0.27366">
        <ele>136.6</ele>
        <time>2024-10-13T08:06:14Z</time>
      </trkpt>
      <trkpt lat="49.21612" lon="0.27373">
        <ele>136.6</ele>
        <time>2024-10-13T08:06:15Z</time>
      </trkpt>
      <trkpt lat="49.21607" lon="0.2738">
        <ele>136.6</ele>
        <time>2024-10-13T08:06:16Z</time>
      </trkpt>
      <trkpt lat="49.21602" lon="0.27386">
        <ele>136.6</ele>
        <time>2024-10-13T08:06:17Z</time>
      </trkpt>
      <trkpt lat="49.21597" lon="0.27392">
        <ele>136.6</ele>
        <time>2024-10-13T08:06:18Z</time>
      </trkpt>
      <trkpt lat="49.21592" lon="0.27398">
        <ele>136.6</ele>
        <time>2024-10-13T08:06:19Z</time>
      </trkpt>
      <trkpt lat="49.21586" lon="0.27403">
        <ele>136.6</ele>
        <time>2024-10-13T08:06:20Z</time>
      </trkpt>
      <trkpt lat="49.21581" lon="0.27408">
        <ele>136.6</ele>
        <time>2024-10-13T08:06:21Z</time>
      </trkpt>
      <trkpt lat="49.21576" lon="0.27414">
        <ele>136.6</ele>
        <time>2024-10-13T08:06:22Z</time>
      </trkpt>
      <trkpt lat="49.21571" lon="0.27421">
        <ele>136.6</ele>
        <time>2024-10-13T08:06:23Z</time>
      </trkpt>
      <trkpt lat="49.21565" lon="0.27426">
        <ele>136.6</ele>
        <time>2024-10-13T08:06:24Z</time>
      </trkpt>
      <trkpt lat="49.2156" lon="0.27432">
        <ele>136.8</ele>
        <time>2024-10-13T08:06:25Z</time>
      </trkpt>
      <trkpt lat="49.21556" lon="0.27437">
        <ele>136.8</ele>
        <time>2024-10-13T08:06:26Z</time>
      </trkpt>
      <trkpt lat="49.21551" lon="0.27443">
        <ele>136.8</ele>
        <time>2024-10-13T08:06:27Z</time>
      </trkpt>
      <trkpt lat="49.21547" lon="0.27448">
        <ele>136.8</ele>
        <time>2024-10-13T08:06:28Z</time>
      </trkpt>
      <trkpt lat="49.21544" lon="0.27453">
        <ele>136.8</ele>
        <time>2024-10-13T08:06:29Z</time>
      </trkpt>
      <trkpt lat="49.2154" lon="0.27458">
        <ele>136.8</ele>
        <time>2024-10-13T08:06:30Z</time>
      </trkpt>
      <trkpt lat="49.21537" lon="0.27463">
        <ele>136.8</ele>
        <time>2024-10-13T08:06:31Z</time>
      </trkpt>
      <trkpt lat="49.21534" lon="0.27468">
        <ele>137</ele>
        <time>2024-10-13T08:06:32Z</time>
      </trkpt>
      <trkpt lat="49.2153" lon="0.27473">
        <ele>137</ele>
        <time>2024-10-13T08:06:33Z</time>
      </trkpt>
      <trkpt lat="49.21527" lon="0.27479">
        <ele>137</ele>
        <time>2024-10-13T08:06:34Z</time>
      </trkpt>
      <trkpt lat="49.21524" lon="0.27485">
        <ele>137</ele>
        <time>2024-10-13T08:06:35Z</time>
      </trkpt>
      <trkpt lat="49.21521" lon="0.27491">
        <ele>137.2</ele>
        <time>2024-10-13T08:06:36Z</time>
      </trkpt>
      <trkpt lat="49.21518" lon="0.27496">
        <ele>137.2</ele>
        <time>2024-10-13T08:06:37Z</time>
      </trkpt>
      <trkpt lat="49.21515" lon="0.27502">
        <ele>137.4</ele>
        <time>2024-10-13T08:06:38Z</time>
      </trkpt>
      <trkpt lat="49.21512" lon="0.27508">
        <ele>137.6</ele>
        <time>2024-10-13T08:06:39Z</time>
      </trkpt>
      <trkpt lat="49.21509" lon="0.27514">
        <ele>137.8</ele>
        <time>2024-10-13T08:06:40Z</time>
      </trkpt>
      <trkpt lat="49.21506" lon="0.2752">
        <ele>138</ele>
        <time>2024-10-13T08:06:41Z</time>
      </trkpt>
      <trkpt lat="49.21503" lon="0.27526">
        <ele>138.2</ele>
        <time>2024-10-13T08:06:42Z</time>
      </trkpt>
      <trkpt lat="49.215" lon="0.27532">
        <ele>138.4</ele>
        <time>2024-10-13T08:06:43Z</time>
      </trkpt>
      <trkpt lat="49.21497" lon="0.27538">
        <ele>138.4</ele>
        <time>2024-10-13T08:06:44Z</time>
      </trkpt>
      <trkpt lat="49.21493" lon="0.27544">
        <ele>138.6</ele>
        <time>2024-10-13T08:06:45Z</time>
      </trkpt>
      <trkpt lat="49.2149" lon="0.27551">
        <ele>138.6</ele>
        <time>2024-10-13T08:06:46Z</time>
      </trkpt>
      <trkpt lat="49.21486" lon="0.27556">
        <ele>138.6</ele>
        <time>2024-10-13T08:06:47Z</time>
      </trkpt>
      <trkpt lat="49.21482" lon="0.27562">
        <ele>138.6</ele>
        <time>2024-10-13T08:06:48Z</time>
      </trkpt>
      <trkpt lat="49.21478" lon="0.27567">
        <ele>138.6</ele>
        <time>2024-10-13T08:06:49Z</time>
      </trkpt>
      <trkpt lat="49.21474" lon="0.27572">
        <ele>138.6</ele>
        <time>2024-10-13T08:06:50Z</time>
      </trkpt>
      <trkpt lat="49.21471" lon="0.27577">
        <ele>138.6</ele>
        <time>2024-10-13T08:06:51Z</time>
      </trkpt>
      <trkpt lat="49.21467" lon="0.27583">
        <ele>138.6</ele>
        <time>2024-10-13T08:06:52Z</time>
      </trkpt>
      <trkpt lat="49.21463" lon="0.27588">
        <ele>138.6</ele>
        <time>2024-10-13T08:06:53Z</time>
      </trkpt>
      <trkpt lat="49.2146" lon="0.27593">
        <ele>138.6</ele>
        <time>2024-10-13T08:06:54Z</time>
      </trkpt>
      <trkpt lat="49.21456" lon="0.27598">
        <ele>138.6</ele>
        <time>2024-10-13T08:06:55Z</time>
      </trkpt>
      <trkpt lat="49.21452" lon="0.27604">
        <ele>138.6</ele>
        <time>2024-10-13T08:06:56Z</time>
      </trkpt>
      <trkpt lat="49.21449" lon="0.27609">
        <ele>138.6</ele>
        <time>2024-10-13T08:06:57Z</time>
      </trkpt>
      <trkpt lat="49.21445" lon="0.27614">
        <ele>138.6</ele>
        <time>2024-10-13T08:06:58Z</time>
      </trkpt>
      <trkpt lat="49.21442" lon="0.2762">
        <ele>138.6</ele>
        <time>2024-10-13T08:06:59Z</time>
      </trkpt>
      <trkpt lat="49.21438" lon="0.27625">
        <ele>138.6</ele>
        <time>2024-10-13T08:07:00Z</time>
      </trkpt>
      <trkpt lat="49.21435" lon="0.27631">
        <ele>138.6</ele>
        <time>2024-10-13T08:07:01Z</time>
      </trkpt>
      <trkpt lat="49.21432" lon="0.27637">
        <ele>138.6</ele>
        <time>2024-10-13T08:07:02Z</time>
      </trkpt>
      <trkpt lat="49.21429" lon="0.27643">
        <ele>138.6</ele>
        <time>2024-10-13T08:07:03Z</time>
      </trkpt>
      <trkpt lat="49.21425" lon="0.27649">
        <ele>138.6</ele>
        <time>2024-10-13T08:07:04Z</time>
      </trkpt>
      <trkpt lat="49.21421" lon="0.27656">
        <ele>138.6</ele>
        <time>2024-10-13T08:07:05Z</time>
      </trkpt>
      <trkpt lat="49.21417" lon="0.27662">
        <ele>138.6</ele>
        <time>2024-10-13T08:07:06Z</time>
      </trkpt>
      <trkpt lat="49.21412" lon="0.27668">
        <ele>138.6</ele>
        <time>2024-10-13T08:07:07Z</time>
      </trkpt>
      <trkpt lat="49.21408" lon="0.27673">
        <ele>138.8</ele>
        <time>2024-10-13T08:07:08Z</time>
      </trkpt>
      <trkpt lat="49.21403" lon="0.27678">
        <ele>138.8</ele>
        <time>2024-10-13T08:07:09Z</time>
      </trkpt>
      <trkpt lat="49.21397" lon="0.27683">
        <ele>139</ele>
        <time>2024-10-13T08:07:10Z</time>
      </trkpt>
      <trkpt lat="49.21392" lon="0.27688">
        <ele>139.2</ele>
        <time>2024-10-13T08:07:11Z</time>
      </trkpt>
      <trkpt lat="49.21386" lon="0.27692">
        <ele>139.2</ele>
        <time>2024-10-13T08:07:12Z</time>
      </trkpt>
      <trkpt lat="49.21381" lon="0.27695">
        <ele>139.2</ele>
        <time>2024-10-13T08:07:13Z</time>
      </trkpt>
      <trkpt lat="49.21375" lon="0.27699">
        <ele>139.2</ele>
        <time>2024-10-13T08:07:14Z</time>
      </trkpt>
      <trkpt lat="49.21369" lon="0.27702">
        <ele>139.2</ele>
        <time>2024-10-13T08:07:15Z</time>
      </trkpt>
      <trkpt lat="49.21363" lon="0.27706">
        <ele>139.2</ele>
        <time>2024-10-13T08:07:16Z</time>
      </trkpt>
      <trkpt lat="49.21358" lon="0.2771">
        <ele>139.4</ele>
        <time>2024-10-13T08:07:17Z</time>
      </trkpt>
      <trkpt lat="49.21352" lon="0.27714">
        <ele>139.4</ele>
        <time>2024-10-13T08:07:18Z</time>
      </trkpt>
      <trkpt lat="49.21347" lon="0.27718">
        <ele>139.4</ele>
        <time>2024-10-13T08:07:19Z</time>
      </trkpt>
      <trkpt lat="49.21342" lon="0.27722">
        <ele>139.4</ele>
        <time>2024-10-13T08:07:20Z</time>
      </trkpt>
      <trkpt lat="49.21337" lon="0.27726">
        <ele>139.6</ele>
        <time>2024-10-13T08:07:21Z</time>
      </trkpt>
      <trkpt lat="49.21332" lon="0.27731">
        <ele>139.6</ele>
        <time>2024-10-13T08:07:22Z</time>
      </trkpt>
      <trkpt lat="49.21327" lon="0.27735">
        <ele>139.6</ele>
        <time>2024-10-13T08:07:23Z</time>
      </trkpt>
      <trkpt lat="49.21322" lon="0.2774">
        <ele>139.6</ele>
        <time>2024-10-13T08:07:24Z</time>
      </trkpt>
      <trkpt lat="49.21317" lon="0.27745">
        <ele>139.8</ele>
        <time>2024-10-13T08:07:25Z</time>
      </trkpt>
      <trkpt lat="49.21312" lon="0.2775">
        <ele>139.8</ele>
        <time>2024-10-13T08:07:26Z</time>
      </trkpt>
      <trkpt lat="49.21306" lon="0.27755">
        <ele>139.8</ele>
        <time>2024-10-13T08:07:27Z</time>
      </trkpt>
      <trkpt lat="49.21301" lon="0.27761">
        <ele>139.8</ele>
        <time>2024-10-13T08:07:28Z</time>
      </trkpt>
      <trkpt lat="49.21296" lon="0.27767">
        <ele>139.8</ele>
        <time>2024-10-13T08:07:29Z</time>
      </trkpt>
      <trkpt lat="49.21291" lon="0.27773">
        <ele>139.8</ele>
        <time>2024-10-13T08:07:30Z</time>
      </trkpt>
      <trkpt lat="49.21286" lon="0.27779">
        <ele>139.8</ele>
        <time>2024-10-13T08:07:31Z</time>
      </trkpt>
      <trkpt lat="49.21281" lon="0.27786">
        <ele>139.8</ele>
        <time>2024-10-13T08:07:32Z</time>
      </trkpt>
      <trkpt lat="49.21276" lon="0.27792">
        <ele>139.8</ele>
        <time>2024-10-13T08:07:33Z</time>
      </trkpt>
      <trkpt lat="49.21271" lon="0.27799">
        <ele>139.8</ele>
        <time>2024-10-13T08:07:34Z</time>
      </trkpt>
      <trkpt lat="49.21266" lon="0.27806">
        <ele>139.8</ele>
        <time>2024-10-13T08:07:35Z</time>
      </trkpt>
      <trkpt lat="49.21262" lon="0.27814">
        <ele>139.8</ele>
        <time>2024-10-13T08:07:36Z</time>
      </trkpt>
      <trkpt lat="49.21257" lon="0.27821">
        <ele>139.8</ele>
        <time>2024-10-13T08:07:37Z</time>
      </trkpt>
      <trkpt lat="49.21253" lon="0.27829">
        <ele>139.8</ele>
        <time>2024-10-13T08:07:38Z</time>
      </trkpt>
      <trkpt lat="49.21248" lon="0.27836">
        <ele>139.8</ele>
        <time>2024-10-13T08:07:39Z</time>
      </trkpt>
      <trkpt lat="49.21244" lon="0.27844">
        <ele>139.8</ele>
        <time>2024-10-13T08:07:40Z</time>
      </trkpt>
      <trkpt lat="49.21239" lon="0.27851">
        <ele>139.8</ele>
        <time>2024-10-13T08:07:41Z</time>
      </trkpt>
      <trkpt lat="49.21235" lon="0.27859">
        <ele>139.8</ele>
        <time>2024-10-13T08:07:42Z</time>
      </trkpt>
      <trkpt lat="49.2123" lon="0.27866">
        <ele>139.8</ele>
        <time>2024-10-13T08:07:43Z</time>
      </trkpt>
      <trkpt lat="49.21226" lon="0.27873">
        <ele>139.8</ele>
        <time>2024-10-13T08:07:44Z</time>
      </trkpt>
      <trkpt lat="49.21221" lon="0.27881">
        <ele>139.8</ele>
        <time>2024-10-13T08:07:45Z</time>
      </trkpt>
      <trkpt lat="49.21217" lon="0.27888">
        <ele>139.8</ele>
        <time>2024-10-13T08:07:46Z</time>
      </trkpt>
      <trkpt lat="49.21213" lon="0.27896">
        <ele>140</ele>
        <time>2024-10-13T08:07:47Z</time>
      </trkpt>
      <trkpt lat="49.21209" lon="0.27903">
        <ele>140</ele>
        <time>2024-10-13T08:07:48Z</time>
      </trkpt>
      <trkpt lat="49.21205" lon="0.27909">
        <ele>140</ele>
        <time>2024-10-13T08:07:49Z</time>
      </trkpt>
      <trkpt lat="49.21201" lon="0.27916">
        <ele>140</ele>
        <time>2024-10-13T08:07:50Z</time>
      </trkpt>
      <trkpt lat="49.21197" lon="0.27923">
        <ele>140</ele>
        <time>2024-10-13T08:07:51Z</time>
      </trkpt>
      <trkpt lat="49.21193" lon="0.2793">
        <ele>140</ele>
        <time>2024-10-13T08:07:52Z</time>
      </trkpt>
      <trkpt lat="49.2119" lon="0.27936">
        <ele>140.2</ele>
        <time>2024-10-13T08:07:53Z</time>
      </trkpt>
      <trkpt lat="49.21186" lon="0.27943">
        <ele>140.2</ele>
        <time>2024-10-13T08:07:54Z</time>
      </trkpt>
      <trkpt lat="49.21182" lon="0.2795">
        <ele>140.6</ele>
        <time>2024-10-13T08:07:55Z</time>
      </trkpt>
      <trkpt lat="49.21177" lon="0.27957">
        <ele>141</ele>
        <time>2024-10-13T08:07:56Z</time>
      </trkpt>
      <trkpt lat="49.21172" lon="0.27964">
        <ele>141.2</ele>
        <time>2024-10-13T08:07:57Z</time>
      </trkpt>
      <trkpt lat="49.21168" lon="0.2797">
        <ele>141.6</ele>
        <time>2024-10-13T08:07:58Z</time>
      </trkpt>
      <trkpt lat="49.21163" lon="0.27977">
        <ele>142</ele>
        <time>2024-10-13T08:07:59Z</time>
      </trkpt>
      <trkpt lat="49.21157" lon="0.27984">
        <ele>142.4</ele>
        <time>2024-10-13T08:08:00Z</time>
      </trkpt>
      <trkpt lat="49.21151" lon="0.27991">
        <ele>142.8</ele>
        <time>2024-10-13T08:08:01Z</time>
      </trkpt>
      <trkpt lat="49.21146" lon="0.27995">
        <ele>142.8</ele>
        <time>2024-10-13T08:08:02Z</time>
      </trkpt>
      <trkpt lat="49.21139" lon="0.28002">
        <ele>143</ele>
        <time>2024-10-13T08:08:03Z</time>
      </trkpt>
      <trkpt lat="49.21133" lon="0.28007">
        <ele>143</ele>
        <time>2024-10-13T08:08:04Z</time>
      </trkpt>
      <trkpt lat="49.21127" lon="0.28012">
        <ele>143</ele>
        <time>2024-10-13T08:08:05Z</time>
      </trkpt>
      <trkpt lat="49.21121" lon="0.28016">
        <ele>143</ele>
        <time>2024-10-13T08:08:06Z</time>
      </trkpt>
      <trkpt lat="49.21115" lon="0.28021">
        <ele>143</ele>
        <time>2024-10-13T08:08:07Z</time>
      </trkpt>
      <trkpt lat="49.21109" lon="0.28025">
        <ele>143</ele>
        <time>2024-10-13T08:08:08Z</time>
      </trkpt>
      <trkpt lat="49.21103" lon="0.28029">
        <ele>143</ele>
        <time>2024-10-13T08:08:09Z</time>
      </trkpt>
      <trkpt lat="49.21096" lon="0.28033">
        <ele>143</ele>
        <time>2024-10-13T08:08:10Z</time>
      </trkpt>
      <trkpt lat="49.2109" lon="0.28038">
        <ele>143</ele>
        <time>2024-10-13T08:08:11Z</time>
      </trkpt>
      <trkpt lat="49.21084" lon="0.28043">
        <ele>142.8</ele>
        <time>2024-10-13T08:08:12Z</time>
      </trkpt>
      <trkpt lat="49.21078" lon="0.28048">
        <ele>142.8</ele>
        <time>2024-10-13T08:08:13Z</time>
      </trkpt>
      <trkpt lat="49.21072" lon="0.28053">
        <ele>142.8</ele>
        <time>2024-10-13T08:08:14Z</time>
      </trkpt>
      <trkpt lat="49.21066" lon="0.28058">
        <ele>142.8</ele>
        <time>2024-10-13T08:08:15Z</time>
      </trkpt>
      <trkpt lat="49.2106" lon="0.28063">
        <ele>142.6</ele>
        <time>2024-10-13T08:08:16Z</time>
      </trkpt>
      <trkpt lat="49.21054" lon="0.28069">
        <ele>142.6</ele>
        <time>2024-10-13T08:08:17Z</time>
      </trkpt>
      <trkpt lat="49.21047" lon="0.28074">
        <ele>142.6</ele>
        <time>2024-10-13T08:08:18Z</time>
      </trkpt>
      <trkpt lat="49.21041" lon="0.2808">
        <ele>142.4</ele>
        <time>2024-10-13T08:08:19Z</time>
      </trkpt>
      <trkpt lat="49.21035" lon="0.28085">
        <ele>142.4</ele>
        <time>2024-10-13T08:08:20Z</time>
      </trkpt>
      <trkpt lat="49.21028" lon="0.28091">
        <ele>142.4</ele>
        <time>2024-10-13T08:08:21Z</time>
      </trkpt>
      <trkpt lat="49.21021" lon="0.28096">
        <ele>142.4</ele>
        <time>2024-10-13T08:08:22Z</time>
      </trkpt>
      <trkpt lat="49.21015" lon="0.281">
        <ele>142.4</ele>
        <time>2024-10-13T08:08:23Z</time>
      </trkpt>
      <trkpt lat="49.21009" lon="0.28106">
        <ele>142.2</ele>
        <time>2024-10-13T08:08:24Z</time>
      </trkpt>
      <trkpt lat="49.21003" lon="0.28111">
        <ele>142.2</ele>
        <time>2024-10-13T08:08:25Z</time>
      </trkpt>
      <trkpt lat="49.20997" lon="0.28116">
        <ele>141.8</ele>
        <time>2024-10-13T08:08:26Z</time>
      </trkpt>
      <trkpt lat="49.20991" lon="0.28122">
        <ele>141.8</ele>
        <time>2024-10-13T08:08:27Z</time>
      </trkpt>
      <trkpt lat="49.20986" lon="0.28128">
        <ele>142</ele>
        <time>2024-10-13T08:08:28Z</time>
      </trkpt>
      <trkpt lat="49.2098" lon="0.28133">
        <ele>141.8</ele>
        <time>2024-10-13T08:08:29Z</time>
      </trkpt>
      <trkpt lat="49.20974" lon="0.28139">
        <ele>141.8</ele>
        <time>2024-10-13T08:08:30Z</time>
      </trkpt>
      <trkpt lat="49.20969" lon="0.28144">
        <ele>141.8</ele>
        <time>2024-10-13T08:08:31Z</time>
      </trkpt>
      <trkpt lat="49.20963" lon="0.28151">
        <ele>141.4</ele>
        <time>2024-10-13T08:08:32Z</time>
      </trkpt>
      <trkpt lat="49.20957" lon="0.28157">
        <ele>141.4</ele>
        <time>2024-10-13T08:08:33Z</time>
      </trkpt>
      <trkpt lat="49.20951" lon="0.28164">
        <ele>141.6</ele>
        <time>2024-10-13T08:08:34Z</time>
      </trkpt>
      <trkpt lat="49.20945" lon="0.2817">
        <ele>141.4</ele>
        <time>2024-10-13T08:08:35Z</time>
      </trkpt>
      <trkpt lat="49.20939" lon="0.28177">
        <ele>141.4</ele>
        <time>2024-10-13T08:08:36Z</time>
      </trkpt>
      <trkpt lat="49.20934" lon="0.28183">
        <ele>141.4</ele>
        <time>2024-10-13T08:08:37Z</time>
      </trkpt>
      <trkpt lat="49.20928" lon="0.28189">
        <ele>141.4</ele>
        <time>2024-10-13T08:08:38Z</time>
      </trkpt>
      <trkpt lat="49.20922" lon="0.28195">
        <ele>141.4</ele>
        <time>2024-10-13T08:08:39Z</time>
      </trkpt>
      <trkpt lat="49.20918" lon="0.282">
        <ele>141.4</ele>
        <time>2024-10-13T08:08:40Z</time>
      </trkpt>
      <trkpt lat="49.20912" lon="0.28208">
        <ele>141.4</ele>
        <time>2024-10-13T08:08:41Z</time>
      </trkpt>
      <trkpt lat="49.20907" lon="0.28214">
        <ele>141.4</ele>
        <time>2024-10-13T08:08:42Z</time>
      </trkpt>
      <trkpt lat="49.20902" lon="0.28219">
        <ele>141.4</ele>
        <time>2024-10-13T08:08:43Z</time>
      </trkpt>
      <trkpt lat="49.20897" lon="0.28224">
        <ele>141.4</ele>
        <time>2024-10-13T08:08:44Z</time>
      </trkpt>
      <trkpt lat="49.20893" lon="0.28229">
        <ele>141.6</ele>
        <time>2024-10-13T08:08:45Z</time>
      </trkpt>
      <trkpt lat="49.20889" lon="0.28234">
        <ele>141.6</ele>
        <time>2024-10-13T08:08:46Z</time>
      </trkpt>
      <trkpt lat="49.20886" lon="0.28238">
        <ele>141.8</ele>
        <time>2024-10-13T08:08:47Z</time>
      </trkpt>
      <trkpt lat="49.20882" lon="0.28242">
        <ele>142</ele>
        <time>2024-10-13T08:08:48Z</time>
      </trkpt>
      <trkpt lat="49.20879" lon="0.28246">
        <ele>142</ele>
        <time>2024-10-13T08:08:49Z</time>
      </trkpt>
      <trkpt lat="49.20877" lon="0.2825">
        <ele>142</ele>
        <time>2024-10-13T08:08:50Z</time>
      </trkpt>
      <trkpt lat="49.20874" lon="0.28253">
        <ele>142</ele>
        <time>2024-10-13T08:08:51Z</time>
      </trkpt>
      <trkpt lat="49.20871" lon="0.28257">
        <ele>142.2</ele>
        <time>2024-10-13T08:08:52Z</time>
      </trkpt>
      <trkpt lat="49.20868" lon="0.2826">
        <ele>142.4</ele>
        <time>2024-10-13T08:08:53Z</time>
      </trkpt>
      <trkpt lat="49.20866" lon="0.28264">
        <ele>142.6</ele>
        <time>2024-10-13T08:08:54Z</time>
      </trkpt>
      <trkpt lat="49.20863" lon="0.28269">
        <ele>142.8</ele>
        <time>2024-10-13T08:08:55Z</time>
      </trkpt>
      <trkpt lat="49.20861" lon="0.28273">
        <ele>143</ele>
        <time>2024-10-13T08:08:56Z</time>
      </trkpt>
      <trkpt lat="49.2086" lon="0.28279">
        <ele>143</ele>
        <time>2024-10-13T08:08:57Z</time>
      </trkpt>
      <trkpt lat="49.20858" lon="0.28284">
        <ele>143</ele>
        <time>2024-10-13T08:08:58Z</time>
      </trkpt>
      <trkpt lat="49.20857" lon="0.2829">
        <ele>143</ele>
        <time>2024-10-13T08:08:59Z</time>
      </trkpt>
      <trkpt lat="49.20856" lon="0.28296">
        <ele>143</ele>
        <time>2024-10-13T08:09:00Z</time>
      </trkpt>
      <trkpt lat="49.20856" lon="0.28302">
        <ele>143</ele>
        <time>2024-10-13T08:09:01Z</time>
      </trkpt>
      <trkpt lat="49.20856" lon="0.28308">
        <ele>143</ele>
        <time>2024-10-13T08:09:02Z</time>
      </trkpt>
      <trkpt lat="49.20857" lon="0.28315">
        <ele>143</ele>
        <time>2024-10-13T08:09:03Z</time>
      </trkpt>
      <trkpt lat="49.20857" lon="0.28322">
        <ele>143</ele>
        <time>2024-10-13T08:09:04Z</time>
      </trkpt>
      <trkpt lat="49.20858" lon="0.28329">
        <ele>143</ele>
        <time>2024-10-13T08:09:05Z</time>
      </trkpt>
      <trkpt lat="49.20859" lon="0.28336">
        <ele>143</ele>
        <time>2024-10-13T08:09:06Z</time>
      </trkpt>
      <trkpt lat="49.2086" lon="0.28344">
        <ele>142.8</ele>
        <time>2024-10-13T08:09:07Z</time>
      </trkpt>
      <trkpt lat="49.2086" lon="0.28351">
        <ele>142.8</ele>
        <time>2024-10-13T08:09:08Z</time>
      </trkpt>
      <trkpt lat="49.20861" lon="0.28361">
        <ele>142.6</ele>
        <time>2024-10-13T08:09:09Z</time>
      </trkpt>
      <trkpt lat="49.20862" lon="0.28368">
        <ele>142.4</ele>
        <time>2024-10-13T08:09:10Z</time>
      </trkpt>
      <trkpt lat="49.20862" lon="0.28377">
        <ele>142.4</ele>
        <time>2024-10-13T08:09:11Z</time>
      </trkpt>
      <trkpt lat="49.20862" lon="0.28386">
        <ele>142.2</ele>
        <time>2024-10-13T08:09:12Z</time>
      </trkpt>
      <trkpt lat="49.20863" lon="0.28396">
        <ele>142</ele>
        <time>2024-10-13T08:09:13Z</time>
      </trkpt>
      <trkpt lat="49.20864" lon="0.28407">
        <ele>142</ele>
        <time>2024-10-13T08:09:14Z</time>
      </trkpt>
      <trkpt lat="49.20866" lon="0.28417">
        <ele>141.6</ele>
        <time>2024-10-13T08:09:15Z</time>
      </trkpt>
      <trkpt lat="49.20867" lon="0.28427">
        <ele>141.4</ele>
        <time>2024-10-13T08:09:16Z</time>
      </trkpt>
      <trkpt lat="49.20869" lon="0.28437">
        <ele>141</ele>
        <time>2024-10-13T08:09:17Z</time>
      </trkpt>
      <trkpt lat="49.2087" lon="0.28447">
        <ele>140.8</ele>
        <time>2024-10-13T08:09:18Z</time>
      </trkpt>
      <trkpt lat="49.20872" lon="0.28458">
        <ele>140.6</ele>
        <time>2024-10-13T08:09:19Z</time>
      </trkpt>
      <trkpt lat="49.20873" lon="0.28469">
        <ele>140.4</ele>
        <time>2024-10-13T08:09:20Z</time>
      </trkpt>
      <trkpt lat="49.20875" lon="0.2848">
        <ele>140.2</ele>
        <time>2024-10-13T08:09:21Z</time>
      </trkpt>
      <trkpt lat="49.20876" lon="0.28491">
        <ele>140.2</ele>
        <time>2024-10-13T08:09:22Z</time>
      </trkpt>
      <trkpt lat="49.20878" lon="0.28502">
        <ele>140</ele>
        <time>2024-10-13T08:09:23Z</time>
      </trkpt>
      <trkpt lat="49.2088" lon="0.28513">
        <ele>139.8</ele>
        <time>2024-10-13T08:09:24Z</time>
      </trkpt>
      <trkpt lat="49.20881" lon="0.28524">
        <ele>139.6</ele>
        <time>2024-10-13T08:09:25Z</time>
      </trkpt>
      <trkpt lat="49.20883" lon="0.28535">
        <ele>139.4</ele>
        <time>2024-10-13T08:09:26Z</time>
      </trkpt>
      <trkpt lat="49.20885" lon="0.28546">
        <ele>139.2</ele>
        <time>2024-10-13T08:09:27Z</time>
      </trkpt>
      <trkpt lat="49.20886" lon="0.28556">
        <ele>139</ele>
        <time>2024-10-13T08:09:28Z</time>
      </trkpt>
      <trkpt lat="49.20887" lon="0.28567">
        <ele>138.8</ele>
        <time>2024-10-13T08:09:29Z</time>
      </trkpt>
      <trkpt lat="49.20888" lon="0.28578">
        <ele>138.6</ele>
        <time>2024-10-13T08:09:30Z</time>
      </trkpt>
      <trkpt lat="49.2089" lon="0.28589">
        <ele>138.4</ele>
        <time>2024-10-13T08:09:31Z</time>
      </trkpt>
      <trkpt lat="49.20891" lon="0.286">
        <ele>138.2</ele>
        <time>2024-10-13T08:09:32Z</time>
      </trkpt>
      <trkpt lat="49.20892" lon="0.28611">
        <ele>138</ele>
        <time>2024-10-13T08:09:33Z</time>
      </trkpt>
      <trkpt lat="49.20893" lon="0.28621">
        <ele>138</ele>
        <time>2024-10-13T08:09:34Z</time>
      </trkpt>
      <trkpt lat="49.20894" lon="0.28632">
        <ele>137.8</ele>
        <time>2024-10-13T08:09:35Z</time>
      </trkpt>
      <trkpt lat="49.20895" lon="0.28643">
        <ele>137.8</ele>
        <time>2024-10-13T08:09:36Z</time>
      </trkpt>
      <trkpt lat="49.20895" lon="0.28654">
        <ele>137.6</ele>
        <time>2024-10-13T08:09:37Z</time>
      </trkpt>
      <trkpt lat="49.20895" lon="0.28665">
        <ele>137.6</ele>
        <time>2024-10-13T08:09:38Z</time>
      </trkpt>
      <trkpt lat="49.20895" lon="0.28676">
        <ele>137.6</ele>
        <time>2024-10-13T08:09:39Z</time>
      </trkpt>
      <trkpt lat="49.20896" lon="0.28687">
        <ele>137.4</ele>
        <time>2024-10-13T08:09:40Z</time>
      </trkpt>
      <trkpt lat="49.20898" lon="0.28698">
        <ele>137.4</ele>
        <time>2024-10-13T08:09:41Z</time>
      </trkpt>
      <trkpt lat="49.209" lon="0.28708">
        <ele>137.4</ele>
        <time>2024-10-13T08:09:42Z</time>
      </trkpt>
      <trkpt lat="49.20903" lon="0.28718">
        <ele>137.2</ele>
        <time>2024-10-13T08:09:43Z</time>
      </trkpt>
      <trkpt lat="49.20907" lon="0.28728">
        <ele>137.2</ele>
        <time>2024-10-13T08:09:44Z</time>
      </trkpt>
      <trkpt lat="49.20911" lon="0.28739">
        <ele>137.2</ele>
        <time>2024-10-13T08:09:45Z</time>
      </trkpt>
      <trkpt lat="49.20916" lon="0.28749">
        <ele>137.2</ele>
        <time>2024-10-13T08:09:46Z</time>
      </trkpt>
      <trkpt lat="49.2092" lon="0.2876">
        <ele>137.2</ele>
        <time>2024-10-13T08:09:47Z</time>
      </trkpt>
      <trkpt lat="49.20924" lon="0.28771">
        <ele>137.2</ele>
        <time>2024-10-13T08:09:48Z</time>
      </trkpt>
      <trkpt lat="49.20928" lon="0.28782">
        <ele>137.2</ele>
        <time>2024-10-13T08:09:49Z</time>
      </trkpt>
      <trkpt lat="49.20932" lon="0.28793">
        <ele>137.2</ele>
        <time>2024-10-13T08:09:50Z</time>
      </trkpt>
      <trkpt lat="49.20936" lon="0.28803">
        <ele>137.2</ele>
        <time>2024-10-13T08:09:51Z</time>
      </trkpt>
      <trkpt lat="49.2094" lon="0.28814">
        <ele>137.2</ele>
        <time>2024-10-13T08:09:52Z</time>
      </trkpt>
      <trkpt lat="49.20945" lon="0.28824">
        <ele>137.2</ele>
        <time>2024-10-13T08:09:53Z</time>
      </trkpt>
      <trkpt lat="49.20948" lon="0.28835">
        <ele>137.2</ele>
        <time>2024-10-13T08:09:54Z</time>
      </trkpt>
      <trkpt lat="49.20952" lon="0.28845">
        <ele>137.2</ele>
        <time>2024-10-13T08:09:55Z</time>
      </trkpt>
      <trkpt lat="49.20956" lon="0.28856">
        <ele>137.2</ele>
        <time>2024-10-13T08:09:56Z</time>
      </trkpt>
      <trkpt lat="49.20961" lon="0.28867">
        <ele>137.2</ele>
        <time>2024-10-13T08:09:57Z</time>
      </trkpt>
      <trkpt lat="49.20965" lon="0.28878">
        <ele>137.2</ele>
        <time>2024-10-13T08:09:58Z</time>
      </trkpt>
      <trkpt lat="49.20969" lon="0.28889">
        <ele>137.2</ele>
        <time>2024-10-13T08:09:59Z</time>
      </trkpt>
      <trkpt lat="49.20974" lon="0.289">
        <ele>137.2</ele>
        <time>2024-10-13T08:10:00Z</time>
      </trkpt>
      <trkpt lat="49.20979" lon="0.2891">
        <ele>137.2</ele>
        <time>2024-10-13T08:10:01Z</time>
      </trkpt>
      <trkpt lat="49.20984" lon="0.28921">
        <ele>137.2</ele>
        <time>2024-10-13T08:10:02Z</time>
      </trkpt>
      <trkpt lat="49.20989" lon="0.28931">
        <ele>137.2</ele>
        <time>2024-10-13T08:10:03Z</time>
      </trkpt>
      <trkpt lat="49.20995" lon="0.28941">
        <ele>137.2</ele>
        <time>2024-10-13T08:10:04Z</time>
      </trkpt>
      <trkpt lat="49.21" lon="0.28951">
        <ele>137.2</ele>
        <time>2024-10-13T08:10:05Z</time>
      </trkpt>
      <trkpt lat="49.21005" lon="0.28962">
        <ele>137.2</ele>
        <time>2024-10-13T08:10:06Z</time>
      </trkpt>
      <trkpt lat="49.21011" lon="0.28972">
        <ele>137.2</ele>
        <time>2024-10-13T08:10:07Z</time>
      </trkpt>
      <trkpt lat="49.21016" lon="0.28983">
        <ele>137.2</ele>
        <time>2024-10-13T08:10:08Z</time>
      </trkpt>
      <trkpt lat="49.21021" lon="0.28993">
        <ele>137.2</ele>
        <time>2024-10-13T08:10:09Z</time>
      </trkpt>
      <trkpt lat="49.21027" lon="0.29004">
        <ele>137.2</ele>
        <time>2024-10-13T08:10:10Z</time>
      </trkpt>
      <trkpt lat="49.21032" lon="0.29014">
        <ele>137</ele>
        <time>2024-10-13T08:10:11Z</time>
      </trkpt>
      <trkpt lat="49.21037" lon="0.29025">
        <ele>137</ele>
        <time>2024-10-13T08:10:12Z</time>
      </trkpt>
      <trkpt lat="49.21042" lon="0.29035">
        <ele>137</ele>
        <time>2024-10-13T08:10:13Z</time>
      </trkpt>
      <trkpt lat="49.21047" lon="0.29045">
        <ele>137</ele>
        <time>2024-10-13T08:10:14Z</time>
      </trkpt>
      <trkpt lat="49.21053" lon="0.29055">
        <ele>136.8</ele>
        <time>2024-10-13T08:10:15Z</time>
      </trkpt>
      <trkpt lat="49.21058" lon="0.29066">
        <ele>136.6</ele>
        <time>2024-10-13T08:10:16Z</time>
      </trkpt>
      <trkpt lat="49.21064" lon="0.29076">
        <ele>136.8</ele>
        <time>2024-10-13T08:10:17Z</time>
      </trkpt>
      <trkpt lat="49.2107" lon="0.29087">
        <ele>136.6</ele>
        <time>2024-10-13T08:10:18Z</time>
      </trkpt>
      <trkpt lat="49.21076" lon="0.29097">
        <ele>136.6</ele>
        <time>2024-10-13T08:10:19Z</time>
      </trkpt>
      <trkpt lat="49.21083" lon="0.29108">
        <ele>136.4</ele>
        <time>2024-10-13T08:10:20Z</time>
      </trkpt>
      <trkpt lat="49.21089" lon="0.29118">
        <ele>136.4</ele>
        <time>2024-10-13T08:10:21Z</time>
      </trkpt>
      <trkpt lat="49.21095" lon="0.29128">
        <ele>136.4</ele>
        <time>2024-10-13T08:10:22Z</time>
      </trkpt>
      <trkpt lat="49.21101" lon="0.29138">
        <ele>136.2</ele>
        <time>2024-10-13T08:10:23Z</time>
      </trkpt>
      <trkpt lat="49.21107" lon="0.29149">
        <ele>136.2</ele>
        <time>2024-10-13T08:10:24Z</time>
      </trkpt>
      <trkpt lat="49.21112" lon="0.29159">
        <ele>136</ele>
        <time>2024-10-13T08:10:25Z</time>
      </trkpt>
      <trkpt lat="49.21117" lon="0.2917">
        <ele>135.8</ele>
        <time>2024-10-13T08:10:26Z</time>
      </trkpt>
      <trkpt lat="49.21122" lon="0.2918">
        <ele>135.6</ele>
        <time>2024-10-13T08:10:27Z</time>
      </trkpt>
      <trkpt lat="49.21126" lon="0.29189">
        <ele>135.6</ele>
        <time>2024-10-13T08:10:28Z</time>
      </trkpt>
      <trkpt lat="49.2113" lon="0.29197">
        <ele>135.4</ele>
        <time>2024-10-13T08:10:29Z</time>
      </trkpt>
      <trkpt lat="49.21133" lon="0.29206">
        <ele>135.4</ele>
        <time>2024-10-13T08:10:30Z</time>
      </trkpt>
      <trkpt lat="49.21137" lon="0.29216">
        <ele>135.4</ele>
        <time>2024-10-13T08:10:31Z</time>
      </trkpt>
      <trkpt lat="49.2114" lon="0.29226">
        <ele>135.4</ele>
        <time>2024-10-13T08:10:32Z</time>
      </trkpt>
      <trkpt lat="49.21144" lon="0.29237">
        <ele>135.2</ele>
        <time>2024-10-13T08:10:33Z</time>
      </trkpt>
      <trkpt lat="49.21147" lon="0.29249">
        <ele>135.2</ele>
        <time>2024-10-13T08:10:34Z</time>
      </trkpt>
      <trkpt lat="49.2115" lon="0.2926">
        <ele>135.2</ele>
        <time>2024-10-13T08:10:35Z</time>
      </trkpt>
      <trkpt lat="49.21153" lon="0.29272">
        <ele>135</ele>
        <time>2024-10-13T08:10:36Z</time>
      </trkpt>
      <trkpt lat="49.21156" lon="0.29284">
        <ele>135</ele>
        <time>2024-10-13T08:10:37Z</time>
      </trkpt>
      <trkpt lat="49.2116" lon="0.29296">
        <ele>135</ele>
        <time>2024-10-13T08:10:38Z</time>
      </trkpt>
      <trkpt lat="49.21163" lon="0.29308">
        <ele>135</ele>
        <time>2024-10-13T08:10:39Z</time>
      </trkpt>
      <trkpt lat="49.21166" lon="0.2932">
        <ele>134.8</ele>
        <time>2024-10-13T08:10:40Z</time>
      </trkpt>
      <trkpt lat="49.21169" lon="0.29331">
        <ele>134.8</ele>
        <time>2024-10-13T08:10:41Z</time>
      </trkpt>
      <trkpt lat="49.21173" lon="0.29343">
        <ele>134.6</ele>
        <time>2024-10-13T08:10:42Z</time>
      </trkpt>
      <trkpt lat="49.21176" lon="0.29354">
        <ele>134.6</ele>
        <time>2024-10-13T08:10:43Z</time>
      </trkpt>
      <trkpt lat="49.2118" lon="0.29366">
        <ele>134.4</ele>
        <time>2024-10-13T08:10:44Z</time>
      </trkpt>
      <trkpt lat="49.21184" lon="0.29377">
        <ele>134.4</ele>
        <time>2024-10-13T08:10:45Z</time>
      </trkpt>
      <trkpt lat="49.21188" lon="0.29388">
        <ele>134.2</ele>
        <time>2024-10-13T08:10:46Z</time>
      </trkpt>
      <trkpt lat="49.21192" lon="0.29398">
        <ele>134.2</ele>
        <time>2024-10-13T08:10:47Z</time>
      </trkpt>
      <trkpt lat="49.21197" lon="0.29407">
        <ele>134</ele>
        <time>2024-10-13T08:10:48Z</time>
      </trkpt>
      <trkpt lat="49.21202" lon="0.29416">
        <ele>134</ele>
        <time>2024-10-13T08:10:49Z</time>
      </trkpt>
      <trkpt lat="49.21208" lon="0.29424">
        <ele>134</ele>
        <time>2024-10-13T08:10:50Z</time>
      </trkpt>
      <trkpt lat="49.21214" lon="0.29432">
        <ele>134</ele>
        <time>2024-10-13T08:10:51Z</time>
      </trkpt>
      <trkpt lat="49.2122" lon="0.29439">
        <ele>133.8</ele>
        <time>2024-10-13T08:10:52Z</time>
      </trkpt>
      <trkpt lat="49.21225" lon="0.29447">
        <ele>133.8</ele>
        <time>2024-10-13T08:10:53Z</time>
      </trkpt>
      <trkpt lat="49.21231" lon="0.29454">
        <ele>133.6</ele>
        <time>2024-10-13T08:10:54Z</time>
      </trkpt>
      <trkpt lat="49.21236" lon="0.29462">
        <ele>133.6</ele>
        <time>2024-10-13T08:10:55Z</time>
      </trkpt>
      <trkpt lat="49.21241" lon="0.29469">
        <ele>133.4</ele>
        <time>2024-10-13T08:10:56Z</time>
      </trkpt>
      <trkpt lat="49.21247" lon="0.29477">
        <ele>133.4</ele>
        <time>2024-10-13T08:10:57Z</time>
      </trkpt>
      <trkpt lat="49.21252" lon="0.29484">
        <ele>133.2</ele>
        <time>2024-10-13T08:10:58Z</time>
      </trkpt>
      <trkpt lat="49.21257" lon="0.29491">
        <ele>133.2</ele>
        <time>2024-10-13T08:10:59Z</time>
      </trkpt>
      <trkpt lat="49.21262" lon="0.29499">
        <ele>133</ele>
        <time>2024-10-13T08:11:00Z</time>
      </trkpt>
      <trkpt lat="49.21266" lon="0.29508">
        <ele>133</ele>
        <time>2024-10-13T08:11:01Z</time>
      </trkpt>
      <trkpt lat="49.21271" lon="0.29517">
        <ele>132.8</ele>
        <time>2024-10-13T08:11:02Z</time>
      </trkpt>
      <trkpt lat="49.21276" lon="0.29527">
        <ele>132.8</ele>
        <time>2024-10-13T08:11:03Z</time>
      </trkpt>
      <trkpt lat="49.2128" lon="0.29536">
        <ele>132.8</ele>
        <time>2024-10-13T08:11:04Z</time>
      </trkpt>
      <trkpt lat="49.21284" lon="0.29546">
        <ele>132.8</ele>
        <time>2024-10-13T08:11:05Z</time>
      </trkpt>
      <trkpt lat="49.21288" lon="0.29556">
        <ele>132.8</ele>
        <time>2024-10-13T08:11:06Z</time>
      </trkpt>
      <trkpt lat="49.21292" lon="0.29567">
        <ele>132.6</ele>
        <time>2024-10-13T08:11:07Z</time>
      </trkpt>
      <trkpt lat="49.21297" lon="0.29579">
        <ele>132.6</ele>
        <time>2024-10-13T08:11:08Z</time>
      </trkpt>
      <trkpt lat="49.21301" lon="0.29587">
        <ele>132.4</ele>
        <time>2024-10-13T08:11:09Z</time>
      </trkpt>
      <trkpt lat="49.21305" lon="0.29597">
        <ele>132.2</ele>
        <time>2024-10-13T08:11:10Z</time>
      </trkpt>
      <trkpt lat="49.21311" lon="0.29607">
        <ele>132.2</ele>
        <time>2024-10-13T08:11:11Z</time>
      </trkpt>
      <trkpt lat="49.21316" lon="0.29616">
        <ele>132</ele>
        <time>2024-10-13T08:11:12Z</time>
      </trkpt>
      <trkpt lat="49.21322" lon="0.29625">
        <ele>132</ele>
        <time>2024-10-13T08:11:13Z</time>
      </trkpt>
      <trkpt lat="49.21327" lon="0.29635">
        <ele>131.8</ele>
        <time>2024-10-13T08:11:14Z</time>
      </trkpt>
      <trkpt lat="49.21332" lon="0.29645">
        <ele>131.8</ele>
        <time>2024-10-13T08:11:15Z</time>
      </trkpt>
      <trkpt lat="49.21337" lon="0.29655">
        <ele>131.6</ele>
        <time>2024-10-13T08:11:16Z</time>
      </trkpt>
      <trkpt lat="49.21341" lon="0.29666">
        <ele>131.4</ele>
        <time>2024-10-13T08:11:17Z</time>
      </trkpt>
      <trkpt lat="49.21346" lon="0.29677">
        <ele>131.4</ele>
        <time>2024-10-13T08:11:18Z</time>
      </trkpt>
      <trkpt lat="49.2135" lon="0.29688">
        <ele>131.2</ele>
        <time>2024-10-13T08:11:19Z</time>
      </trkpt>
      <trkpt lat="49.21355" lon="0.29699">
        <ele>131</ele>
        <time>2024-10-13T08:11:20Z</time>
      </trkpt>
      <trkpt lat="49.21359" lon="0.29709">
        <ele>130.8</ele>
        <time>2024-10-13T08:11:21Z</time>
      </trkpt>
      <trkpt lat="49.21363" lon="0.29721">
        <ele>130.8</ele>
        <time>2024-10-13T08:11:22Z</time>
      </trkpt>
      <trkpt lat="49.21367" lon="0.29731">
        <ele>130.6</ele>
        <time>2024-10-13T08:11:23Z</time>
      </trkpt>
      <trkpt lat="49.21371" lon="0.29741">
        <ele>130.6</ele>
        <time>2024-10-13T08:11:24Z</time>
      </trkpt>
      <trkpt lat="49.21376" lon="0.29752">
        <ele>130.2</ele>
        <time>2024-10-13T08:11:25Z</time>
      </trkpt>
      <trkpt lat="49.2138" lon="0.29762">
        <ele>130</ele>
        <time>2024-10-13T08:11:26Z</time>
      </trkpt>
      <trkpt lat="49.21384" lon="0.29772">
        <ele>129.8</ele>
        <time>2024-10-13T08:11:27Z</time>
      </trkpt>
      <trkpt lat="49.21388" lon="0.29782">
        <ele>129.4</ele>
        <time>2024-10-13T08:11:28Z</time>
      </trkpt>
      <trkpt lat="49.21392" lon="0.29792">
        <ele>129.4</ele>
        <time>2024-10-13T08:11:29Z</time>
      </trkpt>
      <trkpt lat="49.21396" lon="0.29801">
        <ele>129.2</ele>
        <time>2024-10-13T08:11:30Z</time>
      </trkpt>
      <trkpt lat="49.21399" lon="0.29811">
        <ele>129.2</ele>
        <time>2024-10-13T08:11:31Z</time>
      </trkpt>
      <trkpt lat="49.21402" lon="0.29822">
        <ele>129</ele>
        <time>2024-10-13T08:11:32Z</time>
      </trkpt>
      <trkpt lat="49.21403" lon="0.29833">
        <ele>129</ele>
        <time>2024-10-13T08:11:33Z</time>
      </trkpt>
      <trkpt lat="49.21405" lon="0.29844">
        <ele>128.8</ele>
        <time>2024-10-13T08:11:34Z</time>
      </trkpt>
      <trkpt lat="49.21406" lon="0.29855">
        <ele>128.6</ele>
        <time>2024-10-13T08:11:35Z</time>
      </trkpt>
      <trkpt lat="49.21408" lon="0.29867">
        <ele>128.4</ele>
        <time>2024-10-13T08:11:36Z</time>
      </trkpt>
      <trkpt lat="49.21409" lon="0.29878">
        <ele>128.4</ele>
        <time>2024-10-13T08:11:37Z</time>
      </trkpt>
      <trkpt lat="49.21411" lon="0.29889">
        <ele>128.2</ele>
        <time>2024-10-13T08:11:38Z</time>
      </trkpt>
      <trkpt lat="49.21413" lon="0.299">
        <ele>128.2</ele>
        <time>2024-10-13T08:11:39Z</time>
      </trkpt>
      <trkpt lat="49.21415" lon="0.29912">
        <ele>128.2</ele>
        <time>2024-10-13T08:11:40Z</time>
      </trkpt>
      <trkpt lat="49.21417" lon="0.29922">
        <ele>128.2</ele>
        <time>2024-10-13T08:11:41Z</time>
      </trkpt>
      <trkpt lat="49.21419" lon="0.29933">
        <ele>128</ele>
        <time>2024-10-13T08:11:42Z</time>
      </trkpt>
      <trkpt lat="49.21422" lon="0.29943">
        <ele>128</ele>
        <time>2024-10-13T08:11:43Z</time>
      </trkpt>
      <trkpt lat="49.21426" lon="0.29953">
        <ele>127.8</ele>
        <time>2024-10-13T08:11:44Z</time>
      </trkpt>
      <trkpt lat="49.21429" lon="0.29962">
        <ele>127.6</ele>
        <time>2024-10-13T08:11:45Z</time>
      </trkpt>
      <trkpt lat="49.21434" lon="0.29971">
        <ele>127.6</ele>
        <time>2024-10-13T08:11:46Z</time>
      </trkpt>
      <trkpt lat="49.21438" lon="0.2998">
        <ele>127.4</ele>
        <time>2024-10-13T08:11:47Z</time>
      </trkpt>
      <trkpt lat="49.21443" lon="0.29988">
        <ele>127.2</ele>
        <time>2024-10-13T08:11:48Z</time>
      </trkpt>
      <trkpt lat="49.21448" lon="0.29996">
        <ele>127</ele>
        <time>2024-10-13T08:11:49Z</time>
      </trkpt>
      <trkpt lat="49.21453" lon="0.30002">
        <ele>126.8</ele>
        <time>2024-10-13T08:11:50Z</time>
      </trkpt>
      <trkpt lat="49.21459" lon="0.30008">
        <ele>126.6</ele>
        <time>2024-10-13T08:11:51Z</time>
      </trkpt>
      <trkpt lat="49.21465" lon="0.30013">
        <ele>126.6</ele>
        <time>2024-10-13T08:11:52Z</time>
      </trkpt>
      <trkpt lat="49.2147" lon="0.30018">
        <ele>126.4</ele>
        <time>2024-10-13T08:11:53Z</time>
      </trkpt>
      <trkpt lat="49.21475" lon="0.30023">
        <ele>126.4</ele>
        <time>2024-10-13T08:11:54Z</time>
      </trkpt>
      <trkpt lat="49.21481" lon="0.3003">
        <ele>126.4</ele>
        <time>2024-10-13T08:11:55Z</time>
      </trkpt>
      <trkpt lat="49.21483" lon="0.30035">
        <ele>126.2</ele>
        <time>2024-10-13T08:11:56Z</time>
      </trkpt>
      <trkpt lat="49.21487" lon="0.30043">
        <ele>126</ele>
        <time>2024-10-13T08:11:57Z</time>
      </trkpt>
      <trkpt lat="49.2149" lon="0.30048">
        <ele>125.8</ele>
        <time>2024-10-13T08:11:58Z</time>
      </trkpt>
      <trkpt lat="49.21492" lon="0.30051">
        <ele>125.8</ele>
        <time>2024-10-13T08:11:59Z</time>
      </trkpt>
      <trkpt lat="49.21494" lon="0.30057">
        <ele>125.6</ele>
        <time>2024-10-13T08:12:00Z</time>
      </trkpt>
      <trkpt lat="49.21496" lon="0.30062">
        <ele>125.6</ele>
        <time>2024-10-13T08:12:01Z</time>
      </trkpt>
      <trkpt lat="49.21498" lon="0.30068">
        <ele>125.6</ele>
        <time>2024-10-13T08:12:02Z</time>
      </trkpt>
      <trkpt lat="49.215" lon="0.30072">
        <ele>125.6</ele>
        <time>2024-10-13T08:12:03Z</time>
      </trkpt>
      <trkpt lat="49.21502" lon="0.30076">
        <ele>125.4</ele>
        <time>2024-10-13T08:12:04Z</time>
      </trkpt>
      <trkpt lat="49.21504" lon="0.3008">
        <ele>125.4</ele>
        <time>2024-10-13T08:12:05Z</time>
      </trkpt>
      <trkpt lat="49.21507" lon="0.30085">
        <ele>125.4</ele>
        <time>2024-10-13T08:12:06Z</time>
      </trkpt>
      <trkpt lat="49.21511" lon="0.30089">
        <ele>125.2</ele>
        <time>2024-10-13T08:12:07Z</time>
      </trkpt>
      <trkpt lat="49.21515" lon="0.30094">
        <ele>125.2</ele>
        <time>2024-10-13T08:12:08Z</time>
      </trkpt>
      <trkpt lat="49.21519" lon="0.30098">
        <ele>124.8</ele>
        <time>2024-10-13T08:12:09Z</time>
      </trkpt>
      <trkpt lat="49.21524" lon="0.30102">
        <ele>124.6</ele>
        <time>2024-10-13T08:12:10Z</time>
      </trkpt>
      <trkpt lat="49.21529" lon="0.30106">
        <ele>124.4</ele>
        <time>2024-10-13T08:12:11Z</time>
      </trkpt>
      <trkpt lat="49.21533" lon="0.3011">
        <ele>124.2</ele>
        <time>2024-10-13T08:12:12Z</time>
      </trkpt>
      <trkpt lat="49.21536" lon="0.30112">
        <ele>124</ele>
        <time>2024-10-13T08:12:13Z</time>
      </trkpt>
      <trkpt lat="49.2154" lon="0.30115">
        <ele>123.6</ele>
        <time>2024-10-13T08:12:14Z</time>
      </trkpt>
      <trkpt lat="49.21542" lon="0.30117">
        <ele>123.4</ele>
        <time>2024-10-13T08:12:15Z</time>
      </trkpt>
      <trkpt lat="49.21544" lon="0.30119">
        <ele>123.2</ele>
        <time>2024-10-13T08:12:16Z</time>
      </trkpt>
      <trkpt lat="49.21547" lon="0.30121">
        <ele>123</ele>
        <time>2024-10-13T08:12:17Z</time>
      </trkpt>
      <trkpt lat="49.21549" lon="0.30123">
        <ele>123</ele>
        <time>2024-10-13T08:12:18Z</time>
      </trkpt>
      <trkpt lat="49.21551" lon="0.30124">
        <ele>122.8</ele>
        <time>2024-10-13T08:12:19Z</time>
      </trkpt>
      <trkpt lat="49.21552" lon="0.30125">
        <ele>122.8</ele>
        <time>2024-10-13T08:12:20Z</time>
      </trkpt>
      <trkpt lat="49.21554" lon="0.30126">
        <ele>122.8</ele>
        <time>2024-10-13T08:12:21Z</time>
      </trkpt>
      <trkpt lat="49.21554" lon="0.30126">
        <ele>122.8</ele>
        <time>2024-10-13T08:12:22Z</time>
      </trkpt>
      <trkpt lat="49.21552" lon="0.30127">
        <ele>121.6</ele>
        <time>2024-10-13T08:12:57Z</time>
      </trkpt>
      <trkpt lat="49.21551" lon="0.30126">
        <ele>121.6</ele>
        <time>2024-10-13T08:12:58Z</time>
      </trkpt>
      <trkpt lat="49.21549" lon="0.30124">
        <ele>121.6</ele>
        <time>2024-10-13T08:12:59Z</time>
      </trkpt>
      <trkpt lat="49.21548" lon="0.30123">
        <ele>121.6</ele>
        <time>2024-10-13T08:13:00Z</time>
      </trkpt>
      <trkpt lat="49.21546" lon="0.30122">
        <ele>121.6</ele>
        <time>2024-10-13T08:13:01Z</time>
      </trkpt>
      <trkpt lat="49.21544" lon="0.3012">
        <ele>121.6</ele>
        <time>2024-10-13T08:13:02Z</time>
      </trkpt>
      <trkpt lat="49.21542" lon="0.30118">
        <ele>121.6</ele>
        <time>2024-10-13T08:13:03Z</time>
      </trkpt>
      <trkpt lat="49.2154" lon="0.30117">
        <ele>121.6</ele>
        <time>2024-10-13T08:13:04Z</time>
      </trkpt>
      <trkpt lat="49.21538" lon="0.30115">
        <ele>121.6</ele>
        <time>2024-10-13T08:13:05Z</time>
      </trkpt>
      <trkpt lat="49.21536" lon="0.30113">
        <ele>121.6</ele>
        <time>2024-10-13T08:13:06Z</time>
      </trkpt>
      <trkpt lat="49.21534" lon="0.30111">
        <ele>121.8</ele>
        <time>2024-10-13T08:13:07Z</time>
      </trkpt>
      <trkpt lat="49.21531" lon="0.30109">
        <ele>121.8</ele>
        <time>2024-10-13T08:13:08Z</time>
      </trkpt>
      <trkpt lat="49.21528" lon="0.30106">
        <ele>121.8</ele>
        <time>2024-10-13T08:13:09Z</time>
      </trkpt>
      <trkpt lat="49.21525" lon="0.30104">
        <ele>121.8</ele>
        <time>2024-10-13T08:13:10Z</time>
      </trkpt>
      <trkpt lat="49.21522" lon="0.30101">
        <ele>121.8</ele>
        <time>2024-10-13T08:13:11Z</time>
      </trkpt>
      <trkpt lat="49.21519" lon="0.30098">
        <ele>122</ele>
        <time>2024-10-13T08:13:12Z</time>
      </trkpt>
      <trkpt lat="49.21515" lon="0.30095">
        <ele>122.2</ele>
        <time>2024-10-13T08:13:13Z</time>
      </trkpt>
      <trkpt lat="49.21512" lon="0.30093">
        <ele>122.2</ele>
        <time>2024-10-13T08:13:14Z</time>
      </trkpt>
      <trkpt lat="49.21509" lon="0.30091">
        <ele>122.4</ele>
        <time>2024-10-13T08:13:15Z</time>
      </trkpt>
      <trkpt lat="49.21506" lon="0.30087">
        <ele>122.4</ele>
        <time>2024-10-13T08:13:16Z</time>
      </trkpt>
      <trkpt lat="49.21503" lon="0.30084">
        <ele>122.4</ele>
        <time>2024-10-13T08:13:17Z</time>
      </trkpt>
      <trkpt lat="49.21501" lon="0.3008">
        <ele>122.4</ele>
        <time>2024-10-13T08:13:18Z</time>
      </trkpt>
      <trkpt lat="49.21499" lon="0.30076">
        <ele>122.6</ele>
        <time>2024-10-13T08:13:19Z</time>
      </trkpt>
      <trkpt lat="49.21497" lon="0.3007">
        <ele>122.6</ele>
        <time>2024-10-13T08:13:20Z</time>
      </trkpt>
      <trkpt lat="49.21496" lon="0.30065">
        <ele>122.6</ele>
        <time>2024-10-13T08:13:21Z</time>
      </trkpt>
      <trkpt lat="49.21495" lon="0.3006">
        <ele>122.6</ele>
        <time>2024-10-13T08:13:22Z</time>
      </trkpt>
      <trkpt lat="49.21493" lon="0.30055">
        <ele>122.6</ele>
        <time>2024-10-13T08:13:23Z</time>
      </trkpt>
      <trkpt lat="49.21491" lon="0.3005">
        <ele>122.6</ele>
        <time>2024-10-13T08:13:24Z</time>
      </trkpt>
      <trkpt lat="49.21489" lon="0.30046">
        <ele>122.8</ele>
        <time>2024-10-13T08:13:25Z</time>
      </trkpt>
      <trkpt lat="49.21486" lon="0.30041">
        <ele>122.8</ele>
        <time>2024-10-13T08:13:26Z</time>
      </trkpt>
      <trkpt lat="49.21483" lon="0.30036">
        <ele>123</ele>
        <time>2024-10-13T08:13:27Z</time>
      </trkpt>
      <trkpt lat="49.21481" lon="0.30031">
        <ele>123.2</ele>
        <time>2024-10-13T08:13:28Z</time>
      </trkpt>
      <trkpt lat="49.21478" lon="0.30026">
        <ele>123.4</ele>
        <time>2024-10-13T08:13:29Z</time>
      </trkpt>
      <trkpt lat="49.21473" lon="0.30021">
        <ele>123.6</ele>
        <time>2024-10-13T08:13:30Z</time>
      </trkpt>
      <trkpt lat="49.2147" lon="0.30017">
        <ele>123.8</ele>
        <time>2024-10-13T08:13:31Z</time>
      </trkpt>
      <trkpt lat="49.21466" lon="0.30013">
        <ele>124.2</ele>
        <time>2024-10-13T08:13:32Z</time>
      </trkpt>
      <trkpt lat="49.21462" lon="0.30009">
        <ele>124.4</ele>
        <time>2024-10-13T08:13:33Z</time>
      </trkpt>
      <trkpt lat="49.21458" lon="0.30005">
        <ele>124.6</ele>
        <time>2024-10-13T08:13:34Z</time>
      </trkpt>
      <trkpt lat="49.21454" lon="0.30001">
        <ele>125</ele>
        <time>2024-10-13T08:13:35Z</time>
      </trkpt>
      <trkpt lat="49.21451" lon="0.29997">
        <ele>125</ele>
        <time>2024-10-13T08:13:36Z</time>
      </trkpt>
      <trkpt lat="49.21447" lon="0.29993">
        <ele>125.2</ele>
        <time>2024-10-13T08:13:37Z</time>
      </trkpt>
      <trkpt lat="49.21443" lon="0.29988">
        <ele>125.4</ele>
        <time>2024-10-13T08:13:38Z</time>
      </trkpt>
      <trkpt lat="49.2144" lon="0.29984">
        <ele>125.6</ele>
        <time>2024-10-13T08:13:39Z</time>
      </trkpt>
      <trkpt lat="49.21437" lon="0.2998">
        <ele>125.8</ele>
        <time>2024-10-13T08:13:40Z</time>
      </trkpt>
      <trkpt lat="49.21434" lon="0.29974">
        <ele>125.8</ele>
        <time>2024-10-13T08:13:41Z</time>
      </trkpt>
      <trkpt lat="49.21432" lon="0.29969">
        <ele>126</ele>
        <time>2024-10-13T08:13:42Z</time>
      </trkpt>
      <trkpt lat="49.21429" lon="0.29962">
        <ele>126.2</ele>
        <time>2024-10-13T08:13:43Z</time>
      </trkpt>
      <trkpt lat="49.21427" lon="0.29955">
        <ele>126.2</ele>
        <time>2024-10-13T08:13:44Z</time>
      </trkpt>
      <trkpt lat="49.21425" lon="0.29949">
        <ele>126.4</ele>
        <time>2024-10-13T08:13:45Z</time>
      </trkpt>
      <trkpt lat="49.21423" lon="0.29942">
        <ele>126.4</ele>
        <time>2024-10-13T08:13:46Z</time>
      </trkpt>
      <trkpt lat="49.21421" lon="0.29935">
        <ele>126.4</ele>
        <time>2024-10-13T08:13:47Z</time>
      </trkpt>
      <trkpt lat="49.2142" lon="0.29928">
        <ele>126.6</ele>
        <time>2024-10-13T08:13:48Z</time>
      </trkpt>
      <trkpt lat="49.21418" lon="0.29921">
        <ele>126.6</ele>
        <time>2024-10-13T08:13:49Z</time>
      </trkpt>
      <trkpt lat="49.21417" lon="0.29913">
        <ele>126.8</ele>
        <time>2024-10-13T08:13:50Z</time>
      </trkpt>
      <trkpt lat="49.21415" lon="0.29906">
        <ele>127</ele>
        <time>2024-10-13T08:13:51Z</time>
      </trkpt>
      <trkpt lat="49.21414" lon="0.29899">
        <ele>127.2</ele>
        <time>2024-10-13T08:13:52Z</time>
      </trkpt>
      <trkpt lat="49.21413" lon="0.29892">
        <ele>127.2</ele>
        <time>2024-10-13T08:13:53Z</time>
      </trkpt>
      <trkpt lat="49.21412" lon="0.29884">
        <ele>127.4</ele>
        <time>2024-10-13T08:13:54Z</time>
      </trkpt>
      <trkpt lat="49.2141" lon="0.29876">
        <ele>127.4</ele>
        <time>2024-10-13T08:13:55Z</time>
      </trkpt>
      <trkpt lat="49.21409" lon="0.29868">
        <ele>127.6</ele>
        <time>2024-10-13T08:13:56Z</time>
      </trkpt>
      <trkpt lat="49.21408" lon="0.2986">
        <ele>127.6</ele>
        <time>2024-10-13T08:13:57Z</time>
      </trkpt>
      <trkpt lat="49.21407" lon="0.29852">
        <ele>127.6</ele>
        <time>2024-10-13T08:13:58Z</time>
      </trkpt>
      <trkpt lat="49.21406" lon="0.29843">
        <ele>127.8</ele>
        <time>2024-10-13T08:13:59Z</time>
      </trkpt>
      <trkpt lat="49.21404" lon="0.29835">
        <ele>127.8</ele>
        <time>2024-10-13T08:14:00Z</time>
      </trkpt>
      <trkpt lat="49.21403" lon="0.29827">
        <ele>127.8</ele>
        <time>2024-10-13T08:14:01Z</time>
      </trkpt>
      <trkpt lat="49.21402" lon="0.29819">
        <ele>128</ele>
        <time>2024-10-13T08:14:02Z</time>
      </trkpt>
      <trkpt lat="49.214" lon="0.29811">
        <ele>128</ele>
        <time>2024-10-13T08:14:03Z</time>
      </trkpt>
      <trkpt lat="49.21398" lon="0.29804">
        <ele>128</ele>
        <time>2024-10-13T08:14:04Z</time>
      </trkpt>
      <trkpt lat="49.21395" lon="0.29796">
        <ele>128.2</ele>
        <time>2024-10-13T08:14:05Z</time>
      </trkpt>
      <trkpt lat="49.21392" lon="0.29789">
        <ele>128.2</ele>
        <time>2024-10-13T08:14:06Z</time>
      </trkpt>
      <trkpt lat="49.21389" lon="0.29781">
        <ele>128.4</ele>
        <time>2024-10-13T08:14:07Z</time>
      </trkpt>
      <trkpt lat="49.21386" lon="0.29775">
        <ele>128.4</ele>
        <time>2024-10-13T08:14:08Z</time>
      </trkpt>
      <trkpt lat="49.21384" lon="0.29768">
        <ele>128.6</ele>
        <time>2024-10-13T08:14:09Z</time>
      </trkpt>
      <trkpt lat="49.21382" lon="0.29761">
        <ele>128.6</ele>
        <time>2024-10-13T08:14:10Z</time>
      </trkpt>
      <trkpt lat="49.21379" lon="0.29754">
        <ele>128.8</ele>
        <time>2024-10-13T08:14:11Z</time>
      </trkpt>
      <trkpt lat="49.21376" lon="0.29747">
        <ele>129</ele>
        <time>2024-10-13T08:14:12Z</time>
      </trkpt>
      <trkpt lat="49.21373" lon="0.29739">
        <ele>129</ele>
        <time>2024-10-13T08:14:13Z</time>
      </trkpt>
      <trkpt lat="49.2137" lon="0.29732">
        <ele>129.2</ele>
        <time>2024-10-13T08:14:14Z</time>
      </trkpt>
      <trkpt lat="49.21368" lon="0.29724">
        <ele>129.2</ele>
        <time>2024-10-13T08:14:15Z</time>
      </trkpt>
      <trkpt lat="49.21365" lon="0.29716">
        <ele>129.2</ele>
        <time>2024-10-13T08:14:16Z</time>
      </trkpt>
      <trkpt lat="49.21362" lon="0.29709">
        <ele>129.2</ele>
        <time>2024-10-13T08:14:17Z</time>
      </trkpt>
      <trkpt lat="49.21359" lon="0.29701">
        <ele>129.2</ele>
        <time>2024-10-13T08:14:18Z</time>
      </trkpt>
      <trkpt lat="49.21356" lon="0.29694">
        <ele>129.4</ele>
        <time>2024-10-13T08:14:19Z</time>
      </trkpt>
      <trkpt lat="49.21353" lon="0.29688">
        <ele>129.6</ele>
        <time>2024-10-13T08:14:20Z</time>
      </trkpt>
      <trkpt lat="49.2135" lon="0.29681">
        <ele>129.6</ele>
        <time>2024-10-13T08:14:21Z</time>
      </trkpt>
      <trkpt lat="49.21346" lon="0.29674">
        <ele>129.8</ele>
        <time>2024-10-13T08:14:22Z</time>
      </trkpt>
      <trkpt lat="49.21344" lon="0.29666">
        <ele>129.8</ele>
        <time>2024-10-13T08:14:23Z</time>
      </trkpt>
      <trkpt lat="49.21341" lon="0.29659">
        <ele>129.8</ele>
        <time>2024-10-13T08:14:24Z</time>
      </trkpt>
      <trkpt lat="49.21337" lon="0.29652">
        <ele>130</ele>
        <time>2024-10-13T08:14:25Z</time>
      </trkpt>
      <trkpt lat="49.21334" lon="0.29646">
        <ele>130.2</ele>
        <time>2024-10-13T08:14:26Z</time>
      </trkpt>
      <trkpt lat="49.2133" lon="0.29639">
        <ele>130.4</ele>
        <time>2024-10-13T08:14:27Z</time>
      </trkpt>
      <trkpt lat="49.21326" lon="0.29632">
        <ele>130.4</ele>
        <time>2024-10-13T08:14:28Z</time>
      </trkpt>
      <trkpt lat="49.21323" lon="0.29625">
        <ele>130.6</ele>
        <time>2024-10-13T08:14:29Z</time>
      </trkpt>
      <trkpt lat="49.2132" lon="0.29617">
        <ele>130.8</ele>
        <time>2024-10-13T08:14:30Z</time>
      </trkpt>
      <trkpt lat="49.21317" lon="0.2961">
        <ele>130.8</ele>
        <time>2024-10-13T08:14:31Z</time>
      </trkpt>
      <trkpt lat="49.21313" lon="0.29603">
        <ele>131</ele>
        <time>2024-10-13T08:14:32Z</time>
      </trkpt>
      <trkpt lat="49.2131" lon="0.29597">
        <ele>131</ele>
        <time>2024-10-13T08:14:33Z</time>
      </trkpt>
      <trkpt lat="49.21306" lon="0.2959">
        <ele>131.2</ele>
        <time>2024-10-13T08:14:34Z</time>
      </trkpt>
      <trkpt lat="49.21303" lon="0.29583">
        <ele>131.2</ele>
        <time>2024-10-13T08:14:35Z</time>
      </trkpt>
      <trkpt lat="49.213" lon="0.29577">
        <ele>131.4</ele>
        <time>2024-10-13T08:14:36Z</time>
      </trkpt>
      <trkpt lat="49.21297" lon="0.2957">
        <ele>131.6</ele>
        <time>2024-10-13T08:14:37Z</time>
      </trkpt>
      <trkpt lat="49.21294" lon="0.29563">
        <ele>131.8</ele>
        <time>2024-10-13T08:14:38Z</time>
      </trkpt>
      <trkpt lat="49.21291" lon="0.29557">
        <ele>132</ele>
        <time>2024-10-13T08:14:39Z</time>
      </trkpt>
      <trkpt lat="49.21288" lon="0.2955">
        <ele>132.2</ele>
        <time>2024-10-13T08:14:40Z</time>
      </trkpt>
      <trkpt lat="49.21285" lon="0.29543">
        <ele>132.2</ele>
        <time>2024-10-13T08:14:41Z</time>
      </trkpt>
      <trkpt lat="49.21282" lon="0.29536">
        <ele>132.4</ele>
        <time>2024-10-13T08:14:42Z</time>
      </trkpt>
      <trkpt lat="49.21278" lon="0.2953">
        <ele>132.6</ele>
        <time>2024-10-13T08:14:43Z</time>
      </trkpt>
      <trkpt lat="49.21274" lon="0.29523">
        <ele>132.8</ele>
        <time>2024-10-13T08:14:44Z</time>
      </trkpt>
      <trkpt lat="49.21271" lon="0.29516">
        <ele>132.8</ele>
        <time>2024-10-13T08:14:45Z</time>
      </trkpt>
      <trkpt lat="49.21268" lon="0.2951">
        <ele>133</ele>
        <time>2024-10-13T08:14:46Z</time>
      </trkpt>
      <trkpt lat="49.21264" lon="0.29504">
        <ele>133.2</ele>
        <time>2024-10-13T08:14:47Z</time>
      </trkpt>
      <trkpt lat="49.21261" lon="0.29497">
        <ele>133.2</ele>
        <time>2024-10-13T08:14:48Z</time>
      </trkpt>
      <trkpt lat="49.21257" lon="0.29491">
        <ele>133.2</ele>
        <time>2024-10-13T08:14:49Z</time>
      </trkpt>
      <trkpt lat="49.21254" lon="0.29485">
        <ele>133.2</ele>
        <time>2024-10-13T08:14:50Z</time>
      </trkpt>
      <trkpt lat="49.21249" lon="0.29478">
        <ele>133.4</ele>
        <time>2024-10-13T08:14:51Z</time>
      </trkpt>
      <trkpt lat="49.21245" lon="0.29472">
        <ele>133.4</ele>
        <time>2024-10-13T08:14:52Z</time>
      </trkpt>
      <trkpt lat="49.2124" lon="0.29467">
        <ele>133.6</ele>
        <time>2024-10-13T08:14:53Z</time>
      </trkpt>
      <trkpt lat="49.21236" lon="0.29461">
        <ele>133.6</ele>
        <time>2024-10-13T08:14:54Z</time>
      </trkpt>
      <trkpt lat="49.21232" lon="0.29455">
        <ele>133.6</ele>
        <time>2024-10-13T08:14:55Z</time>
      </trkpt>
      <trkpt lat="49.21227" lon="0.2945">
        <ele>133.8</ele>
        <time>2024-10-13T08:14:56Z</time>
      </trkpt>
      <trkpt lat="49.21223" lon="0.29444">
        <ele>133.8</ele>
        <time>2024-10-13T08:14:57Z</time>
      </trkpt>
      <trkpt lat="49.21218" lon="0.29438">
        <ele>133.8</ele>
        <time>2024-10-13T08:14:58Z</time>
      </trkpt>
      <trkpt lat="49.21214" lon="0.29432">
        <ele>134</ele>
        <time>2024-10-13T08:14:59Z</time>
      </trkpt>
      <trkpt lat="49.21209" lon="0.29427">
        <ele>134</ele>
        <time>2024-10-13T08:15:00Z</time>
      </trkpt>
      <trkpt lat="49.21205" lon="0.29421">
        <ele>134</ele>
        <time>2024-10-13T08:15:01Z</time>
      </trkpt>
      <trkpt lat="49.21201" lon="0.29415">
        <ele>134.2</ele>
        <time>2024-10-13T08:15:02Z</time>
      </trkpt>
      <trkpt lat="49.21197" lon="0.29408">
        <ele>134.2</ele>
        <time>2024-10-13T08:15:03Z</time>
      </trkpt>
      <trkpt lat="49.21193" lon="0.29401">
        <ele>134.2</ele>
        <time>2024-10-13T08:15:04Z</time>
      </trkpt>
      <trkpt lat="49.2119" lon="0.29395">
        <ele>134.2</ele>
        <time>2024-10-13T08:15:05Z</time>
      </trkpt>
      <trkpt lat="49.21187" lon="0.29387">
        <ele>134.2</ele>
        <time>2024-10-13T08:15:06Z</time>
      </trkpt>
      <trkpt lat="49.21184" lon="0.29379">
        <ele>134.2</ele>
        <time>2024-10-13T08:15:07Z</time>
      </trkpt>
      <trkpt lat="49.21181" lon="0.29371">
        <ele>134.4</ele>
        <time>2024-10-13T08:15:08Z</time>
      </trkpt>
      <trkpt lat="49.21178" lon="0.29363">
        <ele>134.4</ele>
        <time>2024-10-13T08:15:09Z</time>
      </trkpt>
      <trkpt lat="49.21175" lon="0.29354">
        <ele>134.4</ele>
        <time>2024-10-13T08:15:10Z</time>
      </trkpt>
      <trkpt lat="49.21172" lon="0.29345">
        <ele>134.6</ele>
        <time>2024-10-13T08:15:11Z</time>
      </trkpt>
      <trkpt lat="49.2117" lon="0.29337">
        <ele>134.6</ele>
        <time>2024-10-13T08:15:12Z</time>
      </trkpt>
      <trkpt lat="49.21167" lon="0.29328">
        <ele>134.6</ele>
        <time>2024-10-13T08:15:13Z</time>
      </trkpt>
      <trkpt lat="49.21164" lon="0.2932">
        <ele>134.6</ele>
        <time>2024-10-13T08:15:14Z</time>
      </trkpt>
      <trkpt lat="49.21162" lon="0.29311">
        <ele>134.8</ele>
        <time>2024-10-13T08:15:15Z</time>
      </trkpt>
      <trkpt lat="49.2116" lon="0.29302">
        <ele>134.8</ele>
        <time>2024-10-13T08:15:16Z</time>
      </trkpt>
      <trkpt lat="49.21158" lon="0.29293">
        <ele>134.8</ele>
        <time>2024-10-13T08:15:17Z</time>
      </trkpt>
      <trkpt lat="49.21156" lon="0.29285">
        <ele>134.8</ele>
        <time>2024-10-13T08:15:18Z</time>
      </trkpt>
      <trkpt lat="49.21153" lon="0.29276">
        <ele>134.8</ele>
        <time>2024-10-13T08:15:19Z</time>
      </trkpt>
      <trkpt lat="49.21151" lon="0.29266">
        <ele>135</ele>
        <time>2024-10-13T08:15:20Z</time>
      </trkpt>
      <trkpt lat="49.21149" lon="0.29257">
        <ele>135</ele>
        <time>2024-10-13T08:15:21Z</time>
      </trkpt>
      <trkpt lat="49.21146" lon="0.29249">
        <ele>135.2</ele>
        <time>2024-10-13T08:15:22Z</time>
      </trkpt>
      <trkpt lat="49.21143" lon="0.2924">
        <ele>135.2</ele>
        <time>2024-10-13T08:15:23Z</time>
      </trkpt>
      <trkpt lat="49.21141" lon="0.29231">
        <ele>135.2</ele>
        <time>2024-10-13T08:15:24Z</time>
      </trkpt>
      <trkpt lat="49.21138" lon="0.29222">
        <ele>135.2</ele>
        <time>2024-10-13T08:15:25Z</time>
      </trkpt>
      <trkpt lat="49.21135" lon="0.29215">
        <ele>135.2</ele>
        <time>2024-10-13T08:15:26Z</time>
      </trkpt>
      <trkpt lat="49.21132" lon="0.29204">
        <ele>135.4</ele>
        <time>2024-10-13T08:15:27Z</time>
      </trkpt>
      <trkpt lat="49.21128" lon="0.29196">
        <ele>135.4</ele>
        <time>2024-10-13T08:15:28Z</time>
      </trkpt>
      <trkpt lat="49.21125" lon="0.29188">
        <ele>135.4</ele>
        <time>2024-10-13T08:15:29Z</time>
      </trkpt>
      <trkpt lat="49.21121" lon="0.2918">
        <ele>135.4</ele>
        <time>2024-10-13T08:15:30Z</time>
      </trkpt>
      <trkpt lat="49.21118" lon="0.29171">
        <ele>135.6</ele>
        <time>2024-10-13T08:15:31Z</time>
      </trkpt>
      <trkpt lat="49.21114" lon="0.29163">
        <ele>135.6</ele>
        <time>2024-10-13T08:15:32Z</time>
      </trkpt>
      <trkpt lat="49.2111" lon="0.29156">
        <ele>135.8</ele>
        <time>2024-10-13T08:15:33Z</time>
      </trkpt>
      <trkpt lat="49.21106" lon="0.29148">
        <ele>135.8</ele>
        <time>2024-10-13T08:15:34Z</time>
      </trkpt>
      <trkpt lat="49.21101" lon="0.29139">
        <ele>135.8</ele>
        <time>2024-10-13T08:15:35Z</time>
      </trkpt>
      <trkpt lat="49.21097" lon="0.29131">
        <ele>135.8</ele>
        <time>2024-10-13T08:15:36Z</time>
      </trkpt>
      <trkpt lat="49.21092" lon="0.29123">
        <ele>135.8</ele>
        <time>2024-10-13T08:15:37Z</time>
      </trkpt>
      <trkpt lat="49.21088" lon="0.29116">
        <ele>136</ele>
        <time>2024-10-13T08:15:38Z</time>
      </trkpt>
      <trkpt lat="49.21083" lon="0.29108">
        <ele>136</ele>
        <time>2024-10-13T08:15:39Z</time>
      </trkpt>
      <trkpt lat="49.21079" lon="0.291">
        <ele>136</ele>
        <time>2024-10-13T08:15:40Z</time>
      </trkpt>
      <trkpt lat="49.21074" lon="0.29093">
        <ele>136</ele>
        <time>2024-10-13T08:15:41Z</time>
      </trkpt>
      <trkpt lat="49.21069" lon="0.29085">
        <ele>136</ele>
        <time>2024-10-13T08:15:42Z</time>
      </trkpt>
      <trkpt lat="49.21065" lon="0.29078">
        <ele>136</ele>
        <time>2024-10-13T08:15:43Z</time>
      </trkpt>
      <trkpt lat="49.21061" lon="0.2907">
        <ele>136</ele>
        <time>2024-10-13T08:15:44Z</time>
      </trkpt>
      <trkpt lat="49.21057" lon="0.29063">
        <ele>136.2</ele>
        <time>2024-10-13T08:15:45Z</time>
      </trkpt>
      <trkpt lat="49.21052" lon="0.29055">
        <ele>136.2</ele>
        <time>2024-10-13T08:15:46Z</time>
      </trkpt>
      <trkpt lat="49.21048" lon="0.29047">
        <ele>136.2</ele>
        <time>2024-10-13T08:15:47Z</time>
      </trkpt>
      <trkpt lat="49.21043" lon="0.29039">
        <ele>136.2</ele>
        <time>2024-10-13T08:15:48Z</time>
      </trkpt>
      <trkpt lat="49.21039" lon="0.29031">
        <ele>136.2</ele>
        <time>2024-10-13T08:15:49Z</time>
      </trkpt>
      <trkpt lat="49.21035" lon="0.29023">
        <ele>136.2</ele>
        <time>2024-10-13T08:15:50Z</time>
      </trkpt>
      <trkpt lat="49.21031" lon="0.29014">
        <ele>136.4</ele>
        <time>2024-10-13T08:15:51Z</time>
      </trkpt>
      <trkpt lat="49.21027" lon="0.29006">
        <ele>136.6</ele>
        <time>2024-10-13T08:15:52Z</time>
      </trkpt>
      <trkpt lat="49.21023" lon="0.28998">
        <ele>136.6</ele>
        <time>2024-10-13T08:15:53Z</time>
      </trkpt>
      <trkpt lat="49.2102" lon="0.2899">
        <ele>136.6</ele>
        <time>2024-10-13T08:15:54Z</time>
      </trkpt>
      <trkpt lat="49.21016" lon="0.28982">
        <ele>136.8</ele>
        <time>2024-10-13T08:15:55Z</time>
      </trkpt>
      <trkpt lat="49.21012" lon="0.28975">
        <ele>136.8</ele>
        <time>2024-10-13T08:15:56Z</time>
      </trkpt>
      <trkpt lat="49.21008" lon="0.28967">
        <ele>136.8</ele>
        <time>2024-10-13T08:15:57Z</time>
      </trkpt>
      <trkpt lat="49.21004" lon="0.28959">
        <ele>136.8</ele>
        <time>2024-10-13T08:15:58Z</time>
      </trkpt>
      <trkpt lat="49.21" lon="0.28951">
        <ele>137</ele>
        <time>2024-10-13T08:15:59Z</time>
      </trkpt>
      <trkpt lat="49.20996" lon="0.28943">
        <ele>137</ele>
        <time>2024-10-13T08:16:00Z</time>
      </trkpt>
      <trkpt lat="49.20992" lon="0.28935">
        <ele>137</ele>
        <time>2024-10-13T08:16:01Z</time>
      </trkpt>
      <trkpt lat="49.20988" lon="0.28926">
        <ele>137</ele>
        <time>2024-10-13T08:16:02Z</time>
      </trkpt>
      <trkpt lat="49.20984" lon="0.28918">
        <ele>137.2</ele>
        <time>2024-10-13T08:16:03Z</time>
      </trkpt>
      <trkpt lat="49.2098" lon="0.2891">
        <ele>137.4</ele>
        <time>2024-10-13T08:16:04Z</time>
      </trkpt>
      <trkpt lat="49.20977" lon="0.28902">
        <ele>137.4</ele>
        <time>2024-10-13T08:16:05Z</time>
      </trkpt>
      <trkpt lat="49.20973" lon="0.28894">
        <ele>137.6</ele>
        <time>2024-10-13T08:16:06Z</time>
      </trkpt>
      <trkpt lat="49.20969" lon="0.28885">
        <ele>137.6</ele>
        <time>2024-10-13T08:16:07Z</time>
      </trkpt>
      <trkpt lat="49.20966" lon="0.28877">
        <ele>137.6</ele>
        <time>2024-10-13T08:16:08Z</time>
      </trkpt>
      <trkpt lat="49.20963" lon="0.28868">
        <ele>137.6</ele>
        <time>2024-10-13T08:16:09Z</time>
      </trkpt>
      <trkpt lat="49.20959" lon="0.28859">
        <ele>137.8</ele>
        <time>2024-10-13T08:16:10Z</time>
      </trkpt>
      <trkpt lat="49.20956" lon="0.2885">
        <ele>137.8</ele>
        <time>2024-10-13T08:16:11Z</time>
      </trkpt>
      <trkpt lat="49.20953" lon="0.28841">
        <ele>137.8</ele>
        <time>2024-10-13T08:16:12Z</time>
      </trkpt>
      <trkpt lat="49.2095" lon="0.28832">
        <ele>138</ele>
        <time>2024-10-13T08:16:13Z</time>
      </trkpt>
      <trkpt lat="49.20946" lon="0.28823">
        <ele>138</ele>
        <time>2024-10-13T08:16:14Z</time>
      </trkpt>
      <trkpt lat="49.20943" lon="0.28815">
        <ele>138</ele>
        <time>2024-10-13T08:16:15Z</time>
      </trkpt>
      <trkpt lat="49.2094" lon="0.28806">
        <ele>138</ele>
        <time>2024-10-13T08:16:16Z</time>
      </trkpt>
      <trkpt lat="49.20936" lon="0.28798">
        <ele>138</ele>
        <time>2024-10-13T08:16:17Z</time>
      </trkpt>
      <trkpt lat="49.20933" lon="0.2879">
        <ele>138.2</ele>
        <time>2024-10-13T08:16:18Z</time>
      </trkpt>
      <trkpt lat="49.2093" lon="0.28782">
        <ele>138.2</ele>
        <time>2024-10-13T08:16:19Z</time>
      </trkpt>
      <trkpt lat="49.20927" lon="0.28774">
        <ele>138.2</ele>
        <time>2024-10-13T08:16:20Z</time>
      </trkpt>
      <trkpt lat="49.20924" lon="0.28766">
        <ele>138.2</ele>
        <time>2024-10-13T08:16:21Z</time>
      </trkpt>
      <trkpt lat="49.20922" lon="0.28759">
        <ele>138.2</ele>
        <time>2024-10-13T08:16:22Z</time>
      </trkpt>
      <trkpt lat="49.20918" lon="0.28752">
        <ele>138.2</ele>
        <time>2024-10-13T08:16:23Z</time>
      </trkpt>
      <trkpt lat="49.20916" lon="0.28745">
        <ele>138.2</ele>
        <time>2024-10-13T08:16:24Z</time>
      </trkpt>
      <trkpt lat="49.20914" lon="0.2874">
        <ele>138.2</ele>
        <time>2024-10-13T08:16:25Z</time>
      </trkpt>
      <trkpt lat="49.20912" lon="0.28735">
        <ele>138.4</ele>
        <time>2024-10-13T08:16:26Z</time>
      </trkpt>
      <trkpt lat="49.2091" lon="0.2873">
        <ele>138.4</ele>
        <time>2024-10-13T08:16:27Z</time>
      </trkpt>
      <trkpt lat="49.20908" lon="0.28726">
        <ele>138.4</ele>
        <time>2024-10-13T08:16:28Z</time>
      </trkpt>
      <trkpt lat="49.20906" lon="0.28722">
        <ele>138.4</ele>
        <time>2024-10-13T08:16:29Z</time>
      </trkpt>
      <trkpt lat="49.20905" lon="0.28717">
        <ele>138.6</ele>
        <time>2024-10-13T08:16:30Z</time>
      </trkpt>
      <trkpt lat="49.20904" lon="0.28714">
        <ele>138.6</ele>
        <time>2024-10-13T08:16:31Z</time>
      </trkpt>
      <trkpt lat="49.20902" lon="0.2871">
        <ele>138.6</ele>
        <time>2024-10-13T08:16:32Z</time>
      </trkpt>
      <trkpt lat="49.209" lon="0.28708">
        <ele>138.6</ele>
        <time>2024-10-13T08:16:33Z</time>
      </trkpt>
      <trkpt lat="49.20898" lon="0.28707">
        <ele>138.6</ele>
        <time>2024-10-13T08:16:34Z</time>
      </trkpt>
      <trkpt lat="49.20896" lon="0.28708">
        <ele>138.6</ele>
        <time>2024-10-13T08:16:35Z</time>
      </trkpt>
      <trkpt lat="49.20893" lon="0.28709">
        <ele>138.8</ele>
        <time>2024-10-13T08:16:36Z</time>
      </trkpt>
      <trkpt lat="49.20891" lon="0.28712">
        <ele>138.8</ele>
        <time>2024-10-13T08:16:37Z</time>
      </trkpt>
      <trkpt lat="49.20889" lon="0.28715">
        <ele>138.8</ele>
        <time>2024-10-13T08:16:38Z</time>
      </trkpt>
      <trkpt lat="49.20888" lon="0.28719">
        <ele>138.8</ele>
        <time>2024-10-13T08:16:39Z</time>
      </trkpt>
      <trkpt lat="49.20887" lon="0.28722">
        <ele>138.8</ele>
        <time>2024-10-13T08:16:40Z</time>
      </trkpt>
      <trkpt lat="49.20886" lon="0.28725">
        <ele>138.8</ele>
        <time>2024-10-13T08:16:41Z</time>
      </trkpt>
      <trkpt lat="49.20885" lon="0.28729">
        <ele>138.8</ele>
        <time>2024-10-13T08:16:42Z</time>
      </trkpt>
      <trkpt lat="49.20885" lon="0.28733">
        <ele>138.8</ele>
        <time>2024-10-13T08:16:43Z</time>
      </trkpt>
      <trkpt lat="49.20884" lon="0.28738">
        <ele>138.8</ele>
        <time>2024-10-13T08:16:44Z</time>
      </trkpt>
      <trkpt lat="49.20883" lon="0.28744">
        <ele>138.8</ele>
        <time>2024-10-13T08:16:45Z</time>
      </trkpt>
      <trkpt lat="49.20882" lon="0.2875">
        <ele>138.8</ele>
        <time>2024-10-13T08:16:46Z</time>
      </trkpt>
      <trkpt lat="49.20881" lon="0.28757">
        <ele>138.8</ele>
        <time>2024-10-13T08:16:47Z</time>
      </trkpt>
      <trkpt lat="49.20879" lon="0.28764">
        <ele>138.8</ele>
        <time>2024-10-13T08:16:48Z</time>
      </trkpt>
      <trkpt lat="49.20878" lon="0.28771">
        <ele>138.8</ele>
        <time>2024-10-13T08:16:49Z</time>
      </trkpt>
      <trkpt lat="49.20877" lon="0.28778">
        <ele>138.8</ele>
        <time>2024-10-13T08:16:50Z</time>
      </trkpt>
      <trkpt lat="49.20876" lon="0.28786">
        <ele>138.8</ele>
        <time>2024-10-13T08:16:51Z</time>
      </trkpt>
      <trkpt lat="49.20876" lon="0.28794">
        <ele>138.8</ele>
        <time>2024-10-13T08:16:52Z</time>
      </trkpt>
      <trkpt lat="49.20875" lon="0.28803">
        <ele>138.8</ele>
        <time>2024-10-13T08:16:53Z</time>
      </trkpt>
      <trkpt lat="49.20875" lon="0.28811">
        <ele>138.8</ele>
        <time>2024-10-13T08:16:54Z</time>
      </trkpt>
      <trkpt lat="49.20874" lon="0.2882">
        <ele>138.6</ele>
        <time>2024-10-13T08:16:55Z</time>
      </trkpt>
      <trkpt lat="49.20874" lon="0.28829">
        <ele>138.6</ele>
        <time>2024-10-13T08:16:56Z</time>
      </trkpt>
      <trkpt lat="49.20873" lon="0.28838">
        <ele>138.6</ele>
        <time>2024-10-13T08:16:57Z</time>
      </trkpt>
      <trkpt lat="49.20872" lon="0.28847">
        <ele>138.6</ele>
        <time>2024-10-13T08:16:58Z</time>
      </trkpt>
      <trkpt lat="49.20872" lon="0.28857">
        <ele>138.6</ele>
        <time>2024-10-13T08:16:59Z</time>
      </trkpt>
      <trkpt lat="49.20871" lon="0.28867">
        <ele>138.6</ele>
        <time>2024-10-13T08:17:00Z</time>
      </trkpt>
      <trkpt lat="49.20871" lon="0.28878">
        <ele>138.6</ele>
        <time>2024-10-13T08:17:01Z</time>
      </trkpt>
      <trkpt lat="49.20871" lon="0.2889">
        <ele>138.6</ele>
        <time>2024-10-13T08:17:02Z</time>
      </trkpt>
      <trkpt lat="49.2087" lon="0.28901">
        <ele>138.4</ele>
        <time>2024-10-13T08:17:03Z</time>
      </trkpt>
      <trkpt lat="49.20869" lon="0.28912">
        <ele>138.4</ele>
        <time>2024-10-13T08:17:04Z</time>
      </trkpt>
      <trkpt lat="49.20868" lon="0.28924">
        <ele>138.4</ele>
        <time>2024-10-13T08:17:05Z</time>
      </trkpt>
      <trkpt lat="49.20868" lon="0.28936">
        <ele>138.4</ele>
        <time>2024-10-13T08:17:06Z</time>
      </trkpt>
      <trkpt lat="49.20867" lon="0.28948">
        <ele>138.2</ele>
        <time>2024-10-13T08:17:07Z</time>
      </trkpt>
      <trkpt lat="49.20866" lon="0.2896">
        <ele>138.2</ele>
        <time>2024-10-13T08:17:08Z</time>
      </trkpt>
      <trkpt lat="49.20865" lon="0.28971">
        <ele>138</ele>
        <time>2024-10-13T08:17:09Z</time>
      </trkpt>
      <trkpt lat="49.20864" lon="0.28983">
        <ele>138</ele>
        <time>2024-10-13T08:17:10Z</time>
      </trkpt>
      <trkpt lat="49.20863" lon="0.28995">
        <ele>137.8</ele>
        <time>2024-10-13T08:17:11Z</time>
      </trkpt>
      <trkpt lat="49.20862" lon="0.29007">
        <ele>137.8</ele>
        <time>2024-10-13T08:17:12Z</time>
      </trkpt>
      <trkpt lat="49.20861" lon="0.29019">
        <ele>137.6</ele>
        <time>2024-10-13T08:17:13Z</time>
      </trkpt>
      <trkpt lat="49.20861" lon="0.29031">
        <ele>137.2</ele>
        <time>2024-10-13T08:17:14Z</time>
      </trkpt>
      <trkpt lat="49.2086" lon="0.29044">
        <ele>137</ele>
        <time>2024-10-13T08:17:15Z</time>
      </trkpt>
      <trkpt lat="49.20859" lon="0.29056">
        <ele>136.8</ele>
        <time>2024-10-13T08:17:16Z</time>
      </trkpt>
      <trkpt lat="49.20859" lon="0.29068">
        <ele>136.6</ele>
        <time>2024-10-13T08:17:17Z</time>
      </trkpt>
      <trkpt lat="49.20857" lon="0.29081">
        <ele>136.6</ele>
        <time>2024-10-13T08:17:18Z</time>
      </trkpt>
      <trkpt lat="49.20856" lon="0.29094">
        <ele>136.6</ele>
        <time>2024-10-13T08:17:19Z</time>
      </trkpt>
      <trkpt lat="49.20856" lon="0.29106">
        <ele>136.4</ele>
        <time>2024-10-13T08:17:20Z</time>
      </trkpt>
      <trkpt lat="49.20856" lon="0.29119">
        <ele>136.4</ele>
        <time>2024-10-13T08:17:21Z</time>
      </trkpt>
      <trkpt lat="49.20855" lon="0.29131">
        <ele>136.4</ele>
        <time>2024-10-13T08:17:22Z</time>
      </trkpt>
      <trkpt lat="49.20855" lon="0.29143">
        <ele>136.4</ele>
        <time>2024-10-13T08:17:23Z</time>
      </trkpt>
      <trkpt lat="49.20855" lon="0.29156">
        <ele>136.4</ele>
        <time>2024-10-13T08:17:24Z</time>
      </trkpt>
      <trkpt lat="49.20855" lon="0.29169">
        <ele>136.2</ele>
        <time>2024-10-13T08:17:25Z</time>
      </trkpt>
      <trkpt lat="49.20854" lon="0.29182">
        <ele>136.2</ele>
        <time>2024-10-13T08:17:26Z</time>
      </trkpt>
      <trkpt lat="49.20853" lon="0.29195">
        <ele>136.2</ele>
        <time>2024-10-13T08:17:27Z</time>
      </trkpt>
      <trkpt lat="49.20852" lon="0.29208">
        <ele>136.2</ele>
        <time>2024-10-13T08:17:28Z</time>
      </trkpt>
      <trkpt lat="49.2085" lon="0.29222">
        <ele>136.2</ele>
        <time>2024-10-13T08:17:29Z</time>
      </trkpt>
      <trkpt lat="49.20849" lon="0.29236">
        <ele>136</ele>
        <time>2024-10-13T08:17:30Z</time>
      </trkpt>
      <trkpt lat="49.20848" lon="0.2925">
        <ele>135.8</ele>
        <time>2024-10-13T08:17:31Z</time>
      </trkpt>
      <trkpt lat="49.20846" lon="0.29265">
        <ele>135.8</ele>
        <time>2024-10-13T08:17:32Z</time>
      </trkpt>
      <trkpt lat="49.20845" lon="0.29281">
        <ele>135.6</ele>
        <time>2024-10-13T08:17:33Z</time>
      </trkpt>
      <trkpt lat="49.20844" lon="0.29296">
        <ele>135.4</ele>
        <time>2024-10-13T08:17:34Z</time>
      </trkpt>
      <trkpt lat="49.20844" lon="0.29311">
        <ele>135</ele>
        <time>2024-10-13T08:17:35Z</time>
      </trkpt>
      <trkpt lat="49.20844" lon="0.29326">
        <ele>134.8</ele>
        <time>2024-10-13T08:17:36Z</time>
      </trkpt>
      <trkpt lat="49.20844" lon="0.29341">
        <ele>134.2</ele>
        <time>2024-10-13T08:17:37Z</time>
      </trkpt>
      <trkpt lat="49.20844" lon="0.29356">
        <ele>133.6</ele>
        <time>2024-10-13T08:17:38Z</time>
      </trkpt>
      <trkpt lat="49.20844" lon="0.2937">
        <ele>132.6</ele>
        <time>2024-10-13T08:17:39Z</time>
      </trkpt>
      <trkpt lat="49.20844" lon="0.29384">
        <ele>132.2</ele>
        <time>2024-10-13T08:17:40Z</time>
      </trkpt>
      <trkpt lat="49.20844" lon="0.29398">
        <ele>131.4</ele>
        <time>2024-10-13T08:17:41Z</time>
      </trkpt>
      <trkpt lat="49.20844" lon="0.29412">
        <ele>130.8</ele>
        <time>2024-10-13T08:17:42Z</time>
      </trkpt>
      <trkpt lat="49.20843" lon="0.29426">
        <ele>130.6</ele>
        <time>2024-10-13T08:17:43Z</time>
      </trkpt>
      <trkpt lat="49.20842" lon="0.29439">
        <ele>130.4</ele>
        <time>2024-10-13T08:17:44Z</time>
      </trkpt>
      <trkpt lat="49.2084" lon="0.29453">
        <ele>130.2</ele>
        <time>2024-10-13T08:17:45Z</time>
      </trkpt>
      <trkpt lat="49.20839" lon="0.29467">
        <ele>130.2</ele>
        <time>2024-10-13T08:17:46Z</time>
      </trkpt>
      <trkpt lat="49.20836" lon="0.2948">
        <ele>130.2</ele>
        <time>2024-10-13T08:17:47Z</time>
      </trkpt>
      <trkpt lat="49.20834" lon="0.29494">
        <ele>130.2</ele>
        <time>2024-10-13T08:17:48Z</time>
      </trkpt>
      <trkpt lat="49.20832" lon="0.29508">
        <ele>130.2</ele>
        <time>2024-10-13T08:17:49Z</time>
      </trkpt>
      <trkpt lat="49.20829" lon="0.29522">
        <ele>130.2</ele>
        <time>2024-10-13T08:17:50Z</time>
      </trkpt>
      <trkpt lat="49.20827" lon="0.29536">
        <ele>130.2</ele>
        <time>2024-10-13T08:17:51Z</time>
      </trkpt>
      <trkpt lat="49.20825" lon="0.29549">
        <ele>130.2</ele>
        <time>2024-10-13T08:17:52Z</time>
      </trkpt>
      <trkpt lat="49.20822" lon="0.29562">
        <ele>130.2</ele>
        <time>2024-10-13T08:17:53Z</time>
      </trkpt>
      <trkpt lat="49.20818" lon="0.29573">
        <ele>130.2</ele>
        <time>2024-10-13T08:17:54Z</time>
      </trkpt>
      <trkpt lat="49.20813" lon="0.29584">
        <ele>130.2</ele>
        <time>2024-10-13T08:17:55Z</time>
      </trkpt>
      <trkpt lat="49.20808" lon="0.29595">
        <ele>130.2</ele>
        <time>2024-10-13T08:17:56Z</time>
      </trkpt>
      <trkpt lat="49.20802" lon="0.29604">
        <ele>130.2</ele>
        <time>2024-10-13T08:17:57Z</time>
      </trkpt>
      <trkpt lat="49.20797" lon="0.29613">
        <ele>130.4</ele>
        <time>2024-10-13T08:17:58Z</time>
      </trkpt>
      <trkpt lat="49.2079" lon="0.29621">
        <ele>130.4</ele>
        <time>2024-10-13T08:17:59Z</time>
      </trkpt>
      <trkpt lat="49.20784" lon="0.29629">
        <ele>130.4</ele>
        <time>2024-10-13T08:18:00Z</time>
      </trkpt>
      <trkpt lat="49.20778" lon="0.29637">
        <ele>130.6</ele>
        <time>2024-10-13T08:18:01Z</time>
      </trkpt>
      <trkpt lat="49.20773" lon="0.29645">
        <ele>130.8</ele>
        <time>2024-10-13T08:18:02Z</time>
      </trkpt>
      <trkpt lat="49.20767" lon="0.29653">
        <ele>131</ele>
        <time>2024-10-13T08:18:03Z</time>
      </trkpt>
      <trkpt lat="49.20761" lon="0.29661">
        <ele>131.2</ele>
        <time>2024-10-13T08:18:04Z</time>
      </trkpt>
      <trkpt lat="49.20756" lon="0.29668">
        <ele>131.4</ele>
        <time>2024-10-13T08:18:05Z</time>
      </trkpt>
      <trkpt lat="49.2075" lon="0.29675">
        <ele>131.6</ele>
        <time>2024-10-13T08:18:06Z</time>
      </trkpt>
      <trkpt lat="49.20745" lon="0.29683">
        <ele>132</ele>
        <time>2024-10-13T08:18:07Z</time>
      </trkpt>
      <trkpt lat="49.20739" lon="0.2969">
        <ele>132.2</ele>
        <time>2024-10-13T08:18:08Z</time>
      </trkpt>
      <trkpt lat="49.20733" lon="0.29698">
        <ele>132.6</ele>
        <time>2024-10-13T08:18:09Z</time>
      </trkpt>
      <trkpt lat="49.20728" lon="0.29706">
        <ele>132.8</ele>
        <time>2024-10-13T08:18:10Z</time>
      </trkpt>
      <trkpt lat="49.20723" lon="0.29714">
        <ele>133</ele>
        <time>2024-10-13T08:18:11Z</time>
      </trkpt>
      <trkpt lat="49.20718" lon="0.29722">
        <ele>133.4</ele>
        <time>2024-10-13T08:18:12Z</time>
      </trkpt>
      <trkpt lat="49.20713" lon="0.2973">
        <ele>133.6</ele>
        <time>2024-10-13T08:18:13Z</time>
      </trkpt>
      <trkpt lat="49.20709" lon="0.29739">
        <ele>134</ele>
        <time>2024-10-13T08:18:14Z</time>
      </trkpt>
      <trkpt lat="49.20705" lon="0.29747">
        <ele>134.2</ele>
        <time>2024-10-13T08:18:15Z</time>
      </trkpt>
      <trkpt lat="49.20702" lon="0.29757">
        <ele>134.4</ele>
        <time>2024-10-13T08:18:16Z</time>
      </trkpt>
      <trkpt lat="49.20699" lon="0.29767">
        <ele>134.4</ele>
        <time>2024-10-13T08:18:17Z</time>
      </trkpt>
      <trkpt lat="49.20696" lon="0.29777">
        <ele>134.8</ele>
        <time>2024-10-13T08:18:18Z</time>
      </trkpt>
      <trkpt lat="49.20693" lon="0.29789">
        <ele>135.2</ele>
        <time>2024-10-13T08:18:19Z</time>
      </trkpt>
      <trkpt lat="49.2069" lon="0.29801">
        <ele>135.2</ele>
        <time>2024-10-13T08:18:20Z</time>
      </trkpt>
      <trkpt lat="49.20688" lon="0.29813">
        <ele>135.4</ele>
        <time>2024-10-13T08:18:21Z</time>
      </trkpt>
      <trkpt lat="49.20685" lon="0.29825">
        <ele>135.4</ele>
        <time>2024-10-13T08:18:22Z</time>
      </trkpt>
      <trkpt lat="49.20684" lon="0.29838">
        <ele>135.4</ele>
        <time>2024-10-13T08:18:23Z</time>
      </trkpt>
      <trkpt lat="49.20682" lon="0.29851">
        <ele>135.4</ele>
        <time>2024-10-13T08:18:24Z</time>
      </trkpt>
      <trkpt lat="49.20682" lon="0.29864">
        <ele>135.4</ele>
        <time>2024-10-13T08:18:25Z</time>
      </trkpt>
      <trkpt lat="49.20682" lon="0.29877">
        <ele>135.4</ele>
        <time>2024-10-13T08:18:26Z</time>
      </trkpt>
      <trkpt lat="49.20684" lon="0.2989">
        <ele>135.4</ele>
        <time>2024-10-13T08:18:27Z</time>
      </trkpt>
      <trkpt lat="49.20687" lon="0.29903">
        <ele>135.4</ele>
        <time>2024-10-13T08:18:28Z</time>
      </trkpt>
      <trkpt lat="49.2069" lon="0.29915">
        <ele>135</ele>
        <time>2024-10-13T08:18:29Z</time>
      </trkpt>
      <trkpt lat="49.20694" lon="0.29926">
        <ele>134.8</ele>
        <time>2024-10-13T08:18:30Z</time>
      </trkpt>
      <trkpt lat="49.20699" lon="0.29937">
        <ele>134.6</ele>
        <time>2024-10-13T08:18:31Z</time>
      </trkpt>
      <trkpt lat="49.20704" lon="0.29948">
        <ele>134.2</ele>
        <time>2024-10-13T08:18:32Z</time>
      </trkpt>
      <trkpt lat="49.2071" lon="0.29959">
        <ele>134</ele>
        <time>2024-10-13T08:18:33Z</time>
      </trkpt>
      <trkpt lat="49.20715" lon="0.2997">
        <ele>133.8</ele>
        <time>2024-10-13T08:18:34Z</time>
      </trkpt>
      <trkpt lat="49.20721" lon="0.29981">
        <ele>133.6</ele>
        <time>2024-10-13T08:18:35Z</time>
      </trkpt>
      <trkpt lat="49.20725" lon="0.29993">
        <ele>133.4</ele>
        <time>2024-10-13T08:18:36Z</time>
      </trkpt>
      <trkpt lat="49.20729" lon="0.30005">
        <ele>133.2</ele>
        <time>2024-10-13T08:18:37Z</time>
      </trkpt>
      <trkpt lat="49.20733" lon="0.30018">
        <ele>133</ele>
        <time>2024-10-13T08:18:38Z</time>
      </trkpt>
      <trkpt lat="49.20735" lon="0.30031">
        <ele>133</ele>
        <time>2024-10-13T08:18:39Z</time>
      </trkpt>
      <trkpt lat="49.20737" lon="0.30045">
        <ele>132.6</ele>
        <time>2024-10-13T08:18:40Z</time>
      </trkpt>
      <trkpt lat="49.20738" lon="0.30059">
        <ele>132.4</ele>
        <time>2024-10-13T08:18:41Z</time>
      </trkpt>
      <trkpt lat="49.20738" lon="0.30073">
        <ele>132</ele>
        <time>2024-10-13T08:18:42Z</time>
      </trkpt>
      <trkpt lat="49.20738" lon="0.30088">
        <ele>131.6</ele>
        <time>2024-10-13T08:18:43Z</time>
      </trkpt>
      <trkpt lat="49.20738" lon="0.30102">
        <ele>131.4</ele>
        <time>2024-10-13T08:18:44Z</time>
      </trkpt>
      <trkpt lat="49.20738" lon="0.30117">
        <ele>131.2</ele>
        <time>2024-10-13T08:18:45Z</time>
      </trkpt>
      <trkpt lat="49.20738" lon="0.30132">
        <ele>130.8</ele>
        <time>2024-10-13T08:18:46Z</time>
      </trkpt>
      <trkpt lat="49.20739" lon="0.30148">
        <ele>130.4</ele>
        <time>2024-10-13T08:18:47Z</time>
      </trkpt>
      <trkpt lat="49.2074" lon="0.30164">
        <ele>129.8</ele>
        <time>2024-10-13T08:18:48Z</time>
      </trkpt>
      <trkpt lat="49.20741" lon="0.3018">
        <ele>129.4</ele>
        <time>2024-10-13T08:18:49Z</time>
      </trkpt>
      <trkpt lat="49.20742" lon="0.30197">
        <ele>129</ele>
        <time>2024-10-13T08:18:50Z</time>
      </trkpt>
      <trkpt lat="49.20744" lon="0.30214">
        <ele>128.4</ele>
        <time>2024-10-13T08:18:51Z</time>
      </trkpt>
      <trkpt lat="49.20745" lon="0.30231">
        <ele>128</ele>
        <time>2024-10-13T08:18:52Z</time>
      </trkpt>
      <trkpt lat="49.20747" lon="0.30248">
        <ele>127.8</ele>
        <time>2024-10-13T08:18:53Z</time>
      </trkpt>
      <trkpt lat="49.20747" lon="0.30265">
        <ele>127.4</ele>
        <time>2024-10-13T08:18:54Z</time>
      </trkpt>
      <trkpt lat="49.20746" lon="0.30281">
        <ele>127</ele>
        <time>2024-10-13T08:18:55Z</time>
      </trkpt>
      <trkpt lat="49.20744" lon="0.30297">
        <ele>126.2</ele>
        <time>2024-10-13T08:18:56Z</time>
      </trkpt>
      <trkpt lat="49.20741" lon="0.30311">
        <ele>125.4</ele>
        <time>2024-10-13T08:18:57Z</time>
      </trkpt>
      <trkpt lat="49.20737" lon="0.30325">
        <ele>124.6</ele>
        <time>2024-10-13T08:18:58Z</time>
      </trkpt>
      <trkpt lat="49.20733" lon="0.30339">
        <ele>122.8</ele>
        <time>2024-10-13T08:18:59Z</time>
      </trkpt>
      <trkpt lat="49.20729" lon="0.30352">
        <ele>122</ele>
        <time>2024-10-13T08:19:00Z</time>
      </trkpt>
      <trkpt lat="49.20726" lon="0.30363">
        <ele>121.4</ele>
        <time>2024-10-13T08:19:01Z</time>
      </trkpt>
      <trkpt lat="49.20723" lon="0.30374">
        <ele>121.2</ele>
        <time>2024-10-13T08:19:02Z</time>
      </trkpt>
      <trkpt lat="49.20721" lon="0.30383">
        <ele>121</ele>
        <time>2024-10-13T08:19:03Z</time>
      </trkpt>
      <trkpt lat="49.20718" lon="0.30392">
        <ele>121</ele>
        <time>2024-10-13T08:19:04Z</time>
      </trkpt>
      <trkpt lat="49.20716" lon="0.30401">
        <ele>120.8</ele>
        <time>2024-10-13T08:19:05Z</time>
      </trkpt>
      <trkpt lat="49.20714" lon="0.3041">
        <ele>120.8</ele>
        <time>2024-10-13T08:19:06Z</time>
      </trkpt>
      <trkpt lat="49.20711" lon="0.30418">
        <ele>120.8</ele>
        <time>2024-10-13T08:19:07Z</time>
      </trkpt>
      <trkpt lat="49.20709" lon="0.30427">
        <ele>120.8</ele>
        <time>2024-10-13T08:19:08Z</time>
      </trkpt>
      <trkpt lat="49.20706" lon="0.30434">
        <ele>120.8</ele>
        <time>2024-10-13T08:19:09Z</time>
      </trkpt>
      <trkpt lat="49.20704" lon="0.30442">
        <ele>120.8</ele>
        <time>2024-10-13T08:19:10Z</time>
      </trkpt>
      <trkpt lat="49.20701" lon="0.30449">
        <ele>121.2</ele>
        <time>2024-10-13T08:19:11Z</time>
      </trkpt>
      <trkpt lat="49.20698" lon="0.30457">
        <ele>121.6</ele>
        <time>2024-10-13T08:19:12Z</time>
      </trkpt>
      <trkpt lat="49.20696" lon="0.30463">
        <ele>122.2</ele>
        <time>2024-10-13T08:19:13Z</time>
      </trkpt>
      <trkpt lat="49.20694" lon="0.3047">
        <ele>122.8</ele>
        <time>2024-10-13T08:19:14Z</time>
      </trkpt>
      <trkpt lat="49.20692" lon="0.30478">
        <ele>123.6</ele>
        <time>2024-10-13T08:19:15Z</time>
      </trkpt>
      <trkpt lat="49.20689" lon="0.30485">
        <ele>124.2</ele>
        <time>2024-10-13T08:19:16Z</time>
      </trkpt>
      <trkpt lat="49.20687" lon="0.30493">
        <ele>124.8</ele>
        <time>2024-10-13T08:19:17Z</time>
      </trkpt>
      <trkpt lat="49.20685" lon="0.305">
        <ele>125.4</ele>
        <time>2024-10-13T08:19:18Z</time>
      </trkpt>
      <trkpt lat="49.20682" lon="0.30507">
        <ele>125.8</ele>
        <time>2024-10-13T08:19:19Z</time>
      </trkpt>
      <trkpt lat="49.20679" lon="0.30513">
        <ele>126.2</ele>
        <time>2024-10-13T08:19:20Z</time>
      </trkpt>
      <trkpt lat="49.20677" lon="0.30519">
        <ele>126.4</ele>
        <time>2024-10-13T08:19:21Z</time>
      </trkpt>
      <trkpt lat="49.20674" lon="0.30525">
        <ele>126.6</ele>
        <time>2024-10-13T08:19:22Z</time>
      </trkpt>
      <trkpt lat="49.20672" lon="0.30532">
        <ele>126.8</ele>
        <time>2024-10-13T08:19:23Z</time>
      </trkpt>
      <trkpt lat="49.2067" lon="0.30538">
        <ele>127</ele>
        <time>2024-10-13T08:19:24Z</time>
      </trkpt>
      <trkpt lat="49.20668" lon="0.30544">
        <ele>127.2</ele>
        <time>2024-10-13T08:19:25Z</time>
      </trkpt>
      <trkpt lat="49.20666" lon="0.3055">
        <ele>127.6</ele>
        <time>2024-10-13T08:19:26Z</time>
      </trkpt>
      <trkpt lat="49.20663" lon="0.30556">
        <ele>127.8</ele>
        <time>2024-10-13T08:19:27Z</time>
      </trkpt>
      <trkpt lat="49.20661" lon="0.30562">
        <ele>128.2</ele>
        <time>2024-10-13T08:19:28Z</time>
      </trkpt>
      <trkpt lat="49.20659" lon="0.30567">
        <ele>128.4</ele>
        <time>2024-10-13T08:19:29Z</time>
      </trkpt>
      <trkpt lat="49.20657" lon="0.30573">
        <ele>128.8</ele>
        <time>2024-10-13T08:19:30Z</time>
      </trkpt>
      <trkpt lat="49.20654" lon="0.30579">
        <ele>129</ele>
        <time>2024-10-13T08:19:31Z</time>
      </trkpt>
      <trkpt lat="49.20652" lon="0.30584">
        <ele>129.2</ele>
        <time>2024-10-13T08:19:32Z</time>
      </trkpt>
      <trkpt lat="49.2065" lon="0.3059">
        <ele>129.4</ele>
        <time>2024-10-13T08:19:33Z</time>
      </trkpt>
      <trkpt lat="49.20647" lon="0.30596">
        <ele>129.6</ele>
        <time>2024-10-13T08:19:34Z</time>
      </trkpt>
      <trkpt lat="49.20644" lon="0.30601">
        <ele>129.8</ele>
        <time>2024-10-13T08:19:35Z</time>
      </trkpt>
      <trkpt lat="49.20642" lon="0.30607">
        <ele>130</ele>
        <time>2024-10-13T08:19:36Z</time>
      </trkpt>
      <trkpt lat="49.20639" lon="0.30613">
        <ele>130.2</ele>
        <time>2024-10-13T08:19:37Z</time>
      </trkpt>
      <trkpt lat="49.20637" lon="0.30618">
        <ele>130.2</ele>
        <time>2024-10-13T08:19:38Z</time>
      </trkpt>
      <trkpt lat="49.20634" lon="0.30623">
        <ele>130.4</ele>
        <time>2024-10-13T08:19:39Z</time>
      </trkpt>
      <trkpt lat="49.20632" lon="0.30629">
        <ele>130.4</ele>
        <time>2024-10-13T08:19:40Z</time>
      </trkpt>
      <trkpt lat="49.20629" lon="0.30635">
        <ele>130.4</ele>
        <time>2024-10-13T08:19:41Z</time>
      </trkpt>
      <trkpt lat="49.20627" lon="0.30641">
        <ele>130.6</ele>
        <time>2024-10-13T08:19:42Z</time>
      </trkpt>
      <trkpt lat="49.20624" lon="0.30647">
        <ele>130.8</ele>
        <time>2024-10-13T08:19:43Z</time>
      </trkpt>
      <trkpt lat="49.20621" lon="0.30653">
        <ele>130.8</ele>
        <time>2024-10-13T08:19:44Z</time>
      </trkpt>
      <trkpt lat="49.20619" lon="0.3066">
        <ele>131</ele>
        <time>2024-10-13T08:19:45Z</time>
      </trkpt>
      <trkpt lat="49.20617" lon="0.30666">
        <ele>131.2</ele>
        <time>2024-10-13T08:19:46Z</time>
      </trkpt>
      <trkpt lat="49.20615" lon="0.30673">
        <ele>131.2</ele>
        <time>2024-10-13T08:19:47Z</time>
      </trkpt>
      <trkpt lat="49.20613" lon="0.3068">
        <ele>131.4</ele>
        <time>2024-10-13T08:19:48Z</time>
      </trkpt>
      <trkpt lat="49.20611" lon="0.30686">
        <ele>131.4</ele>
        <time>2024-10-13T08:19:49Z</time>
      </trkpt>
      <trkpt lat="49.20609" lon="0.30693">
        <ele>131.4</ele>
        <time>2024-10-13T08:19:50Z</time>
      </trkpt>
      <trkpt lat="49.20608" lon="0.307">
        <ele>131.6</ele>
        <time>2024-10-13T08:19:51Z</time>
      </trkpt>
      <trkpt lat="49.20606" lon="0.30707">
        <ele>131.6</ele>
        <time>2024-10-13T08:19:52Z</time>
      </trkpt>
      <trkpt lat="49.20605" lon="0.30714">
        <ele>131.6</ele>
        <time>2024-10-13T08:19:53Z</time>
      </trkpt>
      <trkpt lat="49.20604" lon="0.30722">
        <ele>131.6</ele>
        <time>2024-10-13T08:19:54Z</time>
      </trkpt>
      <trkpt lat="49.20603" lon="0.30729">
        <ele>131.6</ele>
        <time>2024-10-13T08:19:55Z</time>
      </trkpt>
      <trkpt lat="49.20601" lon="0.30737">
        <ele>131.6</ele>
        <time>2024-10-13T08:19:56Z</time>
      </trkpt>
      <trkpt lat="49.206" lon="0.30744">
        <ele>131.6</ele>
        <time>2024-10-13T08:19:57Z</time>
      </trkpt>
      <trkpt lat="49.206" lon="0.30752">
        <ele>131.8</ele>
        <time>2024-10-13T08:19:58Z</time>
      </trkpt>
      <trkpt lat="49.20599" lon="0.30759">
        <ele>131.8</ele>
        <time>2024-10-13T08:19:59Z</time>
      </trkpt>
      <trkpt lat="49.20598" lon="0.30767">
        <ele>131.8</ele>
        <time>2024-10-13T08:20:00Z</time>
      </trkpt>
      <trkpt lat="49.20597" lon="0.30775">
        <ele>131.8</ele>
        <time>2024-10-13T08:20:01Z</time>
      </trkpt>
      <trkpt lat="49.20596" lon="0.30783">
        <ele>131.8</ele>
        <time>2024-10-13T08:20:02Z</time>
      </trkpt>
      <trkpt lat="49.20595" lon="0.30791">
        <ele>131.8</ele>
        <time>2024-10-13T08:20:03Z</time>
      </trkpt>
      <trkpt lat="49.20594" lon="0.30799">
        <ele>131.8</ele>
        <time>2024-10-13T08:20:04Z</time>
      </trkpt>
      <trkpt lat="49.20593" lon="0.30808">
        <ele>131.8</ele>
        <time>2024-10-13T08:20:05Z</time>
      </trkpt>
      <trkpt lat="49.20593" lon="0.30816">
        <ele>132</ele>
        <time>2024-10-13T08:20:06Z</time>
      </trkpt>
      <trkpt lat="49.20592" lon="0.30824">
        <ele>132</ele>
        <time>2024-10-13T08:20:07Z</time>
      </trkpt>
      <trkpt lat="49.20592" lon="0.30832">
        <ele>132.2</ele>
        <time>2024-10-13T08:20:08Z</time>
      </trkpt>
      <trkpt lat="49.20592" lon="0.3084">
        <ele>132.2</ele>
        <time>2024-10-13T08:20:09Z</time>
      </trkpt>
      <trkpt lat="49.20592" lon="0.30849">
        <ele>132.2</ele>
        <time>2024-10-13T08:20:10Z</time>
      </trkpt>
      <trkpt lat="49.20592" lon="0.30857">
        <ele>132.4</ele>
        <time>2024-10-13T08:20:11Z</time>
      </trkpt>
      <trkpt lat="49.20591" lon="0.30865">
        <ele>132.6</ele>
        <time>2024-10-13T08:20:12Z</time>
      </trkpt>
      <trkpt lat="49.20591" lon="0.30872">
        <ele>132.6</ele>
        <time>2024-10-13T08:20:13Z</time>
      </trkpt>
      <trkpt lat="49.2059" lon="0.3088">
        <ele>132.8</ele>
        <time>2024-10-13T08:20:14Z</time>
      </trkpt>
      <trkpt lat="49.20589" lon="0.30888">
        <ele>132.8</ele>
        <time>2024-10-13T08:20:15Z</time>
      </trkpt>
      <trkpt lat="49.20588" lon="0.30896">
        <ele>133</ele>
        <time>2024-10-13T08:20:16Z</time>
      </trkpt>
      <trkpt lat="49.20586" lon="0.30903">
        <ele>133</ele>
        <time>2024-10-13T08:20:17Z</time>
      </trkpt>
      <trkpt lat="49.20584" lon="0.30911">
        <ele>133</ele>
        <time>2024-10-13T08:20:18Z</time>
      </trkpt>
      <trkpt lat="49.20583" lon="0.30918">
        <ele>133.2</ele>
        <time>2024-10-13T08:20:19Z</time>
      </trkpt>
      <trkpt lat="49.20581" lon="0.30926">
        <ele>133.4</ele>
        <time>2024-10-13T08:20:20Z</time>
      </trkpt>
      <trkpt lat="49.20578" lon="0.30933">
        <ele>133.4</ele>
        <time>2024-10-13T08:20:21Z</time>
      </trkpt>
      <trkpt lat="49.20576" lon="0.3094">
        <ele>133.4</ele>
        <time>2024-10-13T08:20:22Z</time>
      </trkpt>
      <trkpt lat="49.20574" lon="0.30947">
        <ele>133.6</ele>
        <time>2024-10-13T08:20:23Z</time>
      </trkpt>
      <trkpt lat="49.20572" lon="0.30955">
        <ele>133.6</ele>
        <time>2024-10-13T08:20:24Z</time>
      </trkpt>
      <trkpt lat="49.2057" lon="0.30962">
        <ele>133.6</ele>
        <time>2024-10-13T08:20:25Z</time>
      </trkpt>
      <trkpt lat="49.20568" lon="0.30969">
        <ele>133.8</ele>
        <time>2024-10-13T08:20:26Z</time>
      </trkpt>
      <trkpt lat="49.20566" lon="0.30977">
        <ele>133.8</ele>
        <time>2024-10-13T08:20:27Z</time>
      </trkpt>
      <trkpt lat="49.20564" lon="0.30984">
        <ele>134</ele>
        <time>2024-10-13T08:20:28Z</time>
      </trkpt>
      <trkpt lat="49.20561" lon="0.30991">
        <ele>134.2</ele>
        <time>2024-10-13T08:20:29Z</time>
      </trkpt>
      <trkpt lat="49.20559" lon="0.30998">
        <ele>134.2</ele>
        <time>2024-10-13T08:20:30Z</time>
      </trkpt>
      <trkpt lat="49.20557" lon="0.31005">
        <ele>134.4</ele>
        <time>2024-10-13T08:20:31Z</time>
      </trkpt>
      <trkpt lat="49.20554" lon="0.31012">
        <ele>134.6</ele>
        <time>2024-10-13T08:20:32Z</time>
      </trkpt>
      <trkpt lat="49.20552" lon="0.31019">
        <ele>134.6</ele>
        <time>2024-10-13T08:20:33Z</time>
      </trkpt>
      <trkpt lat="49.20549" lon="0.31026">
        <ele>134.8</ele>
        <time>2024-10-13T08:20:34Z</time>
      </trkpt>
      <trkpt lat="49.20546" lon="0.31033">
        <ele>135</ele>
        <time>2024-10-13T08:20:35Z</time>
      </trkpt>
      <trkpt lat="49.20543" lon="0.31041">
        <ele>135</ele>
        <time>2024-10-13T08:20:36Z</time>
      </trkpt>
      <trkpt lat="49.2054" lon="0.31048">
        <ele>135.2</ele>
        <time>2024-10-13T08:20:37Z</time>
      </trkpt>
      <trkpt lat="49.20538" lon="0.31055">
        <ele>135.4</ele>
        <time>2024-10-13T08:20:38Z</time>
      </trkpt>
      <trkpt lat="49.20535" lon="0.31062">
        <ele>135.6</ele>
        <time>2024-10-13T08:20:39Z</time>
      </trkpt>
      <trkpt lat="49.20532" lon="0.31069">
        <ele>135.6</ele>
        <time>2024-10-13T08:20:40Z</time>
      </trkpt>
      <trkpt lat="49.20529" lon="0.31075">
        <ele>135.8</ele>
        <time>2024-10-13T08:20:41Z</time>
      </trkpt>
      <trkpt lat="49.20527" lon="0.31082">
        <ele>136</ele>
        <time>2024-10-13T08:20:42Z</time>
      </trkpt>
      <trkpt lat="49.20524" lon="0.31088">
        <ele>136</ele>
        <time>2024-10-13T08:20:43Z</time>
      </trkpt>
      <trkpt lat="49.20521" lon="0.31095">
        <ele>136.2</ele>
        <time>2024-10-13T08:20:44Z</time>
      </trkpt>
      <trkpt lat="49.20518" lon="0.31102">
        <ele>136.2</ele>
        <time>2024-10-13T08:20:45Z</time>
      </trkpt>
      <trkpt lat="49.20516" lon="0.31109">
        <ele>136.2</ele>
        <time>2024-10-13T08:20:46Z</time>
      </trkpt>
      <trkpt lat="49.20513" lon="0.31116">
        <ele>136.2</ele>
        <time>2024-10-13T08:20:47Z</time>
      </trkpt>
      <trkpt lat="49.2051" lon="0.31123">
        <ele>136.2</ele>
        <time>2024-10-13T08:20:48Z</time>
      </trkpt>
      <trkpt lat="49.20508" lon="0.3113">
        <ele>136.2</ele>
        <time>2024-10-13T08:20:49Z</time>
      </trkpt>
      <trkpt lat="49.20505" lon="0.31137">
        <ele>136.2</ele>
        <time>2024-10-13T08:20:50Z</time>
      </trkpt>
      <trkpt lat="49.20502" lon="0.31144">
        <ele>136.2</ele>
        <time>2024-10-13T08:20:51Z</time>
      </trkpt>
      <trkpt lat="49.20499" lon="0.31151">
        <ele>136.2</ele>
        <time>2024-10-13T08:20:52Z</time>
      </trkpt>
      <trkpt lat="49.20496" lon="0.31159">
        <ele>136.4</ele>
        <time>2024-10-13T08:20:53Z</time>
      </trkpt>
      <trkpt lat="49.20493" lon="0.31166">
        <ele>136.4</ele>
        <time>2024-10-13T08:20:54Z</time>
      </trkpt>
      <trkpt lat="49.2049" lon="0.31173">
        <ele>136.4</ele>
        <time>2024-10-13T08:20:55Z</time>
      </trkpt>
      <trkpt lat="49.20487" lon="0.31181">
        <ele>136.4</ele>
        <time>2024-10-13T08:20:56Z</time>
      </trkpt>
      <trkpt lat="49.20485" lon="0.31189">
        <ele>136.2</ele>
        <time>2024-10-13T08:20:57Z</time>
      </trkpt>
      <trkpt lat="49.20484" lon="0.31198">
        <ele>136</ele>
        <time>2024-10-13T08:20:58Z</time>
      </trkpt>
      <trkpt lat="49.20484" lon="0.31207">
        <ele>136</ele>
        <time>2024-10-13T08:20:59Z</time>
      </trkpt>
      <trkpt lat="49.20485" lon="0.31216">
        <ele>136</ele>
        <time>2024-10-13T08:21:00Z</time>
      </trkpt>
      <trkpt lat="49.20486" lon="0.31227">
        <ele>136</ele>
        <time>2024-10-13T08:21:01Z</time>
      </trkpt>
      <trkpt lat="49.20488" lon="0.31233">
        <ele>135.8</ele>
        <time>2024-10-13T08:21:02Z</time>
      </trkpt>
      <trkpt lat="49.20491" lon="0.31242">
        <ele>135.8</ele>
        <time>2024-10-13T08:21:03Z</time>
      </trkpt>
      <trkpt lat="49.20494" lon="0.3125">
        <ele>135.8</ele>
        <time>2024-10-13T08:21:04Z</time>
      </trkpt>
      <trkpt lat="49.20497" lon="0.31258">
        <ele>135.6</ele>
        <time>2024-10-13T08:21:05Z</time>
      </trkpt>
      <trkpt lat="49.205" lon="0.31266">
        <ele>135.6</ele>
        <time>2024-10-13T08:21:06Z</time>
      </trkpt>
      <trkpt lat="49.20503" lon="0.31275">
        <ele>135.6</ele>
        <time>2024-10-13T08:21:07Z</time>
      </trkpt>
      <trkpt lat="49.20505" lon="0.31283">
        <ele>135.6</ele>
        <time>2024-10-13T08:21:08Z</time>
      </trkpt>
      <trkpt lat="49.20507" lon="0.31292">
        <ele>135.6</ele>
        <time>2024-10-13T08:21:09Z</time>
      </trkpt>
      <trkpt lat="49.20509" lon="0.31301">
        <ele>135.6</ele>
        <time>2024-10-13T08:21:10Z</time>
      </trkpt>
      <trkpt lat="49.2051" lon="0.3131">
        <ele>135.4</ele>
        <time>2024-10-13T08:21:11Z</time>
      </trkpt>
      <trkpt lat="49.2051" lon="0.31319">
        <ele>135.4</ele>
        <time>2024-10-13T08:21:12Z</time>
      </trkpt>
      <trkpt lat="49.2051" lon="0.31328">
        <ele>135.4</ele>
        <time>2024-10-13T08:21:13Z</time>
      </trkpt>
      <trkpt lat="49.20509" lon="0.31337">
        <ele>135.4</ele>
        <time>2024-10-13T08:21:14Z</time>
      </trkpt>
      <trkpt lat="49.20508" lon="0.31346">
        <ele>135.4</ele>
        <time>2024-10-13T08:21:15Z</time>
      </trkpt>
      <trkpt lat="49.20506" lon="0.31355">
        <ele>135.4</ele>
        <time>2024-10-13T08:21:16Z</time>
      </trkpt>
      <trkpt lat="49.20505" lon="0.31365">
        <ele>135.4</ele>
        <time>2024-10-13T08:21:17Z</time>
      </trkpt>
      <trkpt lat="49.20504" lon="0.31374">
        <ele>135.4</ele>
        <time>2024-10-13T08:21:18Z</time>
      </trkpt>
      <trkpt lat="49.20502" lon="0.31384">
        <ele>135.4</ele>
        <time>2024-10-13T08:21:19Z</time>
      </trkpt>
      <trkpt lat="49.205" lon="0.31393">
        <ele>135.4</ele>
        <time>2024-10-13T08:21:20Z</time>
      </trkpt>
      <trkpt lat="49.20498" lon="0.31403">
        <ele>135.4</ele>
        <time>2024-10-13T08:21:21Z</time>
      </trkpt>
      <trkpt lat="49.20497" lon="0.31413">
        <ele>135.4</ele>
        <time>2024-10-13T08:21:22Z</time>
      </trkpt>
      <trkpt lat="49.20495" lon="0.31423">
        <ele>135.6</ele>
        <time>2024-10-13T08:21:23Z</time>
      </trkpt>
      <trkpt lat="49.20493" lon="0.31433">
        <ele>135.6</ele>
        <time>2024-10-13T08:21:24Z</time>
      </trkpt>
      <trkpt lat="49.20491" lon="0.31442">
        <ele>135.8</ele>
        <time>2024-10-13T08:21:25Z</time>
      </trkpt>
      <trkpt lat="49.20489" lon="0.31452">
        <ele>135.8</ele>
        <time>2024-10-13T08:21:26Z</time>
      </trkpt>
      <trkpt lat="49.20487" lon="0.31462">
        <ele>135.8</ele>
        <time>2024-10-13T08:21:27Z</time>
      </trkpt>
      <trkpt lat="49.20485" lon="0.31472">
        <ele>135.8</ele>
        <time>2024-10-13T08:21:28Z</time>
      </trkpt>
      <trkpt lat="49.20483" lon="0.31482">
        <ele>135.8</ele>
        <time>2024-10-13T08:21:29Z</time>
      </trkpt>
      <trkpt lat="49.20481" lon="0.31492">
        <ele>136</ele>
        <time>2024-10-13T08:21:30Z</time>
      </trkpt>
      <trkpt lat="49.20479" lon="0.31503">
        <ele>136</ele>
        <time>2024-10-13T08:21:31Z</time>
      </trkpt>
      <trkpt lat="49.20477" lon="0.31513">
        <ele>136</ele>
        <time>2024-10-13T08:21:32Z</time>
      </trkpt>
      <trkpt lat="49.20475" lon="0.31523">
        <ele>136</ele>
        <time>2024-10-13T08:21:33Z</time>
      </trkpt>
      <trkpt lat="49.20473" lon="0.31534">
        <ele>136</ele>
        <time>2024-10-13T08:21:34Z</time>
      </trkpt>
      <trkpt lat="49.20472" lon="0.31544">
        <ele>136</ele>
        <time>2024-10-13T08:21:35Z</time>
      </trkpt>
      <trkpt lat="49.2047" lon="0.31555">
        <ele>136</ele>
        <time>2024-10-13T08:21:36Z</time>
      </trkpt>
      <trkpt lat="49.20469" lon="0.31566">
        <ele>136</ele>
        <time>2024-10-13T08:21:37Z</time>
      </trkpt>
      <trkpt lat="49.20467" lon="0.31576">
        <ele>136.2</ele>
        <time>2024-10-13T08:21:38Z</time>
      </trkpt>
      <trkpt lat="49.20466" lon="0.31587">
        <ele>136.2</ele>
        <time>2024-10-13T08:21:39Z</time>
      </trkpt>
      <trkpt lat="49.20465" lon="0.31598">
        <ele>136.2</ele>
        <time>2024-10-13T08:21:40Z</time>
      </trkpt>
      <trkpt lat="49.20464" lon="0.3161">
        <ele>136.2</ele>
        <time>2024-10-13T08:21:41Z</time>
      </trkpt>
      <trkpt lat="49.20463" lon="0.31621">
        <ele>136.4</ele>
        <time>2024-10-13T08:21:42Z</time>
      </trkpt>
      <trkpt lat="49.20462" lon="0.31632">
        <ele>136.4</ele>
        <time>2024-10-13T08:21:43Z</time>
      </trkpt>
      <trkpt lat="49.20461" lon="0.31644">
        <ele>136.4</ele>
        <time>2024-10-13T08:21:44Z</time>
      </trkpt>
      <trkpt lat="49.2046" lon="0.31655">
        <ele>136.2</ele>
        <time>2024-10-13T08:21:45Z</time>
      </trkpt>
      <trkpt lat="49.2046" lon="0.31666">
        <ele>136.4</ele>
        <time>2024-10-13T08:21:46Z</time>
      </trkpt>
      <trkpt lat="49.2046" lon="0.31677">
        <ele>136.4</ele>
        <time>2024-10-13T08:21:47Z</time>
      </trkpt>
      <trkpt lat="49.20459" lon="0.31689">
        <ele>136.6</ele>
        <time>2024-10-13T08:21:48Z</time>
      </trkpt>
      <trkpt lat="49.20458" lon="0.317">
        <ele>136.6</ele>
        <time>2024-10-13T08:21:49Z</time>
      </trkpt>
      <trkpt lat="49.20457" lon="0.31712">
        <ele>136.6</ele>
        <time>2024-10-13T08:21:50Z</time>
      </trkpt>
      <trkpt lat="49.20457" lon="0.31724">
        <ele>136.6</ele>
        <time>2024-10-13T08:21:51Z</time>
      </trkpt>
      <trkpt lat="49.20456" lon="0.31735">
        <ele>136.6</ele>
        <time>2024-10-13T08:21:52Z</time>
      </trkpt>
      <trkpt lat="49.20456" lon="0.31747">
        <ele>136.6</ele>
        <time>2024-10-13T08:21:53Z</time>
      </trkpt>
      <trkpt lat="49.20455" lon="0.31759">
        <ele>136.6</ele>
        <time>2024-10-13T08:21:54Z</time>
      </trkpt>
      <trkpt lat="49.20454" lon="0.3177">
        <ele>136.6</ele>
        <time>2024-10-13T08:21:55Z</time>
      </trkpt>
      <trkpt lat="49.20453" lon="0.31781">
        <ele>136.4</ele>
        <time>2024-10-13T08:21:56Z</time>
      </trkpt>
      <trkpt lat="49.20452" lon="0.31793">
        <ele>136.4</ele>
        <time>2024-10-13T08:21:57Z</time>
      </trkpt>
      <trkpt lat="49.20451" lon="0.31804">
        <ele>136.4</ele>
        <time>2024-10-13T08:21:58Z</time>
      </trkpt>
      <trkpt lat="49.20449" lon="0.31815">
        <ele>136.4</ele>
        <time>2024-10-13T08:21:59Z</time>
      </trkpt>
      <trkpt lat="49.20448" lon="0.31827">
        <ele>136.4</ele>
        <time>2024-10-13T08:22:00Z</time>
      </trkpt>
      <trkpt lat="49.20446" lon="0.31838">
        <ele>136.4</ele>
        <time>2024-10-13T08:22:01Z</time>
      </trkpt>
      <trkpt lat="49.20444" lon="0.31849">
        <ele>136.4</ele>
        <time>2024-10-13T08:22:02Z</time>
      </trkpt>
      <trkpt lat="49.20442" lon="0.3186">
        <ele>136.4</ele>
        <time>2024-10-13T08:22:03Z</time>
      </trkpt>
      <trkpt lat="49.20439" lon="0.31871">
        <ele>136.4</ele>
        <time>2024-10-13T08:22:04Z</time>
      </trkpt>
      <trkpt lat="49.20437" lon="0.31881">
        <ele>136.4</ele>
        <time>2024-10-13T08:22:05Z</time>
      </trkpt>
      <trkpt lat="49.20434" lon="0.31892">
        <ele>136.4</ele>
        <time>2024-10-13T08:22:06Z</time>
      </trkpt>
      <trkpt lat="49.20431" lon="0.31902">
        <ele>136.4</ele>
        <time>2024-10-13T08:22:07Z</time>
      </trkpt>
      <trkpt lat="49.20428" lon="0.31913">
        <ele>136.4</ele>
        <time>2024-10-13T08:22:08Z</time>
      </trkpt>
      <trkpt lat="49.20425" lon="0.31924">
        <ele>136.4</ele>
        <time>2024-10-13T08:22:09Z</time>
      </trkpt>
      <trkpt lat="49.20422" lon="0.31934">
        <ele>136.6</ele>
        <time>2024-10-13T08:22:10Z</time>
      </trkpt>
      <trkpt lat="49.20419" lon="0.31945">
        <ele>136.6</ele>
        <time>2024-10-13T08:22:11Z</time>
      </trkpt>
      <trkpt lat="49.20416" lon="0.31955">
        <ele>136.8</ele>
        <time>2024-10-13T08:22:12Z</time>
      </trkpt>
      <trkpt lat="49.20413" lon="0.31966">
        <ele>136.8</ele>
        <time>2024-10-13T08:22:13Z</time>
      </trkpt>
      <trkpt lat="49.2041" lon="0.31976">
        <ele>136.8</ele>
        <time>2024-10-13T08:22:14Z</time>
      </trkpt>
      <trkpt lat="49.20406" lon="0.31987">
        <ele>136.8</ele>
        <time>2024-10-13T08:22:15Z</time>
      </trkpt>
      <trkpt lat="49.20403" lon="0.31997">
        <ele>136.8</ele>
        <time>2024-10-13T08:22:16Z</time>
      </trkpt>
      <trkpt lat="49.204" lon="0.32008">
        <ele>137</ele>
        <time>2024-10-13T08:22:17Z</time>
      </trkpt>
      <trkpt lat="49.20397" lon="0.32019">
        <ele>137</ele>
        <time>2024-10-13T08:22:18Z</time>
      </trkpt>
      <trkpt lat="49.20394" lon="0.3203">
        <ele>137</ele>
        <time>2024-10-13T08:22:19Z</time>
      </trkpt>
      <trkpt lat="49.2039" lon="0.3204">
        <ele>137</ele>
        <time>2024-10-13T08:22:20Z</time>
      </trkpt>
      <trkpt lat="49.20387" lon="0.32051">
        <ele>137</ele>
        <time>2024-10-13T08:22:21Z</time>
      </trkpt>
      <trkpt lat="49.20384" lon="0.32061">
        <ele>137</ele>
        <time>2024-10-13T08:22:22Z</time>
      </trkpt>
      <trkpt lat="49.20381" lon="0.32072">
        <ele>137.2</ele>
        <time>2024-10-13T08:22:23Z</time>
      </trkpt>
      <trkpt lat="49.20378" lon="0.32083">
        <ele>137.2</ele>
        <time>2024-10-13T08:22:24Z</time>
      </trkpt>
      <trkpt lat="49.20375" lon="0.32094">
        <ele>137.2</ele>
        <time>2024-10-13T08:22:25Z</time>
      </trkpt>
      <trkpt lat="49.20372" lon="0.32105">
        <ele>137.2</ele>
        <time>2024-10-13T08:22:26Z</time>
      </trkpt>
      <trkpt lat="49.2037" lon="0.32115">
        <ele>137.2</ele>
        <time>2024-10-13T08:22:27Z</time>
      </trkpt>
      <trkpt lat="49.20367" lon="0.32126">
        <ele>137.2</ele>
        <time>2024-10-13T08:22:28Z</time>
      </trkpt>
      <trkpt lat="49.20364" lon="0.32137">
        <ele>137.2</ele>
        <time>2024-10-13T08:22:29Z</time>
      </trkpt>
      <trkpt lat="49.20361" lon="0.32147">
        <ele>137.2</ele>
        <time>2024-10-13T08:22:30Z</time>
      </trkpt>
      <trkpt lat="49.20358" lon="0.32157">
        <ele>137</ele>
        <time>2024-10-13T08:22:31Z</time>
      </trkpt>
      <trkpt lat="49.20355" lon="0.32167">
        <ele>137</ele>
        <time>2024-10-13T08:22:32Z</time>
      </trkpt>
      <trkpt lat="49.20352" lon="0.32177">
        <ele>137</ele>
        <time>2024-10-13T08:22:33Z</time>
      </trkpt>
      <trkpt lat="49.20349" lon="0.32187">
        <ele>137</ele>
        <time>2024-10-13T08:22:34Z</time>
      </trkpt>
      <trkpt lat="49.20347" lon="0.32196">
        <ele>137</ele>
        <time>2024-10-13T08:22:35Z</time>
      </trkpt>
      <trkpt lat="49.20344" lon="0.32206">
        <ele>137</ele>
        <time>2024-10-13T08:22:36Z</time>
      </trkpt>
      <trkpt lat="49.20341" lon="0.32215">
        <ele>137</ele>
        <time>2024-10-13T08:22:37Z</time>
      </trkpt>
      <trkpt lat="49.20338" lon="0.32224">
        <ele>137</ele>
        <time>2024-10-13T08:22:38Z</time>
      </trkpt>
      <trkpt lat="49.20336" lon="0.32232">
        <ele>137</ele>
        <time>2024-10-13T08:22:39Z</time>
      </trkpt>
      <trkpt lat="49.20334" lon="0.32241">
        <ele>137</ele>
        <time>2024-10-13T08:22:40Z</time>
      </trkpt>
      <trkpt lat="49.20332" lon="0.32249">
        <ele>137</ele>
        <time>2024-10-13T08:22:41Z</time>
      </trkpt>
      <trkpt lat="49.2033" lon="0.32257">
        <ele>137</ele>
        <time>2024-10-13T08:22:42Z</time>
      </trkpt>
      <trkpt lat="49.20328" lon="0.32266">
        <ele>137</ele>
        <time>2024-10-13T08:22:43Z</time>
      </trkpt>
      <trkpt lat="49.20326" lon="0.32274">
        <ele>137</ele>
        <time>2024-10-13T08:22:44Z</time>
      </trkpt>
      <trkpt lat="49.20325" lon="0.32282">
        <ele>137</ele>
        <time>2024-10-13T08:22:45Z</time>
      </trkpt>
      <trkpt lat="49.20323" lon="0.3229">
        <ele>137</ele>
        <time>2024-10-13T08:22:46Z</time>
      </trkpt>
      <trkpt lat="49.20322" lon="0.32299">
        <ele>137</ele>
        <time>2024-10-13T08:22:47Z</time>
      </trkpt>
      <trkpt lat="49.2032" lon="0.32309">
        <ele>137</ele>
        <time>2024-10-13T08:22:48Z</time>
      </trkpt>
      <trkpt lat="49.20317" lon="0.32319">
        <ele>137</ele>
        <time>2024-10-13T08:22:49Z</time>
      </trkpt>
      <trkpt lat="49.20316" lon="0.32329">
        <ele>137</ele>
        <time>2024-10-13T08:22:50Z</time>
      </trkpt>
      <trkpt lat="49.20314" lon="0.32339">
        <ele>137</ele>
        <time>2024-10-13T08:22:51Z</time>
      </trkpt>
      <trkpt lat="49.20312" lon="0.32348">
        <ele>137</ele>
        <time>2024-10-13T08:22:52Z</time>
      </trkpt>
      <trkpt lat="49.2031" lon="0.32357">
        <ele>137</ele>
        <time>2024-10-13T08:22:53Z</time>
      </trkpt>
      <trkpt lat="49.20309" lon="0.32365">
        <ele>137</ele>
        <time>2024-10-13T08:22:54Z</time>
      </trkpt>
      <trkpt lat="49.20307" lon="0.32371">
        <ele>137</ele>
        <time>2024-10-13T08:22:55Z</time>
      </trkpt>
      <trkpt lat="49.20306" lon="0.32377">
        <ele>137</ele>
        <time>2024-10-13T08:22:56Z</time>
      </trkpt>
      <trkpt lat="49.20305" lon="0.32381">
        <ele>137</ele>
        <time>2024-10-13T08:22:57Z</time>
      </trkpt>
      <trkpt lat="49.20304" lon="0.32384">
        <ele>137</ele>
        <time>2024-10-13T08:22:58Z</time>
      </trkpt>
      <trkpt lat="49.20303" lon="0.32387">
        <ele>137</ele>
        <time>2024-10-13T08:22:59Z</time>
      </trkpt>
      <trkpt lat="49.20303" lon="0.32388">
        <ele>137</ele>
        <time>2024-10-13T08:23:00Z</time>
      </trkpt>
      <trkpt lat="49.20303" lon="0.32388">
        <ele>137</ele>
        <time>2024-10-13T08:23:01Z</time>
      </trkpt>
      <trkpt lat="49.20303" lon="0.32388">
        <ele>137</ele>
        <time>2024-10-13T08:23:02Z</time>
      </trkpt>
      <trkpt lat="49.20303" lon="0.32395">
        <ele>137.6</ele>
        <time>2024-10-13T08:23:30Z</time>
      </trkpt>
      <trkpt lat="49.20303" lon="0.32399">
        <ele>137.6</ele>
        <time>2024-10-13T08:23:31Z</time>
      </trkpt>
      <trkpt lat="49.20303" lon="0.32402">
        <ele>137.6</ele>
        <time>2024-10-13T08:23:32Z</time>
      </trkpt>
      <trkpt lat="49.20304" lon="0.32407">
        <ele>137.6</ele>
        <time>2024-10-13T08:23:33Z</time>
      </trkpt>
      <trkpt lat="49.20305" lon="0.32412">
        <ele>137.6</ele>
        <time>2024-10-13T08:23:34Z</time>
      </trkpt>
      <trkpt lat="49.20307" lon="0.32418">
        <ele>137.6</ele>
        <time>2024-10-13T08:23:35Z</time>
      </trkpt>
      <trkpt lat="49.20309" lon="0.32425">
        <ele>137.6</ele>
        <time>2024-10-13T08:23:36Z</time>
      </trkpt>
      <trkpt lat="49.20311" lon="0.32432">
        <ele>137.6</ele>
        <time>2024-10-13T08:23:37Z</time>
      </trkpt>
      <trkpt lat="49.20313" lon="0.32441">
        <ele>137.6</ele>
        <time>2024-10-13T08:23:38Z</time>
      </trkpt>
      <trkpt lat="49.20317" lon="0.32449">
        <ele>137.6</ele>
        <time>2024-10-13T08:23:39Z</time>
      </trkpt>
      <trkpt lat="49.2032" lon="0.32458">
        <ele>137.6</ele>
        <time>2024-10-13T08:23:40Z</time>
      </trkpt>
      <trkpt lat="49.20324" lon="0.32468">
        <ele>137.6</ele>
        <time>2024-10-13T08:23:41Z</time>
      </trkpt>
      <trkpt lat="49.20328" lon="0.32478">
        <ele>137.6</ele>
        <time>2024-10-13T08:23:42Z</time>
      </trkpt>
      <trkpt lat="49.20332" lon="0.32487">
        <ele>137.4</ele>
        <time>2024-10-13T08:23:43Z</time>
      </trkpt>
      <trkpt lat="49.20335" lon="0.32498">
        <ele>137.4</ele>
        <time>2024-10-13T08:23:44Z</time>
      </trkpt>
      <trkpt lat="49.20339" lon="0.32509">
        <ele>137.4</ele>
        <time>2024-10-13T08:23:45Z</time>
      </trkpt>
      <trkpt lat="49.20342" lon="0.3252">
        <ele>137.2</ele>
        <time>2024-10-13T08:23:46Z</time>
      </trkpt>
      <trkpt lat="49.20345" lon="0.3253">
        <ele>137.2</ele>
        <time>2024-10-13T08:23:47Z</time>
      </trkpt>
      <trkpt lat="49.20349" lon="0.3254">
        <ele>137</ele>
        <time>2024-10-13T08:23:48Z</time>
      </trkpt>
      <trkpt lat="49.20352" lon="0.3255">
        <ele>137</ele>
        <time>2024-10-13T08:23:49Z</time>
      </trkpt>
      <trkpt lat="49.20356" lon="0.32559">
        <ele>137</ele>
        <time>2024-10-13T08:23:50Z</time>
      </trkpt>
      <trkpt lat="49.20359" lon="0.32568">
        <ele>137</ele>
        <time>2024-10-13T08:23:51Z</time>
      </trkpt>
      <trkpt lat="49.20361" lon="0.32578">
        <ele>136.8</ele>
        <time>2024-10-13T08:23:52Z</time>
      </trkpt>
      <trkpt lat="49.20365" lon="0.32587">
        <ele>136.8</ele>
        <time>2024-10-13T08:23:53Z</time>
      </trkpt>
      <trkpt lat="49.20368" lon="0.32596">
        <ele>136.8</ele>
        <time>2024-10-13T08:23:54Z</time>
      </trkpt>
      <trkpt lat="49.20371" lon="0.32605">
        <ele>136.8</ele>
        <time>2024-10-13T08:23:55Z</time>
      </trkpt>
      <trkpt lat="49.20374" lon="0.32615">
        <ele>136.8</ele>
        <time>2024-10-13T08:23:56Z</time>
      </trkpt>
      <trkpt lat="49.20378" lon="0.32624">
        <ele>137</ele>
        <time>2024-10-13T08:23:57Z</time>
      </trkpt>
      <trkpt lat="49.20381" lon="0.32633">
        <ele>137.2</ele>
        <time>2024-10-13T08:23:58Z</time>
      </trkpt>
      <trkpt lat="49.20384" lon="0.32643">
        <ele>137.2</ele>
        <time>2024-10-13T08:23:59Z</time>
      </trkpt>
      <trkpt lat="49.20387" lon="0.32653">
        <ele>137.4</ele>
        <time>2024-10-13T08:24:00Z</time>
      </trkpt>
      <trkpt lat="49.2039" lon="0.32663">
        <ele>137.4</ele>
        <time>2024-10-13T08:24:01Z</time>
      </trkpt>
      <trkpt lat="49.20393" lon="0.32672">
        <ele>137.4</ele>
        <time>2024-10-13T08:24:02Z</time>
      </trkpt>
      <trkpt lat="49.20397" lon="0.32682">
        <ele>137.6</ele>
        <time>2024-10-13T08:24:03Z</time>
      </trkpt>
      <trkpt lat="49.20399" lon="0.32692">
        <ele>137.6</ele>
        <time>2024-10-13T08:24:04Z</time>
      </trkpt>
      <trkpt lat="49.20402" lon="0.32702">
        <ele>137.8</ele>
        <time>2024-10-13T08:24:05Z</time>
      </trkpt>
      <trkpt lat="49.20405" lon="0.32712">
        <ele>137.8</ele>
        <time>2024-10-13T08:24:06Z</time>
      </trkpt>
      <trkpt lat="49.20408" lon="0.32723">
        <ele>137.8</ele>
        <time>2024-10-13T08:24:07Z</time>
      </trkpt>
      <trkpt lat="49.2041" lon="0.32733">
        <ele>137.8</ele>
        <time>2024-10-13T08:24:08Z</time>
      </trkpt>
      <trkpt lat="49.20413" lon="0.32743">
        <ele>138</ele>
        <time>2024-10-13T08:24:09Z</time>
      </trkpt>
      <trkpt lat="49.20416" lon="0.32753">
        <ele>138.2</ele>
        <time>2024-10-13T08:24:10Z</time>
      </trkpt>
      <trkpt lat="49.20419" lon="0.32763">
        <ele>138.2</ele>
        <time>2024-10-13T08:24:11Z</time>
      </trkpt>
      <trkpt lat="49.20422" lon="0.32773">
        <ele>138.4</ele>
        <time>2024-10-13T08:24:12Z</time>
      </trkpt>
      <trkpt lat="49.20425" lon="0.32783">
        <ele>138.4</ele>
        <time>2024-10-13T08:24:13Z</time>
      </trkpt>
      <trkpt lat="49.20428" lon="0.32793">
        <ele>138.4</ele>
        <time>2024-10-13T08:24:14Z</time>
      </trkpt>
      <trkpt lat="49.20431" lon="0.32804">
        <ele>138.6</ele>
        <time>2024-10-13T08:24:15Z</time>
      </trkpt>
      <trkpt lat="49.20434" lon="0.32815">
        <ele>138.6</ele>
        <time>2024-10-13T08:24:16Z</time>
      </trkpt>
      <trkpt lat="49.20437" lon="0.32826">
        <ele>138.8</ele>
        <time>2024-10-13T08:24:17Z</time>
      </trkpt>
      <trkpt lat="49.20441" lon="0.32837">
        <ele>139</ele>
        <time>2024-10-13T08:24:18Z</time>
      </trkpt>
      <trkpt lat="49.20444" lon="0.32849">
        <ele>139</ele>
        <time>2024-10-13T08:24:19Z</time>
      </trkpt>
      <trkpt lat="49.20447" lon="0.3286">
        <ele>139.2</ele>
        <time>2024-10-13T08:24:20Z</time>
      </trkpt>
      <trkpt lat="49.2045" lon="0.3287">
        <ele>139.2</ele>
        <time>2024-10-13T08:24:21Z</time>
      </trkpt>
      <trkpt lat="49.20454" lon="0.32881">
        <ele>139.4</ele>
        <time>2024-10-13T08:24:22Z</time>
      </trkpt>
      <trkpt lat="49.20457" lon="0.32892">
        <ele>139.4</ele>
        <time>2024-10-13T08:24:23Z</time>
      </trkpt>
      <trkpt lat="49.2046" lon="0.32903">
        <ele>139.4</ele>
        <time>2024-10-13T08:24:24Z</time>
      </trkpt>
      <trkpt lat="49.20463" lon="0.32914">
        <ele>139.4</ele>
        <time>2024-10-13T08:24:25Z</time>
      </trkpt>
      <trkpt lat="49.20465" lon="0.32925">
        <ele>139.4</ele>
        <time>2024-10-13T08:24:26Z</time>
      </trkpt>
      <trkpt lat="49.20468" lon="0.32935">
        <ele>139.4</ele>
        <time>2024-10-13T08:24:27Z</time>
      </trkpt>
      <trkpt lat="49.20471" lon="0.32946">
        <ele>139.4</ele>
        <time>2024-10-13T08:24:28Z</time>
      </trkpt>
      <trkpt lat="49.20475" lon="0.32957">
        <ele>139.4</ele>
        <time>2024-10-13T08:24:29Z</time>
      </trkpt>
      <trkpt lat="49.20478" lon="0.32967">
        <ele>139.4</ele>
        <time>2024-10-13T08:24:30Z</time>
      </trkpt>
      <trkpt lat="49.20481" lon="0.32977">
        <ele>139.6</ele>
        <time>2024-10-13T08:24:31Z</time>
      </trkpt>
      <trkpt lat="49.20485" lon="0.32987">
        <ele>139.6</ele>
        <time>2024-10-13T08:24:32Z</time>
      </trkpt>
      <trkpt lat="49.20488" lon="0.32997">
        <ele>139.6</ele>
        <time>2024-10-13T08:24:33Z</time>
      </trkpt>
      <trkpt lat="49.20491" lon="0.33008">
        <ele>139.6</ele>
        <time>2024-10-13T08:24:34Z</time>
      </trkpt>
      <trkpt lat="49.20494" lon="0.33019">
        <ele>139.6</ele>
        <time>2024-10-13T08:24:35Z</time>
      </trkpt>
      <trkpt lat="49.20497" lon="0.3303">
        <ele>139.8</ele>
        <time>2024-10-13T08:24:36Z</time>
      </trkpt>
      <trkpt lat="49.205" lon="0.33042">
        <ele>139.8</ele>
        <time>2024-10-13T08:24:37Z</time>
      </trkpt>
      <trkpt lat="49.20503" lon="0.33054">
        <ele>139.8</ele>
        <time>2024-10-13T08:24:38Z</time>
      </trkpt>
      <trkpt lat="49.20506" lon="0.33066">
        <ele>139.8</ele>
        <time>2024-10-13T08:24:39Z</time>
      </trkpt>
      <trkpt lat="49.2051" lon="0.33078">
        <ele>139.8</ele>
        <time>2024-10-13T08:24:40Z</time>
      </trkpt>
      <trkpt lat="49.20514" lon="0.33091">
        <ele>139.8</ele>
        <time>2024-10-13T08:24:41Z</time>
      </trkpt>
      <trkpt lat="49.20517" lon="0.33104">
        <ele>139.8</ele>
        <time>2024-10-13T08:24:42Z</time>
      </trkpt>
      <trkpt lat="49.20521" lon="0.33118">
        <ele>139.8</ele>
        <time>2024-10-13T08:24:43Z</time>
      </trkpt>
      <trkpt lat="49.20525" lon="0.33131">
        <ele>139.8</ele>
        <time>2024-10-13T08:24:44Z</time>
      </trkpt>
      <trkpt lat="49.20529" lon="0.33144">
        <ele>139.8</ele>
        <time>2024-10-13T08:24:45Z</time>
      </trkpt>
      <trkpt lat="49.20533" lon="0.33157">
        <ele>139.8</ele>
        <time>2024-10-13T08:24:46Z</time>
      </trkpt>
      <trkpt lat="49.20537" lon="0.3317">
        <ele>139.6</ele>
        <time>2024-10-13T08:24:47Z</time>
      </trkpt>
      <trkpt lat="49.20541" lon="0.33183">
        <ele>139.6</ele>
        <time>2024-10-13T08:24:48Z</time>
      </trkpt>
      <trkpt lat="49.20544" lon="0.33197">
        <ele>139.4</ele>
        <time>2024-10-13T08:24:49Z</time>
      </trkpt>
      <trkpt lat="49.20548" lon="0.3321">
        <ele>139</ele>
        <time>2024-10-13T08:24:50Z</time>
      </trkpt>
      <trkpt lat="49.20552" lon="0.33223">
        <ele>138.8</ele>
        <time>2024-10-13T08:24:51Z</time>
      </trkpt>
      <trkpt lat="49.20556" lon="0.33237">
        <ele>138.8</ele>
        <time>2024-10-13T08:24:52Z</time>
      </trkpt>
      <trkpt lat="49.20559" lon="0.3325">
        <ele>138.6</ele>
        <time>2024-10-13T08:24:53Z</time>
      </trkpt>
      <trkpt lat="49.20563" lon="0.33264">
        <ele>138.4</ele>
        <time>2024-10-13T08:24:54Z</time>
      </trkpt>
      <trkpt lat="49.20567" lon="0.33277">
        <ele>138.4</ele>
        <time>2024-10-13T08:24:55Z</time>
      </trkpt>
      <trkpt lat="49.20571" lon="0.33291">
        <ele>138.4</ele>
        <time>2024-10-13T08:24:56Z</time>
      </trkpt>
      <trkpt lat="49.20574" lon="0.33305">
        <ele>138.2</ele>
        <time>2024-10-13T08:24:57Z</time>
      </trkpt>
      <trkpt lat="49.20578" lon="0.33318">
        <ele>138</ele>
        <time>2024-10-13T08:24:58Z</time>
      </trkpt>
      <trkpt lat="49.20582" lon="0.33332">
        <ele>137.6</ele>
        <time>2024-10-13T08:24:59Z</time>
      </trkpt>
      <trkpt lat="49.20586" lon="0.33345">
        <ele>137.4</ele>
        <time>2024-10-13T08:25:00Z</time>
      </trkpt>
      <trkpt lat="49.2059" lon="0.33359">
        <ele>137.2</ele>
        <time>2024-10-13T08:25:01Z</time>
      </trkpt>
      <trkpt lat="49.20594" lon="0.33372">
        <ele>137</ele>
        <time>2024-10-13T08:25:02Z</time>
      </trkpt>
      <trkpt lat="49.20598" lon="0.33385">
        <ele>136.8</ele>
        <time>2024-10-13T08:25:03Z</time>
      </trkpt>
      <trkpt lat="49.20602" lon="0.33399">
        <ele>136.4</ele>
        <time>2024-10-13T08:25:04Z</time>
      </trkpt>
      <trkpt lat="49.20607" lon="0.33411">
        <ele>136.2</ele>
        <time>2024-10-13T08:25:05Z</time>
      </trkpt>
      <trkpt lat="49.20611" lon="0.33424">
        <ele>135.8</ele>
        <time>2024-10-13T08:25:06Z</time>
      </trkpt>
      <trkpt lat="49.20615" lon="0.33436">
        <ele>135.6</ele>
        <time>2024-10-13T08:25:07Z</time>
      </trkpt>
      <trkpt lat="49.20619" lon="0.33447">
        <ele>135.6</ele>
        <time>2024-10-13T08:25:08Z</time>
      </trkpt>
      <trkpt lat="49.20623" lon="0.33459">
        <ele>135.4</ele>
        <time>2024-10-13T08:25:09Z</time>
      </trkpt>
      <trkpt lat="49.20626" lon="0.3347">
        <ele>135.2</ele>
        <time>2024-10-13T08:25:10Z</time>
      </trkpt>
      <trkpt lat="49.2063" lon="0.33481">
        <ele>135.2</ele>
        <time>2024-10-13T08:25:11Z</time>
      </trkpt>
      <trkpt lat="49.20634" lon="0.33492">
        <ele>134.8</ele>
        <time>2024-10-13T08:25:12Z</time>
      </trkpt>
      <trkpt lat="49.20638" lon="0.33503">
        <ele>134.6</ele>
        <time>2024-10-13T08:25:13Z</time>
      </trkpt>
      <trkpt lat="49.20642" lon="0.33515">
        <ele>134.6</ele>
        <time>2024-10-13T08:25:14Z</time>
      </trkpt>
      <trkpt lat="49.20645" lon="0.33526">
        <ele>134.4</ele>
        <time>2024-10-13T08:25:15Z</time>
      </trkpt>
      <trkpt lat="49.20649" lon="0.33538">
        <ele>134.4</ele>
        <time>2024-10-13T08:25:16Z</time>
      </trkpt>
      <trkpt lat="49.20653" lon="0.33549">
        <ele>134.4</ele>
        <time>2024-10-13T08:25:17Z</time>
      </trkpt>
      <trkpt lat="49.20657" lon="0.33561">
        <ele>134.4</ele>
        <time>2024-10-13T08:25:18Z</time>
      </trkpt>
      <trkpt lat="49.20661" lon="0.33573">
        <ele>134.4</ele>
        <time>2024-10-13T08:25:19Z</time>
      </trkpt>
      <trkpt lat="49.20665" lon="0.33584">
        <ele>134.4</ele>
        <time>2024-10-13T08:25:20Z</time>
      </trkpt>
      <trkpt lat="49.2067" lon="0.33595">
        <ele>134.4</ele>
        <time>2024-10-13T08:25:21Z</time>
      </trkpt>
      <trkpt lat="49.20674" lon="0.33607">
        <ele>134.4</ele>
        <time>2024-10-13T08:25:22Z</time>
      </trkpt>
      <trkpt lat="49.20678" lon="0.33619">
        <ele>134.4</ele>
        <time>2024-10-13T08:25:23Z</time>
      </trkpt>
      <trkpt lat="49.20682" lon="0.33631">
        <ele>134.6</ele>
        <time>2024-10-13T08:25:24Z</time>
      </trkpt>
      <trkpt lat="49.20685" lon="0.33643">
        <ele>134.6</ele>
        <time>2024-10-13T08:25:25Z</time>
      </trkpt>
      <trkpt lat="49.20689" lon="0.33655">
        <ele>134.6</ele>
        <time>2024-10-13T08:25:26Z</time>
      </trkpt>
      <trkpt lat="49.20693" lon="0.33668">
        <ele>134.6</ele>
        <time>2024-10-13T08:25:27Z</time>
      </trkpt>
      <trkpt lat="49.20698" lon="0.3368">
        <ele>134.6</ele>
        <time>2024-10-13T08:25:28Z</time>
      </trkpt>
      <trkpt lat="49.20702" lon="0.33692">
        <ele>134.6</ele>
        <time>2024-10-13T08:25:29Z</time>
      </trkpt>
      <trkpt lat="49.20706" lon="0.33704">
        <ele>134.6</ele>
        <time>2024-10-13T08:25:30Z</time>
      </trkpt>
      <trkpt lat="49.2071" lon="0.33715">
        <ele>134.8</ele>
        <time>2024-10-13T08:25:31Z</time>
      </trkpt>
      <trkpt lat="49.20714" lon="0.33727">
        <ele>134.8</ele>
        <time>2024-10-13T08:25:32Z</time>
      </trkpt>
      <trkpt lat="49.20718" lon="0.33738">
        <ele>134.8</ele>
        <time>2024-10-13T08:25:33Z</time>
      </trkpt>
      <trkpt lat="49.20722" lon="0.33749">
        <ele>134.8</ele>
        <time>2024-10-13T08:25:34Z</time>
      </trkpt>
      <trkpt lat="49.20726" lon="0.3376">
        <ele>135</ele>
        <time>2024-10-13T08:25:35Z</time>
      </trkpt>
      <trkpt lat="49.2073" lon="0.33771">
        <ele>135</ele>
        <time>2024-10-13T08:25:36Z</time>
      </trkpt>
      <trkpt lat="49.20733" lon="0.33782">
        <ele>135.2</ele>
        <time>2024-10-13T08:25:37Z</time>
      </trkpt>
      <trkpt lat="49.20737" lon="0.33792">
        <ele>135.2</ele>
        <time>2024-10-13T08:25:38Z</time>
      </trkpt>
      <trkpt lat="49.2074" lon="0.33802">
        <ele>135.2</ele>
        <time>2024-10-13T08:25:39Z</time>
      </trkpt>
      <trkpt lat="49.20744" lon="0.33812">
        <ele>135.2</ele>
        <time>2024-10-13T08:25:40Z</time>
      </trkpt>
      <trkpt lat="49.20747" lon="0.33822">
        <ele>135.2</ele>
        <time>2024-10-13T08:25:41Z</time>
      </trkpt>
      <trkpt lat="49.20751" lon="0.33832">
        <ele>135.2</ele>
        <time>2024-10-13T08:25:42Z</time>
      </trkpt>
      <trkpt lat="49.20754" lon="0.33842">
        <ele>135.2</ele>
        <time>2024-10-13T08:25:43Z</time>
      </trkpt>
      <trkpt lat="49.20757" lon="0.33851">
        <ele>135.2</ele>
        <time>2024-10-13T08:25:44Z</time>
      </trkpt>
      <trkpt lat="49.20761" lon="0.3386">
        <ele>135.2</ele>
        <time>2024-10-13T08:25:45Z</time>
      </trkpt>
      <trkpt lat="49.20763" lon="0.33869">
        <ele>135.2</ele>
        <time>2024-10-13T08:25:46Z</time>
      </trkpt>
      <trkpt lat="49.20766" lon="0.33878">
        <ele>135.2</ele>
        <time>2024-10-13T08:25:47Z</time>
      </trkpt>
      <trkpt lat="49.20769" lon="0.33886">
        <ele>135.2</ele>
        <time>2024-10-13T08:25:48Z</time>
      </trkpt>
      <trkpt lat="49.20772" lon="0.33895">
        <ele>135.2</ele>
        <time>2024-10-13T08:25:49Z</time>
      </trkpt>
      <trkpt lat="49.20775" lon="0.33903">
        <ele>135.2</ele>
        <time>2024-10-13T08:25:50Z</time>
      </trkpt>
      <trkpt lat="49.20777" lon="0.3391">
        <ele>135.2</ele>
        <time>2024-10-13T08:25:51Z</time>
      </trkpt>
      <trkpt lat="49.2078" lon="0.33915">
        <ele>135.2</ele>
        <time>2024-10-13T08:25:52Z</time>
      </trkpt>
      <trkpt lat="49.20781" lon="0.3392">
        <ele>135.2</ele>
        <time>2024-10-13T08:25:53Z</time>
      </trkpt>
      <trkpt lat="49.20783" lon="0.33923">
        <ele>135.2</ele>
        <time>2024-10-13T08:25:54Z</time>
      </trkpt>
      <trkpt lat="49.20784" lon="0.33926">
        <ele>135.2</ele>
        <time>2024-10-13T08:25:55Z</time>
      </trkpt>
      <trkpt lat="49.20785" lon="0.33929">
        <ele>135.2</ele>
        <time>2024-10-13T08:25:56Z</time>
      </trkpt>
      <trkpt lat="49.20786" lon="0.33931">
        <ele>135.2</ele>
        <time>2024-10-13T08:25:57Z</time>
      </trkpt>
      <trkpt lat="49.20787" lon="0.33934">
        <ele>135.2</ele>
        <time>2024-10-13T08:25:58Z</time>
      </trkpt>
      <trkpt lat="49.20788" lon="0.33937">
        <ele>135.2</ele>
        <time>2024-10-13T08:25:59Z</time>
      </trkpt>
      <trkpt lat="49.20789" lon="0.33939">
        <ele>135.2</ele>
        <time>2024-10-13T08:26:00Z</time>
      </trkpt>
      <trkpt lat="49.20791" lon="0.3394">
        <ele>135.2</ele>
        <time>2024-10-13T08:26:01Z</time>
      </trkpt>
      <trkpt lat="49.20794" lon="0.33939">
        <ele>135.4</ele>
        <time>2024-10-13T08:26:02Z</time>
      </trkpt>
      <trkpt lat="49.20797" lon="0.33936">
        <ele>135.4</ele>
        <time>2024-10-13T08:26:03Z</time>
      </trkpt>
      <trkpt lat="49.208" lon="0.33933">
        <ele>135.4</ele>
        <time>2024-10-13T08:26:04Z</time>
      </trkpt>
      <trkpt lat="49.20804" lon="0.3393">
        <ele>135.4</ele>
        <time>2024-10-13T08:26:05Z</time>
      </trkpt>
      <trkpt lat="49.20808" lon="0.33926">
        <ele>135.4</ele>
        <time>2024-10-13T08:26:06Z</time>
      </trkpt>
      <trkpt lat="49.20812" lon="0.33923">
        <ele>135.4</ele>
        <time>2024-10-13T08:26:07Z</time>
      </trkpt>
      <trkpt lat="49.20816" lon="0.3392">
        <ele>135.4</ele>
        <time>2024-10-13T08:26:08Z</time>
      </trkpt>
      <trkpt lat="49.2082" lon="0.33918">
        <ele>135.4</ele>
        <time>2024-10-13T08:26:09Z</time>
      </trkpt>
      <trkpt lat="49.20824" lon="0.33915">
        <ele>135.4</ele>
        <time>2024-10-13T08:26:10Z</time>
      </trkpt>
      <trkpt lat="49.20829" lon="0.33911">
        <ele>135.4</ele>
        <time>2024-10-13T08:26:11Z</time>
      </trkpt>
      <trkpt lat="49.20834" lon="0.33908">
        <ele>135.4</ele>
        <time>2024-10-13T08:26:12Z</time>
      </trkpt>
      <trkpt lat="49.20839" lon="0.33904">
        <ele>135.4</ele>
        <time>2024-10-13T08:26:13Z</time>
      </trkpt>
      <trkpt lat="49.20844" lon="0.339">
        <ele>135.2</ele>
        <time>2024-10-13T08:26:14Z</time>
      </trkpt>
      <trkpt lat="49.20849" lon="0.33895">
        <ele>135.2</ele>
        <time>2024-10-13T08:26:15Z</time>
      </trkpt>
      <trkpt lat="49.20855" lon="0.33891">
        <ele>135.2</ele>
        <time>2024-10-13T08:26:16Z</time>
      </trkpt>
      <trkpt lat="49.20861" lon="0.33886">
        <ele>135.2</ele>
        <time>2024-10-13T08:26:17Z</time>
      </trkpt>
      <trkpt lat="49.20866" lon="0.3388">
        <ele>135.2</ele>
        <time>2024-10-13T08:26:18Z</time>
      </trkpt>
      <trkpt lat="49.20872" lon="0.33874">
        <ele>135.2</ele>
        <time>2024-10-13T08:26:19Z</time>
      </trkpt>
      <trkpt lat="49.20879" lon="0.33868">
        <ele>135.2</ele>
        <time>2024-10-13T08:26:20Z</time>
      </trkpt>
      <trkpt lat="49.20885" lon="0.33861">
        <ele>135.2</ele>
        <time>2024-10-13T08:26:21Z</time>
      </trkpt>
      <trkpt lat="49.20892" lon="0.33855">
        <ele>135.2</ele>
        <time>2024-10-13T08:26:22Z</time>
      </trkpt>
      <trkpt lat="49.20898" lon="0.33848">
        <ele>135.2</ele>
        <time>2024-10-13T08:26:23Z</time>
      </trkpt>
      <trkpt lat="49.20904" lon="0.33841">
        <ele>135.2</ele>
        <time>2024-10-13T08:26:24Z</time>
      </trkpt>
      <trkpt lat="49.20911" lon="0.33835">
        <ele>135.2</ele>
        <time>2024-10-13T08:26:25Z</time>
      </trkpt>
      <trkpt lat="49.20917" lon="0.33828">
        <ele>135</ele>
        <time>2024-10-13T08:26:26Z</time>
      </trkpt>
      <trkpt lat="49.20923" lon="0.33821">
        <ele>135</ele>
        <time>2024-10-13T08:26:27Z</time>
      </trkpt>
      <trkpt lat="49.20929" lon="0.33814">
        <ele>135</ele>
        <time>2024-10-13T08:26:28Z</time>
      </trkpt>
      <trkpt lat="49.20935" lon="0.33807">
        <ele>135</ele>
        <time>2024-10-13T08:26:29Z</time>
      </trkpt>
      <trkpt lat="49.20941" lon="0.33801">
        <ele>134.8</ele>
        <time>2024-10-13T08:26:30Z</time>
      </trkpt>
      <trkpt lat="49.20946" lon="0.33794">
        <ele>134.8</ele>
        <time>2024-10-13T08:26:31Z</time>
      </trkpt>
      <trkpt lat="49.20952" lon="0.33787">
        <ele>134.6</ele>
        <time>2024-10-13T08:26:32Z</time>
      </trkpt>
      <trkpt lat="49.20958" lon="0.33779">
        <ele>134.6</ele>
        <time>2024-10-13T08:26:33Z</time>
      </trkpt>
      <trkpt lat="49.20963" lon="0.33772">
        <ele>134.6</ele>
        <time>2024-10-13T08:26:34Z</time>
      </trkpt>
      <trkpt lat="49.20968" lon="0.33764">
        <ele>134.6</ele>
        <time>2024-10-13T08:26:35Z</time>
      </trkpt>
      <trkpt lat="49.20973" lon="0.33757">
        <ele>134.6</ele>
        <time>2024-10-13T08:26:36Z</time>
      </trkpt>
      <trkpt lat="49.20978" lon="0.33749">
        <ele>134.6</ele>
        <time>2024-10-13T08:26:37Z</time>
      </trkpt>
      <trkpt lat="49.20983" lon="0.33742">
        <ele>134.6</ele>
        <time>2024-10-13T08:26:38Z</time>
      </trkpt>
      <trkpt lat="49.20988" lon="0.33734">
        <ele>134.4</ele>
        <time>2024-10-13T08:26:39Z</time>
      </trkpt>
      <trkpt lat="49.20993" lon="0.33727">
        <ele>134.4</ele>
        <time>2024-10-13T08:26:40Z</time>
      </trkpt>
      <trkpt lat="49.20997" lon="0.33719">
        <ele>134.4</ele>
        <time>2024-10-13T08:26:41Z</time>
      </trkpt>
      <trkpt lat="49.21002" lon="0.33712">
        <ele>134.4</ele>
        <time>2024-10-13T08:26:42Z</time>
      </trkpt>
      <trkpt lat="49.21006" lon="0.33704">
        <ele>134.4</ele>
        <time>2024-10-13T08:26:43Z</time>
      </trkpt>
      <trkpt lat="49.21011" lon="0.33696">
        <ele>134.4</ele>
        <time>2024-10-13T08:26:44Z</time>
      </trkpt>
      <trkpt lat="49.21015" lon="0.33689">
        <ele>134.4</ele>
        <time>2024-10-13T08:26:45Z</time>
      </trkpt>
      <trkpt lat="49.2102" lon="0.33681">
        <ele>134.4</ele>
        <time>2024-10-13T08:26:46Z</time>
      </trkpt>
      <trkpt lat="49.21026" lon="0.33673">
        <ele>134.4</ele>
        <time>2024-10-13T08:26:47Z</time>
      </trkpt>
      <trkpt lat="49.21031" lon="0.33665">
        <ele>134.4</ele>
        <time>2024-10-13T08:26:48Z</time>
      </trkpt>
      <trkpt lat="49.21036" lon="0.33656">
        <ele>134.4</ele>
        <time>2024-10-13T08:26:49Z</time>
      </trkpt>
      <trkpt lat="49.21041" lon="0.33648">
        <ele>134.4</ele>
        <time>2024-10-13T08:26:50Z</time>
      </trkpt>
      <trkpt lat="49.21046" lon="0.33639">
        <ele>134.4</ele>
        <time>2024-10-13T08:26:51Z</time>
      </trkpt>
      <trkpt lat="49.21051" lon="0.33631">
        <ele>134.4</ele>
        <time>2024-10-13T08:26:52Z</time>
      </trkpt>
      <trkpt lat="49.21056" lon="0.33623">
        <ele>134.4</ele>
        <time>2024-10-13T08:26:53Z</time>
      </trkpt>
      <trkpt lat="49.21061" lon="0.33614">
        <ele>134.4</ele>
        <time>2024-10-13T08:26:54Z</time>
      </trkpt>
      <trkpt lat="49.21066" lon="0.33606">
        <ele>134.2</ele>
        <time>2024-10-13T08:26:55Z</time>
      </trkpt>
      <trkpt lat="49.21071" lon="0.33598">
        <ele>134.2</ele>
        <time>2024-10-13T08:26:56Z</time>
      </trkpt>
      <trkpt lat="49.21076" lon="0.33589">
        <ele>134.2</ele>
        <time>2024-10-13T08:26:57Z</time>
      </trkpt>
      <trkpt lat="49.21081" lon="0.33581">
        <ele>134.2</ele>
        <time>2024-10-13T08:26:58Z</time>
      </trkpt>
      <trkpt lat="49.21086" lon="0.33573">
        <ele>134.2</ele>
        <time>2024-10-13T08:26:59Z</time>
      </trkpt>
      <trkpt lat="49.21091" lon="0.33565">
        <ele>134.2</ele>
        <time>2024-10-13T08:27:00Z</time>
      </trkpt>
      <trkpt lat="49.21096" lon="0.33557">
        <ele>134.2</ele>
        <time>2024-10-13T08:27:01Z</time>
      </trkpt>
      <trkpt lat="49.211" lon="0.3355">
        <ele>134.2</ele>
        <time>2024-10-13T08:27:02Z</time>
      </trkpt>
      <trkpt lat="49.21104" lon="0.33543">
        <ele>134.2</ele>
        <time>2024-10-13T08:27:03Z</time>
      </trkpt>
      <trkpt lat="49.21109" lon="0.33535">
        <ele>134.2</ele>
        <time>2024-10-13T08:27:04Z</time>
      </trkpt>
      <trkpt lat="49.21113" lon="0.33528">
        <ele>134.2</ele>
        <time>2024-10-13T08:27:05Z</time>
      </trkpt>
      <trkpt lat="49.21116" lon="0.3352">
        <ele>134.4</ele>
        <time>2024-10-13T08:27:06Z</time>
      </trkpt>
      <trkpt lat="49.21119" lon="0.33511">
        <ele>134.4</ele>
        <time>2024-10-13T08:27:07Z</time>
      </trkpt>
      <trkpt lat="49.21122" lon="0.33501">
        <ele>134.4</ele>
        <time>2024-10-13T08:27:08Z</time>
      </trkpt>
      <trkpt lat="49.21124" lon="0.33491">
        <ele>134.4</ele>
        <time>2024-10-13T08:27:09Z</time>
      </trkpt>
      <trkpt lat="49.21126" lon="0.33481">
        <ele>134.6</ele>
        <time>2024-10-13T08:27:10Z</time>
      </trkpt>
      <trkpt lat="49.21128" lon="0.3347">
        <ele>134.8</ele>
        <time>2024-10-13T08:27:11Z</time>
      </trkpt>
      <trkpt lat="49.2113" lon="0.33459">
        <ele>134.8</ele>
        <time>2024-10-13T08:27:12Z</time>
      </trkpt>
      <trkpt lat="49.21132" lon="0.33449">
        <ele>134.8</ele>
        <time>2024-10-13T08:27:13Z</time>
      </trkpt>
      <trkpt lat="49.21134" lon="0.33438">
        <ele>134.8</ele>
        <time>2024-10-13T08:27:14Z</time>
      </trkpt>
      <trkpt lat="49.21136" lon="0.33427">
        <ele>134.8</ele>
        <time>2024-10-13T08:27:15Z</time>
      </trkpt>
      <trkpt lat="49.21138" lon="0.33416">
        <ele>134.8</ele>
        <time>2024-10-13T08:27:16Z</time>
      </trkpt>
      <trkpt lat="49.2114" lon="0.33405">
        <ele>134.8</ele>
        <time>2024-10-13T08:27:17Z</time>
      </trkpt>
      <trkpt lat="49.21142" lon="0.33394">
        <ele>134.8</ele>
        <time>2024-10-13T08:27:18Z</time>
      </trkpt>
      <trkpt lat="49.21144" lon="0.33383">
        <ele>134.8</ele>
        <time>2024-10-13T08:27:19Z</time>
      </trkpt>
      <trkpt lat="49.21146" lon="0.33371">
        <ele>134.6</ele>
        <time>2024-10-13T08:27:20Z</time>
      </trkpt>
      <trkpt lat="49.21149" lon="0.3336">
        <ele>134.4</ele>
        <time>2024-10-13T08:27:21Z</time>
      </trkpt>
      <trkpt lat="49.21152" lon="0.33349">
        <ele>134.4</ele>
        <time>2024-10-13T08:27:22Z</time>
      </trkpt>
      <trkpt lat="49.21155" lon="0.33338">
        <ele>134.2</ele>
        <time>2024-10-13T08:27:23Z</time>
      </trkpt>
      <trkpt lat="49.21158" lon="0.33327">
        <ele>134.2</ele>
        <time>2024-10-13T08:27:24Z</time>
      </trkpt>
      <trkpt lat="49.21162" lon="0.33316">
        <ele>134</ele>
        <time>2024-10-13T08:27:25Z</time>
      </trkpt>
      <trkpt lat="49.21165" lon="0.33306">
        <ele>134</ele>
        <time>2024-10-13T08:27:26Z</time>
      </trkpt>
      <trkpt lat="49.21169" lon="0.33296">
        <ele>133.8</ele>
        <time>2024-10-13T08:27:27Z</time>
      </trkpt>
      <trkpt lat="49.21174" lon="0.33285">
        <ele>133.6</ele>
        <time>2024-10-13T08:27:28Z</time>
      </trkpt>
      <trkpt lat="49.21178" lon="0.33274">
        <ele>133.4</ele>
        <time>2024-10-13T08:27:29Z</time>
      </trkpt>
      <trkpt lat="49.21181" lon="0.33263">
        <ele>133</ele>
        <time>2024-10-13T08:27:30Z</time>
      </trkpt>
      <trkpt lat="49.21185" lon="0.33252">
        <ele>132.8</ele>
        <time>2024-10-13T08:27:31Z</time>
      </trkpt>
      <trkpt lat="49.2119" lon="0.33241">
        <ele>132.8</ele>
        <time>2024-10-13T08:27:32Z</time>
      </trkpt>
      <trkpt lat="49.21193" lon="0.33231">
        <ele>132.6</ele>
        <time>2024-10-13T08:27:33Z</time>
      </trkpt>
      <trkpt lat="49.21197" lon="0.3322">
        <ele>132.4</ele>
        <time>2024-10-13T08:27:34Z</time>
      </trkpt>
      <trkpt lat="49.21201" lon="0.33209">
        <ele>132.2</ele>
        <time>2024-10-13T08:27:35Z</time>
      </trkpt>
      <trkpt lat="49.21205" lon="0.33199">
        <ele>132.2</ele>
        <time>2024-10-13T08:27:36Z</time>
      </trkpt>
      <trkpt lat="49.2121" lon="0.33188">
        <ele>132</ele>
        <time>2024-10-13T08:27:37Z</time>
      </trkpt>
      <trkpt lat="49.21214" lon="0.33177">
        <ele>132</ele>
        <time>2024-10-13T08:27:38Z</time>
      </trkpt>
      <trkpt lat="49.21218" lon="0.33166">
        <ele>131.8</ele>
        <time>2024-10-13T08:27:39Z</time>
      </trkpt>
      <trkpt lat="49.21222" lon="0.33156">
        <ele>131.8</ele>
        <time>2024-10-13T08:27:40Z</time>
      </trkpt>
      <trkpt lat="49.21226" lon="0.33146">
        <ele>131.8</ele>
        <time>2024-10-13T08:27:41Z</time>
      </trkpt>
      <trkpt lat="49.2123" lon="0.33135">
        <ele>131.6</ele>
        <time>2024-10-13T08:27:42Z</time>
      </trkpt>
      <trkpt lat="49.21234" lon="0.33124">
        <ele>131.6</ele>
        <time>2024-10-13T08:27:43Z</time>
      </trkpt>
      <trkpt lat="49.21238" lon="0.33113">
        <ele>131.6</ele>
        <time>2024-10-13T08:27:44Z</time>
      </trkpt>
      <trkpt lat="49.21242" lon="0.33102">
        <ele>131.6</ele>
        <time>2024-10-13T08:27:45Z</time>
      </trkpt>
      <trkpt lat="49.21246" lon="0.3309">
        <ele>131.6</ele>
        <time>2024-10-13T08:27:46Z</time>
      </trkpt>
      <trkpt lat="49.2125" lon="0.33079">
        <ele>131.6</ele>
        <time>2024-10-13T08:27:47Z</time>
      </trkpt>
      <trkpt lat="49.21254" lon="0.33068">
        <ele>131.6</ele>
        <time>2024-10-13T08:27:48Z</time>
      </trkpt>
      <trkpt lat="49.21258" lon="0.33057">
        <ele>131.6</ele>
        <time>2024-10-13T08:27:49Z</time>
      </trkpt>
      <trkpt lat="49.21262" lon="0.33046">
        <ele>131.6</ele>
        <time>2024-10-13T08:27:50Z</time>
      </trkpt>
      <trkpt lat="49.21266" lon="0.33035">
        <ele>131.6</ele>
        <time>2024-10-13T08:27:51Z</time>
      </trkpt>
      <trkpt lat="49.2127" lon="0.33024">
        <ele>131.8</ele>
        <time>2024-10-13T08:27:52Z</time>
      </trkpt>
      <trkpt lat="49.21274" lon="0.33013">
        <ele>131.8</ele>
        <time>2024-10-13T08:27:53Z</time>
      </trkpt>
      <trkpt lat="49.21278" lon="0.33003">
        <ele>131.8</ele>
        <time>2024-10-13T08:27:54Z</time>
      </trkpt>
      <trkpt lat="49.21282" lon="0.32993">
        <ele>131.8</ele>
        <time>2024-10-13T08:27:55Z</time>
      </trkpt>
      <trkpt lat="49.21285" lon="0.32982">
        <ele>132</ele>
        <time>2024-10-13T08:27:56Z</time>
      </trkpt>
      <trkpt lat="49.21289" lon="0.32973">
        <ele>132</ele>
        <time>2024-10-13T08:27:57Z</time>
      </trkpt>
      <trkpt lat="49.21293" lon="0.32963">
        <ele>132.2</ele>
        <time>2024-10-13T08:27:58Z</time>
      </trkpt>
      <trkpt lat="49.21297" lon="0.32952">
        <ele>132.4</ele>
        <time>2024-10-13T08:27:59Z</time>
      </trkpt>
      <trkpt lat="49.21301" lon="0.32942">
        <ele>132.4</ele>
        <time>2024-10-13T08:28:00Z</time>
      </trkpt>
      <trkpt lat="49.21306" lon="0.32933">
        <ele>132.6</ele>
        <time>2024-10-13T08:28:01Z</time>
      </trkpt>
      <trkpt lat="49.2131" lon="0.32923">
        <ele>132.6</ele>
        <time>2024-10-13T08:28:02Z</time>
      </trkpt>
      <trkpt lat="49.21314" lon="0.32913">
        <ele>132.8</ele>
        <time>2024-10-13T08:28:03Z</time>
      </trkpt>
      <trkpt lat="49.21318" lon="0.32903">
        <ele>132.8</ele>
        <time>2024-10-13T08:28:04Z</time>
      </trkpt>
      <trkpt lat="49.21322" lon="0.32892">
        <ele>132.8</ele>
        <time>2024-10-13T08:28:05Z</time>
      </trkpt>
      <trkpt lat="49.21326" lon="0.32881">
        <ele>132.8</ele>
        <time>2024-10-13T08:28:06Z</time>
      </trkpt>
      <trkpt lat="49.2133" lon="0.3287">
        <ele>132.8</ele>
        <time>2024-10-13T08:28:07Z</time>
      </trkpt>
      <trkpt lat="49.21334" lon="0.3286">
        <ele>132.8</ele>
        <time>2024-10-13T08:28:08Z</time>
      </trkpt>
      <trkpt lat="49.21338" lon="0.32849">
        <ele>132.8</ele>
        <time>2024-10-13T08:28:09Z</time>
      </trkpt>
      <trkpt lat="49.21341" lon="0.32839">
        <ele>132.8</ele>
        <time>2024-10-13T08:28:10Z</time>
      </trkpt>
      <trkpt lat="49.21345" lon="0.32828">
        <ele>132.8</ele>
        <time>2024-10-13T08:28:11Z</time>
      </trkpt>
      <trkpt lat="49.21349" lon="0.32818">
        <ele>132.8</ele>
        <time>2024-10-13T08:28:12Z</time>
      </trkpt>
      <trkpt lat="49.21353" lon="0.32807">
        <ele>132.8</ele>
        <time>2024-10-13T08:28:13Z</time>
      </trkpt>
      <trkpt lat="49.21357" lon="0.32796">
        <ele>132.8</ele>
        <time>2024-10-13T08:28:14Z</time>
      </trkpt>
      <trkpt lat="49.21361" lon="0.32786">
        <ele>132.8</ele>
        <time>2024-10-13T08:28:15Z</time>
      </trkpt>
      <trkpt lat="49.21365" lon="0.32775">
        <ele>132.8</ele>
        <time>2024-10-13T08:28:16Z</time>
      </trkpt>
      <trkpt lat="49.2137" lon="0.32765">
        <ele>132.6</ele>
        <time>2024-10-13T08:28:17Z</time>
      </trkpt>
      <trkpt lat="49.21374" lon="0.32755">
        <ele>132.2</ele>
        <time>2024-10-13T08:28:18Z</time>
      </trkpt>
      <trkpt lat="49.21379" lon="0.32745">
        <ele>132</ele>
        <time>2024-10-13T08:28:19Z</time>
      </trkpt>
      <trkpt lat="49.21384" lon="0.32735">
        <ele>132.2</ele>
        <time>2024-10-13T08:28:20Z</time>
      </trkpt>
      <trkpt lat="49.2139" lon="0.32725">
        <ele>132.2</ele>
        <time>2024-10-13T08:28:21Z</time>
      </trkpt>
      <trkpt lat="49.21395" lon="0.32716">
        <ele>132</ele>
        <time>2024-10-13T08:28:22Z</time>
      </trkpt>
      <trkpt lat="49.21401" lon="0.32706">
        <ele>131.8</ele>
        <time>2024-10-13T08:28:23Z</time>
      </trkpt>
      <trkpt lat="49.21407" lon="0.32697">
        <ele>131.8</ele>
        <time>2024-10-13T08:28:24Z</time>
      </trkpt>
      <trkpt lat="49.21412" lon="0.32687">
        <ele>131.6</ele>
        <time>2024-10-13T08:28:25Z</time>
      </trkpt>
      <trkpt lat="49.21418" lon="0.32678">
        <ele>131.4</ele>
        <time>2024-10-13T08:28:26Z</time>
      </trkpt>
      <trkpt lat="49.21424" lon="0.3267">
        <ele>131.4</ele>
        <time>2024-10-13T08:28:27Z</time>
      </trkpt>
      <trkpt lat="49.2143" lon="0.32661">
        <ele>131.2</ele>
        <time>2024-10-13T08:28:28Z</time>
      </trkpt>
      <trkpt lat="49.21437" lon="0.32653">
        <ele>131.2</ele>
        <time>2024-10-13T08:28:29Z</time>
      </trkpt>
      <trkpt lat="49.21443" lon="0.32646">
        <ele>131.2</ele>
        <time>2024-10-13T08:28:30Z</time>
      </trkpt>
      <trkpt lat="49.21449" lon="0.32638">
        <ele>131</ele>
        <time>2024-10-13T08:28:31Z</time>
      </trkpt>
      <trkpt lat="49.21455" lon="0.3263">
        <ele>131</ele>
        <time>2024-10-13T08:28:32Z</time>
      </trkpt>
      <trkpt lat="49.21461" lon="0.32623">
        <ele>130.8</ele>
        <time>2024-10-13T08:28:33Z</time>
      </trkpt>
      <trkpt lat="49.21467" lon="0.32616">
        <ele>130.8</ele>
        <time>2024-10-13T08:28:34Z</time>
      </trkpt>
      <trkpt lat="49.21474" lon="0.3261">
        <ele>130.6</ele>
        <time>2024-10-13T08:28:35Z</time>
      </trkpt>
      <trkpt lat="49.2148" lon="0.32603">
        <ele>130.6</ele>
        <time>2024-10-13T08:28:36Z</time>
      </trkpt>
      <trkpt lat="49.21487" lon="0.32596">
        <ele>130.4</ele>
        <time>2024-10-13T08:28:37Z</time>
      </trkpt>
      <trkpt lat="49.21494" lon="0.3259">
        <ele>130.4</ele>
        <time>2024-10-13T08:28:38Z</time>
      </trkpt>
      <trkpt lat="49.21501" lon="0.32584">
        <ele>130.2</ele>
        <time>2024-10-13T08:28:39Z</time>
      </trkpt>
      <trkpt lat="49.21508" lon="0.32578">
        <ele>130.2</ele>
        <time>2024-10-13T08:28:40Z</time>
      </trkpt>
      <trkpt lat="49.21516" lon="0.32573">
        <ele>130</ele>
        <time>2024-10-13T08:28:41Z</time>
      </trkpt>
      <trkpt lat="49.21523" lon="0.32568">
        <ele>130</ele>
        <time>2024-10-13T08:28:42Z</time>
      </trkpt>
      <trkpt lat="49.21531" lon="0.32564">
        <ele>129.8</ele>
        <time>2024-10-13T08:28:43Z</time>
      </trkpt>
      <trkpt lat="49.21539" lon="0.32559">
        <ele>129.6</ele>
        <time>2024-10-13T08:28:44Z</time>
      </trkpt>
      <trkpt lat="49.21547" lon="0.32554">
        <ele>129.4</ele>
        <time>2024-10-13T08:28:45Z</time>
      </trkpt>
      <trkpt lat="49.21554" lon="0.32549">
        <ele>129.2</ele>
        <time>2024-10-13T08:28:46Z</time>
      </trkpt>
      <trkpt lat="49.21562" lon="0.32545">
        <ele>128.8</ele>
        <time>2024-10-13T08:28:47Z</time>
      </trkpt>
      <trkpt lat="49.2157" lon="0.3254">
        <ele>128.4</ele>
        <time>2024-10-13T08:28:48Z</time>
      </trkpt>
      <trkpt lat="49.21579" lon="0.32536">
        <ele>128.2</ele>
        <time>2024-10-13T08:28:49Z</time>
      </trkpt>
      <trkpt lat="49.21587" lon="0.32531">
        <ele>128</ele>
        <time>2024-10-13T08:28:50Z</time>
      </trkpt>
      <trkpt lat="49.21595" lon="0.32525">
        <ele>127.8</ele>
        <time>2024-10-13T08:28:51Z</time>
      </trkpt>
      <trkpt lat="49.21603" lon="0.3252">
        <ele>127.8</ele>
        <time>2024-10-13T08:28:52Z</time>
      </trkpt>
      <trkpt lat="49.21611" lon="0.32513">
        <ele>127.6</ele>
        <time>2024-10-13T08:28:53Z</time>
      </trkpt>
      <trkpt lat="49.21619" lon="0.32503">
        <ele>127.2</ele>
        <time>2024-10-13T08:28:54Z</time>
      </trkpt>
      <trkpt lat="49.21627" lon="0.32494">
        <ele>127</ele>
        <time>2024-10-13T08:28:55Z</time>
      </trkpt>
      <trkpt lat="49.21635" lon="0.32484">
        <ele>126.6</ele>
        <time>2024-10-13T08:28:56Z</time>
      </trkpt>
      <trkpt lat="49.21643" lon="0.32474">
        <ele>126</ele>
        <time>2024-10-13T08:28:57Z</time>
      </trkpt>
      <trkpt lat="49.2165" lon="0.32462">
        <ele>125.4</ele>
        <time>2024-10-13T08:28:58Z</time>
      </trkpt>
      <trkpt lat="49.21657" lon="0.32451">
        <ele>125.2</ele>
        <time>2024-10-13T08:28:59Z</time>
      </trkpt>
      <trkpt lat="49.21664" lon="0.32439">
        <ele>124.8</ele>
        <time>2024-10-13T08:29:00Z</time>
      </trkpt>
      <trkpt lat="49.21672" lon="0.32427">
        <ele>124.2</ele>
        <time>2024-10-13T08:29:01Z</time>
      </trkpt>
      <trkpt lat="49.21679" lon="0.32415">
        <ele>123.4</ele>
        <time>2024-10-13T08:29:02Z</time>
      </trkpt>
      <trkpt lat="49.21687" lon="0.32403">
        <ele>123</ele>
        <time>2024-10-13T08:29:03Z</time>
      </trkpt>
      <trkpt lat="49.21694" lon="0.32392">
        <ele>122.2</ele>
        <time>2024-10-13T08:29:04Z</time>
      </trkpt>
      <trkpt lat="49.21701" lon="0.32381">
        <ele>121.6</ele>
        <time>2024-10-13T08:29:05Z</time>
      </trkpt>
      <trkpt lat="49.21708" lon="0.3237">
        <ele>121</ele>
        <time>2024-10-13T08:29:06Z</time>
      </trkpt>
      <trkpt lat="49.21714" lon="0.32359">
        <ele>120.2</ele>
        <time>2024-10-13T08:29:07Z</time>
      </trkpt>
      <trkpt lat="49.21721" lon="0.32348">
        <ele>119.4</ele>
        <time>2024-10-13T08:29:08Z</time>
      </trkpt>
      <trkpt lat="49.21728" lon="0.32338">
        <ele>118.6</ele>
        <time>2024-10-13T08:29:09Z</time>
      </trkpt>
      <trkpt lat="49.21734" lon="0.32328">
        <ele>117.8</ele>
        <time>2024-10-13T08:29:10Z</time>
      </trkpt>
      <trkpt lat="49.2174" lon="0.32317">
        <ele>117</ele>
        <time>2024-10-13T08:29:11Z</time>
      </trkpt>
      <trkpt lat="49.21746" lon="0.32307">
        <ele>116.4</ele>
        <time>2024-10-13T08:29:12Z</time>
      </trkpt>
      <trkpt lat="49.21752" lon="0.32297">
        <ele>115.8</ele>
        <time>2024-10-13T08:29:13Z</time>
      </trkpt>
      <trkpt lat="49.21756" lon="0.32285">
        <ele>115.4</ele>
        <time>2024-10-13T08:29:14Z</time>
      </trkpt>
      <trkpt lat="49.21759" lon="0.32272">
        <ele>114.4</ele>
        <time>2024-10-13T08:29:15Z</time>
      </trkpt>
      <trkpt lat="49.21761" lon="0.3226">
        <ele>113.6</ele>
        <time>2024-10-13T08:29:16Z</time>
      </trkpt>
      <trkpt lat="49.21763" lon="0.32248">
        <ele>113</ele>
        <time>2024-10-13T08:29:17Z</time>
      </trkpt>
      <trkpt lat="49.21764" lon="0.32234">
        <ele>112.4</ele>
        <time>2024-10-13T08:29:18Z</time>
      </trkpt>
      <trkpt lat="49.21765" lon="0.3222">
        <ele>111.8</ele>
        <time>2024-10-13T08:29:19Z</time>
      </trkpt>
      <trkpt lat="49.21768" lon="0.32205">
        <ele>111.2</ele>
        <time>2024-10-13T08:29:20Z</time>
      </trkpt>
      <trkpt lat="49.21772" lon="0.3219">
        <ele>110.8</ele>
        <time>2024-10-13T08:29:21Z</time>
      </trkpt>
      <trkpt lat="49.21777" lon="0.32174">
        <ele>110.2</ele>
        <time>2024-10-13T08:29:22Z</time>
      </trkpt>
      <trkpt lat="49.21784" lon="0.32161">
        <ele>109.8</ele>
        <time>2024-10-13T08:29:23Z</time>
      </trkpt>
      <trkpt lat="49.21791" lon="0.3215">
        <ele>109.2</ele>
        <time>2024-10-13T08:29:24Z</time>
      </trkpt>
      <trkpt lat="49.218" lon="0.32141">
        <ele>108.8</ele>
        <time>2024-10-13T08:29:25Z</time>
      </trkpt>
      <trkpt lat="49.21809" lon="0.32132">
        <ele>108.4</ele>
        <time>2024-10-13T08:29:26Z</time>
      </trkpt>
      <trkpt lat="49.21818" lon="0.32124">
        <ele>108.2</ele>
        <time>2024-10-13T08:29:27Z</time>
      </trkpt>
      <trkpt lat="49.21827" lon="0.32116">
        <ele>107.6</ele>
        <time>2024-10-13T08:29:28Z</time>
      </trkpt>
      <trkpt lat="49.21836" lon="0.32108">
        <ele>107</ele>
        <time>2024-10-13T08:29:29Z</time>
      </trkpt>
      <trkpt lat="49.21845" lon="0.32101">
        <ele>106</ele>
        <time>2024-10-13T08:29:30Z</time>
      </trkpt>
      <trkpt lat="49.21853" lon="0.32093">
        <ele>105.2</ele>
        <time>2024-10-13T08:29:31Z</time>
      </trkpt>
      <trkpt lat="49.21862" lon="0.32086">
        <ele>104.4</ele>
        <time>2024-10-13T08:29:32Z</time>
      </trkpt>
      <trkpt lat="49.21873" lon="0.32077">
        <ele>103</ele>
        <time>2024-10-13T08:29:33Z</time>
      </trkpt>
      <trkpt lat="49.21879" lon="0.3207">
        <ele>102.4</ele>
        <time>2024-10-13T08:29:34Z</time>
      </trkpt>
      <trkpt lat="49.21887" lon="0.32062">
        <ele>102</ele>
        <time>2024-10-13T08:29:35Z</time>
      </trkpt>
      <trkpt lat="49.21895" lon="0.32054">
        <ele>101.8</ele>
        <time>2024-10-13T08:29:36Z</time>
      </trkpt>
      <trkpt lat="49.21902" lon="0.32045">
        <ele>101.8</ele>
        <time>2024-10-13T08:29:37Z</time>
      </trkpt>
      <trkpt lat="49.21908" lon="0.32037">
        <ele>101.6</ele>
        <time>2024-10-13T08:29:38Z</time>
      </trkpt>
      <trkpt lat="49.21915" lon="0.32028">
        <ele>101.6</ele>
        <time>2024-10-13T08:29:39Z</time>
      </trkpt>
      <trkpt lat="49.21921" lon="0.32019">
        <ele>101.6</ele>
        <time>2024-10-13T08:29:40Z</time>
      </trkpt>
      <trkpt lat="49.21927" lon="0.3201">
        <ele>101.6</ele>
        <time>2024-10-13T08:29:41Z</time>
      </trkpt>
      <trkpt lat="49.21933" lon="0.32">
        <ele>101.6</ele>
        <time>2024-10-13T08:29:42Z</time>
      </trkpt>
      <trkpt lat="49.21939" lon="0.31989">
        <ele>101.6</ele>
        <time>2024-10-13T08:29:43Z</time>
      </trkpt>
      <trkpt lat="49.21945" lon="0.31978">
        <ele>101.6</ele>
        <time>2024-10-13T08:29:44Z</time>
      </trkpt>
      <trkpt lat="49.2195" lon="0.31967">
        <ele>101.6</ele>
        <time>2024-10-13T08:29:45Z</time>
      </trkpt>
      <trkpt lat="49.21956" lon="0.31956">
        <ele>101.8</ele>
        <time>2024-10-13T08:29:46Z</time>
      </trkpt>
      <trkpt lat="49.21962" lon="0.31945">
        <ele>102</ele>
        <time>2024-10-13T08:29:47Z</time>
      </trkpt>
      <trkpt lat="49.21968" lon="0.31933">
        <ele>102.2</ele>
        <time>2024-10-13T08:29:48Z</time>
      </trkpt>
      <trkpt lat="49.21974" lon="0.31921">
        <ele>102.2</ele>
        <time>2024-10-13T08:29:49Z</time>
      </trkpt>
      <trkpt lat="49.21979" lon="0.31908">
        <ele>102.2</ele>
        <time>2024-10-13T08:29:50Z</time>
      </trkpt>
      <trkpt lat="49.21985" lon="0.31895">
        <ele>102.2</ele>
        <time>2024-10-13T08:29:51Z</time>
      </trkpt>
      <trkpt lat="49.2199" lon="0.31881">
        <ele>102.4</ele>
        <time>2024-10-13T08:29:52Z</time>
      </trkpt>
      <trkpt lat="49.21995" lon="0.31867">
        <ele>102.4</ele>
        <time>2024-10-13T08:29:53Z</time>
      </trkpt>
      <trkpt lat="49.22001" lon="0.31853">
        <ele>102.4</ele>
        <time>2024-10-13T08:29:54Z</time>
      </trkpt>
      <trkpt lat="49.22006" lon="0.31839">
        <ele>102.4</ele>
        <time>2024-10-13T08:29:55Z</time>
      </trkpt>
      <trkpt lat="49.22011" lon="0.31826">
        <ele>102.4</ele>
        <time>2024-10-13T08:29:56Z</time>
      </trkpt>
      <trkpt lat="49.22016" lon="0.31812">
        <ele>102.4</ele>
        <time>2024-10-13T08:29:57Z</time>
      </trkpt>
      <trkpt lat="49.22021" lon="0.31798">
        <ele>102.4</ele>
        <time>2024-10-13T08:29:58Z</time>
      </trkpt>
      <trkpt lat="49.22026" lon="0.31785">
        <ele>102.4</ele>
        <time>2024-10-13T08:29:59Z</time>
      </trkpt>
      <trkpt lat="49.22031" lon="0.31771">
        <ele>102.2</ele>
        <time>2024-10-13T08:30:00Z</time>
      </trkpt>
      <trkpt lat="49.22036" lon="0.31758">
        <ele>102.2</ele>
        <time>2024-10-13T08:30:01Z</time>
      </trkpt>
      <trkpt lat="49.22041" lon="0.31745">
        <ele>101.8</ele>
        <time>2024-10-13T08:30:02Z</time>
      </trkpt>
      <trkpt lat="49.22046" lon="0.31732">
        <ele>101.4</ele>
        <time>2024-10-13T08:30:03Z</time>
      </trkpt>
      <trkpt lat="49.2205" lon="0.31719">
        <ele>101</ele>
        <time>2024-10-13T08:30:04Z</time>
      </trkpt>
      <trkpt lat="49.22055" lon="0.31707">
        <ele>100.8</ele>
        <time>2024-10-13T08:30:05Z</time>
      </trkpt>
      <trkpt lat="49.2206" lon="0.31695">
        <ele>100.6</ele>
        <time>2024-10-13T08:30:06Z</time>
      </trkpt>
      <trkpt lat="49.22065" lon="0.31682">
        <ele>100.4</ele>
        <time>2024-10-13T08:30:07Z</time>
      </trkpt>
      <trkpt lat="49.2207" lon="0.3167">
        <ele>100.2</ele>
        <time>2024-10-13T08:30:08Z</time>
      </trkpt>
      <trkpt lat="49.22075" lon="0.31658">
        <ele>99.8</ele>
        <time>2024-10-13T08:30:09Z</time>
      </trkpt>
      <trkpt lat="49.2208" lon="0.31646">
        <ele>99.6</ele>
        <time>2024-10-13T08:30:10Z</time>
      </trkpt>
      <trkpt lat="49.22084" lon="0.31633">
        <ele>99.6</ele>
        <time>2024-10-13T08:30:11Z</time>
      </trkpt>
      <trkpt lat="49.22089" lon="0.31621">
        <ele>99.4</ele>
        <time>2024-10-13T08:30:12Z</time>
      </trkpt>
      <trkpt lat="49.22094" lon="0.31608">
        <ele>99.4</ele>
        <time>2024-10-13T08:30:13Z</time>
      </trkpt>
      <trkpt lat="49.22099" lon="0.31596">
        <ele>99</ele>
        <time>2024-10-13T08:30:14Z</time>
      </trkpt>
      <trkpt lat="49.22104" lon="0.31584">
        <ele>99</ele>
        <time>2024-10-13T08:30:15Z</time>
      </trkpt>
      <trkpt lat="49.22109" lon="0.31572">
        <ele>98.8</ele>
        <time>2024-10-13T08:30:16Z</time>
      </trkpt>
      <trkpt lat="49.22115" lon="0.31561">
        <ele>98.8</ele>
        <time>2024-10-13T08:30:17Z</time>
      </trkpt>
      <trkpt lat="49.22121" lon="0.3155">
        <ele>98.4</ele>
        <time>2024-10-13T08:30:18Z</time>
      </trkpt>
      <trkpt lat="49.22128" lon="0.3154">
        <ele>98</ele>
        <time>2024-10-13T08:30:19Z</time>
      </trkpt>
      <trkpt lat="49.22135" lon="0.3153">
        <ele>97.6</ele>
        <time>2024-10-13T08:30:20Z</time>
      </trkpt>
      <trkpt lat="49.22143" lon="0.31521">
        <ele>97.4</ele>
        <time>2024-10-13T08:30:21Z</time>
      </trkpt>
      <trkpt lat="49.2215" lon="0.31513">
        <ele>97.2</ele>
        <time>2024-10-13T08:30:22Z</time>
      </trkpt>
      <trkpt lat="49.22158" lon="0.31504">
        <ele>97.2</ele>
        <time>2024-10-13T08:30:23Z</time>
      </trkpt>
      <trkpt lat="49.22166" lon="0.31496">
        <ele>97</ele>
        <time>2024-10-13T08:30:24Z</time>
      </trkpt>
      <trkpt lat="49.22174" lon="0.31488">
        <ele>96.8</ele>
        <time>2024-10-13T08:30:25Z</time>
      </trkpt>
      <trkpt lat="49.22182" lon="0.3148">
        <ele>96.8</ele>
        <time>2024-10-13T08:30:26Z</time>
      </trkpt>
      <trkpt lat="49.2219" lon="0.31473">
        <ele>96.8</ele>
        <time>2024-10-13T08:30:27Z</time>
      </trkpt>
      <trkpt lat="49.22197" lon="0.31465">
        <ele>96.8</ele>
        <time>2024-10-13T08:30:28Z</time>
      </trkpt>
      <trkpt lat="49.22205" lon="0.31458">
        <ele>96.6</ele>
        <time>2024-10-13T08:30:29Z</time>
      </trkpt>
      <trkpt lat="49.22212" lon="0.3145">
        <ele>96.6</ele>
        <time>2024-10-13T08:30:30Z</time>
      </trkpt>
      <trkpt lat="49.22219" lon="0.31443">
        <ele>96.6</ele>
        <time>2024-10-13T08:30:31Z</time>
      </trkpt>
      <trkpt lat="49.22226" lon="0.31436">
        <ele>96.4</ele>
        <time>2024-10-13T08:30:32Z</time>
      </trkpt>
      <trkpt lat="49.22233" lon="0.3143">
        <ele>96.4</ele>
        <time>2024-10-13T08:30:33Z</time>
      </trkpt>
      <trkpt lat="49.2224" lon="0.31424">
        <ele>96</ele>
        <time>2024-10-13T08:30:34Z</time>
      </trkpt>
      <trkpt lat="49.22248" lon="0.31417">
        <ele>95.8</ele>
        <time>2024-10-13T08:30:35Z</time>
      </trkpt>
      <trkpt lat="49.22256" lon="0.3141">
        <ele>95.6</ele>
        <time>2024-10-13T08:30:36Z</time>
      </trkpt>
      <trkpt lat="49.22263" lon="0.31403">
        <ele>95.4</ele>
        <time>2024-10-13T08:30:37Z</time>
      </trkpt>
      <trkpt lat="49.22271" lon="0.31396">
        <ele>95.4</ele>
        <time>2024-10-13T08:30:38Z</time>
      </trkpt>
      <trkpt lat="49.22278" lon="0.31388">
        <ele>95.4</ele>
        <time>2024-10-13T08:30:39Z</time>
      </trkpt>
      <trkpt lat="49.22285" lon="0.31381">
        <ele>95.2</ele>
        <time>2024-10-13T08:30:40Z</time>
      </trkpt>
      <trkpt lat="49.22293" lon="0.31374">
        <ele>95.2</ele>
        <time>2024-10-13T08:30:41Z</time>
      </trkpt>
      <trkpt lat="49.223" lon="0.31366">
        <ele>95.2</ele>
        <time>2024-10-13T08:30:42Z</time>
      </trkpt>
      <trkpt lat="49.22308" lon="0.31358">
        <ele>95</ele>
        <time>2024-10-13T08:30:43Z</time>
      </trkpt>
      <trkpt lat="49.22315" lon="0.3135">
        <ele>95</ele>
        <time>2024-10-13T08:30:44Z</time>
      </trkpt>
      <trkpt lat="49.22321" lon="0.31342">
        <ele>94.8</ele>
        <time>2024-10-13T08:30:45Z</time>
      </trkpt>
      <trkpt lat="49.22328" lon="0.31333">
        <ele>94.8</ele>
        <time>2024-10-13T08:30:46Z</time>
      </trkpt>
      <trkpt lat="49.22334" lon="0.31324">
        <ele>94.8</ele>
        <time>2024-10-13T08:30:47Z</time>
      </trkpt>
      <trkpt lat="49.22341" lon="0.31315">
        <ele>94.4</ele>
        <time>2024-10-13T08:30:48Z</time>
      </trkpt>
      <trkpt lat="49.22347" lon="0.31306">
        <ele>94.2</ele>
        <time>2024-10-13T08:30:49Z</time>
      </trkpt>
      <trkpt lat="49.22353" lon="0.31296">
        <ele>94</ele>
        <time>2024-10-13T08:30:50Z</time>
      </trkpt>
      <trkpt lat="49.22359" lon="0.31286">
        <ele>94</ele>
        <time>2024-10-13T08:30:51Z</time>
      </trkpt>
      <trkpt lat="49.22364" lon="0.31275">
        <ele>93.8</ele>
        <time>2024-10-13T08:30:52Z</time>
      </trkpt>
      <trkpt lat="49.22369" lon="0.31264">
        <ele>93.8</ele>
        <time>2024-10-13T08:30:53Z</time>
      </trkpt>
      <trkpt lat="49.22374" lon="0.31252">
        <ele>93.8</ele>
        <time>2024-10-13T08:30:54Z</time>
      </trkpt>
      <trkpt lat="49.22379" lon="0.3124">
        <ele>93.8</ele>
        <time>2024-10-13T08:30:55Z</time>
      </trkpt>
      <trkpt lat="49.22383" lon="0.31228">
        <ele>93.6</ele>
        <time>2024-10-13T08:30:56Z</time>
      </trkpt>
      <trkpt lat="49.22387" lon="0.31215">
        <ele>93.6</ele>
        <time>2024-10-13T08:30:57Z</time>
      </trkpt>
      <trkpt lat="49.22391" lon="0.31202">
        <ele>93.6</ele>
        <time>2024-10-13T08:30:58Z</time>
      </trkpt>
      <trkpt lat="49.22395" lon="0.31189">
        <ele>93.6</ele>
        <time>2024-10-13T08:30:59Z</time>
      </trkpt>
      <trkpt lat="49.22398" lon="0.31175">
        <ele>93.6</ele>
        <time>2024-10-13T08:31:00Z</time>
      </trkpt>
      <trkpt lat="49.22401" lon="0.31161">
        <ele>93.6</ele>
        <time>2024-10-13T08:31:01Z</time>
      </trkpt>
      <trkpt lat="49.22403" lon="0.31146">
        <ele>93.6</ele>
        <time>2024-10-13T08:31:02Z</time>
      </trkpt>
      <trkpt lat="49.22405" lon="0.31132">
        <ele>93.6</ele>
        <time>2024-10-13T08:31:03Z</time>
      </trkpt>
      <trkpt lat="49.22406" lon="0.31117">
        <ele>93.4</ele>
        <time>2024-10-13T08:31:04Z</time>
      </trkpt>
      <trkpt lat="49.22406" lon="0.31102">
        <ele>93.4</ele>
        <time>2024-10-13T08:31:05Z</time>
      </trkpt>
      <trkpt lat="49.22407" lon="0.31086">
        <ele>93.2</ele>
        <time>2024-10-13T08:31:06Z</time>
      </trkpt>
      <trkpt lat="49.22407" lon="0.31071">
        <ele>92.8</ele>
        <time>2024-10-13T08:31:07Z</time>
      </trkpt>
      <trkpt lat="49.22406" lon="0.31056">
        <ele>92.6</ele>
        <time>2024-10-13T08:31:08Z</time>
      </trkpt>
      <trkpt lat="49.22405" lon="0.3104">
        <ele>92.2</ele>
        <time>2024-10-13T08:31:09Z</time>
      </trkpt>
      <trkpt lat="49.22404" lon="0.31025">
        <ele>92</ele>
        <time>2024-10-13T08:31:10Z</time>
      </trkpt>
      <trkpt lat="49.22402" lon="0.3101">
        <ele>91.8</ele>
        <time>2024-10-13T08:31:11Z</time>
      </trkpt>
      <trkpt lat="49.22399" lon="0.30995">
        <ele>91.8</ele>
        <time>2024-10-13T08:31:12Z</time>
      </trkpt>
      <trkpt lat="49.22397" lon="0.3098">
        <ele>91.6</ele>
        <time>2024-10-13T08:31:13Z</time>
      </trkpt>
      <trkpt lat="49.22394" lon="0.30965">
        <ele>91.4</ele>
        <time>2024-10-13T08:31:14Z</time>
      </trkpt>
      <trkpt lat="49.2239" lon="0.3095">
        <ele>91.2</ele>
        <time>2024-10-13T08:31:15Z</time>
      </trkpt>
      <trkpt lat="49.22387" lon="0.30936">
        <ele>91</ele>
        <time>2024-10-13T08:31:16Z</time>
      </trkpt>
      <trkpt lat="49.22384" lon="0.30921">
        <ele>90.6</ele>
        <time>2024-10-13T08:31:17Z</time>
      </trkpt>
      <trkpt lat="49.22381" lon="0.30907">
        <ele>90.4</ele>
        <time>2024-10-13T08:31:18Z</time>
      </trkpt>
      <trkpt lat="49.22378" lon="0.30892">
        <ele>90.4</ele>
        <time>2024-10-13T08:31:19Z</time>
      </trkpt>
      <trkpt lat="49.22375" lon="0.30878">
        <ele>90</ele>
        <time>2024-10-13T08:31:20Z</time>
      </trkpt>
      <trkpt lat="49.22373" lon="0.30863">
        <ele>89.8</ele>
        <time>2024-10-13T08:31:21Z</time>
      </trkpt>
      <trkpt lat="49.2237" lon="0.30849">
        <ele>89.6</ele>
        <time>2024-10-13T08:31:22Z</time>
      </trkpt>
      <trkpt lat="49.22367" lon="0.30835">
        <ele>89.6</ele>
        <time>2024-10-13T08:31:23Z</time>
      </trkpt>
      <trkpt lat="49.22365" lon="0.3082">
        <ele>89.6</ele>
        <time>2024-10-13T08:31:24Z</time>
      </trkpt>
      <trkpt lat="49.22362" lon="0.30806">
        <ele>89.4</ele>
        <time>2024-10-13T08:31:25Z</time>
      </trkpt>
      <trkpt lat="49.2236" lon="0.30791">
        <ele>89.2</ele>
        <time>2024-10-13T08:31:26Z</time>
      </trkpt>
      <trkpt lat="49.22357" lon="0.30777">
        <ele>88.6</ele>
        <time>2024-10-13T08:31:27Z</time>
      </trkpt>
      <trkpt lat="49.22355" lon="0.30762">
        <ele>87.6</ele>
        <time>2024-10-13T08:31:28Z</time>
      </trkpt>
      <trkpt lat="49.22353" lon="0.30748">
        <ele>87.2</ele>
        <time>2024-10-13T08:31:29Z</time>
      </trkpt>
      <trkpt lat="49.22352" lon="0.30733">
        <ele>86.6</ele>
        <time>2024-10-13T08:31:30Z</time>
      </trkpt>
      <trkpt lat="49.22352" lon="0.30719">
        <ele>86</ele>
        <time>2024-10-13T08:31:31Z</time>
      </trkpt>
      <trkpt lat="49.22353" lon="0.30705">
        <ele>85.6</ele>
        <time>2024-10-13T08:31:32Z</time>
      </trkpt>
      <trkpt lat="49.22354" lon="0.30691">
        <ele>85.4</ele>
        <time>2024-10-13T08:31:33Z</time>
      </trkpt>
      <trkpt lat="49.22356" lon="0.30678">
        <ele>85</ele>
        <time>2024-10-13T08:31:34Z</time>
      </trkpt>
      <trkpt lat="49.22359" lon="0.30664">
        <ele>84.8</ele>
        <time>2024-10-13T08:31:35Z</time>
      </trkpt>
      <trkpt lat="49.22362" lon="0.3065">
        <ele>84.4</ele>
        <time>2024-10-13T08:31:36Z</time>
      </trkpt>
      <trkpt lat="49.22366" lon="0.30637">
        <ele>84.4</ele>
        <time>2024-10-13T08:31:37Z</time>
      </trkpt>
      <trkpt lat="49.2237" lon="0.30625">
        <ele>84</ele>
        <time>2024-10-13T08:31:38Z</time>
      </trkpt>
      <trkpt lat="49.22376" lon="0.30614">
        <ele>83.6</ele>
        <time>2024-10-13T08:31:39Z</time>
      </trkpt>
      <trkpt lat="49.22382" lon="0.30603">
        <ele>83.2</ele>
        <time>2024-10-13T08:31:40Z</time>
      </trkpt>
      <trkpt lat="49.22389" lon="0.30592">
        <ele>82.8</ele>
        <time>2024-10-13T08:31:41Z</time>
      </trkpt>
      <trkpt lat="49.22397" lon="0.30581">
        <ele>82.6</ele>
        <time>2024-10-13T08:31:42Z</time>
      </trkpt>
      <trkpt lat="49.22405" lon="0.30571">
        <ele>82</ele>
        <time>2024-10-13T08:31:43Z</time>
      </trkpt>
      <trkpt lat="49.22413" lon="0.3056">
        <ele>81.8</ele>
        <time>2024-10-13T08:31:44Z</time>
      </trkpt>
      <trkpt lat="49.22421" lon="0.30549">
        <ele>81.2</ele>
        <time>2024-10-13T08:31:45Z</time>
      </trkpt>
      <trkpt lat="49.22429" lon="0.30539">
        <ele>81</ele>
        <time>2024-10-13T08:31:46Z</time>
      </trkpt>
      <trkpt lat="49.22436" lon="0.30528">
        <ele>80.6</ele>
        <time>2024-10-13T08:31:47Z</time>
      </trkpt>
      <trkpt lat="49.22444" lon="0.30518">
        <ele>80.4</ele>
        <time>2024-10-13T08:31:48Z</time>
      </trkpt>
      <trkpt lat="49.22452" lon="0.30507">
        <ele>80.2</ele>
        <time>2024-10-13T08:31:49Z</time>
      </trkpt>
      <trkpt lat="49.2246" lon="0.30497">
        <ele>80</ele>
        <time>2024-10-13T08:31:50Z</time>
      </trkpt>
      <trkpt lat="49.22467" lon="0.30487">
        <ele>79.6</ele>
        <time>2024-10-13T08:31:51Z</time>
      </trkpt>
      <trkpt lat="49.22475" lon="0.30476">
        <ele>79.2</ele>
        <time>2024-10-13T08:31:52Z</time>
      </trkpt>
      <trkpt lat="49.22482" lon="0.30466">
        <ele>78</ele>
        <time>2024-10-13T08:31:53Z</time>
      </trkpt>
      <trkpt lat="49.22489" lon="0.30456">
        <ele>77.4</ele>
        <time>2024-10-13T08:31:54Z</time>
      </trkpt>
      <trkpt lat="49.22497" lon="0.30446">
        <ele>76.8</ele>
        <time>2024-10-13T08:31:55Z</time>
      </trkpt>
      <trkpt lat="49.22504" lon="0.30437">
        <ele>76.2</ele>
        <time>2024-10-13T08:31:56Z</time>
      </trkpt>
      <trkpt lat="49.22511" lon="0.30428">
        <ele>76</ele>
        <time>2024-10-13T08:31:57Z</time>
      </trkpt>
      <trkpt lat="49.22518" lon="0.30418">
        <ele>75.8</ele>
        <time>2024-10-13T08:31:58Z</time>
      </trkpt>
      <trkpt lat="49.22526" lon="0.30409">
        <ele>75.6</ele>
        <time>2024-10-13T08:31:59Z</time>
      </trkpt>
      <trkpt lat="49.22533" lon="0.304">
        <ele>75.6</ele>
        <time>2024-10-13T08:32:00Z</time>
      </trkpt>
      <trkpt lat="49.2254" lon="0.3039">
        <ele>75.4</ele>
        <time>2024-10-13T08:32:01Z</time>
      </trkpt>
      <trkpt lat="49.22547" lon="0.30381">
        <ele>75.4</ele>
        <time>2024-10-13T08:32:02Z</time>
      </trkpt>
      <trkpt lat="49.22555" lon="0.30371">
        <ele>75.4</ele>
        <time>2024-10-13T08:32:03Z</time>
      </trkpt>
      <trkpt lat="49.22562" lon="0.30361">
        <ele>75.2</ele>
        <time>2024-10-13T08:32:04Z</time>
      </trkpt>
      <trkpt lat="49.2257" lon="0.30351">
        <ele>75.2</ele>
        <time>2024-10-13T08:32:05Z</time>
      </trkpt>
      <trkpt lat="49.22577" lon="0.3034">
        <ele>75.2</ele>
        <time>2024-10-13T08:32:06Z</time>
      </trkpt>
      <trkpt lat="49.22584" lon="0.30328">
        <ele>75</ele>
        <time>2024-10-13T08:32:07Z</time>
      </trkpt>
      <trkpt lat="49.22592" lon="0.30317">
        <ele>75</ele>
        <time>2024-10-13T08:32:08Z</time>
      </trkpt>
      <trkpt lat="49.22599" lon="0.30305">
        <ele>74.8</ele>
        <time>2024-10-13T08:32:09Z</time>
      </trkpt>
      <trkpt lat="49.22606" lon="0.30293">
        <ele>74.8</ele>
        <time>2024-10-13T08:32:10Z</time>
      </trkpt>
      <trkpt lat="49.22614" lon="0.3028">
        <ele>74.4</ele>
        <time>2024-10-13T08:32:11Z</time>
      </trkpt>
      <trkpt lat="49.22621" lon="0.30267">
        <ele>74.2</ele>
        <time>2024-10-13T08:32:12Z</time>
      </trkpt>
      <trkpt lat="49.22628" lon="0.30253">
        <ele>73.8</ele>
        <time>2024-10-13T08:32:13Z</time>
      </trkpt>
      <trkpt lat="49.22634" lon="0.30239">
        <ele>73.2</ele>
        <time>2024-10-13T08:32:14Z</time>
      </trkpt>
      <trkpt lat="49.22641" lon="0.30225">
        <ele>72.6</ele>
        <time>2024-10-13T08:32:15Z</time>
      </trkpt>
      <trkpt lat="49.22649" lon="0.30212">
        <ele>72</ele>
        <time>2024-10-13T08:32:16Z</time>
      </trkpt>
      <trkpt lat="49.22656" lon="0.30199">
        <ele>71.4</ele>
        <time>2024-10-13T08:32:17Z</time>
      </trkpt>
      <trkpt lat="49.22664" lon="0.30187">
        <ele>71</ele>
        <time>2024-10-13T08:32:18Z</time>
      </trkpt>
      <trkpt lat="49.22671" lon="0.30175">
        <ele>70.4</ele>
        <time>2024-10-13T08:32:19Z</time>
      </trkpt>
      <trkpt lat="49.22679" lon="0.30164">
        <ele>70</ele>
        <time>2024-10-13T08:32:20Z</time>
      </trkpt>
      <trkpt lat="49.22688" lon="0.30154">
        <ele>69.4</ele>
        <time>2024-10-13T08:32:21Z</time>
      </trkpt>
      <trkpt lat="49.22696" lon="0.30144">
        <ele>69</ele>
        <time>2024-10-13T08:32:22Z</time>
      </trkpt>
      <trkpt lat="49.22705" lon="0.30136">
        <ele>68.2</ele>
        <time>2024-10-13T08:32:23Z</time>
      </trkpt>
      <trkpt lat="49.22713" lon="0.30127">
        <ele>68</ele>
        <time>2024-10-13T08:32:24Z</time>
      </trkpt>
      <trkpt lat="49.22721" lon="0.30119">
        <ele>68</ele>
        <time>2024-10-13T08:32:25Z</time>
      </trkpt>
      <trkpt lat="49.22729" lon="0.30111">
        <ele>68</ele>
        <time>2024-10-13T08:32:26Z</time>
      </trkpt>
      <trkpt lat="49.22738" lon="0.30103">
        <ele>67.8</ele>
        <time>2024-10-13T08:32:27Z</time>
      </trkpt>
      <trkpt lat="49.22745" lon="0.30095">
        <ele>67.8</ele>
        <time>2024-10-13T08:32:28Z</time>
      </trkpt>
      <trkpt lat="49.22753" lon="0.30088">
        <ele>67.8</ele>
        <time>2024-10-13T08:32:29Z</time>
      </trkpt>
      <trkpt lat="49.2276" lon="0.30081">
        <ele>67.8</ele>
        <time>2024-10-13T08:32:30Z</time>
      </trkpt>
      <trkpt lat="49.22768" lon="0.30073">
        <ele>67.8</ele>
        <time>2024-10-13T08:32:31Z</time>
      </trkpt>
      <trkpt lat="49.22775" lon="0.30066">
        <ele>68</ele>
        <time>2024-10-13T08:32:32Z</time>
      </trkpt>
      <trkpt lat="49.22782" lon="0.30058">
        <ele>68</ele>
        <time>2024-10-13T08:32:33Z</time>
      </trkpt>
      <trkpt lat="49.2279" lon="0.30051">
        <ele>68.4</ele>
        <time>2024-10-13T08:32:34Z</time>
      </trkpt>
      <trkpt lat="49.22797" lon="0.30043">
        <ele>68.6</ele>
        <time>2024-10-13T08:32:35Z</time>
      </trkpt>
      <trkpt lat="49.22804" lon="0.30035">
        <ele>69</ele>
        <time>2024-10-13T08:32:36Z</time>
      </trkpt>
      <trkpt lat="49.22811" lon="0.30027">
        <ele>69.2</ele>
        <time>2024-10-13T08:32:37Z</time>
      </trkpt>
      <trkpt lat="49.22818" lon="0.30018">
        <ele>69.6</ele>
        <time>2024-10-13T08:32:38Z</time>
      </trkpt>
      <trkpt lat="49.22824" lon="0.30009">
        <ele>70.4</ele>
        <time>2024-10-13T08:32:39Z</time>
      </trkpt>
      <trkpt lat="49.22831" lon="0.29999">
        <ele>70.6</ele>
        <time>2024-10-13T08:32:40Z</time>
      </trkpt>
      <trkpt lat="49.22838" lon="0.29989">
        <ele>70.8</ele>
        <time>2024-10-13T08:32:41Z</time>
      </trkpt>
      <trkpt lat="49.22845" lon="0.29979">
        <ele>70.8</ele>
        <time>2024-10-13T08:32:42Z</time>
      </trkpt>
      <trkpt lat="49.22851" lon="0.29969">
        <ele>70.8</ele>
        <time>2024-10-13T08:32:43Z</time>
      </trkpt>
      <trkpt lat="49.22858" lon="0.29959">
        <ele>70.8</ele>
        <time>2024-10-13T08:32:44Z</time>
      </trkpt>
      <trkpt lat="49.22864" lon="0.29949">
        <ele>70.8</ele>
        <time>2024-10-13T08:32:45Z</time>
      </trkpt>
      <trkpt lat="49.2287" lon="0.29938">
        <ele>70.8</ele>
        <time>2024-10-13T08:32:46Z</time>
      </trkpt>
      <trkpt lat="49.22876" lon="0.29928">
        <ele>70.8</ele>
        <time>2024-10-13T08:32:47Z</time>
      </trkpt>
      <trkpt lat="49.22882" lon="0.29917">
        <ele>70.8</ele>
        <time>2024-10-13T08:32:48Z</time>
      </trkpt>
      <trkpt lat="49.22887" lon="0.29906">
        <ele>70.8</ele>
        <time>2024-10-13T08:32:49Z</time>
      </trkpt>
      <trkpt lat="49.22893" lon="0.29895">
        <ele>70.4</ele>
        <time>2024-10-13T08:32:50Z</time>
      </trkpt>
      <trkpt lat="49.22899" lon="0.29883">
        <ele>70.2</ele>
        <time>2024-10-13T08:32:51Z</time>
      </trkpt>
      <trkpt lat="49.22904" lon="0.29872">
        <ele>70</ele>
        <time>2024-10-13T08:32:52Z</time>
      </trkpt>
      <trkpt lat="49.2291" lon="0.29862">
        <ele>69.6</ele>
        <time>2024-10-13T08:32:53Z</time>
      </trkpt>
      <trkpt lat="49.22915" lon="0.2985">
        <ele>69.2</ele>
        <time>2024-10-13T08:32:54Z</time>
      </trkpt>
      <trkpt lat="49.2292" lon="0.29839">
        <ele>69</ele>
        <time>2024-10-13T08:32:55Z</time>
      </trkpt>
      <trkpt lat="49.22925" lon="0.29828">
        <ele>68.8</ele>
        <time>2024-10-13T08:32:56Z</time>
      </trkpt>
      <trkpt lat="49.2293" lon="0.29817">
        <ele>68.6</ele>
        <time>2024-10-13T08:32:57Z</time>
      </trkpt>
      <trkpt lat="49.22936" lon="0.29805">
        <ele>68.4</ele>
        <time>2024-10-13T08:32:58Z</time>
      </trkpt>
      <trkpt lat="49.22941" lon="0.29794">
        <ele>68.2</ele>
        <time>2024-10-13T08:32:59Z</time>
      </trkpt>
      <trkpt lat="49.22946" lon="0.29783">
        <ele>67.8</ele>
        <time>2024-10-13T08:33:00Z</time>
      </trkpt>
      <trkpt lat="49.22952" lon="0.29773">
        <ele>67.6</ele>
        <time>2024-10-13T08:33:01Z</time>
      </trkpt>
      <trkpt lat="49.22958" lon="0.29763">
        <ele>67.6</ele>
        <time>2024-10-13T08:33:02Z</time>
      </trkpt>
      <trkpt lat="49.22963" lon="0.29753">
        <ele>67.4</ele>
        <time>2024-10-13T08:33:03Z</time>
      </trkpt>
      <trkpt lat="49.22969" lon="0.29744">
        <ele>67.2</ele>
        <time>2024-10-13T08:33:04Z</time>
      </trkpt>
      <trkpt lat="49.22975" lon="0.29734">
        <ele>67.2</ele>
        <time>2024-10-13T08:33:05Z</time>
      </trkpt>
      <trkpt lat="49.2298" lon="0.29725">
        <ele>67</ele>
        <time>2024-10-13T08:33:06Z</time>
      </trkpt>
      <trkpt lat="49.22986" lon="0.29716">
        <ele>67</ele>
        <time>2024-10-13T08:33:07Z</time>
      </trkpt>
      <trkpt lat="49.22991" lon="0.29708">
        <ele>67</ele>
        <time>2024-10-13T08:33:08Z</time>
      </trkpt>
      <trkpt lat="49.22997" lon="0.297">
        <ele>67</ele>
        <time>2024-10-13T08:33:09Z</time>
      </trkpt>
      <trkpt lat="49.23002" lon="0.29692">
        <ele>67</ele>
        <time>2024-10-13T08:33:10Z</time>
      </trkpt>
      <trkpt lat="49.23007" lon="0.29684">
        <ele>67</ele>
        <time>2024-10-13T08:33:11Z</time>
      </trkpt>
      <trkpt lat="49.23012" lon="0.29677">
        <ele>67</ele>
        <time>2024-10-13T08:33:12Z</time>
      </trkpt>
      <trkpt lat="49.23016" lon="0.29669">
        <ele>67</ele>
        <time>2024-10-13T08:33:13Z</time>
      </trkpt>
      <trkpt lat="49.23021" lon="0.29662">
        <ele>67</ele>
        <time>2024-10-13T08:33:14Z</time>
      </trkpt>
      <trkpt lat="49.23025" lon="0.29655">
        <ele>67</ele>
        <time>2024-10-13T08:33:15Z</time>
      </trkpt>
      <trkpt lat="49.23029" lon="0.29648">
        <ele>67</ele>
        <time>2024-10-13T08:33:16Z</time>
      </trkpt>
      <trkpt lat="49.23033" lon="0.29641">
        <ele>67.2</ele>
        <time>2024-10-13T08:33:17Z</time>
      </trkpt>
      <trkpt lat="49.23036" lon="0.29635">
        <ele>67.4</ele>
        <time>2024-10-13T08:33:18Z</time>
      </trkpt>
      <trkpt lat="49.2304" lon="0.29628">
        <ele>67.6</ele>
        <time>2024-10-13T08:33:19Z</time>
      </trkpt>
      <trkpt lat="49.23044" lon="0.29621">
        <ele>67.6</ele>
        <time>2024-10-13T08:33:20Z</time>
      </trkpt>
      <trkpt lat="49.23047" lon="0.29614">
        <ele>67.8</ele>
        <time>2024-10-13T08:33:21Z</time>
      </trkpt>
      <trkpt lat="49.2305" lon="0.29607">
        <ele>68</ele>
        <time>2024-10-13T08:33:22Z</time>
      </trkpt>
      <trkpt lat="49.23053" lon="0.296">
        <ele>68.4</ele>
        <time>2024-10-13T08:33:23Z</time>
      </trkpt>
      <trkpt lat="49.23057" lon="0.29593">
        <ele>68.6</ele>
        <time>2024-10-13T08:33:24Z</time>
      </trkpt>
      <trkpt lat="49.23061" lon="0.29586">
        <ele>69.2</ele>
        <time>2024-10-13T08:33:25Z</time>
      </trkpt>
      <trkpt lat="49.23065" lon="0.29579">
        <ele>69.4</ele>
        <time>2024-10-13T08:33:26Z</time>
      </trkpt>
      <trkpt lat="49.23069" lon="0.29572">
        <ele>69.4</ele>
        <time>2024-10-13T08:33:27Z</time>
      </trkpt>
      <trkpt lat="49.23073" lon="0.29565">
        <ele>69.4</ele>
        <time>2024-10-13T08:33:28Z</time>
      </trkpt>
      <trkpt lat="49.23076" lon="0.29558">
        <ele>69.6</ele>
        <time>2024-10-13T08:33:29Z</time>
      </trkpt>
      <trkpt lat="49.2308" lon="0.29551">
        <ele>69.6</ele>
        <time>2024-10-13T08:33:30Z</time>
      </trkpt>
      <trkpt lat="49.23084" lon="0.29545">
        <ele>69.6</ele>
        <time>2024-10-13T08:33:31Z</time>
      </trkpt>
      <trkpt lat="49.23089" lon="0.29539">
        <ele>69.6</ele>
        <time>2024-10-13T08:33:32Z</time>
      </trkpt>
      <trkpt lat="49.23093" lon="0.29534">
        <ele>69.6</ele>
        <time>2024-10-13T08:33:33Z</time>
      </trkpt>
      <trkpt lat="49.23098" lon="0.29528">
        <ele>69.6</ele>
        <time>2024-10-13T08:33:34Z</time>
      </trkpt>
      <trkpt lat="49.23103" lon="0.29521">
        <ele>69.8</ele>
        <time>2024-10-13T08:33:35Z</time>
      </trkpt>
      <trkpt lat="49.23108" lon="0.29515">
        <ele>69.8</ele>
        <time>2024-10-13T08:33:36Z</time>
      </trkpt>
      <trkpt lat="49.23113" lon="0.29509">
        <ele>69.8</ele>
        <time>2024-10-13T08:33:37Z</time>
      </trkpt>
      <trkpt lat="49.23118" lon="0.29502">
        <ele>70</ele>
        <time>2024-10-13T08:33:38Z</time>
      </trkpt>
      <trkpt lat="49.23123" lon="0.29495">
        <ele>70</ele>
        <time>2024-10-13T08:33:39Z</time>
      </trkpt>
      <trkpt lat="49.23129" lon="0.29488">
        <ele>70.2</ele>
        <time>2024-10-13T08:33:40Z</time>
      </trkpt>
      <trkpt lat="49.23134" lon="0.29481">
        <ele>70.2</ele>
        <time>2024-10-13T08:33:41Z</time>
      </trkpt>
      <trkpt lat="49.2314" lon="0.29474">
        <ele>70.2</ele>
        <time>2024-10-13T08:33:42Z</time>
      </trkpt>
      <trkpt lat="49.23145" lon="0.29466">
        <ele>70.2</ele>
        <time>2024-10-13T08:33:43Z</time>
      </trkpt>
      <trkpt lat="49.23151" lon="0.29459">
        <ele>70.2</ele>
        <time>2024-10-13T08:33:44Z</time>
      </trkpt>
      <trkpt lat="49.23157" lon="0.29451">
        <ele>70.2</ele>
        <time>2024-10-13T08:33:45Z</time>
      </trkpt>
      <trkpt lat="49.23163" lon="0.29443">
        <ele>70.2</ele>
        <time>2024-10-13T08:33:46Z</time>
      </trkpt>
      <trkpt lat="49.23169" lon="0.29436">
        <ele>70.2</ele>
        <time>2024-10-13T08:33:47Z</time>
      </trkpt>
      <trkpt lat="49.23175" lon="0.29428">
        <ele>70.2</ele>
        <time>2024-10-13T08:33:48Z</time>
      </trkpt>
      <trkpt lat="49.23182" lon="0.2942">
        <ele>70.2</ele>
        <time>2024-10-13T08:33:49Z</time>
      </trkpt>
      <trkpt lat="49.23188" lon="0.29412">
        <ele>70.2</ele>
        <time>2024-10-13T08:33:50Z</time>
      </trkpt>
      <trkpt lat="49.23195" lon="0.29404">
        <ele>70.2</ele>
        <time>2024-10-13T08:33:51Z</time>
      </trkpt>
      <trkpt lat="49.23202" lon="0.29396">
        <ele>69.8</ele>
        <time>2024-10-13T08:33:52Z</time>
      </trkpt>
      <trkpt lat="49.23209" lon="0.29388">
        <ele>69.6</ele>
        <time>2024-10-13T08:33:53Z</time>
      </trkpt>
      <trkpt lat="49.23216" lon="0.2938">
        <ele>69.6</ele>
        <time>2024-10-13T08:33:54Z</time>
      </trkpt>
      <trkpt lat="49.23223" lon="0.29372">
        <ele>69.4</ele>
        <time>2024-10-13T08:33:55Z</time>
      </trkpt>
      <trkpt lat="49.23231" lon="0.29365">
        <ele>69.4</ele>
        <time>2024-10-13T08:33:56Z</time>
      </trkpt>
      <trkpt lat="49.23239" lon="0.29358">
        <ele>69</ele>
        <time>2024-10-13T08:33:57Z</time>
      </trkpt>
      <trkpt lat="49.23247" lon="0.2935">
        <ele>69</ele>
        <time>2024-10-13T08:33:58Z</time>
      </trkpt>
      <trkpt lat="49.23256" lon="0.29343">
        <ele>68.8</ele>
        <time>2024-10-13T08:33:59Z</time>
      </trkpt>
      <trkpt lat="49.23264" lon="0.29335">
        <ele>68.4</ele>
        <time>2024-10-13T08:34:00Z</time>
      </trkpt>
      <trkpt lat="49.23273" lon="0.29328">
        <ele>68</ele>
        <time>2024-10-13T08:34:01Z</time>
      </trkpt>
      <trkpt lat="49.23282" lon="0.2932">
        <ele>67.8</ele>
        <time>2024-10-13T08:34:02Z</time>
      </trkpt>
      <trkpt lat="49.23291" lon="0.29313">
        <ele>67.6</ele>
        <time>2024-10-13T08:34:03Z</time>
      </trkpt>
      <trkpt lat="49.233" lon="0.29305">
        <ele>67.4</ele>
        <time>2024-10-13T08:34:04Z</time>
      </trkpt>
      <trkpt lat="49.23308" lon="0.29297">
        <ele>67.2</ele>
        <time>2024-10-13T08:34:05Z</time>
      </trkpt>
      <trkpt lat="49.23317" lon="0.29288">
        <ele>67</ele>
        <time>2024-10-13T08:34:06Z</time>
      </trkpt>
      <trkpt lat="49.23325" lon="0.29279">
        <ele>66.8</ele>
        <time>2024-10-13T08:34:07Z</time>
      </trkpt>
      <trkpt lat="49.23334" lon="0.29268">
        <ele>66.6</ele>
        <time>2024-10-13T08:34:08Z</time>
      </trkpt>
      <trkpt lat="49.23342" lon="0.29258">
        <ele>66.2</ele>
        <time>2024-10-13T08:34:09Z</time>
      </trkpt>
      <trkpt lat="49.2335" lon="0.29248">
        <ele>65.6</ele>
        <time>2024-10-13T08:34:10Z</time>
      </trkpt>
      <trkpt lat="49.23357" lon="0.29237">
        <ele>65.4</ele>
        <time>2024-10-13T08:34:11Z</time>
      </trkpt>
      <trkpt lat="49.23364" lon="0.29226">
        <ele>65.2</ele>
        <time>2024-10-13T08:34:12Z</time>
      </trkpt>
      <trkpt lat="49.23371" lon="0.29214">
        <ele>65</ele>
        <time>2024-10-13T08:34:13Z</time>
      </trkpt>
      <trkpt lat="49.23378" lon="0.29204">
        <ele>64.6</ele>
        <time>2024-10-13T08:34:14Z</time>
      </trkpt>
      <trkpt lat="49.23384" lon="0.29193">
        <ele>64.4</ele>
        <time>2024-10-13T08:34:15Z</time>
      </trkpt>
      <trkpt lat="49.2339" lon="0.29183">
        <ele>64.2</ele>
        <time>2024-10-13T08:34:16Z</time>
      </trkpt>
      <trkpt lat="49.23397" lon="0.29173">
        <ele>64.2</ele>
        <time>2024-10-13T08:34:17Z</time>
      </trkpt>
      <trkpt lat="49.23403" lon="0.29163">
        <ele>64.2</ele>
        <time>2024-10-13T08:34:18Z</time>
      </trkpt>
      <trkpt lat="49.23409" lon="0.29153">
        <ele>64.2</ele>
        <time>2024-10-13T08:34:19Z</time>
      </trkpt>
      <trkpt lat="49.23415" lon="0.29143">
        <ele>64.2</ele>
        <time>2024-10-13T08:34:20Z</time>
      </trkpt>
      <trkpt lat="49.23422" lon="0.29134">
        <ele>64.2</ele>
        <time>2024-10-13T08:34:21Z</time>
      </trkpt>
      <trkpt lat="49.23428" lon="0.29125">
        <ele>64.2</ele>
        <time>2024-10-13T08:34:22Z</time>
      </trkpt>
      <trkpt lat="49.23434" lon="0.29116">
        <ele>64.2</ele>
        <time>2024-10-13T08:34:23Z</time>
      </trkpt>
      <trkpt lat="49.2344" lon="0.29106">
        <ele>64.6</ele>
        <time>2024-10-13T08:34:24Z</time>
      </trkpt>
      <trkpt lat="49.23446" lon="0.29097">
        <ele>65</ele>
        <time>2024-10-13T08:34:25Z</time>
      </trkpt>
      <trkpt lat="49.23453" lon="0.29087">
        <ele>65.4</ele>
        <time>2024-10-13T08:34:26Z</time>
      </trkpt>
      <trkpt lat="49.23459" lon="0.29078">
        <ele>65.8</ele>
        <time>2024-10-13T08:34:27Z</time>
      </trkpt>
      <trkpt lat="49.23465" lon="0.29069">
        <ele>66.2</ele>
        <time>2024-10-13T08:34:28Z</time>
      </trkpt>
      <trkpt lat="49.23471" lon="0.29059">
        <ele>66.6</ele>
        <time>2024-10-13T08:34:29Z</time>
      </trkpt>
      <trkpt lat="49.23477" lon="0.2905">
        <ele>66.8</ele>
        <time>2024-10-13T08:34:30Z</time>
      </trkpt>
      <trkpt lat="49.23483" lon="0.29041">
        <ele>67</ele>
        <time>2024-10-13T08:34:31Z</time>
      </trkpt>
      <trkpt lat="49.23489" lon="0.29032">
        <ele>67</ele>
        <time>2024-10-13T08:34:32Z</time>
      </trkpt>
      <trkpt lat="49.23495" lon="0.29023">
        <ele>67.2</ele>
        <time>2024-10-13T08:34:33Z</time>
      </trkpt>
      <trkpt lat="49.23501" lon="0.29014">
        <ele>67.2</ele>
        <time>2024-10-13T08:34:34Z</time>
      </trkpt>
      <trkpt lat="49.23506" lon="0.29005">
        <ele>67.4</ele>
        <time>2024-10-13T08:34:35Z</time>
      </trkpt>
      <trkpt lat="49.23512" lon="0.28996">
        <ele>67.6</ele>
        <time>2024-10-13T08:34:36Z</time>
      </trkpt>
      <trkpt lat="49.23518" lon="0.28988">
        <ele>67.8</ele>
        <time>2024-10-13T08:34:37Z</time>
      </trkpt>
      <trkpt lat="49.23523" lon="0.28979">
        <ele>68</ele>
        <time>2024-10-13T08:34:38Z</time>
      </trkpt>
      <trkpt lat="49.23529" lon="0.2897">
        <ele>68.2</ele>
        <time>2024-10-13T08:34:39Z</time>
      </trkpt>
      <trkpt lat="49.23534" lon="0.28962">
        <ele>68.4</ele>
        <time>2024-10-13T08:34:40Z</time>
      </trkpt>
      <trkpt lat="49.23539" lon="0.28953">
        <ele>68.4</ele>
        <time>2024-10-13T08:34:41Z</time>
      </trkpt>
      <trkpt lat="49.23545" lon="0.28943">
        <ele>68.4</ele>
        <time>2024-10-13T08:34:42Z</time>
      </trkpt>
      <trkpt lat="49.2355" lon="0.28934">
        <ele>68.6</ele>
        <time>2024-10-13T08:34:43Z</time>
      </trkpt>
      <trkpt lat="49.23556" lon="0.28925">
        <ele>68.8</ele>
        <time>2024-10-13T08:34:44Z</time>
      </trkpt>
      <trkpt lat="49.23562" lon="0.28916">
        <ele>69</ele>
        <time>2024-10-13T08:34:45Z</time>
      </trkpt>
      <trkpt lat="49.23568" lon="0.28906">
        <ele>69</ele>
        <time>2024-10-13T08:34:46Z</time>
      </trkpt>
      <trkpt lat="49.23574" lon="0.28896">
        <ele>69.2</ele>
        <time>2024-10-13T08:34:47Z</time>
      </trkpt>
      <trkpt lat="49.2358" lon="0.28887">
        <ele>69.2</ele>
        <time>2024-10-13T08:34:48Z</time>
      </trkpt>
      <trkpt lat="49.23586" lon="0.28877">
        <ele>69.2</ele>
        <time>2024-10-13T08:34:49Z</time>
      </trkpt>
      <trkpt lat="49.23593" lon="0.28867">
        <ele>69.2</ele>
        <time>2024-10-13T08:34:50Z</time>
      </trkpt>
      <trkpt lat="49.23599" lon="0.28857">
        <ele>69.2</ele>
        <time>2024-10-13T08:34:51Z</time>
      </trkpt>
      <trkpt lat="49.23606" lon="0.28847">
        <ele>69.2</ele>
        <time>2024-10-13T08:34:52Z</time>
      </trkpt>
      <trkpt lat="49.23612" lon="0.28837">
        <ele>69.2</ele>
        <time>2024-10-13T08:34:53Z</time>
      </trkpt>
      <trkpt lat="49.23619" lon="0.28827">
        <ele>69.2</ele>
        <time>2024-10-13T08:34:54Z</time>
      </trkpt>
      <trkpt lat="49.23626" lon="0.28817">
        <ele>68.8</ele>
        <time>2024-10-13T08:34:55Z</time>
      </trkpt>
      <trkpt lat="49.23633" lon="0.28807">
        <ele>68.6</ele>
        <time>2024-10-13T08:34:56Z</time>
      </trkpt>
      <trkpt lat="49.2364" lon="0.28797">
        <ele>68.2</ele>
        <time>2024-10-13T08:34:57Z</time>
      </trkpt>
      <trkpt lat="49.23647" lon="0.28788">
        <ele>68.2</ele>
        <time>2024-10-13T08:34:58Z</time>
      </trkpt>
      <trkpt lat="49.23654" lon="0.28779">
        <ele>68</ele>
        <time>2024-10-13T08:34:59Z</time>
      </trkpt>
      <trkpt lat="49.23662" lon="0.28771">
        <ele>67.8</ele>
        <time>2024-10-13T08:35:00Z</time>
      </trkpt>
      <trkpt lat="49.23669" lon="0.28763">
        <ele>67.8</ele>
        <time>2024-10-13T08:35:01Z</time>
      </trkpt>
      <trkpt lat="49.23677" lon="0.28756">
        <ele>67.6</ele>
        <time>2024-10-13T08:35:02Z</time>
      </trkpt>
      <trkpt lat="49.23684" lon="0.28748">
        <ele>67.6</ele>
        <time>2024-10-13T08:35:03Z</time>
      </trkpt>
      <trkpt lat="49.23691" lon="0.28741">
        <ele>67.6</ele>
        <time>2024-10-13T08:35:04Z</time>
      </trkpt>
      <trkpt lat="49.23699" lon="0.28733">
        <ele>67.6</ele>
        <time>2024-10-13T08:35:05Z</time>
      </trkpt>
      <trkpt lat="49.23706" lon="0.28726">
        <ele>67.6</ele>
        <time>2024-10-13T08:35:06Z</time>
      </trkpt>
      <trkpt lat="49.23713" lon="0.28718">
        <ele>67.6</ele>
        <time>2024-10-13T08:35:07Z</time>
      </trkpt>
      <trkpt lat="49.2372" lon="0.28711">
        <ele>67.6</ele>
        <time>2024-10-13T08:35:08Z</time>
      </trkpt>
      <trkpt lat="49.23727" lon="0.28704">
        <ele>67.6</ele>
        <time>2024-10-13T08:35:09Z</time>
      </trkpt>
      <trkpt lat="49.23733" lon="0.28696">
        <ele>67.6</ele>
        <time>2024-10-13T08:35:10Z</time>
      </trkpt>
      <trkpt lat="49.2374" lon="0.28688">
        <ele>67.6</ele>
        <time>2024-10-13T08:35:11Z</time>
      </trkpt>
      <trkpt lat="49.23746" lon="0.2868">
        <ele>67.6</ele>
        <time>2024-10-13T08:35:12Z</time>
      </trkpt>
      <trkpt lat="49.23752" lon="0.28671">
        <ele>67.8</ele>
        <time>2024-10-13T08:35:13Z</time>
      </trkpt>
      <trkpt lat="49.23758" lon="0.28664">
        <ele>68</ele>
        <time>2024-10-13T08:35:14Z</time>
      </trkpt>
      <trkpt lat="49.23763" lon="0.28655">
        <ele>68</ele>
        <time>2024-10-13T08:35:15Z</time>
      </trkpt>
      <trkpt lat="49.23769" lon="0.28647">
        <ele>68.2</ele>
        <time>2024-10-13T08:35:16Z</time>
      </trkpt>
      <trkpt lat="49.23774" lon="0.28639">
        <ele>68.4</ele>
        <time>2024-10-13T08:35:17Z</time>
      </trkpt>
      <trkpt lat="49.23779" lon="0.2863">
        <ele>68.6</ele>
        <time>2024-10-13T08:35:18Z</time>
      </trkpt>
      <trkpt lat="49.23784" lon="0.28621">
        <ele>68.8</ele>
        <time>2024-10-13T08:35:19Z</time>
      </trkpt>
      <trkpt lat="49.23789" lon="0.28612">
        <ele>69.2</ele>
        <time>2024-10-13T08:35:20Z</time>
      </trkpt>
      <trkpt lat="49.23793" lon="0.28603">
        <ele>69.4</ele>
        <time>2024-10-13T08:35:21Z</time>
      </trkpt>
      <trkpt lat="49.23798" lon="0.28594">
        <ele>69.6</ele>
        <time>2024-10-13T08:35:22Z</time>
      </trkpt>
      <trkpt lat="49.23803" lon="0.28584">
        <ele>70</ele>
        <time>2024-10-13T08:35:23Z</time>
      </trkpt>
      <trkpt lat="49.23808" lon="0.28574">
        <ele>70.4</ele>
        <time>2024-10-13T08:35:24Z</time>
      </trkpt>
      <trkpt lat="49.23813" lon="0.28564">
        <ele>70.6</ele>
        <time>2024-10-13T08:35:25Z</time>
      </trkpt>
      <trkpt lat="49.23818" lon="0.28554">
        <ele>70.8</ele>
        <time>2024-10-13T08:35:26Z</time>
      </trkpt>
      <trkpt lat="49.23823" lon="0.28543">
        <ele>70.8</ele>
        <time>2024-10-13T08:35:27Z</time>
      </trkpt>
      <trkpt lat="49.23829" lon="0.28533">
        <ele>70.8</ele>
        <time>2024-10-13T08:35:28Z</time>
      </trkpt>
      <trkpt lat="49.23834" lon="0.28522">
        <ele>70.8</ele>
        <time>2024-10-13T08:35:29Z</time>
      </trkpt>
      <trkpt lat="49.2384" lon="0.28511">
        <ele>70.8</ele>
        <time>2024-10-13T08:35:30Z</time>
      </trkpt>
      <trkpt lat="49.23846" lon="0.28499">
        <ele>70.8</ele>
        <time>2024-10-13T08:35:31Z</time>
      </trkpt>
      <trkpt lat="49.23851" lon="0.28486">
        <ele>70.8</ele>
        <time>2024-10-13T08:35:32Z</time>
      </trkpt>
      <trkpt lat="49.23857" lon="0.28474">
        <ele>70.8</ele>
        <time>2024-10-13T08:35:33Z</time>
      </trkpt>
      <trkpt lat="49.23863" lon="0.28462">
        <ele>70.8</ele>
        <time>2024-10-13T08:35:34Z</time>
      </trkpt>
      <trkpt lat="49.2387" lon="0.2845">
        <ele>70.8</ele>
        <time>2024-10-13T08:35:35Z</time>
      </trkpt>
      <trkpt lat="49.23877" lon="0.28438">
        <ele>70.8</ele>
        <time>2024-10-13T08:35:36Z</time>
      </trkpt>
      <trkpt lat="49.23884" lon="0.28426">
        <ele>70.6</ele>
        <time>2024-10-13T08:35:37Z</time>
      </trkpt>
      <trkpt lat="49.2389" lon="0.28413">
        <ele>70.4</ele>
        <time>2024-10-13T08:35:38Z</time>
      </trkpt>
      <trkpt lat="49.23897" lon="0.284">
        <ele>70.2</ele>
        <time>2024-10-13T08:35:39Z</time>
      </trkpt>
      <trkpt lat="49.23904" lon="0.28388">
        <ele>69.4</ele>
        <time>2024-10-13T08:35:40Z</time>
      </trkpt>
      <trkpt lat="49.23912" lon="0.28376">
        <ele>69</ele>
        <time>2024-10-13T08:35:41Z</time>
      </trkpt>
      <trkpt lat="49.23919" lon="0.28364">
        <ele>68.4</ele>
        <time>2024-10-13T08:35:42Z</time>
      </trkpt>
      <trkpt lat="49.23927" lon="0.28351">
        <ele>67.8</ele>
        <time>2024-10-13T08:35:43Z</time>
      </trkpt>
      <trkpt lat="49.23935" lon="0.28339">
        <ele>67.4</ele>
        <time>2024-10-13T08:35:44Z</time>
      </trkpt>
      <trkpt lat="49.23942" lon="0.28327">
        <ele>66.8</ele>
        <time>2024-10-13T08:35:45Z</time>
      </trkpt>
      <trkpt lat="49.2395" lon="0.28315">
        <ele>66.2</ele>
        <time>2024-10-13T08:35:46Z</time>
      </trkpt>
      <trkpt lat="49.23957" lon="0.28302">
        <ele>65.8</ele>
        <time>2024-10-13T08:35:47Z</time>
      </trkpt>
      <trkpt lat="49.23964" lon="0.2829">
        <ele>65.4</ele>
        <time>2024-10-13T08:35:48Z</time>
      </trkpt>
      <trkpt lat="49.2397" lon="0.28277">
        <ele>64.6</ele>
        <time>2024-10-13T08:35:49Z</time>
      </trkpt>
      <trkpt lat="49.23977" lon="0.28265">
        <ele>64.4</ele>
        <time>2024-10-13T08:35:50Z</time>
      </trkpt>
      <trkpt lat="49.23983" lon="0.28253">
        <ele>63.6</ele>
        <time>2024-10-13T08:35:51Z</time>
      </trkpt>
      <trkpt lat="49.23989" lon="0.28241">
        <ele>63.2</ele>
        <time>2024-10-13T08:35:52Z</time>
      </trkpt>
      <trkpt lat="49.23995" lon="0.28229">
        <ele>63</ele>
        <time>2024-10-13T08:35:53Z</time>
      </trkpt>
      <trkpt lat="49.24001" lon="0.28218">
        <ele>62.8</ele>
        <time>2024-10-13T08:35:54Z</time>
      </trkpt>
      <trkpt lat="49.24007" lon="0.28206">
        <ele>62.6</ele>
        <time>2024-10-13T08:35:55Z</time>
      </trkpt>
      <trkpt lat="49.24013" lon="0.28194">
        <ele>62.4</ele>
        <time>2024-10-13T08:35:56Z</time>
      </trkpt>
      <trkpt lat="49.24018" lon="0.28182">
        <ele>62.2</ele>
        <time>2024-10-13T08:35:57Z</time>
      </trkpt>
      <trkpt lat="49.24024" lon="0.28171">
        <ele>62</ele>
        <time>2024-10-13T08:35:58Z</time>
      </trkpt>
      <trkpt lat="49.2403" lon="0.28158">
        <ele>62</ele>
        <time>2024-10-13T08:35:59Z</time>
      </trkpt>
      <trkpt lat="49.24036" lon="0.28147">
        <ele>61.8</ele>
        <time>2024-10-13T08:36:00Z</time>
      </trkpt>
      <trkpt lat="49.24042" lon="0.28134">
        <ele>61.8</ele>
        <time>2024-10-13T08:36:01Z</time>
      </trkpt>
      <trkpt lat="49.24048" lon="0.28122">
        <ele>61.8</ele>
        <time>2024-10-13T08:36:02Z</time>
      </trkpt>
      <trkpt lat="49.24054" lon="0.2811">
        <ele>61.6</ele>
        <time>2024-10-13T08:36:03Z</time>
      </trkpt>
      <trkpt lat="49.24059" lon="0.28098">
        <ele>61.4</ele>
        <time>2024-10-13T08:36:04Z</time>
      </trkpt>
      <trkpt lat="49.24065" lon="0.28086">
        <ele>61.2</ele>
        <time>2024-10-13T08:36:05Z</time>
      </trkpt>
      <trkpt lat="49.24071" lon="0.28073">
        <ele>61.2</ele>
        <time>2024-10-13T08:36:06Z</time>
      </trkpt>
      <trkpt lat="49.24077" lon="0.28061">
        <ele>61.2</ele>
        <time>2024-10-13T08:36:07Z</time>
      </trkpt>
      <trkpt lat="49.24082" lon="0.28048">
        <ele>61</ele>
        <time>2024-10-13T08:36:08Z</time>
      </trkpt>
      <trkpt lat="49.24088" lon="0.28034">
        <ele>61</ele>
        <time>2024-10-13T08:36:09Z</time>
      </trkpt>
      <trkpt lat="49.24093" lon="0.28021">
        <ele>60.8</ele>
        <time>2024-10-13T08:36:10Z</time>
      </trkpt>
      <trkpt lat="49.24098" lon="0.28008">
        <ele>60.8</ele>
        <time>2024-10-13T08:36:11Z</time>
      </trkpt>
      <trkpt lat="49.24103" lon="0.27994">
        <ele>60.6</ele>
        <time>2024-10-13T08:36:12Z</time>
      </trkpt>
      <trkpt lat="49.24109" lon="0.27981">
        <ele>60.6</ele>
        <time>2024-10-13T08:36:13Z</time>
      </trkpt>
      <trkpt lat="49.24114" lon="0.27967">
        <ele>60.6</ele>
        <time>2024-10-13T08:36:14Z</time>
      </trkpt>
      <trkpt lat="49.24119" lon="0.27954">
        <ele>60.6</ele>
        <time>2024-10-13T08:36:15Z</time>
      </trkpt>
      <trkpt lat="49.24125" lon="0.2794">
        <ele>60.6</ele>
        <time>2024-10-13T08:36:16Z</time>
      </trkpt>
      <trkpt lat="49.2413" lon="0.27927">
        <ele>60.4</ele>
        <time>2024-10-13T08:36:17Z</time>
      </trkpt>
      <trkpt lat="49.24136" lon="0.27914">
        <ele>60.4</ele>
        <time>2024-10-13T08:36:18Z</time>
      </trkpt>
      <trkpt lat="49.24141" lon="0.27901">
        <ele>60.4</ele>
        <time>2024-10-13T08:36:19Z</time>
      </trkpt>
      <trkpt lat="49.24147" lon="0.27887">
        <ele>60.4</ele>
        <time>2024-10-13T08:36:20Z</time>
      </trkpt>
      <trkpt lat="49.24152" lon="0.27874">
        <ele>60.2</ele>
        <time>2024-10-13T08:36:21Z</time>
      </trkpt>
      <trkpt lat="49.24158" lon="0.2786">
        <ele>59.8</ele>
        <time>2024-10-13T08:36:22Z</time>
      </trkpt>
      <trkpt lat="49.24163" lon="0.27846">
        <ele>59.6</ele>
        <time>2024-10-13T08:36:23Z</time>
      </trkpt>
      <trkpt lat="49.24169" lon="0.27833">
        <ele>59.4</ele>
        <time>2024-10-13T08:36:24Z</time>
      </trkpt>
      <trkpt lat="49.24174" lon="0.27819">
        <ele>58.8</ele>
        <time>2024-10-13T08:36:25Z</time>
      </trkpt>
      <trkpt lat="49.2418" lon="0.27806">
        <ele>58.6</ele>
        <time>2024-10-13T08:36:26Z</time>
      </trkpt>
      <trkpt lat="49.24186" lon="0.27792">
        <ele>58.6</ele>
        <time>2024-10-13T08:36:27Z</time>
      </trkpt>
      <trkpt lat="49.24192" lon="0.27779">
        <ele>58.4</ele>
        <time>2024-10-13T08:36:28Z</time>
      </trkpt>
      <trkpt lat="49.24198" lon="0.27767">
        <ele>58.4</ele>
        <time>2024-10-13T08:36:29Z</time>
      </trkpt>
      <trkpt lat="49.24204" lon="0.27754">
        <ele>58.2</ele>
        <time>2024-10-13T08:36:30Z</time>
      </trkpt>
      <trkpt lat="49.24209" lon="0.27742">
        <ele>58.2</ele>
        <time>2024-10-13T08:36:31Z</time>
      </trkpt>
      <trkpt lat="49.24215" lon="0.2773">
        <ele>57.8</ele>
        <time>2024-10-13T08:36:32Z</time>
      </trkpt>
      <trkpt lat="49.24221" lon="0.27718">
        <ele>57.8</ele>
        <time>2024-10-13T08:36:33Z</time>
      </trkpt>
      <trkpt lat="49.24227" lon="0.27706">
        <ele>57.4</ele>
        <time>2024-10-13T08:36:34Z</time>
      </trkpt>
      <trkpt lat="49.24234" lon="0.27695">
        <ele>57.2</ele>
        <time>2024-10-13T08:36:35Z</time>
      </trkpt>
      <trkpt lat="49.2424" lon="0.27684">
        <ele>57.2</ele>
        <time>2024-10-13T08:36:36Z</time>
      </trkpt>
      <trkpt lat="49.24246" lon="0.27673">
        <ele>57</ele>
        <time>2024-10-13T08:36:37Z</time>
      </trkpt>
      <trkpt lat="49.24252" lon="0.27662">
        <ele>56.8</ele>
        <time>2024-10-13T08:36:38Z</time>
      </trkpt>
      <trkpt lat="49.24258" lon="0.2765">
        <ele>56.4</ele>
        <time>2024-10-13T08:36:39Z</time>
      </trkpt>
      <trkpt lat="49.24263" lon="0.27638">
        <ele>56.2</ele>
        <time>2024-10-13T08:36:40Z</time>
      </trkpt>
      <trkpt lat="49.24268" lon="0.27626">
        <ele>56</ele>
        <time>2024-10-13T08:36:41Z</time>
      </trkpt>
      <trkpt lat="49.24274" lon="0.27613">
        <ele>55.8</ele>
        <time>2024-10-13T08:36:42Z</time>
      </trkpt>
      <trkpt lat="49.24279" lon="0.276">
        <ele>55.2</ele>
        <time>2024-10-13T08:36:43Z</time>
      </trkpt>
      <trkpt lat="49.24284" lon="0.27587">
        <ele>54.6</ele>
        <time>2024-10-13T08:36:44Z</time>
      </trkpt>
      <trkpt lat="49.24288" lon="0.27573">
        <ele>54</ele>
        <time>2024-10-13T08:36:45Z</time>
      </trkpt>
      <trkpt lat="49.24293" lon="0.2756">
        <ele>53.2</ele>
        <time>2024-10-13T08:36:46Z</time>
      </trkpt>
      <trkpt lat="49.24297" lon="0.27547">
        <ele>52.6</ele>
        <time>2024-10-13T08:36:47Z</time>
      </trkpt>
      <trkpt lat="49.24301" lon="0.27535">
        <ele>52.4</ele>
        <time>2024-10-13T08:36:48Z</time>
      </trkpt>
      <trkpt lat="49.24304" lon="0.27523">
        <ele>52</ele>
        <time>2024-10-13T08:36:49Z</time>
      </trkpt>
      <trkpt lat="49.24307" lon="0.27512">
        <ele>51.8</ele>
        <time>2024-10-13T08:36:50Z</time>
      </trkpt>
      <trkpt lat="49.2431" lon="0.27501">
        <ele>51.2</ele>
        <time>2024-10-13T08:36:51Z</time>
      </trkpt>
      <trkpt lat="49.24313" lon="0.27492">
        <ele>50.8</ele>
        <time>2024-10-13T08:36:52Z</time>
      </trkpt>
      <trkpt lat="49.24316" lon="0.27483">
        <ele>50.4</ele>
        <time>2024-10-13T08:36:53Z</time>
      </trkpt>
      <trkpt lat="49.2432" lon="0.27473">
        <ele>50</ele>
        <time>2024-10-13T08:36:54Z</time>
      </trkpt>
      <trkpt lat="49.24323" lon="0.27463">
        <ele>49.2</ele>
        <time>2024-10-13T08:36:55Z</time>
      </trkpt>
      <trkpt lat="49.24327" lon="0.27453">
        <ele>48.8</ele>
        <time>2024-10-13T08:36:56Z</time>
      </trkpt>
      <trkpt lat="49.2433" lon="0.27443">
        <ele>48.6</ele>
        <time>2024-10-13T08:36:57Z</time>
      </trkpt>
      <trkpt lat="49.24333" lon="0.27433">
        <ele>48.4</ele>
        <time>2024-10-13T08:36:58Z</time>
      </trkpt>
      <trkpt lat="49.24337" lon="0.27422">
        <ele>48</ele>
        <time>2024-10-13T08:36:59Z</time>
      </trkpt>
      <trkpt lat="49.2434" lon="0.27412">
        <ele>47.8</ele>
        <time>2024-10-13T08:37:00Z</time>
      </trkpt>
      <trkpt lat="49.24343" lon="0.27403">
        <ele>47.6</ele>
        <time>2024-10-13T08:37:01Z</time>
      </trkpt>
      <trkpt lat="49.24346" lon="0.27394">
        <ele>47.4</ele>
        <time>2024-10-13T08:37:02Z</time>
      </trkpt>
      <trkpt lat="49.24349" lon="0.27385">
        <ele>47.2</ele>
        <time>2024-10-13T08:37:03Z</time>
      </trkpt>
      <trkpt lat="49.24352" lon="0.27377">
        <ele>47</ele>
        <time>2024-10-13T08:37:04Z</time>
      </trkpt>
      <trkpt lat="49.24355" lon="0.27369">
        <ele>47</ele>
        <time>2024-10-13T08:37:05Z</time>
      </trkpt>
      <trkpt lat="49.24357" lon="0.27361">
        <ele>47</ele>
        <time>2024-10-13T08:37:06Z</time>
      </trkpt>
      <trkpt lat="49.24359" lon="0.27353">
        <ele>46.8</ele>
        <time>2024-10-13T08:37:07Z</time>
      </trkpt>
      <trkpt lat="49.24361" lon="0.27346">
        <ele>46.6</ele>
        <time>2024-10-13T08:37:08Z</time>
      </trkpt>
      <trkpt lat="49.24363" lon="0.2734">
        <ele>46.6</ele>
        <time>2024-10-13T08:37:09Z</time>
      </trkpt>
      <trkpt lat="49.24364" lon="0.27336">
        <ele>46.4</ele>
        <time>2024-10-13T08:37:10Z</time>
      </trkpt>
      <trkpt lat="49.24365" lon="0.27333">
        <ele>46.4</ele>
        <time>2024-10-13T08:37:11Z</time>
      </trkpt>
      <trkpt lat="49.24366" lon="0.2733">
        <ele>46.4</ele>
        <time>2024-10-13T08:37:12Z</time>
      </trkpt>
      <trkpt lat="49.24367" lon="0.27327">
        <ele>46.4</ele>
        <time>2024-10-13T08:37:13Z</time>
      </trkpt>
      <trkpt lat="49.24368" lon="0.27325">
        <ele>46.4</ele>
        <time>2024-10-13T08:37:14Z</time>
      </trkpt>
      <trkpt lat="49.24369" lon="0.27323">
        <ele>46.4</ele>
        <time>2024-10-13T08:37:15Z</time>
      </trkpt>
      <trkpt lat="49.2437" lon="0.27322">
        <ele>46.4</ele>
        <time>2024-10-13T08:37:16Z</time>
      </trkpt>
      <trkpt lat="49.24372" lon="0.27321">
        <ele>46.4</ele>
        <time>2024-10-13T08:37:17Z</time>
      </trkpt>
      <trkpt lat="49.24372" lon="0.2732">
        <ele>46.6</ele>
        <time>2024-10-13T08:37:18Z</time>
      </trkpt>
      <trkpt lat="49.24372" lon="0.2732">
        <ele>46.6</ele>
        <time>2024-10-13T08:37:19Z</time>
      </trkpt>
      <trkpt lat="49.24375" lon="0.27312">
        <ele>46.4</ele>
        <time>2024-10-13T08:39:15Z</time>
      </trkpt>
      <trkpt lat="49.24377" lon="0.27311">
        <ele>46.4</ele>
        <time>2024-10-13T08:39:16Z</time>
      </trkpt>
      <trkpt lat="49.24378" lon="0.2731">
        <ele>46.4</ele>
        <time>2024-10-13T08:39:17Z</time>
      </trkpt>
      <trkpt lat="49.2438" lon="0.27311">
        <ele>46.4</ele>
        <time>2024-10-13T08:39:18Z</time>
      </trkpt>
      <trkpt lat="49.24382" lon="0.27312">
        <ele>46.4</ele>
        <time>2024-10-13T08:39:19Z</time>
      </trkpt>
      <trkpt lat="49.24383" lon="0.27316">
        <ele>46.4</ele>
        <time>2024-10-13T08:39:20Z</time>
      </trkpt>
      <trkpt lat="49.24385" lon="0.2732">
        <ele>46.4</ele>
        <time>2024-10-13T08:39:21Z</time>
      </trkpt>
      <trkpt lat="49.24387" lon="0.27325">
        <ele>46.4</ele>
        <time>2024-10-13T08:39:22Z</time>
      </trkpt>
      <trkpt lat="49.2439" lon="0.27329">
        <ele>46.4</ele>
        <time>2024-10-13T08:39:23Z</time>
      </trkpt>
      <trkpt lat="49.24392" lon="0.27334">
        <ele>46.4</ele>
        <time>2024-10-13T08:39:24Z</time>
      </trkpt>
      <trkpt lat="49.24396" lon="0.27338">
        <ele>46.4</ele>
        <time>2024-10-13T08:39:25Z</time>
      </trkpt>
      <trkpt lat="49.24399" lon="0.27342">
        <ele>46.4</ele>
        <time>2024-10-13T08:39:26Z</time>
      </trkpt>
      <trkpt lat="49.24402" lon="0.27345">
        <ele>46.2</ele>
        <time>2024-10-13T08:39:27Z</time>
      </trkpt>
      <trkpt lat="49.24406" lon="0.27348">
        <ele>46.2</ele>
        <time>2024-10-13T08:39:28Z</time>
      </trkpt>
      <trkpt lat="49.2441" lon="0.27351">
        <ele>46</ele>
        <time>2024-10-13T08:39:29Z</time>
      </trkpt>
      <trkpt lat="49.24414" lon="0.27354">
        <ele>46</ele>
        <time>2024-10-13T08:39:30Z</time>
      </trkpt>
      <trkpt lat="49.24418" lon="0.27357">
        <ele>45.8</ele>
        <time>2024-10-13T08:39:31Z</time>
      </trkpt>
      <trkpt lat="49.24422" lon="0.27361">
        <ele>45.8</ele>
        <time>2024-10-13T08:39:32Z</time>
      </trkpt>
      <trkpt lat="49.24426" lon="0.27364">
        <ele>45.4</ele>
        <time>2024-10-13T08:39:33Z</time>
      </trkpt>
      <trkpt lat="49.2443" lon="0.27367">
        <ele>45.2</ele>
        <time>2024-10-13T08:39:34Z</time>
      </trkpt>
      <trkpt lat="49.24434" lon="0.27371">
        <ele>45</ele>
        <time>2024-10-13T08:39:35Z</time>
      </trkpt>
      <trkpt lat="49.24438" lon="0.27374">
        <ele>45</ele>
        <time>2024-10-13T08:39:36Z</time>
      </trkpt>
      <trkpt lat="49.24443" lon="0.27378">
        <ele>44.8</ele>
        <time>2024-10-13T08:39:37Z</time>
      </trkpt>
      <trkpt lat="49.24448" lon="0.27382">
        <ele>44.6</ele>
        <time>2024-10-13T08:39:38Z</time>
      </trkpt>
      <trkpt lat="49.24452" lon="0.27387">
        <ele>44.4</ele>
        <time>2024-10-13T08:39:39Z</time>
      </trkpt>
      <trkpt lat="49.24457" lon="0.27392">
        <ele>44.4</ele>
        <time>2024-10-13T08:39:40Z</time>
      </trkpt>
      <trkpt lat="49.24461" lon="0.27398">
        <ele>44.2</ele>
        <time>2024-10-13T08:39:41Z</time>
      </trkpt>
      <trkpt lat="49.24464" lon="0.27404">
        <ele>44</ele>
        <time>2024-10-13T08:39:42Z</time>
      </trkpt>
      <trkpt lat="49.24467" lon="0.2741">
        <ele>43.6</ele>
        <time>2024-10-13T08:39:43Z</time>
      </trkpt>
      <trkpt lat="49.24469" lon="0.27415">
        <ele>43.2</ele>
        <time>2024-10-13T08:39:44Z</time>
      </trkpt>
      <trkpt lat="49.24471" lon="0.27419">
        <ele>43</ele>
        <time>2024-10-13T08:39:45Z</time>
      </trkpt>
      <trkpt lat="49.24474" lon="0.27422">
        <ele>42.6</ele>
        <time>2024-10-13T08:39:46Z</time>
      </trkpt>
      <trkpt lat="49.24477" lon="0.27424">
        <ele>42.4</ele>
        <time>2024-10-13T08:39:47Z</time>
      </trkpt>
      <trkpt lat="49.2448" lon="0.27426">
        <ele>42.2</ele>
        <time>2024-10-13T08:39:48Z</time>
      </trkpt>
      <trkpt lat="49.24484" lon="0.27426">
        <ele>41.8</ele>
        <time>2024-10-13T08:39:49Z</time>
      </trkpt>
      <trkpt lat="49.24488" lon="0.27426">
        <ele>41.8</ele>
        <time>2024-10-13T08:39:50Z</time>
      </trkpt>
      <trkpt lat="49.24492" lon="0.27426">
        <ele>41.6</ele>
        <time>2024-10-13T08:39:51Z</time>
      </trkpt>
      <trkpt lat="49.24497" lon="0.27425">
        <ele>41.4</ele>
        <time>2024-10-13T08:39:52Z</time>
      </trkpt>
      <trkpt lat="49.24503" lon="0.27424">
        <ele>41.2</ele>
        <time>2024-10-13T08:39:53Z</time>
      </trkpt>
      <trkpt lat="49.24508" lon="0.27423">
        <ele>41</ele>
        <time>2024-10-13T08:39:54Z</time>
      </trkpt>
      <trkpt lat="49.24513" lon="0.27422">
        <ele>41</ele>
        <time>2024-10-13T08:39:55Z</time>
      </trkpt>
      <trkpt lat="49.24518" lon="0.27421">
        <ele>40.8</ele>
        <time>2024-10-13T08:39:56Z</time>
      </trkpt>
      <trkpt lat="49.24522" lon="0.27419">
        <ele>40.6</ele>
        <time>2024-10-13T08:39:57Z</time>
      </trkpt>
      <trkpt lat="49.24527" lon="0.27417">
        <ele>40.6</ele>
        <time>2024-10-13T08:39:58Z</time>
      </trkpt>
      <trkpt lat="49.24531" lon="0.27415">
        <ele>40.2</ele>
        <time>2024-10-13T08:39:59Z</time>
      </trkpt>
      <trkpt lat="49.24535" lon="0.27413">
        <ele>40</ele>
        <time>2024-10-13T08:40:00Z</time>
      </trkpt>
      <trkpt lat="49.2454" lon="0.27411">
        <ele>40</ele>
        <time>2024-10-13T08:40:01Z</time>
      </trkpt>
      <trkpt lat="49.24544" lon="0.2741">
        <ele>39.8</ele>
        <time>2024-10-13T08:40:02Z</time>
      </trkpt>
      <trkpt lat="49.24549" lon="0.2741">
        <ele>39.6</ele>
        <time>2024-10-13T08:40:03Z</time>
      </trkpt>
      <trkpt lat="49.24555" lon="0.2741">
        <ele>39.6</ele>
        <time>2024-10-13T08:40:04Z</time>
      </trkpt>
      <trkpt lat="49.2456" lon="0.27409">
        <ele>39.6</ele>
        <time>2024-10-13T08:40:05Z</time>
      </trkpt>
      <trkpt lat="49.24566" lon="0.27409">
        <ele>39.4</ele>
        <time>2024-10-13T08:40:06Z</time>
      </trkpt>
      <trkpt lat="49.24572" lon="0.27408">
        <ele>39.4</ele>
        <time>2024-10-13T08:40:07Z</time>
      </trkpt>
      <trkpt lat="49.24578" lon="0.27406">
        <ele>39.4</ele>
        <time>2024-10-13T08:40:08Z</time>
      </trkpt>
      <trkpt lat="49.24583" lon="0.27405">
        <ele>39.2</ele>
        <time>2024-10-13T08:40:09Z</time>
      </trkpt>
      <trkpt lat="49.24589" lon="0.27404">
        <ele>39.2</ele>
        <time>2024-10-13T08:40:10Z</time>
      </trkpt>
      <trkpt lat="49.24595" lon="0.27402">
        <ele>39.2</ele>
        <time>2024-10-13T08:40:11Z</time>
      </trkpt>
      <trkpt lat="49.24601" lon="0.274">
        <ele>39.2</ele>
        <time>2024-10-13T08:40:12Z</time>
      </trkpt>
      <trkpt lat="49.24607" lon="0.27399">
        <ele>39</ele>
        <time>2024-10-13T08:40:13Z</time>
      </trkpt>
      <trkpt lat="49.24613" lon="0.27398">
        <ele>39</ele>
        <time>2024-10-13T08:40:14Z</time>
      </trkpt>
      <trkpt lat="49.24619" lon="0.27397">
        <ele>39</ele>
        <time>2024-10-13T08:40:15Z</time>
      </trkpt>
      <trkpt lat="49.24625" lon="0.27397">
        <ele>39</ele>
        <time>2024-10-13T08:40:16Z</time>
      </trkpt>
      <trkpt lat="49.24631" lon="0.27395">
        <ele>39</ele>
        <time>2024-10-13T08:40:17Z</time>
      </trkpt>
      <trkpt lat="49.24637" lon="0.27394">
        <ele>38.8</ele>
        <time>2024-10-13T08:40:18Z</time>
      </trkpt>
      <trkpt lat="49.24644" lon="0.27393">
        <ele>38.8</ele>
        <time>2024-10-13T08:40:19Z</time>
      </trkpt>
      <trkpt lat="49.2465" lon="0.27392">
        <ele>38.8</ele>
        <time>2024-10-13T08:40:20Z</time>
      </trkpt>
      <trkpt lat="49.24656" lon="0.27391">
        <ele>38.8</ele>
        <time>2024-10-13T08:40:21Z</time>
      </trkpt>
      <trkpt lat="49.24661" lon="0.27389">
        <ele>38.8</ele>
        <time>2024-10-13T08:40:22Z</time>
      </trkpt>
      <trkpt lat="49.24667" lon="0.27388">
        <ele>38.8</ele>
        <time>2024-10-13T08:40:23Z</time>
      </trkpt>
      <trkpt lat="49.24673" lon="0.27387">
        <ele>38.8</ele>
        <time>2024-10-13T08:40:24Z</time>
      </trkpt>
      <trkpt lat="49.24678" lon="0.27386">
        <ele>38.8</ele>
        <time>2024-10-13T08:40:25Z</time>
      </trkpt>
      <trkpt lat="49.24683" lon="0.27385">
        <ele>38.8</ele>
        <time>2024-10-13T08:40:26Z</time>
      </trkpt>
      <trkpt lat="49.24688" lon="0.27384">
        <ele>38.8</ele>
        <time>2024-10-13T08:40:27Z</time>
      </trkpt>
      <trkpt lat="49.24693" lon="0.27383">
        <ele>38.8</ele>
        <time>2024-10-13T08:40:28Z</time>
      </trkpt>
      <trkpt lat="49.24697" lon="0.27382">
        <ele>39</ele>
        <time>2024-10-13T08:40:29Z</time>
      </trkpt>
      <trkpt lat="49.24701" lon="0.2738">
        <ele>39</ele>
        <time>2024-10-13T08:40:30Z</time>
      </trkpt>
      <trkpt lat="49.24706" lon="0.27378">
        <ele>39.2</ele>
        <time>2024-10-13T08:40:31Z</time>
      </trkpt>
      <trkpt lat="49.2471" lon="0.27378">
        <ele>39.4</ele>
        <time>2024-10-13T08:40:32Z</time>
      </trkpt>
      <trkpt lat="49.24714" lon="0.27377">
        <ele>39.8</ele>
        <time>2024-10-13T08:40:33Z</time>
      </trkpt>
      <trkpt lat="49.24719" lon="0.27377">
        <ele>40.2</ele>
        <time>2024-10-13T08:40:34Z</time>
      </trkpt>
      <trkpt lat="49.24723" lon="0.27376">
        <ele>40.4</ele>
        <time>2024-10-13T08:40:35Z</time>
      </trkpt>
      <trkpt lat="49.24727" lon="0.27375">
        <ele>41</ele>
        <time>2024-10-13T08:40:36Z</time>
      </trkpt>
      <trkpt lat="49.24731" lon="0.27373">
        <ele>41.2</ele>
        <time>2024-10-13T08:40:37Z</time>
      </trkpt>
      <trkpt lat="49.24735" lon="0.27372">
        <ele>41.6</ele>
        <time>2024-10-13T08:40:38Z</time>
      </trkpt>
      <trkpt lat="49.24739" lon="0.2737">
        <ele>42</ele>
        <time>2024-10-13T08:40:39Z</time>
      </trkpt>
      <trkpt lat="49.24743" lon="0.27369">
        <ele>42.2</ele>
        <time>2024-10-13T08:40:40Z</time>
      </trkpt>
      <trkpt lat="49.24746" lon="0.27367">
        <ele>42.6</ele>
        <time>2024-10-13T08:40:41Z</time>
      </trkpt>
      <trkpt lat="49.2475" lon="0.27365">
        <ele>43</ele>
        <time>2024-10-13T08:40:42Z</time>
      </trkpt>
      <trkpt lat="49.24753" lon="0.27363">
        <ele>43.4</ele>
        <time>2024-10-13T08:40:43Z</time>
      </trkpt>
      <trkpt lat="49.24756" lon="0.27361">
        <ele>43.8</ele>
        <time>2024-10-13T08:40:44Z</time>
      </trkpt>
      <trkpt lat="49.24759" lon="0.27359">
        <ele>44.2</ele>
        <time>2024-10-13T08:40:45Z</time>
      </trkpt>
      <trkpt lat="49.24762" lon="0.27356">
        <ele>44.4</ele>
        <time>2024-10-13T08:40:46Z</time>
      </trkpt>
      <trkpt lat="49.24765" lon="0.27354">
        <ele>44.8</ele>
        <time>2024-10-13T08:40:47Z</time>
      </trkpt>
      <trkpt lat="49.24767" lon="0.27351">
        <ele>45.2</ele>
        <time>2024-10-13T08:40:48Z</time>
      </trkpt>
      <trkpt lat="49.2477" lon="0.27349">
        <ele>45.6</ele>
        <time>2024-10-13T08:40:49Z</time>
      </trkpt>
      <trkpt lat="49.24772" lon="0.27347">
        <ele>46.2</ele>
        <time>2024-10-13T08:40:50Z</time>
      </trkpt>
      <trkpt lat="49.24775" lon="0.27344">
        <ele>46.6</ele>
        <time>2024-10-13T08:40:51Z</time>
      </trkpt>
      <trkpt lat="49.24777" lon="0.27342">
        <ele>47</ele>
        <time>2024-10-13T08:40:52Z</time>
      </trkpt>
      <trkpt lat="49.2478" lon="0.27339">
        <ele>47.2</ele>
        <time>2024-10-13T08:40:53Z</time>
      </trkpt>
      <trkpt lat="49.24782" lon="0.27336">
        <ele>47.6</ele>
        <time>2024-10-13T08:40:54Z</time>
      </trkpt>
      <trkpt lat="49.24786" lon="0.27333">
        <ele>47.8</ele>
        <time>2024-10-13T08:40:55Z</time>
      </trkpt>
      <trkpt lat="49.2479" lon="0.2733">
        <ele>48.2</ele>
        <time>2024-10-13T08:40:56Z</time>
      </trkpt>
      <trkpt lat="49.24793" lon="0.27328">
        <ele>48.4</ele>
        <time>2024-10-13T08:40:57Z</time>
      </trkpt>
      <trkpt lat="49.24797" lon="0.27325">
        <ele>48.8</ele>
        <time>2024-10-13T08:40:58Z</time>
      </trkpt>
      <trkpt lat="49.248" lon="0.27323">
        <ele>49.2</ele>
        <time>2024-10-13T08:40:59Z</time>
      </trkpt>
      <trkpt lat="49.24803" lon="0.2732">
        <ele>49.4</ele>
        <time>2024-10-13T08:41:00Z</time>
      </trkpt>
      <trkpt lat="49.24806" lon="0.27318">
        <ele>49.8</ele>
        <time>2024-10-13T08:41:01Z</time>
      </trkpt>
      <trkpt lat="49.24808" lon="0.27317">
        <ele>50.2</ele>
        <time>2024-10-13T08:41:02Z</time>
      </trkpt>
      <trkpt lat="49.24811" lon="0.27315">
        <ele>50.4</ele>
        <time>2024-10-13T08:41:03Z</time>
      </trkpt>
      <trkpt lat="49.24814" lon="0.27313">
        <ele>50.6</ele>
        <time>2024-10-13T08:41:04Z</time>
      </trkpt>
      <trkpt lat="49.24816" lon="0.27311">
        <ele>51</ele>
        <time>2024-10-13T08:41:05Z</time>
      </trkpt>
      <trkpt lat="49.24819" lon="0.27309">
        <ele>51.2</ele>
        <time>2024-10-13T08:41:06Z</time>
      </trkpt>
      <trkpt lat="49.24821" lon="0.27307">
        <ele>51.6</ele>
        <time>2024-10-13T08:41:07Z</time>
      </trkpt>
      <trkpt lat="49.24824" lon="0.27304">
        <ele>51.6</ele>
        <time>2024-10-13T08:41:08Z</time>
      </trkpt>
      <trkpt lat="49.24826" lon="0.27302">
        <ele>52</ele>
        <time>2024-10-13T08:41:09Z</time>
      </trkpt>
      <trkpt lat="49.24829" lon="0.27299">
        <ele>52.4</ele>
        <time>2024-10-13T08:41:10Z</time>
      </trkpt>
      <trkpt lat="49.24832" lon="0.27297">
        <ele>52.6</ele>
        <time>2024-10-13T08:41:11Z</time>
      </trkpt>
      <trkpt lat="49.24834" lon="0.27295">
        <ele>53</ele>
        <time>2024-10-13T08:41:12Z</time>
      </trkpt>
      <trkpt lat="49.24837" lon="0.27293">
        <ele>53.2</ele>
        <time>2024-10-13T08:41:13Z</time>
      </trkpt>
      <trkpt lat="49.2484" lon="0.27291">
        <ele>53.4</ele>
        <time>2024-10-13T08:41:14Z</time>
      </trkpt>
      <trkpt lat="49.24842" lon="0.27288">
        <ele>53.8</ele>
        <time>2024-10-13T08:41:15Z</time>
      </trkpt>
      <trkpt lat="49.24845" lon="0.27286">
        <ele>54</ele>
        <time>2024-10-13T08:41:16Z</time>
      </trkpt>
      <trkpt lat="49.24847" lon="0.27283">
        <ele>54.4</ele>
        <time>2024-10-13T08:41:17Z</time>
      </trkpt>
      <trkpt lat="49.24849" lon="0.27281">
        <ele>54.8</ele>
        <time>2024-10-13T08:41:18Z</time>
      </trkpt>
      <trkpt lat="49.24851" lon="0.27278">
        <ele>55</ele>
        <time>2024-10-13T08:41:19Z</time>
      </trkpt>
      <trkpt lat="49.24854" lon="0.27276">
        <ele>55.2</ele>
        <time>2024-10-13T08:41:20Z</time>
      </trkpt>
      <trkpt lat="49.24856" lon="0.27274">
        <ele>55.6</ele>
        <time>2024-10-13T08:41:21Z</time>
      </trkpt>
      <trkpt lat="49.24858" lon="0.27272">
        <ele>55.8</ele>
        <time>2024-10-13T08:41:22Z</time>
      </trkpt>
      <trkpt lat="49.24861" lon="0.2727">
        <ele>56</ele>
        <time>2024-10-13T08:41:23Z</time>
      </trkpt>
      <trkpt lat="49.24863" lon="0.27267">
        <ele>56.4</ele>
        <time>2024-10-13T08:41:24Z</time>
      </trkpt>
      <trkpt lat="49.24866" lon="0.27265">
        <ele>56.6</ele>
        <time>2024-10-13T08:41:25Z</time>
      </trkpt>
      <trkpt lat="49.24868" lon="0.27263">
        <ele>56.8</ele>
        <time>2024-10-13T08:41:26Z</time>
      </trkpt>
      <trkpt lat="49.2487" lon="0.27261">
        <ele>57.2</ele>
        <time>2024-10-13T08:41:27Z</time>
      </trkpt>
      <trkpt lat="49.24872" lon="0.27258">
        <ele>57.4</ele>
        <time>2024-10-13T08:41:28Z</time>
      </trkpt>
      <trkpt lat="49.24875" lon="0.27256">
        <ele>57.6</ele>
        <time>2024-10-13T08:41:29Z</time>
      </trkpt>
      <trkpt lat="49.24877" lon="0.27254">
        <ele>57.8</ele>
        <time>2024-10-13T08:41:30Z</time>
      </trkpt>
      <trkpt lat="49.2488" lon="0.27252">
        <ele>58</ele>
        <time>2024-10-13T08:41:31Z</time>
      </trkpt>
      <trkpt lat="49.24882" lon="0.2725">
        <ele>58.4</ele>
        <time>2024-10-13T08:41:32Z</time>
      </trkpt>
      <trkpt lat="49.24885" lon="0.27249">
        <ele>58.8</ele>
        <time>2024-10-13T08:41:33Z</time>
      </trkpt>
      <trkpt lat="49.24888" lon="0.27248">
        <ele>59.2</ele>
        <time>2024-10-13T08:41:34Z</time>
      </trkpt>
      <trkpt lat="49.2489" lon="0.27246">
        <ele>59.4</ele>
        <time>2024-10-13T08:41:35Z</time>
      </trkpt>
      <trkpt lat="49.24892" lon="0.27244">
        <ele>59.6</ele>
        <time>2024-10-13T08:41:36Z</time>
      </trkpt>
      <trkpt lat="49.24895" lon="0.27242">
        <ele>60</ele>
        <time>2024-10-13T08:41:37Z</time>
      </trkpt>
      <trkpt lat="49.24897" lon="0.2724">
        <ele>60.2</ele>
        <time>2024-10-13T08:41:38Z</time>
      </trkpt>
      <trkpt lat="49.249" lon="0.27238">
        <ele>60.6</ele>
        <time>2024-10-13T08:41:39Z</time>
      </trkpt>
      <trkpt lat="49.24903" lon="0.27237">
        <ele>60.8</ele>
        <time>2024-10-13T08:41:40Z</time>
      </trkpt>
      <trkpt lat="49.24905" lon="0.27236">
        <ele>61</ele>
        <time>2024-10-13T08:41:41Z</time>
      </trkpt>
      <trkpt lat="49.24908" lon="0.27235">
        <ele>61.4</ele>
        <time>2024-10-13T08:41:42Z</time>
      </trkpt>
      <trkpt lat="49.2491" lon="0.27234">
        <ele>61.6</ele>
        <time>2024-10-13T08:41:43Z</time>
      </trkpt>
      <trkpt lat="49.24912" lon="0.27233">
        <ele>61.8</ele>
        <time>2024-10-13T08:41:44Z</time>
      </trkpt>
      <trkpt lat="49.24915" lon="0.27232">
        <ele>62</ele>
        <time>2024-10-13T08:41:45Z</time>
      </trkpt>
      <trkpt lat="49.24917" lon="0.27231">
        <ele>62.4</ele>
        <time>2024-10-13T08:41:46Z</time>
      </trkpt>
      <trkpt lat="49.2492" lon="0.2723">
        <ele>62.6</ele>
        <time>2024-10-13T08:41:47Z</time>
      </trkpt>
      <trkpt lat="49.24922" lon="0.27229">
        <ele>63</ele>
        <time>2024-10-13T08:41:48Z</time>
      </trkpt>
      <trkpt lat="49.24924" lon="0.27228">
        <ele>63</ele>
        <time>2024-10-13T08:41:49Z</time>
      </trkpt>
      <trkpt lat="49.24927" lon="0.27227">
        <ele>63.4</ele>
        <time>2024-10-13T08:41:50Z</time>
      </trkpt>
      <trkpt lat="49.24929" lon="0.27226">
        <ele>63.6</ele>
        <time>2024-10-13T08:41:51Z</time>
      </trkpt>
      <trkpt lat="49.24932" lon="0.27225">
        <ele>63.8</ele>
        <time>2024-10-13T08:41:52Z</time>
      </trkpt>
      <trkpt lat="49.24934" lon="0.27225">
        <ele>64</ele>
        <time>2024-10-13T08:41:53Z</time>
      </trkpt>
      <trkpt lat="49.24937" lon="0.27224">
        <ele>64.4</ele>
        <time>2024-10-13T08:41:54Z</time>
      </trkpt>
      <trkpt lat="49.2494" lon="0.27224">
        <ele>64.6</ele>
        <time>2024-10-13T08:41:55Z</time>
      </trkpt>
      <trkpt lat="49.24942" lon="0.27223">
        <ele>65</ele>
        <time>2024-10-13T08:41:56Z</time>
      </trkpt>
      <trkpt lat="49.24945" lon="0.27223">
        <ele>65.2</ele>
        <time>2024-10-13T08:41:57Z</time>
      </trkpt>
      <trkpt lat="49.24948" lon="0.27222">
        <ele>65.4</ele>
        <time>2024-10-13T08:41:58Z</time>
      </trkpt>
      <trkpt lat="49.24951" lon="0.27222">
        <ele>65.6</ele>
        <time>2024-10-13T08:41:59Z</time>
      </trkpt>
      <trkpt lat="49.24954" lon="0.27221">
        <ele>65.8</ele>
        <time>2024-10-13T08:42:00Z</time>
      </trkpt>
      <trkpt lat="49.24956" lon="0.27221">
        <ele>66.2</ele>
        <time>2024-10-13T08:42:01Z</time>
      </trkpt>
      <trkpt lat="49.24959" lon="0.27221">
        <ele>66.4</ele>
        <time>2024-10-13T08:42:02Z</time>
      </trkpt>
      <trkpt lat="49.24962" lon="0.27222">
        <ele>66.4</ele>
        <time>2024-10-13T08:42:03Z</time>
      </trkpt>
      <trkpt lat="49.24964" lon="0.27222">
        <ele>66.6</ele>
        <time>2024-10-13T08:42:04Z</time>
      </trkpt>
      <trkpt lat="49.24967" lon="0.27222">
        <ele>66.8</ele>
        <time>2024-10-13T08:42:05Z</time>
      </trkpt>
      <trkpt lat="49.2497" lon="0.27222">
        <ele>67.2</ele>
        <time>2024-10-13T08:42:06Z</time>
      </trkpt>
      <trkpt lat="49.24973" lon="0.27222">
        <ele>67.4</ele>
        <time>2024-10-13T08:42:07Z</time>
      </trkpt>
      <trkpt lat="49.24977" lon="0.27223">
        <ele>67.8</ele>
        <time>2024-10-13T08:42:08Z</time>
      </trkpt>
      <trkpt lat="49.2498" lon="0.27223">
        <ele>68</ele>
        <time>2024-10-13T08:42:09Z</time>
      </trkpt>
      <trkpt lat="49.24984" lon="0.27223">
        <ele>68.4</ele>
        <time>2024-10-13T08:42:10Z</time>
      </trkpt>
      <trkpt lat="49.24987" lon="0.27224">
        <ele>68.6</ele>
        <time>2024-10-13T08:42:11Z</time>
      </trkpt>
      <trkpt lat="49.24991" lon="0.27224">
        <ele>68.8</ele>
        <time>2024-10-13T08:42:12Z</time>
      </trkpt>
      <trkpt lat="49.24994" lon="0.27225">
        <ele>68.8</ele>
        <time>2024-10-13T08:42:13Z</time>
      </trkpt>
      <trkpt lat="49.24997" lon="0.27225">
        <ele>69</ele>
        <time>2024-10-13T08:42:14Z</time>
      </trkpt>
      <trkpt lat="49.25001" lon="0.27225">
        <ele>69.4</ele>
        <time>2024-10-13T08:42:15Z</time>
      </trkpt>
      <trkpt lat="49.25005" lon="0.27225">
        <ele>69.6</ele>
        <time>2024-10-13T08:42:16Z</time>
      </trkpt>
      <trkpt lat="49.25008" lon="0.27225">
        <ele>69.8</ele>
        <time>2024-10-13T08:42:17Z</time>
      </trkpt>
      <trkpt lat="49.25012" lon="0.27225">
        <ele>69.8</ele>
        <time>2024-10-13T08:42:18Z</time>
      </trkpt>
      <trkpt lat="49.25015" lon="0.27225">
        <ele>70.2</ele>
        <time>2024-10-13T08:42:19Z</time>
      </trkpt>
      <trkpt lat="49.25019" lon="0.27225">
        <ele>70.4</ele>
        <time>2024-10-13T08:42:20Z</time>
      </trkpt>
      <trkpt lat="49.25023" lon="0.27225">
        <ele>70.6</ele>
        <time>2024-10-13T08:42:21Z</time>
      </trkpt>
      <trkpt lat="49.25026" lon="0.27224">
        <ele>70.6</ele>
        <time>2024-10-13T08:42:22Z</time>
      </trkpt>
      <trkpt lat="49.2503" lon="0.27224">
        <ele>70.8</ele>
        <time>2024-10-13T08:42:23Z</time>
      </trkpt>
      <trkpt lat="49.25034" lon="0.27223">
        <ele>71</ele>
        <time>2024-10-13T08:42:24Z</time>
      </trkpt>
      <trkpt lat="49.25038" lon="0.27222">
        <ele>71.2</ele>
        <time>2024-10-13T08:42:25Z</time>
      </trkpt>
      <trkpt lat="49.25041" lon="0.27221">
        <ele>71.2</ele>
        <time>2024-10-13T08:42:26Z</time>
      </trkpt>
      <trkpt lat="49.25045" lon="0.2722">
        <ele>71.4</ele>
        <time>2024-10-13T08:42:27Z</time>
      </trkpt>
      <trkpt lat="49.25049" lon="0.27218">
        <ele>71.4</ele>
        <time>2024-10-13T08:42:28Z</time>
      </trkpt>
      <trkpt lat="49.25053" lon="0.27217">
        <ele>71.6</ele>
        <time>2024-10-13T08:42:29Z</time>
      </trkpt>
      <trkpt lat="49.25057" lon="0.27216">
        <ele>71.8</ele>
        <time>2024-10-13T08:42:30Z</time>
      </trkpt>
      <trkpt lat="49.25061" lon="0.27214">
        <ele>71.8</ele>
        <time>2024-10-13T08:42:31Z</time>
      </trkpt>
      <trkpt lat="49.25065" lon="0.27213">
        <ele>72</ele>
        <time>2024-10-13T08:42:32Z</time>
      </trkpt>
      <trkpt lat="49.25069" lon="0.27211">
        <ele>72.2</ele>
        <time>2024-10-13T08:42:33Z</time>
      </trkpt>
      <trkpt lat="49.25072" lon="0.2721">
        <ele>72.2</ele>
        <time>2024-10-13T08:42:34Z</time>
      </trkpt>
      <trkpt lat="49.25077" lon="0.27208">
        <ele>72.4</ele>
        <time>2024-10-13T08:42:35Z</time>
      </trkpt>
      <trkpt lat="49.25081" lon="0.27206">
        <ele>72.6</ele>
        <time>2024-10-13T08:42:36Z</time>
      </trkpt>
      <trkpt lat="49.25085" lon="0.27204">
        <ele>72.6</ele>
        <time>2024-10-13T08:42:37Z</time>
      </trkpt>
      <trkpt lat="49.25089" lon="0.27202">
        <ele>72.8</ele>
        <time>2024-10-13T08:42:38Z</time>
      </trkpt>
      <trkpt lat="49.25093" lon="0.272">
        <ele>73</ele>
        <time>2024-10-13T08:42:39Z</time>
      </trkpt>
      <trkpt lat="49.25097" lon="0.27198">
        <ele>73.2</ele>
        <time>2024-10-13T08:42:40Z</time>
      </trkpt>
      <trkpt lat="49.25101" lon="0.27196">
        <ele>73.4</ele>
        <time>2024-10-13T08:42:41Z</time>
      </trkpt>
      <trkpt lat="49.25105" lon="0.27195">
        <ele>73.6</ele>
        <time>2024-10-13T08:42:42Z</time>
      </trkpt>
      <trkpt lat="49.25109" lon="0.27193">
        <ele>73.8</ele>
        <time>2024-10-13T08:42:43Z</time>
      </trkpt>
      <trkpt lat="49.25113" lon="0.27192">
        <ele>73.8</ele>
        <time>2024-10-13T08:42:44Z</time>
      </trkpt>
      <trkpt lat="49.25116" lon="0.27191">
        <ele>74</ele>
        <time>2024-10-13T08:42:45Z</time>
      </trkpt>
      <trkpt lat="49.2512" lon="0.27189">
        <ele>74.2</ele>
        <time>2024-10-13T08:42:46Z</time>
      </trkpt>
      <trkpt lat="49.25124" lon="0.27187">
        <ele>74.2</ele>
        <time>2024-10-13T08:42:47Z</time>
      </trkpt>
      <trkpt lat="49.25127" lon="0.27186">
        <ele>74.4</ele>
        <time>2024-10-13T08:42:48Z</time>
      </trkpt>
      <trkpt lat="49.25131" lon="0.27185">
        <ele>74.4</ele>
        <time>2024-10-13T08:42:49Z</time>
      </trkpt>
      <trkpt lat="49.25135" lon="0.27182">
        <ele>74.4</ele>
        <time>2024-10-13T08:42:50Z</time>
      </trkpt>
      <trkpt lat="49.2514" lon="0.27181">
        <ele>74.6</ele>
        <time>2024-10-13T08:42:51Z</time>
      </trkpt>
      <trkpt lat="49.25144" lon="0.27179">
        <ele>74.8</ele>
        <time>2024-10-13T08:42:52Z</time>
      </trkpt>
      <trkpt lat="49.25149" lon="0.27177">
        <ele>74.8</ele>
        <time>2024-10-13T08:42:53Z</time>
      </trkpt>
      <trkpt lat="49.25153" lon="0.27175">
        <ele>75</ele>
        <time>2024-10-13T08:42:54Z</time>
      </trkpt>
      <trkpt lat="49.25157" lon="0.27173">
        <ele>75</ele>
        <time>2024-10-13T08:42:55Z</time>
      </trkpt>
      <trkpt lat="49.25161" lon="0.27171">
        <ele>75.2</ele>
        <time>2024-10-13T08:42:56Z</time>
      </trkpt>
      <trkpt lat="49.25165" lon="0.27169">
        <ele>75.4</ele>
        <time>2024-10-13T08:42:57Z</time>
      </trkpt>
      <trkpt lat="49.2517" lon="0.27166">
        <ele>75.6</ele>
        <time>2024-10-13T08:42:58Z</time>
      </trkpt>
      <trkpt lat="49.25174" lon="0.27164">
        <ele>75.6</ele>
        <time>2024-10-13T08:42:59Z</time>
      </trkpt>
      <trkpt lat="49.25179" lon="0.27162">
        <ele>75.8</ele>
        <time>2024-10-13T08:43:00Z</time>
      </trkpt>
      <trkpt lat="49.25183" lon="0.27159">
        <ele>75.8</ele>
        <time>2024-10-13T08:43:01Z</time>
      </trkpt>
      <trkpt lat="49.25187" lon="0.27156">
        <ele>75.8</ele>
        <time>2024-10-13T08:43:02Z</time>
      </trkpt>
      <trkpt lat="49.25191" lon="0.27154">
        <ele>75.8</ele>
        <time>2024-10-13T08:43:03Z</time>
      </trkpt>
      <trkpt lat="49.25196" lon="0.27151">
        <ele>76</ele>
        <time>2024-10-13T08:43:04Z</time>
      </trkpt>
      <trkpt lat="49.25201" lon="0.27148">
        <ele>76.2</ele>
        <time>2024-10-13T08:43:05Z</time>
      </trkpt>
      <trkpt lat="49.25206" lon="0.27144">
        <ele>76.2</ele>
        <time>2024-10-13T08:43:06Z</time>
      </trkpt>
      <trkpt lat="49.25211" lon="0.2714">
        <ele>76.2</ele>
        <time>2024-10-13T08:43:07Z</time>
      </trkpt>
      <trkpt lat="49.25216" lon="0.27136">
        <ele>76.2</ele>
        <time>2024-10-13T08:43:08Z</time>
      </trkpt>
      <trkpt lat="49.25221" lon="0.27132">
        <ele>76.2</ele>
        <time>2024-10-13T08:43:09Z</time>
      </trkpt>
      <trkpt lat="49.25226" lon="0.27128">
        <ele>76.2</ele>
        <time>2024-10-13T08:43:10Z</time>
      </trkpt>
      <trkpt lat="49.25232" lon="0.27124">
        <ele>76.2</ele>
        <time>2024-10-13T08:43:11Z</time>
      </trkpt>
      <trkpt lat="49.25237" lon="0.2712">
        <ele>76.2</ele>
        <time>2024-10-13T08:43:12Z</time>
      </trkpt>
      <trkpt lat="49.25242" lon="0.27116">
        <ele>76.2</ele>
        <time>2024-10-13T08:43:13Z</time>
      </trkpt>
      <trkpt lat="49.25248" lon="0.27111">
        <ele>76.2</ele>
        <time>2024-10-13T08:43:14Z</time>
      </trkpt>
      <trkpt lat="49.25254" lon="0.27107">
        <ele>76</ele>
        <time>2024-10-13T08:43:15Z</time>
      </trkpt>
      <trkpt lat="49.2526" lon="0.27102">
        <ele>76</ele>
        <time>2024-10-13T08:43:16Z</time>
      </trkpt>
      <trkpt lat="49.25266" lon="0.27097">
        <ele>75.8</ele>
        <time>2024-10-13T08:43:17Z</time>
      </trkpt>
      <trkpt lat="49.25271" lon="0.27092">
        <ele>75.6</ele>
        <time>2024-10-13T08:43:18Z</time>
      </trkpt>
      <trkpt lat="49.25277" lon="0.27087">
        <ele>75.6</ele>
        <time>2024-10-13T08:43:19Z</time>
      </trkpt>
      <trkpt lat="49.25284" lon="0.27082">
        <ele>75.4</ele>
        <time>2024-10-13T08:43:20Z</time>
      </trkpt>
      <trkpt lat="49.2529" lon="0.27077">
        <ele>75.2</ele>
        <time>2024-10-13T08:43:21Z</time>
      </trkpt>
      <trkpt lat="49.25296" lon="0.27072">
        <ele>75.2</ele>
        <time>2024-10-13T08:43:22Z</time>
      </trkpt>
      <trkpt lat="49.25302" lon="0.27067">
        <ele>75.2</ele>
        <time>2024-10-13T08:43:23Z</time>
      </trkpt>
      <trkpt lat="49.25309" lon="0.27061">
        <ele>75</ele>
        <time>2024-10-13T08:43:24Z</time>
      </trkpt>
      <trkpt lat="49.25315" lon="0.27056">
        <ele>74.8</ele>
        <time>2024-10-13T08:43:25Z</time>
      </trkpt>
      <trkpt lat="49.25322" lon="0.27051">
        <ele>74.6</ele>
        <time>2024-10-13T08:43:26Z</time>
      </trkpt>
      <trkpt lat="49.25329" lon="0.27046">
        <ele>74.4</ele>
        <time>2024-10-13T08:43:27Z</time>
      </trkpt>
      <trkpt lat="49.25335" lon="0.2704">
        <ele>74.2</ele>
        <time>2024-10-13T08:43:28Z</time>
      </trkpt>
      <trkpt lat="49.25342" lon="0.27033">
        <ele>74</ele>
        <time>2024-10-13T08:43:29Z</time>
      </trkpt>
      <trkpt lat="49.25348" lon="0.27027">
        <ele>74</ele>
        <time>2024-10-13T08:43:30Z</time>
      </trkpt>
      <trkpt lat="49.25354" lon="0.27021">
        <ele>73.8</ele>
        <time>2024-10-13T08:43:31Z</time>
      </trkpt>
      <trkpt lat="49.25361" lon="0.27014">
        <ele>73.6</ele>
        <time>2024-10-13T08:43:32Z</time>
      </trkpt>
      <trkpt lat="49.25367" lon="0.27007">
        <ele>73.4</ele>
        <time>2024-10-13T08:43:33Z</time>
      </trkpt>
      <trkpt lat="49.25374" lon="0.26999">
        <ele>73.2</ele>
        <time>2024-10-13T08:43:34Z</time>
      </trkpt>
      <trkpt lat="49.25381" lon="0.26992">
        <ele>73</ele>
        <time>2024-10-13T08:43:35Z</time>
      </trkpt>
      <trkpt lat="49.25387" lon="0.26984">
        <ele>72.8</ele>
        <time>2024-10-13T08:43:36Z</time>
      </trkpt>
      <trkpt lat="49.25393" lon="0.26975">
        <ele>72.6</ele>
        <time>2024-10-13T08:43:37Z</time>
      </trkpt>
      <trkpt lat="49.25399" lon="0.26966">
        <ele>72.2</ele>
        <time>2024-10-13T08:43:38Z</time>
      </trkpt>
      <trkpt lat="49.25405" lon="0.26957">
        <ele>72</ele>
        <time>2024-10-13T08:43:39Z</time>
      </trkpt>
      <trkpt lat="49.25412" lon="0.26948">
        <ele>71.8</ele>
        <time>2024-10-13T08:43:40Z</time>
      </trkpt>
      <trkpt lat="49.25418" lon="0.26939">
        <ele>71.2</ele>
        <time>2024-10-13T08:43:41Z</time>
      </trkpt>
      <trkpt lat="49.25425" lon="0.2693">
        <ele>71</ele>
        <time>2024-10-13T08:43:42Z</time>
      </trkpt>
      <trkpt lat="49.25431" lon="0.26921">
        <ele>70.6</ele>
        <time>2024-10-13T08:43:43Z</time>
      </trkpt>
      <trkpt lat="49.25437" lon="0.26912">
        <ele>70.2</ele>
        <time>2024-10-13T08:43:44Z</time>
      </trkpt>
      <trkpt lat="49.25444" lon="0.26903">
        <ele>69.8</ele>
        <time>2024-10-13T08:43:45Z</time>
      </trkpt>
      <trkpt lat="49.2545" lon="0.26893">
        <ele>69.4</ele>
        <time>2024-10-13T08:43:46Z</time>
      </trkpt>
      <trkpt lat="49.25457" lon="0.26884">
        <ele>68.8</ele>
        <time>2024-10-13T08:43:47Z</time>
      </trkpt>
      <trkpt lat="49.25463" lon="0.26874">
        <ele>68.4</ele>
        <time>2024-10-13T08:43:48Z</time>
      </trkpt>
      <trkpt lat="49.2547" lon="0.26865">
        <ele>67.8</ele>
        <time>2024-10-13T08:43:49Z</time>
      </trkpt>
      <trkpt lat="49.25477" lon="0.26855">
        <ele>67.4</ele>
        <time>2024-10-13T08:43:50Z</time>
      </trkpt>
      <trkpt lat="49.25483" lon="0.26846">
        <ele>67</ele>
        <time>2024-10-13T08:43:51Z</time>
      </trkpt>
      <trkpt lat="49.2549" lon="0.26836">
        <ele>66.6</ele>
        <time>2024-10-13T08:43:52Z</time>
      </trkpt>
      <trkpt lat="49.25497" lon="0.26827">
        <ele>66.2</ele>
        <time>2024-10-13T08:43:53Z</time>
      </trkpt>
      <trkpt lat="49.25503" lon="0.26817">
        <ele>65.6</ele>
        <time>2024-10-13T08:43:54Z</time>
      </trkpt>
      <trkpt lat="49.2551" lon="0.26808">
        <ele>65.2</ele>
        <time>2024-10-13T08:43:55Z</time>
      </trkpt>
      <trkpt lat="49.25517" lon="0.26798">
        <ele>64.8</ele>
        <time>2024-10-13T08:43:56Z</time>
      </trkpt>
      <trkpt lat="49.25523" lon="0.26788">
        <ele>64.2</ele>
        <time>2024-10-13T08:43:57Z</time>
      </trkpt>
      <trkpt lat="49.2553" lon="0.26778">
        <ele>63.4</ele>
        <time>2024-10-13T08:43:58Z</time>
      </trkpt>
      <trkpt lat="49.25536" lon="0.26768">
        <ele>62.8</ele>
        <time>2024-10-13T08:43:59Z</time>
      </trkpt>
      <trkpt lat="49.25543" lon="0.26759">
        <ele>62.2</ele>
        <time>2024-10-13T08:44:00Z</time>
      </trkpt>
      <trkpt lat="49.2555" lon="0.26749">
        <ele>61.8</ele>
        <time>2024-10-13T08:44:01Z</time>
      </trkpt>
      <trkpt lat="49.25557" lon="0.2674">
        <ele>61.4</ele>
        <time>2024-10-13T08:44:02Z</time>
      </trkpt>
      <trkpt lat="49.25564" lon="0.2673">
        <ele>60.8</ele>
        <time>2024-10-13T08:44:03Z</time>
      </trkpt>
      <trkpt lat="49.25571" lon="0.2672">
        <ele>60.6</ele>
        <time>2024-10-13T08:44:04Z</time>
      </trkpt>
      <trkpt lat="49.25578" lon="0.26711">
        <ele>60.4</ele>
        <time>2024-10-13T08:44:05Z</time>
      </trkpt>
      <trkpt lat="49.25585" lon="0.267">
        <ele>60.2</ele>
        <time>2024-10-13T08:44:06Z</time>
      </trkpt>
      <trkpt lat="49.25592" lon="0.2669">
        <ele>59.8</ele>
        <time>2024-10-13T08:44:07Z</time>
      </trkpt>
      <trkpt lat="49.25599" lon="0.2668">
        <ele>59.4</ele>
        <time>2024-10-13T08:44:08Z</time>
      </trkpt>
      <trkpt lat="49.25606" lon="0.2667">
        <ele>59</ele>
        <time>2024-10-13T08:44:09Z</time>
      </trkpt>
      <trkpt lat="49.25613" lon="0.2666">
        <ele>58.8</ele>
        <time>2024-10-13T08:44:10Z</time>
      </trkpt>
      <trkpt lat="49.2562" lon="0.2665">
        <ele>58.4</ele>
        <time>2024-10-13T08:44:11Z</time>
      </trkpt>
      <trkpt lat="49.25627" lon="0.2664">
        <ele>58</ele>
        <time>2024-10-13T08:44:12Z</time>
      </trkpt>
      <trkpt lat="49.25634" lon="0.2663">
        <ele>57.8</ele>
        <time>2024-10-13T08:44:13Z</time>
      </trkpt>
      <trkpt lat="49.25641" lon="0.26621">
        <ele>57.4</ele>
        <time>2024-10-13T08:44:14Z</time>
      </trkpt>
      <trkpt lat="49.25647" lon="0.26611">
        <ele>56.8</ele>
        <time>2024-10-13T08:44:15Z</time>
      </trkpt>
      <trkpt lat="49.25654" lon="0.26602">
        <ele>56.4</ele>
        <time>2024-10-13T08:44:16Z</time>
      </trkpt>
      <trkpt lat="49.2566" lon="0.26592">
        <ele>56</ele>
        <time>2024-10-13T08:44:17Z</time>
      </trkpt>
      <trkpt lat="49.25666" lon="0.26583">
        <ele>55.6</ele>
        <time>2024-10-13T08:44:18Z</time>
      </trkpt>
      <trkpt lat="49.25672" lon="0.26574">
        <ele>55.4</ele>
        <time>2024-10-13T08:44:19Z</time>
      </trkpt>
      <trkpt lat="49.25678" lon="0.26565">
        <ele>55.2</ele>
        <time>2024-10-13T08:44:20Z</time>
      </trkpt>
      <trkpt lat="49.25684" lon="0.26556">
        <ele>55</ele>
        <time>2024-10-13T08:44:21Z</time>
      </trkpt>
      <trkpt lat="49.2569" lon="0.26548">
        <ele>55</ele>
        <time>2024-10-13T08:44:22Z</time>
      </trkpt>
      <trkpt lat="49.25696" lon="0.2654">
        <ele>54.8</ele>
        <time>2024-10-13T08:44:23Z</time>
      </trkpt>
      <trkpt lat="49.25702" lon="0.26532">
        <ele>54.8</ele>
        <time>2024-10-13T08:44:24Z</time>
      </trkpt>
      <trkpt lat="49.25707" lon="0.26524">
        <ele>54.8</ele>
        <time>2024-10-13T08:44:25Z</time>
      </trkpt>
      <trkpt lat="49.25713" lon="0.26516">
        <ele>54.8</ele>
        <time>2024-10-13T08:44:26Z</time>
      </trkpt>
      <trkpt lat="49.25719" lon="0.26508">
        <ele>54.8</ele>
        <time>2024-10-13T08:44:27Z</time>
      </trkpt>
      <trkpt lat="49.25725" lon="0.265">
        <ele>54.8</ele>
        <time>2024-10-13T08:44:28Z</time>
      </trkpt>
      <trkpt lat="49.2573" lon="0.26491">
        <ele>54.8</ele>
        <time>2024-10-13T08:44:29Z</time>
      </trkpt>
      <trkpt lat="49.25736" lon="0.26483">
        <ele>54.8</ele>
        <time>2024-10-13T08:44:30Z</time>
      </trkpt>
      <trkpt lat="49.25742" lon="0.26474">
        <ele>54.8</ele>
        <time>2024-10-13T08:44:31Z</time>
      </trkpt>
      <trkpt lat="49.25748" lon="0.26465">
        <ele>54.8</ele>
        <time>2024-10-13T08:44:32Z</time>
      </trkpt>
      <trkpt lat="49.25755" lon="0.26456">
        <ele>55</ele>
        <time>2024-10-13T08:44:33Z</time>
      </trkpt>
      <trkpt lat="49.25761" lon="0.26447">
        <ele>55.2</ele>
        <time>2024-10-13T08:44:34Z</time>
      </trkpt>
      <trkpt lat="49.25766" lon="0.2644">
        <ele>55.2</ele>
        <time>2024-10-13T08:44:35Z</time>
      </trkpt>
      <trkpt lat="49.2577" lon="0.26433">
        <ele>55.4</ele>
        <time>2024-10-13T08:44:36Z</time>
      </trkpt>
      <trkpt lat="49.2578" lon="0.2642">
        <ele>55.6</ele>
        <time>2024-10-13T08:44:37Z</time>
      </trkpt>
      <trkpt lat="49.25786" lon="0.26411">
        <ele>55.6</ele>
        <time>2024-10-13T08:44:38Z</time>
      </trkpt>
      <trkpt lat="49.25792" lon="0.26402">
        <ele>55.8</ele>
        <time>2024-10-13T08:44:39Z</time>
      </trkpt>
      <trkpt lat="49.25798" lon="0.26393">
        <ele>55.8</ele>
        <time>2024-10-13T08:44:40Z</time>
      </trkpt>
      <trkpt lat="49.25804" lon="0.26384">
        <ele>55.8</ele>
        <time>2024-10-13T08:44:41Z</time>
      </trkpt>
      <trkpt lat="49.2581" lon="0.26375">
        <ele>55.8</ele>
        <time>2024-10-13T08:44:42Z</time>
      </trkpt>
      <trkpt lat="49.25817" lon="0.26366">
        <ele>55.8</ele>
        <time>2024-10-13T08:44:43Z</time>
      </trkpt>
      <trkpt lat="49.25824" lon="0.26357">
        <ele>56</ele>
        <time>2024-10-13T08:44:44Z</time>
      </trkpt>
      <trkpt lat="49.25831" lon="0.26347">
        <ele>56</ele>
        <time>2024-10-13T08:44:45Z</time>
      </trkpt>
      <trkpt lat="49.25838" lon="0.26337">
        <ele>56</ele>
        <time>2024-10-13T08:44:46Z</time>
      </trkpt>
      <trkpt lat="49.25845" lon="0.26327">
        <ele>56</ele>
        <time>2024-10-13T08:44:47Z</time>
      </trkpt>
      <trkpt lat="49.25852" lon="0.26317">
        <ele>56</ele>
        <time>2024-10-13T08:44:48Z</time>
      </trkpt>
      <trkpt lat="49.2586" lon="0.26306">
        <ele>55.8</ele>
        <time>2024-10-13T08:44:49Z</time>
      </trkpt>
      <trkpt lat="49.25867" lon="0.26295">
        <ele>55.8</ele>
        <time>2024-10-13T08:44:50Z</time>
      </trkpt>
      <trkpt lat="49.25874" lon="0.26284">
        <ele>55.8</ele>
        <time>2024-10-13T08:44:51Z</time>
      </trkpt>
      <trkpt lat="49.25882" lon="0.26273">
        <ele>55.6</ele>
        <time>2024-10-13T08:44:52Z</time>
      </trkpt>
      <trkpt lat="49.25889" lon="0.26263">
        <ele>55.2</ele>
        <time>2024-10-13T08:44:53Z</time>
      </trkpt>
      <trkpt lat="49.25896" lon="0.26253">
        <ele>54.6</ele>
        <time>2024-10-13T08:44:54Z</time>
      </trkpt>
      <trkpt lat="49.25902" lon="0.26243">
        <ele>54.2</ele>
        <time>2024-10-13T08:44:55Z</time>
      </trkpt>
      <trkpt lat="49.25908" lon="0.26234">
        <ele>53.4</ele>
        <time>2024-10-13T08:44:56Z</time>
      </trkpt>
      <trkpt lat="49.25914" lon="0.26225">
        <ele>52.8</ele>
        <time>2024-10-13T08:44:57Z</time>
      </trkpt>
      <trkpt lat="49.2592" lon="0.26216">
        <ele>52.6</ele>
        <time>2024-10-13T08:44:58Z</time>
      </trkpt>
      <trkpt lat="49.25925" lon="0.26207">
        <ele>52.4</ele>
        <time>2024-10-13T08:44:59Z</time>
      </trkpt>
      <trkpt lat="49.2593" lon="0.26199">
        <ele>52.4</ele>
        <time>2024-10-13T08:45:00Z</time>
      </trkpt>
      <trkpt lat="49.25935" lon="0.26191">
        <ele>52.4</ele>
        <time>2024-10-13T08:45:01Z</time>
      </trkpt>
      <trkpt lat="49.2594" lon="0.26183">
        <ele>52.2</ele>
        <time>2024-10-13T08:45:02Z</time>
      </trkpt>
      <trkpt lat="49.25944" lon="0.26176">
        <ele>52.2</ele>
        <time>2024-10-13T08:45:03Z</time>
      </trkpt>
      <trkpt lat="49.25948" lon="0.26169">
        <ele>52.2</ele>
        <time>2024-10-13T08:45:04Z</time>
      </trkpt>
      <trkpt lat="49.25952" lon="0.26162">
        <ele>52.2</ele>
        <time>2024-10-13T08:45:05Z</time>
      </trkpt>
      <trkpt lat="49.25956" lon="0.26156">
        <ele>52.2</ele>
        <time>2024-10-13T08:45:06Z</time>
      </trkpt>
      <trkpt lat="49.25959" lon="0.2615">
        <ele>52.4</ele>
        <time>2024-10-13T08:45:07Z</time>
      </trkpt>
      <trkpt lat="49.25963" lon="0.26143">
        <ele>52.6</ele>
        <time>2024-10-13T08:45:08Z</time>
      </trkpt>
      <trkpt lat="49.25966" lon="0.26137">
        <ele>53.4</ele>
        <time>2024-10-13T08:45:09Z</time>
      </trkpt>
      <trkpt lat="49.25969" lon="0.26131">
        <ele>53.8</ele>
        <time>2024-10-13T08:45:10Z</time>
      </trkpt>
      <trkpt lat="49.25973" lon="0.26127">
        <ele>54.4</ele>
        <time>2024-10-13T08:45:11Z</time>
      </trkpt>
      <trkpt lat="49.25977" lon="0.26123">
        <ele>55</ele>
        <time>2024-10-13T08:45:12Z</time>
      </trkpt>
      <trkpt lat="49.2598" lon="0.2612">
        <ele>55.6</ele>
        <time>2024-10-13T08:45:13Z</time>
      </trkpt>
      <trkpt lat="49.25984" lon="0.26117">
        <ele>56.4</ele>
        <time>2024-10-13T08:45:14Z</time>
      </trkpt>
      <trkpt lat="49.25988" lon="0.26113">
        <ele>57</ele>
        <time>2024-10-13T08:45:15Z</time>
      </trkpt>
      <trkpt lat="49.25991" lon="0.26111">
        <ele>57.4</ele>
        <time>2024-10-13T08:45:16Z</time>
      </trkpt>
      <trkpt lat="49.25995" lon="0.26109">
        <ele>58</ele>
        <time>2024-10-13T08:45:17Z</time>
      </trkpt>
      <trkpt lat="49.25998" lon="0.26106">
        <ele>58.6</ele>
        <time>2024-10-13T08:45:18Z</time>
      </trkpt>
      <trkpt lat="49.26001" lon="0.26104">
        <ele>59</ele>
        <time>2024-10-13T08:45:19Z</time>
      </trkpt>
      <trkpt lat="49.26004" lon="0.26101">
        <ele>59.4</ele>
        <time>2024-10-13T08:45:20Z</time>
      </trkpt>
      <trkpt lat="49.26007" lon="0.26099">
        <ele>59.6</ele>
        <time>2024-10-13T08:45:21Z</time>
      </trkpt>
      <trkpt lat="49.2601" lon="0.26097">
        <ele>60.2</ele>
        <time>2024-10-13T08:45:22Z</time>
      </trkpt>
      <trkpt lat="49.26013" lon="0.26096">
        <ele>60.8</ele>
        <time>2024-10-13T08:45:23Z</time>
      </trkpt>
      <trkpt lat="49.26016" lon="0.26094">
        <ele>61.2</ele>
        <time>2024-10-13T08:45:24Z</time>
      </trkpt>
      <trkpt lat="49.26019" lon="0.26092">
        <ele>61.2</ele>
        <time>2024-10-13T08:45:25Z</time>
      </trkpt>
      <trkpt lat="49.26021" lon="0.2609">
        <ele>61.6</ele>
        <time>2024-10-13T08:45:26Z</time>
      </trkpt>
      <trkpt lat="49.26025" lon="0.26088">
        <ele>61.8</ele>
        <time>2024-10-13T08:45:27Z</time>
      </trkpt>
      <trkpt lat="49.26028" lon="0.26087">
        <ele>62.2</ele>
        <time>2024-10-13T08:45:28Z</time>
      </trkpt>
      <trkpt lat="49.26031" lon="0.26085">
        <ele>62.4</ele>
        <time>2024-10-13T08:45:29Z</time>
      </trkpt>
      <trkpt lat="49.26033" lon="0.26083">
        <ele>62.8</ele>
        <time>2024-10-13T08:45:30Z</time>
      </trkpt>
      <trkpt lat="49.26036" lon="0.26081">
        <ele>63</ele>
        <time>2024-10-13T08:45:31Z</time>
      </trkpt>
      <trkpt lat="49.26039" lon="0.26079">
        <ele>63.4</ele>
        <time>2024-10-13T08:45:32Z</time>
      </trkpt>
      <trkpt lat="49.26042" lon="0.26078">
        <ele>63.6</ele>
        <time>2024-10-13T08:45:33Z</time>
      </trkpt>
      <trkpt lat="49.26044" lon="0.26076">
        <ele>64</ele>
        <time>2024-10-13T08:45:34Z</time>
      </trkpt>
      <trkpt lat="49.26047" lon="0.26074">
        <ele>64.2</ele>
        <time>2024-10-13T08:45:35Z</time>
      </trkpt>
      <trkpt lat="49.26049" lon="0.26073">
        <ele>64.6</ele>
        <time>2024-10-13T08:45:36Z</time>
      </trkpt>
      <trkpt lat="49.26052" lon="0.26072">
        <ele>64.8</ele>
        <time>2024-10-13T08:45:37Z</time>
      </trkpt>
      <trkpt lat="49.26055" lon="0.2607">
        <ele>65.2</ele>
        <time>2024-10-13T08:45:38Z</time>
      </trkpt>
      <trkpt lat="49.26057" lon="0.26068">
        <ele>65.6</ele>
        <time>2024-10-13T08:45:39Z</time>
      </trkpt>
      <trkpt lat="49.2606" lon="0.26066">
        <ele>65.8</ele>
        <time>2024-10-13T08:45:40Z</time>
      </trkpt>
      <trkpt lat="49.26063" lon="0.26064">
        <ele>66</ele>
        <time>2024-10-13T08:45:41Z</time>
      </trkpt>
      <trkpt lat="49.26065" lon="0.26062">
        <ele>66.4</ele>
        <time>2024-10-13T08:45:42Z</time>
      </trkpt>
      <trkpt lat="49.26068" lon="0.2606">
        <ele>66.6</ele>
        <time>2024-10-13T08:45:43Z</time>
      </trkpt>
      <trkpt lat="49.26071" lon="0.26058">
        <ele>66.8</ele>
        <time>2024-10-13T08:45:44Z</time>
      </trkpt>
      <trkpt lat="49.26074" lon="0.26056">
        <ele>67</ele>
        <time>2024-10-13T08:45:45Z</time>
      </trkpt>
      <trkpt lat="49.26077" lon="0.26054">
        <ele>67.2</ele>
        <time>2024-10-13T08:45:46Z</time>
      </trkpt>
      <trkpt lat="49.2608" lon="0.26053">
        <ele>67.4</ele>
        <time>2024-10-13T08:45:47Z</time>
      </trkpt>
      <trkpt lat="49.26083" lon="0.26051">
        <ele>67.8</ele>
        <time>2024-10-13T08:45:48Z</time>
      </trkpt>
      <trkpt lat="49.26086" lon="0.26049">
        <ele>68</ele>
        <time>2024-10-13T08:45:49Z</time>
      </trkpt>
      <trkpt lat="49.26089" lon="0.26047">
        <ele>68.2</ele>
        <time>2024-10-13T08:45:50Z</time>
      </trkpt>
      <trkpt lat="49.26091" lon="0.26045">
        <ele>68.6</ele>
        <time>2024-10-13T08:45:51Z</time>
      </trkpt>
      <trkpt lat="49.26094" lon="0.26044">
        <ele>69</ele>
        <time>2024-10-13T08:45:52Z</time>
      </trkpt>
      <trkpt lat="49.26097" lon="0.26043">
        <ele>69.2</ele>
        <time>2024-10-13T08:45:53Z</time>
      </trkpt>
      <trkpt lat="49.261" lon="0.26041">
        <ele>69.4</ele>
        <time>2024-10-13T08:45:54Z</time>
      </trkpt>
      <trkpt lat="49.26103" lon="0.2604">
        <ele>69.6</ele>
        <time>2024-10-13T08:45:55Z</time>
      </trkpt>
      <trkpt lat="49.26106" lon="0.26039">
        <ele>69.8</ele>
        <time>2024-10-13T08:45:56Z</time>
      </trkpt>
      <trkpt lat="49.26109" lon="0.26037">
        <ele>70</ele>
        <time>2024-10-13T08:45:57Z</time>
      </trkpt>
      <trkpt lat="49.26111" lon="0.26035">
        <ele>70.2</ele>
        <time>2024-10-13T08:45:58Z</time>
      </trkpt>
      <trkpt lat="49.26114" lon="0.26033">
        <ele>70.4</ele>
        <time>2024-10-13T08:45:59Z</time>
      </trkpt>
      <trkpt lat="49.26117" lon="0.26032">
        <ele>70.6</ele>
        <time>2024-10-13T08:46:00Z</time>
      </trkpt>
      <trkpt lat="49.2612" lon="0.26029">
        <ele>70.8</ele>
        <time>2024-10-13T08:46:01Z</time>
      </trkpt>
      <trkpt lat="49.26123" lon="0.26027">
        <ele>71</ele>
        <time>2024-10-13T08:46:02Z</time>
      </trkpt>
      <trkpt lat="49.26125" lon="0.26025">
        <ele>71.4</ele>
        <time>2024-10-13T08:46:03Z</time>
      </trkpt>
      <trkpt lat="49.26128" lon="0.26023">
        <ele>71.4</ele>
        <time>2024-10-13T08:46:04Z</time>
      </trkpt>
      <trkpt lat="49.26131" lon="0.26022">
        <ele>71.8</ele>
        <time>2024-10-13T08:46:05Z</time>
      </trkpt>
      <trkpt lat="49.26133" lon="0.2602">
        <ele>72</ele>
        <time>2024-10-13T08:46:06Z</time>
      </trkpt>
      <trkpt lat="49.26136" lon="0.26019">
        <ele>72.2</ele>
        <time>2024-10-13T08:46:07Z</time>
      </trkpt>
      <trkpt lat="49.26139" lon="0.26018">
        <ele>72.4</ele>
        <time>2024-10-13T08:46:08Z</time>
      </trkpt>
      <trkpt lat="49.26142" lon="0.26016">
        <ele>72.6</ele>
        <time>2024-10-13T08:46:09Z</time>
      </trkpt>
      <trkpt lat="49.26145" lon="0.26015">
        <ele>72.8</ele>
        <time>2024-10-13T08:46:10Z</time>
      </trkpt>
      <trkpt lat="49.26147" lon="0.26014">
        <ele>73</ele>
        <time>2024-10-13T08:46:11Z</time>
      </trkpt>
      <trkpt lat="49.2615" lon="0.26012">
        <ele>73.2</ele>
        <time>2024-10-13T08:46:12Z</time>
      </trkpt>
      <trkpt lat="49.26153" lon="0.26011">
        <ele>73.6</ele>
        <time>2024-10-13T08:46:13Z</time>
      </trkpt>
      <trkpt lat="49.26156" lon="0.26009">
        <ele>73.8</ele>
        <time>2024-10-13T08:46:14Z</time>
      </trkpt>
      <trkpt lat="49.26158" lon="0.26007">
        <ele>73.8</ele>
        <time>2024-10-13T08:46:15Z</time>
      </trkpt>
      <trkpt lat="49.2616" lon="0.26006">
        <ele>74</ele>
        <time>2024-10-13T08:46:16Z</time>
      </trkpt>
      <trkpt lat="49.26163" lon="0.26005">
        <ele>74.2</ele>
        <time>2024-10-13T08:46:17Z</time>
      </trkpt>
      <trkpt lat="49.26166" lon="0.26003">
        <ele>74.4</ele>
        <time>2024-10-13T08:46:18Z</time>
      </trkpt>
      <trkpt lat="49.26168" lon="0.26002">
        <ele>74.8</ele>
        <time>2024-10-13T08:46:19Z</time>
      </trkpt>
      <trkpt lat="49.26171" lon="0.26">
        <ele>74.8</ele>
        <time>2024-10-13T08:46:20Z</time>
      </trkpt>
      <trkpt lat="49.26174" lon="0.25998">
        <ele>75</ele>
        <time>2024-10-13T08:46:21Z</time>
      </trkpt>
      <trkpt lat="49.26176" lon="0.25997">
        <ele>75.2</ele>
        <time>2024-10-13T08:46:22Z</time>
      </trkpt>
      <trkpt lat="49.26179" lon="0.25995">
        <ele>75.4</ele>
        <time>2024-10-13T08:46:23Z</time>
      </trkpt>
      <trkpt lat="49.26181" lon="0.25994">
        <ele>75.6</ele>
        <time>2024-10-13T08:46:24Z</time>
      </trkpt>
      <trkpt lat="49.26184" lon="0.25992">
        <ele>76</ele>
        <time>2024-10-13T08:46:25Z</time>
      </trkpt>
      <trkpt lat="49.26187" lon="0.25991">
        <ele>76.2</ele>
        <time>2024-10-13T08:46:26Z</time>
      </trkpt>
      <trkpt lat="49.26189" lon="0.25989">
        <ele>76.4</ele>
        <time>2024-10-13T08:46:27Z</time>
      </trkpt>
      <trkpt lat="49.26192" lon="0.25987">
        <ele>76.6</ele>
        <time>2024-10-13T08:46:28Z</time>
      </trkpt>
      <trkpt lat="49.26194" lon="0.25986">
        <ele>77</ele>
        <time>2024-10-13T08:46:29Z</time>
      </trkpt>
      <trkpt lat="49.26197" lon="0.25984">
        <ele>77.2</ele>
        <time>2024-10-13T08:46:30Z</time>
      </trkpt>
      <trkpt lat="49.26199" lon="0.25982">
        <ele>77.4</ele>
        <time>2024-10-13T08:46:31Z</time>
      </trkpt>
      <trkpt lat="49.26202" lon="0.2598">
        <ele>77.6</ele>
        <time>2024-10-13T08:46:32Z</time>
      </trkpt>
      <trkpt lat="49.26204" lon="0.25979">
        <ele>77.8</ele>
        <time>2024-10-13T08:46:33Z</time>
      </trkpt>
      <trkpt lat="49.26207" lon="0.25978">
        <ele>78</ele>
        <time>2024-10-13T08:46:34Z</time>
      </trkpt>
      <trkpt lat="49.2621" lon="0.25976">
        <ele>78.4</ele>
        <time>2024-10-13T08:46:35Z</time>
      </trkpt>
      <trkpt lat="49.26212" lon="0.25975">
        <ele>78.6</ele>
        <time>2024-10-13T08:46:36Z</time>
      </trkpt>
      <trkpt lat="49.26215" lon="0.25973">
        <ele>78.8</ele>
        <time>2024-10-13T08:46:37Z</time>
      </trkpt>
      <trkpt lat="49.26217" lon="0.25971">
        <ele>79.2</ele>
        <time>2024-10-13T08:46:38Z</time>
      </trkpt>
      <trkpt lat="49.2622" lon="0.25969">
        <ele>79.4</ele>
        <time>2024-10-13T08:46:39Z</time>
      </trkpt>
      <trkpt lat="49.26222" lon="0.25968">
        <ele>79.6</ele>
        <time>2024-10-13T08:46:40Z</time>
      </trkpt>
      <trkpt lat="49.26224" lon="0.25966">
        <ele>79.8</ele>
        <time>2024-10-13T08:46:41Z</time>
      </trkpt>
      <trkpt lat="49.26227" lon="0.25965">
        <ele>80</ele>
        <time>2024-10-13T08:46:42Z</time>
      </trkpt>
      <trkpt lat="49.26229" lon="0.25964">
        <ele>80.2</ele>
        <time>2024-10-13T08:46:43Z</time>
      </trkpt>
      <trkpt lat="49.26232" lon="0.25963">
        <ele>80.6</ele>
        <time>2024-10-13T08:46:44Z</time>
      </trkpt>
      <trkpt lat="49.26234" lon="0.25962">
        <ele>80.8</ele>
        <time>2024-10-13T08:46:45Z</time>
      </trkpt>
      <trkpt lat="49.26237" lon="0.25961">
        <ele>81.2</ele>
        <time>2024-10-13T08:46:46Z</time>
      </trkpt>
      <trkpt lat="49.26239" lon="0.25959">
        <ele>81.4</ele>
        <time>2024-10-13T08:46:47Z</time>
      </trkpt>
      <trkpt lat="49.26241" lon="0.25957">
        <ele>81.6</ele>
        <time>2024-10-13T08:46:48Z</time>
      </trkpt>
      <trkpt lat="49.26243" lon="0.25955">
        <ele>81.8</ele>
        <time>2024-10-13T08:46:49Z</time>
      </trkpt>
      <trkpt lat="49.26245" lon="0.25953">
        <ele>82.2</ele>
        <time>2024-10-13T08:46:50Z</time>
      </trkpt>
      <trkpt lat="49.26248" lon="0.25952">
        <ele>82.4</ele>
        <time>2024-10-13T08:46:51Z</time>
      </trkpt>
      <trkpt lat="49.2625" lon="0.25951">
        <ele>82.8</ele>
        <time>2024-10-13T08:46:52Z</time>
      </trkpt>
      <trkpt lat="49.26252" lon="0.2595">
        <ele>83</ele>
        <time>2024-10-13T08:46:53Z</time>
      </trkpt>
      <trkpt lat="49.26255" lon="0.25948">
        <ele>83.2</ele>
        <time>2024-10-13T08:46:54Z</time>
      </trkpt>
      <trkpt lat="49.26257" lon="0.25947">
        <ele>83.4</ele>
        <time>2024-10-13T08:46:55Z</time>
      </trkpt>
      <trkpt lat="49.2626" lon="0.25946">
        <ele>83.6</ele>
        <time>2024-10-13T08:46:56Z</time>
      </trkpt>
      <trkpt lat="49.26262" lon="0.25945">
        <ele>84</ele>
        <time>2024-10-13T08:46:57Z</time>
      </trkpt>
      <trkpt lat="49.26264" lon="0.25943">
        <ele>84.2</ele>
        <time>2024-10-13T08:46:58Z</time>
      </trkpt>
      <trkpt lat="49.26266" lon="0.25942">
        <ele>84.6</ele>
        <time>2024-10-13T08:46:59Z</time>
      </trkpt>
      <trkpt lat="49.26269" lon="0.25941">
        <ele>84.8</ele>
        <time>2024-10-13T08:47:00Z</time>
      </trkpt>
      <trkpt lat="49.26271" lon="0.2594">
        <ele>85</ele>
        <time>2024-10-13T08:47:01Z</time>
      </trkpt>
      <trkpt lat="49.26273" lon="0.25939">
        <ele>85.2</ele>
        <time>2024-10-13T08:47:02Z</time>
      </trkpt>
      <trkpt lat="49.26275" lon="0.25938">
        <ele>85.6</ele>
        <time>2024-10-13T08:47:03Z</time>
      </trkpt>
      <trkpt lat="49.26278" lon="0.25936">
        <ele>85.8</ele>
        <time>2024-10-13T08:47:04Z</time>
      </trkpt>
      <trkpt lat="49.2628" lon="0.25935">
        <ele>86.2</ele>
        <time>2024-10-13T08:47:05Z</time>
      </trkpt>
      <trkpt lat="49.26282" lon="0.25933">
        <ele>86.4</ele>
        <time>2024-10-13T08:47:06Z</time>
      </trkpt>
      <trkpt lat="49.26284" lon="0.25932">
        <ele>86.6</ele>
        <time>2024-10-13T08:47:07Z</time>
      </trkpt>
      <trkpt lat="49.26286" lon="0.25931">
        <ele>86.8</ele>
        <time>2024-10-13T08:47:08Z</time>
      </trkpt>
      <trkpt lat="49.26288" lon="0.25931">
        <ele>87.2</ele>
        <time>2024-10-13T08:47:09Z</time>
      </trkpt>
      <trkpt lat="49.2629" lon="0.2593">
        <ele>87.4</ele>
        <time>2024-10-13T08:47:10Z</time>
      </trkpt>
      <trkpt lat="49.26292" lon="0.2593">
        <ele>87.6</ele>
        <time>2024-10-13T08:47:11Z</time>
      </trkpt>
      <trkpt lat="49.26295" lon="0.25929">
        <ele>88</ele>
        <time>2024-10-13T08:47:12Z</time>
      </trkpt>
      <trkpt lat="49.26298" lon="0.25928">
        <ele>88.2</ele>
        <time>2024-10-13T08:47:13Z</time>
      </trkpt>
      <trkpt lat="49.263" lon="0.25927">
        <ele>88.4</ele>
        <time>2024-10-13T08:47:14Z</time>
      </trkpt>
      <trkpt lat="49.26303" lon="0.25926">
        <ele>88.6</ele>
        <time>2024-10-13T08:47:15Z</time>
      </trkpt>
      <trkpt lat="49.26305" lon="0.25925">
        <ele>89</ele>
        <time>2024-10-13T08:47:16Z</time>
      </trkpt>
      <trkpt lat="49.26307" lon="0.25924">
        <ele>89.2</ele>
        <time>2024-10-13T08:47:17Z</time>
      </trkpt>
      <trkpt lat="49.2631" lon="0.25924">
        <ele>89.6</ele>
        <time>2024-10-13T08:47:18Z</time>
      </trkpt>
      <trkpt lat="49.26312" lon="0.25923">
        <ele>89.8</ele>
        <time>2024-10-13T08:47:19Z</time>
      </trkpt>
      <trkpt lat="49.26314" lon="0.25923">
        <ele>90</ele>
        <time>2024-10-13T08:47:20Z</time>
      </trkpt>
      <trkpt lat="49.26316" lon="0.25922">
        <ele>90.2</ele>
        <time>2024-10-13T08:47:21Z</time>
      </trkpt>
      <trkpt lat="49.26319" lon="0.25921">
        <ele>90.4</ele>
        <time>2024-10-13T08:47:22Z</time>
      </trkpt>
      <trkpt lat="49.26321" lon="0.2592">
        <ele>90.8</ele>
        <time>2024-10-13T08:47:23Z</time>
      </trkpt>
      <trkpt lat="49.26323" lon="0.2592">
        <ele>91</ele>
        <time>2024-10-13T08:47:24Z</time>
      </trkpt>
      <trkpt lat="49.26326" lon="0.2592">
        <ele>91.2</ele>
        <time>2024-10-13T08:47:25Z</time>
      </trkpt>
      <trkpt lat="49.26328" lon="0.25919">
        <ele>91.4</ele>
        <time>2024-10-13T08:47:26Z</time>
      </trkpt>
      <trkpt lat="49.2633" lon="0.25918">
        <ele>91.6</ele>
        <time>2024-10-13T08:47:27Z</time>
      </trkpt>
      <trkpt lat="49.26332" lon="0.25918">
        <ele>92</ele>
        <time>2024-10-13T08:47:28Z</time>
      </trkpt>
      <trkpt lat="49.26334" lon="0.25918">
        <ele>92.2</ele>
        <time>2024-10-13T08:47:29Z</time>
      </trkpt>
      <trkpt lat="49.26336" lon="0.25917">
        <ele>92.2</ele>
        <time>2024-10-13T08:47:30Z</time>
      </trkpt>
      <trkpt lat="49.26339" lon="0.25917">
        <ele>92.4</ele>
        <time>2024-10-13T08:47:31Z</time>
      </trkpt>
      <trkpt lat="49.26341" lon="0.25916">
        <ele>92.8</ele>
        <time>2024-10-13T08:47:32Z</time>
      </trkpt>
      <trkpt lat="49.26343" lon="0.25916">
        <ele>93</ele>
        <time>2024-10-13T08:47:33Z</time>
      </trkpt>
      <trkpt lat="49.26345" lon="0.25915">
        <ele>93.2</ele>
        <time>2024-10-13T08:47:34Z</time>
      </trkpt>
      <trkpt lat="49.26348" lon="0.25915">
        <ele>93.4</ele>
        <time>2024-10-13T08:47:35Z</time>
      </trkpt>
      <trkpt lat="49.2635" lon="0.25915">
        <ele>93.6</ele>
        <time>2024-10-13T08:47:36Z</time>
      </trkpt>
      <trkpt lat="49.26352" lon="0.25914">
        <ele>93.8</ele>
        <time>2024-10-13T08:47:37Z</time>
      </trkpt>
      <trkpt lat="49.26354" lon="0.25913">
        <ele>94</ele>
        <time>2024-10-13T08:47:38Z</time>
      </trkpt>
      <trkpt lat="49.26356" lon="0.25912">
        <ele>94.2</ele>
        <time>2024-10-13T08:47:39Z</time>
      </trkpt>
      <trkpt lat="49.26358" lon="0.25913">
        <ele>94.4</ele>
        <time>2024-10-13T08:47:40Z</time>
      </trkpt>
      <trkpt lat="49.2636" lon="0.25913">
        <ele>94.6</ele>
        <time>2024-10-13T08:47:41Z</time>
      </trkpt>
      <trkpt lat="49.26362" lon="0.25913">
        <ele>94.8</ele>
        <time>2024-10-13T08:47:42Z</time>
      </trkpt>
      <trkpt lat="49.26364" lon="0.25913">
        <ele>95</ele>
        <time>2024-10-13T08:47:43Z</time>
      </trkpt>
      <trkpt lat="49.26366" lon="0.25913">
        <ele>95.2</ele>
        <time>2024-10-13T08:47:44Z</time>
      </trkpt>
      <trkpt lat="49.26369" lon="0.25912">
        <ele>95.4</ele>
        <time>2024-10-13T08:47:45Z</time>
      </trkpt>
      <trkpt lat="49.26371" lon="0.25911">
        <ele>95.6</ele>
        <time>2024-10-13T08:47:46Z</time>
      </trkpt>
      <trkpt lat="49.26372" lon="0.25911">
        <ele>95.8</ele>
        <time>2024-10-13T08:47:47Z</time>
      </trkpt>
      <trkpt lat="49.26374" lon="0.25911">
        <ele>96.2</ele>
        <time>2024-10-13T08:47:48Z</time>
      </trkpt>
      <trkpt lat="49.26376" lon="0.25911">
        <ele>96.2</ele>
        <time>2024-10-13T08:47:49Z</time>
      </trkpt>
      <trkpt lat="49.26378" lon="0.25911">
        <ele>96.6</ele>
        <time>2024-10-13T08:47:50Z</time>
      </trkpt>
      <trkpt lat="49.2638" lon="0.25911">
        <ele>96.8</ele>
        <time>2024-10-13T08:47:51Z</time>
      </trkpt>
      <trkpt lat="49.26382" lon="0.2591">
        <ele>96.8</ele>
        <time>2024-10-13T08:47:52Z</time>
      </trkpt>
      <trkpt lat="49.26384" lon="0.2591">
        <ele>97</ele>
        <time>2024-10-13T08:47:53Z</time>
      </trkpt>
      <trkpt lat="49.26387" lon="0.25909">
        <ele>97.2</ele>
        <time>2024-10-13T08:47:54Z</time>
      </trkpt>
      <trkpt lat="49.26389" lon="0.25909">
        <ele>97.4</ele>
        <time>2024-10-13T08:47:55Z</time>
      </trkpt>
      <trkpt lat="49.26391" lon="0.25908">
        <ele>97.6</ele>
        <time>2024-10-13T08:47:56Z</time>
      </trkpt>
      <trkpt lat="49.26393" lon="0.25907">
        <ele>98</ele>
        <time>2024-10-13T08:47:57Z</time>
      </trkpt>
      <trkpt lat="49.26395" lon="0.25908">
        <ele>98.2</ele>
        <time>2024-10-13T08:47:58Z</time>
      </trkpt>
      <trkpt lat="49.26396" lon="0.25908">
        <ele>98.4</ele>
        <time>2024-10-13T08:47:59Z</time>
      </trkpt>
      <trkpt lat="49.26398" lon="0.25908">
        <ele>98.6</ele>
        <time>2024-10-13T08:48:00Z</time>
      </trkpt>
      <trkpt lat="49.264" lon="0.25908">
        <ele>99</ele>
        <time>2024-10-13T08:48:01Z</time>
      </trkpt>
      <trkpt lat="49.26402" lon="0.25909">
        <ele>99.2</ele>
        <time>2024-10-13T08:48:02Z</time>
      </trkpt>
      <trkpt lat="49.26404" lon="0.25909">
        <ele>99.4</ele>
        <time>2024-10-13T08:48:03Z</time>
      </trkpt>
      <trkpt lat="49.26405" lon="0.25909">
        <ele>99.8</ele>
        <time>2024-10-13T08:48:04Z</time>
      </trkpt>
      <trkpt lat="49.26408" lon="0.25909">
        <ele>100</ele>
        <time>2024-10-13T08:48:05Z</time>
      </trkpt>
      <trkpt lat="49.2641" lon="0.25908">
        <ele>100.2</ele>
        <time>2024-10-13T08:48:06Z</time>
      </trkpt>
      <trkpt lat="49.26413" lon="0.25908">
        <ele>100.4</ele>
        <time>2024-10-13T08:48:07Z</time>
      </trkpt>
      <trkpt lat="49.26415" lon="0.25908">
        <ele>100.6</ele>
        <time>2024-10-13T08:48:08Z</time>
      </trkpt>
      <trkpt lat="49.26417" lon="0.25908">
        <ele>100.8</ele>
        <time>2024-10-13T08:48:09Z</time>
      </trkpt>
      <trkpt lat="49.26419" lon="0.25908">
        <ele>101</ele>
        <time>2024-10-13T08:48:10Z</time>
      </trkpt>
      <trkpt lat="49.26421" lon="0.25906">
        <ele>101.2</ele>
        <time>2024-10-13T08:48:11Z</time>
      </trkpt>
      <trkpt lat="49.26423" lon="0.25906">
        <ele>101.4</ele>
        <time>2024-10-13T08:48:12Z</time>
      </trkpt>
      <trkpt lat="49.26425" lon="0.25905">
        <ele>101.6</ele>
        <time>2024-10-13T08:48:13Z</time>
      </trkpt>
      <trkpt lat="49.26427" lon="0.25905">
        <ele>101.8</ele>
        <time>2024-10-13T08:48:14Z</time>
      </trkpt>
      <trkpt lat="49.26428" lon="0.25906">
        <ele>102</ele>
        <time>2024-10-13T08:48:15Z</time>
      </trkpt>
      <trkpt lat="49.2643" lon="0.25906">
        <ele>102.2</ele>
        <time>2024-10-13T08:48:16Z</time>
      </trkpt>
      <trkpt lat="49.26432" lon="0.25907">
        <ele>102.4</ele>
        <time>2024-10-13T08:48:17Z</time>
      </trkpt>
      <trkpt lat="49.26435" lon="0.25907">
        <ele>102.6</ele>
        <time>2024-10-13T08:48:18Z</time>
      </trkpt>
      <trkpt lat="49.26437" lon="0.25907">
        <ele>102.8</ele>
        <time>2024-10-13T08:48:19Z</time>
      </trkpt>
      <trkpt lat="49.2644" lon="0.25907">
        <ele>103.2</ele>
        <time>2024-10-13T08:48:20Z</time>
      </trkpt>
      <trkpt lat="49.26442" lon="0.25907">
        <ele>103.6</ele>
        <time>2024-10-13T08:48:21Z</time>
      </trkpt>
      <trkpt lat="49.26445" lon="0.25909">
        <ele>103.6</ele>
        <time>2024-10-13T08:48:22Z</time>
      </trkpt>
      <trkpt lat="49.26447" lon="0.2591">
        <ele>103.8</ele>
        <time>2024-10-13T08:48:23Z</time>
      </trkpt>
      <trkpt lat="49.26449" lon="0.25911">
        <ele>104</ele>
        <time>2024-10-13T08:48:24Z</time>
      </trkpt>
      <trkpt lat="49.26451" lon="0.25912">
        <ele>104.2</ele>
        <time>2024-10-13T08:48:25Z</time>
      </trkpt>
      <trkpt lat="49.26453" lon="0.25913">
        <ele>104.4</ele>
        <time>2024-10-13T08:48:26Z</time>
      </trkpt>
      <trkpt lat="49.26455" lon="0.25914">
        <ele>104.6</ele>
        <time>2024-10-13T08:48:27Z</time>
      </trkpt>
      <trkpt lat="49.26457" lon="0.25916">
        <ele>104.8</ele>
        <time>2024-10-13T08:48:28Z</time>
      </trkpt>
      <trkpt lat="49.26458" lon="0.25917">
        <ele>105</ele>
        <time>2024-10-13T08:48:29Z</time>
      </trkpt>
      <trkpt lat="49.2646" lon="0.25919">
        <ele>105.2</ele>
        <time>2024-10-13T08:48:30Z</time>
      </trkpt>
      <trkpt lat="49.26462" lon="0.2592">
        <ele>105.4</ele>
        <time>2024-10-13T08:48:31Z</time>
      </trkpt>
      <trkpt lat="49.26464" lon="0.2592">
        <ele>105.6</ele>
        <time>2024-10-13T08:48:32Z</time>
      </trkpt>
      <trkpt lat="49.26466" lon="0.2592">
        <ele>105.8</ele>
        <time>2024-10-13T08:48:33Z</time>
      </trkpt>
      <trkpt lat="49.26468" lon="0.25922">
        <ele>106</ele>
        <time>2024-10-13T08:48:34Z</time>
      </trkpt>
      <trkpt lat="49.2647" lon="0.25923">
        <ele>106.2</ele>
        <time>2024-10-13T08:48:35Z</time>
      </trkpt>
      <trkpt lat="49.26473" lon="0.25924">
        <ele>106.4</ele>
        <time>2024-10-13T08:48:36Z</time>
      </trkpt>
      <trkpt lat="49.26475" lon="0.25925">
        <ele>106.6</ele>
        <time>2024-10-13T08:48:37Z</time>
      </trkpt>
      <trkpt lat="49.26476" lon="0.25926">
        <ele>107</ele>
        <time>2024-10-13T08:48:38Z</time>
      </trkpt>
      <trkpt lat="49.26479" lon="0.25928">
        <ele>107.2</ele>
        <time>2024-10-13T08:48:39Z</time>
      </trkpt>
      <trkpt lat="49.26482" lon="0.25929">
        <ele>107.4</ele>
        <time>2024-10-13T08:48:40Z</time>
      </trkpt>
      <trkpt lat="49.26484" lon="0.25929">
        <ele>107.6</ele>
        <time>2024-10-13T08:48:41Z</time>
      </trkpt>
      <trkpt lat="49.26486" lon="0.25931">
        <ele>107.8</ele>
        <time>2024-10-13T08:48:42Z</time>
      </trkpt>
      <trkpt lat="49.26487" lon="0.25932">
        <ele>108.2</ele>
        <time>2024-10-13T08:48:43Z</time>
      </trkpt>
      <trkpt lat="49.26489" lon="0.25933">
        <ele>108.4</ele>
        <time>2024-10-13T08:48:44Z</time>
      </trkpt>
      <trkpt lat="49.26491" lon="0.25935">
        <ele>109</ele>
        <time>2024-10-13T08:48:45Z</time>
      </trkpt>
      <trkpt lat="49.26494" lon="0.25937">
        <ele>109.2</ele>
        <time>2024-10-13T08:48:46Z</time>
      </trkpt>
      <trkpt lat="49.26496" lon="0.25939">
        <ele>109.4</ele>
        <time>2024-10-13T08:48:47Z</time>
      </trkpt>
      <trkpt lat="49.26498" lon="0.25941">
        <ele>109.6</ele>
        <time>2024-10-13T08:48:48Z</time>
      </trkpt>
      <trkpt lat="49.265" lon="0.25942">
        <ele>110</ele>
        <time>2024-10-13T08:48:49Z</time>
      </trkpt>
      <trkpt lat="49.26502" lon="0.25944">
        <ele>110.2</ele>
        <time>2024-10-13T08:48:50Z</time>
      </trkpt>
      <trkpt lat="49.26504" lon="0.25945">
        <ele>110.4</ele>
        <time>2024-10-13T08:48:51Z</time>
      </trkpt>
      <trkpt lat="49.26505" lon="0.25946">
        <ele>110.8</ele>
        <time>2024-10-13T08:48:52Z</time>
      </trkpt>
      <trkpt lat="49.26507" lon="0.25947">
        <ele>111</ele>
        <time>2024-10-13T08:48:53Z</time>
      </trkpt>
      <trkpt lat="49.26509" lon="0.25949">
        <ele>111.4</ele>
        <time>2024-10-13T08:48:54Z</time>
      </trkpt>
      <trkpt lat="49.26511" lon="0.25952">
        <ele>111.6</ele>
        <time>2024-10-13T08:48:55Z</time>
      </trkpt>
      <trkpt lat="49.26513" lon="0.25954">
        <ele>111.8</ele>
        <time>2024-10-13T08:48:56Z</time>
      </trkpt>
      <trkpt lat="49.26515" lon="0.25956">
        <ele>112</ele>
        <time>2024-10-13T08:48:57Z</time>
      </trkpt>
      <trkpt lat="49.26516" lon="0.25958">
        <ele>112.2</ele>
        <time>2024-10-13T08:48:58Z</time>
      </trkpt>
      <trkpt lat="49.26519" lon="0.25959">
        <ele>112.6</ele>
        <time>2024-10-13T08:48:59Z</time>
      </trkpt>
      <trkpt lat="49.26521" lon="0.25961">
        <ele>112.8</ele>
        <time>2024-10-13T08:49:00Z</time>
      </trkpt>
      <trkpt lat="49.26523" lon="0.25963">
        <ele>113.2</ele>
        <time>2024-10-13T08:49:01Z</time>
      </trkpt>
      <trkpt lat="49.26526" lon="0.25965">
        <ele>113.4</ele>
        <time>2024-10-13T08:49:02Z</time>
      </trkpt>
      <trkpt lat="49.26529" lon="0.25968">
        <ele>113.6</ele>
        <time>2024-10-13T08:49:03Z</time>
      </trkpt>
      <trkpt lat="49.26531" lon="0.25971">
        <ele>114</ele>
        <time>2024-10-13T08:49:04Z</time>
      </trkpt>
      <trkpt lat="49.26535" lon="0.25973">
        <ele>114.2</ele>
        <time>2024-10-13T08:49:05Z</time>
      </trkpt>
      <trkpt lat="49.26536" lon="0.25975">
        <ele>114.6</ele>
        <time>2024-10-13T08:49:06Z</time>
      </trkpt>
      <trkpt lat="49.26538" lon="0.25976">
        <ele>114.8</ele>
        <time>2024-10-13T08:49:07Z</time>
      </trkpt>
      <trkpt lat="49.2654" lon="0.25977">
        <ele>115</ele>
        <time>2024-10-13T08:49:08Z</time>
      </trkpt>
      <trkpt lat="49.26543" lon="0.25979">
        <ele>115.2</ele>
        <time>2024-10-13T08:49:09Z</time>
      </trkpt>
      <trkpt lat="49.26545" lon="0.25981">
        <ele>115.4</ele>
        <time>2024-10-13T08:49:10Z</time>
      </trkpt>
      <trkpt lat="49.26547" lon="0.25983">
        <ele>115.6</ele>
        <time>2024-10-13T08:49:11Z</time>
      </trkpt>
      <trkpt lat="49.26549" lon="0.25985">
        <ele>115.8</ele>
        <time>2024-10-13T08:49:12Z</time>
      </trkpt>
      <trkpt lat="49.26551" lon="0.25987">
        <ele>116</ele>
        <time>2024-10-13T08:49:13Z</time>
      </trkpt>
      <trkpt lat="49.26552" lon="0.25989">
        <ele>116.2</ele>
        <time>2024-10-13T08:49:14Z</time>
      </trkpt>
      <trkpt lat="49.26554" lon="0.25992">
        <ele>116.4</ele>
        <time>2024-10-13T08:49:15Z</time>
      </trkpt>
      <trkpt lat="49.26557" lon="0.25995">
        <ele>116.6</ele>
        <time>2024-10-13T08:49:16Z</time>
      </trkpt>
      <trkpt lat="49.26559" lon="0.25998">
        <ele>116.8</ele>
        <time>2024-10-13T08:49:17Z</time>
      </trkpt>
      <trkpt lat="49.26561" lon="0.26">
        <ele>117</ele>
        <time>2024-10-13T08:49:18Z</time>
      </trkpt>
      <trkpt lat="49.26564" lon="0.26001">
        <ele>117.2</ele>
        <time>2024-10-13T08:49:19Z</time>
      </trkpt>
      <trkpt lat="49.26564" lon="0.26003">
        <ele>117.6</ele>
        <time>2024-10-13T08:49:20Z</time>
      </trkpt>
      <trkpt lat="49.26564" lon="0.26006">
        <ele>117.8</ele>
        <time>2024-10-13T08:49:21Z</time>
      </trkpt>
      <trkpt lat="49.26565" lon="0.26009">
        <ele>118</ele>
        <time>2024-10-13T08:49:22Z</time>
      </trkpt>
      <trkpt lat="49.26567" lon="0.26011">
        <ele>118.2</ele>
        <time>2024-10-13T08:49:23Z</time>
      </trkpt>
      <trkpt lat="49.26569" lon="0.26014">
        <ele>118.6</ele>
        <time>2024-10-13T08:49:24Z</time>
      </trkpt>
      <trkpt lat="49.2657" lon="0.26016">
        <ele>118.8</ele>
        <time>2024-10-13T08:49:25Z</time>
      </trkpt>
      <trkpt lat="49.26572" lon="0.26018">
        <ele>119.2</ele>
        <time>2024-10-13T08:49:26Z</time>
      </trkpt>
      <trkpt lat="49.26573" lon="0.2602">
        <ele>119.2</ele>
        <time>2024-10-13T08:49:27Z</time>
      </trkpt>
      <trkpt lat="49.26575" lon="0.26022">
        <ele>119.8</ele>
        <time>2024-10-13T08:49:28Z</time>
      </trkpt>
      <trkpt lat="49.26576" lon="0.26024">
        <ele>120</ele>
        <time>2024-10-13T08:49:29Z</time>
      </trkpt>
      <trkpt lat="49.26578" lon="0.26026">
        <ele>120.4</ele>
        <time>2024-10-13T08:49:30Z</time>
      </trkpt>
      <trkpt lat="49.2658" lon="0.26028">
        <ele>120.4</ele>
        <time>2024-10-13T08:49:31Z</time>
      </trkpt>
      <trkpt lat="49.26582" lon="0.26031">
        <ele>120.8</ele>
        <time>2024-10-13T08:49:32Z</time>
      </trkpt>
      <trkpt lat="49.26584" lon="0.26033">
        <ele>121</ele>
        <time>2024-10-13T08:49:33Z</time>
      </trkpt>
      <trkpt lat="49.26587" lon="0.26035">
        <ele>121.2</ele>
        <time>2024-10-13T08:49:34Z</time>
      </trkpt>
      <trkpt lat="49.26589" lon="0.26037">
        <ele>121.2</ele>
        <time>2024-10-13T08:49:35Z</time>
      </trkpt>
      <trkpt lat="49.26591" lon="0.26039">
        <ele>121.6</ele>
        <time>2024-10-13T08:49:36Z</time>
      </trkpt>
      <trkpt lat="49.26594" lon="0.2604">
        <ele>121.8</ele>
        <time>2024-10-13T08:49:37Z</time>
      </trkpt>
      <trkpt lat="49.26597" lon="0.26042">
        <ele>121.8</ele>
        <time>2024-10-13T08:49:38Z</time>
      </trkpt>
      <trkpt lat="49.266" lon="0.26043">
        <ele>122</ele>
        <time>2024-10-13T08:49:39Z</time>
      </trkpt>
      <trkpt lat="49.26603" lon="0.26044">
        <ele>122.2</ele>
        <time>2024-10-13T08:49:40Z</time>
      </trkpt>
      <trkpt lat="49.26605" lon="0.26046">
        <ele>122.4</ele>
        <time>2024-10-13T08:49:41Z</time>
      </trkpt>
      <trkpt lat="49.26606" lon="0.26049">
        <ele>122.6</ele>
        <time>2024-10-13T08:49:42Z</time>
      </trkpt>
      <trkpt lat="49.26608" lon="0.26051">
        <ele>122.8</ele>
        <time>2024-10-13T08:49:43Z</time>
      </trkpt>
      <trkpt lat="49.26609" lon="0.26055">
        <ele>123</ele>
        <time>2024-10-13T08:49:44Z</time>
      </trkpt>
      <trkpt lat="49.26611" lon="0.26057">
        <ele>123.2</ele>
        <time>2024-10-13T08:49:45Z</time>
      </trkpt>
      <trkpt lat="49.26613" lon="0.26061">
        <ele>123.6</ele>
        <time>2024-10-13T08:49:46Z</time>
      </trkpt>
      <trkpt lat="49.26615" lon="0.26064">
        <ele>123.8</ele>
        <time>2024-10-13T08:49:47Z</time>
      </trkpt>
      <trkpt lat="49.26617" lon="0.26066">
        <ele>124</ele>
        <time>2024-10-13T08:49:48Z</time>
      </trkpt>
      <trkpt lat="49.26619" lon="0.26068">
        <ele>124.2</ele>
        <time>2024-10-13T08:49:49Z</time>
      </trkpt>
      <trkpt lat="49.26621" lon="0.2607">
        <ele>124.4</ele>
        <time>2024-10-13T08:49:50Z</time>
      </trkpt>
      <trkpt lat="49.26623" lon="0.26072">
        <ele>124.6</ele>
        <time>2024-10-13T08:49:51Z</time>
      </trkpt>
      <trkpt lat="49.26625" lon="0.26075">
        <ele>124.8</ele>
        <time>2024-10-13T08:49:52Z</time>
      </trkpt>
      <trkpt lat="49.26628" lon="0.26076">
        <ele>125.2</ele>
        <time>2024-10-13T08:49:53Z</time>
      </trkpt>
      <trkpt lat="49.2663" lon="0.2608">
        <ele>125.4</ele>
        <time>2024-10-13T08:49:54Z</time>
      </trkpt>
      <trkpt lat="49.26633" lon="0.26083">
        <ele>125.6</ele>
        <time>2024-10-13T08:49:55Z</time>
      </trkpt>
      <trkpt lat="49.26635" lon="0.26086">
        <ele>125.6</ele>
        <time>2024-10-13T08:49:56Z</time>
      </trkpt>
      <trkpt lat="49.26636" lon="0.26089">
        <ele>125.8</ele>
        <time>2024-10-13T08:49:57Z</time>
      </trkpt>
      <trkpt lat="49.26637" lon="0.26091">
        <ele>126</ele>
        <time>2024-10-13T08:49:58Z</time>
      </trkpt>
      <trkpt lat="49.26639" lon="0.26093">
        <ele>126.2</ele>
        <time>2024-10-13T08:49:59Z</time>
      </trkpt>
      <trkpt lat="49.2664" lon="0.26095">
        <ele>126.4</ele>
        <time>2024-10-13T08:50:00Z</time>
      </trkpt>
      <trkpt lat="49.2664" lon="0.26098">
        <ele>126.8</ele>
        <time>2024-10-13T08:50:01Z</time>
      </trkpt>
      <trkpt lat="49.26641" lon="0.261">
        <ele>127</ele>
        <time>2024-10-13T08:50:02Z</time>
      </trkpt>
      <trkpt lat="49.26642" lon="0.26102">
        <ele>127.2</ele>
        <time>2024-10-13T08:50:03Z</time>
      </trkpt>
      <trkpt lat="49.26643" lon="0.26104">
        <ele>127.4</ele>
        <time>2024-10-13T08:50:04Z</time>
      </trkpt>
      <trkpt lat="49.26644" lon="0.26106">
        <ele>127.6</ele>
        <time>2024-10-13T08:50:05Z</time>
      </trkpt>
      <trkpt lat="49.26645" lon="0.26108">
        <ele>128</ele>
        <time>2024-10-13T08:50:06Z</time>
      </trkpt>
      <trkpt lat="49.26645" lon="0.2611">
        <ele>128</ele>
        <time>2024-10-13T08:50:07Z</time>
      </trkpt>
      <trkpt lat="49.26647" lon="0.26112">
        <ele>128.2</ele>
        <time>2024-10-13T08:50:08Z</time>
      </trkpt>
      <trkpt lat="49.26648" lon="0.26113">
        <ele>128.6</ele>
        <time>2024-10-13T08:50:09Z</time>
      </trkpt>
      <trkpt lat="49.2665" lon="0.26115">
        <ele>128.6</ele>
        <time>2024-10-13T08:50:10Z</time>
      </trkpt>
      <trkpt lat="49.26651" lon="0.26117">
        <ele>128.8</ele>
        <time>2024-10-13T08:50:11Z</time>
      </trkpt>
      <trkpt lat="49.26651" lon="0.26119">
        <ele>129.2</ele>
        <time>2024-10-13T08:50:12Z</time>
      </trkpt>
      <trkpt lat="49.26652" lon="0.26122">
        <ele>129.4</ele>
        <time>2024-10-13T08:50:13Z</time>
      </trkpt>
      <trkpt lat="49.26653" lon="0.26124">
        <ele>129.4</ele>
        <time>2024-10-13T08:50:14Z</time>
      </trkpt>
      <trkpt lat="49.26654" lon="0.26126">
        <ele>129.6</ele>
        <time>2024-10-13T08:50:15Z</time>
      </trkpt>
      <trkpt lat="49.26655" lon="0.26128">
        <ele>129.8</ele>
        <time>2024-10-13T08:50:16Z</time>
      </trkpt>
      <trkpt lat="49.26656" lon="0.2613">
        <ele>129.8</ele>
        <time>2024-10-13T08:50:17Z</time>
      </trkpt>
      <trkpt lat="49.26657" lon="0.26133">
        <ele>130</ele>
        <time>2024-10-13T08:50:18Z</time>
      </trkpt>
      <trkpt lat="49.26657" lon="0.26135">
        <ele>130.2</ele>
        <time>2024-10-13T08:50:19Z</time>
      </trkpt>
      <trkpt lat="49.26657" lon="0.26137">
        <ele>130.4</ele>
        <time>2024-10-13T08:50:20Z</time>
      </trkpt>
      <trkpt lat="49.26658" lon="0.26139">
        <ele>130.6</ele>
        <time>2024-10-13T08:50:21Z</time>
      </trkpt>
      <trkpt lat="49.26658" lon="0.26141">
        <ele>130.8</ele>
        <time>2024-10-13T08:50:22Z</time>
      </trkpt>
      <trkpt lat="49.26659" lon="0.26143">
        <ele>131</ele>
        <time>2024-10-13T08:50:23Z</time>
      </trkpt>
      <trkpt lat="49.26659" lon="0.26145">
        <ele>131.2</ele>
        <time>2024-10-13T08:50:24Z</time>
      </trkpt>
      <trkpt lat="49.2666" lon="0.26147">
        <ele>131.4</ele>
        <time>2024-10-13T08:50:25Z</time>
      </trkpt>
      <trkpt lat="49.26661" lon="0.26149">
        <ele>131.4</ele>
        <time>2024-10-13T08:50:26Z</time>
      </trkpt>
      <trkpt lat="49.26661" lon="0.26151">
        <ele>131.6</ele>
        <time>2024-10-13T08:50:27Z</time>
      </trkpt>
      <trkpt lat="49.26661" lon="0.26153">
        <ele>131.8</ele>
        <time>2024-10-13T08:50:28Z</time>
      </trkpt>
      <trkpt lat="49.26661" lon="0.26156">
        <ele>132.2</ele>
        <time>2024-10-13T08:50:29Z</time>
      </trkpt>
      <trkpt lat="49.26661" lon="0.26159">
        <ele>132.4</ele>
        <time>2024-10-13T08:50:30Z</time>
      </trkpt>
      <trkpt lat="49.26661" lon="0.26162">
        <ele>132.6</ele>
        <time>2024-10-13T08:50:31Z</time>
      </trkpt>
      <trkpt lat="49.26661" lon="0.26164">
        <ele>132.8</ele>
        <time>2024-10-13T08:50:32Z</time>
      </trkpt>
      <trkpt lat="49.26661" lon="0.26167">
        <ele>133</ele>
        <time>2024-10-13T08:50:33Z</time>
      </trkpt>
      <trkpt lat="49.26661" lon="0.2617">
        <ele>133.2</ele>
        <time>2024-10-13T08:50:34Z</time>
      </trkpt>
      <trkpt lat="49.26662" lon="0.26172">
        <ele>133.4</ele>
        <time>2024-10-13T08:50:35Z</time>
      </trkpt>
      <trkpt lat="49.26662" lon="0.26175">
        <ele>133.6</ele>
        <time>2024-10-13T08:50:36Z</time>
      </trkpt>
      <trkpt lat="49.26662" lon="0.26178">
        <ele>133.8</ele>
        <time>2024-10-13T08:50:37Z</time>
      </trkpt>
      <trkpt lat="49.26663" lon="0.2618">
        <ele>134</ele>
        <time>2024-10-13T08:50:38Z</time>
      </trkpt>
      <trkpt lat="49.26661" lon="0.26182">
        <ele>134.2</ele>
        <time>2024-10-13T08:50:39Z</time>
      </trkpt>
      <trkpt lat="49.26661" lon="0.26184">
        <ele>134.4</ele>
        <time>2024-10-13T08:50:40Z</time>
      </trkpt>
      <trkpt lat="49.26662" lon="0.26186">
        <ele>134.6</ele>
        <time>2024-10-13T08:50:41Z</time>
      </trkpt>
      <trkpt lat="49.26662" lon="0.26189">
        <ele>134.6</ele>
        <time>2024-10-13T08:50:42Z</time>
      </trkpt>
      <trkpt lat="49.26662" lon="0.26191">
        <ele>134.8</ele>
        <time>2024-10-13T08:50:43Z</time>
      </trkpt>
      <trkpt lat="49.26662" lon="0.26193">
        <ele>134.8</ele>
        <time>2024-10-13T08:50:44Z</time>
      </trkpt>
      <trkpt lat="49.26662" lon="0.26196">
        <ele>135</ele>
        <time>2024-10-13T08:50:45Z</time>
      </trkpt>
      <trkpt lat="49.26662" lon="0.26198">
        <ele>135.2</ele>
        <time>2024-10-13T08:50:46Z</time>
      </trkpt>
      <trkpt lat="49.26661" lon="0.26201">
        <ele>135.4</ele>
        <time>2024-10-13T08:50:47Z</time>
      </trkpt>
      <trkpt lat="49.26661" lon="0.26203">
        <ele>135.4</ele>
        <time>2024-10-13T08:50:48Z</time>
      </trkpt>
      <trkpt lat="49.26661" lon="0.26206">
        <ele>135.6</ele>
        <time>2024-10-13T08:50:49Z</time>
      </trkpt>
      <trkpt lat="49.26661" lon="0.26208">
        <ele>135.8</ele>
        <time>2024-10-13T08:50:50Z</time>
      </trkpt>
      <trkpt lat="49.2666" lon="0.26211">
        <ele>136</ele>
        <time>2024-10-13T08:50:51Z</time>
      </trkpt>
      <trkpt lat="49.2666" lon="0.26213">
        <ele>136</ele>
        <time>2024-10-13T08:50:52Z</time>
      </trkpt>
      <trkpt lat="49.2666" lon="0.26215">
        <ele>136.2</ele>
        <time>2024-10-13T08:50:53Z</time>
      </trkpt>
      <trkpt lat="49.26659" lon="0.26218">
        <ele>136.4</ele>
        <time>2024-10-13T08:50:54Z</time>
      </trkpt>
      <trkpt lat="49.26659" lon="0.2622">
        <ele>136.6</ele>
        <time>2024-10-13T08:50:55Z</time>
      </trkpt>
      <trkpt lat="49.26659" lon="0.26222">
        <ele>136.8</ele>
        <time>2024-10-13T08:50:56Z</time>
      </trkpt>
      <trkpt lat="49.26659" lon="0.26225">
        <ele>137</ele>
        <time>2024-10-13T08:50:57Z</time>
      </trkpt>
      <trkpt lat="49.26659" lon="0.26227">
        <ele>137.2</ele>
        <time>2024-10-13T08:50:58Z</time>
      </trkpt>
      <trkpt lat="49.26659" lon="0.26229">
        <ele>137.4</ele>
        <time>2024-10-13T08:50:59Z</time>
      </trkpt>
      <trkpt lat="49.2666" lon="0.26232">
        <ele>137.4</ele>
        <time>2024-10-13T08:51:00Z</time>
      </trkpt>
      <trkpt lat="49.2666" lon="0.26234">
        <ele>137.4</ele>
        <time>2024-10-13T08:51:01Z</time>
      </trkpt>
      <trkpt lat="49.26659" lon="0.26237">
        <ele>137.6</ele>
        <time>2024-10-13T08:51:02Z</time>
      </trkpt>
      <trkpt lat="49.26659" lon="0.26239">
        <ele>137.8</ele>
        <time>2024-10-13T08:51:03Z</time>
      </trkpt>
      <trkpt lat="49.26659" lon="0.26242">
        <ele>138</ele>
        <time>2024-10-13T08:51:04Z</time>
      </trkpt>
      <trkpt lat="49.26659" lon="0.26245">
        <ele>138</ele>
        <time>2024-10-13T08:51:05Z</time>
      </trkpt>
      <trkpt lat="49.26658" lon="0.26247">
        <ele>138.2</ele>
        <time>2024-10-13T08:51:06Z</time>
      </trkpt>
      <trkpt lat="49.26658" lon="0.2625">
        <ele>138.4</ele>
        <time>2024-10-13T08:51:07Z</time>
      </trkpt>
      <trkpt lat="49.26658" lon="0.26252">
        <ele>138.6</ele>
        <time>2024-10-13T08:51:08Z</time>
      </trkpt>
      <trkpt lat="49.26659" lon="0.26255">
        <ele>138.8</ele>
        <time>2024-10-13T08:51:09Z</time>
      </trkpt>
      <trkpt lat="49.26659" lon="0.26257">
        <ele>139</ele>
        <time>2024-10-13T08:51:10Z</time>
      </trkpt>
      <trkpt lat="49.26659" lon="0.26259">
        <ele>139.2</ele>
        <time>2024-10-13T08:51:11Z</time>
      </trkpt>
      <trkpt lat="49.26659" lon="0.26261">
        <ele>139.4</ele>
        <time>2024-10-13T08:51:12Z</time>
      </trkpt>
      <trkpt lat="49.26658" lon="0.26263">
        <ele>139.4</ele>
        <time>2024-10-13T08:51:13Z</time>
      </trkpt>
      <trkpt lat="49.26658" lon="0.26265">
        <ele>139.8</ele>
        <time>2024-10-13T08:51:14Z</time>
      </trkpt>
      <trkpt lat="49.26658" lon="0.26268">
        <ele>139.8</ele>
        <time>2024-10-13T08:51:15Z</time>
      </trkpt>
      <trkpt lat="49.26658" lon="0.2627">
        <ele>140</ele>
        <time>2024-10-13T08:51:16Z</time>
      </trkpt>
      <trkpt lat="49.26659" lon="0.26272">
        <ele>140.2</ele>
        <time>2024-10-13T08:51:17Z</time>
      </trkpt>
      <trkpt lat="49.26658" lon="0.26275">
        <ele>140.4</ele>
        <time>2024-10-13T08:51:18Z</time>
      </trkpt>
      <trkpt lat="49.26658" lon="0.26277">
        <ele>140.4</ele>
        <time>2024-10-13T08:51:19Z</time>
      </trkpt>
      <trkpt lat="49.26657" lon="0.2628">
        <ele>140.6</ele>
        <time>2024-10-13T08:51:20Z</time>
      </trkpt>
      <trkpt lat="49.26657" lon="0.26283">
        <ele>140.8</ele>
        <time>2024-10-13T08:51:21Z</time>
      </trkpt>
      <trkpt lat="49.26657" lon="0.26285">
        <ele>140.8</ele>
        <time>2024-10-13T08:51:22Z</time>
      </trkpt>
      <trkpt lat="49.26657" lon="0.26288">
        <ele>140.8</ele>
        <time>2024-10-13T08:51:23Z</time>
      </trkpt>
      <trkpt lat="49.26657" lon="0.2629">
        <ele>141</ele>
        <time>2024-10-13T08:51:24Z</time>
      </trkpt>
      <trkpt lat="49.26657" lon="0.26293">
        <ele>141</ele>
        <time>2024-10-13T08:51:25Z</time>
      </trkpt>
      <trkpt lat="49.26656" lon="0.26296">
        <ele>141.2</ele>
        <time>2024-10-13T08:51:26Z</time>
      </trkpt>
      <trkpt lat="49.26656" lon="0.26299">
        <ele>141.4</ele>
        <time>2024-10-13T08:51:27Z</time>
      </trkpt>
      <trkpt lat="49.26656" lon="0.26302">
        <ele>141.4</ele>
        <time>2024-10-13T08:51:28Z</time>
      </trkpt>
      <trkpt lat="49.26656" lon="0.26304">
        <ele>141.6</ele>
        <time>2024-10-13T08:51:29Z</time>
      </trkpt>
      <trkpt lat="49.26656" lon="0.26307">
        <ele>141.6</ele>
        <time>2024-10-13T08:51:30Z</time>
      </trkpt>
      <trkpt lat="49.26656" lon="0.2631">
        <ele>141.8</ele>
        <time>2024-10-13T08:51:31Z</time>
      </trkpt>
      <trkpt lat="49.26656" lon="0.26313">
        <ele>141.8</ele>
        <time>2024-10-13T08:51:32Z</time>
      </trkpt>
      <trkpt lat="49.26656" lon="0.26316">
        <ele>142</ele>
        <time>2024-10-13T08:51:33Z</time>
      </trkpt>
      <trkpt lat="49.26656" lon="0.26318">
        <ele>142</ele>
        <time>2024-10-13T08:51:34Z</time>
      </trkpt>
      <trkpt lat="49.26656" lon="0.26321">
        <ele>142.2</ele>
        <time>2024-10-13T08:51:35Z</time>
      </trkpt>
      <trkpt lat="49.26656" lon="0.26324">
        <ele>142.2</ele>
        <time>2024-10-13T08:51:36Z</time>
      </trkpt>
      <trkpt lat="49.26656" lon="0.26327">
        <ele>142.4</ele>
        <time>2024-10-13T08:51:37Z</time>
      </trkpt>
      <trkpt lat="49.26656" lon="0.2633">
        <ele>142.4</ele>
        <time>2024-10-13T08:51:38Z</time>
      </trkpt>
      <trkpt lat="49.26656" lon="0.26334">
        <ele>142.6</ele>
        <time>2024-10-13T08:51:39Z</time>
      </trkpt>
      <trkpt lat="49.26656" lon="0.26337">
        <ele>142.6</ele>
        <time>2024-10-13T08:51:40Z</time>
      </trkpt>
      <trkpt lat="49.26656" lon="0.26341">
        <ele>142.8</ele>
        <time>2024-10-13T08:51:41Z</time>
      </trkpt>
      <trkpt lat="49.26656" lon="0.26345">
        <ele>142.8</ele>
        <time>2024-10-13T08:51:42Z</time>
      </trkpt>
      <trkpt lat="49.26657" lon="0.26349">
        <ele>143</ele>
        <time>2024-10-13T08:51:43Z</time>
      </trkpt>
      <trkpt lat="49.26657" lon="0.26353">
        <ele>143</ele>
        <time>2024-10-13T08:51:44Z</time>
      </trkpt>
      <trkpt lat="49.26658" lon="0.26357">
        <ele>143</ele>
        <time>2024-10-13T08:51:45Z</time>
      </trkpt>
      <trkpt lat="49.26658" lon="0.26361">
        <ele>143.2</ele>
        <time>2024-10-13T08:51:46Z</time>
      </trkpt>
      <trkpt lat="49.26658" lon="0.26366">
        <ele>143.2</ele>
        <time>2024-10-13T08:51:47Z</time>
      </trkpt>
      <trkpt lat="49.26659" lon="0.2637">
        <ele>143.2</ele>
        <time>2024-10-13T08:51:48Z</time>
      </trkpt>
      <trkpt lat="49.2666" lon="0.26374">
        <ele>143.2</ele>
        <time>2024-10-13T08:51:49Z</time>
      </trkpt>
      <trkpt lat="49.26661" lon="0.26378">
        <ele>143.2</ele>
        <time>2024-10-13T08:51:50Z</time>
      </trkpt>
      <trkpt lat="49.26662" lon="0.26381">
        <ele>143.4</ele>
        <time>2024-10-13T08:51:51Z</time>
      </trkpt>
      <trkpt lat="49.26664" lon="0.26385">
        <ele>143.4</ele>
        <time>2024-10-13T08:51:52Z</time>
      </trkpt>
      <trkpt lat="49.26665" lon="0.26388">
        <ele>143.4</ele>
        <time>2024-10-13T08:51:53Z</time>
      </trkpt>
      <trkpt lat="49.26667" lon="0.26391">
        <ele>143.4</ele>
        <time>2024-10-13T08:51:54Z</time>
      </trkpt>
      <trkpt lat="49.26669" lon="0.26394">
        <ele>143.4</ele>
        <time>2024-10-13T08:51:55Z</time>
      </trkpt>
      <trkpt lat="49.2667" lon="0.26398">
        <ele>143.4</ele>
        <time>2024-10-13T08:51:56Z</time>
      </trkpt>
      <trkpt lat="49.26672" lon="0.264">
        <ele>143.4</ele>
        <time>2024-10-13T08:51:57Z</time>
      </trkpt>
      <trkpt lat="49.26674" lon="0.26403">
        <ele>143.4</ele>
        <time>2024-10-13T08:51:58Z</time>
      </trkpt>
      <trkpt lat="49.26676" lon="0.26407">
        <ele>143.4</ele>
        <time>2024-10-13T08:51:59Z</time>
      </trkpt>
      <trkpt lat="49.26678" lon="0.2641">
        <ele>143.4</ele>
        <time>2024-10-13T08:52:00Z</time>
      </trkpt>
      <trkpt lat="49.2668" lon="0.26413">
        <ele>143.2</ele>
        <time>2024-10-13T08:52:01Z</time>
      </trkpt>
      <trkpt lat="49.26682" lon="0.26416">
        <ele>143.2</ele>
        <time>2024-10-13T08:52:02Z</time>
      </trkpt>
      <trkpt lat="49.26685" lon="0.26419">
        <ele>143.2</ele>
        <time>2024-10-13T08:52:03Z</time>
      </trkpt>
      <trkpt lat="49.26687" lon="0.26421">
        <ele>143</ele>
        <time>2024-10-13T08:52:04Z</time>
      </trkpt>
      <trkpt lat="49.2669" lon="0.26424">
        <ele>143</ele>
        <time>2024-10-13T08:52:05Z</time>
      </trkpt>
      <trkpt lat="49.26693" lon="0.26426">
        <ele>143</ele>
        <time>2024-10-13T08:52:06Z</time>
      </trkpt>
      <trkpt lat="49.26696" lon="0.26427">
        <ele>143</ele>
        <time>2024-10-13T08:52:07Z</time>
      </trkpt>
      <trkpt lat="49.26698" lon="0.26428">
        <ele>143</ele>
        <time>2024-10-13T08:52:08Z</time>
      </trkpt>
      <trkpt lat="49.26701" lon="0.2643">
        <ele>143</ele>
        <time>2024-10-13T08:52:09Z</time>
      </trkpt>
      <trkpt lat="49.26703" lon="0.26431">
        <ele>143</ele>
        <time>2024-10-13T08:52:10Z</time>
      </trkpt>
      <trkpt lat="49.26705" lon="0.26432">
        <ele>143</ele>
        <time>2024-10-13T08:52:11Z</time>
      </trkpt>
      <trkpt lat="49.26707" lon="0.26434">
        <ele>143</ele>
        <time>2024-10-13T08:52:12Z</time>
      </trkpt>
      <trkpt lat="49.2671" lon="0.26435">
        <ele>143</ele>
        <time>2024-10-13T08:52:13Z</time>
      </trkpt>
      <trkpt lat="49.26713" lon="0.26435">
        <ele>143</ele>
        <time>2024-10-13T08:52:14Z</time>
      </trkpt>
      <trkpt lat="49.26716" lon="0.26436">
        <ele>143</ele>
        <time>2024-10-13T08:52:15Z</time>
      </trkpt>
      <trkpt lat="49.26719" lon="0.26436">
        <ele>143</ele>
        <time>2024-10-13T08:52:16Z</time>
      </trkpt>
      <trkpt lat="49.26722" lon="0.26437">
        <ele>143.2</ele>
        <time>2024-10-13T08:52:17Z</time>
      </trkpt>
      <trkpt lat="49.26725" lon="0.26437">
        <ele>143.2</ele>
        <time>2024-10-13T08:52:18Z</time>
      </trkpt>
      <trkpt lat="49.26728" lon="0.26437">
        <ele>143.2</ele>
        <time>2024-10-13T08:52:19Z</time>
      </trkpt>
      <trkpt lat="49.26731" lon="0.26437">
        <ele>143.2</ele>
        <time>2024-10-13T08:52:20Z</time>
      </trkpt>
      <trkpt lat="49.26734" lon="0.26437">
        <ele>143.2</ele>
        <time>2024-10-13T08:52:21Z</time>
      </trkpt>
      <trkpt lat="49.26737" lon="0.26436">
        <ele>143.4</ele>
        <time>2024-10-13T08:52:22Z</time>
      </trkpt>
      <trkpt lat="49.2674" lon="0.26435">
        <ele>143.4</ele>
        <time>2024-10-13T08:52:23Z</time>
      </trkpt>
      <trkpt lat="49.26743" lon="0.26435">
        <ele>143.4</ele>
        <time>2024-10-13T08:52:24Z</time>
      </trkpt>
      <trkpt lat="49.26745" lon="0.26434">
        <ele>143.4</ele>
        <time>2024-10-13T08:52:25Z</time>
      </trkpt>
      <trkpt lat="49.26748" lon="0.26434">
        <ele>143.6</ele>
        <time>2024-10-13T08:52:26Z</time>
      </trkpt>
      <trkpt lat="49.26751" lon="0.26433">
        <ele>143.6</ele>
        <time>2024-10-13T08:52:27Z</time>
      </trkpt>
      <trkpt lat="49.26754" lon="0.26432">
        <ele>143.6</ele>
        <time>2024-10-13T08:52:28Z</time>
      </trkpt>
      <trkpt lat="49.26757" lon="0.26432">
        <ele>143.8</ele>
        <time>2024-10-13T08:52:29Z</time>
      </trkpt>
      <trkpt lat="49.2676" lon="0.26432">
        <ele>143.8</ele>
        <time>2024-10-13T08:52:30Z</time>
      </trkpt>
      <trkpt lat="49.26763" lon="0.26431">
        <ele>144</ele>
        <time>2024-10-13T08:52:31Z</time>
      </trkpt>
      <trkpt lat="49.26765" lon="0.2643">
        <ele>144</ele>
        <time>2024-10-13T08:52:32Z</time>
      </trkpt>
      <trkpt lat="49.26768" lon="0.2643">
        <ele>144</ele>
        <time>2024-10-13T08:52:33Z</time>
      </trkpt>
      <trkpt lat="49.26771" lon="0.26429">
        <ele>144.2</ele>
        <time>2024-10-13T08:52:34Z</time>
      </trkpt>
      <trkpt lat="49.26774" lon="0.26428">
        <ele>144.2</ele>
        <time>2024-10-13T08:52:35Z</time>
      </trkpt>
      <trkpt lat="49.26777" lon="0.26428">
        <ele>144.2</ele>
        <time>2024-10-13T08:52:36Z</time>
      </trkpt>
      <trkpt lat="49.2678" lon="0.26428">
        <ele>144.4</ele>
        <time>2024-10-13T08:52:37Z</time>
      </trkpt>
      <trkpt lat="49.26783" lon="0.26427">
        <ele>144.4</ele>
        <time>2024-10-13T08:52:38Z</time>
      </trkpt>
      <trkpt lat="49.26786" lon="0.26426">
        <ele>144.6</ele>
        <time>2024-10-13T08:52:39Z</time>
      </trkpt>
      <trkpt lat="49.2679" lon="0.26425">
        <ele>144.6</ele>
        <time>2024-10-13T08:52:40Z</time>
      </trkpt>
      <trkpt lat="49.26793" lon="0.26424">
        <ele>144.8</ele>
        <time>2024-10-13T08:52:41Z</time>
      </trkpt>
      <trkpt lat="49.26798" lon="0.26422">
        <ele>145</ele>
        <time>2024-10-13T08:52:42Z</time>
      </trkpt>
      <trkpt lat="49.26802" lon="0.26422">
        <ele>145</ele>
        <time>2024-10-13T08:52:43Z</time>
      </trkpt>
      <trkpt lat="49.26805" lon="0.26422">
        <ele>145.2</ele>
        <time>2024-10-13T08:52:44Z</time>
      </trkpt>
      <trkpt lat="49.26809" lon="0.26421">
        <ele>145.2</ele>
        <time>2024-10-13T08:52:45Z</time>
      </trkpt>
      <trkpt lat="49.26812" lon="0.2642">
        <ele>145.4</ele>
        <time>2024-10-13T08:52:46Z</time>
      </trkpt>
      <trkpt lat="49.26816" lon="0.2642">
        <ele>145.4</ele>
        <time>2024-10-13T08:52:47Z</time>
      </trkpt>
      <trkpt lat="49.26821" lon="0.26418">
        <ele>145.4</ele>
        <time>2024-10-13T08:52:48Z</time>
      </trkpt>
      <trkpt lat="49.26825" lon="0.26417">
        <ele>145.6</ele>
        <time>2024-10-13T08:52:49Z</time>
      </trkpt>
      <trkpt lat="49.2683" lon="0.26415">
        <ele>145.6</ele>
        <time>2024-10-13T08:52:50Z</time>
      </trkpt>
      <trkpt lat="49.26834" lon="0.26414">
        <ele>145.8</ele>
        <time>2024-10-13T08:52:51Z</time>
      </trkpt>
      <trkpt lat="49.26837" lon="0.26414">
        <ele>145.8</ele>
        <time>2024-10-13T08:52:52Z</time>
      </trkpt>
      <trkpt lat="49.26841" lon="0.26413">
        <ele>146</ele>
        <time>2024-10-13T08:52:53Z</time>
      </trkpt>
      <trkpt lat="49.26846" lon="0.26412">
        <ele>146</ele>
        <time>2024-10-13T08:52:54Z</time>
      </trkpt>
      <trkpt lat="49.26851" lon="0.2641">
        <ele>146</ele>
        <time>2024-10-13T08:52:55Z</time>
      </trkpt>
      <trkpt lat="49.26858" lon="0.2641">
        <ele>146</ele>
        <time>2024-10-13T08:52:56Z</time>
      </trkpt>
      <trkpt lat="49.26863" lon="0.26408">
        <ele>146</ele>
        <time>2024-10-13T08:52:57Z</time>
      </trkpt>
      <trkpt lat="49.26869" lon="0.26407">
        <ele>146</ele>
        <time>2024-10-13T08:52:58Z</time>
      </trkpt>
      <trkpt lat="49.26874" lon="0.26406">
        <ele>146</ele>
        <time>2024-10-13T08:52:59Z</time>
      </trkpt>
      <trkpt lat="49.26877" lon="0.26405">
        <ele>146</ele>
        <time>2024-10-13T08:53:00Z</time>
      </trkpt>
      <trkpt lat="49.26882" lon="0.26404">
        <ele>146.2</ele>
        <time>2024-10-13T08:53:01Z</time>
      </trkpt>
      <trkpt lat="49.26886" lon="0.26401">
        <ele>146.2</ele>
        <time>2024-10-13T08:53:02Z</time>
      </trkpt>
      <trkpt lat="49.26889" lon="0.26399">
        <ele>146.2</ele>
        <time>2024-10-13T08:53:03Z</time>
      </trkpt>
      <trkpt lat="49.26894" lon="0.26398">
        <ele>146.2</ele>
        <time>2024-10-13T08:53:04Z</time>
      </trkpt>
      <trkpt lat="49.26899" lon="0.26397">
        <ele>146.2</ele>
        <time>2024-10-13T08:53:05Z</time>
      </trkpt>
      <trkpt lat="49.26904" lon="0.26395">
        <ele>146.4</ele>
        <time>2024-10-13T08:53:06Z</time>
      </trkpt>
      <trkpt lat="49.26909" lon="0.26394">
        <ele>146.4</ele>
        <time>2024-10-13T08:53:07Z</time>
      </trkpt>
      <trkpt lat="49.26915" lon="0.26392">
        <ele>146.4</ele>
        <time>2024-10-13T08:53:08Z</time>
      </trkpt>
      <trkpt lat="49.2692" lon="0.2639">
        <ele>146.4</ele>
        <time>2024-10-13T08:53:09Z</time>
      </trkpt>
      <trkpt lat="49.26925" lon="0.26389">
        <ele>146.4</ele>
        <time>2024-10-13T08:53:10Z</time>
      </trkpt>
      <trkpt lat="49.26931" lon="0.26387">
        <ele>146.4</ele>
        <time>2024-10-13T08:53:11Z</time>
      </trkpt>
      <trkpt lat="49.26936" lon="0.26385">
        <ele>146.4</ele>
        <time>2024-10-13T08:53:12Z</time>
      </trkpt>
      <trkpt lat="49.26942" lon="0.26384">
        <ele>146.4</ele>
        <time>2024-10-13T08:53:13Z</time>
      </trkpt>
      <trkpt lat="49.26947" lon="0.26382">
        <ele>146.4</ele>
        <time>2024-10-13T08:53:14Z</time>
      </trkpt>
      <trkpt lat="49.26953" lon="0.26379">
        <ele>146.4</ele>
        <time>2024-10-13T08:53:15Z</time>
      </trkpt>
      <trkpt lat="49.26959" lon="0.26378">
        <ele>146.6</ele>
        <time>2024-10-13T08:53:16Z</time>
      </trkpt>
      <trkpt lat="49.26964" lon="0.26376">
        <ele>146.6</ele>
        <time>2024-10-13T08:53:17Z</time>
      </trkpt>
      <trkpt lat="49.2697" lon="0.26375">
        <ele>146.6</ele>
        <time>2024-10-13T08:53:18Z</time>
      </trkpt>
      <trkpt lat="49.26976" lon="0.26373">
        <ele>146.6</ele>
        <time>2024-10-13T08:53:19Z</time>
      </trkpt>
      <trkpt lat="49.26982" lon="0.26371">
        <ele>146.6</ele>
        <time>2024-10-13T08:53:20Z</time>
      </trkpt>
      <trkpt lat="49.26987" lon="0.2637">
        <ele>146.6</ele>
        <time>2024-10-13T08:53:21Z</time>
      </trkpt>
      <trkpt lat="49.26993" lon="0.26368">
        <ele>146.6</ele>
        <time>2024-10-13T08:53:22Z</time>
      </trkpt>
      <trkpt lat="49.26999" lon="0.26366">
        <ele>146.6</ele>
        <time>2024-10-13T08:53:23Z</time>
      </trkpt>
      <trkpt lat="49.27004" lon="0.26364">
        <ele>146.6</ele>
        <time>2024-10-13T08:53:24Z</time>
      </trkpt>
      <trkpt lat="49.2701" lon="0.26362">
        <ele>146.6</ele>
        <time>2024-10-13T08:53:25Z</time>
      </trkpt>
      <trkpt lat="49.27016" lon="0.2636">
        <ele>146.6</ele>
        <time>2024-10-13T08:53:26Z</time>
      </trkpt>
      <trkpt lat="49.27022" lon="0.26358">
        <ele>146.6</ele>
        <time>2024-10-13T08:53:27Z</time>
      </trkpt>
      <trkpt lat="49.27027" lon="0.26357">
        <ele>146.6</ele>
        <time>2024-10-13T08:53:28Z</time>
      </trkpt>
      <trkpt lat="49.27032" lon="0.26355">
        <ele>146.4</ele>
        <time>2024-10-13T08:53:29Z</time>
      </trkpt>
      <trkpt lat="49.27038" lon="0.26353">
        <ele>146.4</ele>
        <time>2024-10-13T08:53:30Z</time>
      </trkpt>
      <trkpt lat="49.27042" lon="0.26352">
        <ele>146.4</ele>
        <time>2024-10-13T08:53:31Z</time>
      </trkpt>
      <trkpt lat="49.27046" lon="0.26352">
        <ele>146.2</ele>
        <time>2024-10-13T08:53:32Z</time>
      </trkpt>
      <trkpt lat="49.27049" lon="0.26351">
        <ele>146</ele>
        <time>2024-10-13T08:53:33Z</time>
      </trkpt>
      <trkpt lat="49.27051" lon="0.26351">
        <ele>146</ele>
        <time>2024-10-13T08:53:34Z</time>
      </trkpt>
      <trkpt lat="49.27053" lon="0.2635">
        <ele>145.8</ele>
        <time>2024-10-13T08:53:35Z</time>
      </trkpt>
      <trkpt lat="49.27055" lon="0.2635">
        <ele>145.8</ele>
        <time>2024-10-13T08:53:36Z</time>
      </trkpt>
      <trkpt lat="49.27056" lon="0.2635">
        <ele>145.8</ele>
        <time>2024-10-13T08:53:37Z</time>
      </trkpt>
      <trkpt lat="49.27056" lon="0.2635">
        <ele>145.8</ele>
        <time>2024-10-13T08:53:38Z</time>
      </trkpt>
      <trkpt lat="49.27056" lon="0.2635">
        <ele>145.8</ele>
        <time>2024-10-13T08:53:39Z</time>
      </trkpt>
      <trkpt lat="49.27061" lon="0.26348">
        <ele>146</ele>
        <time>2024-10-13T08:53:47Z</time>
      </trkpt>
      <trkpt lat="49.27062" lon="0.26348">
        <ele>146</ele>
        <time>2024-10-13T08:53:48Z</time>
      </trkpt>
      <trkpt lat="49.27064" lon="0.26347">
        <ele>146</ele>
        <time>2024-10-13T08:53:49Z</time>
      </trkpt>
      <trkpt lat="49.27066" lon="0.26345">
        <ele>146</ele>
        <time>2024-10-13T08:53:50Z</time>
      </trkpt>
      <trkpt lat="49.27066" lon="0.26342">
        <ele>146</ele>
        <time>2024-10-13T08:53:51Z</time>
      </trkpt>
      <trkpt lat="49.27067" lon="0.26338">
        <ele>146</ele>
        <time>2024-10-13T08:53:52Z</time>
      </trkpt>
      <trkpt lat="49.27067" lon="0.26334">
        <ele>146</ele>
        <time>2024-10-13T08:53:53Z</time>
      </trkpt>
      <trkpt lat="49.27068" lon="0.26329">
        <ele>146</ele>
        <time>2024-10-13T08:53:54Z</time>
      </trkpt>
      <trkpt lat="49.27069" lon="0.26323">
        <ele>146</ele>
        <time>2024-10-13T08:53:55Z</time>
      </trkpt>
      <trkpt lat="49.2707" lon="0.26318">
        <ele>146</ele>
        <time>2024-10-13T08:53:56Z</time>
      </trkpt>
      <trkpt lat="49.2707" lon="0.26312">
        <ele>146</ele>
        <time>2024-10-13T08:53:57Z</time>
      </trkpt>
      <trkpt lat="49.2707" lon="0.26307">
        <ele>146</ele>
        <time>2024-10-13T08:53:58Z</time>
      </trkpt>
      <trkpt lat="49.27071" lon="0.26301">
        <ele>146</ele>
        <time>2024-10-13T08:53:59Z</time>
      </trkpt>
      <trkpt lat="49.27071" lon="0.26295">
        <ele>146</ele>
        <time>2024-10-13T08:54:00Z</time>
      </trkpt>
      <trkpt lat="49.27072" lon="0.2629">
        <ele>146</ele>
        <time>2024-10-13T08:54:01Z</time>
      </trkpt>
      <trkpt lat="49.27072" lon="0.26284">
        <ele>146</ele>
        <time>2024-10-13T08:54:02Z</time>
      </trkpt>
      <trkpt lat="49.27073" lon="0.2628">
        <ele>146</ele>
        <time>2024-10-13T08:54:03Z</time>
      </trkpt>
      <trkpt lat="49.27074" lon="0.26275">
        <ele>146</ele>
        <time>2024-10-13T08:54:04Z</time>
      </trkpt>
      <trkpt lat="49.27074" lon="0.2627">
        <ele>146</ele>
        <time>2024-10-13T08:54:05Z</time>
      </trkpt>
      <trkpt lat="49.27075" lon="0.26265">
        <ele>146</ele>
        <time>2024-10-13T08:54:06Z</time>
      </trkpt>
      <trkpt lat="49.27075" lon="0.26259">
        <ele>146</ele>
        <time>2024-10-13T08:54:07Z</time>
      </trkpt>
      <trkpt lat="49.27076" lon="0.26254">
        <ele>146</ele>
        <time>2024-10-13T08:54:08Z</time>
      </trkpt>
      <trkpt lat="49.27076" lon="0.26247">
        <ele>146.2</ele>
        <time>2024-10-13T08:54:09Z</time>
      </trkpt>
      <trkpt lat="49.27077" lon="0.26241">
        <ele>146.4</ele>
        <time>2024-10-13T08:54:10Z</time>
      </trkpt>
      <trkpt lat="49.27077" lon="0.26233">
        <ele>146.4</ele>
        <time>2024-10-13T08:54:11Z</time>
      </trkpt>
      <trkpt lat="49.27078" lon="0.26226">
        <ele>146.6</ele>
        <time>2024-10-13T08:54:12Z</time>
      </trkpt>
      <trkpt lat="49.27079" lon="0.26218">
        <ele>146.6</ele>
        <time>2024-10-13T08:54:13Z</time>
      </trkpt>
      <trkpt lat="49.2708" lon="0.26211">
        <ele>146.6</ele>
        <time>2024-10-13T08:54:14Z</time>
      </trkpt>
      <trkpt lat="49.2708" lon="0.26203">
        <ele>146.8</ele>
        <time>2024-10-13T08:54:15Z</time>
      </trkpt>
      <trkpt lat="49.2708" lon="0.26196">
        <ele>146.8</ele>
        <time>2024-10-13T08:54:16Z</time>
      </trkpt>
      <trkpt lat="49.27081" lon="0.26188">
        <ele>146.8</ele>
        <time>2024-10-13T08:54:17Z</time>
      </trkpt>
      <trkpt lat="49.27081" lon="0.2618">
        <ele>146.8</ele>
        <time>2024-10-13T08:54:18Z</time>
      </trkpt>
      <trkpt lat="49.27082" lon="0.26172">
        <ele>147</ele>
        <time>2024-10-13T08:54:19Z</time>
      </trkpt>
      <trkpt lat="49.27082" lon="0.26163">
        <ele>147</ele>
        <time>2024-10-13T08:54:20Z</time>
      </trkpt>
      <trkpt lat="49.27083" lon="0.26155">
        <ele>147</ele>
        <time>2024-10-13T08:54:21Z</time>
      </trkpt>
      <trkpt lat="49.27083" lon="0.26147">
        <ele>147</ele>
        <time>2024-10-13T08:54:22Z</time>
      </trkpt>
      <trkpt lat="49.27084" lon="0.26138">
        <ele>147.2</ele>
        <time>2024-10-13T08:54:23Z</time>
      </trkpt>
      <trkpt lat="49.27084" lon="0.2613">
        <ele>147.2</ele>
        <time>2024-10-13T08:54:24Z</time>
      </trkpt>
      <trkpt lat="49.27085" lon="0.26121">
        <ele>147.2</ele>
        <time>2024-10-13T08:54:25Z</time>
      </trkpt>
      <trkpt lat="49.27085" lon="0.26112">
        <ele>147.2</ele>
        <time>2024-10-13T08:54:26Z</time>
      </trkpt>
      <trkpt lat="49.27086" lon="0.26103">
        <ele>147.2</ele>
        <time>2024-10-13T08:54:27Z</time>
      </trkpt>
      <trkpt lat="49.27086" lon="0.26094">
        <ele>147.2</ele>
        <time>2024-10-13T08:54:28Z</time>
      </trkpt>
      <trkpt lat="49.27087" lon="0.26085">
        <ele>147.2</ele>
        <time>2024-10-13T08:54:29Z</time>
      </trkpt>
      <trkpt lat="49.27087" lon="0.26075">
        <ele>147.2</ele>
        <time>2024-10-13T08:54:30Z</time>
      </trkpt>
      <trkpt lat="49.27088" lon="0.26065">
        <ele>147.2</ele>
        <time>2024-10-13T08:54:31Z</time>
      </trkpt>
      <trkpt lat="49.27088" lon="0.26056">
        <ele>147.2</ele>
        <time>2024-10-13T08:54:32Z</time>
      </trkpt>
      <trkpt lat="49.27088" lon="0.26046">
        <ele>147.2</ele>
        <time>2024-10-13T08:54:33Z</time>
      </trkpt>
      <trkpt lat="49.27089" lon="0.26036">
        <ele>147.2</ele>
        <time>2024-10-13T08:54:34Z</time>
      </trkpt>
      <trkpt lat="49.27089" lon="0.26027">
        <ele>147.2</ele>
        <time>2024-10-13T08:54:35Z</time>
      </trkpt>
      <trkpt lat="49.2709" lon="0.26016">
        <ele>147.2</ele>
        <time>2024-10-13T08:54:36Z</time>
      </trkpt>
      <trkpt lat="49.2709" lon="0.26006">
        <ele>147.2</ele>
        <time>2024-10-13T08:54:37Z</time>
      </trkpt>
      <trkpt lat="49.27091" lon="0.25996">
        <ele>147</ele>
        <time>2024-10-13T08:54:38Z</time>
      </trkpt>
      <trkpt lat="49.27092" lon="0.25986">
        <ele>147</ele>
        <time>2024-10-13T08:54:39Z</time>
      </trkpt>
      <trkpt lat="49.27092" lon="0.25976">
        <ele>146.8</ele>
        <time>2024-10-13T08:54:40Z</time>
      </trkpt>
      <trkpt lat="49.27093" lon="0.25965">
        <ele>146.8</ele>
        <time>2024-10-13T08:54:41Z</time>
      </trkpt>
      <trkpt lat="49.27094" lon="0.25954">
        <ele>146.6</ele>
        <time>2024-10-13T08:54:42Z</time>
      </trkpt>
      <trkpt lat="49.27095" lon="0.25944">
        <ele>146.6</ele>
        <time>2024-10-13T08:54:43Z</time>
      </trkpt>
      <trkpt lat="49.27095" lon="0.25933">
        <ele>146.4</ele>
        <time>2024-10-13T08:54:44Z</time>
      </trkpt>
      <trkpt lat="49.27096" lon="0.25922">
        <ele>146.2</ele>
        <time>2024-10-13T08:54:45Z</time>
      </trkpt>
      <trkpt lat="49.27096" lon="0.25912">
        <ele>146</ele>
        <time>2024-10-13T08:54:46Z</time>
      </trkpt>
      <trkpt lat="49.27096" lon="0.25901">
        <ele>145.8</ele>
        <time>2024-10-13T08:54:47Z</time>
      </trkpt>
      <trkpt lat="49.27096" lon="0.2589">
        <ele>145.8</ele>
        <time>2024-10-13T08:54:48Z</time>
      </trkpt>
      <trkpt lat="49.27096" lon="0.25879">
        <ele>145.6</ele>
        <time>2024-10-13T08:54:49Z</time>
      </trkpt>
      <trkpt lat="49.27097" lon="0.25869">
        <ele>145.6</ele>
        <time>2024-10-13T08:54:50Z</time>
      </trkpt>
      <trkpt lat="49.27097" lon="0.25858">
        <ele>145.6</ele>
        <time>2024-10-13T08:54:51Z</time>
      </trkpt>
      <trkpt lat="49.27097" lon="0.25847">
        <ele>145.4</ele>
        <time>2024-10-13T08:54:52Z</time>
      </trkpt>
      <trkpt lat="49.27097" lon="0.25836">
        <ele>145.4</ele>
        <time>2024-10-13T08:54:53Z</time>
      </trkpt>
      <trkpt lat="49.27098" lon="0.25826">
        <ele>145.4</ele>
        <time>2024-10-13T08:54:54Z</time>
      </trkpt>
      <trkpt lat="49.27098" lon="0.25816">
        <ele>145.4</ele>
        <time>2024-10-13T08:54:55Z</time>
      </trkpt>
      <trkpt lat="49.27098" lon="0.25805">
        <ele>145.2</ele>
        <time>2024-10-13T08:54:56Z</time>
      </trkpt>
      <trkpt lat="49.27099" lon="0.25795">
        <ele>145</ele>
        <time>2024-10-13T08:54:57Z</time>
      </trkpt>
      <trkpt lat="49.27099" lon="0.25785">
        <ele>144.8</ele>
        <time>2024-10-13T08:54:58Z</time>
      </trkpt>
      <trkpt lat="49.27101" lon="0.25775">
        <ele>144.6</ele>
        <time>2024-10-13T08:54:59Z</time>
      </trkpt>
      <trkpt lat="49.27101" lon="0.25764">
        <ele>144.4</ele>
        <time>2024-10-13T08:55:00Z</time>
      </trkpt>
      <trkpt lat="49.27103" lon="0.25752">
        <ele>144.2</ele>
        <time>2024-10-13T08:55:01Z</time>
      </trkpt>
      <trkpt lat="49.27105" lon="0.25742">
        <ele>144.2</ele>
        <time>2024-10-13T08:55:02Z</time>
      </trkpt>
      <trkpt lat="49.27107" lon="0.2573">
        <ele>144</ele>
        <time>2024-10-13T08:55:03Z</time>
      </trkpt>
      <trkpt lat="49.27108" lon="0.25718">
        <ele>143.8</ele>
        <time>2024-10-13T08:55:04Z</time>
      </trkpt>
      <trkpt lat="49.2711" lon="0.25706">
        <ele>143.8</ele>
        <time>2024-10-13T08:55:05Z</time>
      </trkpt>
      <trkpt lat="49.27112" lon="0.25694">
        <ele>143.8</ele>
        <time>2024-10-13T08:55:06Z</time>
      </trkpt>
      <trkpt lat="49.27114" lon="0.25683">
        <ele>143.6</ele>
        <time>2024-10-13T08:55:07Z</time>
      </trkpt>
      <trkpt lat="49.27116" lon="0.25672">
        <ele>143.4</ele>
        <time>2024-10-13T08:55:08Z</time>
      </trkpt>
      <trkpt lat="49.27118" lon="0.25661">
        <ele>143.4</ele>
        <time>2024-10-13T08:55:09Z</time>
      </trkpt>
      <trkpt lat="49.27119" lon="0.25649">
        <ele>143.2</ele>
        <time>2024-10-13T08:55:10Z</time>
      </trkpt>
      <trkpt lat="49.27121" lon="0.25637">
        <ele>143</ele>
        <time>2024-10-13T08:55:11Z</time>
      </trkpt>
      <trkpt lat="49.27122" lon="0.25626">
        <ele>142.8</ele>
        <time>2024-10-13T08:55:12Z</time>
      </trkpt>
      <trkpt lat="49.27124" lon="0.25614">
        <ele>142.8</ele>
        <time>2024-10-13T08:55:13Z</time>
      </trkpt>
      <trkpt lat="49.27126" lon="0.25603">
        <ele>142.6</ele>
        <time>2024-10-13T08:55:14Z</time>
      </trkpt>
      <trkpt lat="49.27127" lon="0.25591">
        <ele>142.4</ele>
        <time>2024-10-13T08:55:15Z</time>
      </trkpt>
      <trkpt lat="49.27129" lon="0.2558">
        <ele>142.2</ele>
        <time>2024-10-13T08:55:16Z</time>
      </trkpt>
      <trkpt lat="49.2713" lon="0.2557">
        <ele>142.2</ele>
        <time>2024-10-13T08:55:17Z</time>
      </trkpt>
      <trkpt lat="49.27131" lon="0.25559">
        <ele>142.2</ele>
        <time>2024-10-13T08:55:18Z</time>
      </trkpt>
      <trkpt lat="49.27133" lon="0.25549">
        <ele>142.2</ele>
        <time>2024-10-13T08:55:19Z</time>
      </trkpt>
      <trkpt lat="49.27136" lon="0.25539">
        <ele>142</ele>
        <time>2024-10-13T08:55:20Z</time>
      </trkpt>
      <trkpt lat="49.27138" lon="0.25529">
        <ele>142</ele>
        <time>2024-10-13T08:55:21Z</time>
      </trkpt>
      <trkpt lat="49.27141" lon="0.25519">
        <ele>141.8</ele>
        <time>2024-10-13T08:55:22Z</time>
      </trkpt>
      <trkpt lat="49.27143" lon="0.25509">
        <ele>141.8</ele>
        <time>2024-10-13T08:55:23Z</time>
      </trkpt>
      <trkpt lat="49.27145" lon="0.25499">
        <ele>141.8</ele>
        <time>2024-10-13T08:55:24Z</time>
      </trkpt>
      <trkpt lat="49.27148" lon="0.25489">
        <ele>141.6</ele>
        <time>2024-10-13T08:55:25Z</time>
      </trkpt>
      <trkpt lat="49.27151" lon="0.25478">
        <ele>141.6</ele>
        <time>2024-10-13T08:55:26Z</time>
      </trkpt>
      <trkpt lat="49.27154" lon="0.25468">
        <ele>141.6</ele>
        <time>2024-10-13T08:55:27Z</time>
      </trkpt>
      <trkpt lat="49.27158" lon="0.25458">
        <ele>141.4</ele>
        <time>2024-10-13T08:55:28Z</time>
      </trkpt>
      <trkpt lat="49.27161" lon="0.25448">
        <ele>141.2</ele>
        <time>2024-10-13T08:55:29Z</time>
      </trkpt>
      <trkpt lat="49.27165" lon="0.25439">
        <ele>141.2</ele>
        <time>2024-10-13T08:55:30Z</time>
      </trkpt>
      <trkpt lat="49.27168" lon="0.25429">
        <ele>141.2</ele>
        <time>2024-10-13T08:55:31Z</time>
      </trkpt>
      <trkpt lat="49.27172" lon="0.25419">
        <ele>141</ele>
        <time>2024-10-13T08:55:32Z</time>
      </trkpt>
      <trkpt lat="49.27175" lon="0.25408">
        <ele>140.8</ele>
        <time>2024-10-13T08:55:33Z</time>
      </trkpt>
      <trkpt lat="49.27179" lon="0.25398">
        <ele>140.8</ele>
        <time>2024-10-13T08:55:34Z</time>
      </trkpt>
      <trkpt lat="49.27182" lon="0.25387">
        <ele>140.6</ele>
        <time>2024-10-13T08:55:35Z</time>
      </trkpt>
      <trkpt lat="49.27185" lon="0.25376">
        <ele>140.4</ele>
        <time>2024-10-13T08:55:36Z</time>
      </trkpt>
      <trkpt lat="49.27187" lon="0.25365">
        <ele>140.4</ele>
        <time>2024-10-13T08:55:37Z</time>
      </trkpt>
      <trkpt lat="49.2719" lon="0.25353">
        <ele>140</ele>
        <time>2024-10-13T08:55:38Z</time>
      </trkpt>
      <trkpt lat="49.27192" lon="0.25342">
        <ele>139.8</ele>
        <time>2024-10-13T08:55:39Z</time>
      </trkpt>
      <trkpt lat="49.27194" lon="0.2533">
        <ele>139.6</ele>
        <time>2024-10-13T08:55:40Z</time>
      </trkpt>
      <trkpt lat="49.27196" lon="0.25318">
        <ele>139.6</ele>
        <time>2024-10-13T08:55:41Z</time>
      </trkpt>
      <trkpt lat="49.27199" lon="0.25307">
        <ele>139.4</ele>
        <time>2024-10-13T08:55:42Z</time>
      </trkpt>
      <trkpt lat="49.27201" lon="0.25295">
        <ele>139.2</ele>
        <time>2024-10-13T08:55:43Z</time>
      </trkpt>
      <trkpt lat="49.27204" lon="0.25284">
        <ele>139</ele>
        <time>2024-10-13T08:55:44Z</time>
      </trkpt>
      <trkpt lat="49.27207" lon="0.25272">
        <ele>139</ele>
        <time>2024-10-13T08:55:45Z</time>
      </trkpt>
      <trkpt lat="49.2721" lon="0.2526">
        <ele>138.8</ele>
        <time>2024-10-13T08:55:46Z</time>
      </trkpt>
      <trkpt lat="49.27212" lon="0.25249">
        <ele>138.6</ele>
        <time>2024-10-13T08:55:47Z</time>
      </trkpt>
      <trkpt lat="49.27216" lon="0.25238">
        <ele>138.6</ele>
        <time>2024-10-13T08:55:48Z</time>
      </trkpt>
      <trkpt lat="49.2722" lon="0.25228">
        <ele>138.4</ele>
        <time>2024-10-13T08:55:49Z</time>
      </trkpt>
      <trkpt lat="49.27224" lon="0.25216">
        <ele>138.4</ele>
        <time>2024-10-13T08:55:50Z</time>
      </trkpt>
      <trkpt lat="49.27228" lon="0.25205">
        <ele>138.2</ele>
        <time>2024-10-13T08:55:51Z</time>
      </trkpt>
      <trkpt lat="49.27232" lon="0.25193">
        <ele>138.2</ele>
        <time>2024-10-13T08:55:52Z</time>
      </trkpt>
      <trkpt lat="49.27236" lon="0.25181">
        <ele>138</ele>
        <time>2024-10-13T08:55:53Z</time>
      </trkpt>
      <trkpt lat="49.27241" lon="0.2517">
        <ele>137.8</ele>
        <time>2024-10-13T08:55:54Z</time>
      </trkpt>
      <trkpt lat="49.27245" lon="0.2516">
        <ele>137.6</ele>
        <time>2024-10-13T08:55:55Z</time>
      </trkpt>
      <trkpt lat="49.27249" lon="0.25148">
        <ele>137.2</ele>
        <time>2024-10-13T08:55:56Z</time>
      </trkpt>
      <trkpt lat="49.27254" lon="0.25137">
        <ele>137</ele>
        <time>2024-10-13T08:55:57Z</time>
      </trkpt>
      <trkpt lat="49.27259" lon="0.25127">
        <ele>136.8</ele>
        <time>2024-10-13T08:55:58Z</time>
      </trkpt>
      <trkpt lat="49.27264" lon="0.25116">
        <ele>136.6</ele>
        <time>2024-10-13T08:55:59Z</time>
      </trkpt>
      <trkpt lat="49.27269" lon="0.25107">
        <ele>136.4</ele>
        <time>2024-10-13T08:56:00Z</time>
      </trkpt>
      <trkpt lat="49.27275" lon="0.25098">
        <ele>136.2</ele>
        <time>2024-10-13T08:56:01Z</time>
      </trkpt>
      <trkpt lat="49.27281" lon="0.2509">
        <ele>136</ele>
        <time>2024-10-13T08:56:02Z</time>
      </trkpt>
      <trkpt lat="49.27286" lon="0.25082">
        <ele>135.8</ele>
        <time>2024-10-13T08:56:03Z</time>
      </trkpt>
      <trkpt lat="49.27291" lon="0.25073">
        <ele>135.6</ele>
        <time>2024-10-13T08:56:04Z</time>
      </trkpt>
      <trkpt lat="49.27297" lon="0.25065">
        <ele>135.6</ele>
        <time>2024-10-13T08:56:05Z</time>
      </trkpt>
      <trkpt lat="49.27301" lon="0.25056">
        <ele>135.6</ele>
        <time>2024-10-13T08:56:06Z</time>
      </trkpt>
      <trkpt lat="49.27306" lon="0.25048">
        <ele>135.6</ele>
        <time>2024-10-13T08:56:07Z</time>
      </trkpt>
      <trkpt lat="49.27311" lon="0.2504">
        <ele>135.6</ele>
        <time>2024-10-13T08:56:08Z</time>
      </trkpt>
      <trkpt lat="49.27316" lon="0.25032">
        <ele>135.6</ele>
        <time>2024-10-13T08:56:09Z</time>
      </trkpt>
      <trkpt lat="49.27321" lon="0.25024">
        <ele>135.4</ele>
        <time>2024-10-13T08:56:10Z</time>
      </trkpt>
      <trkpt lat="49.27326" lon="0.25016">
        <ele>135.4</ele>
        <time>2024-10-13T08:56:11Z</time>
      </trkpt>
      <trkpt lat="49.27332" lon="0.25008">
        <ele>135.4</ele>
        <time>2024-10-13T08:56:12Z</time>
      </trkpt>
      <trkpt lat="49.27337" lon="0.25">
        <ele>135.4</ele>
        <time>2024-10-13T08:56:13Z</time>
      </trkpt>
      <trkpt lat="49.27343" lon="0.24992">
        <ele>135.4</ele>
        <time>2024-10-13T08:56:14Z</time>
      </trkpt>
      <trkpt lat="49.27348" lon="0.24985">
        <ele>135.4</ele>
        <time>2024-10-13T08:56:15Z</time>
      </trkpt>
      <trkpt lat="49.27354" lon="0.24976">
        <ele>135.4</ele>
        <time>2024-10-13T08:56:16Z</time>
      </trkpt>
      <trkpt lat="49.27359" lon="0.24968">
        <ele>135.4</ele>
        <time>2024-10-13T08:56:17Z</time>
      </trkpt>
      <trkpt lat="49.27365" lon="0.2496">
        <ele>135.4</ele>
        <time>2024-10-13T08:56:18Z</time>
      </trkpt>
      <trkpt lat="49.27371" lon="0.24952">
        <ele>135.4</ele>
        <time>2024-10-13T08:56:19Z</time>
      </trkpt>
      <trkpt lat="49.27377" lon="0.24944">
        <ele>135.4</ele>
        <time>2024-10-13T08:56:20Z</time>
      </trkpt>
      <trkpt lat="49.27384" lon="0.24937">
        <ele>135.4</ele>
        <time>2024-10-13T08:56:21Z</time>
      </trkpt>
      <trkpt lat="49.2739" lon="0.2493">
        <ele>135.6</ele>
        <time>2024-10-13T08:56:22Z</time>
      </trkpt>
      <trkpt lat="49.27397" lon="0.24922">
        <ele>135.6</ele>
        <time>2024-10-13T08:56:23Z</time>
      </trkpt>
      <trkpt lat="49.27403" lon="0.24915">
        <ele>135.6</ele>
        <time>2024-10-13T08:56:24Z</time>
      </trkpt>
      <trkpt lat="49.2741" lon="0.24908">
        <ele>135.6</ele>
        <time>2024-10-13T08:56:25Z</time>
      </trkpt>
      <trkpt lat="49.27416" lon="0.24901">
        <ele>135.6</ele>
        <time>2024-10-13T08:56:26Z</time>
      </trkpt>
      <trkpt lat="49.27424" lon="0.24893">
        <ele>135.6</ele>
        <time>2024-10-13T08:56:27Z</time>
      </trkpt>
      <trkpt lat="49.27431" lon="0.24886">
        <ele>135.6</ele>
        <time>2024-10-13T08:56:28Z</time>
      </trkpt>
      <trkpt lat="49.27438" lon="0.24878">
        <ele>135.6</ele>
        <time>2024-10-13T08:56:29Z</time>
      </trkpt>
      <trkpt lat="49.27445" lon="0.24869">
        <ele>135.6</ele>
        <time>2024-10-13T08:56:30Z</time>
      </trkpt>
      <trkpt lat="49.27452" lon="0.2486">
        <ele>135.4</ele>
        <time>2024-10-13T08:56:31Z</time>
      </trkpt>
      <trkpt lat="49.27459" lon="0.24851">
        <ele>135.4</ele>
        <time>2024-10-13T08:56:32Z</time>
      </trkpt>
      <trkpt lat="49.27466" lon="0.24841">
        <ele>135.4</ele>
        <time>2024-10-13T08:56:33Z</time>
      </trkpt>
      <trkpt lat="49.27473" lon="0.2483">
        <ele>135.4</ele>
        <time>2024-10-13T08:56:34Z</time>
      </trkpt>
      <trkpt lat="49.27479" lon="0.2482">
        <ele>135.4</ele>
        <time>2024-10-13T08:56:35Z</time>
      </trkpt>
      <trkpt lat="49.27486" lon="0.24811">
        <ele>135.2</ele>
        <time>2024-10-13T08:56:36Z</time>
      </trkpt>
      <trkpt lat="49.27492" lon="0.24803">
        <ele>135.2</ele>
        <time>2024-10-13T08:56:37Z</time>
      </trkpt>
      <trkpt lat="49.27499" lon="0.24796">
        <ele>135.2</ele>
        <time>2024-10-13T08:56:38Z</time>
      </trkpt>
      <trkpt lat="49.27507" lon="0.24789">
        <ele>135.2</ele>
        <time>2024-10-13T08:56:39Z</time>
      </trkpt>
      <trkpt lat="49.27514" lon="0.24783">
        <ele>135.2</ele>
        <time>2024-10-13T08:56:40Z</time>
      </trkpt>
      <trkpt lat="49.27522" lon="0.24777">
        <ele>135.2</ele>
        <time>2024-10-13T08:56:41Z</time>
      </trkpt>
      <trkpt lat="49.27529" lon="0.24771">
        <ele>135.2</ele>
        <time>2024-10-13T08:56:42Z</time>
      </trkpt>
      <trkpt lat="49.27537" lon="0.24764">
        <ele>135.2</ele>
        <time>2024-10-13T08:56:43Z</time>
      </trkpt>
      <trkpt lat="49.27545" lon="0.24757">
        <ele>135.2</ele>
        <time>2024-10-13T08:56:44Z</time>
      </trkpt>
      <trkpt lat="49.27553" lon="0.2475">
        <ele>135.2</ele>
        <time>2024-10-13T08:56:45Z</time>
      </trkpt>
      <trkpt lat="49.27561" lon="0.24744">
        <ele>135.4</ele>
        <time>2024-10-13T08:56:46Z</time>
      </trkpt>
      <trkpt lat="49.2757" lon="0.24737">
        <ele>135.4</ele>
        <time>2024-10-13T08:56:47Z</time>
      </trkpt>
      <trkpt lat="49.27578" lon="0.24732">
        <ele>135.4</ele>
        <time>2024-10-13T08:56:48Z</time>
      </trkpt>
      <trkpt lat="49.27586" lon="0.24727">
        <ele>135.6</ele>
        <time>2024-10-13T08:56:49Z</time>
      </trkpt>
      <trkpt lat="49.27594" lon="0.24722">
        <ele>135.6</ele>
        <time>2024-10-13T08:56:50Z</time>
      </trkpt>
      <trkpt lat="49.27603" lon="0.24718">
        <ele>135.6</ele>
        <time>2024-10-13T08:56:51Z</time>
      </trkpt>
      <trkpt lat="49.27612" lon="0.24713">
        <ele>135.6</ele>
        <time>2024-10-13T08:56:52Z</time>
      </trkpt>
      <trkpt lat="49.27621" lon="0.24708">
        <ele>135.6</ele>
        <time>2024-10-13T08:56:53Z</time>
      </trkpt>
      <trkpt lat="49.2763" lon="0.24703">
        <ele>135.6</ele>
        <time>2024-10-13T08:56:54Z</time>
      </trkpt>
      <trkpt lat="49.27638" lon="0.24699">
        <ele>135.6</ele>
        <time>2024-10-13T08:56:55Z</time>
      </trkpt>
      <trkpt lat="49.27647" lon="0.24694">
        <ele>135.6</ele>
        <time>2024-10-13T08:56:56Z</time>
      </trkpt>
      <trkpt lat="49.27655" lon="0.2469">
        <ele>135.6</ele>
        <time>2024-10-13T08:56:57Z</time>
      </trkpt>
      <trkpt lat="49.27663" lon="0.24687">
        <ele>135.6</ele>
        <time>2024-10-13T08:56:58Z</time>
      </trkpt>
      <trkpt lat="49.27671" lon="0.24684">
        <ele>135.4</ele>
        <time>2024-10-13T08:56:59Z</time>
      </trkpt>
      <trkpt lat="49.27679" lon="0.24681">
        <ele>135.4</ele>
        <time>2024-10-13T08:57:00Z</time>
      </trkpt>
      <trkpt lat="49.27687" lon="0.24677">
        <ele>135.2</ele>
        <time>2024-10-13T08:57:01Z</time>
      </trkpt>
      <trkpt lat="49.27695" lon="0.24675">
        <ele>135.2</ele>
        <time>2024-10-13T08:57:02Z</time>
      </trkpt>
      <trkpt lat="49.27703" lon="0.24671">
        <ele>135.2</ele>
        <time>2024-10-13T08:57:03Z</time>
      </trkpt>
      <trkpt lat="49.27711" lon="0.24668">
        <ele>135</ele>
        <time>2024-10-13T08:57:04Z</time>
      </trkpt>
      <trkpt lat="49.27719" lon="0.24665">
        <ele>135</ele>
        <time>2024-10-13T08:57:05Z</time>
      </trkpt>
      <trkpt lat="49.27727" lon="0.24662">
        <ele>135</ele>
        <time>2024-10-13T08:57:06Z</time>
      </trkpt>
      <trkpt lat="49.27735" lon="0.24658">
        <ele>135</ele>
        <time>2024-10-13T08:57:07Z</time>
      </trkpt>
      <trkpt lat="49.27743" lon="0.24655">
        <ele>134.8</ele>
        <time>2024-10-13T08:57:08Z</time>
      </trkpt>
      <trkpt lat="49.27751" lon="0.24652">
        <ele>134.8</ele>
        <time>2024-10-13T08:57:09Z</time>
      </trkpt>
      <trkpt lat="49.27759" lon="0.24648">
        <ele>134.8</ele>
        <time>2024-10-13T08:57:10Z</time>
      </trkpt>
      <trkpt lat="49.27767" lon="0.24645">
        <ele>134.8</ele>
        <time>2024-10-13T08:57:11Z</time>
      </trkpt>
      <trkpt lat="49.27776" lon="0.24643">
        <ele>134.8</ele>
        <time>2024-10-13T08:57:12Z</time>
      </trkpt>
      <trkpt lat="49.27784" lon="0.2464">
        <ele>134.6</ele>
        <time>2024-10-13T08:57:13Z</time>
      </trkpt>
      <trkpt lat="49.27792" lon="0.24638">
        <ele>134.6</ele>
        <time>2024-10-13T08:57:14Z</time>
      </trkpt>
      <trkpt lat="49.27801" lon="0.24635">
        <ele>134.6</ele>
        <time>2024-10-13T08:57:15Z</time>
      </trkpt>
      <trkpt lat="49.2781" lon="0.24632">
        <ele>134.4</ele>
        <time>2024-10-13T08:57:16Z</time>
      </trkpt>
      <trkpt lat="49.27818" lon="0.2463">
        <ele>134.4</ele>
        <time>2024-10-13T08:57:17Z</time>
      </trkpt>
      <trkpt lat="49.27827" lon="0.24627">
        <ele>134.4</ele>
        <time>2024-10-13T08:57:18Z</time>
      </trkpt>
      <trkpt lat="49.27835" lon="0.24626">
        <ele>134.2</ele>
        <time>2024-10-13T08:57:19Z</time>
      </trkpt>
      <trkpt lat="49.27843" lon="0.24624">
        <ele>134.2</ele>
        <time>2024-10-13T08:57:20Z</time>
      </trkpt>
      <trkpt lat="49.27851" lon="0.24621">
        <ele>134</ele>
        <time>2024-10-13T08:57:21Z</time>
      </trkpt>
      <trkpt lat="49.27859" lon="0.24619">
        <ele>134</ele>
        <time>2024-10-13T08:57:22Z</time>
      </trkpt>
      <trkpt lat="49.27867" lon="0.24616">
        <ele>134</ele>
        <time>2024-10-13T08:57:23Z</time>
      </trkpt>
      <trkpt lat="49.27874" lon="0.24612">
        <ele>134</ele>
        <time>2024-10-13T08:57:24Z</time>
      </trkpt>
      <trkpt lat="49.27882" lon="0.24609">
        <ele>133.8</ele>
        <time>2024-10-13T08:57:25Z</time>
      </trkpt>
      <trkpt lat="49.2789" lon="0.24605">
        <ele>133.8</ele>
        <time>2024-10-13T08:57:26Z</time>
      </trkpt>
      <trkpt lat="49.27898" lon="0.24601">
        <ele>133.6</ele>
        <time>2024-10-13T08:57:27Z</time>
      </trkpt>
      <trkpt lat="49.27906" lon="0.24597">
        <ele>133.6</ele>
        <time>2024-10-13T08:57:28Z</time>
      </trkpt>
      <trkpt lat="49.27914" lon="0.24593">
        <ele>133.6</ele>
        <time>2024-10-13T08:57:29Z</time>
      </trkpt>
      <trkpt lat="49.27922" lon="0.24588">
        <ele>133.4</ele>
        <time>2024-10-13T08:57:30Z</time>
      </trkpt>
      <trkpt lat="49.2793" lon="0.24583">
        <ele>133.2</ele>
        <time>2024-10-13T08:57:31Z</time>
      </trkpt>
      <trkpt lat="49.27939" lon="0.24577">
        <ele>133.2</ele>
        <time>2024-10-13T08:57:32Z</time>
      </trkpt>
      <trkpt lat="49.27946" lon="0.24571">
        <ele>133</ele>
        <time>2024-10-13T08:57:33Z</time>
      </trkpt>
      <trkpt lat="49.27953" lon="0.24565">
        <ele>133</ele>
        <time>2024-10-13T08:57:34Z</time>
      </trkpt>
      <trkpt lat="49.27961" lon="0.24558">
        <ele>133</ele>
        <time>2024-10-13T08:57:35Z</time>
      </trkpt>
      <trkpt lat="49.27968" lon="0.24551">
        <ele>132.8</ele>
        <time>2024-10-13T08:57:36Z</time>
      </trkpt>
      <trkpt lat="49.27975" lon="0.24544">
        <ele>132.6</ele>
        <time>2024-10-13T08:57:37Z</time>
      </trkpt>
      <trkpt lat="49.27983" lon="0.24536">
        <ele>132.6</ele>
        <time>2024-10-13T08:57:38Z</time>
      </trkpt>
      <trkpt lat="49.2799" lon="0.24529">
        <ele>132.4</ele>
        <time>2024-10-13T08:57:39Z</time>
      </trkpt>
      <trkpt lat="49.27997" lon="0.24522">
        <ele>132.2</ele>
        <time>2024-10-13T08:57:40Z</time>
      </trkpt>
      <trkpt lat="49.28004" lon="0.24514">
        <ele>132</ele>
        <time>2024-10-13T08:57:41Z</time>
      </trkpt>
      <trkpt lat="49.2801" lon="0.24507">
        <ele>132</ele>
        <time>2024-10-13T08:57:42Z</time>
      </trkpt>
      <trkpt lat="49.28017" lon="0.24499">
        <ele>131.8</ele>
        <time>2024-10-13T08:57:43Z</time>
      </trkpt>
      <trkpt lat="49.28024" lon="0.24492">
        <ele>131.6</ele>
        <time>2024-10-13T08:57:44Z</time>
      </trkpt>
      <trkpt lat="49.2803" lon="0.24484">
        <ele>131.6</ele>
        <time>2024-10-13T08:57:45Z</time>
      </trkpt>
      <trkpt lat="49.28036" lon="0.24475">
        <ele>131.4</ele>
        <time>2024-10-13T08:57:46Z</time>
      </trkpt>
      <trkpt lat="49.28042" lon="0.24467">
        <ele>131.4</ele>
        <time>2024-10-13T08:57:47Z</time>
      </trkpt>
      <trkpt lat="49.28048" lon="0.2446">
        <ele>131</ele>
        <time>2024-10-13T08:57:48Z</time>
      </trkpt>
      <trkpt lat="49.28054" lon="0.24453">
        <ele>130.8</ele>
        <time>2024-10-13T08:57:49Z</time>
      </trkpt>
      <trkpt lat="49.28061" lon="0.24446">
        <ele>130.6</ele>
        <time>2024-10-13T08:57:50Z</time>
      </trkpt>
      <trkpt lat="49.28066" lon="0.24439">
        <ele>130.4</ele>
        <time>2024-10-13T08:57:51Z</time>
      </trkpt>
      <trkpt lat="49.28073" lon="0.24432">
        <ele>130.4</ele>
        <time>2024-10-13T08:57:52Z</time>
      </trkpt>
      <trkpt lat="49.28079" lon="0.24426">
        <ele>130.4</ele>
        <time>2024-10-13T08:57:53Z</time>
      </trkpt>
      <trkpt lat="49.28086" lon="0.2442">
        <ele>130.2</ele>
        <time>2024-10-13T08:57:54Z</time>
      </trkpt>
      <trkpt lat="49.28093" lon="0.24413">
        <ele>130.2</ele>
        <time>2024-10-13T08:57:55Z</time>
      </trkpt>
      <trkpt lat="49.28101" lon="0.24406">
        <ele>130.2</ele>
        <time>2024-10-13T08:57:56Z</time>
      </trkpt>
      <trkpt lat="49.2811" lon="0.24399">
        <ele>130</ele>
        <time>2024-10-13T08:57:57Z</time>
      </trkpt>
      <trkpt lat="49.28119" lon="0.24392">
        <ele>130</ele>
        <time>2024-10-13T08:57:58Z</time>
      </trkpt>
      <trkpt lat="49.28128" lon="0.24387">
        <ele>129.8</ele>
        <time>2024-10-13T08:57:59Z</time>
      </trkpt>
      <trkpt lat="49.28136" lon="0.24381">
        <ele>129.8</ele>
        <time>2024-10-13T08:58:00Z</time>
      </trkpt>
      <trkpt lat="49.28145" lon="0.24375">
        <ele>129.6</ele>
        <time>2024-10-13T08:58:01Z</time>
      </trkpt>
      <trkpt lat="49.28153" lon="0.24369">
        <ele>129.4</ele>
        <time>2024-10-13T08:58:02Z</time>
      </trkpt>
      <trkpt lat="49.28161" lon="0.24363">
        <ele>129</ele>
        <time>2024-10-13T08:58:03Z</time>
      </trkpt>
      <trkpt lat="49.28169" lon="0.24357">
        <ele>128.8</ele>
        <time>2024-10-13T08:58:04Z</time>
      </trkpt>
      <trkpt lat="49.28176" lon="0.2435">
        <ele>128.4</ele>
        <time>2024-10-13T08:58:05Z</time>
      </trkpt>
      <trkpt lat="49.28183" lon="0.24343">
        <ele>128.2</ele>
        <time>2024-10-13T08:58:06Z</time>
      </trkpt>
      <trkpt lat="49.2819" lon="0.24336">
        <ele>128.2</ele>
        <time>2024-10-13T08:58:07Z</time>
      </trkpt>
      <trkpt lat="49.28198" lon="0.24328">
        <ele>128</ele>
        <time>2024-10-13T08:58:08Z</time>
      </trkpt>
      <trkpt lat="49.28205" lon="0.2432">
        <ele>128</ele>
        <time>2024-10-13T08:58:09Z</time>
      </trkpt>
      <trkpt lat="49.28213" lon="0.24312">
        <ele>128</ele>
        <time>2024-10-13T08:58:10Z</time>
      </trkpt>
      <trkpt lat="49.2822" lon="0.24304">
        <ele>128</ele>
        <time>2024-10-13T08:58:11Z</time>
      </trkpt>
      <trkpt lat="49.28228" lon="0.24296">
        <ele>128</ele>
        <time>2024-10-13T08:58:12Z</time>
      </trkpt>
      <trkpt lat="49.28235" lon="0.24288">
        <ele>128</ele>
        <time>2024-10-13T08:58:13Z</time>
      </trkpt>
      <trkpt lat="49.28242" lon="0.2428">
        <ele>128</ele>
        <time>2024-10-13T08:58:14Z</time>
      </trkpt>
      <trkpt lat="49.28249" lon="0.24271">
        <ele>127.8</ele>
        <time>2024-10-13T08:58:15Z</time>
      </trkpt>
      <trkpt lat="49.28256" lon="0.24262">
        <ele>127.8</ele>
        <time>2024-10-13T08:58:16Z</time>
      </trkpt>
      <trkpt lat="49.28263" lon="0.24253">
        <ele>127.6</ele>
        <time>2024-10-13T08:58:17Z</time>
      </trkpt>
      <trkpt lat="49.28269" lon="0.24244">
        <ele>127.6</ele>
        <time>2024-10-13T08:58:18Z</time>
      </trkpt>
      <trkpt lat="49.28276" lon="0.24236">
        <ele>127.4</ele>
        <time>2024-10-13T08:58:19Z</time>
      </trkpt>
      <trkpt lat="49.28282" lon="0.24228">
        <ele>127.2</ele>
        <time>2024-10-13T08:58:20Z</time>
      </trkpt>
      <trkpt lat="49.28288" lon="0.24219">
        <ele>127</ele>
        <time>2024-10-13T08:58:21Z</time>
      </trkpt>
      <trkpt lat="49.28294" lon="0.24211">
        <ele>127</ele>
        <time>2024-10-13T08:58:22Z</time>
      </trkpt>
      <trkpt lat="49.283" lon="0.24202">
        <ele>127</ele>
        <time>2024-10-13T08:58:23Z</time>
      </trkpt>
      <trkpt lat="49.28306" lon="0.24194">
        <ele>126.8</ele>
        <time>2024-10-13T08:58:24Z</time>
      </trkpt>
      <trkpt lat="49.28312" lon="0.24185">
        <ele>126.8</ele>
        <time>2024-10-13T08:58:25Z</time>
      </trkpt>
      <trkpt lat="49.28317" lon="0.24176">
        <ele>126.6</ele>
        <time>2024-10-13T08:58:26Z</time>
      </trkpt>
      <trkpt lat="49.28322" lon="0.24167">
        <ele>126.4</ele>
        <time>2024-10-13T08:58:27Z</time>
      </trkpt>
      <trkpt lat="49.28328" lon="0.24158">
        <ele>126.2</ele>
        <time>2024-10-13T08:58:28Z</time>
      </trkpt>
      <trkpt lat="49.28334" lon="0.24149">
        <ele>126</ele>
        <time>2024-10-13T08:58:29Z</time>
      </trkpt>
      <trkpt lat="49.28339" lon="0.2414">
        <ele>125.8</ele>
        <time>2024-10-13T08:58:30Z</time>
      </trkpt>
      <trkpt lat="49.28345" lon="0.2413">
        <ele>125.6</ele>
        <time>2024-10-13T08:58:31Z</time>
      </trkpt>
      <trkpt lat="49.2835" lon="0.24119">
        <ele>125.4</ele>
        <time>2024-10-13T08:58:32Z</time>
      </trkpt>
      <trkpt lat="49.28356" lon="0.24107">
        <ele>125.2</ele>
        <time>2024-10-13T08:58:33Z</time>
      </trkpt>
      <trkpt lat="49.28361" lon="0.24097">
        <ele>125</ele>
        <time>2024-10-13T08:58:34Z</time>
      </trkpt>
      <trkpt lat="49.28367" lon="0.24085">
        <ele>124.8</ele>
        <time>2024-10-13T08:58:35Z</time>
      </trkpt>
      <trkpt lat="49.28372" lon="0.24073">
        <ele>124.6</ele>
        <time>2024-10-13T08:58:36Z</time>
      </trkpt>
      <trkpt lat="49.28378" lon="0.24061">
        <ele>124.4</ele>
        <time>2024-10-13T08:58:37Z</time>
      </trkpt>
      <trkpt lat="49.28384" lon="0.2405">
        <ele>124.2</ele>
        <time>2024-10-13T08:58:38Z</time>
      </trkpt>
      <trkpt lat="49.28389" lon="0.2404">
        <ele>124</ele>
        <time>2024-10-13T08:58:39Z</time>
      </trkpt>
      <trkpt lat="49.28395" lon="0.2403">
        <ele>123.8</ele>
        <time>2024-10-13T08:58:40Z</time>
      </trkpt>
      <trkpt lat="49.284" lon="0.2402">
        <ele>123.6</ele>
        <time>2024-10-13T08:58:41Z</time>
      </trkpt>
      <trkpt lat="49.28406" lon="0.2401">
        <ele>123.2</ele>
        <time>2024-10-13T08:58:42Z</time>
      </trkpt>
      <trkpt lat="49.28412" lon="0.24001">
        <ele>122.8</ele>
        <time>2024-10-13T08:58:43Z</time>
      </trkpt>
      <trkpt lat="49.28418" lon="0.23993">
        <ele>122.6</ele>
        <time>2024-10-13T08:58:44Z</time>
      </trkpt>
      <trkpt lat="49.28425" lon="0.23986">
        <ele>122.6</ele>
        <time>2024-10-13T08:58:45Z</time>
      </trkpt>
      <trkpt lat="49.28431" lon="0.23979">
        <ele>122.6</ele>
        <time>2024-10-13T08:58:46Z</time>
      </trkpt>
      <trkpt lat="49.28438" lon="0.23972">
        <ele>122.4</ele>
        <time>2024-10-13T08:58:47Z</time>
      </trkpt>
      <trkpt lat="49.28445" lon="0.23966">
        <ele>122.4</ele>
        <time>2024-10-13T08:58:48Z</time>
      </trkpt>
      <trkpt lat="49.28451" lon="0.2396">
        <ele>122.4</ele>
        <time>2024-10-13T08:58:49Z</time>
      </trkpt>
      <trkpt lat="49.28457" lon="0.23955">
        <ele>122.4</ele>
        <time>2024-10-13T08:58:50Z</time>
      </trkpt>
      <trkpt lat="49.28463" lon="0.2395">
        <ele>122.4</ele>
        <time>2024-10-13T08:58:51Z</time>
      </trkpt>
      <trkpt lat="49.2847" lon="0.23945">
        <ele>122.4</ele>
        <time>2024-10-13T08:58:52Z</time>
      </trkpt>
      <trkpt lat="49.28475" lon="0.2394">
        <ele>122.4</ele>
        <time>2024-10-13T08:58:53Z</time>
      </trkpt>
      <trkpt lat="49.28481" lon="0.23935">
        <ele>122.4</ele>
        <time>2024-10-13T08:58:54Z</time>
      </trkpt>
      <trkpt lat="49.28486" lon="0.23931">
        <ele>122.4</ele>
        <time>2024-10-13T08:58:55Z</time>
      </trkpt>
      <trkpt lat="49.28491" lon="0.23927">
        <ele>122.4</ele>
        <time>2024-10-13T08:58:56Z</time>
      </trkpt>
      <trkpt lat="49.28497" lon="0.23923">
        <ele>122.4</ele>
        <time>2024-10-13T08:58:57Z</time>
      </trkpt>
      <trkpt lat="49.28503" lon="0.23918">
        <ele>122.4</ele>
        <time>2024-10-13T08:58:58Z</time>
      </trkpt>
      <trkpt lat="49.28509" lon="0.23913">
        <ele>122.4</ele>
        <time>2024-10-13T08:58:59Z</time>
      </trkpt>
      <trkpt lat="49.28516" lon="0.23907">
        <ele>122.4</ele>
        <time>2024-10-13T08:59:00Z</time>
      </trkpt>
      <trkpt lat="49.28523" lon="0.23902">
        <ele>122.4</ele>
        <time>2024-10-13T08:59:01Z</time>
      </trkpt>
      <trkpt lat="49.2853" lon="0.23896">
        <ele>122.4</ele>
        <time>2024-10-13T08:59:02Z</time>
      </trkpt>
      <trkpt lat="49.28537" lon="0.23891">
        <ele>122.2</ele>
        <time>2024-10-13T08:59:03Z</time>
      </trkpt>
      <trkpt lat="49.28544" lon="0.23885">
        <ele>122.2</ele>
        <time>2024-10-13T08:59:04Z</time>
      </trkpt>
      <trkpt lat="49.28552" lon="0.23879">
        <ele>122.2</ele>
        <time>2024-10-13T08:59:05Z</time>
      </trkpt>
      <trkpt lat="49.28559" lon="0.23872">
        <ele>122.2</ele>
        <time>2024-10-13T08:59:06Z</time>
      </trkpt>
      <trkpt lat="49.28567" lon="0.23866">
        <ele>122</ele>
        <time>2024-10-13T08:59:07Z</time>
      </trkpt>
      <trkpt lat="49.28574" lon="0.23859">
        <ele>121.8</ele>
        <time>2024-10-13T08:59:08Z</time>
      </trkpt>
      <trkpt lat="49.28582" lon="0.23853">
        <ele>121.8</ele>
        <time>2024-10-13T08:59:09Z</time>
      </trkpt>
      <trkpt lat="49.28591" lon="0.23847">
        <ele>121.6</ele>
        <time>2024-10-13T08:59:10Z</time>
      </trkpt>
      <trkpt lat="49.28599" lon="0.23841">
        <ele>121.4</ele>
        <time>2024-10-13T08:59:11Z</time>
      </trkpt>
      <trkpt lat="49.28608" lon="0.23835">
        <ele>121.2</ele>
        <time>2024-10-13T08:59:12Z</time>
      </trkpt>
      <trkpt lat="49.28617" lon="0.23828">
        <ele>121</ele>
        <time>2024-10-13T08:59:13Z</time>
      </trkpt>
      <trkpt lat="49.28625" lon="0.23824">
        <ele>120.6</ele>
        <time>2024-10-13T08:59:14Z</time>
      </trkpt>
      <trkpt lat="49.28634" lon="0.23821">
        <ele>120.4</ele>
        <time>2024-10-13T08:59:15Z</time>
      </trkpt>
      <trkpt lat="49.28643" lon="0.23819">
        <ele>120</ele>
        <time>2024-10-13T08:59:16Z</time>
      </trkpt>
      <trkpt lat="49.28652" lon="0.23821">
        <ele>119.6</ele>
        <time>2024-10-13T08:59:17Z</time>
      </trkpt>
      <trkpt lat="49.28661" lon="0.23825">
        <ele>119</ele>
        <time>2024-10-13T08:59:18Z</time>
      </trkpt>
      <trkpt lat="49.28671" lon="0.2383">
        <ele>118.6</ele>
        <time>2024-10-13T08:59:19Z</time>
      </trkpt>
      <trkpt lat="49.2868" lon="0.23837">
        <ele>117.6</ele>
        <time>2024-10-13T08:59:20Z</time>
      </trkpt>
      <trkpt lat="49.28689" lon="0.23844">
        <ele>117</ele>
        <time>2024-10-13T08:59:21Z</time>
      </trkpt>
      <trkpt lat="49.28697" lon="0.23852">
        <ele>116.6</ele>
        <time>2024-10-13T08:59:22Z</time>
      </trkpt>
      <trkpt lat="49.28706" lon="0.23861">
        <ele>115.8</ele>
        <time>2024-10-13T08:59:23Z</time>
      </trkpt>
      <trkpt lat="49.28713" lon="0.23871">
        <ele>115.2</ele>
        <time>2024-10-13T08:59:24Z</time>
      </trkpt>
      <trkpt lat="49.28719" lon="0.23881">
        <ele>114.2</ele>
        <time>2024-10-13T08:59:25Z</time>
      </trkpt>
      <trkpt lat="49.28724" lon="0.23891">
        <ele>113.6</ele>
        <time>2024-10-13T08:59:26Z</time>
      </trkpt>
      <trkpt lat="49.28729" lon="0.23903">
        <ele>112.8</ele>
        <time>2024-10-13T08:59:27Z</time>
      </trkpt>
      <trkpt lat="49.28733" lon="0.23916">
        <ele>112</ele>
        <time>2024-10-13T08:59:28Z</time>
      </trkpt>
      <trkpt lat="49.28737" lon="0.23928">
        <ele>111</ele>
        <time>2024-10-13T08:59:29Z</time>
      </trkpt>
      <trkpt lat="49.28741" lon="0.23941">
        <ele>110.2</ele>
        <time>2024-10-13T08:59:30Z</time>
      </trkpt>
      <trkpt lat="49.28746" lon="0.23953">
        <ele>109.6</ele>
        <time>2024-10-13T08:59:31Z</time>
      </trkpt>
      <trkpt lat="49.28751" lon="0.23965">
        <ele>109</ele>
        <time>2024-10-13T08:59:32Z</time>
      </trkpt>
      <trkpt lat="49.28755" lon="0.23978">
        <ele>108.6</ele>
        <time>2024-10-13T08:59:33Z</time>
      </trkpt>
      <trkpt lat="49.28759" lon="0.2399">
        <ele>108.4</ele>
        <time>2024-10-13T08:59:34Z</time>
      </trkpt>
      <trkpt lat="49.28763" lon="0.24001">
        <ele>108.2</ele>
        <time>2024-10-13T08:59:35Z</time>
      </trkpt>
      <trkpt lat="49.28767" lon="0.24013">
        <ele>107.8</ele>
        <time>2024-10-13T08:59:36Z</time>
      </trkpt>
      <trkpt lat="49.2877" lon="0.24024">
        <ele>107.4</ele>
        <time>2024-10-13T08:59:37Z</time>
      </trkpt>
      <trkpt lat="49.28774" lon="0.24036">
        <ele>107</ele>
        <time>2024-10-13T08:59:38Z</time>
      </trkpt>
      <trkpt lat="49.28776" lon="0.24048">
        <ele>106.4</ele>
        <time>2024-10-13T08:59:39Z</time>
      </trkpt>
      <trkpt lat="49.28778" lon="0.2406">
        <ele>105.8</ele>
        <time>2024-10-13T08:59:40Z</time>
      </trkpt>
      <trkpt lat="49.28779" lon="0.2407">
        <ele>105</ele>
        <time>2024-10-13T08:59:41Z</time>
      </trkpt>
      <trkpt lat="49.2878" lon="0.2408">
        <ele>104.6</ele>
        <time>2024-10-13T08:59:42Z</time>
      </trkpt>
      <trkpt lat="49.28782" lon="0.24088">
        <ele>104.4</ele>
        <time>2024-10-13T08:59:43Z</time>
      </trkpt>
      <trkpt lat="49.28784" lon="0.24095">
        <ele>104.2</ele>
        <time>2024-10-13T08:59:44Z</time>
      </trkpt>
      <trkpt lat="49.28788" lon="0.241">
        <ele>104.2</ele>
        <time>2024-10-13T08:59:45Z</time>
      </trkpt>
      <trkpt lat="49.28792" lon="0.24103">
        <ele>104</ele>
        <time>2024-10-13T08:59:46Z</time>
      </trkpt>
      <trkpt lat="49.28796" lon="0.24104">
        <ele>103.8</ele>
        <time>2024-10-13T08:59:47Z</time>
      </trkpt>
      <trkpt lat="49.28801" lon="0.24102">
        <ele>103.6</ele>
        <time>2024-10-13T08:59:48Z</time>
      </trkpt>
      <trkpt lat="49.28806" lon="0.24098">
        <ele>103.6</ele>
        <time>2024-10-13T08:59:49Z</time>
      </trkpt>
      <trkpt lat="49.28809" lon="0.24091">
        <ele>103.6</ele>
        <time>2024-10-13T08:59:50Z</time>
      </trkpt>
      <trkpt lat="49.28811" lon="0.24082">
        <ele>103.6</ele>
        <time>2024-10-13T08:59:51Z</time>
      </trkpt>
      <trkpt lat="49.28812" lon="0.24073">
        <ele>103.4</ele>
        <time>2024-10-13T08:59:52Z</time>
      </trkpt>
      <trkpt lat="49.28814" lon="0.24062">
        <ele>103.2</ele>
        <time>2024-10-13T08:59:53Z</time>
      </trkpt>
      <trkpt lat="49.28815" lon="0.2405">
        <ele>102.8</ele>
        <time>2024-10-13T08:59:54Z</time>
      </trkpt>
      <trkpt lat="49.28816" lon="0.24037">
        <ele>102.6</ele>
        <time>2024-10-13T08:59:55Z</time>
      </trkpt>
      <trkpt lat="49.28817" lon="0.24025">
        <ele>102</ele>
        <time>2024-10-13T08:59:56Z</time>
      </trkpt>
      <trkpt lat="49.28818" lon="0.24012">
        <ele>101.4</ele>
        <time>2024-10-13T08:59:57Z</time>
      </trkpt>
      <trkpt lat="49.28819" lon="0.23998">
        <ele>101</ele>
        <time>2024-10-13T08:59:58Z</time>
      </trkpt>
      <trkpt lat="49.28821" lon="0.23984">
        <ele>100.4</ele>
        <time>2024-10-13T08:59:59Z</time>
      </trkpt>
      <trkpt lat="49.28823" lon="0.23971">
        <ele>99.8</ele>
        <time>2024-10-13T09:00:00Z</time>
      </trkpt>
      <trkpt lat="49.28824" lon="0.23955">
        <ele>99.4</ele>
        <time>2024-10-13T09:00:01Z</time>
      </trkpt>
      <trkpt lat="49.28826" lon="0.2394">
        <ele>98.8</ele>
        <time>2024-10-13T09:00:02Z</time>
      </trkpt>
      <trkpt lat="49.28828" lon="0.23925">
        <ele>98.2</ele>
        <time>2024-10-13T09:00:03Z</time>
      </trkpt>
      <trkpt lat="49.2883" lon="0.23909">
        <ele>97.4</ele>
        <time>2024-10-13T09:00:04Z</time>
      </trkpt>
      <trkpt lat="49.28833" lon="0.23893">
        <ele>97</ele>
        <time>2024-10-13T09:00:05Z</time>
      </trkpt>
      <trkpt lat="49.28835" lon="0.23878">
        <ele>96.2</ele>
        <time>2024-10-13T09:00:06Z</time>
      </trkpt>
      <trkpt lat="49.28837" lon="0.23863">
        <ele>95.8</ele>
        <time>2024-10-13T09:00:07Z</time>
      </trkpt>
      <trkpt lat="49.28838" lon="0.23847">
        <ele>95.2</ele>
        <time>2024-10-13T09:00:08Z</time>
      </trkpt>
      <trkpt lat="49.28839" lon="0.23832">
        <ele>94.6</ele>
        <time>2024-10-13T09:00:09Z</time>
      </trkpt>
      <trkpt lat="49.28839" lon="0.23817">
        <ele>93.8</ele>
        <time>2024-10-13T09:00:10Z</time>
      </trkpt>
      <trkpt lat="49.28838" lon="0.23801">
        <ele>93</ele>
        <time>2024-10-13T09:00:11Z</time>
      </trkpt>
      <trkpt lat="49.28837" lon="0.23785">
        <ele>92.4</ele>
        <time>2024-10-13T09:00:12Z</time>
      </trkpt>
      <trkpt lat="49.28836" lon="0.2377">
        <ele>91.6</ele>
        <time>2024-10-13T09:00:13Z</time>
      </trkpt>
      <trkpt lat="49.28833" lon="0.23753">
        <ele>91.2</ele>
        <time>2024-10-13T09:00:14Z</time>
      </trkpt>
      <trkpt lat="49.2883" lon="0.23736">
        <ele>90.8</ele>
        <time>2024-10-13T09:00:15Z</time>
      </trkpt>
      <trkpt lat="49.28827" lon="0.23718">
        <ele>90.4</ele>
        <time>2024-10-13T09:00:16Z</time>
      </trkpt>
      <trkpt lat="49.28824" lon="0.23702">
        <ele>90.2</ele>
        <time>2024-10-13T09:00:17Z</time>
      </trkpt>
      <trkpt lat="49.2882" lon="0.23684">
        <ele>90</ele>
        <time>2024-10-13T09:00:18Z</time>
      </trkpt>
      <trkpt lat="49.28816" lon="0.23666">
        <ele>89.6</ele>
        <time>2024-10-13T09:00:19Z</time>
      </trkpt>
      <trkpt lat="49.28811" lon="0.23649">
        <ele>89.2</ele>
        <time>2024-10-13T09:00:20Z</time>
      </trkpt>
      <trkpt lat="49.28806" lon="0.23631">
        <ele>88.8</ele>
        <time>2024-10-13T09:00:21Z</time>
      </trkpt>
      <trkpt lat="49.28801" lon="0.23613">
        <ele>88.2</ele>
        <time>2024-10-13T09:00:22Z</time>
      </trkpt>
      <trkpt lat="49.28796" lon="0.23596">
        <ele>87.6</ele>
        <time>2024-10-13T09:00:23Z</time>
      </trkpt>
      <trkpt lat="49.28791" lon="0.23578">
        <ele>86.8</ele>
        <time>2024-10-13T09:00:24Z</time>
      </trkpt>
      <trkpt lat="49.28786" lon="0.2356">
        <ele>85.8</ele>
        <time>2024-10-13T09:00:25Z</time>
      </trkpt>
      <trkpt lat="49.28782" lon="0.23543">
        <ele>84.8</ele>
        <time>2024-10-13T09:00:26Z</time>
      </trkpt>
      <trkpt lat="49.28778" lon="0.23527">
        <ele>82.6</ele>
        <time>2024-10-13T09:00:27Z</time>
      </trkpt>
      <trkpt lat="49.28774" lon="0.2351">
        <ele>81.4</ele>
        <time>2024-10-13T09:00:28Z</time>
      </trkpt>
      <trkpt lat="49.2877" lon="0.23495">
        <ele>80.2</ele>
        <time>2024-10-13T09:00:29Z</time>
      </trkpt>
      <trkpt lat="49.28766" lon="0.23479">
        <ele>79.2</ele>
        <time>2024-10-13T09:00:30Z</time>
      </trkpt>
      <trkpt lat="49.2876" lon="0.23464">
        <ele>78.2</ele>
        <time>2024-10-13T09:00:31Z</time>
      </trkpt>
      <trkpt lat="49.28754" lon="0.23449">
        <ele>77</ele>
        <time>2024-10-13T09:00:32Z</time>
      </trkpt>
      <trkpt lat="49.28748" lon="0.23435">
        <ele>76</ele>
        <time>2024-10-13T09:00:33Z</time>
      </trkpt>
      <trkpt lat="49.28741" lon="0.2342">
        <ele>75.4</ele>
        <time>2024-10-13T09:00:34Z</time>
      </trkpt>
      <trkpt lat="49.28735" lon="0.23406">
        <ele>75</ele>
        <time>2024-10-13T09:00:35Z</time>
      </trkpt>
      <trkpt lat="49.28728" lon="0.23392">
        <ele>74.4</ele>
        <time>2024-10-13T09:00:36Z</time>
      </trkpt>
      <trkpt lat="49.28723" lon="0.23377">
        <ele>73.8</ele>
        <time>2024-10-13T09:00:37Z</time>
      </trkpt>
      <trkpt lat="49.28717" lon="0.23362">
        <ele>73.2</ele>
        <time>2024-10-13T09:00:38Z</time>
      </trkpt>
      <trkpt lat="49.28711" lon="0.23348">
        <ele>72.6</ele>
        <time>2024-10-13T09:00:39Z</time>
      </trkpt>
      <trkpt lat="49.28705" lon="0.23333">
        <ele>71.8</ele>
        <time>2024-10-13T09:00:40Z</time>
      </trkpt>
      <trkpt lat="49.28699" lon="0.23318">
        <ele>70.8</ele>
        <time>2024-10-13T09:00:41Z</time>
      </trkpt>
      <trkpt lat="49.28693" lon="0.23304">
        <ele>70.2</ele>
        <time>2024-10-13T09:00:42Z</time>
      </trkpt>
      <trkpt lat="49.28687" lon="0.2329">
        <ele>69.6</ele>
        <time>2024-10-13T09:00:43Z</time>
      </trkpt>
      <trkpt lat="49.28681" lon="0.23276">
        <ele>68.8</ele>
        <time>2024-10-13T09:00:44Z</time>
      </trkpt>
      <trkpt lat="49.28675" lon="0.23262">
        <ele>68.4</ele>
        <time>2024-10-13T09:00:45Z</time>
      </trkpt>
      <trkpt lat="49.28671" lon="0.23247">
        <ele>67.8</ele>
        <time>2024-10-13T09:00:46Z</time>
      </trkpt>
      <trkpt lat="49.28667" lon="0.23232">
        <ele>67</ele>
        <time>2024-10-13T09:00:47Z</time>
      </trkpt>
      <trkpt lat="49.28665" lon="0.23216">
        <ele>66.4</ele>
        <time>2024-10-13T09:00:48Z</time>
      </trkpt>
      <trkpt lat="49.28663" lon="0.232">
        <ele>65.8</ele>
        <time>2024-10-13T09:00:49Z</time>
      </trkpt>
      <trkpt lat="49.28661" lon="0.23184">
        <ele>65.4</ele>
        <time>2024-10-13T09:00:50Z</time>
      </trkpt>
      <trkpt lat="49.28659" lon="0.23169">
        <ele>65.2</ele>
        <time>2024-10-13T09:00:51Z</time>
      </trkpt>
      <trkpt lat="49.28657" lon="0.23153">
        <ele>65</ele>
        <time>2024-10-13T09:00:52Z</time>
      </trkpt>
      <trkpt lat="49.28656" lon="0.23138">
        <ele>64.6</ele>
        <time>2024-10-13T09:00:53Z</time>
      </trkpt>
      <trkpt lat="49.28654" lon="0.23124">
        <ele>64.4</ele>
        <time>2024-10-13T09:00:54Z</time>
      </trkpt>
      <trkpt lat="49.28653" lon="0.23109">
        <ele>64.2</ele>
        <time>2024-10-13T09:00:55Z</time>
      </trkpt>
      <trkpt lat="49.28651" lon="0.23094">
        <ele>63.8</ele>
        <time>2024-10-13T09:00:56Z</time>
      </trkpt>
      <trkpt lat="49.28649" lon="0.23079">
        <ele>63.6</ele>
        <time>2024-10-13T09:00:57Z</time>
      </trkpt>
      <trkpt lat="49.28648" lon="0.23063">
        <ele>63.4</ele>
        <time>2024-10-13T09:00:58Z</time>
      </trkpt>
      <trkpt lat="49.28646" lon="0.23048">
        <ele>62.8</ele>
        <time>2024-10-13T09:00:59Z</time>
      </trkpt>
      <trkpt lat="49.28645" lon="0.23033">
        <ele>62.6</ele>
        <time>2024-10-13T09:01:00Z</time>
      </trkpt>
      <trkpt lat="49.28645" lon="0.23019">
        <ele>62.2</ele>
        <time>2024-10-13T09:01:01Z</time>
      </trkpt>
      <trkpt lat="49.28646" lon="0.23005">
        <ele>61.8</ele>
        <time>2024-10-13T09:01:02Z</time>
      </trkpt>
      <trkpt lat="49.28649" lon="0.22993">
        <ele>61.4</ele>
        <time>2024-10-13T09:01:03Z</time>
      </trkpt>
      <trkpt lat="49.28654" lon="0.22981">
        <ele>60.8</ele>
        <time>2024-10-13T09:01:04Z</time>
      </trkpt>
      <trkpt lat="49.28659" lon="0.2297">
        <ele>60.2</ele>
        <time>2024-10-13T09:01:05Z</time>
      </trkpt>
      <trkpt lat="49.28665" lon="0.22958">
        <ele>59.8</ele>
        <time>2024-10-13T09:01:06Z</time>
      </trkpt>
      <trkpt lat="49.2867" lon="0.22947">
        <ele>59</ele>
        <time>2024-10-13T09:01:07Z</time>
      </trkpt>
      <trkpt lat="49.28675" lon="0.22933">
        <ele>58.4</ele>
        <time>2024-10-13T09:01:08Z</time>
      </trkpt>
      <trkpt lat="49.28678" lon="0.22918">
        <ele>58</ele>
        <time>2024-10-13T09:01:09Z</time>
      </trkpt>
      <trkpt lat="49.28681" lon="0.22902">
        <ele>57.2</ele>
        <time>2024-10-13T09:01:10Z</time>
      </trkpt>
      <trkpt lat="49.28683" lon="0.22886">
        <ele>56.6</ele>
        <time>2024-10-13T09:01:11Z</time>
      </trkpt>
      <trkpt lat="49.28686" lon="0.22868">
        <ele>56.4</ele>
        <time>2024-10-13T09:01:12Z</time>
      </trkpt>
      <trkpt lat="49.28688" lon="0.2285">
        <ele>55.8</ele>
        <time>2024-10-13T09:01:13Z</time>
      </trkpt>
      <trkpt lat="49.28691" lon="0.22832">
        <ele>55.4</ele>
        <time>2024-10-13T09:01:14Z</time>
      </trkpt>
      <trkpt lat="49.28693" lon="0.22814">
        <ele>55</ele>
        <time>2024-10-13T09:01:15Z</time>
      </trkpt>
      <trkpt lat="49.28694" lon="0.22796">
        <ele>54.4</ele>
        <time>2024-10-13T09:01:16Z</time>
      </trkpt>
      <trkpt lat="49.28696" lon="0.22778">
        <ele>53.6</ele>
        <time>2024-10-13T09:01:17Z</time>
      </trkpt>
      <trkpt lat="49.28697" lon="0.2276">
        <ele>52.8</ele>
        <time>2024-10-13T09:01:18Z</time>
      </trkpt>
      <trkpt lat="49.28699" lon="0.22743">
        <ele>52</ele>
        <time>2024-10-13T09:01:19Z</time>
      </trkpt>
      <trkpt lat="49.287" lon="0.22725">
        <ele>51.2</ele>
        <time>2024-10-13T09:01:20Z</time>
      </trkpt>
      <trkpt lat="49.28702" lon="0.22708">
        <ele>50.4</ele>
        <time>2024-10-13T09:01:21Z</time>
      </trkpt>
      <trkpt lat="49.28703" lon="0.2269">
        <ele>49.4</ele>
        <time>2024-10-13T09:01:22Z</time>
      </trkpt>
      <trkpt lat="49.28704" lon="0.22673">
        <ele>49</ele>
        <time>2024-10-13T09:01:23Z</time>
      </trkpt>
      <trkpt lat="49.28706" lon="0.22655">
        <ele>48.4</ele>
        <time>2024-10-13T09:01:24Z</time>
      </trkpt>
      <trkpt lat="49.28707" lon="0.22638">
        <ele>48</ele>
        <time>2024-10-13T09:01:25Z</time>
      </trkpt>
      <trkpt lat="49.28708" lon="0.22621">
        <ele>48</ele>
        <time>2024-10-13T09:01:26Z</time>
      </trkpt>
      <trkpt lat="49.28709" lon="0.22604">
        <ele>47.6</ele>
        <time>2024-10-13T09:01:27Z</time>
      </trkpt>
      <trkpt lat="49.28709" lon="0.22587">
        <ele>47.6</ele>
        <time>2024-10-13T09:01:28Z</time>
      </trkpt>
      <trkpt lat="49.28709" lon="0.2257">
        <ele>47.4</ele>
        <time>2024-10-13T09:01:29Z</time>
      </trkpt>
      <trkpt lat="49.2871" lon="0.22553">
        <ele>47.4</ele>
        <time>2024-10-13T09:01:30Z</time>
      </trkpt>
      <trkpt lat="49.2871" lon="0.22536">
        <ele>47.6</ele>
        <time>2024-10-13T09:01:31Z</time>
      </trkpt>
      <trkpt lat="49.2871" lon="0.22519">
        <ele>47.4</ele>
        <time>2024-10-13T09:01:32Z</time>
      </trkpt>
      <trkpt lat="49.28711" lon="0.22502">
        <ele>47.4</ele>
        <time>2024-10-13T09:01:33Z</time>
      </trkpt>
      <trkpt lat="49.28711" lon="0.22485">
        <ele>47.4</ele>
        <time>2024-10-13T09:01:34Z</time>
      </trkpt>
      <trkpt lat="49.2871" lon="0.22468">
        <ele>47.4</ele>
        <time>2024-10-13T09:01:35Z</time>
      </trkpt>
      <trkpt lat="49.28711" lon="0.22451">
        <ele>47.4</ele>
        <time>2024-10-13T09:01:36Z</time>
      </trkpt>
      <trkpt lat="49.28711" lon="0.22434">
        <ele>47.4</ele>
        <time>2024-10-13T09:01:37Z</time>
      </trkpt>
      <trkpt lat="49.28711" lon="0.22418">
        <ele>47.4</ele>
        <time>2024-10-13T09:01:38Z</time>
      </trkpt>
      <trkpt lat="49.28711" lon="0.22402">
        <ele>47.4</ele>
        <time>2024-10-13T09:01:39Z</time>
      </trkpt>
      <trkpt lat="49.28711" lon="0.22386">
        <ele>47.2</ele>
        <time>2024-10-13T09:01:40Z</time>
      </trkpt>
      <trkpt lat="49.28711" lon="0.2237">
        <ele>47.4</ele>
        <time>2024-10-13T09:01:41Z</time>
      </trkpt>
      <trkpt lat="49.2871" lon="0.22354">
        <ele>47.2</ele>
        <time>2024-10-13T09:01:42Z</time>
      </trkpt>
      <trkpt lat="49.2871" lon="0.22338">
        <ele>47.2</ele>
        <time>2024-10-13T09:01:43Z</time>
      </trkpt>
      <trkpt lat="49.2871" lon="0.22323">
        <ele>47.4</ele>
        <time>2024-10-13T09:01:44Z</time>
      </trkpt>
      <trkpt lat="49.2871" lon="0.22308">
        <ele>47.4</ele>
        <time>2024-10-13T09:01:45Z</time>
      </trkpt>
      <trkpt lat="49.28711" lon="0.22293">
        <ele>47.4</ele>
        <time>2024-10-13T09:01:46Z</time>
      </trkpt>
      <trkpt lat="49.28713" lon="0.22278">
        <ele>47.4</ele>
        <time>2024-10-13T09:01:47Z</time>
      </trkpt>
      <trkpt lat="49.28715" lon="0.22264">
        <ele>47.4</ele>
        <time>2024-10-13T09:01:48Z</time>
      </trkpt>
      <trkpt lat="49.28718" lon="0.22251">
        <ele>47.4</ele>
        <time>2024-10-13T09:01:49Z</time>
      </trkpt>
      <trkpt lat="49.28721" lon="0.22238">
        <ele>47.4</ele>
        <time>2024-10-13T09:01:50Z</time>
      </trkpt>
      <trkpt lat="49.28724" lon="0.22224">
        <ele>47.4</ele>
        <time>2024-10-13T09:01:51Z</time>
      </trkpt>
      <trkpt lat="49.28727" lon="0.22211">
        <ele>47.4</ele>
        <time>2024-10-13T09:01:52Z</time>
      </trkpt>
      <trkpt lat="49.2873" lon="0.22197">
        <ele>47.4</ele>
        <time>2024-10-13T09:01:53Z</time>
      </trkpt>
      <trkpt lat="49.28733" lon="0.22184">
        <ele>48</ele>
        <time>2024-10-13T09:01:54Z</time>
      </trkpt>
      <trkpt lat="49.28736" lon="0.2217">
        <ele>48.2</ele>
        <time>2024-10-13T09:01:55Z</time>
      </trkpt>
      <trkpt lat="49.2874" lon="0.22157">
        <ele>48.4</ele>
        <time>2024-10-13T09:01:56Z</time>
      </trkpt>
      <trkpt lat="49.28743" lon="0.22143">
        <ele>48.6</ele>
        <time>2024-10-13T09:01:57Z</time>
      </trkpt>
      <trkpt lat="49.28746" lon="0.2213">
        <ele>48.6</ele>
        <time>2024-10-13T09:01:58Z</time>
      </trkpt>
      <trkpt lat="49.28749" lon="0.22116">
        <ele>48.8</ele>
        <time>2024-10-13T09:01:59Z</time>
      </trkpt>
      <trkpt lat="49.28752" lon="0.22102">
        <ele>48.8</ele>
        <time>2024-10-13T09:02:00Z</time>
      </trkpt>
      <trkpt lat="49.28756" lon="0.22089">
        <ele>49</ele>
        <time>2024-10-13T09:02:01Z</time>
      </trkpt>
      <trkpt lat="49.28759" lon="0.22075">
        <ele>49</ele>
        <time>2024-10-13T09:02:02Z</time>
      </trkpt>
      <trkpt lat="49.28762" lon="0.22062">
        <ele>49.2</ele>
        <time>2024-10-13T09:02:03Z</time>
      </trkpt>
      <trkpt lat="49.28765" lon="0.22049">
        <ele>49.2</ele>
        <time>2024-10-13T09:02:04Z</time>
      </trkpt>
      <trkpt lat="49.28768" lon="0.22036">
        <ele>49.4</ele>
        <time>2024-10-13T09:02:05Z</time>
      </trkpt>
      <trkpt lat="49.28772" lon="0.22023">
        <ele>49.6</ele>
        <time>2024-10-13T09:02:06Z</time>
      </trkpt>
      <trkpt lat="49.28776" lon="0.22011">
        <ele>49.6</ele>
        <time>2024-10-13T09:02:07Z</time>
      </trkpt>
      <trkpt lat="49.2878" lon="0.21999">
        <ele>49.8</ele>
        <time>2024-10-13T09:02:08Z</time>
      </trkpt>
      <trkpt lat="49.28784" lon="0.21987">
        <ele>49.8</ele>
        <time>2024-10-13T09:02:09Z</time>
      </trkpt>
      <trkpt lat="49.28788" lon="0.21976">
        <ele>50</ele>
        <time>2024-10-13T09:02:10Z</time>
      </trkpt>
      <trkpt lat="49.28792" lon="0.21965">
        <ele>50</ele>
        <time>2024-10-13T09:02:11Z</time>
      </trkpt>
      <trkpt lat="49.28797" lon="0.21954">
        <ele>50.4</ele>
        <time>2024-10-13T09:02:12Z</time>
      </trkpt>
      <trkpt lat="49.28802" lon="0.21943">
        <ele>50.4</ele>
        <time>2024-10-13T09:02:13Z</time>
      </trkpt>
      <trkpt lat="49.28806" lon="0.21932">
        <ele>50.6</ele>
        <time>2024-10-13T09:02:14Z</time>
      </trkpt>
      <trkpt lat="49.28811" lon="0.21921">
        <ele>50.6</ele>
        <time>2024-10-13T09:02:15Z</time>
      </trkpt>
      <trkpt lat="49.28816" lon="0.21911">
        <ele>50.8</ele>
        <time>2024-10-13T09:02:16Z</time>
      </trkpt>
      <trkpt lat="49.2882" lon="0.219">
        <ele>50.8</ele>
        <time>2024-10-13T09:02:17Z</time>
      </trkpt>
      <trkpt lat="49.28825" lon="0.2189">
        <ele>51</ele>
        <time>2024-10-13T09:02:18Z</time>
      </trkpt>
      <trkpt lat="49.28829" lon="0.2188">
        <ele>51</ele>
        <time>2024-10-13T09:02:19Z</time>
      </trkpt>
      <trkpt lat="49.28834" lon="0.2187">
        <ele>51</ele>
        <time>2024-10-13T09:02:20Z</time>
      </trkpt>
      <trkpt lat="49.28838" lon="0.21861">
        <ele>51.2</ele>
        <time>2024-10-13T09:02:21Z</time>
      </trkpt>
      <trkpt lat="49.28843" lon="0.21851">
        <ele>51.2</ele>
        <time>2024-10-13T09:02:22Z</time>
      </trkpt>
      <trkpt lat="49.28848" lon="0.21841">
        <ele>51.2</ele>
        <time>2024-10-13T09:02:23Z</time>
      </trkpt>
      <trkpt lat="49.28853" lon="0.21831">
        <ele>51.4</ele>
        <time>2024-10-13T09:02:24Z</time>
      </trkpt>
      <trkpt lat="49.28858" lon="0.21821">
        <ele>51.4</ele>
        <time>2024-10-13T09:02:25Z</time>
      </trkpt>
      <trkpt lat="49.28863" lon="0.21811">
        <ele>51.4</ele>
        <time>2024-10-13T09:02:26Z</time>
      </trkpt>
      <trkpt lat="49.28868" lon="0.21802">
        <ele>51.4</ele>
        <time>2024-10-13T09:02:27Z</time>
      </trkpt>
      <trkpt lat="49.28874" lon="0.21793">
        <ele>51.4</ele>
        <time>2024-10-13T09:02:28Z</time>
      </trkpt>
      <trkpt lat="49.28879" lon="0.21784">
        <ele>51.4</ele>
        <time>2024-10-13T09:02:29Z</time>
      </trkpt>
      <trkpt lat="49.28884" lon="0.21775">
        <ele>51.4</ele>
        <time>2024-10-13T09:02:30Z</time>
      </trkpt>
      <trkpt lat="49.2889" lon="0.21766">
        <ele>51.2</ele>
        <time>2024-10-13T09:02:31Z</time>
      </trkpt>
      <trkpt lat="49.28895" lon="0.21758">
        <ele>51.2</ele>
        <time>2024-10-13T09:02:32Z</time>
      </trkpt>
      <trkpt lat="49.289" lon="0.21749">
        <ele>51.2</ele>
        <time>2024-10-13T09:02:33Z</time>
      </trkpt>
      <trkpt lat="49.28905" lon="0.21741">
        <ele>51.2</ele>
        <time>2024-10-13T09:02:34Z</time>
      </trkpt>
      <trkpt lat="49.2891" lon="0.21732">
        <ele>51.2</ele>
        <time>2024-10-13T09:02:35Z</time>
      </trkpt>
      <trkpt lat="49.28916" lon="0.21722">
        <ele>51.2</ele>
        <time>2024-10-13T09:02:36Z</time>
      </trkpt>
      <trkpt lat="49.2892" lon="0.21713">
        <ele>51.2</ele>
        <time>2024-10-13T09:02:37Z</time>
      </trkpt>
      <trkpt lat="49.28925" lon="0.21703">
        <ele>51</ele>
        <time>2024-10-13T09:02:38Z</time>
      </trkpt>
      <trkpt lat="49.2893" lon="0.21693">
        <ele>51</ele>
        <time>2024-10-13T09:02:39Z</time>
      </trkpt>
      <trkpt lat="49.28935" lon="0.21682">
        <ele>51</ele>
        <time>2024-10-13T09:02:40Z</time>
      </trkpt>
      <trkpt lat="49.2894" lon="0.21672">
        <ele>50.8</ele>
        <time>2024-10-13T09:02:41Z</time>
      </trkpt>
      <trkpt lat="49.28945" lon="0.21661">
        <ele>50.8</ele>
        <time>2024-10-13T09:02:42Z</time>
      </trkpt>
      <trkpt lat="49.2895" lon="0.21649">
        <ele>50.8</ele>
        <time>2024-10-13T09:02:43Z</time>
      </trkpt>
      <trkpt lat="49.28955" lon="0.21638">
        <ele>50.6</ele>
        <time>2024-10-13T09:02:44Z</time>
      </trkpt>
      <trkpt lat="49.28959" lon="0.21626">
        <ele>50.4</ele>
        <time>2024-10-13T09:02:45Z</time>
      </trkpt>
      <trkpt lat="49.28963" lon="0.21614">
        <ele>50.2</ele>
        <time>2024-10-13T09:02:46Z</time>
      </trkpt>
      <trkpt lat="49.28967" lon="0.21601">
        <ele>50.2</ele>
        <time>2024-10-13T09:02:47Z</time>
      </trkpt>
      <trkpt lat="49.28969" lon="0.21589">
        <ele>50</ele>
        <time>2024-10-13T09:02:48Z</time>
      </trkpt>
      <trkpt lat="49.28972" lon="0.21577">
        <ele>50</ele>
        <time>2024-10-13T09:02:49Z</time>
      </trkpt>
      <trkpt lat="49.28975" lon="0.21565">
        <ele>49.8</ele>
        <time>2024-10-13T09:02:50Z</time>
      </trkpt>
      <trkpt lat="49.28977" lon="0.21553">
        <ele>49.6</ele>
        <time>2024-10-13T09:02:51Z</time>
      </trkpt>
      <trkpt lat="49.28979" lon="0.2154">
        <ele>49.6</ele>
        <time>2024-10-13T09:02:52Z</time>
      </trkpt>
      <trkpt lat="49.2898" lon="0.21527">
        <ele>49.4</ele>
        <time>2024-10-13T09:02:53Z</time>
      </trkpt>
      <trkpt lat="49.28982" lon="0.21514">
        <ele>49.2</ele>
        <time>2024-10-13T09:02:54Z</time>
      </trkpt>
      <trkpt lat="49.28984" lon="0.21501">
        <ele>49.2</ele>
        <time>2024-10-13T09:02:55Z</time>
      </trkpt>
      <trkpt lat="49.28985" lon="0.21488">
        <ele>49</ele>
        <time>2024-10-13T09:02:56Z</time>
      </trkpt>
      <trkpt lat="49.28987" lon="0.21476">
        <ele>48.8</ele>
        <time>2024-10-13T09:02:57Z</time>
      </trkpt>
      <trkpt lat="49.28989" lon="0.21463">
        <ele>48.8</ele>
        <time>2024-10-13T09:02:58Z</time>
      </trkpt>
      <trkpt lat="49.28991" lon="0.21451">
        <ele>48.8</ele>
        <time>2024-10-13T09:02:59Z</time>
      </trkpt>
      <trkpt lat="49.28992" lon="0.21438">
        <ele>48.6</ele>
        <time>2024-10-13T09:03:00Z</time>
      </trkpt>
      <trkpt lat="49.28995" lon="0.21426">
        <ele>48.6</ele>
        <time>2024-10-13T09:03:01Z</time>
      </trkpt>
      <trkpt lat="49.28997" lon="0.21413">
        <ele>48.6</ele>
        <time>2024-10-13T09:03:02Z</time>
      </trkpt>
      <trkpt lat="49.29" lon="0.21402">
        <ele>48.6</ele>
        <time>2024-10-13T09:03:03Z</time>
      </trkpt>
      <trkpt lat="49.29004" lon="0.21392">
        <ele>48.4</ele>
        <time>2024-10-13T09:03:04Z</time>
      </trkpt>
      <trkpt lat="49.29007" lon="0.21382">
        <ele>48.2</ele>
        <time>2024-10-13T09:03:05Z</time>
      </trkpt>
      <trkpt lat="49.29009" lon="0.21373">
        <ele>48.2</ele>
        <time>2024-10-13T09:03:06Z</time>
      </trkpt>
      <trkpt lat="49.29012" lon="0.21364">
        <ele>48</ele>
        <time>2024-10-13T09:03:07Z</time>
      </trkpt>
      <trkpt lat="49.29014" lon="0.21354">
        <ele>47.8</ele>
        <time>2024-10-13T09:03:08Z</time>
      </trkpt>
      <trkpt lat="49.29016" lon="0.21343">
        <ele>47.6</ele>
        <time>2024-10-13T09:03:09Z</time>
      </trkpt>
      <trkpt lat="49.29017" lon="0.21332">
        <ele>47.2</ele>
        <time>2024-10-13T09:03:10Z</time>
      </trkpt>
      <trkpt lat="49.29019" lon="0.2132">
        <ele>47</ele>
        <time>2024-10-13T09:03:11Z</time>
      </trkpt>
      <trkpt lat="49.29019" lon="0.21308">
        <ele>46.8</ele>
        <time>2024-10-13T09:03:12Z</time>
      </trkpt>
      <trkpt lat="49.2902" lon="0.21297">
        <ele>46.8</ele>
        <time>2024-10-13T09:03:13Z</time>
      </trkpt>
      <trkpt lat="49.2902" lon="0.21285">
        <ele>46.8</ele>
        <time>2024-10-13T09:03:14Z</time>
      </trkpt>
      <trkpt lat="49.29021" lon="0.21273">
        <ele>46.6</ele>
        <time>2024-10-13T09:03:15Z</time>
      </trkpt>
      <trkpt lat="49.29021" lon="0.21261">
        <ele>46.4</ele>
        <time>2024-10-13T09:03:16Z</time>
      </trkpt>
      <trkpt lat="49.29023" lon="0.21249">
        <ele>46.2</ele>
        <time>2024-10-13T09:03:17Z</time>
      </trkpt>
      <trkpt lat="49.29024" lon="0.21237">
        <ele>46</ele>
        <time>2024-10-13T09:03:18Z</time>
      </trkpt>
      <trkpt lat="49.29025" lon="0.21225">
        <ele>45.8</ele>
        <time>2024-10-13T09:03:19Z</time>
      </trkpt>
      <trkpt lat="49.29027" lon="0.21213">
        <ele>45.8</ele>
        <time>2024-10-13T09:03:20Z</time>
      </trkpt>
      <trkpt lat="49.29028" lon="0.21201">
        <ele>45.6</ele>
        <time>2024-10-13T09:03:21Z</time>
      </trkpt>
      <trkpt lat="49.2903" lon="0.21188">
        <ele>45.2</ele>
        <time>2024-10-13T09:03:22Z</time>
      </trkpt>
      <trkpt lat="49.29032" lon="0.21176">
        <ele>45</ele>
        <time>2024-10-13T09:03:23Z</time>
      </trkpt>
      <trkpt lat="49.29034" lon="0.21164">
        <ele>44.8</ele>
        <time>2024-10-13T09:03:24Z</time>
      </trkpt>
      <trkpt lat="49.29037" lon="0.21152">
        <ele>44.4</ele>
        <time>2024-10-13T09:03:25Z</time>
      </trkpt>
      <trkpt lat="49.29038" lon="0.21139">
        <ele>44</ele>
        <time>2024-10-13T09:03:26Z</time>
      </trkpt>
      <trkpt lat="49.2904" lon="0.21125">
        <ele>44</ele>
        <time>2024-10-13T09:03:27Z</time>
      </trkpt>
      <trkpt lat="49.29041" lon="0.2111">
        <ele>43.6</ele>
        <time>2024-10-13T09:03:28Z</time>
      </trkpt>
      <trkpt lat="49.29042" lon="0.21095">
        <ele>43.4</ele>
        <time>2024-10-13T09:03:29Z</time>
      </trkpt>
      <trkpt lat="49.29042" lon="0.2108">
        <ele>43.4</ele>
        <time>2024-10-13T09:03:30Z</time>
      </trkpt>
      <trkpt lat="49.29042" lon="0.21065">
        <ele>43.2</ele>
        <time>2024-10-13T09:03:31Z</time>
      </trkpt>
      <trkpt lat="49.29042" lon="0.21049">
        <ele>43</ele>
        <time>2024-10-13T09:03:32Z</time>
      </trkpt>
      <trkpt lat="49.29042" lon="0.21034">
        <ele>42.6</ele>
        <time>2024-10-13T09:03:33Z</time>
      </trkpt>
      <trkpt lat="49.29042" lon="0.21017">
        <ele>42.2</ele>
        <time>2024-10-13T09:03:34Z</time>
      </trkpt>
      <trkpt lat="49.29041" lon="0.21">
        <ele>42</ele>
        <time>2024-10-13T09:03:35Z</time>
      </trkpt>
      <trkpt lat="49.2904" lon="0.20982">
        <ele>41.8</ele>
        <time>2024-10-13T09:03:36Z</time>
      </trkpt>
      <trkpt lat="49.29039" lon="0.20965">
        <ele>41.6</ele>
        <time>2024-10-13T09:03:37Z</time>
      </trkpt>
      <trkpt lat="49.29038" lon="0.20949">
        <ele>41</ele>
        <time>2024-10-13T09:03:38Z</time>
      </trkpt>
      <trkpt lat="49.29037" lon="0.20932">
        <ele>40.4</ele>
        <time>2024-10-13T09:03:39Z</time>
      </trkpt>
      <trkpt lat="49.29037" lon="0.20917">
        <ele>39.6</ele>
        <time>2024-10-13T09:03:40Z</time>
      </trkpt>
      <trkpt lat="49.29037" lon="0.20901">
        <ele>38.8</ele>
        <time>2024-10-13T09:03:41Z</time>
      </trkpt>
      <trkpt lat="49.29036" lon="0.20885">
        <ele>38</ele>
        <time>2024-10-13T09:03:42Z</time>
      </trkpt>
      <trkpt lat="49.29036" lon="0.20871">
        <ele>37.2</ele>
        <time>2024-10-13T09:03:43Z</time>
      </trkpt>
      <trkpt lat="49.29037" lon="0.20856">
        <ele>36.2</ele>
        <time>2024-10-13T09:03:44Z</time>
      </trkpt>
      <trkpt lat="49.29037" lon="0.2084">
        <ele>35.2</ele>
        <time>2024-10-13T09:03:45Z</time>
      </trkpt>
      <trkpt lat="49.29037" lon="0.20823">
        <ele>34.4</ele>
        <time>2024-10-13T09:03:46Z</time>
      </trkpt>
      <trkpt lat="49.29037" lon="0.20806">
        <ele>33.6</ele>
        <time>2024-10-13T09:03:47Z</time>
      </trkpt>
      <trkpt lat="49.29035" lon="0.2079">
        <ele>33</ele>
        <time>2024-10-13T09:03:48Z</time>
      </trkpt>
      <trkpt lat="49.29033" lon="0.20773">
        <ele>32.2</ele>
        <time>2024-10-13T09:03:49Z</time>
      </trkpt>
      <trkpt lat="49.29029" lon="0.20758">
        <ele>31.6</ele>
        <time>2024-10-13T09:03:50Z</time>
      </trkpt>
      <trkpt lat="49.29025" lon="0.20742">
        <ele>30.6</ele>
        <time>2024-10-13T09:03:51Z</time>
      </trkpt>
      <trkpt lat="49.29019" lon="0.20727">
        <ele>29.8</ele>
        <time>2024-10-13T09:03:52Z</time>
      </trkpt>
      <trkpt lat="49.29013" lon="0.20712">
        <ele>29.2</ele>
        <time>2024-10-13T09:03:53Z</time>
      </trkpt>
      <trkpt lat="49.29007" lon="0.20698">
        <ele>28.2</ele>
        <time>2024-10-13T09:03:54Z</time>
      </trkpt>
      <trkpt lat="49.29001" lon="0.20685">
        <ele>27.6</ele>
        <time>2024-10-13T09:03:55Z</time>
      </trkpt>
      <trkpt lat="49.28994" lon="0.20672">
        <ele>26.6</ele>
        <time>2024-10-13T09:03:56Z</time>
      </trkpt>
      <trkpt lat="49.28988" lon="0.20659">
        <ele>25.8</ele>
        <time>2024-10-13T09:03:57Z</time>
      </trkpt>
      <trkpt lat="49.28982" lon="0.20647">
        <ele>25.4</ele>
        <time>2024-10-13T09:03:58Z</time>
      </trkpt>
      <trkpt lat="49.28976" lon="0.20636">
        <ele>24.6</ele>
        <time>2024-10-13T09:03:59Z</time>
      </trkpt>
      <trkpt lat="49.28969" lon="0.20626">
        <ele>24</ele>
        <time>2024-10-13T09:04:00Z</time>
      </trkpt>
      <trkpt lat="49.28963" lon="0.20617">
        <ele>23.4</ele>
        <time>2024-10-13T09:04:01Z</time>
      </trkpt>
      <trkpt lat="49.28957" lon="0.20608">
        <ele>22.8</ele>
        <time>2024-10-13T09:04:02Z</time>
      </trkpt>
      <trkpt lat="49.28951" lon="0.20599">
        <ele>22.4</ele>
        <time>2024-10-13T09:04:03Z</time>
      </trkpt>
      <trkpt lat="49.28947" lon="0.20589">
        <ele>21.8</ele>
        <time>2024-10-13T09:04:04Z</time>
      </trkpt>
      <trkpt lat="49.28943" lon="0.20578">
        <ele>21.4</ele>
        <time>2024-10-13T09:04:05Z</time>
      </trkpt>
      <trkpt lat="49.28939" lon="0.20566">
        <ele>21.2</ele>
        <time>2024-10-13T09:04:06Z</time>
      </trkpt>
      <trkpt lat="49.28936" lon="0.20555">
        <ele>20.8</ele>
        <time>2024-10-13T09:04:07Z</time>
      </trkpt>
      <trkpt lat="49.28932" lon="0.20545">
        <ele>20.4</ele>
        <time>2024-10-13T09:04:08Z</time>
      </trkpt>
      <trkpt lat="49.28926" lon="0.20537">
        <ele>20</ele>
        <time>2024-10-13T09:04:09Z</time>
      </trkpt>
      <trkpt lat="49.28918" lon="0.2053">
        <ele>19.2</ele>
        <time>2024-10-13T09:04:10Z</time>
      </trkpt>
      <trkpt lat="49.28911" lon="0.20523">
        <ele>18.6</ele>
        <time>2024-10-13T09:04:11Z</time>
      </trkpt>
      <trkpt lat="49.28904" lon="0.20514">
        <ele>18</ele>
        <time>2024-10-13T09:04:12Z</time>
      </trkpt>
      <trkpt lat="49.28897" lon="0.20504">
        <ele>17.6</ele>
        <time>2024-10-13T09:04:13Z</time>
      </trkpt>
      <trkpt lat="49.28891" lon="0.20494">
        <ele>17.2</ele>
        <time>2024-10-13T09:04:14Z</time>
      </trkpt>
      <trkpt lat="49.28886" lon="0.20483">
        <ele>17</ele>
        <time>2024-10-13T09:04:15Z</time>
      </trkpt>
      <trkpt lat="49.28881" lon="0.2047">
        <ele>16.4</ele>
        <time>2024-10-13T09:04:16Z</time>
      </trkpt>
      <trkpt lat="49.28877" lon="0.20458">
        <ele>15.6</ele>
        <time>2024-10-13T09:04:17Z</time>
      </trkpt>
      <trkpt lat="49.28872" lon="0.20447">
        <ele>14.8</ele>
        <time>2024-10-13T09:04:18Z</time>
      </trkpt>
      <trkpt lat="49.28866" lon="0.20436">
        <ele>14.2</ele>
        <time>2024-10-13T09:04:19Z</time>
      </trkpt>
      <trkpt lat="49.2886" lon="0.20425">
        <ele>13.8</ele>
        <time>2024-10-13T09:04:20Z</time>
      </trkpt>
      <trkpt lat="49.28854" lon="0.20415">
        <ele>13.2</ele>
        <time>2024-10-13T09:04:21Z</time>
      </trkpt>
      <trkpt lat="49.28847" lon="0.20404">
        <ele>12.8</ele>
        <time>2024-10-13T09:04:22Z</time>
      </trkpt>
      <trkpt lat="49.28842" lon="0.20394">
        <ele>12.4</ele>
        <time>2024-10-13T09:04:23Z</time>
      </trkpt>
      <trkpt lat="49.28836" lon="0.20383">
        <ele>12.2</ele>
        <time>2024-10-13T09:04:24Z</time>
      </trkpt>
      <trkpt lat="49.28831" lon="0.20372">
        <ele>12</ele>
        <time>2024-10-13T09:04:25Z</time>
      </trkpt>
      <trkpt lat="49.28826" lon="0.20361">
        <ele>11.8</ele>
        <time>2024-10-13T09:04:26Z</time>
      </trkpt>
      <trkpt lat="49.28821" lon="0.20351">
        <ele>11.8</ele>
        <time>2024-10-13T09:04:27Z</time>
      </trkpt>
      <trkpt lat="49.28817" lon="0.2034">
        <ele>11.8</ele>
        <time>2024-10-13T09:04:28Z</time>
      </trkpt>
      <trkpt lat="49.28811" lon="0.20329">
        <ele>11.6</ele>
        <time>2024-10-13T09:04:29Z</time>
      </trkpt>
      <trkpt lat="49.28807" lon="0.20318">
        <ele>11.6</ele>
        <time>2024-10-13T09:04:30Z</time>
      </trkpt>
      <trkpt lat="49.28802" lon="0.20307">
        <ele>11.6</ele>
        <time>2024-10-13T09:04:31Z</time>
      </trkpt>
      <trkpt lat="49.28797" lon="0.20296">
        <ele>11.6</ele>
        <time>2024-10-13T09:04:32Z</time>
      </trkpt>
      <trkpt lat="49.28793" lon="0.20285">
        <ele>11.6</ele>
        <time>2024-10-13T09:04:33Z</time>
      </trkpt>
      <trkpt lat="49.28787" lon="0.20273">
        <ele>11.4</ele>
        <time>2024-10-13T09:04:34Z</time>
      </trkpt>
      <trkpt lat="49.28782" lon="0.20261">
        <ele>11.4</ele>
        <time>2024-10-13T09:04:35Z</time>
      </trkpt>
      <trkpt lat="49.28777" lon="0.20249">
        <ele>11.2</ele>
        <time>2024-10-13T09:04:36Z</time>
      </trkpt>
      <trkpt lat="49.28771" lon="0.20236">
        <ele>11.2</ele>
        <time>2024-10-13T09:04:37Z</time>
      </trkpt>
      <trkpt lat="49.28766" lon="0.20224">
        <ele>10.8</ele>
        <time>2024-10-13T09:04:38Z</time>
      </trkpt>
      <trkpt lat="49.2876" lon="0.20211">
        <ele>10.6</ele>
        <time>2024-10-13T09:04:39Z</time>
      </trkpt>
      <trkpt lat="49.28754" lon="0.20199">
        <ele>10.4</ele>
        <time>2024-10-13T09:04:40Z</time>
      </trkpt>
      <trkpt lat="49.28748" lon="0.20187">
        <ele>10.2</ele>
        <time>2024-10-13T09:04:41Z</time>
      </trkpt>
      <trkpt lat="49.28741" lon="0.20176">
        <ele>9.8</ele>
        <time>2024-10-13T09:04:42Z</time>
      </trkpt>
      <trkpt lat="49.28734" lon="0.20167">
        <ele>9.4</ele>
        <time>2024-10-13T09:04:43Z</time>
      </trkpt>
      <trkpt lat="49.28727" lon="0.20158">
        <ele>8.8</ele>
        <time>2024-10-13T09:04:44Z</time>
      </trkpt>
      <trkpt lat="49.28721" lon="0.2015">
        <ele>8.4</ele>
        <time>2024-10-13T09:04:45Z</time>
      </trkpt>
      <trkpt lat="49.28715" lon="0.20142">
        <ele>7.8</ele>
        <time>2024-10-13T09:04:46Z</time>
      </trkpt>
      <trkpt lat="49.28709" lon="0.20134">
        <ele>7.2</ele>
        <time>2024-10-13T09:04:47Z</time>
      </trkpt>
      <trkpt lat="49.28704" lon="0.20127">
        <ele>6.6</ele>
        <time>2024-10-13T09:04:48Z</time>
      </trkpt>
      <trkpt lat="49.28698" lon="0.20121">
        <ele>6.2</ele>
        <time>2024-10-13T09:04:49Z</time>
      </trkpt>
      <trkpt lat="49.28693" lon="0.20114">
        <ele>5.8</ele>
        <time>2024-10-13T09:04:50Z</time>
      </trkpt>
      <trkpt lat="49.28689" lon="0.20108">
        <ele>5.2</ele>
        <time>2024-10-13T09:04:51Z</time>
      </trkpt>
      <trkpt lat="49.28686" lon="0.201">
        <ele>4.4</ele>
        <time>2024-10-13T09:04:52Z</time>
      </trkpt>
      <trkpt lat="49.28683" lon="0.20092">
        <ele>4</ele>
        <time>2024-10-13T09:04:53Z</time>
      </trkpt>
      <trkpt lat="49.28681" lon="0.20082">
        <ele>3.6</ele>
        <time>2024-10-13T09:04:54Z</time>
      </trkpt>
      <trkpt lat="49.28681" lon="0.20071">
        <ele>3.4</ele>
        <time>2024-10-13T09:04:55Z</time>
      </trkpt>
      <trkpt lat="49.28681" lon="0.2006">
        <ele>2.8</ele>
        <time>2024-10-13T09:04:56Z</time>
      </trkpt>
      <trkpt lat="49.28683" lon="0.20049">
        <ele>2.6</ele>
        <time>2024-10-13T09:04:57Z</time>
      </trkpt>
      <trkpt lat="49.28686" lon="0.20038">
        <ele>2.2</ele>
        <time>2024-10-13T09:04:58Z</time>
      </trkpt>
      <trkpt lat="49.2869" lon="0.20028">
        <ele>2</ele>
        <time>2024-10-13T09:04:59Z</time>
      </trkpt>
      <trkpt lat="49.28694" lon="0.20018">
        <ele>1.8</ele>
        <time>2024-10-13T09:05:00Z</time>
      </trkpt>
      <trkpt lat="49.28698" lon="0.20008">
        <ele>1.8</ele>
        <time>2024-10-13T09:05:01Z</time>
      </trkpt>
      <trkpt lat="49.28702" lon="0.19998">
        <ele>1.4</ele>
        <time>2024-10-13T09:05:02Z</time>
      </trkpt>
      <trkpt lat="49.28705" lon="0.19989">
        <ele>1</ele>
        <time>2024-10-13T09:05:03Z</time>
      </trkpt>
      <trkpt lat="49.28708" lon="0.1998">
        <ele>0.8</ele>
        <time>2024-10-13T09:05:04Z</time>
      </trkpt>
      <trkpt lat="49.28712" lon="0.19971">
        <ele>0.8</ele>
        <time>2024-10-13T09:05:05Z</time>
      </trkpt>
      <trkpt lat="49.28715" lon="0.19963">
        <ele>0.6</ele>
        <time>2024-10-13T09:05:06Z</time>
      </trkpt>
      <trkpt lat="49.28718" lon="0.19955">
        <ele>0.4</ele>
        <time>2024-10-13T09:05:07Z</time>
      </trkpt>
      <trkpt lat="49.2872" lon="0.19947">
        <ele>0.4</ele>
        <time>2024-10-13T09:05:08Z</time>
      </trkpt>
      <trkpt lat="49.28723" lon="0.1994">
        <ele>0.4</ele>
        <time>2024-10-13T09:05:09Z</time>
      </trkpt>
      <trkpt lat="49.28726" lon="0.19933">
        <ele>0.4</ele>
        <time>2024-10-13T09:05:10Z</time>
      </trkpt>
      <trkpt lat="49.28729" lon="0.19926">
        <ele>0.4</ele>
        <time>2024-10-13T09:05:11Z</time>
      </trkpt>
      <trkpt lat="49.28732" lon="0.19919">
        <ele>0.4</ele>
        <time>2024-10-13T09:05:12Z</time>
      </trkpt>
      <trkpt lat="49.28735" lon="0.19912">
        <ele>0.4</ele>
        <time>2024-10-13T09:05:13Z</time>
      </trkpt>
      <trkpt lat="49.28738" lon="0.19904">
        <ele>0.4</ele>
        <time>2024-10-13T09:05:14Z</time>
      </trkpt>
      <trkpt lat="49.28741" lon="0.19897">
        <ele>0.4</ele>
        <time>2024-10-13T09:05:15Z</time>
      </trkpt>
      <trkpt lat="49.28745" lon="0.19888">
        <ele>0.4</ele>
        <time>2024-10-13T09:05:16Z</time>
      </trkpt>
      <trkpt lat="49.28749" lon="0.19879">
        <ele>0.4</ele>
        <time>2024-10-13T09:05:17Z</time>
      </trkpt>
      <trkpt lat="49.28752" lon="0.1987">
        <ele>0.4</ele>
        <time>2024-10-13T09:05:18Z</time>
      </trkpt>
      <trkpt lat="49.28756" lon="0.19861">
        <ele>0.6</ele>
        <time>2024-10-13T09:05:19Z</time>
      </trkpt>
      <trkpt lat="49.2876" lon="0.19851">
        <ele>0.8</ele>
        <time>2024-10-13T09:05:20Z</time>
      </trkpt>
      <trkpt lat="49.28764" lon="0.19841">
        <ele>0.8</ele>
        <time>2024-10-13T09:05:21Z</time>
      </trkpt>
      <trkpt lat="49.28767" lon="0.19832">
        <ele>0.8</ele>
        <time>2024-10-13T09:05:22Z</time>
      </trkpt>
      <trkpt lat="49.28771" lon="0.19822">
        <ele>0.8</ele>
        <time>2024-10-13T09:05:23Z</time>
      </trkpt>
      <trkpt lat="49.28775" lon="0.19814">
        <ele>0.8</ele>
        <time>2024-10-13T09:05:24Z</time>
      </trkpt>
      <trkpt lat="49.28778" lon="0.19805">
        <ele>0.6</ele>
        <time>2024-10-13T09:05:25Z</time>
      </trkpt>
      <trkpt lat="49.28781" lon="0.19797">
        <ele>0.8</ele>
        <time>2024-10-13T09:05:26Z</time>
      </trkpt>
      <trkpt lat="49.28784" lon="0.19788">
        <ele>0.6</ele>
        <time>2024-10-13T09:05:27Z</time>
      </trkpt>
      <trkpt lat="49.28786" lon="0.1978">
        <ele>0.8</ele>
        <time>2024-10-13T09:05:28Z</time>
      </trkpt>
      <trkpt lat="49.28789" lon="0.19771">
        <ele>0.6</ele>
        <time>2024-10-13T09:05:29Z</time>
      </trkpt>
      <trkpt lat="49.28792" lon="0.19762">
        <ele>0.6</ele>
        <time>2024-10-13T09:05:30Z</time>
      </trkpt>
      <trkpt lat="49.28795" lon="0.19753">
        <ele>0.8</ele>
        <time>2024-10-13T09:05:31Z</time>
      </trkpt>
      <trkpt lat="49.28798" lon="0.19744">
        <ele>0.8</ele>
        <time>2024-10-13T09:05:32Z</time>
      </trkpt>
      <trkpt lat="49.28801" lon="0.19735">
        <ele>0.8</ele>
        <time>2024-10-13T09:05:33Z</time>
      </trkpt>
      <trkpt lat="49.28804" lon="0.19725">
        <ele>0.8</ele>
        <time>2024-10-13T09:05:34Z</time>
      </trkpt>
      <trkpt lat="49.28807" lon="0.19716">
        <ele>0.8</ele>
        <time>2024-10-13T09:05:35Z</time>
      </trkpt>
      <trkpt lat="49.2881" lon="0.19707">
        <ele>0.8</ele>
        <time>2024-10-13T09:05:36Z</time>
      </trkpt>
      <trkpt lat="49.28813" lon="0.19697">
        <ele>0.8</ele>
        <time>2024-10-13T09:05:37Z</time>
      </trkpt>
      <trkpt lat="49.28817" lon="0.19688">
        <ele>0.8</ele>
        <time>2024-10-13T09:05:38Z</time>
      </trkpt>
      <trkpt lat="49.2882" lon="0.19679">
        <ele>0.8</ele>
        <time>2024-10-13T09:05:39Z</time>
      </trkpt>
      <trkpt lat="49.28823" lon="0.1967">
        <ele>0.6</ele>
        <time>2024-10-13T09:05:40Z</time>
      </trkpt>
      <trkpt lat="49.28826" lon="0.1966">
        <ele>0.6</ele>
        <time>2024-10-13T09:05:41Z</time>
      </trkpt>
      <trkpt lat="49.2883" lon="0.19652">
        <ele>0.6</ele>
        <time>2024-10-13T09:05:42Z</time>
      </trkpt>
      <trkpt lat="49.28833" lon="0.19643">
        <ele>0.6</ele>
        <time>2024-10-13T09:05:43Z</time>
      </trkpt>
      <trkpt lat="49.28836" lon="0.19633">
        <ele>0.6</ele>
        <time>2024-10-13T09:05:44Z</time>
      </trkpt>
      <trkpt lat="49.2884" lon="0.19624">
        <ele>0.6</ele>
        <time>2024-10-13T09:05:45Z</time>
      </trkpt>
      <trkpt lat="49.28843" lon="0.19614">
        <ele>0.4</ele>
        <time>2024-10-13T09:05:46Z</time>
      </trkpt>
      <trkpt lat="49.28847" lon="0.19605">
        <ele>0.4</ele>
        <time>2024-10-13T09:05:47Z</time>
      </trkpt>
      <trkpt lat="49.2885" lon="0.19596">
        <ele>0.4</ele>
        <time>2024-10-13T09:05:48Z</time>
      </trkpt>
      <trkpt lat="49.28854" lon="0.19586">
        <ele>0.2</ele>
        <time>2024-10-13T09:05:49Z</time>
      </trkpt>
      <trkpt lat="49.28857" lon="0.19577">
        <ele>0.2</ele>
        <time>2024-10-13T09:05:50Z</time>
      </trkpt>
      <trkpt lat="49.2886" lon="0.19568">
        <ele>0.2</ele>
        <time>2024-10-13T09:05:51Z</time>
      </trkpt>
      <trkpt lat="49.28863" lon="0.19559">
        <ele>13</ele>
        <time>2024-10-13T09:05:52Z</time>
      </trkpt>
      <trkpt lat="49.28867" lon="0.1955">
        <ele>13</ele>
        <time>2024-10-13T09:05:53Z</time>
      </trkpt>
      <trkpt lat="49.2887" lon="0.19541">
        <ele>13</ele>
        <time>2024-10-13T09:05:54Z</time>
      </trkpt>
      <trkpt lat="49.28874" lon="0.19532">
        <ele>-0.2</ele>
        <time>2024-10-13T09:05:55Z</time>
      </trkpt>
      <trkpt lat="49.28877" lon="0.19524">
        <ele>-0.2</ele>
        <time>2024-10-13T09:05:56Z</time>
      </trkpt>
      <trkpt lat="49.2888" lon="0.19515">
        <ele>-0.2</ele>
        <time>2024-10-13T09:05:57Z</time>
      </trkpt>
      <trkpt lat="49.28883" lon="0.19507">
        <ele>-0.2</ele>
        <time>2024-10-13T09:05:58Z</time>
      </trkpt>
      <trkpt lat="49.28886" lon="0.195">
        <ele>-0.2</ele>
        <time>2024-10-13T09:05:59Z</time>
      </trkpt>
      <trkpt lat="49.28888" lon="0.19492">
        <ele>-0.4</ele>
        <time>2024-10-13T09:06:00Z</time>
      </trkpt>
      <trkpt lat="49.28891" lon="0.19484">
        <ele>-0.4</ele>
        <time>2024-10-13T09:06:01Z</time>
      </trkpt>
      <trkpt lat="49.28895" lon="0.19476">
        <ele>-0.4</ele>
        <time>2024-10-13T09:06:02Z</time>
      </trkpt>
      <trkpt lat="49.28898" lon="0.19467">
        <ele>-0.4</ele>
        <time>2024-10-13T09:06:03Z</time>
      </trkpt>
      <trkpt lat="49.28902" lon="0.19459">
        <ele>-0.4</ele>
        <time>2024-10-13T09:06:04Z</time>
      </trkpt>
      <trkpt lat="49.28905" lon="0.19449">
        <ele>-0.6</ele>
        <time>2024-10-13T09:06:05Z</time>
      </trkpt>
      <trkpt lat="49.28909" lon="0.1944">
        <ele>-0.6</ele>
        <time>2024-10-13T09:06:06Z</time>
      </trkpt>
      <trkpt lat="49.28912" lon="0.1943">
        <ele>-0.6</ele>
        <time>2024-10-13T09:06:07Z</time>
      </trkpt>
      <trkpt lat="49.28915" lon="0.1942">
        <ele>-0.6</ele>
        <time>2024-10-13T09:06:08Z</time>
      </trkpt>
      <trkpt lat="49.28919" lon="0.1941">
        <ele>-0.6</ele>
        <time>2024-10-13T09:06:09Z</time>
      </trkpt>
      <trkpt lat="49.28923" lon="0.194">
        <ele>-0.6</ele>
        <time>2024-10-13T09:06:10Z</time>
      </trkpt>
      <trkpt lat="49.28926" lon="0.19391">
        <ele>-0.8</ele>
        <time>2024-10-13T09:06:11Z</time>
      </trkpt>
      <trkpt lat="49.2893" lon="0.19381">
        <ele>-0.8</ele>
        <time>2024-10-13T09:06:12Z</time>
      </trkpt>
      <trkpt lat="49.28933" lon="0.19371">
        <ele>-0.8</ele>
        <time>2024-10-13T09:06:13Z</time>
      </trkpt>
      <trkpt lat="49.28937" lon="0.19361">
        <ele>-0.8</ele>
        <time>2024-10-13T09:06:14Z</time>
      </trkpt>
      <trkpt lat="49.2894" lon="0.19351">
        <ele>-0.8</ele>
        <time>2024-10-13T09:06:15Z</time>
      </trkpt>
      <trkpt lat="49.28944" lon="0.19342">
        <ele>-0.8</ele>
        <time>2024-10-13T09:06:16Z</time>
      </trkpt>
      <trkpt lat="49.28947" lon="0.19332">
        <ele>-0.8</ele>
        <time>2024-10-13T09:06:17Z</time>
      </trkpt>
      <trkpt lat="49.28951" lon="0.19323">
        <ele>-1</ele>
        <time>2024-10-13T09:06:18Z</time>
      </trkpt>
      <trkpt lat="49.28954" lon="0.19313">
        <ele>-1</ele>
        <time>2024-10-13T09:06:19Z</time>
      </trkpt>
      <trkpt lat="49.28957" lon="0.19303">
        <ele>-1.2</ele>
        <time>2024-10-13T09:06:20Z</time>
      </trkpt>
      <trkpt lat="49.28961" lon="0.19294">
        <ele>-1.2</ele>
        <time>2024-10-13T09:06:21Z</time>
      </trkpt>
      <trkpt lat="49.28964" lon="0.19284">
        <ele>-1.4</ele>
        <time>2024-10-13T09:06:22Z</time>
      </trkpt>
      <trkpt lat="49.28967" lon="0.19274">
        <ele>-1.4</ele>
        <time>2024-10-13T09:06:23Z</time>
      </trkpt>
      <trkpt lat="49.2897" lon="0.19265">
        <ele>-1.4</ele>
        <time>2024-10-13T09:06:24Z</time>
      </trkpt>
      <trkpt lat="49.28974" lon="0.19256">
        <ele>-1.4</ele>
        <time>2024-10-13T09:06:25Z</time>
      </trkpt>
      <trkpt lat="49.28977" lon="0.19247">
        <ele>-1.4</ele>
        <time>2024-10-13T09:06:26Z</time>
      </trkpt>
      <trkpt lat="49.2898" lon="0.19238">
        <ele>-1.4</ele>
        <time>2024-10-13T09:06:27Z</time>
      </trkpt>
      <trkpt lat="49.28984" lon="0.19229">
        <ele>-1.4</ele>
        <time>2024-10-13T09:06:28Z</time>
      </trkpt>
      <trkpt lat="49.28987" lon="0.19221">
        <ele>-1.4</ele>
        <time>2024-10-13T09:06:29Z</time>
      </trkpt>
      <trkpt lat="49.2899" lon="0.19213">
        <ele>-1.4</ele>
        <time>2024-10-13T09:06:30Z</time>
      </trkpt>
      <trkpt lat="49.28993" lon="0.19205">
        <ele>-1.4</ele>
        <time>2024-10-13T09:06:31Z</time>
      </trkpt>
      <trkpt lat="49.28996" lon="0.19197">
        <ele>-1.2</ele>
        <time>2024-10-13T09:06:32Z</time>
      </trkpt>
      <trkpt lat="49.28999" lon="0.19188">
        <ele>-1.2</ele>
        <time>2024-10-13T09:06:33Z</time>
      </trkpt>
      <trkpt lat="49.29002" lon="0.1918">
        <ele>-1.2</ele>
        <time>2024-10-13T09:06:34Z</time>
      </trkpt>
      <trkpt lat="49.29004" lon="0.19173">
        <ele>-1.2</ele>
        <time>2024-10-13T09:06:35Z</time>
      </trkpt>
      <trkpt lat="49.29007" lon="0.19166">
        <ele>-1</ele>
        <time>2024-10-13T09:06:36Z</time>
      </trkpt>
      <trkpt lat="49.2901" lon="0.19159">
        <ele>-1</ele>
        <time>2024-10-13T09:06:37Z</time>
      </trkpt>
      <trkpt lat="49.29013" lon="0.19152">
        <ele>-1</ele>
        <time>2024-10-13T09:06:38Z</time>
      </trkpt>
      <trkpt lat="49.29015" lon="0.19146">
        <ele>-1</ele>
        <time>2024-10-13T09:06:39Z</time>
      </trkpt>
      <trkpt lat="49.29017" lon="0.19141">
        <ele>-1</ele>
        <time>2024-10-13T09:06:40Z</time>
      </trkpt>
      <trkpt lat="49.29019" lon="0.19136">
        <ele>-0.8</ele>
        <time>2024-10-13T09:06:41Z</time>
      </trkpt>
      <trkpt lat="49.2902" lon="0.19132">
        <ele>-0.8</ele>
        <time>2024-10-13T09:06:42Z</time>
      </trkpt>
      <trkpt lat="49.29022" lon="0.19128">
        <ele>-0.8</ele>
        <time>2024-10-13T09:06:43Z</time>
      </trkpt>
      <trkpt lat="49.29023" lon="0.19126">
        <ele>-0.8</ele>
        <time>2024-10-13T09:06:44Z</time>
      </trkpt>
      <trkpt lat="49.29024" lon="0.19124">
        <ele>-0.8</ele>
        <time>2024-10-13T09:06:45Z</time>
      </trkpt>
      <trkpt lat="49.29025" lon="0.19123">
        <ele>-0.8</ele>
        <time>2024-10-13T09:06:46Z</time>
      </trkpt>
      <trkpt lat="49.29026" lon="0.19122">
        <ele>-0.6</ele>
        <time>2024-10-13T09:06:47Z</time>
      </trkpt>
      <trkpt lat="49.29026" lon="0.19121">
        <ele>-0.6</ele>
        <time>2024-10-13T09:06:48Z</time>
      </trkpt>
      <trkpt lat="49.2903" lon="0.19116">
        <ele>-0.4</ele>
        <time>2024-10-13T09:06:54Z</time>
      </trkpt>
      <trkpt lat="49.29032" lon="0.19114">
        <ele>-0.4</ele>
        <time>2024-10-13T09:06:55Z</time>
      </trkpt>
      <trkpt lat="49.29034" lon="0.19111">
        <ele>-0.4</ele>
        <time>2024-10-13T09:06:56Z</time>
      </trkpt>
      <trkpt lat="49.29035" lon="0.19108">
        <ele>-0.4</ele>
        <time>2024-10-13T09:06:57Z</time>
      </trkpt>
      <trkpt lat="49.29036" lon="0.19103">
        <ele>-0.4</ele>
        <time>2024-10-13T09:06:58Z</time>
      </trkpt>
      <trkpt lat="49.29034" lon="0.19099">
        <ele>-0.4</ele>
        <time>2024-10-13T09:06:59Z</time>
      </trkpt>
      <trkpt lat="49.29031" lon="0.19095">
        <ele>-0.4</ele>
        <time>2024-10-13T09:07:00Z</time>
      </trkpt>
      <trkpt lat="49.29025" lon="0.19092">
        <ele>-0.4</ele>
        <time>2024-10-13T09:07:01Z</time>
      </trkpt>
      <trkpt lat="49.29019" lon="0.19089">
        <ele>-0.4</ele>
        <time>2024-10-13T09:07:02Z</time>
      </trkpt>
      <trkpt lat="49.29014" lon="0.19085">
        <ele>-0.4</ele>
        <time>2024-10-13T09:07:03Z</time>
      </trkpt>
      <trkpt lat="49.29008" lon="0.1908">
        <ele>-0.4</ele>
        <time>2024-10-13T09:07:04Z</time>
      </trkpt>
      <trkpt lat="49.29003" lon="0.19075">
        <ele>-0.6</ele>
        <time>2024-10-13T09:07:05Z</time>
      </trkpt>
      <trkpt lat="49.28997" lon="0.19069">
        <ele>-0.6</ele>
        <time>2024-10-13T09:07:06Z</time>
      </trkpt>
      <trkpt lat="49.28991" lon="0.19063">
        <ele>-0.6</ele>
        <time>2024-10-13T09:07:07Z</time>
      </trkpt>
      <trkpt lat="49.28986" lon="0.19056">
        <ele>-0.8</ele>
        <time>2024-10-13T09:07:08Z</time>
      </trkpt>
      <trkpt lat="49.28981" lon="0.1905">
        <ele>-0.8</ele>
        <time>2024-10-13T09:07:09Z</time>
      </trkpt>
      <trkpt lat="49.28976" lon="0.19044">
        <ele>-1</ele>
        <time>2024-10-13T09:07:10Z</time>
      </trkpt>
      <trkpt lat="49.28971" lon="0.19039">
        <ele>-1.2</ele>
        <time>2024-10-13T09:07:11Z</time>
      </trkpt>
      <trkpt lat="49.28966" lon="0.19034">
        <ele>-1.2</ele>
        <time>2024-10-13T09:07:12Z</time>
      </trkpt>
      <trkpt lat="49.28961" lon="0.19029">
        <ele>-1.2</ele>
        <time>2024-10-13T09:07:13Z</time>
      </trkpt>
      <trkpt lat="49.28956" lon="0.19024">
        <ele>-1.4</ele>
        <time>2024-10-13T09:07:14Z</time>
      </trkpt>
      <trkpt lat="49.28952" lon="0.19019">
        <ele>-1.4</ele>
        <time>2024-10-13T09:07:15Z</time>
      </trkpt>
      <trkpt lat="49.28947" lon="0.19015">
        <ele>-1.4</ele>
        <time>2024-10-13T09:07:16Z</time>
      </trkpt>
      <trkpt lat="49.28942" lon="0.19011">
        <ele>-1.4</ele>
        <time>2024-10-13T09:07:17Z</time>
      </trkpt>
      <trkpt lat="49.28937" lon="0.19005">
        <ele>-1.4</ele>
        <time>2024-10-13T09:07:18Z</time>
      </trkpt>
      <trkpt lat="49.28932" lon="0.19">
        <ele>-1.4</ele>
        <time>2024-10-13T09:07:19Z</time>
      </trkpt>
      <trkpt lat="49.28927" lon="0.18994">
        <ele>-1.4</ele>
        <time>2024-10-13T09:07:20Z</time>
      </trkpt>
      <trkpt lat="49.28922" lon="0.18987">
        <ele>-1.4</ele>
        <time>2024-10-13T09:07:21Z</time>
      </trkpt>
      <trkpt lat="49.28917" lon="0.18981">
        <ele>-1.4</ele>
        <time>2024-10-13T09:07:22Z</time>
      </trkpt>
      <trkpt lat="49.28911" lon="0.18975">
        <ele>-1.6</ele>
        <time>2024-10-13T09:07:23Z</time>
      </trkpt>
      <trkpt lat="49.28906" lon="0.18968">
        <ele>-1.6</ele>
        <time>2024-10-13T09:07:24Z</time>
      </trkpt>
      <trkpt lat="49.289" lon="0.18962">
        <ele>-1.6</ele>
        <time>2024-10-13T09:07:25Z</time>
      </trkpt>
      <trkpt lat="49.28894" lon="0.18957">
        <ele>-1.6</ele>
        <time>2024-10-13T09:07:26Z</time>
      </trkpt>
      <trkpt lat="49.28888" lon="0.18952">
        <ele>-1.6</ele>
        <time>2024-10-13T09:07:27Z</time>
      </trkpt>
      <trkpt lat="49.28882" lon="0.18946">
        <ele>-1.8</ele>
        <time>2024-10-13T09:07:28Z</time>
      </trkpt>
      <trkpt lat="49.28876" lon="0.18939">
        <ele>-1.8</ele>
        <time>2024-10-13T09:07:29Z</time>
      </trkpt>
      <trkpt lat="49.2887" lon="0.18932">
        <ele>-1.8</ele>
        <time>2024-10-13T09:07:30Z</time>
      </trkpt>
      <trkpt lat="49.28864" lon="0.18924">
        <ele>-2</ele>
        <time>2024-10-13T09:07:31Z</time>
      </trkpt>
      <trkpt lat="49.28859" lon="0.18917">
        <ele>-2</ele>
        <time>2024-10-13T09:07:32Z</time>
      </trkpt>
      <trkpt lat="49.28853" lon="0.18911">
        <ele>-2</ele>
        <time>2024-10-13T09:07:33Z</time>
      </trkpt>
      <trkpt lat="49.28847" lon="0.18904">
        <ele>-2</ele>
        <time>2024-10-13T09:07:34Z</time>
      </trkpt>
      <trkpt lat="49.28841" lon="0.18897">
        <ele>-2.2</ele>
        <time>2024-10-13T09:07:35Z</time>
      </trkpt>
      <trkpt lat="49.28835" lon="0.1889">
        <ele>-2.2</ele>
        <time>2024-10-13T09:07:36Z</time>
      </trkpt>
      <trkpt lat="49.2883" lon="0.18883">
        <ele>-2.2</ele>
        <time>2024-10-13T09:07:37Z</time>
      </trkpt>
      <trkpt lat="49.28824" lon="0.18876">
        <ele>-2.2</ele>
        <time>2024-10-13T09:07:38Z</time>
      </trkpt>
      <trkpt lat="49.28819" lon="0.18868">
        <ele>-2.2</ele>
        <time>2024-10-13T09:07:39Z</time>
      </trkpt>
      <trkpt lat="49.28813" lon="0.18861">
        <ele>-2.2</ele>
        <time>2024-10-13T09:07:40Z</time>
      </trkpt>
      <trkpt lat="49.28808" lon="0.18855">
        <ele>-2.4</ele>
        <time>2024-10-13T09:07:41Z</time>
      </trkpt>
      <trkpt lat="49.28802" lon="0.18849">
        <ele>-2.4</ele>
        <time>2024-10-13T09:07:42Z</time>
      </trkpt>
      <trkpt lat="49.28797" lon="0.18842">
        <ele>-2.4</ele>
        <time>2024-10-13T09:07:43Z</time>
      </trkpt>
      <trkpt lat="49.28791" lon="0.18836">
        <ele>-2.4</ele>
        <time>2024-10-13T09:07:44Z</time>
      </trkpt>
      <trkpt lat="49.28785" lon="0.18829">
        <ele>-2.4</ele>
        <time>2024-10-13T09:07:45Z</time>
      </trkpt>
      <trkpt lat="49.2878" lon="0.18823">
        <ele>-2.4</ele>
        <time>2024-10-13T09:07:46Z</time>
      </trkpt>
      <trkpt lat="49.28774" lon="0.18816">
        <ele>-2.4</ele>
        <time>2024-10-13T09:07:47Z</time>
      </trkpt>
      <trkpt lat="49.28768" lon="0.18809">
        <ele>-2.4</ele>
        <time>2024-10-13T09:07:48Z</time>
      </trkpt>
      <trkpt lat="49.28763" lon="0.18802">
        <ele>-2.2</ele>
        <time>2024-10-13T09:07:49Z</time>
      </trkpt>
      <trkpt lat="49.28757" lon="0.18796">
        <ele>-2.2</ele>
        <time>2024-10-13T09:07:50Z</time>
      </trkpt>
      <trkpt lat="49.28751" lon="0.18789">
        <ele>-2.4</ele>
        <time>2024-10-13T09:07:51Z</time>
      </trkpt>
      <trkpt lat="49.28745" lon="0.18782">
        <ele>-2.4</ele>
        <time>2024-10-13T09:07:52Z</time>
      </trkpt>
      <trkpt lat="49.28739" lon="0.18775">
        <ele>-2.2</ele>
        <time>2024-10-13T09:07:53Z</time>
      </trkpt>
      <trkpt lat="49.28734" lon="0.18769">
        <ele>-2.2</ele>
        <time>2024-10-13T09:07:54Z</time>
      </trkpt>
      <trkpt lat="49.28728" lon="0.18763">
        <ele>-2.2</ele>
        <time>2024-10-13T09:07:55Z</time>
      </trkpt>
      <trkpt lat="49.28723" lon="0.18756">
        <ele>-1.8</ele>
        <time>2024-10-13T09:07:56Z</time>
      </trkpt>
      <trkpt lat="49.28717" lon="0.1875">
        <ele>-1.8</ele>
        <time>2024-10-13T09:07:57Z</time>
      </trkpt>
      <trkpt lat="49.28712" lon="0.18744">
        <ele>-1.8</ele>
        <time>2024-10-13T09:07:58Z</time>
      </trkpt>
      <trkpt lat="49.28707" lon="0.18737">
        <ele>-2</ele>
        <time>2024-10-13T09:07:59Z</time>
      </trkpt>
      <trkpt lat="49.28702" lon="0.18731">
        <ele>-2</ele>
        <time>2024-10-13T09:08:00Z</time>
      </trkpt>
      <trkpt lat="49.28697" lon="0.18725">
        <ele>-2</ele>
        <time>2024-10-13T09:08:01Z</time>
      </trkpt>
      <trkpt lat="49.28692" lon="0.1872">
        <ele>-2</ele>
        <time>2024-10-13T09:08:02Z</time>
      </trkpt>
      <trkpt lat="49.28688" lon="0.18715">
        <ele>-2</ele>
        <time>2024-10-13T09:08:03Z</time>
      </trkpt>
      <trkpt lat="49.28684" lon="0.18709">
        <ele>-2</ele>
        <time>2024-10-13T09:08:04Z</time>
      </trkpt>
      <trkpt lat="49.28681" lon="0.18703">
        <ele>-2</ele>
        <time>2024-10-13T09:08:05Z</time>
      </trkpt>
      <trkpt lat="49.28679" lon="0.18697">
        <ele>-2</ele>
        <time>2024-10-13T09:08:06Z</time>
      </trkpt>
      <trkpt lat="49.28676" lon="0.18691">
        <ele>-2</ele>
        <time>2024-10-13T09:08:07Z</time>
      </trkpt>
      <trkpt lat="49.28672" lon="0.18686">
        <ele>-2</ele>
        <time>2024-10-13T09:08:08Z</time>
      </trkpt>
      <trkpt lat="49.28668" lon="0.18681">
        <ele>-2</ele>
        <time>2024-10-13T09:08:09Z</time>
      </trkpt>
      <trkpt lat="49.28664" lon="0.18676">
        <ele>-2</ele>
        <time>2024-10-13T09:08:10Z</time>
      </trkpt>
      <trkpt lat="49.2866" lon="0.1867">
        <ele>-2</ele>
        <time>2024-10-13T09:08:11Z</time>
      </trkpt>
      <trkpt lat="49.28656" lon="0.18664">
        <ele>-2</ele>
        <time>2024-10-13T09:08:12Z</time>
      </trkpt>
      <trkpt lat="49.28653" lon="0.18658">
        <ele>-2</ele>
        <time>2024-10-13T09:08:13Z</time>
      </trkpt>
      <trkpt lat="49.2865" lon="0.18651">
        <ele>-2</ele>
        <time>2024-10-13T09:08:14Z</time>
      </trkpt>
      <trkpt lat="49.28647" lon="0.18644">
        <ele>-2</ele>
        <time>2024-10-13T09:08:15Z</time>
      </trkpt>
      <trkpt lat="49.28645" lon="0.18636">
        <ele>-1.8</ele>
        <time>2024-10-13T09:08:16Z</time>
      </trkpt>
      <trkpt lat="49.28643" lon="0.18629">
        <ele>-1.8</ele>
        <time>2024-10-13T09:08:17Z</time>
      </trkpt>
      <trkpt lat="49.28641" lon="0.18621">
        <ele>-1.6</ele>
        <time>2024-10-13T09:08:18Z</time>
      </trkpt>
      <trkpt lat="49.28638" lon="0.18614">
        <ele>-1.4</ele>
        <time>2024-10-13T09:08:19Z</time>
      </trkpt>
      <trkpt lat="49.28637" lon="0.18606">
        <ele>-1.4</ele>
        <time>2024-10-13T09:08:20Z</time>
      </trkpt>
      <trkpt lat="49.28635" lon="0.18599">
        <ele>-1.4</ele>
        <time>2024-10-13T09:08:21Z</time>
      </trkpt>
      <trkpt lat="49.28634" lon="0.18592">
        <ele>-1.2</ele>
        <time>2024-10-13T09:08:22Z</time>
      </trkpt>
      <trkpt lat="49.28632" lon="0.18585">
        <ele>-1</ele>
        <time>2024-10-13T09:08:23Z</time>
      </trkpt>
      <trkpt lat="49.28629" lon="0.18579">
        <ele>-1</ele>
        <time>2024-10-13T09:08:24Z</time>
      </trkpt>
      <trkpt lat="49.28627" lon="0.18572">
        <ele>-1</ele>
        <time>2024-10-13T09:08:25Z</time>
      </trkpt>
      <trkpt lat="49.28624" lon="0.18566">
        <ele>-0.8</ele>
        <time>2024-10-13T09:08:26Z</time>
      </trkpt>
      <trkpt lat="49.28623" lon="0.18561">
        <ele>-0.6</ele>
        <time>2024-10-13T09:08:27Z</time>
      </trkpt>
      <trkpt lat="49.28621" lon="0.18556">
        <ele>-0.6</ele>
        <time>2024-10-13T09:08:28Z</time>
      </trkpt>
      <trkpt lat="49.28618" lon="0.18552">
        <ele>-0.6</ele>
        <time>2024-10-13T09:08:29Z</time>
      </trkpt>
      <trkpt lat="49.28616" lon="0.18547">
        <ele>-0.4</ele>
        <time>2024-10-13T09:08:30Z</time>
      </trkpt>
      <trkpt lat="49.28614" lon="0.18542">
        <ele>-0.4</ele>
        <time>2024-10-13T09:08:31Z</time>
      </trkpt>
      <trkpt lat="49.28612" lon="0.18537">
        <ele>-0.4</ele>
        <time>2024-10-13T09:08:32Z</time>
      </trkpt>
      <trkpt lat="49.2861" lon="0.18532">
        <ele>-0.4</ele>
        <time>2024-10-13T09:08:33Z</time>
      </trkpt>
      <trkpt lat="49.28608" lon="0.18527">
        <ele>-0.4</ele>
        <time>2024-10-13T09:08:34Z</time>
      </trkpt>
      <trkpt lat="49.28605" lon="0.18522">
        <ele>-0.4</ele>
        <time>2024-10-13T09:08:35Z</time>
      </trkpt>
      <trkpt lat="49.28603" lon="0.18516">
        <ele>-0.4</ele>
        <time>2024-10-13T09:08:36Z</time>
      </trkpt>
      <trkpt lat="49.286" lon="0.18511">
        <ele>-0.4</ele>
        <time>2024-10-13T09:08:37Z</time>
      </trkpt>
      <trkpt lat="49.28597" lon="0.18505">
        <ele>-0.4</ele>
        <time>2024-10-13T09:08:38Z</time>
      </trkpt>
      <trkpt lat="49.28595" lon="0.185">
        <ele>-0.4</ele>
        <time>2024-10-13T09:08:39Z</time>
      </trkpt>
      <trkpt lat="49.28593" lon="0.18494">
        <ele>-0.4</ele>
        <time>2024-10-13T09:08:40Z</time>
      </trkpt>
      <trkpt lat="49.28591" lon="0.18489">
        <ele>-0.6</ele>
        <time>2024-10-13T09:08:41Z</time>
      </trkpt>
      <trkpt lat="49.28588" lon="0.18484">
        <ele>-0.6</ele>
        <time>2024-10-13T09:08:42Z</time>
      </trkpt>
      <trkpt lat="49.28585" lon="0.18479">
        <ele>-0.6</ele>
        <time>2024-10-13T09:08:43Z</time>
      </trkpt>
      <trkpt lat="49.28583" lon="0.18473">
        <ele>-0.6</ele>
        <time>2024-10-13T09:08:44Z</time>
      </trkpt>
      <trkpt lat="49.2858" lon="0.18468">
        <ele>-0.6</ele>
        <time>2024-10-13T09:08:45Z</time>
      </trkpt>
      <trkpt lat="49.28577" lon="0.18463">
        <ele>-0.6</ele>
        <time>2024-10-13T09:08:46Z</time>
      </trkpt>
      <trkpt lat="49.28574" lon="0.18458">
        <ele>-0.6</ele>
        <time>2024-10-13T09:08:47Z</time>
      </trkpt>
      <trkpt lat="49.28571" lon="0.18452">
        <ele>-0.6</ele>
        <time>2024-10-13T09:08:48Z</time>
      </trkpt>
      <trkpt lat="49.28568" lon="0.18447">
        <ele>-0.6</ele>
        <time>2024-10-13T09:08:49Z</time>
      </trkpt>
      <trkpt lat="49.28565" lon="0.18441">
        <ele>-0.6</ele>
        <time>2024-10-13T09:08:50Z</time>
      </trkpt>
      <trkpt lat="49.28562" lon="0.18436">
        <ele>-0.6</ele>
        <time>2024-10-13T09:08:51Z</time>
      </trkpt>
      <trkpt lat="49.28559" lon="0.1843">
        <ele>-0.6</ele>
        <time>2024-10-13T09:08:52Z</time>
      </trkpt>
      <trkpt lat="49.28557" lon="0.18425">
        <ele>-0.6</ele>
        <time>2024-10-13T09:08:53Z</time>
      </trkpt>
      <trkpt lat="49.28554" lon="0.18419">
        <ele>-0.6</ele>
        <time>2024-10-13T09:08:54Z</time>
      </trkpt>
      <trkpt lat="49.28552" lon="0.18413">
        <ele>-0.6</ele>
        <time>2024-10-13T09:08:55Z</time>
      </trkpt>
      <trkpt lat="49.2855" lon="0.18407">
        <ele>-0.6</ele>
        <time>2024-10-13T09:08:56Z</time>
      </trkpt>
      <trkpt lat="49.28548" lon="0.18403">
        <ele>-0.6</ele>
        <time>2024-10-13T09:08:57Z</time>
      </trkpt>
      <trkpt lat="49.28546" lon="0.18398">
        <ele>-0.6</ele>
        <time>2024-10-13T09:08:58Z</time>
      </trkpt>
      <trkpt lat="49.28544" lon="0.18393">
        <ele>-0.4</ele>
        <time>2024-10-13T09:08:59Z</time>
      </trkpt>
      <trkpt lat="49.28542" lon="0.18388">
        <ele>-0.4</ele>
        <time>2024-10-13T09:09:00Z</time>
      </trkpt>
      <trkpt lat="49.28539" lon="0.18383">
        <ele>-0.4</ele>
        <time>2024-10-13T09:09:01Z</time>
      </trkpt>
      <trkpt lat="49.28537" lon="0.18378">
        <ele>-0.2</ele>
        <time>2024-10-13T09:09:02Z</time>
      </trkpt>
      <trkpt lat="49.28535" lon="0.18374">
        <ele>-0.2</ele>
        <time>2024-10-13T09:09:03Z</time>
      </trkpt>
      <trkpt lat="49.28533" lon="0.1837">
        <ele>-0.2</ele>
        <time>2024-10-13T09:09:04Z</time>
      </trkpt>
      <trkpt lat="49.2853" lon="0.18365">
        <ele>-0.2</ele>
        <time>2024-10-13T09:09:05Z</time>
      </trkpt>
      <trkpt lat="49.28528" lon="0.18361">
        <ele>-0.2</ele>
        <time>2024-10-13T09:09:06Z</time>
      </trkpt>
      <trkpt lat="49.28525" lon="0.18356">
        <ele>-0.2</ele>
        <time>2024-10-13T09:09:07Z</time>
      </trkpt>
      <trkpt lat="49.28523" lon="0.18351">
        <ele>-0.2</ele>
        <time>2024-10-13T09:09:08Z</time>
      </trkpt>
      <trkpt lat="49.2852" lon="0.18345">
        <ele>-0.2</ele>
        <time>2024-10-13T09:09:09Z</time>
      </trkpt>
      <trkpt lat="49.28517" lon="0.1834">
        <ele>-0.2</ele>
        <time>2024-10-13T09:09:10Z</time>
      </trkpt>
      <trkpt lat="49.28514" lon="0.18334">
        <ele>-0.2</ele>
        <time>2024-10-13T09:09:11Z</time>
      </trkpt>
      <trkpt lat="49.28512" lon="0.18327">
        <ele>-0.4</ele>
        <time>2024-10-13T09:09:12Z</time>
      </trkpt>
      <trkpt lat="49.28509" lon="0.18321">
        <ele>-0.4</ele>
        <time>2024-10-13T09:09:13Z</time>
      </trkpt>
      <trkpt lat="49.28506" lon="0.18315">
        <ele>-0.4</ele>
        <time>2024-10-13T09:09:14Z</time>
      </trkpt>
      <trkpt lat="49.28503" lon="0.18308">
        <ele>-0.6</ele>
        <time>2024-10-13T09:09:15Z</time>
      </trkpt>
      <trkpt lat="49.285" lon="0.18303">
        <ele>-0.8</ele>
        <time>2024-10-13T09:09:16Z</time>
      </trkpt>
      <trkpt lat="49.28497" lon="0.18297">
        <ele>-1</ele>
        <time>2024-10-13T09:09:17Z</time>
      </trkpt>
      <trkpt lat="49.28495" lon="0.18291">
        <ele>-1.2</ele>
        <time>2024-10-13T09:09:18Z</time>
      </trkpt>
      <trkpt lat="49.28492" lon="0.18285">
        <ele>-1.4</ele>
        <time>2024-10-13T09:09:19Z</time>
      </trkpt>
      <trkpt lat="49.2849" lon="0.1828">
        <ele>-1.6</ele>
        <time>2024-10-13T09:09:20Z</time>
      </trkpt>
      <trkpt lat="49.28487" lon="0.18275">
        <ele>-1.6</ele>
        <time>2024-10-13T09:09:21Z</time>
      </trkpt>
      <trkpt lat="49.28485" lon="0.18271">
        <ele>-1.8</ele>
        <time>2024-10-13T09:09:22Z</time>
      </trkpt>
      <trkpt lat="49.28482" lon="0.18266">
        <ele>-1.8</ele>
        <time>2024-10-13T09:09:23Z</time>
      </trkpt>
      <trkpt lat="49.28479" lon="0.1826">
        <ele>-1.8</ele>
        <time>2024-10-13T09:09:24Z</time>
      </trkpt>
      <trkpt lat="49.28476" lon="0.18254">
        <ele>-2</ele>
        <time>2024-10-13T09:09:25Z</time>
      </trkpt>
      <trkpt lat="49.28472" lon="0.18248">
        <ele>-2</ele>
        <time>2024-10-13T09:09:26Z</time>
      </trkpt>
      <trkpt lat="49.28468" lon="0.18241">
        <ele>-2</ele>
        <time>2024-10-13T09:09:27Z</time>
      </trkpt>
      <trkpt lat="49.28463" lon="0.18235">
        <ele>-2.2</ele>
        <time>2024-10-13T09:09:28Z</time>
      </trkpt>
      <trkpt lat="49.28458" lon="0.18227">
        <ele>-2.2</ele>
        <time>2024-10-13T09:09:29Z</time>
      </trkpt>
      <trkpt lat="49.28454" lon="0.1822">
        <ele>-2.2</ele>
        <time>2024-10-13T09:09:30Z</time>
      </trkpt>
      <trkpt lat="49.2845" lon="0.18212">
        <ele>-2.4</ele>
        <time>2024-10-13T09:09:31Z</time>
      </trkpt>
      <trkpt lat="49.28446" lon="0.18204">
        <ele>-2.4</ele>
        <time>2024-10-13T09:09:32Z</time>
      </trkpt>
      <trkpt lat="49.28442" lon="0.18197">
        <ele>-2.4</ele>
        <time>2024-10-13T09:09:33Z</time>
      </trkpt>
      <trkpt lat="49.28438" lon="0.18189">
        <ele>-2.4</ele>
        <time>2024-10-13T09:09:34Z</time>
      </trkpt>
      <trkpt lat="49.28433" lon="0.18181">
        <ele>-2.4</ele>
        <time>2024-10-13T09:09:35Z</time>
      </trkpt>
      <trkpt lat="49.28428" lon="0.18173">
        <ele>-2.4</ele>
        <time>2024-10-13T09:09:36Z</time>
      </trkpt>
      <trkpt lat="49.28424" lon="0.18166">
        <ele>-2.6</ele>
        <time>2024-10-13T09:09:37Z</time>
      </trkpt>
      <trkpt lat="49.28419" lon="0.1816">
        <ele>-2.6</ele>
        <time>2024-10-13T09:09:38Z</time>
      </trkpt>
      <trkpt lat="49.28414" lon="0.18155">
        <ele>-2.6</ele>
        <time>2024-10-13T09:09:39Z</time>
      </trkpt>
      <trkpt lat="49.28409" lon="0.1815">
        <ele>-2.6</ele>
        <time>2024-10-13T09:09:40Z</time>
      </trkpt>
      <trkpt lat="49.28404" lon="0.18145">
        <ele>-2.6</ele>
        <time>2024-10-13T09:09:41Z</time>
      </trkpt>
      <trkpt lat="49.28399" lon="0.18141">
        <ele>-2.6</ele>
        <time>2024-10-13T09:09:42Z</time>
      </trkpt>
      <trkpt lat="49.28393" lon="0.18136">
        <ele>-2.6</ele>
        <time>2024-10-13T09:09:43Z</time>
      </trkpt>
      <trkpt lat="49.28388" lon="0.18131">
        <ele>-2.6</ele>
        <time>2024-10-13T09:09:44Z</time>
      </trkpt>
      <trkpt lat="49.28383" lon="0.18126">
        <ele>-2.6</ele>
        <time>2024-10-13T09:09:45Z</time>
      </trkpt>
      <trkpt lat="49.28378" lon="0.18121">
        <ele>-2.6</ele>
        <time>2024-10-13T09:09:46Z</time>
      </trkpt>
      <trkpt lat="49.28373" lon="0.18116">
        <ele>-2.6</ele>
        <time>2024-10-13T09:09:47Z</time>
      </trkpt>
      <trkpt lat="49.28368" lon="0.18111">
        <ele>-2.6</ele>
        <time>2024-10-13T09:09:48Z</time>
      </trkpt>
      <trkpt lat="49.28364" lon="0.18107">
        <ele>-2.6</ele>
        <time>2024-10-13T09:09:49Z</time>
      </trkpt>
      <trkpt lat="49.28359" lon="0.18103">
        <ele>-2.6</ele>
        <time>2024-10-13T09:09:50Z</time>
      </trkpt>
      <trkpt lat="49.28355" lon="0.181">
        <ele>-2.6</ele>
        <time>2024-10-13T09:09:51Z</time>
      </trkpt>
      <trkpt lat="49.28351" lon="0.18096">
        <ele>-2.6</ele>
        <time>2024-10-13T09:09:52Z</time>
      </trkpt>
      <trkpt lat="49.28348" lon="0.18094">
        <ele>-2.6</ele>
        <time>2024-10-13T09:09:53Z</time>
      </trkpt>
      <trkpt lat="49.28346" lon="0.18091">
        <ele>-2.4</ele>
        <time>2024-10-13T09:09:54Z</time>
      </trkpt>
      <trkpt lat="49.28343" lon="0.18088">
        <ele>-2</ele>
        <time>2024-10-13T09:09:55Z</time>
      </trkpt>
      <trkpt lat="49.28341" lon="0.18086">
        <ele>-1.8</ele>
        <time>2024-10-13T09:09:56Z</time>
      </trkpt>
      <trkpt lat="49.2834" lon="0.18083">
        <ele>-1.6</ele>
        <time>2024-10-13T09:09:57Z</time>
      </trkpt>
      <trkpt lat="49.28339" lon="0.18082">
        <ele>-1.6</ele>
        <time>2024-10-13T09:09:58Z</time>
      </trkpt>
      <trkpt lat="49.28338" lon="0.18081">
        <ele>-1.4</ele>
        <time>2024-10-13T09:09:59Z</time>
      </trkpt>
      <trkpt lat="49.28338" lon="0.18081">
        <ele>-1.4</ele>
        <time>2024-10-13T09:10:00Z</time>
      </trkpt>
      <trkpt lat="49.28334" lon="0.18077">
        <ele>-1</ele>
        <time>2024-10-13T09:10:40Z</time>
      </trkpt>
      <trkpt lat="49.28332" lon="0.18075">
        <ele>-1</ele>
        <time>2024-10-13T09:10:41Z</time>
      </trkpt>
      <trkpt lat="49.2833" lon="0.18074">
        <ele>-1</ele>
        <time>2024-10-13T09:10:42Z</time>
      </trkpt>
      <trkpt lat="49.28328" lon="0.18073">
        <ele>-1</ele>
        <time>2024-10-13T09:10:43Z</time>
      </trkpt>
      <trkpt lat="49.28326" lon="0.18071">
        <ele>-1</ele>
        <time>2024-10-13T09:10:44Z</time>
      </trkpt>
      <trkpt lat="49.28323" lon="0.18069">
        <ele>-1</ele>
        <time>2024-10-13T09:10:45Z</time>
      </trkpt>
      <trkpt lat="49.28321" lon="0.18066">
        <ele>-1</ele>
        <time>2024-10-13T09:10:46Z</time>
      </trkpt>
      <trkpt lat="49.28318" lon="0.18063">
        <ele>-1</ele>
        <time>2024-10-13T09:10:47Z</time>
      </trkpt>
      <trkpt lat="49.28316" lon="0.18058">
        <ele>-1</ele>
        <time>2024-10-13T09:10:48Z</time>
      </trkpt>
      <trkpt lat="49.28314" lon="0.18053">
        <ele>-1</ele>
        <time>2024-10-13T09:10:49Z</time>
      </trkpt>
      <trkpt lat="49.28316" lon="0.18049">
        <ele>-1</ele>
        <time>2024-10-13T09:10:50Z</time>
      </trkpt>
      <trkpt lat="49.28318" lon="0.18042">
        <ele>-1</ele>
        <time>2024-10-13T09:10:51Z</time>
      </trkpt>
      <trkpt lat="49.28321" lon="0.18035">
        <ele>-1</ele>
        <time>2024-10-13T09:10:52Z</time>
      </trkpt>
      <trkpt lat="49.28325" lon="0.18028">
        <ele>-1</ele>
        <time>2024-10-13T09:10:53Z</time>
      </trkpt>
      <trkpt lat="49.28329" lon="0.1802">
        <ele>-1.2</ele>
        <time>2024-10-13T09:10:54Z</time>
      </trkpt>
      <trkpt lat="49.28333" lon="0.18011">
        <ele>-1.2</ele>
        <time>2024-10-13T09:10:55Z</time>
      </trkpt>
      <trkpt lat="49.28337" lon="0.18002">
        <ele>-1.2</ele>
        <time>2024-10-13T09:10:56Z</time>
      </trkpt>
      <trkpt lat="49.28341" lon="0.17994">
        <ele>-1.2</ele>
        <time>2024-10-13T09:10:57Z</time>
      </trkpt>
      <trkpt lat="49.28345" lon="0.17985">
        <ele>-1.2</ele>
        <time>2024-10-13T09:10:58Z</time>
      </trkpt>
      <trkpt lat="49.28349" lon="0.17977">
        <ele>-1.2</ele>
        <time>2024-10-13T09:10:59Z</time>
      </trkpt>
      <trkpt lat="49.28352" lon="0.17968">
        <ele>-1.2</ele>
        <time>2024-10-13T09:11:00Z</time>
      </trkpt>
      <trkpt lat="49.28356" lon="0.17959">
        <ele>-1.6</ele>
        <time>2024-10-13T09:11:01Z</time>
      </trkpt>
      <trkpt lat="49.2836" lon="0.17951">
        <ele>-1.6</ele>
        <time>2024-10-13T09:11:02Z</time>
      </trkpt>
      <trkpt lat="49.28363" lon="0.17942">
        <ele>-1.8</ele>
        <time>2024-10-13T09:11:03Z</time>
      </trkpt>
      <trkpt lat="49.28367" lon="0.17934">
        <ele>-2</ele>
        <time>2024-10-13T09:11:04Z</time>
      </trkpt>
      <trkpt lat="49.28371" lon="0.17925">
        <ele>-2</ele>
        <time>2024-10-13T09:11:05Z</time>
      </trkpt>
      <trkpt lat="49.28374" lon="0.17917">
        <ele>-2.2</ele>
        <time>2024-10-13T09:11:06Z</time>
      </trkpt>
      <trkpt lat="49.28378" lon="0.17908">
        <ele>-2.2</ele>
        <time>2024-10-13T09:11:07Z</time>
      </trkpt>
      <trkpt lat="49.28381" lon="0.179">
        <ele>-2.4</ele>
        <time>2024-10-13T09:11:08Z</time>
      </trkpt>
      <trkpt lat="49.28385" lon="0.17892">
        <ele>-2.8</ele>
        <time>2024-10-13T09:11:09Z</time>
      </trkpt>
      <trkpt lat="49.28388" lon="0.17883">
        <ele>-2.8</ele>
        <time>2024-10-13T09:11:10Z</time>
      </trkpt>
      <trkpt lat="49.28392" lon="0.17875">
        <ele>-3</ele>
        <time>2024-10-13T09:11:11Z</time>
      </trkpt>
      <trkpt lat="49.28395" lon="0.17867">
        <ele>-3.2</ele>
        <time>2024-10-13T09:11:12Z</time>
      </trkpt>
      <trkpt lat="49.28398" lon="0.17859">
        <ele>-3.2</ele>
        <time>2024-10-13T09:11:13Z</time>
      </trkpt>
      <trkpt lat="49.28401" lon="0.17851">
        <ele>-3.4</ele>
        <time>2024-10-13T09:11:14Z</time>
      </trkpt>
      <trkpt lat="49.28404" lon="0.17844">
        <ele>-3.4</ele>
        <time>2024-10-13T09:11:15Z</time>
      </trkpt>
      <trkpt lat="49.28408" lon="0.17836">
        <ele>-3.4</ele>
        <time>2024-10-13T09:11:16Z</time>
      </trkpt>
      <trkpt lat="49.28411" lon="0.17828">
        <ele>-3.4</ele>
        <time>2024-10-13T09:11:17Z</time>
      </trkpt>
      <trkpt lat="49.28414" lon="0.17821">
        <ele>-3.4</ele>
        <time>2024-10-13T09:11:18Z</time>
      </trkpt>
      <trkpt lat="49.28417" lon="0.17813">
        <ele>-3.4</ele>
        <time>2024-10-13T09:11:19Z</time>
      </trkpt>
      <trkpt lat="49.2842" lon="0.17805">
        <ele>-3.6</ele>
        <time>2024-10-13T09:11:20Z</time>
      </trkpt>
      <trkpt lat="49.28423" lon="0.17797">
        <ele>-3.6</ele>
        <time>2024-10-13T09:11:21Z</time>
      </trkpt>
      <trkpt lat="49.28426" lon="0.17788">
        <ele>-3.6</ele>
        <time>2024-10-13T09:11:22Z</time>
      </trkpt>
      <trkpt lat="49.28429" lon="0.17778">
        <ele>-3.6</ele>
        <time>2024-10-13T09:11:23Z</time>
      </trkpt>
      <trkpt lat="49.28431" lon="0.17769">
        <ele>-3.6</ele>
        <time>2024-10-13T09:11:24Z</time>
      </trkpt>
      <trkpt lat="49.28433" lon="0.17759">
        <ele>-3.6</ele>
        <time>2024-10-13T09:11:25Z</time>
      </trkpt>
      <trkpt lat="49.28435" lon="0.17749">
        <ele>-3.8</ele>
        <time>2024-10-13T09:11:26Z</time>
      </trkpt>
      <trkpt lat="49.28437" lon="0.17738">
        <ele>-3.8</ele>
        <time>2024-10-13T09:11:27Z</time>
      </trkpt>
      <trkpt lat="49.2844" lon="0.17728">
        <ele>-3.8</ele>
        <time>2024-10-13T09:11:28Z</time>
      </trkpt>
      <trkpt lat="49.28442" lon="0.17719">
        <ele>-3.8</ele>
        <time>2024-10-13T09:11:29Z</time>
      </trkpt>
      <trkpt lat="49.28445" lon="0.17709">
        <ele>-3.8</ele>
        <time>2024-10-13T09:11:30Z</time>
      </trkpt>
      <trkpt lat="49.28447" lon="0.17698">
        <ele>-4</ele>
        <time>2024-10-13T09:11:31Z</time>
      </trkpt>
      <trkpt lat="49.2845" lon="0.17688">
        <ele>-4</ele>
        <time>2024-10-13T09:11:32Z</time>
      </trkpt>
      <trkpt lat="49.28452" lon="0.17678">
        <ele>-4</ele>
        <time>2024-10-13T09:11:33Z</time>
      </trkpt>
      <trkpt lat="49.28454" lon="0.17667">
        <ele>-4</ele>
        <time>2024-10-13T09:11:34Z</time>
      </trkpt>
      <trkpt lat="49.28457" lon="0.17657">
        <ele>-4</ele>
        <time>2024-10-13T09:11:35Z</time>
      </trkpt>
      <trkpt lat="49.28459" lon="0.17647">
        <ele>-4</ele>
        <time>2024-10-13T09:11:36Z</time>
      </trkpt>
      <trkpt lat="49.28462" lon="0.17636">
        <ele>-4</ele>
        <time>2024-10-13T09:11:37Z</time>
      </trkpt>
      <trkpt lat="49.28464" lon="0.17625">
        <ele>-4</ele>
        <time>2024-10-13T09:11:38Z</time>
      </trkpt>
      <trkpt lat="49.28466" lon="0.17615">
        <ele>-4</ele>
        <time>2024-10-13T09:11:39Z</time>
      </trkpt>
      <trkpt lat="49.28469" lon="0.17605">
        <ele>-4.2</ele>
        <time>2024-10-13T09:11:40Z</time>
      </trkpt>
      <trkpt lat="49.28471" lon="0.17595">
        <ele>-4.2</ele>
        <time>2024-10-13T09:11:41Z</time>
      </trkpt>
      <trkpt lat="49.28473" lon="0.17585">
        <ele>-4.2</ele>
        <time>2024-10-13T09:11:42Z</time>
      </trkpt>
      <trkpt lat="49.28474" lon="0.17574">
        <ele>-4.2</ele>
        <time>2024-10-13T09:11:43Z</time>
      </trkpt>
      <trkpt lat="49.28475" lon="0.17563">
        <ele>-4.2</ele>
        <time>2024-10-13T09:11:44Z</time>
      </trkpt>
      <trkpt lat="49.28474" lon="0.17551">
        <ele>-4.2</ele>
        <time>2024-10-13T09:11:45Z</time>
      </trkpt>
      <trkpt lat="49.28474" lon="0.1754">
        <ele>-4.2</ele>
        <time>2024-10-13T09:11:46Z</time>
      </trkpt>
      <trkpt lat="49.28473" lon="0.17528">
        <ele>-4.2</ele>
        <time>2024-10-13T09:11:47Z</time>
      </trkpt>
      <trkpt lat="49.28472" lon="0.17517">
        <ele>-4.2</ele>
        <time>2024-10-13T09:11:48Z</time>
      </trkpt>
      <trkpt lat="49.28471" lon="0.17505">
        <ele>-4.2</ele>
        <time>2024-10-13T09:11:49Z</time>
      </trkpt>
      <trkpt lat="49.2847" lon="0.17494">
        <ele>-4.2</ele>
        <time>2024-10-13T09:11:50Z</time>
      </trkpt>
      <trkpt lat="49.28469" lon="0.17482">
        <ele>-4.2</ele>
        <time>2024-10-13T09:11:51Z</time>
      </trkpt>
      <trkpt lat="49.28468" lon="0.1747">
        <ele>-4.2</ele>
        <time>2024-10-13T09:11:52Z</time>
      </trkpt>
      <trkpt lat="49.28467" lon="0.17458">
        <ele>-4.2</ele>
        <time>2024-10-13T09:11:53Z</time>
      </trkpt>
      <trkpt lat="49.28467" lon="0.17447">
        <ele>-4.2</ele>
        <time>2024-10-13T09:11:54Z</time>
      </trkpt>
      <trkpt lat="49.28466" lon="0.17435">
        <ele>-4.2</ele>
        <time>2024-10-13T09:11:55Z</time>
      </trkpt>
      <trkpt lat="49.28465" lon="0.17423">
        <ele>-4.2</ele>
        <time>2024-10-13T09:11:56Z</time>
      </trkpt>
      <trkpt lat="49.28465" lon="0.17412">
        <ele>-4.2</ele>
        <time>2024-10-13T09:11:57Z</time>
      </trkpt>
      <trkpt lat="49.28464" lon="0.174">
        <ele>-4.2</ele>
        <time>2024-10-13T09:11:58Z</time>
      </trkpt>
      <trkpt lat="49.28463" lon="0.17388">
        <ele>-4.4</ele>
        <time>2024-10-13T09:11:59Z</time>
      </trkpt>
      <trkpt lat="49.28462" lon="0.17376">
        <ele>-4.4</ele>
        <time>2024-10-13T09:12:00Z</time>
      </trkpt>
      <trkpt lat="49.28461" lon="0.17365">
        <ele>-4.2</ele>
        <time>2024-10-13T09:12:01Z</time>
      </trkpt>
      <trkpt lat="49.2846" lon="0.17353">
        <ele>-4.2</ele>
        <time>2024-10-13T09:12:02Z</time>
      </trkpt>
      <trkpt lat="49.2846" lon="0.17342">
        <ele>-4.2</ele>
        <time>2024-10-13T09:12:03Z</time>
      </trkpt>
      <trkpt lat="49.28459" lon="0.1733">
        <ele>-4.2</ele>
        <time>2024-10-13T09:12:04Z</time>
      </trkpt>
      <trkpt lat="49.28458" lon="0.17318">
        <ele>-4.2</ele>
        <time>2024-10-13T09:12:05Z</time>
      </trkpt>
      <trkpt lat="49.28458" lon="0.17306">
        <ele>-4.2</ele>
        <time>2024-10-13T09:12:06Z</time>
      </trkpt>
      <trkpt lat="49.28458" lon="0.17295">
        <ele>-4.2</ele>
        <time>2024-10-13T09:12:07Z</time>
      </trkpt>
      <trkpt lat="49.28458" lon="0.17283">
        <ele>-4.2</ele>
        <time>2024-10-13T09:12:08Z</time>
      </trkpt>
      <trkpt lat="49.2846" lon="0.17271">
        <ele>-4.4</ele>
        <time>2024-10-13T09:12:09Z</time>
      </trkpt>
      <trkpt lat="49.28461" lon="0.17259">
        <ele>-4.4</ele>
        <time>2024-10-13T09:12:10Z</time>
      </trkpt>
      <trkpt lat="49.28464" lon="0.17248">
        <ele>-4.4</ele>
        <time>2024-10-13T09:12:11Z</time>
      </trkpt>
      <trkpt lat="49.28467" lon="0.17237">
        <ele>-4.4</ele>
        <time>2024-10-13T09:12:12Z</time>
      </trkpt>
      <trkpt lat="49.2847" lon="0.17226">
        <ele>-4.4</ele>
        <time>2024-10-13T09:12:13Z</time>
      </trkpt>
      <trkpt lat="49.28474" lon="0.17216">
        <ele>-4.4</ele>
        <time>2024-10-13T09:12:14Z</time>
      </trkpt>
      <trkpt lat="49.28477" lon="0.17205">
        <ele>-4.4</ele>
        <time>2024-10-13T09:12:15Z</time>
      </trkpt>
      <trkpt lat="49.28481" lon="0.17195">
        <ele>-4.6</ele>
        <time>2024-10-13T09:12:16Z</time>
      </trkpt>
      <trkpt lat="49.28484" lon="0.17184">
        <ele>-4.6</ele>
        <time>2024-10-13T09:12:17Z</time>
      </trkpt>
      <trkpt lat="49.28487" lon="0.17173">
        <ele>-4.6</ele>
        <time>2024-10-13T09:12:18Z</time>
      </trkpt>
      <trkpt lat="49.28491" lon="0.17162">
        <ele>-4.6</ele>
        <time>2024-10-13T09:12:19Z</time>
      </trkpt>
      <trkpt lat="49.28494" lon="0.17151">
        <ele>-4.6</ele>
        <time>2024-10-13T09:12:20Z</time>
      </trkpt>
      <trkpt lat="49.28498" lon="0.1714">
        <ele>-4.8</ele>
        <time>2024-10-13T09:12:21Z</time>
      </trkpt>
      <trkpt lat="49.28502" lon="0.17129">
        <ele>-4.8</ele>
        <time>2024-10-13T09:12:22Z</time>
      </trkpt>
      <trkpt lat="49.28505" lon="0.17118">
        <ele>-4.8</ele>
        <time>2024-10-13T09:12:23Z</time>
      </trkpt>
      <trkpt lat="49.28509" lon="0.17107">
        <ele>-5</ele>
        <time>2024-10-13T09:12:24Z</time>
      </trkpt>
      <trkpt lat="49.28512" lon="0.17096">
        <ele>-5</ele>
        <time>2024-10-13T09:12:25Z</time>
      </trkpt>
      <trkpt lat="49.28515" lon="0.17084">
        <ele>-5</ele>
        <time>2024-10-13T09:12:26Z</time>
      </trkpt>
      <trkpt lat="49.28519" lon="0.17073">
        <ele>-5</ele>
        <time>2024-10-13T09:12:27Z</time>
      </trkpt>
      <trkpt lat="49.28522" lon="0.17062">
        <ele>-5</ele>
        <time>2024-10-13T09:12:28Z</time>
      </trkpt>
      <trkpt lat="49.28525" lon="0.1705">
        <ele>-5</ele>
        <time>2024-10-13T09:12:29Z</time>
      </trkpt>
      <trkpt lat="49.28529" lon="0.17039">
        <ele>-5</ele>
        <time>2024-10-13T09:12:30Z</time>
      </trkpt>
      <trkpt lat="49.28532" lon="0.17029">
        <ele>-5</ele>
        <time>2024-10-13T09:12:31Z</time>
      </trkpt>
      <trkpt lat="49.28535" lon="0.17018">
        <ele>-5</ele>
        <time>2024-10-13T09:12:32Z</time>
      </trkpt>
      <trkpt lat="49.28537" lon="0.17006">
        <ele>-5</ele>
        <time>2024-10-13T09:12:33Z</time>
      </trkpt>
      <trkpt lat="49.2854" lon="0.16995">
        <ele>-5</ele>
        <time>2024-10-13T09:12:34Z</time>
      </trkpt>
      <trkpt lat="49.28543" lon="0.16984">
        <ele>-5</ele>
        <time>2024-10-13T09:12:35Z</time>
      </trkpt>
      <trkpt lat="49.28546" lon="0.16973">
        <ele>-5</ele>
        <time>2024-10-13T09:12:36Z</time>
      </trkpt>
      <trkpt lat="49.28549" lon="0.16962">
        <ele>-5</ele>
        <time>2024-10-13T09:12:37Z</time>
      </trkpt>
      <trkpt lat="49.28551" lon="0.16951">
        <ele>-5</ele>
        <time>2024-10-13T09:12:38Z</time>
      </trkpt>
      <trkpt lat="49.28554" lon="0.1694">
        <ele>-5</ele>
        <time>2024-10-13T09:12:39Z</time>
      </trkpt>
      <trkpt lat="49.28557" lon="0.16929">
        <ele>-5</ele>
        <time>2024-10-13T09:12:40Z</time>
      </trkpt>
      <trkpt lat="49.28559" lon="0.16918">
        <ele>-5</ele>
        <time>2024-10-13T09:12:41Z</time>
      </trkpt>
      <trkpt lat="49.28561" lon="0.16906">
        <ele>-5</ele>
        <time>2024-10-13T09:12:42Z</time>
      </trkpt>
      <trkpt lat="49.28564" lon="0.16895">
        <ele>-5.2</ele>
        <time>2024-10-13T09:12:43Z</time>
      </trkpt>
      <trkpt lat="49.28566" lon="0.16884">
        <ele>-5.2</ele>
        <time>2024-10-13T09:12:44Z</time>
      </trkpt>
      <trkpt lat="49.28568" lon="0.16872">
        <ele>-5.2</ele>
        <time>2024-10-13T09:12:45Z</time>
      </trkpt>
      <trkpt lat="49.28571" lon="0.16861">
        <ele>-5.2</ele>
        <time>2024-10-13T09:12:46Z</time>
      </trkpt>
      <trkpt lat="49.28573" lon="0.1685">
        <ele>-5.2</ele>
        <time>2024-10-13T09:12:47Z</time>
      </trkpt>
      <trkpt lat="49.28575" lon="0.16839">
        <ele>-5.4</ele>
        <time>2024-10-13T09:12:48Z</time>
      </trkpt>
      <trkpt lat="49.28577" lon="0.16828">
        <ele>-5.4</ele>
        <time>2024-10-13T09:12:49Z</time>
      </trkpt>
      <trkpt lat="49.2858" lon="0.16817">
        <ele>-5.4</ele>
        <time>2024-10-13T09:12:50Z</time>
      </trkpt>
      <trkpt lat="49.28582" lon="0.16806">
        <ele>-5.4</ele>
        <time>2024-10-13T09:12:51Z</time>
      </trkpt>
      <trkpt lat="49.28584" lon="0.16795">
        <ele>-5.4</ele>
        <time>2024-10-13T09:12:52Z</time>
      </trkpt>
      <trkpt lat="49.28586" lon="0.16784">
        <ele>-5.4</ele>
        <time>2024-10-13T09:12:53Z</time>
      </trkpt>
      <trkpt lat="49.28588" lon="0.16774">
        <ele>-5.4</ele>
        <time>2024-10-13T09:12:54Z</time>
      </trkpt>
      <trkpt lat="49.2859" lon="0.16764">
        <ele>-5.4</ele>
        <time>2024-10-13T09:12:55Z</time>
      </trkpt>
      <trkpt lat="49.28592" lon="0.16754">
        <ele>-5.4</ele>
        <time>2024-10-13T09:12:56Z</time>
      </trkpt>
      <trkpt lat="49.28594" lon="0.16744">
        <ele>-5.6</ele>
        <time>2024-10-13T09:12:57Z</time>
      </trkpt>
      <trkpt lat="49.28596" lon="0.16734">
        <ele>-5.6</ele>
        <time>2024-10-13T09:12:58Z</time>
      </trkpt>
      <trkpt lat="49.28598" lon="0.16724">
        <ele>-5.6</ele>
        <time>2024-10-13T09:12:59Z</time>
      </trkpt>
      <trkpt lat="49.286" lon="0.16715">
        <ele>-5.6</ele>
        <time>2024-10-13T09:13:00Z</time>
      </trkpt>
      <trkpt lat="49.28602" lon="0.16705">
        <ele>-5.6</ele>
        <time>2024-10-13T09:13:01Z</time>
      </trkpt>
      <trkpt lat="49.28604" lon="0.16695">
        <ele>-5.8</ele>
        <time>2024-10-13T09:13:02Z</time>
      </trkpt>
      <trkpt lat="49.28607" lon="0.16686">
        <ele>-5.8</ele>
        <time>2024-10-13T09:13:03Z</time>
      </trkpt>
      <trkpt lat="49.2861" lon="0.16675">
        <ele>-5.8</ele>
        <time>2024-10-13T09:13:04Z</time>
      </trkpt>
      <trkpt lat="49.28612" lon="0.16664">
        <ele>-5.8</ele>
        <time>2024-10-13T09:13:05Z</time>
      </trkpt>
      <trkpt lat="49.28615" lon="0.16653">
        <ele>-5.8</ele>
        <time>2024-10-13T09:13:06Z</time>
      </trkpt>
      <trkpt lat="49.28617" lon="0.16641">
        <ele>-5.8</ele>
        <time>2024-10-13T09:13:07Z</time>
      </trkpt>
      <trkpt lat="49.28619" lon="0.1663">
        <ele>-5.8</ele>
        <time>2024-10-13T09:13:08Z</time>
      </trkpt>
      <trkpt lat="49.28622" lon="0.16618">
        <ele>-5.8</ele>
        <time>2024-10-13T09:13:09Z</time>
      </trkpt>
      <trkpt lat="49.28624" lon="0.16606">
        <ele>-5.6</ele>
        <time>2024-10-13T09:13:10Z</time>
      </trkpt>
      <trkpt lat="49.28626" lon="0.16595">
        <ele>-5.2</ele>
        <time>2024-10-13T09:13:11Z</time>
      </trkpt>
      <trkpt lat="49.28628" lon="0.16584">
        <ele>-5</ele>
        <time>2024-10-13T09:13:12Z</time>
      </trkpt>
      <trkpt lat="49.28629" lon="0.16572">
        <ele>-5</ele>
        <time>2024-10-13T09:13:13Z</time>
      </trkpt>
      <trkpt lat="49.2863" lon="0.16561">
        <ele>-4.8</ele>
        <time>2024-10-13T09:13:14Z</time>
      </trkpt>
      <trkpt lat="49.28631" lon="0.16549">
        <ele>-4.8</ele>
        <time>2024-10-13T09:13:15Z</time>
      </trkpt>
      <trkpt lat="49.2863" lon="0.16538">
        <ele>-4.8</ele>
        <time>2024-10-13T09:13:16Z</time>
      </trkpt>
      <trkpt lat="49.2863" lon="0.16526">
        <ele>-4.8</ele>
        <time>2024-10-13T09:13:17Z</time>
      </trkpt>
      <trkpt lat="49.28629" lon="0.16515">
        <ele>-4.6</ele>
        <time>2024-10-13T09:13:18Z</time>
      </trkpt>
      <trkpt lat="49.28628" lon="0.16503">
        <ele>-4.6</ele>
        <time>2024-10-13T09:13:19Z</time>
      </trkpt>
      <trkpt lat="49.28627" lon="0.16491">
        <ele>-4.6</ele>
        <time>2024-10-13T09:13:20Z</time>
      </trkpt>
      <trkpt lat="49.28626" lon="0.1648">
        <ele>-4.6</ele>
        <time>2024-10-13T09:13:21Z</time>
      </trkpt>
      <trkpt lat="49.28624" lon="0.16469">
        <ele>-4.6</ele>
        <time>2024-10-13T09:13:22Z</time>
      </trkpt>
      <trkpt lat="49.28622" lon="0.16458">
        <ele>-4.6</ele>
        <time>2024-10-13T09:13:23Z</time>
      </trkpt>
      <trkpt lat="49.28621" lon="0.16447">
        <ele>-4.6</ele>
        <time>2024-10-13T09:13:24Z</time>
      </trkpt>
      <trkpt lat="49.28619" lon="0.16436">
        <ele>-4.6</ele>
        <time>2024-10-13T09:13:25Z</time>
      </trkpt>
      <trkpt lat="49.28616" lon="0.16425">
        <ele>-4.6</ele>
        <time>2024-10-13T09:13:26Z</time>
      </trkpt>
      <trkpt lat="49.28614" lon="0.16414">
        <ele>-4.6</ele>
        <time>2024-10-13T09:13:27Z</time>
      </trkpt>
      <trkpt lat="49.28611" lon="0.16404">
        <ele>-4.4</ele>
        <time>2024-10-13T09:13:28Z</time>
      </trkpt>
      <trkpt lat="49.28608" lon="0.16394">
        <ele>-4.4</ele>
        <time>2024-10-13T09:13:29Z</time>
      </trkpt>
      <trkpt lat="49.28604" lon="0.16384">
        <ele>-4.4</ele>
        <time>2024-10-13T09:13:30Z</time>
      </trkpt>
      <trkpt lat="49.286" lon="0.16374">
        <ele>-4.4</ele>
        <time>2024-10-13T09:13:31Z</time>
      </trkpt>
      <trkpt lat="49.28596" lon="0.16365">
        <ele>-4.4</ele>
        <time>2024-10-13T09:13:32Z</time>
      </trkpt>
      <trkpt lat="49.28592" lon="0.16355">
        <ele>-4.2</ele>
        <time>2024-10-13T09:13:33Z</time>
      </trkpt>
      <trkpt lat="49.28588" lon="0.16346">
        <ele>-4.2</ele>
        <time>2024-10-13T09:13:34Z</time>
      </trkpt>
      <trkpt lat="49.28583" lon="0.16337">
        <ele>-4.2</ele>
        <time>2024-10-13T09:13:35Z</time>
      </trkpt>
      <trkpt lat="49.28579" lon="0.16328">
        <ele>-4.2</ele>
        <time>2024-10-13T09:13:36Z</time>
      </trkpt>
      <trkpt lat="49.28575" lon="0.16318">
        <ele>-4.2</ele>
        <time>2024-10-13T09:13:37Z</time>
      </trkpt>
      <trkpt lat="49.28571" lon="0.16309">
        <ele>-4.2</ele>
        <time>2024-10-13T09:13:38Z</time>
      </trkpt>
      <trkpt lat="49.28567" lon="0.16299">
        <ele>-4.2</ele>
        <time>2024-10-13T09:13:39Z</time>
      </trkpt>
      <trkpt lat="49.28563" lon="0.1629">
        <ele>-4.2</ele>
        <time>2024-10-13T09:13:40Z</time>
      </trkpt>
      <trkpt lat="49.28559" lon="0.1628">
        <ele>-4.2</ele>
        <time>2024-10-13T09:13:41Z</time>
      </trkpt>
      <trkpt lat="49.28555" lon="0.1627">
        <ele>-4.2</ele>
        <time>2024-10-13T09:13:42Z</time>
      </trkpt>
      <trkpt lat="49.28552" lon="0.1626">
        <ele>-4.2</ele>
        <time>2024-10-13T09:13:43Z</time>
      </trkpt>
      <trkpt lat="49.28549" lon="0.16249">
        <ele>-4.2</ele>
        <time>2024-10-13T09:13:44Z</time>
      </trkpt>
      <trkpt lat="49.28546" lon="0.16239">
        <ele>-4.2</ele>
        <time>2024-10-13T09:13:45Z</time>
      </trkpt>
      <trkpt lat="49.28544" lon="0.16228">
        <ele>-4.2</ele>
        <time>2024-10-13T09:13:46Z</time>
      </trkpt>
      <trkpt lat="49.28541" lon="0.16217">
        <ele>-4.2</ele>
        <time>2024-10-13T09:13:47Z</time>
      </trkpt>
      <trkpt lat="49.28539" lon="0.16206">
        <ele>-4.2</ele>
        <time>2024-10-13T09:13:48Z</time>
      </trkpt>
      <trkpt lat="49.28537" lon="0.16195">
        <ele>-4.2</ele>
        <time>2024-10-13T09:13:49Z</time>
      </trkpt>
      <trkpt lat="49.28534" lon="0.16184">
        <ele>-4.2</ele>
        <time>2024-10-13T09:13:50Z</time>
      </trkpt>
      <trkpt lat="49.28531" lon="0.16173">
        <ele>-4</ele>
        <time>2024-10-13T09:13:51Z</time>
      </trkpt>
      <trkpt lat="49.28529" lon="0.16163">
        <ele>-4</ele>
        <time>2024-10-13T09:13:52Z</time>
      </trkpt>
      <trkpt lat="49.28525" lon="0.16153">
        <ele>-4</ele>
        <time>2024-10-13T09:13:53Z</time>
      </trkpt>
      <trkpt lat="49.28522" lon="0.16143">
        <ele>-4</ele>
        <time>2024-10-13T09:13:54Z</time>
      </trkpt>
      <trkpt lat="49.28518" lon="0.16133">
        <ele>-4</ele>
        <time>2024-10-13T09:13:55Z</time>
      </trkpt>
      <trkpt lat="49.28514" lon="0.16124">
        <ele>-4</ele>
        <time>2024-10-13T09:13:56Z</time>
      </trkpt>
      <trkpt lat="49.2851" lon="0.16115">
        <ele>-4</ele>
        <time>2024-10-13T09:13:57Z</time>
      </trkpt>
      <trkpt lat="49.28505" lon="0.16106">
        <ele>-4</ele>
        <time>2024-10-13T09:13:58Z</time>
      </trkpt>
      <trkpt lat="49.285" lon="0.16098">
        <ele>-3.8</ele>
        <time>2024-10-13T09:13:59Z</time>
      </trkpt>
      <trkpt lat="49.28496" lon="0.16089">
        <ele>-3.8</ele>
        <time>2024-10-13T09:14:00Z</time>
      </trkpt>
      <trkpt lat="49.28491" lon="0.16081">
        <ele>-3.8</ele>
        <time>2024-10-13T09:14:01Z</time>
      </trkpt>
      <trkpt lat="49.28487" lon="0.16072">
        <ele>-3.8</ele>
        <time>2024-10-13T09:14:02Z</time>
      </trkpt>
      <trkpt lat="49.28483" lon="0.16064">
        <ele>-3.8</ele>
        <time>2024-10-13T09:14:03Z</time>
      </trkpt>
      <trkpt lat="49.28478" lon="0.16055">
        <ele>-3.8</ele>
        <time>2024-10-13T09:14:04Z</time>
      </trkpt>
      <trkpt lat="49.28474" lon="0.16046">
        <ele>-3.8</ele>
        <time>2024-10-13T09:14:05Z</time>
      </trkpt>
      <trkpt lat="49.28469" lon="0.16038">
        <ele>-3.6</ele>
        <time>2024-10-13T09:14:06Z</time>
      </trkpt>
      <trkpt lat="49.28464" lon="0.16029">
        <ele>-3.6</ele>
        <time>2024-10-13T09:14:07Z</time>
      </trkpt>
      <trkpt lat="49.2846" lon="0.16021">
        <ele>-3.6</ele>
        <time>2024-10-13T09:14:08Z</time>
      </trkpt>
      <trkpt lat="49.28455" lon="0.16012">
        <ele>-3.6</ele>
        <time>2024-10-13T09:14:09Z</time>
      </trkpt>
      <trkpt lat="49.28451" lon="0.16004">
        <ele>-3.6</ele>
        <time>2024-10-13T09:14:10Z</time>
      </trkpt>
      <trkpt lat="49.28446" lon="0.15995">
        <ele>-3.6</ele>
        <time>2024-10-13T09:14:11Z</time>
      </trkpt>
      <trkpt lat="49.28442" lon="0.15986">
        <ele>-3.6</ele>
        <time>2024-10-13T09:14:12Z</time>
      </trkpt>
      <trkpt lat="49.28438" lon="0.15978">
        <ele>-3.6</ele>
        <time>2024-10-13T09:14:13Z</time>
      </trkpt>
      <trkpt lat="49.28433" lon="0.15969">
        <ele>-3.6</ele>
        <time>2024-10-13T09:14:14Z</time>
      </trkpt>
      <trkpt lat="49.28428" lon="0.15961">
        <ele>-3.6</ele>
        <time>2024-10-13T09:14:15Z</time>
      </trkpt>
      <trkpt lat="49.28424" lon="0.15952">
        <ele>-3.6</ele>
        <time>2024-10-13T09:14:16Z</time>
      </trkpt>
      <trkpt lat="49.2842" lon="0.15942">
        <ele>-3.6</ele>
        <time>2024-10-13T09:14:17Z</time>
      </trkpt>
      <trkpt lat="49.28416" lon="0.15933">
        <ele>-3.6</ele>
        <time>2024-10-13T09:14:18Z</time>
      </trkpt>
      <trkpt lat="49.28411" lon="0.15923">
        <ele>-3.4</ele>
        <time>2024-10-13T09:14:19Z</time>
      </trkpt>
      <trkpt lat="49.28408" lon="0.15914">
        <ele>-3.4</ele>
        <time>2024-10-13T09:14:20Z</time>
      </trkpt>
      <trkpt lat="49.28404" lon="0.15903">
        <ele>-3.4</ele>
        <time>2024-10-13T09:14:21Z</time>
      </trkpt>
      <trkpt lat="49.284" lon="0.15894">
        <ele>-3.4</ele>
        <time>2024-10-13T09:14:22Z</time>
      </trkpt>
      <trkpt lat="49.28397" lon="0.15884">
        <ele>-3.4</ele>
        <time>2024-10-13T09:14:23Z</time>
      </trkpt>
      <trkpt lat="49.28394" lon="0.15874">
        <ele>-3.2</ele>
        <time>2024-10-13T09:14:24Z</time>
      </trkpt>
      <trkpt lat="49.28391" lon="0.15864">
        <ele>-3.2</ele>
        <time>2024-10-13T09:14:25Z</time>
      </trkpt>
      <trkpt lat="49.28388" lon="0.15854">
        <ele>-3.2</ele>
        <time>2024-10-13T09:14:26Z</time>
      </trkpt>
      <trkpt lat="49.28385" lon="0.15843">
        <ele>-3</ele>
        <time>2024-10-13T09:14:27Z</time>
      </trkpt>
      <trkpt lat="49.28382" lon="0.15834">
        <ele>-3</ele>
        <time>2024-10-13T09:14:28Z</time>
      </trkpt>
      <trkpt lat="49.28379" lon="0.15824">
        <ele>-2.8</ele>
        <time>2024-10-13T09:14:29Z</time>
      </trkpt>
      <trkpt lat="49.28376" lon="0.15814">
        <ele>-2.8</ele>
        <time>2024-10-13T09:14:30Z</time>
      </trkpt>
      <trkpt lat="49.28373" lon="0.15805">
        <ele>-2.6</ele>
        <time>2024-10-13T09:14:31Z</time>
      </trkpt>
      <trkpt lat="49.2837" lon="0.15796">
        <ele>-2.6</ele>
        <time>2024-10-13T09:14:32Z</time>
      </trkpt>
      <trkpt lat="49.28366" lon="0.15787">
        <ele>-2.4</ele>
        <time>2024-10-13T09:14:33Z</time>
      </trkpt>
      <trkpt lat="49.28363" lon="0.15778">
        <ele>-2.4</ele>
        <time>2024-10-13T09:14:34Z</time>
      </trkpt>
      <trkpt lat="49.2836" lon="0.15769">
        <ele>-2.4</ele>
        <time>2024-10-13T09:14:35Z</time>
      </trkpt>
      <trkpt lat="49.28356" lon="0.15761">
        <ele>-2.2</ele>
        <time>2024-10-13T09:14:36Z</time>
      </trkpt>
      <trkpt lat="49.28352" lon="0.15753">
        <ele>-2</ele>
        <time>2024-10-13T09:14:37Z</time>
      </trkpt>
      <trkpt lat="49.28348" lon="0.15745">
        <ele>-2</ele>
        <time>2024-10-13T09:14:38Z</time>
      </trkpt>
      <trkpt lat="49.28344" lon="0.15737">
        <ele>-1.8</ele>
        <time>2024-10-13T09:14:39Z</time>
      </trkpt>
      <trkpt lat="49.2834" lon="0.1573">
        <ele>-1.6</ele>
        <time>2024-10-13T09:14:40Z</time>
      </trkpt>
      <trkpt lat="49.28336" lon="0.15723">
        <ele>-1.8</ele>
        <time>2024-10-13T09:14:41Z</time>
      </trkpt>
      <trkpt lat="49.28332" lon="0.15715">
        <ele>-1.6</ele>
        <time>2024-10-13T09:14:42Z</time>
      </trkpt>
      <trkpt lat="49.28329" lon="0.15708">
        <ele>-1.6</ele>
        <time>2024-10-13T09:14:43Z</time>
      </trkpt>
      <trkpt lat="49.28325" lon="0.15701">
        <ele>-1.6</ele>
        <time>2024-10-13T09:14:44Z</time>
      </trkpt>
      <trkpt lat="49.28322" lon="0.15693">
        <ele>-1.4</ele>
        <time>2024-10-13T09:14:45Z</time>
      </trkpt>
      <trkpt lat="49.28319" lon="0.15686">
        <ele>-1.2</ele>
        <time>2024-10-13T09:14:46Z</time>
      </trkpt>
      <trkpt lat="49.28316" lon="0.15677">
        <ele>-1.2</ele>
        <time>2024-10-13T09:14:47Z</time>
      </trkpt>
      <trkpt lat="49.28313" lon="0.15669">
        <ele>-1</ele>
        <time>2024-10-13T09:14:48Z</time>
      </trkpt>
      <trkpt lat="49.28311" lon="0.15661">
        <ele>-0.8</ele>
        <time>2024-10-13T09:14:49Z</time>
      </trkpt>
      <trkpt lat="49.28309" lon="0.15652">
        <ele>-0.6</ele>
        <time>2024-10-13T09:14:50Z</time>
      </trkpt>
      <trkpt lat="49.28308" lon="0.15643">
        <ele>-0.6</ele>
        <time>2024-10-13T09:14:51Z</time>
      </trkpt>
      <trkpt lat="49.28307" lon="0.15634">
        <ele>-0.2</ele>
        <time>2024-10-13T09:14:52Z</time>
      </trkpt>
      <trkpt lat="49.28306" lon="0.15624">
        <ele>-0.2</ele>
        <time>2024-10-13T09:14:53Z</time>
      </trkpt>
      <trkpt lat="49.28306" lon="0.15614">
        <ele>0.2</ele>
        <time>2024-10-13T09:14:54Z</time>
      </trkpt>
      <trkpt lat="49.28307" lon="0.15605">
        <ele>0.2</ele>
        <time>2024-10-13T09:14:55Z</time>
      </trkpt>
      <trkpt lat="49.28307" lon="0.15596">
        <ele>0.2</ele>
        <time>2024-10-13T09:14:56Z</time>
      </trkpt>
      <trkpt lat="49.28308" lon="0.15587">
        <ele>0.6</ele>
        <time>2024-10-13T09:14:57Z</time>
      </trkpt>
      <trkpt lat="49.28309" lon="0.15579">
        <ele>0.8</ele>
        <time>2024-10-13T09:14:58Z</time>
      </trkpt>
      <trkpt lat="49.2831" lon="0.15571">
        <ele>1</ele>
        <time>2024-10-13T09:14:59Z</time>
      </trkpt>
      <trkpt lat="49.28312" lon="0.15563">
        <ele>1.2</ele>
        <time>2024-10-13T09:15:00Z</time>
      </trkpt>
      <trkpt lat="49.28314" lon="0.15555">
        <ele>1.4</ele>
        <time>2024-10-13T09:15:01Z</time>
      </trkpt>
      <trkpt lat="49.28316" lon="0.15548">
        <ele>1.6</ele>
        <time>2024-10-13T09:15:02Z</time>
      </trkpt>
      <trkpt lat="49.28318" lon="0.1554">
        <ele>1.8</ele>
        <time>2024-10-13T09:15:03Z</time>
      </trkpt>
      <trkpt lat="49.2832" lon="0.15532">
        <ele>2</ele>
        <time>2024-10-13T09:15:04Z</time>
      </trkpt>
      <trkpt lat="49.28321" lon="0.15525">
        <ele>2.4</ele>
        <time>2024-10-13T09:15:05Z</time>
      </trkpt>
      <trkpt lat="49.28323" lon="0.15517">
        <ele>2.6</ele>
        <time>2024-10-13T09:15:06Z</time>
      </trkpt>
      <trkpt lat="49.28325" lon="0.1551">
        <ele>2.8</ele>
        <time>2024-10-13T09:15:07Z</time>
      </trkpt>
      <trkpt lat="49.28326" lon="0.15502">
        <ele>3.2</ele>
        <time>2024-10-13T09:15:08Z</time>
      </trkpt>
      <trkpt lat="49.28328" lon="0.15495">
        <ele>3.6</ele>
        <time>2024-10-13T09:15:09Z</time>
      </trkpt>
      <trkpt lat="49.2833" lon="0.15488">
        <ele>3.6</ele>
        <time>2024-10-13T09:15:10Z</time>
      </trkpt>
      <trkpt lat="49.28332" lon="0.15481">
        <ele>4</ele>
        <time>2024-10-13T09:15:11Z</time>
      </trkpt>
      <trkpt lat="49.28334" lon="0.15474">
        <ele>4.4</ele>
        <time>2024-10-13T09:15:12Z</time>
      </trkpt>
      <trkpt lat="49.28336" lon="0.15466">
        <ele>4.8</ele>
        <time>2024-10-13T09:15:13Z</time>
      </trkpt>
      <trkpt lat="49.28338" lon="0.15459">
        <ele>5</ele>
        <time>2024-10-13T09:15:14Z</time>
      </trkpt>
      <trkpt lat="49.2834" lon="0.15451">
        <ele>5.2</ele>
        <time>2024-10-13T09:15:15Z</time>
      </trkpt>
      <trkpt lat="49.28341" lon="0.15443">
        <ele>5.6</ele>
        <time>2024-10-13T09:15:16Z</time>
      </trkpt>
      <trkpt lat="49.28342" lon="0.15435">
        <ele>6</ele>
        <time>2024-10-13T09:15:17Z</time>
      </trkpt>
      <trkpt lat="49.28342" lon="0.15427">
        <ele>6.2</ele>
        <time>2024-10-13T09:15:18Z</time>
      </trkpt>
      <trkpt lat="49.28343" lon="0.15419">
        <ele>6.6</ele>
        <time>2024-10-13T09:15:19Z</time>
      </trkpt>
      <trkpt lat="49.28343" lon="0.15411">
        <ele>7</ele>
        <time>2024-10-13T09:15:20Z</time>
      </trkpt>
      <trkpt lat="49.28343" lon="0.15402">
        <ele>7.2</ele>
        <time>2024-10-13T09:15:21Z</time>
      </trkpt>
      <trkpt lat="49.28343" lon="0.15393">
        <ele>7.6</ele>
        <time>2024-10-13T09:15:22Z</time>
      </trkpt>
      <trkpt lat="49.28343" lon="0.15384">
        <ele>8</ele>
        <time>2024-10-13T09:15:23Z</time>
      </trkpt>
      <trkpt lat="49.28342" lon="0.15376">
        <ele>8.2</ele>
        <time>2024-10-13T09:15:24Z</time>
      </trkpt>
      <trkpt lat="49.28341" lon="0.15367">
        <ele>8.6</ele>
        <time>2024-10-13T09:15:25Z</time>
      </trkpt>
      <trkpt lat="49.28341" lon="0.15359">
        <ele>8.8</ele>
        <time>2024-10-13T09:15:26Z</time>
      </trkpt>
      <trkpt lat="49.2834" lon="0.1535">
        <ele>9.2</ele>
        <time>2024-10-13T09:15:27Z</time>
      </trkpt>
      <trkpt lat="49.28338" lon="0.15341">
        <ele>9.4</ele>
        <time>2024-10-13T09:15:28Z</time>
      </trkpt>
      <trkpt lat="49.28337" lon="0.15333">
        <ele>9.8</ele>
        <time>2024-10-13T09:15:29Z</time>
      </trkpt>
      <trkpt lat="49.28335" lon="0.15325">
        <ele>10.4</ele>
        <time>2024-10-13T09:15:30Z</time>
      </trkpt>
      <trkpt lat="49.28334" lon="0.15319">
        <ele>10.8</ele>
        <time>2024-10-13T09:15:31Z</time>
      </trkpt>
      <trkpt lat="49.28332" lon="0.15312">
        <ele>10.8</ele>
        <time>2024-10-13T09:15:32Z</time>
      </trkpt>
      <trkpt lat="49.2833" lon="0.15305">
        <ele>11.4</ele>
        <time>2024-10-13T09:15:33Z</time>
      </trkpt>
      <trkpt lat="49.28328" lon="0.15298">
        <ele>11.4</ele>
        <time>2024-10-13T09:15:34Z</time>
      </trkpt>
      <trkpt lat="49.28327" lon="0.1529">
        <ele>11.8</ele>
        <time>2024-10-13T09:15:35Z</time>
      </trkpt>
      <trkpt lat="49.28325" lon="0.15282">
        <ele>12</ele>
        <time>2024-10-13T09:15:36Z</time>
      </trkpt>
      <trkpt lat="49.28323" lon="0.15274">
        <ele>12.4</ele>
        <time>2024-10-13T09:15:37Z</time>
      </trkpt>
      <trkpt lat="49.28322" lon="0.15266">
        <ele>12.6</ele>
        <time>2024-10-13T09:15:38Z</time>
      </trkpt>
      <trkpt lat="49.28321" lon="0.15258">
        <ele>13</ele>
        <time>2024-10-13T09:15:39Z</time>
      </trkpt>
      <trkpt lat="49.28319" lon="0.15251">
        <ele>13.2</ele>
        <time>2024-10-13T09:15:40Z</time>
      </trkpt>
      <trkpt lat="49.28317" lon="0.15243">
        <ele>13.6</ele>
        <time>2024-10-13T09:15:41Z</time>
      </trkpt>
      <trkpt lat="49.28315" lon="0.15235">
        <ele>13.8</ele>
        <time>2024-10-13T09:15:42Z</time>
      </trkpt>
      <trkpt lat="49.28313" lon="0.15227">
        <ele>14.2</ele>
        <time>2024-10-13T09:15:43Z</time>
      </trkpt>
      <trkpt lat="49.28312" lon="0.15219">
        <ele>14.4</ele>
        <time>2024-10-13T09:15:44Z</time>
      </trkpt>
      <trkpt lat="49.2831" lon="0.15211">
        <ele>14.6</ele>
        <time>2024-10-13T09:15:45Z</time>
      </trkpt>
      <trkpt lat="49.28308" lon="0.15203">
        <ele>14.8</ele>
        <time>2024-10-13T09:15:46Z</time>
      </trkpt>
      <trkpt lat="49.28306" lon="0.15195">
        <ele>14.8</ele>
        <time>2024-10-13T09:15:47Z</time>
      </trkpt>
      <trkpt lat="49.28304" lon="0.15186">
        <ele>15</ele>
        <time>2024-10-13T09:15:48Z</time>
      </trkpt>
      <trkpt lat="49.28303" lon="0.15178">
        <ele>15.2</ele>
        <time>2024-10-13T09:15:49Z</time>
      </trkpt>
      <trkpt lat="49.28301" lon="0.1517">
        <ele>15.4</ele>
        <time>2024-10-13T09:15:50Z</time>
      </trkpt>
      <trkpt lat="49.28299" lon="0.15162">
        <ele>15.6</ele>
        <time>2024-10-13T09:15:51Z</time>
      </trkpt>
      <trkpt lat="49.28297" lon="0.15154">
        <ele>15.6</ele>
        <time>2024-10-13T09:15:52Z</time>
      </trkpt>
      <trkpt lat="49.28296" lon="0.15145">
        <ele>15.8</ele>
        <time>2024-10-13T09:15:53Z</time>
      </trkpt>
      <trkpt lat="49.28294" lon="0.15136">
        <ele>16</ele>
        <time>2024-10-13T09:15:54Z</time>
      </trkpt>
      <trkpt lat="49.28293" lon="0.15128">
        <ele>16</ele>
        <time>2024-10-13T09:15:55Z</time>
      </trkpt>
      <trkpt lat="49.28291" lon="0.15119">
        <ele>16.2</ele>
        <time>2024-10-13T09:15:56Z</time>
      </trkpt>
      <trkpt lat="49.2829" lon="0.1511">
        <ele>16.2</ele>
        <time>2024-10-13T09:15:57Z</time>
      </trkpt>
      <trkpt lat="49.28289" lon="0.15102">
        <ele>16.4</ele>
        <time>2024-10-13T09:15:58Z</time>
      </trkpt>
      <trkpt lat="49.28288" lon="0.15093">
        <ele>16.6</ele>
        <time>2024-10-13T09:15:59Z</time>
      </trkpt>
      <trkpt lat="49.28287" lon="0.15083">
        <ele>16.8</ele>
        <time>2024-10-13T09:16:00Z</time>
      </trkpt>
      <trkpt lat="49.28286" lon="0.15074">
        <ele>16.8</ele>
        <time>2024-10-13T09:16:01Z</time>
      </trkpt>
      <trkpt lat="49.28285" lon="0.15065">
        <ele>17</ele>
        <time>2024-10-13T09:16:02Z</time>
      </trkpt>
      <trkpt lat="49.28285" lon="0.15056">
        <ele>17</ele>
        <time>2024-10-13T09:16:03Z</time>
      </trkpt>
      <trkpt lat="49.28284" lon="0.15048">
        <ele>17.2</ele>
        <time>2024-10-13T09:16:04Z</time>
      </trkpt>
      <trkpt lat="49.28283" lon="0.15039">
        <ele>17.2</ele>
        <time>2024-10-13T09:16:05Z</time>
      </trkpt>
      <trkpt lat="49.28283" lon="0.1503">
        <ele>17.4</ele>
        <time>2024-10-13T09:16:06Z</time>
      </trkpt>
      <trkpt lat="49.28282" lon="0.15022">
        <ele>17.6</ele>
        <time>2024-10-13T09:16:07Z</time>
      </trkpt>
      <trkpt lat="49.28282" lon="0.15014">
        <ele>17.8</ele>
        <time>2024-10-13T09:16:08Z</time>
      </trkpt>
      <trkpt lat="49.28282" lon="0.15006">
        <ele>18</ele>
        <time>2024-10-13T09:16:09Z</time>
      </trkpt>
      <trkpt lat="49.28281" lon="0.14997">
        <ele>18.2</ele>
        <time>2024-10-13T09:16:10Z</time>
      </trkpt>
      <trkpt lat="49.2828" lon="0.14989">
        <ele>18.2</ele>
        <time>2024-10-13T09:16:11Z</time>
      </trkpt>
      <trkpt lat="49.28279" lon="0.1498">
        <ele>18.4</ele>
        <time>2024-10-13T09:16:12Z</time>
      </trkpt>
      <trkpt lat="49.28279" lon="0.14972">
        <ele>18.6</ele>
        <time>2024-10-13T09:16:13Z</time>
      </trkpt>
      <trkpt lat="49.28278" lon="0.14964">
        <ele>18.6</ele>
        <time>2024-10-13T09:16:14Z</time>
      </trkpt>
      <trkpt lat="49.28277" lon="0.14956">
        <ele>18.8</ele>
        <time>2024-10-13T09:16:15Z</time>
      </trkpt>
      <trkpt lat="49.28276" lon="0.14948">
        <ele>19.2</ele>
        <time>2024-10-13T09:16:16Z</time>
      </trkpt>
      <trkpt lat="49.28275" lon="0.1494">
        <ele>19.4</ele>
        <time>2024-10-13T09:16:17Z</time>
      </trkpt>
      <trkpt lat="49.28274" lon="0.14932">
        <ele>19.4</ele>
        <time>2024-10-13T09:16:18Z</time>
      </trkpt>
      <trkpt lat="49.28273" lon="0.14925">
        <ele>19.6</ele>
        <time>2024-10-13T09:16:19Z</time>
      </trkpt>
      <trkpt lat="49.28272" lon="0.14917">
        <ele>19.8</ele>
        <time>2024-10-13T09:16:20Z</time>
      </trkpt>
      <trkpt lat="49.28271" lon="0.14909">
        <ele>20</ele>
        <time>2024-10-13T09:16:21Z</time>
      </trkpt>
      <trkpt lat="49.2827" lon="0.14901">
        <ele>20</ele>
        <time>2024-10-13T09:16:22Z</time>
      </trkpt>
      <trkpt lat="49.28269" lon="0.14894">
        <ele>20</ele>
        <time>2024-10-13T09:16:23Z</time>
      </trkpt>
      <trkpt lat="49.28268" lon="0.14886">
        <ele>20.2</ele>
        <time>2024-10-13T09:16:24Z</time>
      </trkpt>
      <trkpt lat="49.28266" lon="0.14877">
        <ele>20.4</ele>
        <time>2024-10-13T09:16:25Z</time>
      </trkpt>
      <trkpt lat="49.28265" lon="0.1487">
        <ele>20.4</ele>
        <time>2024-10-13T09:16:26Z</time>
      </trkpt>
      <trkpt lat="49.28263" lon="0.14862">
        <ele>20.8</ele>
        <time>2024-10-13T09:16:27Z</time>
      </trkpt>
      <trkpt lat="49.28261" lon="0.14854">
        <ele>21</ele>
        <time>2024-10-13T09:16:28Z</time>
      </trkpt>
      <trkpt lat="49.28258" lon="0.14846">
        <ele>21</ele>
        <time>2024-10-13T09:16:29Z</time>
      </trkpt>
      <trkpt lat="49.28256" lon="0.14839">
        <ele>21.2</ele>
        <time>2024-10-13T09:16:30Z</time>
      </trkpt>
      <trkpt lat="49.28254" lon="0.14831">
        <ele>21.4</ele>
        <time>2024-10-13T09:16:31Z</time>
      </trkpt>
      <trkpt lat="49.28251" lon="0.14823">
        <ele>21.6</ele>
        <time>2024-10-13T09:16:32Z</time>
      </trkpt>
      <trkpt lat="49.28248" lon="0.14815">
        <ele>21.6</ele>
        <time>2024-10-13T09:16:33Z</time>
      </trkpt>
      <trkpt lat="49.28246" lon="0.14807">
        <ele>22</ele>
        <time>2024-10-13T09:16:34Z</time>
      </trkpt>
      <trkpt lat="49.28242" lon="0.14799">
        <ele>22</ele>
        <time>2024-10-13T09:16:35Z</time>
      </trkpt>
      <trkpt lat="49.28239" lon="0.14792">
        <ele>22.2</ele>
        <time>2024-10-13T09:16:36Z</time>
      </trkpt>
      <trkpt lat="49.28236" lon="0.14785">
        <ele>22.4</ele>
        <time>2024-10-13T09:16:37Z</time>
      </trkpt>
      <trkpt lat="49.28233" lon="0.14778">
        <ele>22.6</ele>
        <time>2024-10-13T09:16:38Z</time>
      </trkpt>
      <trkpt lat="49.28229" lon="0.14771">
        <ele>22.8</ele>
        <time>2024-10-13T09:16:39Z</time>
      </trkpt>
      <trkpt lat="49.28226" lon="0.14765">
        <ele>23.4</ele>
        <time>2024-10-13T09:16:40Z</time>
      </trkpt>
      <trkpt lat="49.28223" lon="0.14759">
        <ele>23.6</ele>
        <time>2024-10-13T09:16:41Z</time>
      </trkpt>
      <trkpt lat="49.28221" lon="0.14753">
        <ele>23.8</ele>
        <time>2024-10-13T09:16:42Z</time>
      </trkpt>
      <trkpt lat="49.28218" lon="0.14746">
        <ele>23.8</ele>
        <time>2024-10-13T09:16:43Z</time>
      </trkpt>
      <trkpt lat="49.28215" lon="0.1474">
        <ele>24</ele>
        <time>2024-10-13T09:16:44Z</time>
      </trkpt>
      <trkpt lat="49.28213" lon="0.14734">
        <ele>24</ele>
        <time>2024-10-13T09:16:45Z</time>
      </trkpt>
      <trkpt lat="49.2821" lon="0.14727">
        <ele>24</ele>
        <time>2024-10-13T09:16:46Z</time>
      </trkpt>
      <trkpt lat="49.28207" lon="0.14721">
        <ele>24.2</ele>
        <time>2024-10-13T09:16:47Z</time>
      </trkpt>
      <trkpt lat="49.28204" lon="0.14715">
        <ele>24.4</ele>
        <time>2024-10-13T09:16:48Z</time>
      </trkpt>
      <trkpt lat="49.28201" lon="0.14708">
        <ele>24.6</ele>
        <time>2024-10-13T09:16:49Z</time>
      </trkpt>
      <trkpt lat="49.28198" lon="0.14701">
        <ele>24.8</ele>
        <time>2024-10-13T09:16:50Z</time>
      </trkpt>
      <trkpt lat="49.28195" lon="0.14694">
        <ele>25</ele>
        <time>2024-10-13T09:16:51Z</time>
      </trkpt>
      <trkpt lat="49.28192" lon="0.14688">
        <ele>25.2</ele>
        <time>2024-10-13T09:16:52Z</time>
      </trkpt>
      <trkpt lat="49.28188" lon="0.14681">
        <ele>25.4</ele>
        <time>2024-10-13T09:16:53Z</time>
      </trkpt>
      <trkpt lat="49.28185" lon="0.14674">
        <ele>25.4</ele>
        <time>2024-10-13T09:16:54Z</time>
      </trkpt>
      <trkpt lat="49.28182" lon="0.14668">
        <ele>25.6</ele>
        <time>2024-10-13T09:16:55Z</time>
      </trkpt>
      <trkpt lat="49.28179" lon="0.14661">
        <ele>25.8</ele>
        <time>2024-10-13T09:16:56Z</time>
      </trkpt>
      <trkpt lat="49.28175" lon="0.14653">
        <ele>25.8</ele>
        <time>2024-10-13T09:16:57Z</time>
      </trkpt>
      <trkpt lat="49.28172" lon="0.14646">
        <ele>25.8</ele>
        <time>2024-10-13T09:16:58Z</time>
      </trkpt>
      <trkpt lat="49.28169" lon="0.14639">
        <ele>26</ele>
        <time>2024-10-13T09:16:59Z</time>
      </trkpt>
      <trkpt lat="49.28165" lon="0.14632">
        <ele>26</ele>
        <time>2024-10-13T09:17:00Z</time>
      </trkpt>
      <trkpt lat="49.28162" lon="0.14624">
        <ele>26</ele>
        <time>2024-10-13T09:17:01Z</time>
      </trkpt>
      <trkpt lat="49.28159" lon="0.14617">
        <ele>26.2</ele>
        <time>2024-10-13T09:17:02Z</time>
      </trkpt>
      <trkpt lat="49.28156" lon="0.14609">
        <ele>26.2</ele>
        <time>2024-10-13T09:17:03Z</time>
      </trkpt>
      <trkpt lat="49.28152" lon="0.14602">
        <ele>26.4</ele>
        <time>2024-10-13T09:17:04Z</time>
      </trkpt>
      <trkpt lat="49.28149" lon="0.14594">
        <ele>26.6</ele>
        <time>2024-10-13T09:17:05Z</time>
      </trkpt>
      <trkpt lat="49.28145" lon="0.14587">
        <ele>26.6</ele>
        <time>2024-10-13T09:17:06Z</time>
      </trkpt>
      <trkpt lat="49.28142" lon="0.1458">
        <ele>27</ele>
        <time>2024-10-13T09:17:07Z</time>
      </trkpt>
      <trkpt lat="49.2814" lon="0.14573">
        <ele>27.2</ele>
        <time>2024-10-13T09:17:08Z</time>
      </trkpt>
      <trkpt lat="49.28137" lon="0.14566">
        <ele>27.2</ele>
        <time>2024-10-13T09:17:09Z</time>
      </trkpt>
      <trkpt lat="49.28134" lon="0.14558">
        <ele>27.2</ele>
        <time>2024-10-13T09:17:10Z</time>
      </trkpt>
      <trkpt lat="49.2813" lon="0.14552">
        <ele>27.4</ele>
        <time>2024-10-13T09:17:11Z</time>
      </trkpt>
      <trkpt lat="49.28127" lon="0.14544">
        <ele>27.8</ele>
        <time>2024-10-13T09:17:12Z</time>
      </trkpt>
      <trkpt lat="49.28124" lon="0.14537">
        <ele>28</ele>
        <time>2024-10-13T09:17:13Z</time>
      </trkpt>
      <trkpt lat="49.2812" lon="0.1453">
        <ele>28</ele>
        <time>2024-10-13T09:17:14Z</time>
      </trkpt>
      <trkpt lat="49.28117" lon="0.14522">
        <ele>28.2</ele>
        <time>2024-10-13T09:17:15Z</time>
      </trkpt>
      <trkpt lat="49.28114" lon="0.14514">
        <ele>28.2</ele>
        <time>2024-10-13T09:17:16Z</time>
      </trkpt>
      <trkpt lat="49.2811" lon="0.14507">
        <ele>28.4</ele>
        <time>2024-10-13T09:17:17Z</time>
      </trkpt>
      <trkpt lat="49.28107" lon="0.145">
        <ele>28.4</ele>
        <time>2024-10-13T09:17:18Z</time>
      </trkpt>
      <trkpt lat="49.28104" lon="0.14494">
        <ele>28.6</ele>
        <time>2024-10-13T09:17:19Z</time>
      </trkpt>
      <trkpt lat="49.28101" lon="0.14487">
        <ele>28.8</ele>
        <time>2024-10-13T09:17:20Z</time>
      </trkpt>
      <trkpt lat="49.28098" lon="0.1448">
        <ele>29</ele>
        <time>2024-10-13T09:17:21Z</time>
      </trkpt>
      <trkpt lat="49.28095" lon="0.14474">
        <ele>29.2</ele>
        <time>2024-10-13T09:17:22Z</time>
      </trkpt>
      <trkpt lat="49.28092" lon="0.14467">
        <ele>29.2</ele>
        <time>2024-10-13T09:17:23Z</time>
      </trkpt>
      <trkpt lat="49.28089" lon="0.1446">
        <ele>29.4</ele>
        <time>2024-10-13T09:17:24Z</time>
      </trkpt>
      <trkpt lat="49.28086" lon="0.14453">
        <ele>29.6</ele>
        <time>2024-10-13T09:17:25Z</time>
      </trkpt>
      <trkpt lat="49.28083" lon="0.14445">
        <ele>29.8</ele>
        <time>2024-10-13T09:17:26Z</time>
      </trkpt>
      <trkpt lat="49.2808" lon="0.14438">
        <ele>30</ele>
        <time>2024-10-13T09:17:27Z</time>
      </trkpt>
      <trkpt lat="49.28078" lon="0.14431">
        <ele>30.2</ele>
        <time>2024-10-13T09:17:28Z</time>
      </trkpt>
      <trkpt lat="49.28075" lon="0.14423">
        <ele>30.4</ele>
        <time>2024-10-13T09:17:29Z</time>
      </trkpt>
      <trkpt lat="49.28073" lon="0.14416">
        <ele>30.4</ele>
        <time>2024-10-13T09:17:30Z</time>
      </trkpt>
      <trkpt lat="49.2807" lon="0.14408">
        <ele>30.4</ele>
        <time>2024-10-13T09:17:31Z</time>
      </trkpt>
      <trkpt lat="49.28068" lon="0.144">
        <ele>30.8</ele>
        <time>2024-10-13T09:17:32Z</time>
      </trkpt>
      <trkpt lat="49.28065" lon="0.14392">
        <ele>31</ele>
        <time>2024-10-13T09:17:33Z</time>
      </trkpt>
      <trkpt lat="49.28062" lon="0.14385">
        <ele>31</ele>
        <time>2024-10-13T09:17:34Z</time>
      </trkpt>
      <trkpt lat="49.2806" lon="0.14377">
        <ele>31.2</ele>
        <time>2024-10-13T09:17:35Z</time>
      </trkpt>
      <trkpt lat="49.28058" lon="0.14369">
        <ele>31.2</ele>
        <time>2024-10-13T09:17:36Z</time>
      </trkpt>
      <trkpt lat="49.28055" lon="0.14362">
        <ele>31.2</ele>
        <time>2024-10-13T09:17:37Z</time>
      </trkpt>
      <trkpt lat="49.28053" lon="0.14354">
        <ele>31.4</ele>
        <time>2024-10-13T09:17:38Z</time>
      </trkpt>
      <trkpt lat="49.28051" lon="0.14346">
        <ele>31.4</ele>
        <time>2024-10-13T09:17:39Z</time>
      </trkpt>
      <trkpt lat="49.2805" lon="0.14337">
        <ele>31.4</ele>
        <time>2024-10-13T09:17:40Z</time>
      </trkpt>
      <trkpt lat="49.28048" lon="0.14329">
        <ele>31.4</ele>
        <time>2024-10-13T09:17:41Z</time>
      </trkpt>
      <trkpt lat="49.28047" lon="0.14321">
        <ele>31.4</ele>
        <time>2024-10-13T09:17:42Z</time>
      </trkpt>
      <trkpt lat="49.28045" lon="0.14313">
        <ele>31.8</ele>
        <time>2024-10-13T09:17:43Z</time>
      </trkpt>
      <trkpt lat="49.28044" lon="0.14305">
        <ele>31.8</ele>
        <time>2024-10-13T09:17:44Z</time>
      </trkpt>
      <trkpt lat="49.28043" lon="0.14297">
        <ele>32</ele>
        <time>2024-10-13T09:17:45Z</time>
      </trkpt>
      <trkpt lat="49.28042" lon="0.14289">
        <ele>32.2</ele>
        <time>2024-10-13T09:17:46Z</time>
      </trkpt>
      <trkpt lat="49.28041" lon="0.1428">
        <ele>32.4</ele>
        <time>2024-10-13T09:17:47Z</time>
      </trkpt>
      <trkpt lat="49.2804" lon="0.14272">
        <ele>32.4</ele>
        <time>2024-10-13T09:17:48Z</time>
      </trkpt>
      <trkpt lat="49.28039" lon="0.14263">
        <ele>32.6</ele>
        <time>2024-10-13T09:17:49Z</time>
      </trkpt>
      <trkpt lat="49.28039" lon="0.14255">
        <ele>32.8</ele>
        <time>2024-10-13T09:17:50Z</time>
      </trkpt>
      <trkpt lat="49.28038" lon="0.14247">
        <ele>32.8</ele>
        <time>2024-10-13T09:17:51Z</time>
      </trkpt>
      <trkpt lat="49.28037" lon="0.14239">
        <ele>33</ele>
        <time>2024-10-13T09:17:52Z</time>
      </trkpt>
      <trkpt lat="49.28037" lon="0.1423">
        <ele>33.2</ele>
        <time>2024-10-13T09:17:53Z</time>
      </trkpt>
      <trkpt lat="49.28037" lon="0.14222">
        <ele>33.4</ele>
        <time>2024-10-13T09:17:54Z</time>
      </trkpt>
      <trkpt lat="49.28037" lon="0.14214">
        <ele>33.6</ele>
        <time>2024-10-13T09:17:55Z</time>
      </trkpt>
      <trkpt lat="49.28037" lon="0.14205">
        <ele>33.8</ele>
        <time>2024-10-13T09:17:56Z</time>
      </trkpt>
      <trkpt lat="49.28036" lon="0.14196">
        <ele>33.8</ele>
        <time>2024-10-13T09:17:57Z</time>
      </trkpt>
      <trkpt lat="49.28036" lon="0.14188">
        <ele>34</ele>
        <time>2024-10-13T09:17:58Z</time>
      </trkpt>
      <trkpt lat="49.28036" lon="0.14179">
        <ele>34</ele>
        <time>2024-10-13T09:17:59Z</time>
      </trkpt>
      <trkpt lat="49.28035" lon="0.1417">
        <ele>34.2</ele>
        <time>2024-10-13T09:18:00Z</time>
      </trkpt>
      <trkpt lat="49.28034" lon="0.14161">
        <ele>34.2</ele>
        <time>2024-10-13T09:18:01Z</time>
      </trkpt>
      <trkpt lat="49.28033" lon="0.14151">
        <ele>34.4</ele>
        <time>2024-10-13T09:18:02Z</time>
      </trkpt>
      <trkpt lat="49.28032" lon="0.14143">
        <ele>34.4</ele>
        <time>2024-10-13T09:18:03Z</time>
      </trkpt>
      <trkpt lat="49.28031" lon="0.14134">
        <ele>34.6</ele>
        <time>2024-10-13T09:18:04Z</time>
      </trkpt>
      <trkpt lat="49.2803" lon="0.14126">
        <ele>34.8</ele>
        <time>2024-10-13T09:18:05Z</time>
      </trkpt>
      <trkpt lat="49.28028" lon="0.14117">
        <ele>34.8</ele>
        <time>2024-10-13T09:18:06Z</time>
      </trkpt>
      <trkpt lat="49.28027" lon="0.14109">
        <ele>35</ele>
        <time>2024-10-13T09:18:07Z</time>
      </trkpt>
      <trkpt lat="49.28025" lon="0.141">
        <ele>35</ele>
        <time>2024-10-13T09:18:08Z</time>
      </trkpt>
      <trkpt lat="49.28023" lon="0.14091">
        <ele>35</ele>
        <time>2024-10-13T09:18:09Z</time>
      </trkpt>
      <trkpt lat="49.28022" lon="0.14083">
        <ele>35.2</ele>
        <time>2024-10-13T09:18:10Z</time>
      </trkpt>
      <trkpt lat="49.2802" lon="0.14074">
        <ele>35.2</ele>
        <time>2024-10-13T09:18:11Z</time>
      </trkpt>
      <trkpt lat="49.28018" lon="0.14066">
        <ele>35.2</ele>
        <time>2024-10-13T09:18:12Z</time>
      </trkpt>
      <trkpt lat="49.28016" lon="0.14057">
        <ele>35.4</ele>
        <time>2024-10-13T09:18:13Z</time>
      </trkpt>
      <trkpt lat="49.28013" lon="0.14048">
        <ele>35.4</ele>
        <time>2024-10-13T09:18:14Z</time>
      </trkpt>
      <trkpt lat="49.28011" lon="0.1404">
        <ele>35.6</ele>
        <time>2024-10-13T09:18:15Z</time>
      </trkpt>
      <trkpt lat="49.28009" lon="0.14031">
        <ele>35.6</ele>
        <time>2024-10-13T09:18:16Z</time>
      </trkpt>
      <trkpt lat="49.28008" lon="0.14023">
        <ele>35.6</ele>
        <time>2024-10-13T09:18:17Z</time>
      </trkpt>
      <trkpt lat="49.28006" lon="0.14014">
        <ele>35.6</ele>
        <time>2024-10-13T09:18:18Z</time>
      </trkpt>
      <trkpt lat="49.28004" lon="0.14006">
        <ele>35.8</ele>
        <time>2024-10-13T09:18:19Z</time>
      </trkpt>
      <trkpt lat="49.28002" lon="0.13998">
        <ele>35.8</ele>
        <time>2024-10-13T09:18:20Z</time>
      </trkpt>
      <trkpt lat="49.28" lon="0.13989">
        <ele>35.8</ele>
        <time>2024-10-13T09:18:21Z</time>
      </trkpt>
      <trkpt lat="49.27998" lon="0.1398">
        <ele>35.8</ele>
        <time>2024-10-13T09:18:22Z</time>
      </trkpt>
      <trkpt lat="49.27996" lon="0.13972">
        <ele>36</ele>
        <time>2024-10-13T09:18:23Z</time>
      </trkpt>
      <trkpt lat="49.27994" lon="0.13963">
        <ele>36</ele>
        <time>2024-10-13T09:18:24Z</time>
      </trkpt>
      <trkpt lat="49.27992" lon="0.13954">
        <ele>36</ele>
        <time>2024-10-13T09:18:25Z</time>
      </trkpt>
      <trkpt lat="49.2799" lon="0.13946">
        <ele>36</ele>
        <time>2024-10-13T09:18:26Z</time>
      </trkpt>
      <trkpt lat="49.27988" lon="0.13937">
        <ele>36.2</ele>
        <time>2024-10-13T09:18:27Z</time>
      </trkpt>
      <trkpt lat="49.27986" lon="0.13928">
        <ele>36.4</ele>
        <time>2024-10-13T09:18:28Z</time>
      </trkpt>
      <trkpt lat="49.27984" lon="0.13919">
        <ele>36.4</ele>
        <time>2024-10-13T09:18:29Z</time>
      </trkpt>
      <trkpt lat="49.27982" lon="0.1391">
        <ele>36.6</ele>
        <time>2024-10-13T09:18:30Z</time>
      </trkpt>
      <trkpt lat="49.2798" lon="0.13902">
        <ele>36.8</ele>
        <time>2024-10-13T09:18:31Z</time>
      </trkpt>
      <trkpt lat="49.27977" lon="0.13893">
        <ele>37</ele>
        <time>2024-10-13T09:18:32Z</time>
      </trkpt>
      <trkpt lat="49.27975" lon="0.13884">
        <ele>37</ele>
        <time>2024-10-13T09:18:33Z</time>
      </trkpt>
      <trkpt lat="49.27973" lon="0.13875">
        <ele>37</ele>
        <time>2024-10-13T09:18:34Z</time>
      </trkpt>
      <trkpt lat="49.27972" lon="0.13866">
        <ele>37</ele>
        <time>2024-10-13T09:18:35Z</time>
      </trkpt>
      <trkpt lat="49.2797" lon="0.13857">
        <ele>37.2</ele>
        <time>2024-10-13T09:18:36Z</time>
      </trkpt>
      <trkpt lat="49.27968" lon="0.13848">
        <ele>37.2</ele>
        <time>2024-10-13T09:18:37Z</time>
      </trkpt>
      <trkpt lat="49.27966" lon="0.13839">
        <ele>37.4</ele>
        <time>2024-10-13T09:18:38Z</time>
      </trkpt>
      <trkpt lat="49.27964" lon="0.1383">
        <ele>37.4</ele>
        <time>2024-10-13T09:18:39Z</time>
      </trkpt>
      <trkpt lat="49.27962" lon="0.13821">
        <ele>37.4</ele>
        <time>2024-10-13T09:18:40Z</time>
      </trkpt>
      <trkpt lat="49.27959" lon="0.13812">
        <ele>37.4</ele>
        <time>2024-10-13T09:18:41Z</time>
      </trkpt>
      <trkpt lat="49.27957" lon="0.13803">
        <ele>37.6</ele>
        <time>2024-10-13T09:18:42Z</time>
      </trkpt>
      <trkpt lat="49.27954" lon="0.13794">
        <ele>37.6</ele>
        <time>2024-10-13T09:18:43Z</time>
      </trkpt>
      <trkpt lat="49.27952" lon="0.13785">
        <ele>37.8</ele>
        <time>2024-10-13T09:18:44Z</time>
      </trkpt>
      <trkpt lat="49.2795" lon="0.13776">
        <ele>37.8</ele>
        <time>2024-10-13T09:18:45Z</time>
      </trkpt>
      <trkpt lat="49.27947" lon="0.13766">
        <ele>38</ele>
        <time>2024-10-13T09:18:46Z</time>
      </trkpt>
      <trkpt lat="49.27945" lon="0.13757">
        <ele>38</ele>
        <time>2024-10-13T09:18:47Z</time>
      </trkpt>
      <trkpt lat="49.27943" lon="0.13747">
        <ele>38.4</ele>
        <time>2024-10-13T09:18:48Z</time>
      </trkpt>
      <trkpt lat="49.27941" lon="0.13738">
        <ele>38.4</ele>
        <time>2024-10-13T09:18:49Z</time>
      </trkpt>
      <trkpt lat="49.27939" lon="0.13729">
        <ele>38.6</ele>
        <time>2024-10-13T09:18:50Z</time>
      </trkpt>
      <trkpt lat="49.27938" lon="0.1372">
        <ele>38.6</ele>
        <time>2024-10-13T09:18:51Z</time>
      </trkpt>
      <trkpt lat="49.27936" lon="0.13711">
        <ele>38.8</ele>
        <time>2024-10-13T09:18:52Z</time>
      </trkpt>
      <trkpt lat="49.27934" lon="0.13702">
        <ele>38.8</ele>
        <time>2024-10-13T09:18:53Z</time>
      </trkpt>
      <trkpt lat="49.27933" lon="0.13694">
        <ele>38.8</ele>
        <time>2024-10-13T09:18:54Z</time>
      </trkpt>
      <trkpt lat="49.27932" lon="0.13685">
        <ele>39</ele>
        <time>2024-10-13T09:18:55Z</time>
      </trkpt>
      <trkpt lat="49.2793" lon="0.13675">
        <ele>39.2</ele>
        <time>2024-10-13T09:18:56Z</time>
      </trkpt>
      <trkpt lat="49.27928" lon="0.13666">
        <ele>39.2</ele>
        <time>2024-10-13T09:18:57Z</time>
      </trkpt>
      <trkpt lat="49.27927" lon="0.13656">
        <ele>39.4</ele>
        <time>2024-10-13T09:18:58Z</time>
      </trkpt>
      <trkpt lat="49.27926" lon="0.13647">
        <ele>39.4</ele>
        <time>2024-10-13T09:18:59Z</time>
      </trkpt>
      <trkpt lat="49.27925" lon="0.13637">
        <ele>39.4</ele>
        <time>2024-10-13T09:19:00Z</time>
      </trkpt>
      <trkpt lat="49.27923" lon="0.13627">
        <ele>39.4</ele>
        <time>2024-10-13T09:19:01Z</time>
      </trkpt>
      <trkpt lat="49.27922" lon="0.13617">
        <ele>39.6</ele>
        <time>2024-10-13T09:19:02Z</time>
      </trkpt>
      <trkpt lat="49.2792" lon="0.13608">
        <ele>39.6</ele>
        <time>2024-10-13T09:19:03Z</time>
      </trkpt>
      <trkpt lat="49.27918" lon="0.13598">
        <ele>39.8</ele>
        <time>2024-10-13T09:19:04Z</time>
      </trkpt>
      <trkpt lat="49.27917" lon="0.13589">
        <ele>40</ele>
        <time>2024-10-13T09:19:05Z</time>
      </trkpt>
      <trkpt lat="49.27915" lon="0.13579">
        <ele>40</ele>
        <time>2024-10-13T09:19:06Z</time>
      </trkpt>
      <trkpt lat="49.27913" lon="0.1357">
        <ele>40.2</ele>
        <time>2024-10-13T09:19:07Z</time>
      </trkpt>
      <trkpt lat="49.27911" lon="0.13561">
        <ele>40.2</ele>
        <time>2024-10-13T09:19:08Z</time>
      </trkpt>
      <trkpt lat="49.27909" lon="0.13552">
        <ele>40.2</ele>
        <time>2024-10-13T09:19:09Z</time>
      </trkpt>
      <trkpt lat="49.27907" lon="0.13543">
        <ele>40.2</ele>
        <time>2024-10-13T09:19:10Z</time>
      </trkpt>
      <trkpt lat="49.27905" lon="0.13534">
        <ele>40.2</ele>
        <time>2024-10-13T09:19:11Z</time>
      </trkpt>
      <trkpt lat="49.27903" lon="0.13525">
        <ele>40.2</ele>
        <time>2024-10-13T09:19:12Z</time>
      </trkpt>
      <trkpt lat="49.27901" lon="0.13516">
        <ele>40.2</ele>
        <time>2024-10-13T09:19:13Z</time>
      </trkpt>
      <trkpt lat="49.27899" lon="0.13507">
        <ele>40.2</ele>
        <time>2024-10-13T09:19:14Z</time>
      </trkpt>
      <trkpt lat="49.27896" lon="0.13497">
        <ele>40.4</ele>
        <time>2024-10-13T09:19:15Z</time>
      </trkpt>
      <trkpt lat="49.27894" lon="0.13488">
        <ele>40.4</ele>
        <time>2024-10-13T09:19:16Z</time>
      </trkpt>
      <trkpt lat="49.27892" lon="0.1348">
        <ele>40.4</ele>
        <time>2024-10-13T09:19:17Z</time>
      </trkpt>
      <trkpt lat="49.2789" lon="0.13471">
        <ele>40.4</ele>
        <time>2024-10-13T09:19:18Z</time>
      </trkpt>
      <trkpt lat="49.27887" lon="0.13462">
        <ele>40.4</ele>
        <time>2024-10-13T09:19:19Z</time>
      </trkpt>
      <trkpt lat="49.27885" lon="0.13453">
        <ele>40.6</ele>
        <time>2024-10-13T09:19:20Z</time>
      </trkpt>
      <trkpt lat="49.27883" lon="0.13443">
        <ele>40.6</ele>
        <time>2024-10-13T09:19:21Z</time>
      </trkpt>
      <trkpt lat="49.27882" lon="0.13434">
        <ele>40.6</ele>
        <time>2024-10-13T09:19:22Z</time>
      </trkpt>
      <trkpt lat="49.2788" lon="0.13425">
        <ele>40.6</ele>
        <time>2024-10-13T09:19:23Z</time>
      </trkpt>
      <trkpt lat="49.27878" lon="0.13415">
        <ele>40.8</ele>
        <time>2024-10-13T09:19:24Z</time>
      </trkpt>
      <trkpt lat="49.27875" lon="0.13406">
        <ele>40.8</ele>
        <time>2024-10-13T09:19:25Z</time>
      </trkpt>
      <trkpt lat="49.27873" lon="0.13397">
        <ele>40.8</ele>
        <time>2024-10-13T09:19:26Z</time>
      </trkpt>
      <trkpt lat="49.2787" lon="0.13388">
        <ele>40.8</ele>
        <time>2024-10-13T09:19:27Z</time>
      </trkpt>
      <trkpt lat="49.27868" lon="0.13379">
        <ele>40.8</ele>
        <time>2024-10-13T09:19:28Z</time>
      </trkpt>
      <trkpt lat="49.27866" lon="0.1337">
        <ele>41</ele>
        <time>2024-10-13T09:19:29Z</time>
      </trkpt>
      <trkpt lat="49.27863" lon="0.13361">
        <ele>41</ele>
        <time>2024-10-13T09:19:30Z</time>
      </trkpt>
      <trkpt lat="49.27861" lon="0.13352">
        <ele>41.2</ele>
        <time>2024-10-13T09:19:31Z</time>
      </trkpt>
      <trkpt lat="49.27858" lon="0.13343">
        <ele>41.4</ele>
        <time>2024-10-13T09:19:32Z</time>
      </trkpt>
      <trkpt lat="49.27856" lon="0.13333">
        <ele>41.6</ele>
        <time>2024-10-13T09:19:33Z</time>
      </trkpt>
      <trkpt lat="49.27853" lon="0.13325">
        <ele>41.8</ele>
        <time>2024-10-13T09:19:34Z</time>
      </trkpt>
      <trkpt lat="49.27851" lon="0.13315">
        <ele>42</ele>
        <time>2024-10-13T09:19:35Z</time>
      </trkpt>
      <trkpt lat="49.27849" lon="0.13306">
        <ele>42</ele>
        <time>2024-10-13T09:19:36Z</time>
      </trkpt>
      <trkpt lat="49.27846" lon="0.13297">
        <ele>42.2</ele>
        <time>2024-10-13T09:19:37Z</time>
      </trkpt>
      <trkpt lat="49.27844" lon="0.13288">
        <ele>42.2</ele>
        <time>2024-10-13T09:19:38Z</time>
      </trkpt>
      <trkpt lat="49.27842" lon="0.13278">
        <ele>42.2</ele>
        <time>2024-10-13T09:19:39Z</time>
      </trkpt>
      <trkpt lat="49.27839" lon="0.13269">
        <ele>42.2</ele>
        <time>2024-10-13T09:19:40Z</time>
      </trkpt>
      <trkpt lat="49.27837" lon="0.1326">
        <ele>42.4</ele>
        <time>2024-10-13T09:19:41Z</time>
      </trkpt>
      <trkpt lat="49.27834" lon="0.13251">
        <ele>42.8</ele>
        <time>2024-10-13T09:19:42Z</time>
      </trkpt>
      <trkpt lat="49.27832" lon="0.13241">
        <ele>43</ele>
        <time>2024-10-13T09:19:43Z</time>
      </trkpt>
      <trkpt lat="49.2783" lon="0.13232">
        <ele>43.2</ele>
        <time>2024-10-13T09:19:44Z</time>
      </trkpt>
      <trkpt lat="49.27827" lon="0.13222">
        <ele>43.4</ele>
        <time>2024-10-13T09:19:45Z</time>
      </trkpt>
      <trkpt lat="49.27825" lon="0.13213">
        <ele>43.6</ele>
        <time>2024-10-13T09:19:46Z</time>
      </trkpt>
      <trkpt lat="49.27822" lon="0.13203">
        <ele>43.6</ele>
        <time>2024-10-13T09:19:47Z</time>
      </trkpt>
      <trkpt lat="49.2782" lon="0.13193">
        <ele>43.6</ele>
        <time>2024-10-13T09:19:48Z</time>
      </trkpt>
      <trkpt lat="49.27817" lon="0.13183">
        <ele>43.6</ele>
        <time>2024-10-13T09:19:49Z</time>
      </trkpt>
      <trkpt lat="49.27815" lon="0.13173">
        <ele>43.8</ele>
        <time>2024-10-13T09:19:50Z</time>
      </trkpt>
      <trkpt lat="49.27813" lon="0.13163">
        <ele>43.8</ele>
        <time>2024-10-13T09:19:51Z</time>
      </trkpt>
      <trkpt lat="49.2781" lon="0.13153">
        <ele>43.8</ele>
        <time>2024-10-13T09:19:52Z</time>
      </trkpt>
      <trkpt lat="49.27808" lon="0.13143">
        <ele>44</ele>
        <time>2024-10-13T09:19:53Z</time>
      </trkpt>
      <trkpt lat="49.27805" lon="0.13133">
        <ele>44.2</ele>
        <time>2024-10-13T09:19:54Z</time>
      </trkpt>
      <trkpt lat="49.27803" lon="0.13123">
        <ele>44.2</ele>
        <time>2024-10-13T09:19:55Z</time>
      </trkpt>
      <trkpt lat="49.27801" lon="0.13113">
        <ele>44.2</ele>
        <time>2024-10-13T09:19:56Z</time>
      </trkpt>
      <trkpt lat="49.27799" lon="0.13102">
        <ele>44.2</ele>
        <time>2024-10-13T09:19:57Z</time>
      </trkpt>
      <trkpt lat="49.27796" lon="0.13091">
        <ele>44.2</ele>
        <time>2024-10-13T09:19:58Z</time>
      </trkpt>
      <trkpt lat="49.27794" lon="0.1308">
        <ele>44.4</ele>
        <time>2024-10-13T09:19:59Z</time>
      </trkpt>
      <trkpt lat="49.27792" lon="0.13069">
        <ele>44.4</ele>
        <time>2024-10-13T09:20:00Z</time>
      </trkpt>
      <trkpt lat="49.2779" lon="0.13058">
        <ele>44.4</ele>
        <time>2024-10-13T09:20:01Z</time>
      </trkpt>
      <trkpt lat="49.27788" lon="0.13046">
        <ele>44.4</ele>
        <time>2024-10-13T09:20:02Z</time>
      </trkpt>
      <trkpt lat="49.27786" lon="0.13034">
        <ele>44.4</ele>
        <time>2024-10-13T09:20:03Z</time>
      </trkpt>
      <trkpt lat="49.27785" lon="0.13022">
        <ele>44.4</ele>
        <time>2024-10-13T09:20:04Z</time>
      </trkpt>
      <trkpt lat="49.27784" lon="0.13009">
        <ele>44.4</ele>
        <time>2024-10-13T09:20:05Z</time>
      </trkpt>
      <trkpt lat="49.27782" lon="0.12996">
        <ele>44.4</ele>
        <time>2024-10-13T09:20:06Z</time>
      </trkpt>
      <trkpt lat="49.27781" lon="0.12983">
        <ele>44.4</ele>
        <time>2024-10-13T09:20:07Z</time>
      </trkpt>
      <trkpt lat="49.27781" lon="0.1297">
        <ele>44.4</ele>
        <time>2024-10-13T09:20:08Z</time>
      </trkpt>
      <trkpt lat="49.2778" lon="0.12956">
        <ele>44.4</ele>
        <time>2024-10-13T09:20:09Z</time>
      </trkpt>
      <trkpt lat="49.2778" lon="0.12943">
        <ele>44.4</ele>
        <time>2024-10-13T09:20:10Z</time>
      </trkpt>
      <trkpt lat="49.27781" lon="0.12929">
        <ele>44.4</ele>
        <time>2024-10-13T09:20:11Z</time>
      </trkpt>
      <trkpt lat="49.27781" lon="0.12915">
        <ele>44</ele>
        <time>2024-10-13T09:20:12Z</time>
      </trkpt>
      <trkpt lat="49.27783" lon="0.12901">
        <ele>43.8</ele>
        <time>2024-10-13T09:20:13Z</time>
      </trkpt>
      <trkpt lat="49.27785" lon="0.12887">
        <ele>43.6</ele>
        <time>2024-10-13T09:20:14Z</time>
      </trkpt>
      <trkpt lat="49.27787" lon="0.12874">
        <ele>43.6</ele>
        <time>2024-10-13T09:20:15Z</time>
      </trkpt>
      <trkpt lat="49.2779" lon="0.1286">
        <ele>43</ele>
        <time>2024-10-13T09:20:16Z</time>
      </trkpt>
      <trkpt lat="49.27793" lon="0.12847">
        <ele>42.8</ele>
        <time>2024-10-13T09:20:17Z</time>
      </trkpt>
      <trkpt lat="49.27795" lon="0.12834">
        <ele>42.2</ele>
        <time>2024-10-13T09:20:18Z</time>
      </trkpt>
      <trkpt lat="49.27797" lon="0.1282">
        <ele>41.6</ele>
        <time>2024-10-13T09:20:19Z</time>
      </trkpt>
      <trkpt lat="49.27798" lon="0.12807">
        <ele>40.8</ele>
        <time>2024-10-13T09:20:20Z</time>
      </trkpt>
      <trkpt lat="49.27799" lon="0.12794">
        <ele>40.2</ele>
        <time>2024-10-13T09:20:21Z</time>
      </trkpt>
      <trkpt lat="49.278" lon="0.12781">
        <ele>39.6</ele>
        <time>2024-10-13T09:20:22Z</time>
      </trkpt>
      <trkpt lat="49.278" lon="0.12769">
        <ele>39</ele>
        <time>2024-10-13T09:20:23Z</time>
      </trkpt>
      <trkpt lat="49.278" lon="0.12756">
        <ele>38.4</ele>
        <time>2024-10-13T09:20:24Z</time>
      </trkpt>
      <trkpt lat="49.27799" lon="0.12744">
        <ele>38.2</ele>
        <time>2024-10-13T09:20:25Z</time>
      </trkpt>
      <trkpt lat="49.27799" lon="0.12732">
        <ele>37.8</ele>
        <time>2024-10-13T09:20:26Z</time>
      </trkpt>
      <trkpt lat="49.27799" lon="0.1272">
        <ele>37.6</ele>
        <time>2024-10-13T09:20:27Z</time>
      </trkpt>
      <trkpt lat="49.27799" lon="0.12708">
        <ele>37.6</ele>
        <time>2024-10-13T09:20:28Z</time>
      </trkpt>
      <trkpt lat="49.27799" lon="0.12696">
        <ele>37.4</ele>
        <time>2024-10-13T09:20:29Z</time>
      </trkpt>
      <trkpt lat="49.27798" lon="0.12684">
        <ele>37.2</ele>
        <time>2024-10-13T09:20:30Z</time>
      </trkpt>
      <trkpt lat="49.27798" lon="0.12672">
        <ele>37</ele>
        <time>2024-10-13T09:20:31Z</time>
      </trkpt>
      <trkpt lat="49.27798" lon="0.1266">
        <ele>37</ele>
        <time>2024-10-13T09:20:32Z</time>
      </trkpt>
      <trkpt lat="49.27797" lon="0.12647">
        <ele>37</ele>
        <time>2024-10-13T09:20:33Z</time>
      </trkpt>
      <trkpt lat="49.27797" lon="0.12635">
        <ele>36.8</ele>
        <time>2024-10-13T09:20:34Z</time>
      </trkpt>
      <trkpt lat="49.27797" lon="0.12623">
        <ele>36.8</ele>
        <time>2024-10-13T09:20:35Z</time>
      </trkpt>
      <trkpt lat="49.27796" lon="0.12611">
        <ele>36.8</ele>
        <time>2024-10-13T09:20:36Z</time>
      </trkpt>
      <trkpt lat="49.27796" lon="0.12599">
        <ele>36.8</ele>
        <time>2024-10-13T09:20:37Z</time>
      </trkpt>
      <trkpt lat="49.27795" lon="0.12587">
        <ele>36.8</ele>
        <time>2024-10-13T09:20:38Z</time>
      </trkpt>
      <trkpt lat="49.27795" lon="0.12574">
        <ele>36.8</ele>
        <time>2024-10-13T09:20:39Z</time>
      </trkpt>
      <trkpt lat="49.27794" lon="0.12562">
        <ele>36.8</ele>
        <time>2024-10-13T09:20:40Z</time>
      </trkpt>
      <trkpt lat="49.27793" lon="0.12549">
        <ele>36.8</ele>
        <time>2024-10-13T09:20:41Z</time>
      </trkpt>
      <trkpt lat="49.27792" lon="0.12536">
        <ele>36.8</ele>
        <time>2024-10-13T09:20:42Z</time>
      </trkpt>
      <trkpt lat="49.27791" lon="0.12523">
        <ele>36.8</ele>
        <time>2024-10-13T09:20:43Z</time>
      </trkpt>
      <trkpt lat="49.2779" lon="0.1251">
        <ele>36.8</ele>
        <time>2024-10-13T09:20:44Z</time>
      </trkpt>
      <trkpt lat="49.2779" lon="0.12496">
        <ele>36.8</ele>
        <time>2024-10-13T09:20:45Z</time>
      </trkpt>
      <trkpt lat="49.2779" lon="0.12482">
        <ele>36.8</ele>
        <time>2024-10-13T09:20:46Z</time>
      </trkpt>
      <trkpt lat="49.2779" lon="0.12469">
        <ele>36.8</ele>
        <time>2024-10-13T09:20:47Z</time>
      </trkpt>
      <trkpt lat="49.27792" lon="0.12455">
        <ele>36.8</ele>
        <time>2024-10-13T09:20:48Z</time>
      </trkpt>
      <trkpt lat="49.27793" lon="0.12441">
        <ele>36.8</ele>
        <time>2024-10-13T09:20:49Z</time>
      </trkpt>
      <trkpt lat="49.27795" lon="0.12428">
        <ele>36.8</ele>
        <time>2024-10-13T09:20:50Z</time>
      </trkpt>
      <trkpt lat="49.27798" lon="0.12414">
        <ele>36.8</ele>
        <time>2024-10-13T09:20:51Z</time>
      </trkpt>
      <trkpt lat="49.278" lon="0.12401">
        <ele>36.8</ele>
        <time>2024-10-13T09:20:52Z</time>
      </trkpt>
      <trkpt lat="49.27802" lon="0.12388">
        <ele>36.8</ele>
        <time>2024-10-13T09:20:53Z</time>
      </trkpt>
      <trkpt lat="49.27804" lon="0.12375">
        <ele>36.8</ele>
        <time>2024-10-13T09:20:54Z</time>
      </trkpt>
      <trkpt lat="49.27807" lon="0.12362">
        <ele>36.6</ele>
        <time>2024-10-13T09:20:55Z</time>
      </trkpt>
      <trkpt lat="49.2781" lon="0.12349">
        <ele>36.4</ele>
        <time>2024-10-13T09:20:56Z</time>
      </trkpt>
      <trkpt lat="49.27812" lon="0.12336">
        <ele>36.4</ele>
        <time>2024-10-13T09:20:57Z</time>
      </trkpt>
      <trkpt lat="49.27814" lon="0.12322">
        <ele>36</ele>
        <time>2024-10-13T09:20:58Z</time>
      </trkpt>
      <trkpt lat="49.27816" lon="0.1231">
        <ele>35.6</ele>
        <time>2024-10-13T09:20:59Z</time>
      </trkpt>
      <trkpt lat="49.27817" lon="0.12297">
        <ele>35.4</ele>
        <time>2024-10-13T09:21:00Z</time>
      </trkpt>
      <trkpt lat="49.27819" lon="0.12286">
        <ele>35.2</ele>
        <time>2024-10-13T09:21:01Z</time>
      </trkpt>
      <trkpt lat="49.27821" lon="0.12275">
        <ele>35.2</ele>
        <time>2024-10-13T09:21:02Z</time>
      </trkpt>
      <trkpt lat="49.27823" lon="0.12264">
        <ele>35</ele>
        <time>2024-10-13T09:21:03Z</time>
      </trkpt>
      <trkpt lat="49.27825" lon="0.12254">
        <ele>35</ele>
        <time>2024-10-13T09:21:04Z</time>
      </trkpt>
      <trkpt lat="49.27827" lon="0.12244">
        <ele>34.8</ele>
        <time>2024-10-13T09:21:05Z</time>
      </trkpt>
      <trkpt lat="49.2783" lon="0.12233">
        <ele>34.6</ele>
        <time>2024-10-13T09:21:06Z</time>
      </trkpt>
      <trkpt lat="49.27832" lon="0.12222">
        <ele>34.4</ele>
        <time>2024-10-13T09:21:07Z</time>
      </trkpt>
      <trkpt lat="49.27834" lon="0.1221">
        <ele>34.4</ele>
        <time>2024-10-13T09:21:08Z</time>
      </trkpt>
      <trkpt lat="49.27837" lon="0.12199">
        <ele>34.2</ele>
        <time>2024-10-13T09:21:09Z</time>
      </trkpt>
      <trkpt lat="49.27839" lon="0.12187">
        <ele>34.2</ele>
        <time>2024-10-13T09:21:10Z</time>
      </trkpt>
      <trkpt lat="49.27842" lon="0.12175">
        <ele>34.2</ele>
        <time>2024-10-13T09:21:11Z</time>
      </trkpt>
      <trkpt lat="49.27845" lon="0.12163">
        <ele>34</ele>
        <time>2024-10-13T09:21:12Z</time>
      </trkpt>
      <trkpt lat="49.27848" lon="0.12152">
        <ele>34</ele>
        <time>2024-10-13T09:21:13Z</time>
      </trkpt>
      <trkpt lat="49.27851" lon="0.1214">
        <ele>33.6</ele>
        <time>2024-10-13T09:21:14Z</time>
      </trkpt>
      <trkpt lat="49.27854" lon="0.12129">
        <ele>33.4</ele>
        <time>2024-10-13T09:21:15Z</time>
      </trkpt>
      <trkpt lat="49.27857" lon="0.12117">
        <ele>33</ele>
        <time>2024-10-13T09:21:16Z</time>
      </trkpt>
      <trkpt lat="49.2786" lon="0.12106">
        <ele>32.6</ele>
        <time>2024-10-13T09:21:17Z</time>
      </trkpt>
      <trkpt lat="49.27863" lon="0.12094">
        <ele>32.2</ele>
        <time>2024-10-13T09:21:18Z</time>
      </trkpt>
      <trkpt lat="49.27867" lon="0.12082">
        <ele>31.8</ele>
        <time>2024-10-13T09:21:19Z</time>
      </trkpt>
      <trkpt lat="49.2787" lon="0.1207">
        <ele>31.4</ele>
        <time>2024-10-13T09:21:20Z</time>
      </trkpt>
      <trkpt lat="49.27873" lon="0.12058">
        <ele>31</ele>
        <time>2024-10-13T09:21:21Z</time>
      </trkpt>
      <trkpt lat="49.27876" lon="0.12046">
        <ele>30.6</ele>
        <time>2024-10-13T09:21:22Z</time>
      </trkpt>
      <trkpt lat="49.27879" lon="0.12035">
        <ele>30.2</ele>
        <time>2024-10-13T09:21:23Z</time>
      </trkpt>
      <trkpt lat="49.27883" lon="0.12023">
        <ele>30</ele>
        <time>2024-10-13T09:21:24Z</time>
      </trkpt>
      <trkpt lat="49.27886" lon="0.12011">
        <ele>29.6</ele>
        <time>2024-10-13T09:21:25Z</time>
      </trkpt>
      <trkpt lat="49.27889" lon="0.11998">
        <ele>29.4</ele>
        <time>2024-10-13T09:21:26Z</time>
      </trkpt>
      <trkpt lat="49.27892" lon="0.11986">
        <ele>29</ele>
        <time>2024-10-13T09:21:27Z</time>
      </trkpt>
      <trkpt lat="49.27896" lon="0.11973">
        <ele>28.6</ele>
        <time>2024-10-13T09:21:28Z</time>
      </trkpt>
      <trkpt lat="49.279" lon="0.1196">
        <ele>28</ele>
        <time>2024-10-13T09:21:29Z</time>
      </trkpt>
      <trkpt lat="49.27903" lon="0.11947">
        <ele>27.6</ele>
        <time>2024-10-13T09:21:30Z</time>
      </trkpt>
      <trkpt lat="49.27906" lon="0.11934">
        <ele>27</ele>
        <time>2024-10-13T09:21:31Z</time>
      </trkpt>
      <trkpt lat="49.2791" lon="0.11921">
        <ele>26.6</ele>
        <time>2024-10-13T09:21:32Z</time>
      </trkpt>
      <trkpt lat="49.27912" lon="0.11908">
        <ele>26</ele>
        <time>2024-10-13T09:21:33Z</time>
      </trkpt>
      <trkpt lat="49.27914" lon="0.11895">
        <ele>25.6</ele>
        <time>2024-10-13T09:21:34Z</time>
      </trkpt>
      <trkpt lat="49.27915" lon="0.11882">
        <ele>25.6</ele>
        <time>2024-10-13T09:21:35Z</time>
      </trkpt>
      <trkpt lat="49.27916" lon="0.11869">
        <ele>25.2</ele>
        <time>2024-10-13T09:21:36Z</time>
      </trkpt>
      <trkpt lat="49.27916" lon="0.11856">
        <ele>24.6</ele>
        <time>2024-10-13T09:21:37Z</time>
      </trkpt>
      <trkpt lat="49.27917" lon="0.11844">
        <ele>24.2</ele>
        <time>2024-10-13T09:21:38Z</time>
      </trkpt>
      <trkpt lat="49.27917" lon="0.11832">
        <ele>24</ele>
        <time>2024-10-13T09:21:39Z</time>
      </trkpt>
      <trkpt lat="49.27918" lon="0.11821">
        <ele>24</ele>
        <time>2024-10-13T09:21:40Z</time>
      </trkpt>
      <trkpt lat="49.27918" lon="0.11811">
        <ele>23.8</ele>
        <time>2024-10-13T09:21:41Z</time>
      </trkpt>
      <trkpt lat="49.27918" lon="0.11801">
        <ele>23.8</ele>
        <time>2024-10-13T09:21:42Z</time>
      </trkpt>
      <trkpt lat="49.27919" lon="0.11793">
        <ele>23.8</ele>
        <time>2024-10-13T09:21:43Z</time>
      </trkpt>
      <trkpt lat="49.27919" lon="0.11785">
        <ele>23.8</ele>
        <time>2024-10-13T09:21:44Z</time>
      </trkpt>
      <trkpt lat="49.2792" lon="0.11778">
        <ele>23.8</ele>
        <time>2024-10-13T09:21:45Z</time>
      </trkpt>
      <trkpt lat="49.2792" lon="0.11771">
        <ele>23.8</ele>
        <time>2024-10-13T09:21:46Z</time>
      </trkpt>
      <trkpt lat="49.2792" lon="0.11764">
        <ele>23.8</ele>
        <time>2024-10-13T09:21:47Z</time>
      </trkpt>
      <trkpt lat="49.2792" lon="0.11757">
        <ele>23.8</ele>
        <time>2024-10-13T09:21:48Z</time>
      </trkpt>
      <trkpt lat="49.2792" lon="0.11751">
        <ele>24.2</ele>
        <time>2024-10-13T09:21:49Z</time>
      </trkpt>
      <trkpt lat="49.2792" lon="0.11744">
        <ele>24.8</ele>
        <time>2024-10-13T09:21:50Z</time>
      </trkpt>
      <trkpt lat="49.2792" lon="0.11738">
        <ele>25.2</ele>
        <time>2024-10-13T09:21:51Z</time>
      </trkpt>
      <trkpt lat="49.27921" lon="0.11731">
        <ele>25.8</ele>
        <time>2024-10-13T09:21:52Z</time>
      </trkpt>
      <trkpt lat="49.27921" lon="0.11726">
        <ele>26.4</ele>
        <time>2024-10-13T09:21:53Z</time>
      </trkpt>
      <trkpt lat="49.27921" lon="0.11719">
        <ele>27</ele>
        <time>2024-10-13T09:21:54Z</time>
      </trkpt>
      <trkpt lat="49.27921" lon="0.11713">
        <ele>27.6</ele>
        <time>2024-10-13T09:21:55Z</time>
      </trkpt>
      <trkpt lat="49.27922" lon="0.11707">
        <ele>28</ele>
        <time>2024-10-13T09:21:56Z</time>
      </trkpt>
      <trkpt lat="49.27922" lon="0.11702">
        <ele>28</ele>
        <time>2024-10-13T09:21:57Z</time>
      </trkpt>
      <trkpt lat="49.27923" lon="0.11696">
        <ele>28.6</ele>
        <time>2024-10-13T09:21:58Z</time>
      </trkpt>
      <trkpt lat="49.27923" lon="0.1169">
        <ele>29</ele>
        <time>2024-10-13T09:21:59Z</time>
      </trkpt>
      <trkpt lat="49.27923" lon="0.11685">
        <ele>29</ele>
        <time>2024-10-13T09:22:00Z</time>
      </trkpt>
      <trkpt lat="49.27923" lon="0.11679">
        <ele>29.8</ele>
        <time>2024-10-13T09:22:01Z</time>
      </trkpt>
      <trkpt lat="49.27923" lon="0.11674">
        <ele>30.2</ele>
        <time>2024-10-13T09:22:02Z</time>
      </trkpt>
      <trkpt lat="49.27923" lon="0.11668">
        <ele>30.8</ele>
        <time>2024-10-13T09:22:03Z</time>
      </trkpt>
      <trkpt lat="49.27924" lon="0.11663">
        <ele>31.2</ele>
        <time>2024-10-13T09:22:04Z</time>
      </trkpt>
      <trkpt lat="49.27924" lon="0.11658">
        <ele>31.6</ele>
        <time>2024-10-13T09:22:05Z</time>
      </trkpt>
      <trkpt lat="49.27924" lon="0.11652">
        <ele>32</ele>
        <time>2024-10-13T09:22:06Z</time>
      </trkpt>
      <trkpt lat="49.27924" lon="0.11647">
        <ele>32.4</ele>
        <time>2024-10-13T09:22:07Z</time>
      </trkpt>
      <trkpt lat="49.27925" lon="0.11642">
        <ele>32.8</ele>
        <time>2024-10-13T09:22:08Z</time>
      </trkpt>
      <trkpt lat="49.27925" lon="0.11636">
        <ele>33.2</ele>
        <time>2024-10-13T09:22:09Z</time>
      </trkpt>
      <trkpt lat="49.27925" lon="0.11631">
        <ele>33.6</ele>
        <time>2024-10-13T09:22:10Z</time>
      </trkpt>
      <trkpt lat="49.27925" lon="0.11626">
        <ele>34</ele>
        <time>2024-10-13T09:22:11Z</time>
      </trkpt>
      <trkpt lat="49.27926" lon="0.11621">
        <ele>34.2</ele>
        <time>2024-10-13T09:22:12Z</time>
      </trkpt>
      <trkpt lat="49.27926" lon="0.11616">
        <ele>34.6</ele>
        <time>2024-10-13T09:22:13Z</time>
      </trkpt>
      <trkpt lat="49.27926" lon="0.11611">
        <ele>35</ele>
        <time>2024-10-13T09:22:14Z</time>
      </trkpt>
      <trkpt lat="49.27926" lon="0.11606">
        <ele>35.6</ele>
        <time>2024-10-13T09:22:15Z</time>
      </trkpt>
      <trkpt lat="49.27927" lon="0.116">
        <ele>35.8</ele>
        <time>2024-10-13T09:22:16Z</time>
      </trkpt>
      <trkpt lat="49.27927" lon="0.11595">
        <ele>36.2</ele>
        <time>2024-10-13T09:22:17Z</time>
      </trkpt>
      <trkpt lat="49.27927" lon="0.1159">
        <ele>36.6</ele>
        <time>2024-10-13T09:22:18Z</time>
      </trkpt>
      <trkpt lat="49.27927" lon="0.11585">
        <ele>36.6</ele>
        <time>2024-10-13T09:22:19Z</time>
      </trkpt>
      <trkpt lat="49.27927" lon="0.1158">
        <ele>37</ele>
        <time>2024-10-13T09:22:20Z</time>
      </trkpt>
      <trkpt lat="49.27928" lon="0.11575">
        <ele>37.4</ele>
        <time>2024-10-13T09:22:21Z</time>
      </trkpt>
      <trkpt lat="49.27928" lon="0.11571">
        <ele>37.6</ele>
        <time>2024-10-13T09:22:22Z</time>
      </trkpt>
      <trkpt lat="49.27928" lon="0.11566">
        <ele>38</ele>
        <time>2024-10-13T09:22:23Z</time>
      </trkpt>
      <trkpt lat="49.27928" lon="0.11562">
        <ele>38.4</ele>
        <time>2024-10-13T09:22:24Z</time>
      </trkpt>
      <trkpt lat="49.27929" lon="0.11557">
        <ele>38.8</ele>
        <time>2024-10-13T09:22:25Z</time>
      </trkpt>
      <trkpt lat="49.27929" lon="0.11553">
        <ele>39.2</ele>
        <time>2024-10-13T09:22:26Z</time>
      </trkpt>
      <trkpt lat="49.27929" lon="0.11548">
        <ele>39.6</ele>
        <time>2024-10-13T09:22:27Z</time>
      </trkpt>
      <trkpt lat="49.2793" lon="0.11543">
        <ele>39.8</ele>
        <time>2024-10-13T09:22:28Z</time>
      </trkpt>
      <trkpt lat="49.2793" lon="0.11539">
        <ele>40</ele>
        <time>2024-10-13T09:22:29Z</time>
      </trkpt>
      <trkpt lat="49.2793" lon="0.11534">
        <ele>40.4</ele>
        <time>2024-10-13T09:22:30Z</time>
      </trkpt>
      <trkpt lat="49.2793" lon="0.11529">
        <ele>40.8</ele>
        <time>2024-10-13T09:22:31Z</time>
      </trkpt>
      <trkpt lat="49.2793" lon="0.11525">
        <ele>41.2</ele>
        <time>2024-10-13T09:22:32Z</time>
      </trkpt>
      <trkpt lat="49.2793" lon="0.1152">
        <ele>41.4</ele>
        <time>2024-10-13T09:22:33Z</time>
      </trkpt>
      <trkpt lat="49.2793" lon="0.11515">
        <ele>41.8</ele>
        <time>2024-10-13T09:22:34Z</time>
      </trkpt>
      <trkpt lat="49.2793" lon="0.11511">
        <ele>42</ele>
        <time>2024-10-13T09:22:35Z</time>
      </trkpt>
      <trkpt lat="49.27931" lon="0.11506">
        <ele>42.4</ele>
        <time>2024-10-13T09:22:36Z</time>
      </trkpt>
      <trkpt lat="49.27931" lon="0.11502">
        <ele>42.6</ele>
        <time>2024-10-13T09:22:37Z</time>
      </trkpt>
      <trkpt lat="49.27931" lon="0.11497">
        <ele>43</ele>
        <time>2024-10-13T09:22:38Z</time>
      </trkpt>
      <trkpt lat="49.27931" lon="0.11493">
        <ele>43.2</ele>
        <time>2024-10-13T09:22:39Z</time>
      </trkpt>
      <trkpt lat="49.27931" lon="0.11489">
        <ele>43.6</ele>
        <time>2024-10-13T09:22:40Z</time>
      </trkpt>
      <trkpt lat="49.27931" lon="0.11484">
        <ele>43.6</ele>
        <time>2024-10-13T09:22:41Z</time>
      </trkpt>
      <trkpt lat="49.27932" lon="0.1148">
        <ele>43.8</ele>
        <time>2024-10-13T09:22:42Z</time>
      </trkpt>
      <trkpt lat="49.27932" lon="0.11476">
        <ele>44.2</ele>
        <time>2024-10-13T09:22:43Z</time>
      </trkpt>
      <trkpt lat="49.27932" lon="0.11472">
        <ele>44.6</ele>
        <time>2024-10-13T09:22:44Z</time>
      </trkpt>
      <trkpt lat="49.27932" lon="0.11468">
        <ele>44.8</ele>
        <time>2024-10-13T09:22:45Z</time>
      </trkpt>
      <trkpt lat="49.27933" lon="0.11464">
        <ele>45</ele>
        <time>2024-10-13T09:22:46Z</time>
      </trkpt>
      <trkpt lat="49.27933" lon="0.1146">
        <ele>45.4</ele>
        <time>2024-10-13T09:22:47Z</time>
      </trkpt>
      <trkpt lat="49.27933" lon="0.11456">
        <ele>45.8</ele>
        <time>2024-10-13T09:22:48Z</time>
      </trkpt>
      <trkpt lat="49.27933" lon="0.11451">
        <ele>46</ele>
        <time>2024-10-13T09:22:49Z</time>
      </trkpt>
      <trkpt lat="49.27933" lon="0.11447">
        <ele>46.2</ele>
        <time>2024-10-13T09:22:50Z</time>
      </trkpt>
      <trkpt lat="49.27933" lon="0.11443">
        <ele>46.6</ele>
        <time>2024-10-13T09:22:51Z</time>
      </trkpt>
      <trkpt lat="49.27933" lon="0.11439">
        <ele>46.8</ele>
        <time>2024-10-13T09:22:52Z</time>
      </trkpt>
      <trkpt lat="49.27933" lon="0.11436">
        <ele>47.2</ele>
        <time>2024-10-13T09:22:53Z</time>
      </trkpt>
      <trkpt lat="49.27933" lon="0.11432">
        <ele>47.4</ele>
        <time>2024-10-13T09:22:54Z</time>
      </trkpt>
      <trkpt lat="49.27934" lon="0.11428">
        <ele>47.6</ele>
        <time>2024-10-13T09:22:55Z</time>
      </trkpt>
      <trkpt lat="49.27934" lon="0.11424">
        <ele>48</ele>
        <time>2024-10-13T09:22:56Z</time>
      </trkpt>
      <trkpt lat="49.27934" lon="0.1142">
        <ele>48.2</ele>
        <time>2024-10-13T09:22:57Z</time>
      </trkpt>
      <trkpt lat="49.27934" lon="0.11416">
        <ele>48.4</ele>
        <time>2024-10-13T09:22:58Z</time>
      </trkpt>
      <trkpt lat="49.27934" lon="0.11413">
        <ele>48.6</ele>
        <time>2024-10-13T09:22:59Z</time>
      </trkpt>
      <trkpt lat="49.27935" lon="0.11409">
        <ele>48.8</ele>
        <time>2024-10-13T09:23:00Z</time>
      </trkpt>
      <trkpt lat="49.27935" lon="0.11405">
        <ele>48.8</ele>
        <time>2024-10-13T09:23:01Z</time>
      </trkpt>
      <trkpt lat="49.27935" lon="0.11401">
        <ele>49.2</ele>
        <time>2024-10-13T09:23:02Z</time>
      </trkpt>
      <trkpt lat="49.27936" lon="0.11397">
        <ele>49.4</ele>
        <time>2024-10-13T09:23:03Z</time>
      </trkpt>
      <trkpt lat="49.27936" lon="0.11393">
        <ele>49.6</ele>
        <time>2024-10-13T09:23:04Z</time>
      </trkpt>
      <trkpt lat="49.27936" lon="0.11389">
        <ele>49.8</ele>
        <time>2024-10-13T09:23:05Z</time>
      </trkpt>
      <trkpt lat="49.27936" lon="0.11386">
        <ele>50</ele>
        <time>2024-10-13T09:23:06Z</time>
      </trkpt>
      <trkpt lat="49.27937" lon="0.11382">
        <ele>50.4</ele>
        <time>2024-10-13T09:23:07Z</time>
      </trkpt>
      <trkpt lat="49.27938" lon="0.11378">
        <ele>50.6</ele>
        <time>2024-10-13T09:23:08Z</time>
      </trkpt>
      <trkpt lat="49.27939" lon="0.11374">
        <ele>51</ele>
        <time>2024-10-13T09:23:09Z</time>
      </trkpt>
      <trkpt lat="49.27939" lon="0.11371">
        <ele>51.2</ele>
        <time>2024-10-13T09:23:10Z</time>
      </trkpt>
      <trkpt lat="49.2794" lon="0.11368">
        <ele>51.4</ele>
        <time>2024-10-13T09:23:11Z</time>
      </trkpt>
      <trkpt lat="49.2794" lon="0.11364">
        <ele>51.6</ele>
        <time>2024-10-13T09:23:12Z</time>
      </trkpt>
      <trkpt lat="49.27941" lon="0.11361">
        <ele>51.8</ele>
        <time>2024-10-13T09:23:13Z</time>
      </trkpt>
      <trkpt lat="49.27941" lon="0.11356">
        <ele>52</ele>
        <time>2024-10-13T09:23:14Z</time>
      </trkpt>
      <trkpt lat="49.2794" lon="0.11352">
        <ele>52.2</ele>
        <time>2024-10-13T09:23:15Z</time>
      </trkpt>
      <trkpt lat="49.27939" lon="0.11348">
        <ele>52.4</ele>
        <time>2024-10-13T09:23:16Z</time>
      </trkpt>
      <trkpt lat="49.27938" lon="0.11345">
        <ele>52.6</ele>
        <time>2024-10-13T09:23:17Z</time>
      </trkpt>
      <trkpt lat="49.27938" lon="0.11341">
        <ele>53</ele>
        <time>2024-10-13T09:23:18Z</time>
      </trkpt>
      <trkpt lat="49.27937" lon="0.11337">
        <ele>53.2</ele>
        <time>2024-10-13T09:23:19Z</time>
      </trkpt>
      <trkpt lat="49.27936" lon="0.11333">
        <ele>53.4</ele>
        <time>2024-10-13T09:23:20Z</time>
      </trkpt>
      <trkpt lat="49.27936" lon="0.11328">
        <ele>53.8</ele>
        <time>2024-10-13T09:23:21Z</time>
      </trkpt>
      <trkpt lat="49.27935" lon="0.11324">
        <ele>53.8</ele>
        <time>2024-10-13T09:23:22Z</time>
      </trkpt>
      <trkpt lat="49.27934" lon="0.1132">
        <ele>54</ele>
        <time>2024-10-13T09:23:23Z</time>
      </trkpt>
      <trkpt lat="49.27934" lon="0.11316">
        <ele>54.2</ele>
        <time>2024-10-13T09:23:24Z</time>
      </trkpt>
      <trkpt lat="49.27934" lon="0.11312">
        <ele>54.4</ele>
        <time>2024-10-13T09:23:25Z</time>
      </trkpt>
      <trkpt lat="49.27933" lon="0.11308">
        <ele>54.8</ele>
        <time>2024-10-13T09:23:26Z</time>
      </trkpt>
      <trkpt lat="49.27932" lon="0.11304">
        <ele>55</ele>
        <time>2024-10-13T09:23:27Z</time>
      </trkpt>
      <trkpt lat="49.27932" lon="0.113">
        <ele>55.2</ele>
        <time>2024-10-13T09:23:28Z</time>
      </trkpt>
      <trkpt lat="49.27931" lon="0.11296">
        <ele>55.4</ele>
        <time>2024-10-13T09:23:29Z</time>
      </trkpt>
      <trkpt lat="49.2793" lon="0.11291">
        <ele>55.6</ele>
        <time>2024-10-13T09:23:30Z</time>
      </trkpt>
      <trkpt lat="49.27929" lon="0.11287">
        <ele>56</ele>
        <time>2024-10-13T09:23:31Z</time>
      </trkpt>
      <trkpt lat="49.27929" lon="0.11283">
        <ele>56.2</ele>
        <time>2024-10-13T09:23:32Z</time>
      </trkpt>
      <trkpt lat="49.27928" lon="0.11279">
        <ele>56.6</ele>
        <time>2024-10-13T09:23:33Z</time>
      </trkpt>
      <trkpt lat="49.27927" lon="0.11274">
        <ele>56.8</ele>
        <time>2024-10-13T09:23:34Z</time>
      </trkpt>
      <trkpt lat="49.27926" lon="0.1127">
        <ele>57.2</ele>
        <time>2024-10-13T09:23:35Z</time>
      </trkpt>
      <trkpt lat="49.27925" lon="0.11266">
        <ele>57.4</ele>
        <time>2024-10-13T09:23:36Z</time>
      </trkpt>
      <trkpt lat="49.27924" lon="0.11261">
        <ele>57.8</ele>
        <time>2024-10-13T09:23:37Z</time>
      </trkpt>
      <trkpt lat="49.27923" lon="0.11258">
        <ele>58</ele>
        <time>2024-10-13T09:23:38Z</time>
      </trkpt>
      <trkpt lat="49.27921" lon="0.11253">
        <ele>58.4</ele>
        <time>2024-10-13T09:23:39Z</time>
      </trkpt>
      <trkpt lat="49.27919" lon="0.11249">
        <ele>58.6</ele>
        <time>2024-10-13T09:23:40Z</time>
      </trkpt>
      <trkpt lat="49.27918" lon="0.11246">
        <ele>58.6</ele>
        <time>2024-10-13T09:23:41Z</time>
      </trkpt>
      <trkpt lat="49.27916" lon="0.11242">
        <ele>58.8</ele>
        <time>2024-10-13T09:23:42Z</time>
      </trkpt>
      <trkpt lat="49.27914" lon="0.11239">
        <ele>59.2</ele>
        <time>2024-10-13T09:23:43Z</time>
      </trkpt>
      <trkpt lat="49.27912" lon="0.11236">
        <ele>59.4</ele>
        <time>2024-10-13T09:23:44Z</time>
      </trkpt>
      <trkpt lat="49.2791" lon="0.11234">
        <ele>59.8</ele>
        <time>2024-10-13T09:23:45Z</time>
      </trkpt>
      <trkpt lat="49.27908" lon="0.11231">
        <ele>60.2</ele>
        <time>2024-10-13T09:23:46Z</time>
      </trkpt>
      <trkpt lat="49.27905" lon="0.11228">
        <ele>60.6</ele>
        <time>2024-10-13T09:23:47Z</time>
      </trkpt>
      <trkpt lat="49.27903" lon="0.11226">
        <ele>60.8</ele>
        <time>2024-10-13T09:23:48Z</time>
      </trkpt>
      <trkpt lat="49.27901" lon="0.11224">
        <ele>61</ele>
        <time>2024-10-13T09:23:49Z</time>
      </trkpt>
      <trkpt lat="49.27898" lon="0.11222">
        <ele>61.4</ele>
        <time>2024-10-13T09:23:50Z</time>
      </trkpt>
      <trkpt lat="49.27895" lon="0.1122">
        <ele>61.6</ele>
        <time>2024-10-13T09:23:51Z</time>
      </trkpt>
      <trkpt lat="49.27892" lon="0.11218">
        <ele>62</ele>
        <time>2024-10-13T09:23:52Z</time>
      </trkpt>
      <trkpt lat="49.27889" lon="0.11217">
        <ele>62.2</ele>
        <time>2024-10-13T09:23:53Z</time>
      </trkpt>
      <trkpt lat="49.27887" lon="0.11216">
        <ele>62.4</ele>
        <time>2024-10-13T09:23:54Z</time>
      </trkpt>
      <trkpt lat="49.27884" lon="0.11215">
        <ele>62.8</ele>
        <time>2024-10-13T09:23:55Z</time>
      </trkpt>
      <trkpt lat="49.27882" lon="0.11214">
        <ele>63</ele>
        <time>2024-10-13T09:23:56Z</time>
      </trkpt>
      <trkpt lat="49.27879" lon="0.11213">
        <ele>63.4</ele>
        <time>2024-10-13T09:23:57Z</time>
      </trkpt>
      <trkpt lat="49.27877" lon="0.11211">
        <ele>63.8</ele>
        <time>2024-10-13T09:23:58Z</time>
      </trkpt>
      <trkpt lat="49.27874" lon="0.1121">
        <ele>64</ele>
        <time>2024-10-13T09:23:59Z</time>
      </trkpt>
      <trkpt lat="49.27871" lon="0.11209">
        <ele>64.2</ele>
        <time>2024-10-13T09:24:00Z</time>
      </trkpt>
      <trkpt lat="49.27868" lon="0.11208">
        <ele>64.6</ele>
        <time>2024-10-13T09:24:01Z</time>
      </trkpt>
      <trkpt lat="49.27866" lon="0.11206">
        <ele>64.8</ele>
        <time>2024-10-13T09:24:02Z</time>
      </trkpt>
      <trkpt lat="49.27863" lon="0.11205">
        <ele>65</ele>
        <time>2024-10-13T09:24:03Z</time>
      </trkpt>
      <trkpt lat="49.2786" lon="0.11203">
        <ele>65</ele>
        <time>2024-10-13T09:24:04Z</time>
      </trkpt>
      <trkpt lat="49.27857" lon="0.11202">
        <ele>65.2</ele>
        <time>2024-10-13T09:24:05Z</time>
      </trkpt>
      <trkpt lat="49.27855" lon="0.11201">
        <ele>65.4</ele>
        <time>2024-10-13T09:24:06Z</time>
      </trkpt>
      <trkpt lat="49.27852" lon="0.11199">
        <ele>65.8</ele>
        <time>2024-10-13T09:24:07Z</time>
      </trkpt>
      <trkpt lat="49.27849" lon="0.11196">
        <ele>66</ele>
        <time>2024-10-13T09:24:08Z</time>
      </trkpt>
      <trkpt lat="49.27846" lon="0.11194">
        <ele>66.2</ele>
        <time>2024-10-13T09:24:09Z</time>
      </trkpt>
      <trkpt lat="49.27843" lon="0.11192">
        <ele>66.4</ele>
        <time>2024-10-13T09:24:10Z</time>
      </trkpt>
      <trkpt lat="49.27841" lon="0.1119">
        <ele>66.6</ele>
        <time>2024-10-13T09:24:11Z</time>
      </trkpt>
      <trkpt lat="49.27839" lon="0.11187">
        <ele>66.8</ele>
        <time>2024-10-13T09:24:12Z</time>
      </trkpt>
      <trkpt lat="49.27836" lon="0.11186">
        <ele>67</ele>
        <time>2024-10-13T09:24:13Z</time>
      </trkpt>
      <trkpt lat="49.27833" lon="0.11184">
        <ele>67.4</ele>
        <time>2024-10-13T09:24:14Z</time>
      </trkpt>
      <trkpt lat="49.27831" lon="0.11181">
        <ele>67.6</ele>
        <time>2024-10-13T09:24:15Z</time>
      </trkpt>
      <trkpt lat="49.27828" lon="0.11178">
        <ele>67.8</ele>
        <time>2024-10-13T09:24:16Z</time>
      </trkpt>
      <trkpt lat="49.27826" lon="0.11175">
        <ele>68</ele>
        <time>2024-10-13T09:24:17Z</time>
      </trkpt>
      <trkpt lat="49.27824" lon="0.11172">
        <ele>68.2</ele>
        <time>2024-10-13T09:24:18Z</time>
      </trkpt>
      <trkpt lat="49.27822" lon="0.11169">
        <ele>68.4</ele>
        <time>2024-10-13T09:24:19Z</time>
      </trkpt>
      <trkpt lat="49.27821" lon="0.11166">
        <ele>68.6</ele>
        <time>2024-10-13T09:24:20Z</time>
      </trkpt>
      <trkpt lat="49.2782" lon="0.11162">
        <ele>68.8</ele>
        <time>2024-10-13T09:24:21Z</time>
      </trkpt>
      <trkpt lat="49.2782" lon="0.11158">
        <ele>69.2</ele>
        <time>2024-10-13T09:24:22Z</time>
      </trkpt>
      <trkpt lat="49.2782" lon="0.11154">
        <ele>69.2</ele>
        <time>2024-10-13T09:24:23Z</time>
      </trkpt>
      <trkpt lat="49.27819" lon="0.1115">
        <ele>69.4</ele>
        <time>2024-10-13T09:24:24Z</time>
      </trkpt>
      <trkpt lat="49.27819" lon="0.11145">
        <ele>69.4</ele>
        <time>2024-10-13T09:24:25Z</time>
      </trkpt>
      <trkpt lat="49.2782" lon="0.11141">
        <ele>69.8</ele>
        <time>2024-10-13T09:24:26Z</time>
      </trkpt>
      <trkpt lat="49.2782" lon="0.11136">
        <ele>70</ele>
        <time>2024-10-13T09:24:27Z</time>
      </trkpt>
      <trkpt lat="49.2782" lon="0.11131">
        <ele>70.4</ele>
        <time>2024-10-13T09:24:28Z</time>
      </trkpt>
      <trkpt lat="49.27821" lon="0.11127">
        <ele>70.6</ele>
        <time>2024-10-13T09:24:29Z</time>
      </trkpt>
      <trkpt lat="49.27821" lon="0.11122">
        <ele>71.2</ele>
        <time>2024-10-13T09:24:30Z</time>
      </trkpt>
      <trkpt lat="49.27821" lon="0.11117">
        <ele>71.6</ele>
        <time>2024-10-13T09:24:31Z</time>
      </trkpt>
      <trkpt lat="49.27822" lon="0.11112">
        <ele>72</ele>
        <time>2024-10-13T09:24:32Z</time>
      </trkpt>
      <trkpt lat="49.27822" lon="0.11107">
        <ele>72.2</ele>
        <time>2024-10-13T09:24:33Z</time>
      </trkpt>
      <trkpt lat="49.27822" lon="0.11102">
        <ele>72.6</ele>
        <time>2024-10-13T09:24:34Z</time>
      </trkpt>
      <trkpt lat="49.27823" lon="0.11097">
        <ele>72.8</ele>
        <time>2024-10-13T09:24:35Z</time>
      </trkpt>
      <trkpt lat="49.27824" lon="0.11092">
        <ele>73</ele>
        <time>2024-10-13T09:24:36Z</time>
      </trkpt>
      <trkpt lat="49.27825" lon="0.11087">
        <ele>73.4</ele>
        <time>2024-10-13T09:24:37Z</time>
      </trkpt>
      <trkpt lat="49.27825" lon="0.11082">
        <ele>73.8</ele>
        <time>2024-10-13T09:24:38Z</time>
      </trkpt>
      <trkpt lat="49.27826" lon="0.11077">
        <ele>74</ele>
        <time>2024-10-13T09:24:39Z</time>
      </trkpt>
      <trkpt lat="49.27828" lon="0.11072">
        <ele>74.4</ele>
        <time>2024-10-13T09:24:40Z</time>
      </trkpt>
      <trkpt lat="49.27829" lon="0.11067">
        <ele>74.8</ele>
        <time>2024-10-13T09:24:41Z</time>
      </trkpt>
      <trkpt lat="49.2783" lon="0.11063">
        <ele>74.8</ele>
        <time>2024-10-13T09:24:42Z</time>
      </trkpt>
      <trkpt lat="49.2783" lon="0.11058">
        <ele>75</ele>
        <time>2024-10-13T09:24:43Z</time>
      </trkpt>
      <trkpt lat="49.27831" lon="0.11053">
        <ele>75.4</ele>
        <time>2024-10-13T09:24:44Z</time>
      </trkpt>
      <trkpt lat="49.27832" lon="0.11049">
        <ele>75.8</ele>
        <time>2024-10-13T09:24:45Z</time>
      </trkpt>
      <trkpt lat="49.27833" lon="0.11044">
        <ele>76.2</ele>
        <time>2024-10-13T09:24:46Z</time>
      </trkpt>
      <trkpt lat="49.27835" lon="0.11039">
        <ele>76.6</ele>
        <time>2024-10-13T09:24:47Z</time>
      </trkpt>
      <trkpt lat="49.27836" lon="0.11035">
        <ele>76.8</ele>
        <time>2024-10-13T09:24:48Z</time>
      </trkpt>
      <trkpt lat="49.27837" lon="0.1103">
        <ele>77</ele>
        <time>2024-10-13T09:24:49Z</time>
      </trkpt>
      <trkpt lat="49.27838" lon="0.11025">
        <ele>77.2</ele>
        <time>2024-10-13T09:24:50Z</time>
      </trkpt>
      <trkpt lat="49.27839" lon="0.1102">
        <ele>77.2</ele>
        <time>2024-10-13T09:24:51Z</time>
      </trkpt>
      <trkpt lat="49.2784" lon="0.11015">
        <ele>77.4</ele>
        <time>2024-10-13T09:24:52Z</time>
      </trkpt>
      <trkpt lat="49.27841" lon="0.11011">
        <ele>77.6</ele>
        <time>2024-10-13T09:24:53Z</time>
      </trkpt>
      <trkpt lat="49.27843" lon="0.11006">
        <ele>77.6</ele>
        <time>2024-10-13T09:24:54Z</time>
      </trkpt>
      <trkpt lat="49.27844" lon="0.11001">
        <ele>77.6</ele>
        <time>2024-10-13T09:24:55Z</time>
      </trkpt>
      <trkpt lat="49.27845" lon="0.10996">
        <ele>77.6</ele>
        <time>2024-10-13T09:24:56Z</time>
      </trkpt>
      <trkpt lat="49.27846" lon="0.10991">
        <ele>77.6</ele>
        <time>2024-10-13T09:24:57Z</time>
      </trkpt>
      <trkpt lat="49.27847" lon="0.10988">
        <ele>77.6</ele>
        <time>2024-10-13T09:24:58Z</time>
      </trkpt>
      <trkpt lat="49.27849" lon="0.10985">
        <ele>77.6</ele>
        <time>2024-10-13T09:24:59Z</time>
      </trkpt>
      <trkpt lat="49.2785" lon="0.10982">
        <ele>77.6</ele>
        <time>2024-10-13T09:25:00Z</time>
      </trkpt>
      <trkpt lat="49.2785" lon="0.10981">
        <ele>77.6</ele>
        <time>2024-10-13T09:25:01Z</time>
      </trkpt>
      <trkpt lat="49.2785" lon="0.1098">
        <ele>77.6</ele>
        <time>2024-10-13T09:25:02Z</time>
      </trkpt>
      <trkpt lat="49.2785" lon="0.1098">
        <ele>77.6</ele>
        <time>2024-10-13T09:25:03Z</time>
      </trkpt>
      <trkpt lat="49.27853" lon="0.10969">
        <ele>77</ele>
        <time>2024-10-13T09:25:41Z</time>
      </trkpt>
      <trkpt lat="49.27854" lon="0.10967">
        <ele>77</ele>
        <time>2024-10-13T09:25:42Z</time>
      </trkpt>
      <trkpt lat="49.27855" lon="0.10964">
        <ele>77</ele>
        <time>2024-10-13T09:25:43Z</time>
      </trkpt>
      <trkpt lat="49.27856" lon="0.10962">
        <ele>77</ele>
        <time>2024-10-13T09:25:44Z</time>
      </trkpt>
      <trkpt lat="49.27857" lon="0.10959">
        <ele>77</ele>
        <time>2024-10-13T09:25:45Z</time>
      </trkpt>
      <trkpt lat="49.27857" lon="0.10955">
        <ele>77</ele>
        <time>2024-10-13T09:25:46Z</time>
      </trkpt>
      <trkpt lat="49.27857" lon="0.10952">
        <ele>76.8</ele>
        <time>2024-10-13T09:25:47Z</time>
      </trkpt>
      <trkpt lat="49.27858" lon="0.10949">
        <ele>76.8</ele>
        <time>2024-10-13T09:25:48Z</time>
      </trkpt>
      <trkpt lat="49.27858" lon="0.10945">
        <ele>76.8</ele>
        <time>2024-10-13T09:25:49Z</time>
      </trkpt>
      <trkpt lat="49.27858" lon="0.10941">
        <ele>76.8</ele>
        <time>2024-10-13T09:25:50Z</time>
      </trkpt>
      <trkpt lat="49.27859" lon="0.10937">
        <ele>76.6</ele>
        <time>2024-10-13T09:25:51Z</time>
      </trkpt>
      <trkpt lat="49.2786" lon="0.10933">
        <ele>76.6</ele>
        <time>2024-10-13T09:25:52Z</time>
      </trkpt>
      <trkpt lat="49.27861" lon="0.10929">
        <ele>76.6</ele>
        <time>2024-10-13T09:25:53Z</time>
      </trkpt>
      <trkpt lat="49.27862" lon="0.10925">
        <ele>76.4</ele>
        <time>2024-10-13T09:25:54Z</time>
      </trkpt>
      <trkpt lat="49.27862" lon="0.10922">
        <ele>76.4</ele>
        <time>2024-10-13T09:25:55Z</time>
      </trkpt>
      <trkpt lat="49.27863" lon="0.10918">
        <ele>76.4</ele>
        <time>2024-10-13T09:25:56Z</time>
      </trkpt>
      <trkpt lat="49.27863" lon="0.10914">
        <ele>76.4</ele>
        <time>2024-10-13T09:25:57Z</time>
      </trkpt>
      <trkpt lat="49.27862" lon="0.1091">
        <ele>76.4</ele>
        <time>2024-10-13T09:25:58Z</time>
      </trkpt>
      <trkpt lat="49.27862" lon="0.10906">
        <ele>76.4</ele>
        <time>2024-10-13T09:25:59Z</time>
      </trkpt>
      <trkpt lat="49.27862" lon="0.10902">
        <ele>76.4</ele>
        <time>2024-10-13T09:26:00Z</time>
      </trkpt>
      <trkpt lat="49.27861" lon="0.10897">
        <ele>76.4</ele>
        <time>2024-10-13T09:26:01Z</time>
      </trkpt>
      <trkpt lat="49.27859" lon="0.10892">
        <ele>76.4</ele>
        <time>2024-10-13T09:26:02Z</time>
      </trkpt>
      <trkpt lat="49.27858" lon="0.10886">
        <ele>76.4</ele>
        <time>2024-10-13T09:26:03Z</time>
      </trkpt>
      <trkpt lat="49.27857" lon="0.1088">
        <ele>76.4</ele>
        <time>2024-10-13T09:26:04Z</time>
      </trkpt>
      <trkpt lat="49.27855" lon="0.10874">
        <ele>76.2</ele>
        <time>2024-10-13T09:26:05Z</time>
      </trkpt>
      <trkpt lat="49.27853" lon="0.10867">
        <ele>76.2</ele>
        <time>2024-10-13T09:26:06Z</time>
      </trkpt>
      <trkpt lat="49.27851" lon="0.1086">
        <ele>76.2</ele>
        <time>2024-10-13T09:26:07Z</time>
      </trkpt>
      <trkpt lat="49.27848" lon="0.10852">
        <ele>76.2</ele>
        <time>2024-10-13T09:26:08Z</time>
      </trkpt>
      <trkpt lat="49.27846" lon="0.10843">
        <ele>76</ele>
        <time>2024-10-13T09:26:09Z</time>
      </trkpt>
      <trkpt lat="49.27844" lon="0.10833">
        <ele>76</ele>
        <time>2024-10-13T09:26:10Z</time>
      </trkpt>
      <trkpt lat="49.27842" lon="0.10821">
        <ele>75.8</ele>
        <time>2024-10-13T09:26:11Z</time>
      </trkpt>
      <trkpt lat="49.27839" lon="0.10807">
        <ele>75.6</ele>
        <time>2024-10-13T09:26:12Z</time>
      </trkpt>
      <trkpt lat="49.27837" lon="0.10796">
        <ele>75.4</ele>
        <time>2024-10-13T09:26:13Z</time>
      </trkpt>
      <trkpt lat="49.27835" lon="0.10783">
        <ele>75</ele>
        <time>2024-10-13T09:26:14Z</time>
      </trkpt>
      <trkpt lat="49.27831" lon="0.10766">
        <ele>74.6</ele>
        <time>2024-10-13T09:26:15Z</time>
      </trkpt>
      <trkpt lat="49.27828" lon="0.10755">
        <ele>74.2</ele>
        <time>2024-10-13T09:26:16Z</time>
      </trkpt>
      <trkpt lat="49.27824" lon="0.1074">
        <ele>73.6</ele>
        <time>2024-10-13T09:26:17Z</time>
      </trkpt>
      <trkpt lat="49.2782" lon="0.10726">
        <ele>72.8</ele>
        <time>2024-10-13T09:26:18Z</time>
      </trkpt>
      <trkpt lat="49.27815" lon="0.10711">
        <ele>72</ele>
        <time>2024-10-13T09:26:19Z</time>
      </trkpt>
      <trkpt lat="49.2781" lon="0.10697">
        <ele>71</ele>
        <time>2024-10-13T09:26:20Z</time>
      </trkpt>
      <trkpt lat="49.27804" lon="0.10683">
        <ele>70</ele>
        <time>2024-10-13T09:26:21Z</time>
      </trkpt>
      <trkpt lat="49.27798" lon="0.1067">
        <ele>69.2</ele>
        <time>2024-10-13T09:26:22Z</time>
      </trkpt>
      <trkpt lat="49.27793" lon="0.10658">
        <ele>68</ele>
        <time>2024-10-13T09:26:23Z</time>
      </trkpt>
      <trkpt lat="49.27788" lon="0.10647">
        <ele>67.2</ele>
        <time>2024-10-13T09:26:24Z</time>
      </trkpt>
      <trkpt lat="49.27783" lon="0.10636">
        <ele>66</ele>
        <time>2024-10-13T09:26:25Z</time>
      </trkpt>
      <trkpt lat="49.27778" lon="0.10624">
        <ele>65.2</ele>
        <time>2024-10-13T09:26:26Z</time>
      </trkpt>
      <trkpt lat="49.27774" lon="0.10611">
        <ele>65.2</ele>
        <time>2024-10-13T09:26:27Z</time>
      </trkpt>
      <trkpt lat="49.27772" lon="0.10596">
        <ele>64.2</ele>
        <time>2024-10-13T09:26:28Z</time>
      </trkpt>
      <trkpt lat="49.27771" lon="0.10581">
        <ele>63.4</ele>
        <time>2024-10-13T09:26:29Z</time>
      </trkpt>
      <trkpt lat="49.27772" lon="0.10566">
        <ele>62.4</ele>
        <time>2024-10-13T09:26:30Z</time>
      </trkpt>
      <trkpt lat="49.27776" lon="0.10551">
        <ele>61.6</ele>
        <time>2024-10-13T09:26:31Z</time>
      </trkpt>
      <trkpt lat="49.2778" lon="0.10537">
        <ele>61</ele>
        <time>2024-10-13T09:26:32Z</time>
      </trkpt>
      <trkpt lat="49.27787" lon="0.10521">
        <ele>60.2</ele>
        <time>2024-10-13T09:26:33Z</time>
      </trkpt>
      <trkpt lat="49.27792" lon="0.1051">
        <ele>59.4</ele>
        <time>2024-10-13T09:26:34Z</time>
      </trkpt>
      <trkpt lat="49.27798" lon="0.10496">
        <ele>58.6</ele>
        <time>2024-10-13T09:26:35Z</time>
      </trkpt>
      <trkpt lat="49.27804" lon="0.10481">
        <ele>58</ele>
        <time>2024-10-13T09:26:36Z</time>
      </trkpt>
      <trkpt lat="49.27811" lon="0.10466">
        <ele>57.2</ele>
        <time>2024-10-13T09:26:37Z</time>
      </trkpt>
      <trkpt lat="49.27817" lon="0.1045">
        <ele>56.4</ele>
        <time>2024-10-13T09:26:38Z</time>
      </trkpt>
      <trkpt lat="49.27824" lon="0.10434">
        <ele>55.6</ele>
        <time>2024-10-13T09:26:39Z</time>
      </trkpt>
      <trkpt lat="49.27831" lon="0.10418">
        <ele>54.8</ele>
        <time>2024-10-13T09:26:40Z</time>
      </trkpt>
      <trkpt lat="49.27839" lon="0.10401">
        <ele>54</ele>
        <time>2024-10-13T09:26:41Z</time>
      </trkpt>
      <trkpt lat="49.27846" lon="0.10384">
        <ele>53</ele>
        <time>2024-10-13T09:26:42Z</time>
      </trkpt>
      <trkpt lat="49.27853" lon="0.10366">
        <ele>52</ele>
        <time>2024-10-13T09:26:43Z</time>
      </trkpt>
      <trkpt lat="49.2786" lon="0.10349">
        <ele>50.4</ele>
        <time>2024-10-13T09:26:44Z</time>
      </trkpt>
      <trkpt lat="49.27866" lon="0.10332">
        <ele>49.6</ele>
        <time>2024-10-13T09:26:45Z</time>
      </trkpt>
      <trkpt lat="49.27871" lon="0.10316">
        <ele>49.6</ele>
        <time>2024-10-13T09:26:46Z</time>
      </trkpt>
      <trkpt lat="49.27877" lon="0.10301">
        <ele>48.8</ele>
        <time>2024-10-13T09:26:47Z</time>
      </trkpt>
      <trkpt lat="49.27882" lon="0.10288">
        <ele>47.6</ele>
        <time>2024-10-13T09:26:48Z</time>
      </trkpt>
      <trkpt lat="49.27889" lon="0.10276">
        <ele>46.4</ele>
        <time>2024-10-13T09:26:49Z</time>
      </trkpt>
      <trkpt lat="49.27897" lon="0.10267">
        <ele>44.6</ele>
        <time>2024-10-13T09:26:50Z</time>
      </trkpt>
      <trkpt lat="49.27905" lon="0.10261">
        <ele>44.2</ele>
        <time>2024-10-13T09:26:51Z</time>
      </trkpt>
      <trkpt lat="49.27913" lon="0.10256">
        <ele>43.8</ele>
        <time>2024-10-13T09:26:52Z</time>
      </trkpt>
      <trkpt lat="49.27921" lon="0.10251">
        <ele>43.6</ele>
        <time>2024-10-13T09:26:53Z</time>
      </trkpt>
      <trkpt lat="49.27929" lon="0.10248">
        <ele>43.6</ele>
        <time>2024-10-13T09:26:54Z</time>
      </trkpt>
      <trkpt lat="49.27937" lon="0.10244">
        <ele>43.6</ele>
        <time>2024-10-13T09:26:55Z</time>
      </trkpt>
      <trkpt lat="49.27945" lon="0.10241">
        <ele>43.2</ele>
        <time>2024-10-13T09:26:56Z</time>
      </trkpt>
      <trkpt lat="49.27952" lon="0.10238">
        <ele>43.2</ele>
        <time>2024-10-13T09:26:57Z</time>
      </trkpt>
      <trkpt lat="49.2796" lon="0.10235">
        <ele>43.2</ele>
        <time>2024-10-13T09:26:58Z</time>
      </trkpt>
      <trkpt lat="49.27968" lon="0.10232">
        <ele>43.2</ele>
        <time>2024-10-13T09:26:59Z</time>
      </trkpt>
      <trkpt lat="49.27975" lon="0.10229">
        <ele>43.2</ele>
        <time>2024-10-13T09:27:00Z</time>
      </trkpt>
      <trkpt lat="49.27982" lon="0.10226">
        <ele>43.6</ele>
        <time>2024-10-13T09:27:01Z</time>
      </trkpt>
      <trkpt lat="49.2799" lon="0.10222">
        <ele>43.8</ele>
        <time>2024-10-13T09:27:02Z</time>
      </trkpt>
      <trkpt lat="49.27996" lon="0.10219">
        <ele>43.8</ele>
        <time>2024-10-13T09:27:03Z</time>
      </trkpt>
      <trkpt lat="49.28003" lon="0.10215">
        <ele>44.2</ele>
        <time>2024-10-13T09:27:04Z</time>
      </trkpt>
      <trkpt lat="49.2801" lon="0.1021">
        <ele>44.4</ele>
        <time>2024-10-13T09:27:05Z</time>
      </trkpt>
      <trkpt lat="49.28016" lon="0.10204">
        <ele>44.4</ele>
        <time>2024-10-13T09:27:06Z</time>
      </trkpt>
      <trkpt lat="49.28022" lon="0.10198">
        <ele>44.4</ele>
        <time>2024-10-13T09:27:07Z</time>
      </trkpt>
      <trkpt lat="49.28028" lon="0.1019">
        <ele>44.6</ele>
        <time>2024-10-13T09:27:08Z</time>
      </trkpt>
      <trkpt lat="49.28032" lon="0.10182">
        <ele>44.6</ele>
        <time>2024-10-13T09:27:09Z</time>
      </trkpt>
      <trkpt lat="49.28036" lon="0.10172">
        <ele>44.6</ele>
        <time>2024-10-13T09:27:10Z</time>
      </trkpt>
      <trkpt lat="49.28037" lon="0.10162">
        <ele>45</ele>
        <time>2024-10-13T09:27:11Z</time>
      </trkpt>
      <trkpt lat="49.28038" lon="0.10151">
        <ele>45.2</ele>
        <time>2024-10-13T09:27:12Z</time>
      </trkpt>
      <trkpt lat="49.28036" lon="0.10142">
        <ele>45.2</ele>
        <time>2024-10-13T09:27:13Z</time>
      </trkpt>
      <trkpt lat="49.28034" lon="0.10133">
        <ele>45.6</ele>
        <time>2024-10-13T09:27:14Z</time>
      </trkpt>
      <trkpt lat="49.28031" lon="0.10125">
        <ele>46</ele>
        <time>2024-10-13T09:27:15Z</time>
      </trkpt>
      <trkpt lat="49.28027" lon="0.10118">
        <ele>46.2</ele>
        <time>2024-10-13T09:27:16Z</time>
      </trkpt>
      <trkpt lat="49.28023" lon="0.10112">
        <ele>46</ele>
        <time>2024-10-13T09:27:17Z</time>
      </trkpt>
      <trkpt lat="49.28019" lon="0.10107">
        <ele>46.2</ele>
        <time>2024-10-13T09:27:18Z</time>
      </trkpt>
      <trkpt lat="49.28015" lon="0.10102">
        <ele>46.2</ele>
        <time>2024-10-13T09:27:19Z</time>
      </trkpt>
      <trkpt lat="49.28011" lon="0.10096">
        <ele>46.2</ele>
        <time>2024-10-13T09:27:20Z</time>
      </trkpt>
      <trkpt lat="49.28009" lon="0.1009">
        <ele>46.4</ele>
        <time>2024-10-13T09:27:21Z</time>
      </trkpt>
      <trkpt lat="49.28006" lon="0.10085">
        <ele>46.6</ele>
        <time>2024-10-13T09:27:22Z</time>
      </trkpt>
      <trkpt lat="49.28004" lon="0.10079">
        <ele>46.8</ele>
        <time>2024-10-13T09:27:23Z</time>
      </trkpt>
      <trkpt lat="49.28002" lon="0.10072">
        <ele>46.8</ele>
        <time>2024-10-13T09:27:24Z</time>
      </trkpt>
      <trkpt lat="49.28001" lon="0.10066">
        <ele>47.4</ele>
        <time>2024-10-13T09:27:25Z</time>
      </trkpt>
      <trkpt lat="49.28001" lon="0.1006">
        <ele>47.8</ele>
        <time>2024-10-13T09:27:26Z</time>
      </trkpt>
      <trkpt lat="49.28" lon="0.10053">
        <ele>47.8</ele>
        <time>2024-10-13T09:27:27Z</time>
      </trkpt>
      <trkpt lat="49.28001" lon="0.10045">
        <ele>48.4</ele>
        <time>2024-10-13T09:27:28Z</time>
      </trkpt>
      <trkpt lat="49.28001" lon="0.10038">
        <ele>49</ele>
        <time>2024-10-13T09:27:29Z</time>
      </trkpt>
      <trkpt lat="49.28002" lon="0.10031">
        <ele>49.4</ele>
        <time>2024-10-13T09:27:30Z</time>
      </trkpt>
      <trkpt lat="49.28003" lon="0.10023">
        <ele>49.8</ele>
        <time>2024-10-13T09:27:31Z</time>
      </trkpt>
      <trkpt lat="49.28003" lon="0.10015">
        <ele>50.4</ele>
        <time>2024-10-13T09:27:32Z</time>
      </trkpt>
      <trkpt lat="49.28004" lon="0.10007">
        <ele>50.8</ele>
        <time>2024-10-13T09:27:33Z</time>
      </trkpt>
      <trkpt lat="49.28006" lon="0.1">
        <ele>51.2</ele>
        <time>2024-10-13T09:27:34Z</time>
      </trkpt>
      <trkpt lat="49.28008" lon="0.09993">
        <ele>51.6</ele>
        <time>2024-10-13T09:27:35Z</time>
      </trkpt>
      <trkpt lat="49.28009" lon="0.09985">
        <ele>52</ele>
        <time>2024-10-13T09:27:36Z</time>
      </trkpt>
      <trkpt lat="49.28011" lon="0.09979">
        <ele>52.4</ele>
        <time>2024-10-13T09:27:37Z</time>
      </trkpt>
      <trkpt lat="49.28012" lon="0.09972">
        <ele>52.6</ele>
        <time>2024-10-13T09:27:38Z</time>
      </trkpt>
      <trkpt lat="49.28013" lon="0.09965">
        <ele>53</ele>
        <time>2024-10-13T09:27:39Z</time>
      </trkpt>
      <trkpt lat="49.28014" lon="0.09959">
        <ele>53.2</ele>
        <time>2024-10-13T09:27:40Z</time>
      </trkpt>
      <trkpt lat="49.28016" lon="0.09952">
        <ele>53.2</ele>
        <time>2024-10-13T09:27:41Z</time>
      </trkpt>
      <trkpt lat="49.28017" lon="0.09945">
        <ele>53.4</ele>
        <time>2024-10-13T09:27:42Z</time>
      </trkpt>
      <trkpt lat="49.28018" lon="0.09939">
        <ele>53.6</ele>
        <time>2024-10-13T09:27:43Z</time>
      </trkpt>
      <trkpt lat="49.2802" lon="0.09932">
        <ele>53.6</ele>
        <time>2024-10-13T09:27:44Z</time>
      </trkpt>
      <trkpt lat="49.28022" lon="0.09926">
        <ele>53.8</ele>
        <time>2024-10-13T09:27:45Z</time>
      </trkpt>
      <trkpt lat="49.28024" lon="0.09919">
        <ele>53.8</ele>
        <time>2024-10-13T09:27:46Z</time>
      </trkpt>
      <trkpt lat="49.28026" lon="0.09913">
        <ele>54</ele>
        <time>2024-10-13T09:27:47Z</time>
      </trkpt>
      <trkpt lat="49.28027" lon="0.09906">
        <ele>54.2</ele>
        <time>2024-10-13T09:27:48Z</time>
      </trkpt>
      <trkpt lat="49.28028" lon="0.099">
        <ele>54.2</ele>
        <time>2024-10-13T09:27:49Z</time>
      </trkpt>
      <trkpt lat="49.28029" lon="0.09894">
        <ele>54.4</ele>
        <time>2024-10-13T09:27:50Z</time>
      </trkpt>
      <trkpt lat="49.2803" lon="0.09888">
        <ele>54.4</ele>
        <time>2024-10-13T09:27:51Z</time>
      </trkpt>
      <trkpt lat="49.28031" lon="0.09883">
        <ele>54.6</ele>
        <time>2024-10-13T09:27:52Z</time>
      </trkpt>
      <trkpt lat="49.28033" lon="0.09878">
        <ele>54.6</ele>
        <time>2024-10-13T09:27:53Z</time>
      </trkpt>
      <trkpt lat="49.28034" lon="0.09873">
        <ele>55</ele>
        <time>2024-10-13T09:27:54Z</time>
      </trkpt>
      <trkpt lat="49.28035" lon="0.09867">
        <ele>55.2</ele>
        <time>2024-10-13T09:27:55Z</time>
      </trkpt>
      <trkpt lat="49.28037" lon="0.09861">
        <ele>55.4</ele>
        <time>2024-10-13T09:27:56Z</time>
      </trkpt>
      <trkpt lat="49.28039" lon="0.09854">
        <ele>55.6</ele>
        <time>2024-10-13T09:27:57Z</time>
      </trkpt>
      <trkpt lat="49.28041" lon="0.09847">
        <ele>55.8</ele>
        <time>2024-10-13T09:27:58Z</time>
      </trkpt>
      <trkpt lat="49.28042" lon="0.0984">
        <ele>55.8</ele>
        <time>2024-10-13T09:27:59Z</time>
      </trkpt>
      <trkpt lat="49.28044" lon="0.09833">
        <ele>56.2</ele>
        <time>2024-10-13T09:28:00Z</time>
      </trkpt>
      <trkpt lat="49.28046" lon="0.09824">
        <ele>56.4</ele>
        <time>2024-10-13T09:28:01Z</time>
      </trkpt>
      <trkpt lat="49.28047" lon="0.09818">
        <ele>56.6</ele>
        <time>2024-10-13T09:28:02Z</time>
      </trkpt>
      <trkpt lat="49.28049" lon="0.0981">
        <ele>56.8</ele>
        <time>2024-10-13T09:28:03Z</time>
      </trkpt>
      <trkpt lat="49.28051" lon="0.09801">
        <ele>57</ele>
        <time>2024-10-13T09:28:04Z</time>
      </trkpt>
      <trkpt lat="49.28052" lon="0.09794">
        <ele>57</ele>
        <time>2024-10-13T09:28:05Z</time>
      </trkpt>
      <trkpt lat="49.28054" lon="0.09786">
        <ele>57</ele>
        <time>2024-10-13T09:28:06Z</time>
      </trkpt>
      <trkpt lat="49.28056" lon="0.09778">
        <ele>57.2</ele>
        <time>2024-10-13T09:28:07Z</time>
      </trkpt>
      <trkpt lat="49.28058" lon="0.09769">
        <ele>57.6</ele>
        <time>2024-10-13T09:28:08Z</time>
      </trkpt>
      <trkpt lat="49.28059" lon="0.0976">
        <ele>57.6</ele>
        <time>2024-10-13T09:28:09Z</time>
      </trkpt>
      <trkpt lat="49.28061" lon="0.09751">
        <ele>57.6</ele>
        <time>2024-10-13T09:28:10Z</time>
      </trkpt>
      <trkpt lat="49.28063" lon="0.09742">
        <ele>57.8</ele>
        <time>2024-10-13T09:28:11Z</time>
      </trkpt>
      <trkpt lat="49.28064" lon="0.09732">
        <ele>57.8</ele>
        <time>2024-10-13T09:28:12Z</time>
      </trkpt>
      <trkpt lat="49.28066" lon="0.09723">
        <ele>57.8</ele>
        <time>2024-10-13T09:28:13Z</time>
      </trkpt>
      <trkpt lat="49.28067" lon="0.09713">
        <ele>57.8</ele>
        <time>2024-10-13T09:28:14Z</time>
      </trkpt>
      <trkpt lat="49.28069" lon="0.09702">
        <ele>58</ele>
        <time>2024-10-13T09:28:15Z</time>
      </trkpt>
      <trkpt lat="49.2807" lon="0.09692">
        <ele>58</ele>
        <time>2024-10-13T09:28:16Z</time>
      </trkpt>
      <trkpt lat="49.28071" lon="0.09682">
        <ele>58</ele>
        <time>2024-10-13T09:28:17Z</time>
      </trkpt>
      <trkpt lat="49.28072" lon="0.09672">
        <ele>58</ele>
        <time>2024-10-13T09:28:18Z</time>
      </trkpt>
      <trkpt lat="49.28073" lon="0.09662">
        <ele>58</ele>
        <time>2024-10-13T09:28:19Z</time>
      </trkpt>
      <trkpt lat="49.28074" lon="0.09652">
        <ele>58</ele>
        <time>2024-10-13T09:28:20Z</time>
      </trkpt>
      <trkpt lat="49.28075" lon="0.09642">
        <ele>58</ele>
        <time>2024-10-13T09:28:21Z</time>
      </trkpt>
      <trkpt lat="49.28075" lon="0.09632">
        <ele>58</ele>
        <time>2024-10-13T09:28:22Z</time>
      </trkpt>
      <trkpt lat="49.28077" lon="0.09622">
        <ele>58</ele>
        <time>2024-10-13T09:28:23Z</time>
      </trkpt>
      <trkpt lat="49.28078" lon="0.09612">
        <ele>58</ele>
        <time>2024-10-13T09:28:24Z</time>
      </trkpt>
      <trkpt lat="49.28079" lon="0.09602">
        <ele>58</ele>
        <time>2024-10-13T09:28:25Z</time>
      </trkpt>
      <trkpt lat="49.2808" lon="0.09591">
        <ele>58</ele>
        <time>2024-10-13T09:28:26Z</time>
      </trkpt>
      <trkpt lat="49.28081" lon="0.09581">
        <ele>58</ele>
        <time>2024-10-13T09:28:27Z</time>
      </trkpt>
      <trkpt lat="49.28082" lon="0.09571">
        <ele>58</ele>
        <time>2024-10-13T09:28:28Z</time>
      </trkpt>
      <trkpt lat="49.28084" lon="0.09561">
        <ele>58</ele>
        <time>2024-10-13T09:28:29Z</time>
      </trkpt>
      <trkpt lat="49.28085" lon="0.09551">
        <ele>58</ele>
        <time>2024-10-13T09:28:30Z</time>
      </trkpt>
      <trkpt lat="49.28086" lon="0.0954">
        <ele>58</ele>
        <time>2024-10-13T09:28:31Z</time>
      </trkpt>
      <trkpt lat="49.28087" lon="0.0953">
        <ele>58</ele>
        <time>2024-10-13T09:28:32Z</time>
      </trkpt>
      <trkpt lat="49.28088" lon="0.0952">
        <ele>58</ele>
        <time>2024-10-13T09:28:33Z</time>
      </trkpt>
      <trkpt lat="49.2809" lon="0.0951">
        <ele>58.2</ele>
        <time>2024-10-13T09:28:34Z</time>
      </trkpt>
      <trkpt lat="49.28092" lon="0.09501">
        <ele>58.2</ele>
        <time>2024-10-13T09:28:35Z</time>
      </trkpt>
      <trkpt lat="49.28093" lon="0.09491">
        <ele>58.6</ele>
        <time>2024-10-13T09:28:36Z</time>
      </trkpt>
      <trkpt lat="49.28095" lon="0.09482">
        <ele>58.8</ele>
        <time>2024-10-13T09:28:37Z</time>
      </trkpt>
      <trkpt lat="49.28096" lon="0.09473">
        <ele>58.8</ele>
        <time>2024-10-13T09:28:38Z</time>
      </trkpt>
      <trkpt lat="49.28098" lon="0.09464">
        <ele>59</ele>
        <time>2024-10-13T09:28:39Z</time>
      </trkpt>
      <trkpt lat="49.28099" lon="0.09454">
        <ele>59.2</ele>
        <time>2024-10-13T09:28:40Z</time>
      </trkpt>
      <trkpt lat="49.28101" lon="0.09446">
        <ele>59.4</ele>
        <time>2024-10-13T09:28:41Z</time>
      </trkpt>
      <trkpt lat="49.28103" lon="0.09435">
        <ele>59.6</ele>
        <time>2024-10-13T09:28:42Z</time>
      </trkpt>
      <trkpt lat="49.28104" lon="0.09427">
        <ele>59.8</ele>
        <time>2024-10-13T09:28:43Z</time>
      </trkpt>
      <trkpt lat="49.28105" lon="0.09418">
        <ele>60</ele>
        <time>2024-10-13T09:28:44Z</time>
      </trkpt>
      <trkpt lat="49.28107" lon="0.09409">
        <ele>60.4</ele>
        <time>2024-10-13T09:28:45Z</time>
      </trkpt>
      <trkpt lat="49.28109" lon="0.094">
        <ele>60.8</ele>
        <time>2024-10-13T09:28:46Z</time>
      </trkpt>
      <trkpt lat="49.28111" lon="0.0939">
        <ele>60.8</ele>
        <time>2024-10-13T09:28:47Z</time>
      </trkpt>
      <trkpt lat="49.28112" lon="0.09381">
        <ele>61</ele>
        <time>2024-10-13T09:28:48Z</time>
      </trkpt>
      <trkpt lat="49.28114" lon="0.09371">
        <ele>61.2</ele>
        <time>2024-10-13T09:28:49Z</time>
      </trkpt>
      <trkpt lat="49.28115" lon="0.09361">
        <ele>61.4</ele>
        <time>2024-10-13T09:28:50Z</time>
      </trkpt>
      <trkpt lat="49.28116" lon="0.0935">
        <ele>61.6</ele>
        <time>2024-10-13T09:28:51Z</time>
      </trkpt>
      <trkpt lat="49.28117" lon="0.0934">
        <ele>61.6</ele>
        <time>2024-10-13T09:28:52Z</time>
      </trkpt>
      <trkpt lat="49.28119" lon="0.09329">
        <ele>61.8</ele>
        <time>2024-10-13T09:28:53Z</time>
      </trkpt>
      <trkpt lat="49.2812" lon="0.09319">
        <ele>62.2</ele>
        <time>2024-10-13T09:28:54Z</time>
      </trkpt>
      <trkpt lat="49.28121" lon="0.09308">
        <ele>62.4</ele>
        <time>2024-10-13T09:28:55Z</time>
      </trkpt>
      <trkpt lat="49.28123" lon="0.09297">
        <ele>62.6</ele>
        <time>2024-10-13T09:28:56Z</time>
      </trkpt>
      <trkpt lat="49.28124" lon="0.09286">
        <ele>62.6</ele>
        <time>2024-10-13T09:28:57Z</time>
      </trkpt>
      <trkpt lat="49.28126" lon="0.09275">
        <ele>62.6</ele>
        <time>2024-10-13T09:28:58Z</time>
      </trkpt>
      <trkpt lat="49.28127" lon="0.09265">
        <ele>62.6</ele>
        <time>2024-10-13T09:28:59Z</time>
      </trkpt>
      <trkpt lat="49.28128" lon="0.09253">
        <ele>62.6</ele>
        <time>2024-10-13T09:29:00Z</time>
      </trkpt>
      <trkpt lat="49.28129" lon="0.09245">
        <ele>62.8</ele>
        <time>2024-10-13T09:29:01Z</time>
      </trkpt>
      <trkpt lat="49.2813" lon="0.09235">
        <ele>62.8</ele>
        <time>2024-10-13T09:29:02Z</time>
      </trkpt>
      <trkpt lat="49.28131" lon="0.09225">
        <ele>62.8</ele>
        <time>2024-10-13T09:29:03Z</time>
      </trkpt>
      <trkpt lat="49.28133" lon="0.09215">
        <ele>62.8</ele>
        <time>2024-10-13T09:29:04Z</time>
      </trkpt>
      <trkpt lat="49.28135" lon="0.09204">
        <ele>62.8</ele>
        <time>2024-10-13T09:29:05Z</time>
      </trkpt>
      <trkpt lat="49.28137" lon="0.09194">
        <ele>62.8</ele>
        <time>2024-10-13T09:29:06Z</time>
      </trkpt>
      <trkpt lat="49.28139" lon="0.09183">
        <ele>62.8</ele>
        <time>2024-10-13T09:29:07Z</time>
      </trkpt>
      <trkpt lat="49.28143" lon="0.09173">
        <ele>62.8</ele>
        <time>2024-10-13T09:29:08Z</time>
      </trkpt>
      <trkpt lat="49.28146" lon="0.09162">
        <ele>62.8</ele>
        <time>2024-10-13T09:29:09Z</time>
      </trkpt>
      <trkpt lat="49.2815" lon="0.09152">
        <ele>62.8</ele>
        <time>2024-10-13T09:29:10Z</time>
      </trkpt>
      <trkpt lat="49.28154" lon="0.09141">
        <ele>62.8</ele>
        <time>2024-10-13T09:29:11Z</time>
      </trkpt>
      <trkpt lat="49.28157" lon="0.09129">
        <ele>62.8</ele>
        <time>2024-10-13T09:29:12Z</time>
      </trkpt>
      <trkpt lat="49.2816" lon="0.09117">
        <ele>62.8</ele>
        <time>2024-10-13T09:29:13Z</time>
      </trkpt>
      <trkpt lat="49.28162" lon="0.09105">
        <ele>62.6</ele>
        <time>2024-10-13T09:29:14Z</time>
      </trkpt>
      <trkpt lat="49.28164" lon="0.09092">
        <ele>62.6</ele>
        <time>2024-10-13T09:29:15Z</time>
      </trkpt>
      <trkpt lat="49.28166" lon="0.09081">
        <ele>62.6</ele>
        <time>2024-10-13T09:29:16Z</time>
      </trkpt>
      <trkpt lat="49.28169" lon="0.0907">
        <ele>62.6</ele>
        <time>2024-10-13T09:29:17Z</time>
      </trkpt>
      <trkpt lat="49.28174" lon="0.09059">
        <ele>62.6</ele>
        <time>2024-10-13T09:29:18Z</time>
      </trkpt>
      <trkpt lat="49.28179" lon="0.0905">
        <ele>62.4</ele>
        <time>2024-10-13T09:29:19Z</time>
      </trkpt>
      <trkpt lat="49.28187" lon="0.09044">
        <ele>62</ele>
        <time>2024-10-13T09:29:20Z</time>
      </trkpt>
      <trkpt lat="49.28196" lon="0.09039">
        <ele>61.8</ele>
        <time>2024-10-13T09:29:21Z</time>
      </trkpt>
      <trkpt lat="49.28206" lon="0.09036">
        <ele>61.6</ele>
        <time>2024-10-13T09:29:22Z</time>
      </trkpt>
      <trkpt lat="49.28217" lon="0.09031">
        <ele>61.6</ele>
        <time>2024-10-13T09:29:23Z</time>
      </trkpt>
      <trkpt lat="49.28229" lon="0.09026">
        <ele>61.4</ele>
        <time>2024-10-13T09:29:24Z</time>
      </trkpt>
      <trkpt lat="49.28241" lon="0.09021">
        <ele>61.2</ele>
        <time>2024-10-13T09:29:25Z</time>
      </trkpt>
      <trkpt lat="49.28253" lon="0.09016">
        <ele>61.2</ele>
        <time>2024-10-13T09:29:26Z</time>
      </trkpt>
      <trkpt lat="49.28265" lon="0.0901">
        <ele>61</ele>
        <time>2024-10-13T09:29:27Z</time>
      </trkpt>
      <trkpt lat="49.28276" lon="0.09002">
        <ele>61</ele>
        <time>2024-10-13T09:29:28Z</time>
      </trkpt>
      <trkpt lat="49.28287" lon="0.08991">
        <ele>60.4</ele>
        <time>2024-10-13T09:29:29Z</time>
      </trkpt>
      <trkpt lat="49.28297" lon="0.08978">
        <ele>59.8</ele>
        <time>2024-10-13T09:29:30Z</time>
      </trkpt>
      <trkpt lat="49.28306" lon="0.08964">
        <ele>58.8</ele>
        <time>2024-10-13T09:29:31Z</time>
      </trkpt>
      <trkpt lat="49.28314" lon="0.08948">
        <ele>57.2</ele>
        <time>2024-10-13T09:29:32Z</time>
      </trkpt>
      <trkpt lat="49.28322" lon="0.08933">
        <ele>55.8</ele>
        <time>2024-10-13T09:29:33Z</time>
      </trkpt>
      <trkpt lat="49.28328" lon="0.08916">
        <ele>54.8</ele>
        <time>2024-10-13T09:29:34Z</time>
      </trkpt>
      <trkpt lat="49.28335" lon="0.089">
        <ele>53.6</ele>
        <time>2024-10-13T09:29:35Z</time>
      </trkpt>
      <trkpt lat="49.28341" lon="0.08883">
        <ele>52.2</ele>
        <time>2024-10-13T09:29:36Z</time>
      </trkpt>
      <trkpt lat="49.28348" lon="0.08866">
        <ele>50.8</ele>
        <time>2024-10-13T09:29:37Z</time>
      </trkpt>
      <trkpt lat="49.28355" lon="0.0885">
        <ele>49.2</ele>
        <time>2024-10-13T09:29:38Z</time>
      </trkpt>
      <trkpt lat="49.28363" lon="0.08834">
        <ele>47.6</ele>
        <time>2024-10-13T09:29:39Z</time>
      </trkpt>
      <trkpt lat="49.28373" lon="0.08816">
        <ele>46.4</ele>
        <time>2024-10-13T09:29:40Z</time>
      </trkpt>
      <trkpt lat="49.2838" lon="0.08804">
        <ele>45.6</ele>
        <time>2024-10-13T09:29:41Z</time>
      </trkpt>
      <trkpt lat="49.28389" lon="0.0879">
        <ele>44.6</ele>
        <time>2024-10-13T09:29:42Z</time>
      </trkpt>
      <trkpt lat="49.28399" lon="0.08776">
        <ele>43.8</ele>
        <time>2024-10-13T09:29:43Z</time>
      </trkpt>
      <trkpt lat="49.28408" lon="0.08763">
        <ele>43.4</ele>
        <time>2024-10-13T09:29:44Z</time>
      </trkpt>
      <trkpt lat="49.28418" lon="0.0875">
        <ele>43</ele>
        <time>2024-10-13T09:29:45Z</time>
      </trkpt>
      <trkpt lat="49.28428" lon="0.08737">
        <ele>42.8</ele>
        <time>2024-10-13T09:29:46Z</time>
      </trkpt>
      <trkpt lat="49.28437" lon="0.08725">
        <ele>42.6</ele>
        <time>2024-10-13T09:29:47Z</time>
      </trkpt>
      <trkpt lat="49.28447" lon="0.08713">
        <ele>42.2</ele>
        <time>2024-10-13T09:29:48Z</time>
      </trkpt>
      <trkpt lat="49.28456" lon="0.08702">
        <ele>41.8</ele>
        <time>2024-10-13T09:29:49Z</time>
      </trkpt>
      <trkpt lat="49.28466" lon="0.0869">
        <ele>41.4</ele>
        <time>2024-10-13T09:29:50Z</time>
      </trkpt>
      <trkpt lat="49.28475" lon="0.08678">
        <ele>41.2</ele>
        <time>2024-10-13T09:29:51Z</time>
      </trkpt>
      <trkpt lat="49.28484" lon="0.08667">
        <ele>40.6</ele>
        <time>2024-10-13T09:29:52Z</time>
      </trkpt>
      <trkpt lat="49.28493" lon="0.08656">
        <ele>40.4</ele>
        <time>2024-10-13T09:29:53Z</time>
      </trkpt>
      <trkpt lat="49.28501" lon="0.08644">
        <ele>40.2</ele>
        <time>2024-10-13T09:29:54Z</time>
      </trkpt>
      <trkpt lat="49.28509" lon="0.08632">
        <ele>40.2</ele>
        <time>2024-10-13T09:29:55Z</time>
      </trkpt>
      <trkpt lat="49.28516" lon="0.0862">
        <ele>40.2</ele>
        <time>2024-10-13T09:29:56Z</time>
      </trkpt>
      <trkpt lat="49.28523" lon="0.08608">
        <ele>40</ele>
        <time>2024-10-13T09:29:57Z</time>
      </trkpt>
      <trkpt lat="49.28529" lon="0.08598">
        <ele>40</ele>
        <time>2024-10-13T09:29:58Z</time>
      </trkpt>
      <trkpt lat="49.28535" lon="0.08588">
        <ele>40</ele>
        <time>2024-10-13T09:29:59Z</time>
      </trkpt>
      <trkpt lat="49.28541" lon="0.08579">
        <ele>40</ele>
        <time>2024-10-13T09:30:00Z</time>
      </trkpt>
      <trkpt lat="49.28546" lon="0.08571">
        <ele>40</ele>
        <time>2024-10-13T09:30:01Z</time>
      </trkpt>
      <trkpt lat="49.28551" lon="0.08564">
        <ele>40</ele>
        <time>2024-10-13T09:30:02Z</time>
      </trkpt>
      <trkpt lat="49.28556" lon="0.08557">
        <ele>40</ele>
        <time>2024-10-13T09:30:03Z</time>
      </trkpt>
      <trkpt lat="49.28562" lon="0.08551">
        <ele>40</ele>
        <time>2024-10-13T09:30:04Z</time>
      </trkpt>
      <trkpt lat="49.28567" lon="0.08544">
        <ele>40.2</ele>
        <time>2024-10-13T09:30:05Z</time>
      </trkpt>
      <trkpt lat="49.28573" lon="0.08538">
        <ele>40.2</ele>
        <time>2024-10-13T09:30:06Z</time>
      </trkpt>
      <trkpt lat="49.28578" lon="0.08532">
        <ele>40.4</ele>
        <time>2024-10-13T09:30:07Z</time>
      </trkpt>
      <trkpt lat="49.28584" lon="0.08526">
        <ele>40.8</ele>
        <time>2024-10-13T09:30:08Z</time>
      </trkpt>
      <trkpt lat="49.2859" lon="0.0852">
        <ele>41</ele>
        <time>2024-10-13T09:30:09Z</time>
      </trkpt>
      <trkpt lat="49.28596" lon="0.08513">
        <ele>41.2</ele>
        <time>2024-10-13T09:30:10Z</time>
      </trkpt>
      <trkpt lat="49.28602" lon="0.08505">
        <ele>41.6</ele>
        <time>2024-10-13T09:30:11Z</time>
      </trkpt>
      <trkpt lat="49.28608" lon="0.08498">
        <ele>41.8</ele>
        <time>2024-10-13T09:30:12Z</time>
      </trkpt>
      <trkpt lat="49.28613" lon="0.0849">
        <ele>42.2</ele>
        <time>2024-10-13T09:30:13Z</time>
      </trkpt>
      <trkpt lat="49.28619" lon="0.08482">
        <ele>42.4</ele>
        <time>2024-10-13T09:30:14Z</time>
      </trkpt>
      <trkpt lat="49.28624" lon="0.08474">
        <ele>42.4</ele>
        <time>2024-10-13T09:30:15Z</time>
      </trkpt>
      <trkpt lat="49.28629" lon="0.08466">
        <ele>42.8</ele>
        <time>2024-10-13T09:30:16Z</time>
      </trkpt>
      <trkpt lat="49.28633" lon="0.08458">
        <ele>43</ele>
        <time>2024-10-13T09:30:17Z</time>
      </trkpt>
      <trkpt lat="49.28637" lon="0.08451">
        <ele>43</ele>
        <time>2024-10-13T09:30:18Z</time>
      </trkpt>
      <trkpt lat="49.28642" lon="0.08443">
        <ele>43.2</ele>
        <time>2024-10-13T09:30:19Z</time>
      </trkpt>
      <trkpt lat="49.28646" lon="0.08436">
        <ele>43.2</ele>
        <time>2024-10-13T09:30:20Z</time>
      </trkpt>
      <trkpt lat="49.28649" lon="0.08428">
        <ele>43.2</ele>
        <time>2024-10-13T09:30:21Z</time>
      </trkpt>
      <trkpt lat="49.28653" lon="0.08421">
        <ele>43.4</ele>
        <time>2024-10-13T09:30:22Z</time>
      </trkpt>
      <trkpt lat="49.28657" lon="0.08414">
        <ele>43.4</ele>
        <time>2024-10-13T09:30:23Z</time>
      </trkpt>
      <trkpt lat="49.28661" lon="0.08406">
        <ele>43.4</ele>
        <time>2024-10-13T09:30:24Z</time>
      </trkpt>
      <trkpt lat="49.28665" lon="0.08398">
        <ele>43.4</ele>
        <time>2024-10-13T09:30:25Z</time>
      </trkpt>
      <trkpt lat="49.2867" lon="0.08391">
        <ele>43.4</ele>
        <time>2024-10-13T09:30:26Z</time>
      </trkpt>
      <trkpt lat="49.28674" lon="0.08383">
        <ele>43.4</ele>
        <time>2024-10-13T09:30:27Z</time>
      </trkpt>
      <trkpt lat="49.28679" lon="0.08377">
        <ele>43.4</ele>
        <time>2024-10-13T09:30:28Z</time>
      </trkpt>
      <trkpt lat="49.28683" lon="0.08371">
        <ele>43.4</ele>
        <time>2024-10-13T09:30:29Z</time>
      </trkpt>
      <trkpt lat="49.28688" lon="0.08365">
        <ele>43.4</ele>
        <time>2024-10-13T09:30:30Z</time>
      </trkpt>
      <trkpt lat="49.28692" lon="0.08359">
        <ele>43.4</ele>
        <time>2024-10-13T09:30:31Z</time>
      </trkpt>
      <trkpt lat="49.28697" lon="0.08352">
        <ele>43.2</ele>
        <time>2024-10-13T09:30:32Z</time>
      </trkpt>
      <trkpt lat="49.28702" lon="0.08344">
        <ele>43.2</ele>
        <time>2024-10-13T09:30:33Z</time>
      </trkpt>
      <trkpt lat="49.28706" lon="0.08334">
        <ele>43</ele>
        <time>2024-10-13T09:30:34Z</time>
      </trkpt>
      <trkpt lat="49.2871" lon="0.08323">
        <ele>42.8</ele>
        <time>2024-10-13T09:30:35Z</time>
      </trkpt>
      <trkpt lat="49.28714" lon="0.08311">
        <ele>42.4</ele>
        <time>2024-10-13T09:30:36Z</time>
      </trkpt>
      <trkpt lat="49.28717" lon="0.08298">
        <ele>42.2</ele>
        <time>2024-10-13T09:30:37Z</time>
      </trkpt>
      <trkpt lat="49.2872" lon="0.08284">
        <ele>42</ele>
        <time>2024-10-13T09:30:38Z</time>
      </trkpt>
      <trkpt lat="49.28723" lon="0.0827">
        <ele>41.6</ele>
        <time>2024-10-13T09:30:39Z</time>
      </trkpt>
      <trkpt lat="49.28726" lon="0.08255">
        <ele>41.2</ele>
        <time>2024-10-13T09:30:40Z</time>
      </trkpt>
      <trkpt lat="49.28729" lon="0.08239">
        <ele>40.6</ele>
        <time>2024-10-13T09:30:41Z</time>
      </trkpt>
      <trkpt lat="49.28733" lon="0.08223">
        <ele>40</ele>
        <time>2024-10-13T09:30:42Z</time>
      </trkpt>
      <trkpt lat="49.28738" lon="0.08207">
        <ele>39.2</ele>
        <time>2024-10-13T09:30:43Z</time>
      </trkpt>
      <trkpt lat="49.28743" lon="0.08191">
        <ele>38.4</ele>
        <time>2024-10-13T09:30:44Z</time>
      </trkpt>
      <trkpt lat="49.28749" lon="0.08175">
        <ele>37.6</ele>
        <time>2024-10-13T09:30:45Z</time>
      </trkpt>
      <trkpt lat="49.28755" lon="0.08159">
        <ele>36.6</ele>
        <time>2024-10-13T09:30:46Z</time>
      </trkpt>
      <trkpt lat="49.28762" lon="0.08144">
        <ele>35.6</ele>
        <time>2024-10-13T09:30:47Z</time>
      </trkpt>
      <trkpt lat="49.28769" lon="0.08129">
        <ele>34.8</ele>
        <time>2024-10-13T09:30:48Z</time>
      </trkpt>
      <trkpt lat="49.28777" lon="0.08115">
        <ele>33.6</ele>
        <time>2024-10-13T09:30:49Z</time>
      </trkpt>
      <trkpt lat="49.28784" lon="0.08101">
        <ele>32.4</ele>
        <time>2024-10-13T09:30:50Z</time>
      </trkpt>
      <trkpt lat="49.28791" lon="0.08087">
        <ele>31.2</ele>
        <time>2024-10-13T09:30:51Z</time>
      </trkpt>
      <trkpt lat="49.28799" lon="0.08075">
        <ele>30.2</ele>
        <time>2024-10-13T09:30:52Z</time>
      </trkpt>
      <trkpt lat="49.28807" lon="0.08064">
        <ele>29.4</ele>
        <time>2024-10-13T09:30:53Z</time>
      </trkpt>
      <trkpt lat="49.28815" lon="0.08053">
        <ele>28.8</ele>
        <time>2024-10-13T09:30:54Z</time>
      </trkpt>
      <trkpt lat="49.28823" lon="0.08043">
        <ele>28</ele>
        <time>2024-10-13T09:30:55Z</time>
      </trkpt>
      <trkpt lat="49.28831" lon="0.08034">
        <ele>27.4</ele>
        <time>2024-10-13T09:30:56Z</time>
      </trkpt>
      <trkpt lat="49.28838" lon="0.08026">
        <ele>27.2</ele>
        <time>2024-10-13T09:30:57Z</time>
      </trkpt>
      <trkpt lat="49.28845" lon="0.08018">
        <ele>27.2</ele>
        <time>2024-10-13T09:30:58Z</time>
      </trkpt>
      <trkpt lat="49.28851" lon="0.08011">
        <ele>27</ele>
        <time>2024-10-13T09:30:59Z</time>
      </trkpt>
      <trkpt lat="49.28858" lon="0.08004">
        <ele>27</ele>
        <time>2024-10-13T09:31:00Z</time>
      </trkpt>
      <trkpt lat="49.28863" lon="0.07998">
        <ele>27</ele>
        <time>2024-10-13T09:31:01Z</time>
      </trkpt>
      <trkpt lat="49.28868" lon="0.07993">
        <ele>27</ele>
        <time>2024-10-13T09:31:02Z</time>
      </trkpt>
      <trkpt lat="49.28872" lon="0.07988">
        <ele>27</ele>
        <time>2024-10-13T09:31:03Z</time>
      </trkpt>
      <trkpt lat="49.28876" lon="0.07985">
        <ele>27</ele>
        <time>2024-10-13T09:31:04Z</time>
      </trkpt>
      <trkpt lat="49.28879" lon="0.07982">
        <ele>27</ele>
        <time>2024-10-13T09:31:05Z</time>
      </trkpt>
      <trkpt lat="49.28882" lon="0.07978">
        <ele>27.2</ele>
        <time>2024-10-13T09:31:06Z</time>
      </trkpt>
      <trkpt lat="49.28885" lon="0.07975">
        <ele>27.6</ele>
        <time>2024-10-13T09:31:07Z</time>
      </trkpt>
      <trkpt lat="49.28888" lon="0.07972">
        <ele>28</ele>
        <time>2024-10-13T09:31:08Z</time>
      </trkpt>
      <trkpt lat="49.28891" lon="0.07968">
        <ele>28.2</ele>
        <time>2024-10-13T09:31:09Z</time>
      </trkpt>
      <trkpt lat="49.28895" lon="0.07965">
        <ele>28.6</ele>
        <time>2024-10-13T09:31:10Z</time>
      </trkpt>
      <trkpt lat="49.28898" lon="0.07962">
        <ele>29</ele>
        <time>2024-10-13T09:31:11Z</time>
      </trkpt>
      <trkpt lat="49.28901" lon="0.07958">
        <ele>29.4</ele>
        <time>2024-10-13T09:31:12Z</time>
      </trkpt>
      <trkpt lat="49.28904" lon="0.07954">
        <ele>29.8</ele>
        <time>2024-10-13T09:31:13Z</time>
      </trkpt>
      <trkpt lat="49.28907" lon="0.0795">
        <ele>30</ele>
        <time>2024-10-13T09:31:14Z</time>
      </trkpt>
      <trkpt lat="49.28911" lon="0.07945">
        <ele>30.2</ele>
        <time>2024-10-13T09:31:15Z</time>
      </trkpt>
      <trkpt lat="49.28914" lon="0.07941">
        <ele>30.6</ele>
        <time>2024-10-13T09:31:16Z</time>
      </trkpt>
      <trkpt lat="49.28918" lon="0.07937">
        <ele>30.8</ele>
        <time>2024-10-13T09:31:17Z</time>
      </trkpt>
      <trkpt lat="49.28921" lon="0.07933">
        <ele>30.8</ele>
        <time>2024-10-13T09:31:18Z</time>
      </trkpt>
      <trkpt lat="49.28925" lon="0.07928">
        <ele>31.2</ele>
        <time>2024-10-13T09:31:19Z</time>
      </trkpt>
      <trkpt lat="49.28929" lon="0.07924">
        <ele>31.2</ele>
        <time>2024-10-13T09:31:20Z</time>
      </trkpt>
      <trkpt lat="49.28933" lon="0.0792">
        <ele>31.4</ele>
        <time>2024-10-13T09:31:21Z</time>
      </trkpt>
      <trkpt lat="49.28937" lon="0.07916">
        <ele>31.6</ele>
        <time>2024-10-13T09:31:22Z</time>
      </trkpt>
      <trkpt lat="49.28941" lon="0.07912">
        <ele>31.6</ele>
        <time>2024-10-13T09:31:23Z</time>
      </trkpt>
      <trkpt lat="49.28945" lon="0.07907">
        <ele>31.8</ele>
        <time>2024-10-13T09:31:24Z</time>
      </trkpt>
      <trkpt lat="49.28948" lon="0.07903">
        <ele>32</ele>
        <time>2024-10-13T09:31:25Z</time>
      </trkpt>
      <trkpt lat="49.28952" lon="0.07899">
        <ele>32.2</ele>
        <time>2024-10-13T09:31:26Z</time>
      </trkpt>
      <trkpt lat="49.28956" lon="0.07895">
        <ele>32.4</ele>
        <time>2024-10-13T09:31:27Z</time>
      </trkpt>
      <trkpt lat="49.28959" lon="0.07892">
        <ele>32.6</ele>
        <time>2024-10-13T09:31:28Z</time>
      </trkpt>
      <trkpt lat="49.28963" lon="0.07888">
        <ele>32.8</ele>
        <time>2024-10-13T09:31:29Z</time>
      </trkpt>
      <trkpt lat="49.28966" lon="0.07884">
        <ele>33.2</ele>
        <time>2024-10-13T09:31:30Z</time>
      </trkpt>
      <trkpt lat="49.2897" lon="0.0788">
        <ele>33.4</ele>
        <time>2024-10-13T09:31:31Z</time>
      </trkpt>
      <trkpt lat="49.28974" lon="0.07877">
        <ele>33.6</ele>
        <time>2024-10-13T09:31:32Z</time>
      </trkpt>
      <trkpt lat="49.28977" lon="0.07873">
        <ele>34</ele>
        <time>2024-10-13T09:31:33Z</time>
      </trkpt>
      <trkpt lat="49.28981" lon="0.0787">
        <ele>34.2</ele>
        <time>2024-10-13T09:31:34Z</time>
      </trkpt>
      <trkpt lat="49.28984" lon="0.07866">
        <ele>34.6</ele>
        <time>2024-10-13T09:31:35Z</time>
      </trkpt>
      <trkpt lat="49.28987" lon="0.07862">
        <ele>34.8</ele>
        <time>2024-10-13T09:31:36Z</time>
      </trkpt>
      <trkpt lat="49.28991" lon="0.07858">
        <ele>35.2</ele>
        <time>2024-10-13T09:31:37Z</time>
      </trkpt>
      <trkpt lat="49.28994" lon="0.07854">
        <ele>35.4</ele>
        <time>2024-10-13T09:31:38Z</time>
      </trkpt>
      <trkpt lat="49.28997" lon="0.07851">
        <ele>35.8</ele>
        <time>2024-10-13T09:31:39Z</time>
      </trkpt>
      <trkpt lat="49.29001" lon="0.07847">
        <ele>36</ele>
        <time>2024-10-13T09:31:40Z</time>
      </trkpt>
      <trkpt lat="49.29004" lon="0.07844">
        <ele>36.4</ele>
        <time>2024-10-13T09:31:41Z</time>
      </trkpt>
      <trkpt lat="49.29008" lon="0.07841">
        <ele>36.6</ele>
        <time>2024-10-13T09:31:42Z</time>
      </trkpt>
      <trkpt lat="49.29011" lon="0.07837">
        <ele>36.8</ele>
        <time>2024-10-13T09:31:43Z</time>
      </trkpt>
      <trkpt lat="49.29014" lon="0.07834">
        <ele>37.2</ele>
        <time>2024-10-13T09:31:44Z</time>
      </trkpt>
      <trkpt lat="49.29018" lon="0.07831">
        <ele>37.6</ele>
        <time>2024-10-13T09:31:45Z</time>
      </trkpt>
      <trkpt lat="49.29021" lon="0.07827">
        <ele>37.8</ele>
        <time>2024-10-13T09:31:46Z</time>
      </trkpt>
      <trkpt lat="49.29024" lon="0.07823">
        <ele>38</ele>
        <time>2024-10-13T09:31:47Z</time>
      </trkpt>
      <trkpt lat="49.29028" lon="0.0782">
        <ele>38.4</ele>
        <time>2024-10-13T09:31:48Z</time>
      </trkpt>
      <trkpt lat="49.29031" lon="0.07816">
        <ele>38.6</ele>
        <time>2024-10-13T09:31:49Z</time>
      </trkpt>
      <trkpt lat="49.29034" lon="0.07813">
        <ele>39</ele>
        <time>2024-10-13T09:31:50Z</time>
      </trkpt>
      <trkpt lat="49.29037" lon="0.07809">
        <ele>39.4</ele>
        <time>2024-10-13T09:31:51Z</time>
      </trkpt>
      <trkpt lat="49.29039" lon="0.07806">
        <ele>39.8</ele>
        <time>2024-10-13T09:31:52Z</time>
      </trkpt>
      <trkpt lat="49.29042" lon="0.07802">
        <ele>40</ele>
        <time>2024-10-13T09:31:53Z</time>
      </trkpt>
      <trkpt lat="49.29045" lon="0.07799">
        <ele>40.4</ele>
        <time>2024-10-13T09:31:54Z</time>
      </trkpt>
      <trkpt lat="49.29048" lon="0.07795">
        <ele>40.4</ele>
        <time>2024-10-13T09:31:55Z</time>
      </trkpt>
      <trkpt lat="49.2905" lon="0.07791">
        <ele>40.8</ele>
        <time>2024-10-13T09:31:56Z</time>
      </trkpt>
      <trkpt lat="49.29053" lon="0.07787">
        <ele>41.2</ele>
        <time>2024-10-13T09:31:57Z</time>
      </trkpt>
      <trkpt lat="49.29056" lon="0.07783">
        <ele>41.4</ele>
        <time>2024-10-13T09:31:58Z</time>
      </trkpt>
      <trkpt lat="49.29058" lon="0.07779">
        <ele>41.6</ele>
        <time>2024-10-13T09:31:59Z</time>
      </trkpt>
      <trkpt lat="49.29061" lon="0.07775">
        <ele>42</ele>
        <time>2024-10-13T09:32:00Z</time>
      </trkpt>
      <trkpt lat="49.29063" lon="0.07771">
        <ele>42</ele>
        <time>2024-10-13T09:32:01Z</time>
      </trkpt>
      <trkpt lat="49.29066" lon="0.07766">
        <ele>42.4</ele>
        <time>2024-10-13T09:32:02Z</time>
      </trkpt>
      <trkpt lat="49.29068" lon="0.07762">
        <ele>42.6</ele>
        <time>2024-10-13T09:32:03Z</time>
      </trkpt>
      <trkpt lat="49.29071" lon="0.07758">
        <ele>43</ele>
        <time>2024-10-13T09:32:04Z</time>
      </trkpt>
      <trkpt lat="49.29073" lon="0.07754">
        <ele>43.4</ele>
        <time>2024-10-13T09:32:05Z</time>
      </trkpt>
      <trkpt lat="49.29076" lon="0.07749">
        <ele>43.6</ele>
        <time>2024-10-13T09:32:06Z</time>
      </trkpt>
      <trkpt lat="49.29078" lon="0.07744">
        <ele>43.8</ele>
        <time>2024-10-13T09:32:07Z</time>
      </trkpt>
      <trkpt lat="49.2908" lon="0.0774">
        <ele>44.2</ele>
        <time>2024-10-13T09:32:08Z</time>
      </trkpt>
      <trkpt lat="49.29083" lon="0.07735">
        <ele>44.4</ele>
        <time>2024-10-13T09:32:09Z</time>
      </trkpt>
      <trkpt lat="49.29085" lon="0.0773">
        <ele>44.6</ele>
        <time>2024-10-13T09:32:10Z</time>
      </trkpt>
      <trkpt lat="49.29087" lon="0.07726">
        <ele>44.8</ele>
        <time>2024-10-13T09:32:11Z</time>
      </trkpt>
      <trkpt lat="49.29089" lon="0.07722">
        <ele>45</ele>
        <time>2024-10-13T09:32:12Z</time>
      </trkpt>
      <trkpt lat="49.29091" lon="0.07718">
        <ele>45.4</ele>
        <time>2024-10-13T09:32:13Z</time>
      </trkpt>
      <trkpt lat="49.29094" lon="0.07715">
        <ele>45.6</ele>
        <time>2024-10-13T09:32:14Z</time>
      </trkpt>
      <trkpt lat="49.29096" lon="0.07711">
        <ele>45.8</ele>
        <time>2024-10-13T09:32:15Z</time>
      </trkpt>
      <trkpt lat="49.29098" lon="0.07707">
        <ele>46</ele>
        <time>2024-10-13T09:32:16Z</time>
      </trkpt>
      <trkpt lat="49.29099" lon="0.07703">
        <ele>46.2</ele>
        <time>2024-10-13T09:32:17Z</time>
      </trkpt>
      <trkpt lat="49.291" lon="0.07698">
        <ele>46.4</ele>
        <time>2024-10-13T09:32:18Z</time>
      </trkpt>
      <trkpt lat="49.291" lon="0.07693">
        <ele>46.6</ele>
        <time>2024-10-13T09:32:19Z</time>
      </trkpt>
      <trkpt lat="49.291" lon="0.07688">
        <ele>46.6</ele>
        <time>2024-10-13T09:32:20Z</time>
      </trkpt>
      <trkpt lat="49.291" lon="0.07682">
        <ele>47</ele>
        <time>2024-10-13T09:32:21Z</time>
      </trkpt>
      <trkpt lat="49.29099" lon="0.07677">
        <ele>47.2</ele>
        <time>2024-10-13T09:32:22Z</time>
      </trkpt>
      <trkpt lat="49.29098" lon="0.07671">
        <ele>47.6</ele>
        <time>2024-10-13T09:32:23Z</time>
      </trkpt>
      <trkpt lat="49.29096" lon="0.07666">
        <ele>47.8</ele>
        <time>2024-10-13T09:32:24Z</time>
      </trkpt>
      <trkpt lat="49.29094" lon="0.07661">
        <ele>48</ele>
        <time>2024-10-13T09:32:25Z</time>
      </trkpt>
      <trkpt lat="49.29092" lon="0.07655">
        <ele>48</ele>
        <time>2024-10-13T09:32:26Z</time>
      </trkpt>
      <trkpt lat="49.29091" lon="0.07649">
        <ele>48.2</ele>
        <time>2024-10-13T09:32:27Z</time>
      </trkpt>
      <trkpt lat="49.29089" lon="0.07642">
        <ele>48.4</ele>
        <time>2024-10-13T09:32:28Z</time>
      </trkpt>
      <trkpt lat="49.29088" lon="0.07636">
        <ele>48.4</ele>
        <time>2024-10-13T09:32:29Z</time>
      </trkpt>
      <trkpt lat="49.29086" lon="0.0763">
        <ele>48.6</ele>
        <time>2024-10-13T09:32:30Z</time>
      </trkpt>
      <trkpt lat="49.29084" lon="0.07623">
        <ele>48.8</ele>
        <time>2024-10-13T09:32:31Z</time>
      </trkpt>
      <trkpt lat="49.29083" lon="0.07616">
        <ele>48.8</ele>
        <time>2024-10-13T09:32:32Z</time>
      </trkpt>
      <trkpt lat="49.29082" lon="0.07609">
        <ele>48.8</ele>
        <time>2024-10-13T09:32:33Z</time>
      </trkpt>
      <trkpt lat="49.29081" lon="0.07602">
        <ele>49</ele>
        <time>2024-10-13T09:32:34Z</time>
      </trkpt>
      <trkpt lat="49.2908" lon="0.07594">
        <ele>49</ele>
        <time>2024-10-13T09:32:35Z</time>
      </trkpt>
      <trkpt lat="49.29079" lon="0.07587">
        <ele>49</ele>
        <time>2024-10-13T09:32:36Z</time>
      </trkpt>
      <trkpt lat="49.29079" lon="0.07579">
        <ele>49</ele>
        <time>2024-10-13T09:32:37Z</time>
      </trkpt>
      <trkpt lat="49.29079" lon="0.07571">
        <ele>49</ele>
        <time>2024-10-13T09:32:38Z</time>
      </trkpt>
      <trkpt lat="49.29079" lon="0.07563">
        <ele>49</ele>
        <time>2024-10-13T09:32:39Z</time>
      </trkpt>
      <trkpt lat="49.29079" lon="0.07555">
        <ele>49</ele>
        <time>2024-10-13T09:32:40Z</time>
      </trkpt>
      <trkpt lat="49.2908" lon="0.07547">
        <ele>49.2</ele>
        <time>2024-10-13T09:32:41Z</time>
      </trkpt>
      <trkpt lat="49.2908" lon="0.07539">
        <ele>49.2</ele>
        <time>2024-10-13T09:32:42Z</time>
      </trkpt>
      <trkpt lat="49.29081" lon="0.07531">
        <ele>49.4</ele>
        <time>2024-10-13T09:32:43Z</time>
      </trkpt>
      <trkpt lat="49.29082" lon="0.07523">
        <ele>49.4</ele>
        <time>2024-10-13T09:32:44Z</time>
      </trkpt>
      <trkpt lat="49.29082" lon="0.07515">
        <ele>49.4</ele>
        <time>2024-10-13T09:32:45Z</time>
      </trkpt>
      <trkpt lat="49.29083" lon="0.07507">
        <ele>49.4</ele>
        <time>2024-10-13T09:32:46Z</time>
      </trkpt>
      <trkpt lat="49.29084" lon="0.07499">
        <ele>49.4</ele>
        <time>2024-10-13T09:32:47Z</time>
      </trkpt>
      <trkpt lat="49.29084" lon="0.07491">
        <ele>49.6</ele>
        <time>2024-10-13T09:32:48Z</time>
      </trkpt>
      <trkpt lat="49.29085" lon="0.07482">
        <ele>49.8</ele>
        <time>2024-10-13T09:32:49Z</time>
      </trkpt>
      <trkpt lat="49.29085" lon="0.07474">
        <ele>49.8</ele>
        <time>2024-10-13T09:32:50Z</time>
      </trkpt>
      <trkpt lat="49.29086" lon="0.07466">
        <ele>50</ele>
        <time>2024-10-13T09:32:51Z</time>
      </trkpt>
      <trkpt lat="49.29086" lon="0.07458">
        <ele>50</ele>
        <time>2024-10-13T09:32:52Z</time>
      </trkpt>
      <trkpt lat="49.29086" lon="0.07449">
        <ele>50.2</ele>
        <time>2024-10-13T09:32:53Z</time>
      </trkpt>
      <trkpt lat="49.29086" lon="0.07441">
        <ele>50.4</ele>
        <time>2024-10-13T09:32:54Z</time>
      </trkpt>
      <trkpt lat="49.29086" lon="0.07432">
        <ele>50.4</ele>
        <time>2024-10-13T09:32:55Z</time>
      </trkpt>
      <trkpt lat="49.29086" lon="0.07424">
        <ele>50.6</ele>
        <time>2024-10-13T09:32:56Z</time>
      </trkpt>
      <trkpt lat="49.29086" lon="0.07416">
        <ele>50.6</ele>
        <time>2024-10-13T09:32:57Z</time>
      </trkpt>
      <trkpt lat="49.29086" lon="0.07408">
        <ele>50.8</ele>
        <time>2024-10-13T09:32:58Z</time>
      </trkpt>
      <trkpt lat="49.29086" lon="0.074">
        <ele>50.8</ele>
        <time>2024-10-13T09:32:59Z</time>
      </trkpt>
      <trkpt lat="49.29085" lon="0.07392">
        <ele>50.8</ele>
        <time>2024-10-13T09:33:00Z</time>
      </trkpt>
      <trkpt lat="49.29085" lon="0.07383">
        <ele>51</ele>
        <time>2024-10-13T09:33:01Z</time>
      </trkpt>
      <trkpt lat="49.29084" lon="0.07374">
        <ele>51</ele>
        <time>2024-10-13T09:33:02Z</time>
      </trkpt>
      <trkpt lat="49.29083" lon="0.07366">
        <ele>51</ele>
        <time>2024-10-13T09:33:03Z</time>
      </trkpt>
      <trkpt lat="49.29083" lon="0.07358">
        <ele>51.2</ele>
        <time>2024-10-13T09:33:04Z</time>
      </trkpt>
      <trkpt lat="49.29082" lon="0.07349">
        <ele>51.2</ele>
        <time>2024-10-13T09:33:05Z</time>
      </trkpt>
      <trkpt lat="49.29081" lon="0.07341">
        <ele>51.4</ele>
        <time>2024-10-13T09:33:06Z</time>
      </trkpt>
      <trkpt lat="49.29081" lon="0.07332">
        <ele>51.6</ele>
        <time>2024-10-13T09:33:07Z</time>
      </trkpt>
      <trkpt lat="49.2908" lon="0.07323">
        <ele>51.6</ele>
        <time>2024-10-13T09:33:08Z</time>
      </trkpt>
      <trkpt lat="49.2908" lon="0.07315">
        <ele>51.6</ele>
        <time>2024-10-13T09:33:09Z</time>
      </trkpt>
      <trkpt lat="49.29079" lon="0.07306">
        <ele>51.6</ele>
        <time>2024-10-13T09:33:10Z</time>
      </trkpt>
      <trkpt lat="49.29078" lon="0.07298">
        <ele>51.8</ele>
        <time>2024-10-13T09:33:11Z</time>
      </trkpt>
      <trkpt lat="49.29078" lon="0.07289">
        <ele>51.8</ele>
        <time>2024-10-13T09:33:12Z</time>
      </trkpt>
      <trkpt lat="49.29077" lon="0.0728">
        <ele>52</ele>
        <time>2024-10-13T09:33:13Z</time>
      </trkpt>
      <trkpt lat="49.29076" lon="0.07271">
        <ele>52</ele>
        <time>2024-10-13T09:33:14Z</time>
      </trkpt>
      <trkpt lat="49.29075" lon="0.07262">
        <ele>52.2</ele>
        <time>2024-10-13T09:33:15Z</time>
      </trkpt>
      <trkpt lat="49.29073" lon="0.07253">
        <ele>52.2</ele>
        <time>2024-10-13T09:33:16Z</time>
      </trkpt>
      <trkpt lat="49.29072" lon="0.07245">
        <ele>52.2</ele>
        <time>2024-10-13T09:33:17Z</time>
      </trkpt>
      <trkpt lat="49.2907" lon="0.07236">
        <ele>52.2</ele>
        <time>2024-10-13T09:33:18Z</time>
      </trkpt>
      <trkpt lat="49.29068" lon="0.07226">
        <ele>52.4</ele>
        <time>2024-10-13T09:33:19Z</time>
      </trkpt>
      <trkpt lat="49.29066" lon="0.07216">
        <ele>52.4</ele>
        <time>2024-10-13T09:33:20Z</time>
      </trkpt>
      <trkpt lat="49.29064" lon="0.07208">
        <ele>52.4</ele>
        <time>2024-10-13T09:33:21Z</time>
      </trkpt>
      <trkpt lat="49.29062" lon="0.072">
        <ele>52.6</ele>
        <time>2024-10-13T09:33:22Z</time>
      </trkpt>
      <trkpt lat="49.2906" lon="0.07193">
        <ele>52.6</ele>
        <time>2024-10-13T09:33:23Z</time>
      </trkpt>
      <trkpt lat="49.29057" lon="0.07185">
        <ele>52.8</ele>
        <time>2024-10-13T09:33:24Z</time>
      </trkpt>
      <trkpt lat="49.29055" lon="0.07178">
        <ele>52.8</ele>
        <time>2024-10-13T09:33:25Z</time>
      </trkpt>
      <trkpt lat="49.29053" lon="0.07171">
        <ele>52.8</ele>
        <time>2024-10-13T09:33:26Z</time>
      </trkpt>
      <trkpt lat="49.2905" lon="0.07163">
        <ele>52.8</ele>
        <time>2024-10-13T09:33:27Z</time>
      </trkpt>
      <trkpt lat="49.29048" lon="0.07156">
        <ele>53</ele>
        <time>2024-10-13T09:33:28Z</time>
      </trkpt>
      <trkpt lat="49.29046" lon="0.07148">
        <ele>53.2</ele>
        <time>2024-10-13T09:33:29Z</time>
      </trkpt>
      <trkpt lat="49.29044" lon="0.0714">
        <ele>53.4</ele>
        <time>2024-10-13T09:33:30Z</time>
      </trkpt>
      <trkpt lat="49.29043" lon="0.07132">
        <ele>53.4</ele>
        <time>2024-10-13T09:33:31Z</time>
      </trkpt>
      <trkpt lat="49.29041" lon="0.07124">
        <ele>53.6</ele>
        <time>2024-10-13T09:33:32Z</time>
      </trkpt>
      <trkpt lat="49.29039" lon="0.07116">
        <ele>53.8</ele>
        <time>2024-10-13T09:33:33Z</time>
      </trkpt>
      <trkpt lat="49.29038" lon="0.07108">
        <ele>53.8</ele>
        <time>2024-10-13T09:33:34Z</time>
      </trkpt>
      <trkpt lat="49.29037" lon="0.07099">
        <ele>54</ele>
        <time>2024-10-13T09:33:35Z</time>
      </trkpt>
      <trkpt lat="49.29036" lon="0.07091">
        <ele>54</ele>
        <time>2024-10-13T09:33:36Z</time>
      </trkpt>
      <trkpt lat="49.29035" lon="0.07083">
        <ele>54</ele>
        <time>2024-10-13T09:33:37Z</time>
      </trkpt>
      <trkpt lat="49.29033" lon="0.07075">
        <ele>54.2</ele>
        <time>2024-10-13T09:33:38Z</time>
      </trkpt>
      <trkpt lat="49.29031" lon="0.07067">
        <ele>54.2</ele>
        <time>2024-10-13T09:33:39Z</time>
      </trkpt>
      <trkpt lat="49.2903" lon="0.07059">
        <ele>54.2</ele>
        <time>2024-10-13T09:33:40Z</time>
      </trkpt>
      <trkpt lat="49.29029" lon="0.07051">
        <ele>54.4</ele>
        <time>2024-10-13T09:33:41Z</time>
      </trkpt>
      <trkpt lat="49.29027" lon="0.07044">
        <ele>54.4</ele>
        <time>2024-10-13T09:33:42Z</time>
      </trkpt>
      <trkpt lat="49.29026" lon="0.07036">
        <ele>54.6</ele>
        <time>2024-10-13T09:33:43Z</time>
      </trkpt>
      <trkpt lat="49.29024" lon="0.07028">
        <ele>54.8</ele>
        <time>2024-10-13T09:33:44Z</time>
      </trkpt>
      <trkpt lat="49.29022" lon="0.0702">
        <ele>54.8</ele>
        <time>2024-10-13T09:33:45Z</time>
      </trkpt>
      <trkpt lat="49.29021" lon="0.07012">
        <ele>55</ele>
        <time>2024-10-13T09:33:46Z</time>
      </trkpt>
      <trkpt lat="49.29019" lon="0.07003">
        <ele>55</ele>
        <time>2024-10-13T09:33:47Z</time>
      </trkpt>
      <trkpt lat="49.29018" lon="0.06994">
        <ele>55.2</ele>
        <time>2024-10-13T09:33:48Z</time>
      </trkpt>
      <trkpt lat="49.29016" lon="0.06985">
        <ele>55.4</ele>
        <time>2024-10-13T09:33:49Z</time>
      </trkpt>
      <trkpt lat="49.29014" lon="0.06976">
        <ele>55.6</ele>
        <time>2024-10-13T09:33:50Z</time>
      </trkpt>
      <trkpt lat="49.29012" lon="0.06968">
        <ele>55.8</ele>
        <time>2024-10-13T09:33:51Z</time>
      </trkpt>
      <trkpt lat="49.29011" lon="0.0696">
        <ele>56</ele>
        <time>2024-10-13T09:33:52Z</time>
      </trkpt>
      <trkpt lat="49.29009" lon="0.06951">
        <ele>56.2</ele>
        <time>2024-10-13T09:33:53Z</time>
      </trkpt>
      <trkpt lat="49.29007" lon="0.06943">
        <ele>56.2</ele>
        <time>2024-10-13T09:33:54Z</time>
      </trkpt>
      <trkpt lat="49.29006" lon="0.06935">
        <ele>56.4</ele>
        <time>2024-10-13T09:33:55Z</time>
      </trkpt>
      <trkpt lat="49.29003" lon="0.06927">
        <ele>56.4</ele>
        <time>2024-10-13T09:33:56Z</time>
      </trkpt>
      <trkpt lat="49.29001" lon="0.06919">
        <ele>56.6</ele>
        <time>2024-10-13T09:33:57Z</time>
      </trkpt>
      <trkpt lat="49.28999" lon="0.06911">
        <ele>56.6</ele>
        <time>2024-10-13T09:33:58Z</time>
      </trkpt>
      <trkpt lat="49.28997" lon="0.06903">
        <ele>56.8</ele>
        <time>2024-10-13T09:33:59Z</time>
      </trkpt>
      <trkpt lat="49.28995" lon="0.06894">
        <ele>56.8</ele>
        <time>2024-10-13T09:34:00Z</time>
      </trkpt>
      <trkpt lat="49.28994" lon="0.06885">
        <ele>56.8</ele>
        <time>2024-10-13T09:34:01Z</time>
      </trkpt>
      <trkpt lat="49.28992" lon="0.06877">
        <ele>57.2</ele>
        <time>2024-10-13T09:34:02Z</time>
      </trkpt>
      <trkpt lat="49.28991" lon="0.0687">
        <ele>57.2</ele>
        <time>2024-10-13T09:34:03Z</time>
      </trkpt>
      <trkpt lat="49.2899" lon="0.06863">
        <ele>57.4</ele>
        <time>2024-10-13T09:34:04Z</time>
      </trkpt>
      <trkpt lat="49.2899" lon="0.06855">
        <ele>57.4</ele>
        <time>2024-10-13T09:34:05Z</time>
      </trkpt>
      <trkpt lat="49.28989" lon="0.06846">
        <ele>57.6</ele>
        <time>2024-10-13T09:34:06Z</time>
      </trkpt>
      <trkpt lat="49.28989" lon="0.06838">
        <ele>57.6</ele>
        <time>2024-10-13T09:34:07Z</time>
      </trkpt>
      <trkpt lat="49.28987" lon="0.06829">
        <ele>57.8</ele>
        <time>2024-10-13T09:34:08Z</time>
      </trkpt>
      <trkpt lat="49.28986" lon="0.06821">
        <ele>57.8</ele>
        <time>2024-10-13T09:34:09Z</time>
      </trkpt>
      <trkpt lat="49.28985" lon="0.06813">
        <ele>57.8</ele>
        <time>2024-10-13T09:34:10Z</time>
      </trkpt>
      <trkpt lat="49.28984" lon="0.06805">
        <ele>57.8</ele>
        <time>2024-10-13T09:34:11Z</time>
      </trkpt>
      <trkpt lat="49.28983" lon="0.06796">
        <ele>58</ele>
        <time>2024-10-13T09:34:12Z</time>
      </trkpt>
      <trkpt lat="49.28982" lon="0.06788">
        <ele>58</ele>
        <time>2024-10-13T09:34:13Z</time>
      </trkpt>
      <trkpt lat="49.28982" lon="0.06779">
        <ele>58</ele>
        <time>2024-10-13T09:34:14Z</time>
      </trkpt>
      <trkpt lat="49.28981" lon="0.0677">
        <ele>58.2</ele>
        <time>2024-10-13T09:34:15Z</time>
      </trkpt>
      <trkpt lat="49.28979" lon="0.06761">
        <ele>58.2</ele>
        <time>2024-10-13T09:34:16Z</time>
      </trkpt>
      <trkpt lat="49.28978" lon="0.06753">
        <ele>58.4</ele>
        <time>2024-10-13T09:34:17Z</time>
      </trkpt>
      <trkpt lat="49.28977" lon="0.06744">
        <ele>58.4</ele>
        <time>2024-10-13T09:34:18Z</time>
      </trkpt>
      <trkpt lat="49.28976" lon="0.06735">
        <ele>58.6</ele>
        <time>2024-10-13T09:34:19Z</time>
      </trkpt>
      <trkpt lat="49.28975" lon="0.06727">
        <ele>58.8</ele>
        <time>2024-10-13T09:34:20Z</time>
      </trkpt>
      <trkpt lat="49.28974" lon="0.06718">
        <ele>59</ele>
        <time>2024-10-13T09:34:21Z</time>
      </trkpt>
      <trkpt lat="49.28972" lon="0.0671">
        <ele>59.2</ele>
        <time>2024-10-13T09:34:22Z</time>
      </trkpt>
      <trkpt lat="49.2897" lon="0.06702">
        <ele>59.2</ele>
        <time>2024-10-13T09:34:23Z</time>
      </trkpt>
      <trkpt lat="49.28969" lon="0.06694">
        <ele>59.4</ele>
        <time>2024-10-13T09:34:24Z</time>
      </trkpt>
      <trkpt lat="49.28968" lon="0.06686">
        <ele>59.6</ele>
        <time>2024-10-13T09:34:25Z</time>
      </trkpt>
      <trkpt lat="49.28967" lon="0.06678">
        <ele>59.6</ele>
        <time>2024-10-13T09:34:26Z</time>
      </trkpt>
      <trkpt lat="49.28966" lon="0.06671">
        <ele>59.8</ele>
        <time>2024-10-13T09:34:27Z</time>
      </trkpt>
      <trkpt lat="49.28965" lon="0.06663">
        <ele>60</ele>
        <time>2024-10-13T09:34:28Z</time>
      </trkpt>
      <trkpt lat="49.28965" lon="0.06655">
        <ele>60.2</ele>
        <time>2024-10-13T09:34:29Z</time>
      </trkpt>
      <trkpt lat="49.28965" lon="0.06648">
        <ele>60.2</ele>
        <time>2024-10-13T09:34:30Z</time>
      </trkpt>
      <trkpt lat="49.28963" lon="0.0664">
        <ele>60.4</ele>
        <time>2024-10-13T09:34:31Z</time>
      </trkpt>
      <trkpt lat="49.28962" lon="0.06632">
        <ele>60.6</ele>
        <time>2024-10-13T09:34:32Z</time>
      </trkpt>
      <trkpt lat="49.28961" lon="0.06623">
        <ele>60.6</ele>
        <time>2024-10-13T09:34:33Z</time>
      </trkpt>
      <trkpt lat="49.28959" lon="0.06614">
        <ele>60.8</ele>
        <time>2024-10-13T09:34:34Z</time>
      </trkpt>
      <trkpt lat="49.28958" lon="0.06606">
        <ele>61</ele>
        <time>2024-10-13T09:34:35Z</time>
      </trkpt>
      <trkpt lat="49.28956" lon="0.06598">
        <ele>61.4</ele>
        <time>2024-10-13T09:34:36Z</time>
      </trkpt>
      <trkpt lat="49.28954" lon="0.06591">
        <ele>61.4</ele>
        <time>2024-10-13T09:34:37Z</time>
      </trkpt>
      <trkpt lat="49.28953" lon="0.06583">
        <ele>61.6</ele>
        <time>2024-10-13T09:34:38Z</time>
      </trkpt>
      <trkpt lat="49.28951" lon="0.06576">
        <ele>62</ele>
        <time>2024-10-13T09:34:39Z</time>
      </trkpt>
      <trkpt lat="49.28949" lon="0.06568">
        <ele>62.4</ele>
        <time>2024-10-13T09:34:40Z</time>
      </trkpt>
      <trkpt lat="49.28946" lon="0.06561">
        <ele>62.6</ele>
        <time>2024-10-13T09:34:41Z</time>
      </trkpt>
      <trkpt lat="49.28944" lon="0.06554">
        <ele>62.8</ele>
        <time>2024-10-13T09:34:42Z</time>
      </trkpt>
      <trkpt lat="49.28942" lon="0.06548">
        <ele>63.2</ele>
        <time>2024-10-13T09:34:43Z</time>
      </trkpt>
      <trkpt lat="49.2894" lon="0.06541">
        <ele>63.4</ele>
        <time>2024-10-13T09:34:44Z</time>
      </trkpt>
      <trkpt lat="49.28938" lon="0.06535">
        <ele>63.6</ele>
        <time>2024-10-13T09:34:45Z</time>
      </trkpt>
      <trkpt lat="49.28935" lon="0.06528">
        <ele>63.8</ele>
        <time>2024-10-13T09:34:46Z</time>
      </trkpt>
      <trkpt lat="49.28933" lon="0.06522">
        <ele>64</ele>
        <time>2024-10-13T09:34:47Z</time>
      </trkpt>
      <trkpt lat="49.28931" lon="0.06516">
        <ele>64.2</ele>
        <time>2024-10-13T09:34:48Z</time>
      </trkpt>
      <trkpt lat="49.28928" lon="0.06511">
        <ele>64.6</ele>
        <time>2024-10-13T09:34:49Z</time>
      </trkpt>
      <trkpt lat="49.28926" lon="0.06506">
        <ele>64.8</ele>
        <time>2024-10-13T09:34:50Z</time>
      </trkpt>
      <trkpt lat="49.28924" lon="0.06501">
        <ele>65</ele>
        <time>2024-10-13T09:34:51Z</time>
      </trkpt>
      <trkpt lat="49.28922" lon="0.06496">
        <ele>65.2</ele>
        <time>2024-10-13T09:34:52Z</time>
      </trkpt>
      <trkpt lat="49.2892" lon="0.0649">
        <ele>65.4</ele>
        <time>2024-10-13T09:34:53Z</time>
      </trkpt>
      <trkpt lat="49.28918" lon="0.06485">
        <ele>65.6</ele>
        <time>2024-10-13T09:34:54Z</time>
      </trkpt>
      <trkpt lat="49.28916" lon="0.0648">
        <ele>66</ele>
        <time>2024-10-13T09:34:55Z</time>
      </trkpt>
      <trkpt lat="49.28914" lon="0.06475">
        <ele>66.2</ele>
        <time>2024-10-13T09:34:56Z</time>
      </trkpt>
      <trkpt lat="49.28913" lon="0.0647">
        <ele>66.4</ele>
        <time>2024-10-13T09:34:57Z</time>
      </trkpt>
      <trkpt lat="49.28911" lon="0.06466">
        <ele>66.4</ele>
        <time>2024-10-13T09:34:58Z</time>
      </trkpt>
      <trkpt lat="49.2891" lon="0.0646">
        <ele>66.6</ele>
        <time>2024-10-13T09:34:59Z</time>
      </trkpt>
      <trkpt lat="49.28908" lon="0.06455">
        <ele>66.8</ele>
        <time>2024-10-13T09:35:00Z</time>
      </trkpt>
      <trkpt lat="49.28908" lon="0.0645">
        <ele>67</ele>
        <time>2024-10-13T09:35:01Z</time>
      </trkpt>
      <trkpt lat="49.28907" lon="0.06444">
        <ele>67.4</ele>
        <time>2024-10-13T09:35:02Z</time>
      </trkpt>
      <trkpt lat="49.28906" lon="0.06439">
        <ele>67.6</ele>
        <time>2024-10-13T09:35:03Z</time>
      </trkpt>
      <trkpt lat="49.28905" lon="0.06433">
        <ele>67.8</ele>
        <time>2024-10-13T09:35:04Z</time>
      </trkpt>
      <trkpt lat="49.28904" lon="0.06428">
        <ele>68.2</ele>
        <time>2024-10-13T09:35:05Z</time>
      </trkpt>
      <trkpt lat="49.28903" lon="0.06423">
        <ele>68.4</ele>
        <time>2024-10-13T09:35:06Z</time>
      </trkpt>
      <trkpt lat="49.28902" lon="0.06418">
        <ele>68.6</ele>
        <time>2024-10-13T09:35:07Z</time>
      </trkpt>
      <trkpt lat="49.28901" lon="0.06413">
        <ele>69</ele>
        <time>2024-10-13T09:35:08Z</time>
      </trkpt>
      <trkpt lat="49.28899" lon="0.06409">
        <ele>69.2</ele>
        <time>2024-10-13T09:35:09Z</time>
      </trkpt>
      <trkpt lat="49.28897" lon="0.06404">
        <ele>69.6</ele>
        <time>2024-10-13T09:35:10Z</time>
      </trkpt>
      <trkpt lat="49.28896" lon="0.06399">
        <ele>69.8</ele>
        <time>2024-10-13T09:35:11Z</time>
      </trkpt>
      <trkpt lat="49.28894" lon="0.06394">
        <ele>70.2</ele>
        <time>2024-10-13T09:35:12Z</time>
      </trkpt>
      <trkpt lat="49.28892" lon="0.06389">
        <ele>70.4</ele>
        <time>2024-10-13T09:35:13Z</time>
      </trkpt>
      <trkpt lat="49.28891" lon="0.06385">
        <ele>70.8</ele>
        <time>2024-10-13T09:35:14Z</time>
      </trkpt>
      <trkpt lat="49.28889" lon="0.0638">
        <ele>71.2</ele>
        <time>2024-10-13T09:35:15Z</time>
      </trkpt>
      <trkpt lat="49.28886" lon="0.06375">
        <ele>71.4</ele>
        <time>2024-10-13T09:35:16Z</time>
      </trkpt>
      <trkpt lat="49.28884" lon="0.0637">
        <ele>71.8</ele>
        <time>2024-10-13T09:35:17Z</time>
      </trkpt>
      <trkpt lat="49.28882" lon="0.06368">
        <ele>72.2</ele>
        <time>2024-10-13T09:35:18Z</time>
      </trkpt>
      <trkpt lat="49.2888" lon="0.06362">
        <ele>72.6</ele>
        <time>2024-10-13T09:35:19Z</time>
      </trkpt>
      <trkpt lat="49.28879" lon="0.06357">
        <ele>72.6</ele>
        <time>2024-10-13T09:35:20Z</time>
      </trkpt>
      <trkpt lat="49.28877" lon="0.06352">
        <ele>72.8</ele>
        <time>2024-10-13T09:35:21Z</time>
      </trkpt>
      <trkpt lat="49.28874" lon="0.06345">
        <ele>73.2</ele>
        <time>2024-10-13T09:35:22Z</time>
      </trkpt>
      <trkpt lat="49.28872" lon="0.06338">
        <ele>73.6</ele>
        <time>2024-10-13T09:35:23Z</time>
      </trkpt>
      <trkpt lat="49.28871" lon="0.06333">
        <ele>73.8</ele>
        <time>2024-10-13T09:35:24Z</time>
      </trkpt>
      <trkpt lat="49.28869" lon="0.06329">
        <ele>74.2</ele>
        <time>2024-10-13T09:35:25Z</time>
      </trkpt>
      <trkpt lat="49.28867" lon="0.06324">
        <ele>74.6</ele>
        <time>2024-10-13T09:35:26Z</time>
      </trkpt>
      <trkpt lat="49.28865" lon="0.0632">
        <ele>75</ele>
        <time>2024-10-13T09:35:27Z</time>
      </trkpt>
      <trkpt lat="49.28862" lon="0.06316">
        <ele>75.4</ele>
        <time>2024-10-13T09:35:28Z</time>
      </trkpt>
      <trkpt lat="49.2886" lon="0.06311">
        <ele>75.6</ele>
        <time>2024-10-13T09:35:29Z</time>
      </trkpt>
      <trkpt lat="49.2886" lon="0.06306">
        <ele>75.8</ele>
        <time>2024-10-13T09:35:30Z</time>
      </trkpt>
      <trkpt lat="49.2886" lon="0.06301">
        <ele>76.2</ele>
        <time>2024-10-13T09:35:31Z</time>
      </trkpt>
      <trkpt lat="49.28861" lon="0.06296">
        <ele>76.2</ele>
        <time>2024-10-13T09:35:32Z</time>
      </trkpt>
      <trkpt lat="49.28858" lon="0.06291">
        <ele>76.6</ele>
        <time>2024-10-13T09:35:33Z</time>
      </trkpt>
      <trkpt lat="49.28857" lon="0.06288">
        <ele>77</ele>
        <time>2024-10-13T09:35:34Z</time>
      </trkpt>
      <trkpt lat="49.28856" lon="0.06285">
        <ele>77.2</ele>
        <time>2024-10-13T09:35:35Z</time>
      </trkpt>
      <trkpt lat="49.28854" lon="0.0628">
        <ele>77.6</ele>
        <time>2024-10-13T09:35:36Z</time>
      </trkpt>
      <trkpt lat="49.28852" lon="0.06276">
        <ele>77.8</ele>
        <time>2024-10-13T09:35:37Z</time>
      </trkpt>
      <trkpt lat="49.2885" lon="0.06272">
        <ele>78.2</ele>
        <time>2024-10-13T09:35:38Z</time>
      </trkpt>
      <trkpt lat="49.28848" lon="0.06267">
        <ele>78.4</ele>
        <time>2024-10-13T09:35:39Z</time>
      </trkpt>
      <trkpt lat="49.28847" lon="0.06264">
        <ele>78.8</ele>
        <time>2024-10-13T09:35:40Z</time>
      </trkpt>
      <trkpt lat="49.28846" lon="0.06259">
        <ele>78.8</ele>
        <time>2024-10-13T09:35:41Z</time>
      </trkpt>
      <trkpt lat="49.28845" lon="0.06255">
        <ele>79</ele>
        <time>2024-10-13T09:35:42Z</time>
      </trkpt>
      <trkpt lat="49.28843" lon="0.06251">
        <ele>79.2</ele>
        <time>2024-10-13T09:35:43Z</time>
      </trkpt>
      <trkpt lat="49.28842" lon="0.06246">
        <ele>79.6</ele>
        <time>2024-10-13T09:35:44Z</time>
      </trkpt>
      <trkpt lat="49.28841" lon="0.06241">
        <ele>79.8</ele>
        <time>2024-10-13T09:35:45Z</time>
      </trkpt>
      <trkpt lat="49.28839" lon="0.06236">
        <ele>80.2</ele>
        <time>2024-10-13T09:35:46Z</time>
      </trkpt>
      <trkpt lat="49.28838" lon="0.06231">
        <ele>80.4</ele>
        <time>2024-10-13T09:35:47Z</time>
      </trkpt>
      <trkpt lat="49.28835" lon="0.06225">
        <ele>80.8</ele>
        <time>2024-10-13T09:35:48Z</time>
      </trkpt>
      <trkpt lat="49.28834" lon="0.06221">
        <ele>81</ele>
        <time>2024-10-13T09:35:49Z</time>
      </trkpt>
      <trkpt lat="49.28832" lon="0.06215">
        <ele>81.2</ele>
        <time>2024-10-13T09:35:50Z</time>
      </trkpt>
      <trkpt lat="49.28831" lon="0.0621">
        <ele>81.6</ele>
        <time>2024-10-13T09:35:51Z</time>
      </trkpt>
      <trkpt lat="49.2883" lon="0.06205">
        <ele>81.8</ele>
        <time>2024-10-13T09:35:52Z</time>
      </trkpt>
      <trkpt lat="49.28828" lon="0.06199">
        <ele>82.2</ele>
        <time>2024-10-13T09:35:53Z</time>
      </trkpt>
      <trkpt lat="49.28827" lon="0.06193">
        <ele>82.4</ele>
        <time>2024-10-13T09:35:54Z</time>
      </trkpt>
      <trkpt lat="49.28825" lon="0.06187">
        <ele>82.6</ele>
        <time>2024-10-13T09:35:55Z</time>
      </trkpt>
      <trkpt lat="49.28823" lon="0.06182">
        <ele>82.8</ele>
        <time>2024-10-13T09:35:56Z</time>
      </trkpt>
      <trkpt lat="49.2882" lon="0.06176">
        <ele>83.2</ele>
        <time>2024-10-13T09:35:57Z</time>
      </trkpt>
      <trkpt lat="49.28818" lon="0.0617">
        <ele>83.6</ele>
        <time>2024-10-13T09:35:58Z</time>
      </trkpt>
      <trkpt lat="49.28817" lon="0.06165">
        <ele>83.8</ele>
        <time>2024-10-13T09:35:59Z</time>
      </trkpt>
      <trkpt lat="49.28815" lon="0.06159">
        <ele>83.8</ele>
        <time>2024-10-13T09:36:00Z</time>
      </trkpt>
      <trkpt lat="49.28814" lon="0.06153">
        <ele>84</ele>
        <time>2024-10-13T09:36:01Z</time>
      </trkpt>
      <trkpt lat="49.28812" lon="0.06148">
        <ele>84.4</ele>
        <time>2024-10-13T09:36:02Z</time>
      </trkpt>
      <trkpt lat="49.28811" lon="0.06143">
        <ele>84.6</ele>
        <time>2024-10-13T09:36:03Z</time>
      </trkpt>
      <trkpt lat="49.28809" lon="0.06139">
        <ele>84.8</ele>
        <time>2024-10-13T09:36:04Z</time>
      </trkpt>
      <trkpt lat="49.28808" lon="0.06135">
        <ele>85.2</ele>
        <time>2024-10-13T09:36:05Z</time>
      </trkpt>
      <trkpt lat="49.28807" lon="0.0613">
        <ele>85.4</ele>
        <time>2024-10-13T09:36:06Z</time>
      </trkpt>
      <trkpt lat="49.28806" lon="0.06126">
        <ele>85.6</ele>
        <time>2024-10-13T09:36:07Z</time>
      </trkpt>
      <trkpt lat="49.28804" lon="0.06121">
        <ele>85.8</ele>
        <time>2024-10-13T09:36:08Z</time>
      </trkpt>
      <trkpt lat="49.28802" lon="0.06115">
        <ele>86.2</ele>
        <time>2024-10-13T09:36:09Z</time>
      </trkpt>
      <trkpt lat="49.288" lon="0.0611">
        <ele>86.6</ele>
        <time>2024-10-13T09:36:10Z</time>
      </trkpt>
      <trkpt lat="49.28798" lon="0.06105">
        <ele>86.8</ele>
        <time>2024-10-13T09:36:11Z</time>
      </trkpt>
      <trkpt lat="49.28796" lon="0.06099">
        <ele>87.2</ele>
        <time>2024-10-13T09:36:12Z</time>
      </trkpt>
      <trkpt lat="49.28794" lon="0.06095">
        <ele>87.4</ele>
        <time>2024-10-13T09:36:13Z</time>
      </trkpt>
      <trkpt lat="49.28792" lon="0.06089">
        <ele>87.8</ele>
        <time>2024-10-13T09:36:14Z</time>
      </trkpt>
      <trkpt lat="49.28791" lon="0.06083">
        <ele>88.2</ele>
        <time>2024-10-13T09:36:15Z</time>
      </trkpt>
      <trkpt lat="49.28789" lon="0.06077">
        <ele>88.6</ele>
        <time>2024-10-13T09:36:16Z</time>
      </trkpt>
      <trkpt lat="49.28788" lon="0.06071">
        <ele>88.8</ele>
        <time>2024-10-13T09:36:17Z</time>
      </trkpt>
      <trkpt lat="49.28786" lon="0.06065">
        <ele>89.2</ele>
        <time>2024-10-13T09:36:18Z</time>
      </trkpt>
      <trkpt lat="49.28785" lon="0.06059">
        <ele>89.2</ele>
        <time>2024-10-13T09:36:19Z</time>
      </trkpt>
      <trkpt lat="49.28784" lon="0.06054">
        <ele>89.4</ele>
        <time>2024-10-13T09:36:20Z</time>
      </trkpt>
      <trkpt lat="49.28782" lon="0.06049">
        <ele>89.6</ele>
        <time>2024-10-13T09:36:21Z</time>
      </trkpt>
      <trkpt lat="49.28781" lon="0.06045">
        <ele>89.8</ele>
        <time>2024-10-13T09:36:22Z</time>
      </trkpt>
      <trkpt lat="49.2878" lon="0.0604">
        <ele>90</ele>
        <time>2024-10-13T09:36:23Z</time>
      </trkpt>
      <trkpt lat="49.28779" lon="0.06034">
        <ele>90.4</ele>
        <time>2024-10-13T09:36:24Z</time>
      </trkpt>
      <trkpt lat="49.28778" lon="0.06028">
        <ele>90.4</ele>
        <time>2024-10-13T09:36:25Z</time>
      </trkpt>
      <trkpt lat="49.28777" lon="0.06021">
        <ele>90.6</ele>
        <time>2024-10-13T09:36:26Z</time>
      </trkpt>
      <trkpt lat="49.28776" lon="0.06013">
        <ele>90.8</ele>
        <time>2024-10-13T09:36:27Z</time>
      </trkpt>
      <trkpt lat="49.28773" lon="0.06005">
        <ele>91</ele>
        <time>2024-10-13T09:36:28Z</time>
      </trkpt>
      <trkpt lat="49.28771" lon="0.05995">
        <ele>91.2</ele>
        <time>2024-10-13T09:36:29Z</time>
      </trkpt>
      <trkpt lat="49.28769" lon="0.05987">
        <ele>91.4</ele>
        <time>2024-10-13T09:36:30Z</time>
      </trkpt>
      <trkpt lat="49.28766" lon="0.05979">
        <ele>91.8</ele>
        <time>2024-10-13T09:36:31Z</time>
      </trkpt>
      <trkpt lat="49.28763" lon="0.05971">
        <ele>92</ele>
        <time>2024-10-13T09:36:32Z</time>
      </trkpt>
      <trkpt lat="49.2876" lon="0.05964">
        <ele>92.2</ele>
        <time>2024-10-13T09:36:33Z</time>
      </trkpt>
      <trkpt lat="49.28758" lon="0.05957">
        <ele>92.6</ele>
        <time>2024-10-13T09:36:34Z</time>
      </trkpt>
      <trkpt lat="49.28756" lon="0.0595">
        <ele>92.6</ele>
        <time>2024-10-13T09:36:35Z</time>
      </trkpt>
      <trkpt lat="49.28754" lon="0.05943">
        <ele>92.8</ele>
        <time>2024-10-13T09:36:36Z</time>
      </trkpt>
      <trkpt lat="49.2875" lon="0.05934">
        <ele>93</ele>
        <time>2024-10-13T09:36:37Z</time>
      </trkpt>
      <trkpt lat="49.28748" lon="0.05928">
        <ele>93.2</ele>
        <time>2024-10-13T09:36:38Z</time>
      </trkpt>
      <trkpt lat="49.28744" lon="0.0592">
        <ele>93.2</ele>
        <time>2024-10-13T09:36:39Z</time>
      </trkpt>
      <trkpt lat="49.28743" lon="0.05912">
        <ele>93.4</ele>
        <time>2024-10-13T09:36:40Z</time>
      </trkpt>
      <trkpt lat="49.28741" lon="0.05904">
        <ele>93.6</ele>
        <time>2024-10-13T09:36:41Z</time>
      </trkpt>
      <trkpt lat="49.28738" lon="0.05896">
        <ele>93.8</ele>
        <time>2024-10-13T09:36:42Z</time>
      </trkpt>
      <trkpt lat="49.28736" lon="0.0589">
        <ele>94</ele>
        <time>2024-10-13T09:36:43Z</time>
      </trkpt>
      <trkpt lat="49.28734" lon="0.05883">
        <ele>94.2</ele>
        <time>2024-10-13T09:36:44Z</time>
      </trkpt>
      <trkpt lat="49.28731" lon="0.05874">
        <ele>94.4</ele>
        <time>2024-10-13T09:36:45Z</time>
      </trkpt>
      <trkpt lat="49.28729" lon="0.05866">
        <ele>94.6</ele>
        <time>2024-10-13T09:36:46Z</time>
      </trkpt>
      <trkpt lat="49.28727" lon="0.05859">
        <ele>94.8</ele>
        <time>2024-10-13T09:36:47Z</time>
      </trkpt>
      <trkpt lat="49.28725" lon="0.05853">
        <ele>94.8</ele>
        <time>2024-10-13T09:36:48Z</time>
      </trkpt>
      <trkpt lat="49.28723" lon="0.05846">
        <ele>95</ele>
        <time>2024-10-13T09:36:49Z</time>
      </trkpt>
      <trkpt lat="49.28721" lon="0.05839">
        <ele>95</ele>
        <time>2024-10-13T09:36:50Z</time>
      </trkpt>
      <trkpt lat="49.28718" lon="0.0583">
        <ele>95</ele>
        <time>2024-10-13T09:36:51Z</time>
      </trkpt>
      <trkpt lat="49.28717" lon="0.05823">
        <ele>95.2</ele>
        <time>2024-10-13T09:36:52Z</time>
      </trkpt>
      <trkpt lat="49.28714" lon="0.05815">
        <ele>95.2</ele>
        <time>2024-10-13T09:36:53Z</time>
      </trkpt>
      <trkpt lat="49.28712" lon="0.05807">
        <ele>95.4</ele>
        <time>2024-10-13T09:36:54Z</time>
      </trkpt>
      <trkpt lat="49.28711" lon="0.05799">
        <ele>95.6</ele>
        <time>2024-10-13T09:36:55Z</time>
      </trkpt>
      <trkpt lat="49.28708" lon="0.05791">
        <ele>95.6</ele>
        <time>2024-10-13T09:36:56Z</time>
      </trkpt>
      <trkpt lat="49.28706" lon="0.05782">
        <ele>95.8</ele>
        <time>2024-10-13T09:36:57Z</time>
      </trkpt>
      <trkpt lat="49.28703" lon="0.05775">
        <ele>95.8</ele>
        <time>2024-10-13T09:36:58Z</time>
      </trkpt>
      <trkpt lat="49.28702" lon="0.05767">
        <ele>95.8</ele>
        <time>2024-10-13T09:36:59Z</time>
      </trkpt>
      <trkpt lat="49.287" lon="0.05758">
        <ele>96</ele>
        <time>2024-10-13T09:37:00Z</time>
      </trkpt>
      <trkpt lat="49.28698" lon="0.0575">
        <ele>96.4</ele>
        <time>2024-10-13T09:37:01Z</time>
      </trkpt>
      <trkpt lat="49.28696" lon="0.05741">
        <ele>96.4</ele>
        <time>2024-10-13T09:37:02Z</time>
      </trkpt>
      <trkpt lat="49.28694" lon="0.05732">
        <ele>96.6</ele>
        <time>2024-10-13T09:37:03Z</time>
      </trkpt>
      <trkpt lat="49.28692" lon="0.05723">
        <ele>96.8</ele>
        <time>2024-10-13T09:37:04Z</time>
      </trkpt>
      <trkpt lat="49.2869" lon="0.05715">
        <ele>97</ele>
        <time>2024-10-13T09:37:05Z</time>
      </trkpt>
      <trkpt lat="49.28689" lon="0.05707">
        <ele>97</ele>
        <time>2024-10-13T09:37:06Z</time>
      </trkpt>
      <trkpt lat="49.28688" lon="0.05697">
        <ele>97.4</ele>
        <time>2024-10-13T09:37:07Z</time>
      </trkpt>
      <trkpt lat="49.28686" lon="0.05688">
        <ele>97.6</ele>
        <time>2024-10-13T09:37:08Z</time>
      </trkpt>
      <trkpt lat="49.28684" lon="0.0568">
        <ele>97.8</ele>
        <time>2024-10-13T09:37:09Z</time>
      </trkpt>
      <trkpt lat="49.28683" lon="0.05673">
        <ele>97.8</ele>
        <time>2024-10-13T09:37:10Z</time>
      </trkpt>
      <trkpt lat="49.28681" lon="0.05664">
        <ele>97.8</ele>
        <time>2024-10-13T09:37:11Z</time>
      </trkpt>
      <trkpt lat="49.28679" lon="0.05654">
        <ele>98</ele>
        <time>2024-10-13T09:37:12Z</time>
      </trkpt>
      <trkpt lat="49.28677" lon="0.05647">
        <ele>98</ele>
        <time>2024-10-13T09:37:13Z</time>
      </trkpt>
      <trkpt lat="49.28675" lon="0.05637">
        <ele>98.2</ele>
        <time>2024-10-13T09:37:14Z</time>
      </trkpt>
      <trkpt lat="49.28672" lon="0.05628">
        <ele>98.2</ele>
        <time>2024-10-13T09:37:15Z</time>
      </trkpt>
      <trkpt lat="49.2867" lon="0.05619">
        <ele>98.4</ele>
        <time>2024-10-13T09:37:16Z</time>
      </trkpt>
      <trkpt lat="49.28668" lon="0.0561">
        <ele>98.6</ele>
        <time>2024-10-13T09:37:17Z</time>
      </trkpt>
      <trkpt lat="49.28665" lon="0.05598">
        <ele>98.8</ele>
        <time>2024-10-13T09:37:18Z</time>
      </trkpt>
      <trkpt lat="49.28663" lon="0.05591">
        <ele>99</ele>
        <time>2024-10-13T09:37:19Z</time>
      </trkpt>
      <trkpt lat="49.28662" lon="0.05581">
        <ele>99</ele>
        <time>2024-10-13T09:37:20Z</time>
      </trkpt>
      <trkpt lat="49.2866" lon="0.0557">
        <ele>99.2</ele>
        <time>2024-10-13T09:37:21Z</time>
      </trkpt>
      <trkpt lat="49.28658" lon="0.0556">
        <ele>99.2</ele>
        <time>2024-10-13T09:37:22Z</time>
      </trkpt>
      <trkpt lat="49.28657" lon="0.05552">
        <ele>99.4</ele>
        <time>2024-10-13T09:37:23Z</time>
      </trkpt>
      <trkpt lat="49.28656" lon="0.05543">
        <ele>99.8</ele>
        <time>2024-10-13T09:37:24Z</time>
      </trkpt>
      <trkpt lat="49.28655" lon="0.05533">
        <ele>99.8</ele>
        <time>2024-10-13T09:37:25Z</time>
      </trkpt>
      <trkpt lat="49.28654" lon="0.05523">
        <ele>99.8</ele>
        <time>2024-10-13T09:37:26Z</time>
      </trkpt>
      <trkpt lat="49.28653" lon="0.05513">
        <ele>100.2</ele>
        <time>2024-10-13T09:37:27Z</time>
      </trkpt>
      <trkpt lat="49.28653" lon="0.05503">
        <ele>100.4</ele>
        <time>2024-10-13T09:37:28Z</time>
      </trkpt>
      <trkpt lat="49.28652" lon="0.05492">
        <ele>100.6</ele>
        <time>2024-10-13T09:37:29Z</time>
      </trkpt>
      <trkpt lat="49.28651" lon="0.05483">
        <ele>100.6</ele>
        <time>2024-10-13T09:37:30Z</time>
      </trkpt>
      <trkpt lat="49.2865" lon="0.05472">
        <ele>100.6</ele>
        <time>2024-10-13T09:37:31Z</time>
      </trkpt>
      <trkpt lat="49.28649" lon="0.05462">
        <ele>100.6</ele>
        <time>2024-10-13T09:37:32Z</time>
      </trkpt>
      <trkpt lat="49.28648" lon="0.05452">
        <ele>101</ele>
        <time>2024-10-13T09:37:33Z</time>
      </trkpt>
      <trkpt lat="49.28648" lon="0.05442">
        <ele>101.2</ele>
        <time>2024-10-13T09:37:34Z</time>
      </trkpt>
      <trkpt lat="49.28647" lon="0.05432">
        <ele>101.2</ele>
        <time>2024-10-13T09:37:35Z</time>
      </trkpt>
      <trkpt lat="49.28647" lon="0.05422">
        <ele>101.4</ele>
        <time>2024-10-13T09:37:36Z</time>
      </trkpt>
      <trkpt lat="49.28646" lon="0.05412">
        <ele>101.8</ele>
        <time>2024-10-13T09:37:37Z</time>
      </trkpt>
      <trkpt lat="49.28645" lon="0.05402">
        <ele>102</ele>
        <time>2024-10-13T09:37:38Z</time>
      </trkpt>
      <trkpt lat="49.28645" lon="0.05392">
        <ele>102.2</ele>
        <time>2024-10-13T09:37:39Z</time>
      </trkpt>
      <trkpt lat="49.28644" lon="0.05383">
        <ele>102.4</ele>
        <time>2024-10-13T09:37:40Z</time>
      </trkpt>
      <trkpt lat="49.28643" lon="0.05373">
        <ele>102.8</ele>
        <time>2024-10-13T09:37:41Z</time>
      </trkpt>
      <trkpt lat="49.28643" lon="0.05363">
        <ele>102.8</ele>
        <time>2024-10-13T09:37:42Z</time>
      </trkpt>
      <trkpt lat="49.28642" lon="0.05352">
        <ele>103</ele>
        <time>2024-10-13T09:37:43Z</time>
      </trkpt>
      <trkpt lat="49.28641" lon="0.05342">
        <ele>103.2</ele>
        <time>2024-10-13T09:37:44Z</time>
      </trkpt>
      <trkpt lat="49.2864" lon="0.05331">
        <ele>103.2</ele>
        <time>2024-10-13T09:37:45Z</time>
      </trkpt>
      <trkpt lat="49.28639" lon="0.05321">
        <ele>103.2</ele>
        <time>2024-10-13T09:37:46Z</time>
      </trkpt>
      <trkpt lat="49.28639" lon="0.0531">
        <ele>103.4</ele>
        <time>2024-10-13T09:37:47Z</time>
      </trkpt>
      <trkpt lat="49.28638" lon="0.053">
        <ele>103.6</ele>
        <time>2024-10-13T09:37:48Z</time>
      </trkpt>
      <trkpt lat="49.28637" lon="0.05289">
        <ele>103.6</ele>
        <time>2024-10-13T09:37:49Z</time>
      </trkpt>
      <trkpt lat="49.28637" lon="0.05279">
        <ele>103.8</ele>
        <time>2024-10-13T09:37:50Z</time>
      </trkpt>
      <trkpt lat="49.28636" lon="0.05268">
        <ele>104</ele>
        <time>2024-10-13T09:37:51Z</time>
      </trkpt>
      <trkpt lat="49.28635" lon="0.05257">
        <ele>104</ele>
        <time>2024-10-13T09:37:52Z</time>
      </trkpt>
      <trkpt lat="49.28634" lon="0.05246">
        <ele>104.2</ele>
        <time>2024-10-13T09:37:53Z</time>
      </trkpt>
      <trkpt lat="49.28633" lon="0.05235">
        <ele>104.4</ele>
        <time>2024-10-13T09:37:54Z</time>
      </trkpt>
      <trkpt lat="49.28632" lon="0.05224">
        <ele>104.4</ele>
        <time>2024-10-13T09:37:55Z</time>
      </trkpt>
      <trkpt lat="49.28631" lon="0.05212">
        <ele>104.4</ele>
        <time>2024-10-13T09:37:56Z</time>
      </trkpt>
      <trkpt lat="49.2863" lon="0.05201">
        <ele>104.6</ele>
        <time>2024-10-13T09:37:57Z</time>
      </trkpt>
      <trkpt lat="49.28629" lon="0.0519">
        <ele>104.6</ele>
        <time>2024-10-13T09:37:58Z</time>
      </trkpt>
      <trkpt lat="49.28629" lon="0.05179">
        <ele>104.6</ele>
        <time>2024-10-13T09:37:59Z</time>
      </trkpt>
      <trkpt lat="49.28628" lon="0.05168">
        <ele>104.8</ele>
        <time>2024-10-13T09:38:00Z</time>
      </trkpt>
      <trkpt lat="49.28627" lon="0.05157">
        <ele>104.8</ele>
        <time>2024-10-13T09:38:01Z</time>
      </trkpt>
      <trkpt lat="49.28625" lon="0.05146">
        <ele>104.8</ele>
        <time>2024-10-13T09:38:02Z</time>
      </trkpt>
      <trkpt lat="49.28624" lon="0.05135">
        <ele>104.8</ele>
        <time>2024-10-13T09:38:03Z</time>
      </trkpt>
      <trkpt lat="49.28623" lon="0.05124">
        <ele>104.8</ele>
        <time>2024-10-13T09:38:04Z</time>
      </trkpt>
      <trkpt lat="49.28622" lon="0.05114">
        <ele>105</ele>
        <time>2024-10-13T09:38:05Z</time>
      </trkpt>
      <trkpt lat="49.28621" lon="0.05103">
        <ele>105.2</ele>
        <time>2024-10-13T09:38:06Z</time>
      </trkpt>
      <trkpt lat="49.28621" lon="0.05093">
        <ele>105.2</ele>
        <time>2024-10-13T09:38:07Z</time>
      </trkpt>
      <trkpt lat="49.2862" lon="0.05083">
        <ele>105.4</ele>
        <time>2024-10-13T09:38:08Z</time>
      </trkpt>
      <trkpt lat="49.28619" lon="0.05074">
        <ele>105.6</ele>
        <time>2024-10-13T09:38:09Z</time>
      </trkpt>
      <trkpt lat="49.28618" lon="0.05065">
        <ele>105.8</ele>
        <time>2024-10-13T09:38:10Z</time>
      </trkpt>
      <trkpt lat="49.28617" lon="0.05056">
        <ele>106</ele>
        <time>2024-10-13T09:38:11Z</time>
      </trkpt>
      <trkpt lat="49.28617" lon="0.05047">
        <ele>106.2</ele>
        <time>2024-10-13T09:38:12Z</time>
      </trkpt>
      <trkpt lat="49.28616" lon="0.0504">
        <ele>106.2</ele>
        <time>2024-10-13T09:38:13Z</time>
      </trkpt>
      <trkpt lat="49.28616" lon="0.05034">
        <ele>106.4</ele>
        <time>2024-10-13T09:38:14Z</time>
      </trkpt>
      <trkpt lat="49.28615" lon="0.05029">
        <ele>106.4</ele>
        <time>2024-10-13T09:38:15Z</time>
      </trkpt>
      <trkpt lat="49.28614" lon="0.05024">
        <ele>106.4</ele>
        <time>2024-10-13T09:38:16Z</time>
      </trkpt>
      <trkpt lat="49.28613" lon="0.0502">
        <ele>106.6</ele>
        <time>2024-10-13T09:38:17Z</time>
      </trkpt>
      <trkpt lat="49.28611" lon="0.05016">
        <ele>106.6</ele>
        <time>2024-10-13T09:38:18Z</time>
      </trkpt>
      <trkpt lat="49.2861" lon="0.05013">
        <ele>106.8</ele>
        <time>2024-10-13T09:38:19Z</time>
      </trkpt>
      <trkpt lat="49.28608" lon="0.0501">
        <ele>106.8</ele>
        <time>2024-10-13T09:38:20Z</time>
      </trkpt>
      <trkpt lat="49.28606" lon="0.05007">
        <ele>107</ele>
        <time>2024-10-13T09:38:21Z</time>
      </trkpt>
      <trkpt lat="49.28603" lon="0.05004">
        <ele>107</ele>
        <time>2024-10-13T09:38:22Z</time>
      </trkpt>
      <trkpt lat="49.286" lon="0.05001">
        <ele>107.2</ele>
        <time>2024-10-13T09:38:23Z</time>
      </trkpt>
      <trkpt lat="49.28598" lon="0.04997">
        <ele>107.4</ele>
        <time>2024-10-13T09:38:24Z</time>
      </trkpt>
      <trkpt lat="49.28595" lon="0.04994">
        <ele>107.6</ele>
        <time>2024-10-13T09:38:25Z</time>
      </trkpt>
      <trkpt lat="49.28591" lon="0.04991">
        <ele>107.6</ele>
        <time>2024-10-13T09:38:26Z</time>
      </trkpt>
      <trkpt lat="49.28588" lon="0.04987">
        <ele>107.8</ele>
        <time>2024-10-13T09:38:27Z</time>
      </trkpt>
      <trkpt lat="49.28585" lon="0.04983">
        <ele>107.8</ele>
        <time>2024-10-13T09:38:28Z</time>
      </trkpt>
      <trkpt lat="49.28582" lon="0.04979">
        <ele>107.8</ele>
        <time>2024-10-13T09:38:29Z</time>
      </trkpt>
      <trkpt lat="49.28578" lon="0.04974">
        <ele>107.8</ele>
        <time>2024-10-13T09:38:30Z</time>
      </trkpt>
      <trkpt lat="49.28575" lon="0.04969">
        <ele>107.8</ele>
        <time>2024-10-13T09:38:31Z</time>
      </trkpt>
      <trkpt lat="49.28571" lon="0.04964">
        <ele>107.8</ele>
        <time>2024-10-13T09:38:32Z</time>
      </trkpt>
      <trkpt lat="49.28567" lon="0.04959">
        <ele>107.8</ele>
        <time>2024-10-13T09:38:33Z</time>
      </trkpt>
      <trkpt lat="49.28563" lon="0.04954">
        <ele>107.8</ele>
        <time>2024-10-13T09:38:34Z</time>
      </trkpt>
      <trkpt lat="49.28559" lon="0.0495">
        <ele>107.8</ele>
        <time>2024-10-13T09:38:35Z</time>
      </trkpt>
      <trkpt lat="49.28555" lon="0.04945">
        <ele>107.8</ele>
        <time>2024-10-13T09:38:36Z</time>
      </trkpt>
      <trkpt lat="49.28551" lon="0.04941">
        <ele>107.8</ele>
        <time>2024-10-13T09:38:37Z</time>
      </trkpt>
      <trkpt lat="49.28546" lon="0.04937">
        <ele>107.8</ele>
        <time>2024-10-13T09:38:38Z</time>
      </trkpt>
      <trkpt lat="49.28542" lon="0.04932">
        <ele>107.6</ele>
        <time>2024-10-13T09:38:39Z</time>
      </trkpt>
      <trkpt lat="49.28537" lon="0.04928">
        <ele>107.6</ele>
        <time>2024-10-13T09:38:40Z</time>
      </trkpt>
      <trkpt lat="49.28532" lon="0.04924">
        <ele>107.6</ele>
        <time>2024-10-13T09:38:41Z</time>
      </trkpt>
      <trkpt lat="49.28528" lon="0.0492">
        <ele>107.6</ele>
        <time>2024-10-13T09:38:42Z</time>
      </trkpt>
      <trkpt lat="49.28523" lon="0.04916">
        <ele>107.6</ele>
        <time>2024-10-13T09:38:43Z</time>
      </trkpt>
      <trkpt lat="49.28518" lon="0.04912">
        <ele>107.4</ele>
        <time>2024-10-13T09:38:44Z</time>
      </trkpt>
      <trkpt lat="49.28513" lon="0.04907">
        <ele>107.4</ele>
        <time>2024-10-13T09:38:45Z</time>
      </trkpt>
      <trkpt lat="49.28508" lon="0.04903">
        <ele>107.4</ele>
        <time>2024-10-13T09:38:46Z</time>
      </trkpt>
      <trkpt lat="49.28503" lon="0.04898">
        <ele>107.4</ele>
        <time>2024-10-13T09:38:47Z</time>
      </trkpt>
      <trkpt lat="49.28498" lon="0.04894">
        <ele>107.2</ele>
        <time>2024-10-13T09:38:48Z</time>
      </trkpt>
      <trkpt lat="49.28493" lon="0.0489">
        <ele>107.2</ele>
        <time>2024-10-13T09:38:49Z</time>
      </trkpt>
      <trkpt lat="49.28488" lon="0.04887">
        <ele>107.2</ele>
        <time>2024-10-13T09:38:50Z</time>
      </trkpt>
      <trkpt lat="49.28483" lon="0.04883">
        <ele>107.2</ele>
        <time>2024-10-13T09:38:51Z</time>
      </trkpt>
      <trkpt lat="49.28478" lon="0.04879">
        <ele>107.2</ele>
        <time>2024-10-13T09:38:52Z</time>
      </trkpt>
      <trkpt lat="49.28473" lon="0.04875">
        <ele>107</ele>
        <time>2024-10-13T09:38:53Z</time>
      </trkpt>
      <trkpt lat="49.28469" lon="0.04872">
        <ele>107</ele>
        <time>2024-10-13T09:38:54Z</time>
      </trkpt>
      <trkpt lat="49.28464" lon="0.04868">
        <ele>107</ele>
        <time>2024-10-13T09:38:55Z</time>
      </trkpt>
      <trkpt lat="49.28459" lon="0.04864">
        <ele>107</ele>
        <time>2024-10-13T09:38:56Z</time>
      </trkpt>
      <trkpt lat="49.28454" lon="0.0486">
        <ele>106.8</ele>
        <time>2024-10-13T09:38:57Z</time>
      </trkpt>
      <trkpt lat="49.28449" lon="0.04855">
        <ele>106.8</ele>
        <time>2024-10-13T09:38:58Z</time>
      </trkpt>
      <trkpt lat="49.28443" lon="0.04849">
        <ele>106.8</ele>
        <time>2024-10-13T09:38:59Z</time>
      </trkpt>
      <trkpt lat="49.28439" lon="0.04845">
        <ele>106.8</ele>
        <time>2024-10-13T09:39:00Z</time>
      </trkpt>
      <trkpt lat="49.28434" lon="0.0484">
        <ele>106.8</ele>
        <time>2024-10-13T09:39:01Z</time>
      </trkpt>
      <trkpt lat="49.28428" lon="0.04835">
        <ele>106.8</ele>
        <time>2024-10-13T09:39:02Z</time>
      </trkpt>
      <trkpt lat="49.28422" lon="0.0483">
        <ele>106.8</ele>
        <time>2024-10-13T09:39:03Z</time>
      </trkpt>
      <trkpt lat="49.28417" lon="0.04825">
        <ele>106.8</ele>
        <time>2024-10-13T09:39:04Z</time>
      </trkpt>
      <trkpt lat="49.28411" lon="0.0482">
        <ele>106.8</ele>
        <time>2024-10-13T09:39:05Z</time>
      </trkpt>
      <trkpt lat="49.28405" lon="0.04814">
        <ele>106.8</ele>
        <time>2024-10-13T09:39:06Z</time>
      </trkpt>
      <trkpt lat="49.284" lon="0.04809">
        <ele>106.6</ele>
        <time>2024-10-13T09:39:07Z</time>
      </trkpt>
      <trkpt lat="49.28395" lon="0.04803">
        <ele>106.6</ele>
        <time>2024-10-13T09:39:08Z</time>
      </trkpt>
      <trkpt lat="49.28389" lon="0.04798">
        <ele>106.6</ele>
        <time>2024-10-13T09:39:09Z</time>
      </trkpt>
      <trkpt lat="49.28384" lon="0.04792">
        <ele>106.6</ele>
        <time>2024-10-13T09:39:10Z</time>
      </trkpt>
      <trkpt lat="49.28379" lon="0.04786">
        <ele>106.6</ele>
        <time>2024-10-13T09:39:11Z</time>
      </trkpt>
      <trkpt lat="49.28374" lon="0.04781">
        <ele>106.6</ele>
        <time>2024-10-13T09:39:12Z</time>
      </trkpt>
      <trkpt lat="49.28368" lon="0.04775">
        <ele>106.6</ele>
        <time>2024-10-13T09:39:13Z</time>
      </trkpt>
      <trkpt lat="49.28363" lon="0.04769">
        <ele>106.6</ele>
        <time>2024-10-13T09:39:14Z</time>
      </trkpt>
      <trkpt lat="49.28358" lon="0.04763">
        <ele>106.6</ele>
        <time>2024-10-13T09:39:15Z</time>
      </trkpt>
      <trkpt lat="49.28353" lon="0.04756">
        <ele>106.6</ele>
        <time>2024-10-13T09:39:16Z</time>
      </trkpt>
      <trkpt lat="49.28348" lon="0.04748">
        <ele>106.6</ele>
        <time>2024-10-13T09:39:17Z</time>
      </trkpt>
      <trkpt lat="49.28343" lon="0.04741">
        <ele>106.6</ele>
        <time>2024-10-13T09:39:18Z</time>
      </trkpt>
      <trkpt lat="49.28338" lon="0.04732">
        <ele>106.8</ele>
        <time>2024-10-13T09:39:19Z</time>
      </trkpt>
      <trkpt lat="49.28332" lon="0.04724">
        <ele>106.8</ele>
        <time>2024-10-13T09:39:20Z</time>
      </trkpt>
      <trkpt lat="49.28328" lon="0.04715">
        <ele>106.8</ele>
        <time>2024-10-13T09:39:21Z</time>
      </trkpt>
      <trkpt lat="49.28323" lon="0.04706">
        <ele>106.8</ele>
        <time>2024-10-13T09:39:22Z</time>
      </trkpt>
      <trkpt lat="49.28318" lon="0.04697">
        <ele>106.8</ele>
        <time>2024-10-13T09:39:23Z</time>
      </trkpt>
      <trkpt lat="49.28313" lon="0.04688">
        <ele>106.8</ele>
        <time>2024-10-13T09:39:24Z</time>
      </trkpt>
      <trkpt lat="49.28309" lon="0.04679">
        <ele>107</ele>
        <time>2024-10-13T09:39:25Z</time>
      </trkpt>
      <trkpt lat="49.28304" lon="0.0467">
        <ele>107</ele>
        <time>2024-10-13T09:39:26Z</time>
      </trkpt>
      <trkpt lat="49.283" lon="0.04661">
        <ele>107</ele>
        <time>2024-10-13T09:39:27Z</time>
      </trkpt>
      <trkpt lat="49.28295" lon="0.04652">
        <ele>107.2</ele>
        <time>2024-10-13T09:39:28Z</time>
      </trkpt>
      <trkpt lat="49.28291" lon="0.04643">
        <ele>107.2</ele>
        <time>2024-10-13T09:39:29Z</time>
      </trkpt>
      <trkpt lat="49.28287" lon="0.04634">
        <ele>107.2</ele>
        <time>2024-10-13T09:39:30Z</time>
      </trkpt>
      <trkpt lat="49.28283" lon="0.04625">
        <ele>107.4</ele>
        <time>2024-10-13T09:39:31Z</time>
      </trkpt>
      <trkpt lat="49.28278" lon="0.04617">
        <ele>107.4</ele>
        <time>2024-10-13T09:39:32Z</time>
      </trkpt>
      <trkpt lat="49.28274" lon="0.04608">
        <ele>107.6</ele>
        <time>2024-10-13T09:39:33Z</time>
      </trkpt>
      <trkpt lat="49.2827" lon="0.04599">
        <ele>107.6</ele>
        <time>2024-10-13T09:39:34Z</time>
      </trkpt>
      <trkpt lat="49.28266" lon="0.0459">
        <ele>107.6</ele>
        <time>2024-10-13T09:39:35Z</time>
      </trkpt>
      <trkpt lat="49.28262" lon="0.04581">
        <ele>107.6</ele>
        <time>2024-10-13T09:39:36Z</time>
      </trkpt>
      <trkpt lat="49.28257" lon="0.0457">
        <ele>107.8</ele>
        <time>2024-10-13T09:39:37Z</time>
      </trkpt>
      <trkpt lat="49.28255" lon="0.04563">
        <ele>107.8</ele>
        <time>2024-10-13T09:39:38Z</time>
      </trkpt>
      <trkpt lat="49.28251" lon="0.04553">
        <ele>107.8</ele>
        <time>2024-10-13T09:39:39Z</time>
      </trkpt>
      <trkpt lat="49.28248" lon="0.04544">
        <ele>108</ele>
        <time>2024-10-13T09:39:40Z</time>
      </trkpt>
      <trkpt lat="49.28245" lon="0.04535">
        <ele>108</ele>
        <time>2024-10-13T09:39:41Z</time>
      </trkpt>
      <trkpt lat="49.28242" lon="0.04525">
        <ele>108</ele>
        <time>2024-10-13T09:39:42Z</time>
      </trkpt>
      <trkpt lat="49.28239" lon="0.04516">
        <ele>108</ele>
        <time>2024-10-13T09:39:43Z</time>
      </trkpt>
      <trkpt lat="49.28236" lon="0.04507">
        <ele>108.2</ele>
        <time>2024-10-13T09:39:44Z</time>
      </trkpt>
      <trkpt lat="49.28233" lon="0.04497">
        <ele>108.2</ele>
        <time>2024-10-13T09:39:45Z</time>
      </trkpt>
      <trkpt lat="49.2823" lon="0.04488">
        <ele>108.4</ele>
        <time>2024-10-13T09:39:46Z</time>
      </trkpt>
      <trkpt lat="49.28227" lon="0.04478">
        <ele>108.6</ele>
        <time>2024-10-13T09:39:47Z</time>
      </trkpt>
      <trkpt lat="49.28224" lon="0.04468">
        <ele>108.8</ele>
        <time>2024-10-13T09:39:48Z</time>
      </trkpt>
      <trkpt lat="49.28221" lon="0.04459">
        <ele>108.8</ele>
        <time>2024-10-13T09:39:49Z</time>
      </trkpt>
      <trkpt lat="49.28219" lon="0.0445">
        <ele>108.8</ele>
        <time>2024-10-13T09:39:50Z</time>
      </trkpt>
      <trkpt lat="49.28216" lon="0.0444">
        <ele>109</ele>
        <time>2024-10-13T09:39:51Z</time>
      </trkpt>
      <trkpt lat="49.28213" lon="0.04431">
        <ele>109.2</ele>
        <time>2024-10-13T09:39:52Z</time>
      </trkpt>
      <trkpt lat="49.28211" lon="0.04421">
        <ele>109.2</ele>
        <time>2024-10-13T09:39:53Z</time>
      </trkpt>
      <trkpt lat="49.28208" lon="0.04411">
        <ele>109.6</ele>
        <time>2024-10-13T09:39:54Z</time>
      </trkpt>
      <trkpt lat="49.28206" lon="0.04402">
        <ele>109.8</ele>
        <time>2024-10-13T09:39:55Z</time>
      </trkpt>
      <trkpt lat="49.28204" lon="0.04394">
        <ele>110</ele>
        <time>2024-10-13T09:39:56Z</time>
      </trkpt>
      <trkpt lat="49.28201" lon="0.04385">
        <ele>110.2</ele>
        <time>2024-10-13T09:39:57Z</time>
      </trkpt>
      <trkpt lat="49.28198" lon="0.04375">
        <ele>110.4</ele>
        <time>2024-10-13T09:39:58Z</time>
      </trkpt>
      <trkpt lat="49.28196" lon="0.04366">
        <ele>110.6</ele>
        <time>2024-10-13T09:39:59Z</time>
      </trkpt>
      <trkpt lat="49.28194" lon="0.04357">
        <ele>110.6</ele>
        <time>2024-10-13T09:40:00Z</time>
      </trkpt>
      <trkpt lat="49.28191" lon="0.04347">
        <ele>110.8</ele>
        <time>2024-10-13T09:40:01Z</time>
      </trkpt>
      <trkpt lat="49.28188" lon="0.04338">
        <ele>110.8</ele>
        <time>2024-10-13T09:40:02Z</time>
      </trkpt>
      <trkpt lat="49.28185" lon="0.04329">
        <ele>111</ele>
        <time>2024-10-13T09:40:03Z</time>
      </trkpt>
      <trkpt lat="49.28182" lon="0.04321">
        <ele>111</ele>
        <time>2024-10-13T09:40:04Z</time>
      </trkpt>
      <trkpt lat="49.2818" lon="0.04312">
        <ele>111.2</ele>
        <time>2024-10-13T09:40:05Z</time>
      </trkpt>
      <trkpt lat="49.28177" lon="0.04303">
        <ele>111.2</ele>
        <time>2024-10-13T09:40:06Z</time>
      </trkpt>
      <trkpt lat="49.28174" lon="0.04294">
        <ele>111.4</ele>
        <time>2024-10-13T09:40:07Z</time>
      </trkpt>
      <trkpt lat="49.28171" lon="0.04285">
        <ele>111.6</ele>
        <time>2024-10-13T09:40:08Z</time>
      </trkpt>
      <trkpt lat="49.28168" lon="0.04276">
        <ele>111.6</ele>
        <time>2024-10-13T09:40:09Z</time>
      </trkpt>
      <trkpt lat="49.28165" lon="0.04267">
        <ele>112</ele>
        <time>2024-10-13T09:40:10Z</time>
      </trkpt>
      <trkpt lat="49.28161" lon="0.04259">
        <ele>112.2</ele>
        <time>2024-10-13T09:40:11Z</time>
      </trkpt>
      <trkpt lat="49.28158" lon="0.0425">
        <ele>112.4</ele>
        <time>2024-10-13T09:40:12Z</time>
      </trkpt>
      <trkpt lat="49.28155" lon="0.04242">
        <ele>112.8</ele>
        <time>2024-10-13T09:40:13Z</time>
      </trkpt>
      <trkpt lat="49.28152" lon="0.04233">
        <ele>113</ele>
        <time>2024-10-13T09:40:14Z</time>
      </trkpt>
      <trkpt lat="49.28149" lon="0.04224">
        <ele>113.4</ele>
        <time>2024-10-13T09:40:15Z</time>
      </trkpt>
      <trkpt lat="49.28146" lon="0.04215">
        <ele>113.6</ele>
        <time>2024-10-13T09:40:16Z</time>
      </trkpt>
      <trkpt lat="49.28143" lon="0.04206">
        <ele>113.6</ele>
        <time>2024-10-13T09:40:17Z</time>
      </trkpt>
      <trkpt lat="49.2814" lon="0.04197">
        <ele>113.8</ele>
        <time>2024-10-13T09:40:18Z</time>
      </trkpt>
      <trkpt lat="49.28137" lon="0.04189">
        <ele>114</ele>
        <time>2024-10-13T09:40:19Z</time>
      </trkpt>
      <trkpt lat="49.28134" lon="0.0418">
        <ele>114</ele>
        <time>2024-10-13T09:40:20Z</time>
      </trkpt>
      <trkpt lat="49.28131" lon="0.04171">
        <ele>114</ele>
        <time>2024-10-13T09:40:21Z</time>
      </trkpt>
      <trkpt lat="49.28128" lon="0.04163">
        <ele>114</ele>
        <time>2024-10-13T09:40:22Z</time>
      </trkpt>
      <trkpt lat="49.28125" lon="0.04153">
        <ele>114.2</ele>
        <time>2024-10-13T09:40:23Z</time>
      </trkpt>
      <trkpt lat="49.28122" lon="0.04144">
        <ele>114.6</ele>
        <time>2024-10-13T09:40:24Z</time>
      </trkpt>
      <trkpt lat="49.28118" lon="0.04135">
        <ele>114.8</ele>
        <time>2024-10-13T09:40:25Z</time>
      </trkpt>
      <trkpt lat="49.28115" lon="0.04126">
        <ele>115</ele>
        <time>2024-10-13T09:40:26Z</time>
      </trkpt>
      <trkpt lat="49.28112" lon="0.04117">
        <ele>115.4</ele>
        <time>2024-10-13T09:40:27Z</time>
      </trkpt>
      <trkpt lat="49.28109" lon="0.04108">
        <ele>115.6</ele>
        <time>2024-10-13T09:40:28Z</time>
      </trkpt>
      <trkpt lat="49.28106" lon="0.04099">
        <ele>115.8</ele>
        <time>2024-10-13T09:40:29Z</time>
      </trkpt>
      <trkpt lat="49.28103" lon="0.04089">
        <ele>116</ele>
        <time>2024-10-13T09:40:30Z</time>
      </trkpt>
      <trkpt lat="49.281" lon="0.0408">
        <ele>116</ele>
        <time>2024-10-13T09:40:31Z</time>
      </trkpt>
      <trkpt lat="49.28097" lon="0.04071">
        <ele>116.2</ele>
        <time>2024-10-13T09:40:32Z</time>
      </trkpt>
      <trkpt lat="49.28094" lon="0.04062">
        <ele>116.2</ele>
        <time>2024-10-13T09:40:33Z</time>
      </trkpt>
      <trkpt lat="49.28091" lon="0.04053">
        <ele>116.2</ele>
        <time>2024-10-13T09:40:34Z</time>
      </trkpt>
      <trkpt lat="49.28089" lon="0.04043">
        <ele>116.2</ele>
        <time>2024-10-13T09:40:35Z</time>
      </trkpt>
      <trkpt lat="49.28086" lon="0.04033">
        <ele>116.2</ele>
        <time>2024-10-13T09:40:36Z</time>
      </trkpt>
      <trkpt lat="49.28083" lon="0.04023">
        <ele>116.4</ele>
        <time>2024-10-13T09:40:37Z</time>
      </trkpt>
      <trkpt lat="49.2808" lon="0.04012">
        <ele>116.4</ele>
        <time>2024-10-13T09:40:38Z</time>
      </trkpt>
      <trkpt lat="49.28077" lon="0.04002">
        <ele>116.4</ele>
        <time>2024-10-13T09:40:39Z</time>
      </trkpt>
      <trkpt lat="49.28073" lon="0.03991">
        <ele>116.4</ele>
        <time>2024-10-13T09:40:40Z</time>
      </trkpt>
      <trkpt lat="49.2807" lon="0.03981">
        <ele>116.6</ele>
        <time>2024-10-13T09:40:41Z</time>
      </trkpt>
      <trkpt lat="49.28067" lon="0.0397">
        <ele>116.6</ele>
        <time>2024-10-13T09:40:42Z</time>
      </trkpt>
      <trkpt lat="49.28063" lon="0.03959">
        <ele>116.8</ele>
        <time>2024-10-13T09:40:43Z</time>
      </trkpt>
      <trkpt lat="49.2806" lon="0.03949">
        <ele>116.8</ele>
        <time>2024-10-13T09:40:44Z</time>
      </trkpt>
      <trkpt lat="49.28057" lon="0.03938">
        <ele>117</ele>
        <time>2024-10-13T09:40:45Z</time>
      </trkpt>
      <trkpt lat="49.28054" lon="0.03927">
        <ele>117.2</ele>
        <time>2024-10-13T09:40:46Z</time>
      </trkpt>
      <trkpt lat="49.28051" lon="0.03917">
        <ele>117.2</ele>
        <time>2024-10-13T09:40:47Z</time>
      </trkpt>
      <trkpt lat="49.28048" lon="0.03906">
        <ele>117.2</ele>
        <time>2024-10-13T09:40:48Z</time>
      </trkpt>
      <trkpt lat="49.28044" lon="0.03896">
        <ele>117.4</ele>
        <time>2024-10-13T09:40:49Z</time>
      </trkpt>
      <trkpt lat="49.28041" lon="0.03885">
        <ele>117.4</ele>
        <time>2024-10-13T09:40:50Z</time>
      </trkpt>
      <trkpt lat="49.28038" lon="0.03875">
        <ele>117.4</ele>
        <time>2024-10-13T09:40:51Z</time>
      </trkpt>
      <trkpt lat="49.28035" lon="0.03864">
        <ele>117.6</ele>
        <time>2024-10-13T09:40:52Z</time>
      </trkpt>
      <trkpt lat="49.28032" lon="0.03854">
        <ele>117.6</ele>
        <time>2024-10-13T09:40:53Z</time>
      </trkpt>
      <trkpt lat="49.2803" lon="0.03844">
        <ele>117.8</ele>
        <time>2024-10-13T09:40:54Z</time>
      </trkpt>
      <trkpt lat="49.28027" lon="0.03833">
        <ele>117.8</ele>
        <time>2024-10-13T09:40:55Z</time>
      </trkpt>
      <trkpt lat="49.28025" lon="0.03822">
        <ele>118</ele>
        <time>2024-10-13T09:40:56Z</time>
      </trkpt>
      <trkpt lat="49.28022" lon="0.03811">
        <ele>118</ele>
        <time>2024-10-13T09:40:57Z</time>
      </trkpt>
      <trkpt lat="49.2802" lon="0.038">
        <ele>118</ele>
        <time>2024-10-13T09:40:58Z</time>
      </trkpt>
      <trkpt lat="49.28018" lon="0.03789">
        <ele>118.2</ele>
        <time>2024-10-13T09:40:59Z</time>
      </trkpt>
      <trkpt lat="49.28015" lon="0.03778">
        <ele>118.4</ele>
        <time>2024-10-13T09:41:00Z</time>
      </trkpt>
      <trkpt lat="49.28013" lon="0.03767">
        <ele>118.4</ele>
        <time>2024-10-13T09:41:01Z</time>
      </trkpt>
      <trkpt lat="49.28011" lon="0.03756">
        <ele>118.6</ele>
        <time>2024-10-13T09:41:02Z</time>
      </trkpt>
      <trkpt lat="49.28008" lon="0.03745">
        <ele>118.6</ele>
        <time>2024-10-13T09:41:03Z</time>
      </trkpt>
      <trkpt lat="49.28005" lon="0.03734">
        <ele>118.8</ele>
        <time>2024-10-13T09:41:04Z</time>
      </trkpt>
      <trkpt lat="49.28003" lon="0.03723">
        <ele>118.8</ele>
        <time>2024-10-13T09:41:05Z</time>
      </trkpt>
      <trkpt lat="49.28001" lon="0.03712">
        <ele>118.8</ele>
        <time>2024-10-13T09:41:06Z</time>
      </trkpt>
      <trkpt lat="49.27998" lon="0.03701">
        <ele>119</ele>
        <time>2024-10-13T09:41:07Z</time>
      </trkpt>
      <trkpt lat="49.27996" lon="0.0369">
        <ele>119</ele>
        <time>2024-10-13T09:41:08Z</time>
      </trkpt>
      <trkpt lat="49.27993" lon="0.03679">
        <ele>119</ele>
        <time>2024-10-13T09:41:09Z</time>
      </trkpt>
      <trkpt lat="49.2799" lon="0.03668">
        <ele>119.2</ele>
        <time>2024-10-13T09:41:10Z</time>
      </trkpt>
      <trkpt lat="49.27987" lon="0.03656">
        <ele>119.2</ele>
        <time>2024-10-13T09:41:11Z</time>
      </trkpt>
      <trkpt lat="49.27985" lon="0.03645">
        <ele>119.4</ele>
        <time>2024-10-13T09:41:12Z</time>
      </trkpt>
      <trkpt lat="49.27982" lon="0.03634">
        <ele>119.4</ele>
        <time>2024-10-13T09:41:13Z</time>
      </trkpt>
      <trkpt lat="49.27979" lon="0.03623">
        <ele>119.4</ele>
        <time>2024-10-13T09:41:14Z</time>
      </trkpt>
      <trkpt lat="49.27976" lon="0.03612">
        <ele>119.6</ele>
        <time>2024-10-13T09:41:15Z</time>
      </trkpt>
      <trkpt lat="49.27972" lon="0.03601">
        <ele>119.6</ele>
        <time>2024-10-13T09:41:16Z</time>
      </trkpt>
      <trkpt lat="49.27969" lon="0.0359">
        <ele>119.6</ele>
        <time>2024-10-13T09:41:17Z</time>
      </trkpt>
      <trkpt lat="49.27966" lon="0.03579">
        <ele>119.8</ele>
        <time>2024-10-13T09:41:18Z</time>
      </trkpt>
      <trkpt lat="49.27962" lon="0.03569">
        <ele>119.8</ele>
        <time>2024-10-13T09:41:19Z</time>
      </trkpt>
      <trkpt lat="49.27959" lon="0.03559">
        <ele>120</ele>
        <time>2024-10-13T09:41:20Z</time>
      </trkpt>
      <trkpt lat="49.27955" lon="0.03548">
        <ele>120</ele>
        <time>2024-10-13T09:41:21Z</time>
      </trkpt>
      <trkpt lat="49.27951" lon="0.03539">
        <ele>120</ele>
        <time>2024-10-13T09:41:22Z</time>
      </trkpt>
      <trkpt lat="49.27946" lon="0.03529">
        <ele>120</ele>
        <time>2024-10-13T09:41:23Z</time>
      </trkpt>
      <trkpt lat="49.27942" lon="0.03519">
        <ele>120.2</ele>
        <time>2024-10-13T09:41:24Z</time>
      </trkpt>
      <trkpt lat="49.27938" lon="0.03509">
        <ele>120.2</ele>
        <time>2024-10-13T09:41:25Z</time>
      </trkpt>
      <trkpt lat="49.27934" lon="0.03498">
        <ele>120.4</ele>
        <time>2024-10-13T09:41:26Z</time>
      </trkpt>
      <trkpt lat="49.2793" lon="0.03488">
        <ele>120.6</ele>
        <time>2024-10-13T09:41:27Z</time>
      </trkpt>
      <trkpt lat="49.27926" lon="0.03477">
        <ele>120.8</ele>
        <time>2024-10-13T09:41:28Z</time>
      </trkpt>
      <trkpt lat="49.27922" lon="0.03467">
        <ele>120.8</ele>
        <time>2024-10-13T09:41:29Z</time>
      </trkpt>
      <trkpt lat="49.27919" lon="0.03455">
        <ele>121</ele>
        <time>2024-10-13T09:41:30Z</time>
      </trkpt>
      <trkpt lat="49.27916" lon="0.03444">
        <ele>121.2</ele>
        <time>2024-10-13T09:41:31Z</time>
      </trkpt>
      <trkpt lat="49.27913" lon="0.03433">
        <ele>121.2</ele>
        <time>2024-10-13T09:41:32Z</time>
      </trkpt>
      <trkpt lat="49.27911" lon="0.03422">
        <ele>121.2</ele>
        <time>2024-10-13T09:41:33Z</time>
      </trkpt>
      <trkpt lat="49.27908" lon="0.03411">
        <ele>121.4</ele>
        <time>2024-10-13T09:41:34Z</time>
      </trkpt>
      <trkpt lat="49.27906" lon="0.03401">
        <ele>121.4</ele>
        <time>2024-10-13T09:41:35Z</time>
      </trkpt>
      <trkpt lat="49.27904" lon="0.03391">
        <ele>121.4</ele>
        <time>2024-10-13T09:41:36Z</time>
      </trkpt>
      <trkpt lat="49.27903" lon="0.03381">
        <ele>121.6</ele>
        <time>2024-10-13T09:41:37Z</time>
      </trkpt>
      <trkpt lat="49.27901" lon="0.0337">
        <ele>121.8</ele>
        <time>2024-10-13T09:41:38Z</time>
      </trkpt>
      <trkpt lat="49.27898" lon="0.03359">
        <ele>122</ele>
        <time>2024-10-13T09:41:39Z</time>
      </trkpt>
      <trkpt lat="49.27896" lon="0.03348">
        <ele>122</ele>
        <time>2024-10-13T09:41:40Z</time>
      </trkpt>
      <trkpt lat="49.27894" lon="0.03337">
        <ele>122</ele>
        <time>2024-10-13T09:41:41Z</time>
      </trkpt>
      <trkpt lat="49.27891" lon="0.03325">
        <ele>122.2</ele>
        <time>2024-10-13T09:41:42Z</time>
      </trkpt>
      <trkpt lat="49.27888" lon="0.03314">
        <ele>122.4</ele>
        <time>2024-10-13T09:41:43Z</time>
      </trkpt>
      <trkpt lat="49.27886" lon="0.03304">
        <ele>122.4</ele>
        <time>2024-10-13T09:41:44Z</time>
      </trkpt>
      <trkpt lat="49.27884" lon="0.03293">
        <ele>122.6</ele>
        <time>2024-10-13T09:41:45Z</time>
      </trkpt>
      <trkpt lat="49.27881" lon="0.03282">
        <ele>122.8</ele>
        <time>2024-10-13T09:41:46Z</time>
      </trkpt>
      <trkpt lat="49.27878" lon="0.03271">
        <ele>122.8</ele>
        <time>2024-10-13T09:41:47Z</time>
      </trkpt>
      <trkpt lat="49.27875" lon="0.03259">
        <ele>123</ele>
        <time>2024-10-13T09:41:48Z</time>
      </trkpt>
      <trkpt lat="49.27873" lon="0.03247">
        <ele>123</ele>
        <time>2024-10-13T09:41:49Z</time>
      </trkpt>
      <trkpt lat="49.27869" lon="0.03235">
        <ele>123</ele>
        <time>2024-10-13T09:41:50Z</time>
      </trkpt>
      <trkpt lat="49.27866" lon="0.03224">
        <ele>123</ele>
        <time>2024-10-13T09:41:51Z</time>
      </trkpt>
      <trkpt lat="49.27863" lon="0.03213">
        <ele>123</ele>
        <time>2024-10-13T09:41:52Z</time>
      </trkpt>
      <trkpt lat="49.27858" lon="0.03203">
        <ele>123.2</ele>
        <time>2024-10-13T09:41:53Z</time>
      </trkpt>
      <trkpt lat="49.27854" lon="0.03193">
        <ele>123.2</ele>
        <time>2024-10-13T09:41:54Z</time>
      </trkpt>
      <trkpt lat="49.2785" lon="0.03183">
        <ele>123.2</ele>
        <time>2024-10-13T09:41:55Z</time>
      </trkpt>
      <trkpt lat="49.27846" lon="0.03173">
        <ele>123.2</ele>
        <time>2024-10-13T09:41:56Z</time>
      </trkpt>
      <trkpt lat="49.27841" lon="0.03163">
        <ele>123.2</ele>
        <time>2024-10-13T09:41:57Z</time>
      </trkpt>
      <trkpt lat="49.27836" lon="0.03153">
        <ele>123.2</ele>
        <time>2024-10-13T09:41:58Z</time>
      </trkpt>
      <trkpt lat="49.27831" lon="0.03143">
        <ele>123.4</ele>
        <time>2024-10-13T09:41:59Z</time>
      </trkpt>
      <trkpt lat="49.27826" lon="0.03133">
        <ele>123.4</ele>
        <time>2024-10-13T09:42:00Z</time>
      </trkpt>
      <trkpt lat="49.2782" lon="0.03124">
        <ele>123.4</ele>
        <time>2024-10-13T09:42:01Z</time>
      </trkpt>
      <trkpt lat="49.27814" lon="0.03114">
        <ele>123.6</ele>
        <time>2024-10-13T09:42:02Z</time>
      </trkpt>
      <trkpt lat="49.27809" lon="0.03104">
        <ele>123.8</ele>
        <time>2024-10-13T09:42:03Z</time>
      </trkpt>
      <trkpt lat="49.27803" lon="0.03095">
        <ele>123.8</ele>
        <time>2024-10-13T09:42:04Z</time>
      </trkpt>
      <trkpt lat="49.27798" lon="0.03085">
        <ele>123.8</ele>
        <time>2024-10-13T09:42:05Z</time>
      </trkpt>
      <trkpt lat="49.27792" lon="0.03075">
        <ele>124</ele>
        <time>2024-10-13T09:42:06Z</time>
      </trkpt>
      <trkpt lat="49.27786" lon="0.03065">
        <ele>124.2</ele>
        <time>2024-10-13T09:42:07Z</time>
      </trkpt>
      <trkpt lat="49.2778" lon="0.03055">
        <ele>124.4</ele>
        <time>2024-10-13T09:42:08Z</time>
      </trkpt>
      <trkpt lat="49.27774" lon="0.03045">
        <ele>124.6</ele>
        <time>2024-10-13T09:42:09Z</time>
      </trkpt>
      <trkpt lat="49.27768" lon="0.03035">
        <ele>124.6</ele>
        <time>2024-10-13T09:42:10Z</time>
      </trkpt>
      <trkpt lat="49.27762" lon="0.03026">
        <ele>124.8</ele>
        <time>2024-10-13T09:42:11Z</time>
      </trkpt>
      <trkpt lat="49.27756" lon="0.03016">
        <ele>125</ele>
        <time>2024-10-13T09:42:12Z</time>
      </trkpt>
      <trkpt lat="49.27749" lon="0.03007">
        <ele>125.2</ele>
        <time>2024-10-13T09:42:13Z</time>
      </trkpt>
      <trkpt lat="49.27743" lon="0.02997">
        <ele>125.4</ele>
        <time>2024-10-13T09:42:14Z</time>
      </trkpt>
      <trkpt lat="49.27736" lon="0.02988">
        <ele>125.6</ele>
        <time>2024-10-13T09:42:15Z</time>
      </trkpt>
      <trkpt lat="49.27729" lon="0.02979">
        <ele>125.8</ele>
        <time>2024-10-13T09:42:16Z</time>
      </trkpt>
      <trkpt lat="49.27722" lon="0.0297">
        <ele>125.8</ele>
        <time>2024-10-13T09:42:17Z</time>
      </trkpt>
      <trkpt lat="49.27715" lon="0.02962">
        <ele>125.8</ele>
        <time>2024-10-13T09:42:18Z</time>
      </trkpt>
      <trkpt lat="49.27707" lon="0.02953">
        <ele>125.8</ele>
        <time>2024-10-13T09:42:19Z</time>
      </trkpt>
      <trkpt lat="49.277" lon="0.02945">
        <ele>126</ele>
        <time>2024-10-13T09:42:20Z</time>
      </trkpt>
      <trkpt lat="49.27692" lon="0.02937">
        <ele>126</ele>
        <time>2024-10-13T09:42:21Z</time>
      </trkpt>
      <trkpt lat="49.27685" lon="0.02928">
        <ele>126</ele>
        <time>2024-10-13T09:42:22Z</time>
      </trkpt>
      <trkpt lat="49.27677" lon="0.0292">
        <ele>126</ele>
        <time>2024-10-13T09:42:23Z</time>
      </trkpt>
      <trkpt lat="49.2767" lon="0.02912">
        <ele>126</ele>
        <time>2024-10-13T09:42:24Z</time>
      </trkpt>
      <trkpt lat="49.27662" lon="0.02903">
        <ele>126</ele>
        <time>2024-10-13T09:42:25Z</time>
      </trkpt>
      <trkpt lat="49.27655" lon="0.02895">
        <ele>126</ele>
        <time>2024-10-13T09:42:26Z</time>
      </trkpt>
      <trkpt lat="49.27648" lon="0.02887">
        <ele>126</ele>
        <time>2024-10-13T09:42:27Z</time>
      </trkpt>
      <trkpt lat="49.2764" lon="0.02879">
        <ele>126</ele>
        <time>2024-10-13T09:42:28Z</time>
      </trkpt>
      <trkpt lat="49.27633" lon="0.02872">
        <ele>126</ele>
        <time>2024-10-13T09:42:29Z</time>
      </trkpt>
      <trkpt lat="49.27625" lon="0.02864">
        <ele>126.2</ele>
        <time>2024-10-13T09:42:30Z</time>
      </trkpt>
      <trkpt lat="49.27618" lon="0.02857">
        <ele>126.2</ele>
        <time>2024-10-13T09:42:31Z</time>
      </trkpt>
      <trkpt lat="49.27611" lon="0.02849">
        <ele>126.2</ele>
        <time>2024-10-13T09:42:32Z</time>
      </trkpt>
      <trkpt lat="49.27604" lon="0.02841">
        <ele>126.2</ele>
        <time>2024-10-13T09:42:33Z</time>
      </trkpt>
      <trkpt lat="49.27597" lon="0.02833">
        <ele>126.2</ele>
        <time>2024-10-13T09:42:34Z</time>
      </trkpt>
      <trkpt lat="49.2759" lon="0.02826">
        <ele>126.2</ele>
        <time>2024-10-13T09:42:35Z</time>
      </trkpt>
      <trkpt lat="49.27584" lon="0.02818">
        <ele>126.2</ele>
        <time>2024-10-13T09:42:36Z</time>
      </trkpt>
      <trkpt lat="49.27577" lon="0.02811">
        <ele>126.2</ele>
        <time>2024-10-13T09:42:37Z</time>
      </trkpt>
      <trkpt lat="49.2757" lon="0.02803">
        <ele>126.2</ele>
        <time>2024-10-13T09:42:38Z</time>
      </trkpt>
      <trkpt lat="49.27564" lon="0.02795">
        <ele>126.2</ele>
        <time>2024-10-13T09:42:39Z</time>
      </trkpt>
      <trkpt lat="49.27558" lon="0.02787">
        <ele>126.2</ele>
        <time>2024-10-13T09:42:40Z</time>
      </trkpt>
      <trkpt lat="49.27551" lon="0.02779">
        <ele>126.4</ele>
        <time>2024-10-13T09:42:41Z</time>
      </trkpt>
      <trkpt lat="49.27545" lon="0.02771">
        <ele>126.4</ele>
        <time>2024-10-13T09:42:42Z</time>
      </trkpt>
      <trkpt lat="49.2754" lon="0.02763">
        <ele>126.4</ele>
        <time>2024-10-13T09:42:43Z</time>
      </trkpt>
      <trkpt lat="49.27534" lon="0.02755">
        <ele>126.4</ele>
        <time>2024-10-13T09:42:44Z</time>
      </trkpt>
      <trkpt lat="49.27528" lon="0.02746">
        <ele>126.6</ele>
        <time>2024-10-13T09:42:45Z</time>
      </trkpt>
      <trkpt lat="49.27522" lon="0.02738">
        <ele>126.6</ele>
        <time>2024-10-13T09:42:46Z</time>
      </trkpt>
      <trkpt lat="49.27517" lon="0.0273">
        <ele>126.6</ele>
        <time>2024-10-13T09:42:47Z</time>
      </trkpt>
      <trkpt lat="49.27511" lon="0.02722">
        <ele>126.8</ele>
        <time>2024-10-13T09:42:48Z</time>
      </trkpt>
      <trkpt lat="49.27506" lon="0.02713">
        <ele>126.8</ele>
        <time>2024-10-13T09:42:49Z</time>
      </trkpt>
      <trkpt lat="49.275" lon="0.02704">
        <ele>127</ele>
        <time>2024-10-13T09:42:50Z</time>
      </trkpt>
      <trkpt lat="49.27495" lon="0.02695">
        <ele>127</ele>
        <time>2024-10-13T09:42:51Z</time>
      </trkpt>
      <trkpt lat="49.27489" lon="0.02686">
        <ele>127</ele>
        <time>2024-10-13T09:42:52Z</time>
      </trkpt>
      <trkpt lat="49.27483" lon="0.02677">
        <ele>127.2</ele>
        <time>2024-10-13T09:42:53Z</time>
      </trkpt>
      <trkpt lat="49.27478" lon="0.02668">
        <ele>127.4</ele>
        <time>2024-10-13T09:42:54Z</time>
      </trkpt>
      <trkpt lat="49.27472" lon="0.02659">
        <ele>127.6</ele>
        <time>2024-10-13T09:42:55Z</time>
      </trkpt>
      <trkpt lat="49.27467" lon="0.02649">
        <ele>127.8</ele>
        <time>2024-10-13T09:42:56Z</time>
      </trkpt>
      <trkpt lat="49.27462" lon="0.0264">
        <ele>128.2</ele>
        <time>2024-10-13T09:42:57Z</time>
      </trkpt>
      <trkpt lat="49.27456" lon="0.0263">
        <ele>128.2</ele>
        <time>2024-10-13T09:42:58Z</time>
      </trkpt>
      <trkpt lat="49.27451" lon="0.0262">
        <ele>128.4</ele>
        <time>2024-10-13T09:42:59Z</time>
      </trkpt>
      <trkpt lat="49.27446" lon="0.0261">
        <ele>128.6</ele>
        <time>2024-10-13T09:43:00Z</time>
      </trkpt>
      <trkpt lat="49.27442" lon="0.02601">
        <ele>129</ele>
        <time>2024-10-13T09:43:01Z</time>
      </trkpt>
      <trkpt lat="49.27437" lon="0.02591">
        <ele>129.2</ele>
        <time>2024-10-13T09:43:02Z</time>
      </trkpt>
      <trkpt lat="49.27432" lon="0.02581">
        <ele>129.2</ele>
        <time>2024-10-13T09:43:03Z</time>
      </trkpt>
      <trkpt lat="49.27427" lon="0.02572">
        <ele>129.4</ele>
        <time>2024-10-13T09:43:04Z</time>
      </trkpt>
      <trkpt lat="49.27422" lon="0.02562">
        <ele>129.6</ele>
        <time>2024-10-13T09:43:05Z</time>
      </trkpt>
      <trkpt lat="49.27418" lon="0.02553">
        <ele>130</ele>
        <time>2024-10-13T09:43:06Z</time>
      </trkpt>
      <trkpt lat="49.27413" lon="0.02543">
        <ele>130.2</ele>
        <time>2024-10-13T09:43:07Z</time>
      </trkpt>
      <trkpt lat="49.27408" lon="0.02534">
        <ele>130.8</ele>
        <time>2024-10-13T09:43:08Z</time>
      </trkpt>
      <trkpt lat="49.27403" lon="0.02525">
        <ele>131</ele>
        <time>2024-10-13T09:43:09Z</time>
      </trkpt>
      <trkpt lat="49.27398" lon="0.02516">
        <ele>131.4</ele>
        <time>2024-10-13T09:43:10Z</time>
      </trkpt>
      <trkpt lat="49.27393" lon="0.02508">
        <ele>131.6</ele>
        <time>2024-10-13T09:43:11Z</time>
      </trkpt>
      <trkpt lat="49.27388" lon="0.025">
        <ele>131.8</ele>
        <time>2024-10-13T09:43:12Z</time>
      </trkpt>
      <trkpt lat="49.27383" lon="0.02492">
        <ele>131.8</ele>
        <time>2024-10-13T09:43:13Z</time>
      </trkpt>
      <trkpt lat="49.27378" lon="0.02485">
        <ele>132</ele>
        <time>2024-10-13T09:43:14Z</time>
      </trkpt>
      <trkpt lat="49.27372" lon="0.02478">
        <ele>132</ele>
        <time>2024-10-13T09:43:15Z</time>
      </trkpt>
      <trkpt lat="49.27367" lon="0.02471">
        <ele>132</ele>
        <time>2024-10-13T09:43:16Z</time>
      </trkpt>
      <trkpt lat="49.27361" lon="0.02465">
        <ele>132</ele>
        <time>2024-10-13T09:43:17Z</time>
      </trkpt>
      <trkpt lat="49.27355" lon="0.02459">
        <ele>132</ele>
        <time>2024-10-13T09:43:18Z</time>
      </trkpt>
      <trkpt lat="49.27349" lon="0.02454">
        <ele>132</ele>
        <time>2024-10-13T09:43:19Z</time>
      </trkpt>
      <trkpt lat="49.27342" lon="0.02449">
        <ele>132</ele>
        <time>2024-10-13T09:43:20Z</time>
      </trkpt>
      <trkpt lat="49.27337" lon="0.02445">
        <ele>132</ele>
        <time>2024-10-13T09:43:21Z</time>
      </trkpt>
      <trkpt lat="49.27332" lon="0.02441">
        <ele>132</ele>
        <time>2024-10-13T09:43:22Z</time>
      </trkpt>
      <trkpt lat="49.27327" lon="0.02437">
        <ele>132</ele>
        <time>2024-10-13T09:43:23Z</time>
      </trkpt>
      <trkpt lat="49.27324" lon="0.02432">
        <ele>132</ele>
        <time>2024-10-13T09:43:24Z</time>
      </trkpt>
      <trkpt lat="49.27321" lon="0.02428">
        <ele>132</ele>
        <time>2024-10-13T09:43:25Z</time>
      </trkpt>
      <trkpt lat="49.27318" lon="0.02423">
        <ele>131.8</ele>
        <time>2024-10-13T09:43:26Z</time>
      </trkpt>
      <trkpt lat="49.27317" lon="0.02418">
        <ele>131.8</ele>
        <time>2024-10-13T09:43:27Z</time>
      </trkpt>
      <trkpt lat="49.27316" lon="0.02412">
        <ele>131.4</ele>
        <time>2024-10-13T09:43:28Z</time>
      </trkpt>
      <trkpt lat="49.27317" lon="0.02407">
        <ele>131.2</ele>
        <time>2024-10-13T09:43:29Z</time>
      </trkpt>
      <trkpt lat="49.27319" lon="0.02402">
        <ele>131.2</ele>
        <time>2024-10-13T09:43:30Z</time>
      </trkpt>
      <trkpt lat="49.27321" lon="0.02396">
        <ele>131</ele>
        <time>2024-10-13T09:43:31Z</time>
      </trkpt>
      <trkpt lat="49.27324" lon="0.02392">
        <ele>131</ele>
        <time>2024-10-13T09:43:32Z</time>
      </trkpt>
      <trkpt lat="49.27326" lon="0.02386">
        <ele>131</ele>
        <time>2024-10-13T09:43:33Z</time>
      </trkpt>
      <trkpt lat="49.27328" lon="0.02381">
        <ele>131</ele>
        <time>2024-10-13T09:43:34Z</time>
      </trkpt>
      <trkpt lat="49.2733" lon="0.02376">
        <ele>131</ele>
        <time>2024-10-13T09:43:35Z</time>
      </trkpt>
      <trkpt lat="49.27332" lon="0.02372">
        <ele>131</ele>
        <time>2024-10-13T09:43:36Z</time>
      </trkpt>
      <trkpt lat="49.27334" lon="0.02368">
        <ele>131</ele>
        <time>2024-10-13T09:43:37Z</time>
      </trkpt>
      <trkpt lat="49.27335" lon="0.02365">
        <ele>131</ele>
        <time>2024-10-13T09:43:38Z</time>
      </trkpt>
      <trkpt lat="49.27337" lon="0.02362">
        <ele>131</ele>
        <time>2024-10-13T09:43:39Z</time>
      </trkpt>
      <trkpt lat="49.27339" lon="0.02359">
        <ele>131</ele>
        <time>2024-10-13T09:43:40Z</time>
      </trkpt>
      <trkpt lat="49.2734" lon="0.02356">
        <ele>131</ele>
        <time>2024-10-13T09:43:41Z</time>
      </trkpt>
      <trkpt lat="49.27342" lon="0.02353">
        <ele>131</ele>
        <time>2024-10-13T09:43:42Z</time>
      </trkpt>
      <trkpt lat="49.27343" lon="0.02351">
        <ele>131</ele>
        <time>2024-10-13T09:43:43Z</time>
      </trkpt>
      <trkpt lat="49.27344" lon="0.02348">
        <ele>131</ele>
        <time>2024-10-13T09:43:44Z</time>
      </trkpt>
      <trkpt lat="49.27346" lon="0.02345">
        <ele>131</ele>
        <time>2024-10-13T09:43:45Z</time>
      </trkpt>
      <trkpt lat="49.27347" lon="0.02343">
        <ele>131</ele>
        <time>2024-10-13T09:43:46Z</time>
      </trkpt>
      <trkpt lat="49.27348" lon="0.02339">
        <ele>131</ele>
        <time>2024-10-13T09:43:47Z</time>
      </trkpt>
      <trkpt lat="49.27348" lon="0.02336">
        <ele>131</ele>
        <time>2024-10-13T09:43:48Z</time>
      </trkpt>
      <trkpt lat="49.27349" lon="0.02333">
        <ele>131.2</ele>
        <time>2024-10-13T09:43:49Z</time>
      </trkpt>
      <trkpt lat="49.27351" lon="0.0233">
        <ele>131.2</ele>
        <time>2024-10-13T09:43:50Z</time>
      </trkpt>
      <trkpt lat="49.27352" lon="0.02326">
        <ele>131.2</ele>
        <time>2024-10-13T09:43:51Z</time>
      </trkpt>
      <trkpt lat="49.27354" lon="0.02323">
        <ele>131.2</ele>
        <time>2024-10-13T09:43:52Z</time>
      </trkpt>
      <trkpt lat="49.27355" lon="0.02319">
        <ele>131.2</ele>
        <time>2024-10-13T09:43:53Z</time>
      </trkpt>
      <trkpt lat="49.27356" lon="0.02315">
        <ele>131.2</ele>
        <time>2024-10-13T09:43:54Z</time>
      </trkpt>
      <trkpt lat="49.27358" lon="0.0231">
        <ele>131.2</ele>
        <time>2024-10-13T09:43:55Z</time>
      </trkpt>
      <trkpt lat="49.27359" lon="0.02306">
        <ele>131.2</ele>
        <time>2024-10-13T09:43:56Z</time>
      </trkpt>
      <trkpt lat="49.27361" lon="0.02301">
        <ele>131.2</ele>
        <time>2024-10-13T09:43:57Z</time>
      </trkpt>
      <trkpt lat="49.27363" lon="0.02296">
        <ele>131</ele>
        <time>2024-10-13T09:43:58Z</time>
      </trkpt>
      <trkpt lat="49.27365" lon="0.02291">
        <ele>131</ele>
        <time>2024-10-13T09:43:59Z</time>
      </trkpt>
      <trkpt lat="49.27367" lon="0.02286">
        <ele>131</ele>
        <time>2024-10-13T09:44:00Z</time>
      </trkpt>
      <trkpt lat="49.27368" lon="0.02281">
        <ele>131</ele>
        <time>2024-10-13T09:44:01Z</time>
      </trkpt>
      <trkpt lat="49.2737" lon="0.02276">
        <ele>131</ele>
        <time>2024-10-13T09:44:02Z</time>
      </trkpt>
      <trkpt lat="49.27372" lon="0.02271">
        <ele>131</ele>
        <time>2024-10-13T09:44:03Z</time>
      </trkpt>
      <trkpt lat="49.27374" lon="0.02267">
        <ele>131</ele>
        <time>2024-10-13T09:44:04Z</time>
      </trkpt>
      <trkpt lat="49.27376" lon="0.02262">
        <ele>131</ele>
        <time>2024-10-13T09:44:05Z</time>
      </trkpt>
      <trkpt lat="49.27378" lon="0.02256">
        <ele>131</ele>
        <time>2024-10-13T09:44:06Z</time>
      </trkpt>
      <trkpt lat="49.2738" lon="0.02251">
        <ele>131</ele>
        <time>2024-10-13T09:44:07Z</time>
      </trkpt>
      <trkpt lat="49.27382" lon="0.02246">
        <ele>131</ele>
        <time>2024-10-13T09:44:08Z</time>
      </trkpt>
      <trkpt lat="49.27384" lon="0.0224">
        <ele>131</ele>
        <time>2024-10-13T09:44:09Z</time>
      </trkpt>
      <trkpt lat="49.27387" lon="0.02235">
        <ele>131</ele>
        <time>2024-10-13T09:44:10Z</time>
      </trkpt>
      <trkpt lat="49.2739" lon="0.02229">
        <ele>131</ele>
        <time>2024-10-13T09:44:11Z</time>
      </trkpt>
      <trkpt lat="49.27392" lon="0.02223">
        <ele>131.2</ele>
        <time>2024-10-13T09:44:12Z</time>
      </trkpt>
      <trkpt lat="49.27395" lon="0.02216">
        <ele>131.2</ele>
        <time>2024-10-13T09:44:13Z</time>
      </trkpt>
      <trkpt lat="49.27398" lon="0.02209">
        <ele>131.2</ele>
        <time>2024-10-13T09:44:14Z</time>
      </trkpt>
      <trkpt lat="49.27401" lon="0.02202">
        <ele>131.2</ele>
        <time>2024-10-13T09:44:15Z</time>
      </trkpt>
      <trkpt lat="49.27404" lon="0.02195">
        <ele>131.2</ele>
        <time>2024-10-13T09:44:16Z</time>
      </trkpt>
      <trkpt lat="49.27406" lon="0.02187">
        <ele>131.2</ele>
        <time>2024-10-13T09:44:17Z</time>
      </trkpt>
      <trkpt lat="49.27409" lon="0.0218">
        <ele>131.2</ele>
        <time>2024-10-13T09:44:18Z</time>
      </trkpt>
      <trkpt lat="49.27412" lon="0.02173">
        <ele>131.2</ele>
        <time>2024-10-13T09:44:19Z</time>
      </trkpt>
      <trkpt lat="49.27416" lon="0.02166">
        <ele>131.2</ele>
        <time>2024-10-13T09:44:20Z</time>
      </trkpt>
      <trkpt lat="49.27419" lon="0.02159">
        <ele>131.2</ele>
        <time>2024-10-13T09:44:21Z</time>
      </trkpt>
      <trkpt lat="49.27421" lon="0.02151">
        <ele>131.2</ele>
        <time>2024-10-13T09:44:22Z</time>
      </trkpt>
      <trkpt lat="49.27424" lon="0.02144">
        <ele>131.2</ele>
        <time>2024-10-13T09:44:23Z</time>
      </trkpt>
      <trkpt lat="49.27427" lon="0.02136">
        <ele>131.2</ele>
        <time>2024-10-13T09:44:24Z</time>
      </trkpt>
      <trkpt lat="49.2743" lon="0.02129">
        <ele>131.2</ele>
        <time>2024-10-13T09:44:25Z</time>
      </trkpt>
      <trkpt lat="49.27433" lon="0.02121">
        <ele>131.2</ele>
        <time>2024-10-13T09:44:26Z</time>
      </trkpt>
      <trkpt lat="49.27436" lon="0.02113">
        <ele>131.2</ele>
        <time>2024-10-13T09:44:27Z</time>
      </trkpt>
      <trkpt lat="49.27438" lon="0.02105">
        <ele>131.2</ele>
        <time>2024-10-13T09:44:28Z</time>
      </trkpt>
      <trkpt lat="49.27441" lon="0.02098">
        <ele>131.2</ele>
        <time>2024-10-13T09:44:29Z</time>
      </trkpt>
      <trkpt lat="49.27443" lon="0.02091">
        <ele>131.2</ele>
        <time>2024-10-13T09:44:30Z</time>
      </trkpt>
      <trkpt lat="49.27446" lon="0.02084">
        <ele>131.2</ele>
        <time>2024-10-13T09:44:31Z</time>
      </trkpt>
      <trkpt lat="49.27449" lon="0.02078">
        <ele>131.2</ele>
        <time>2024-10-13T09:44:32Z</time>
      </trkpt>
      <trkpt lat="49.27451" lon="0.02071">
        <ele>131.2</ele>
        <time>2024-10-13T09:44:33Z</time>
      </trkpt>
      <trkpt lat="49.27454" lon="0.02065">
        <ele>131.2</ele>
        <time>2024-10-13T09:44:34Z</time>
      </trkpt>
      <trkpt lat="49.27456" lon="0.02059">
        <ele>131.2</ele>
        <time>2024-10-13T09:44:35Z</time>
      </trkpt>
      <trkpt lat="49.27458" lon="0.02053">
        <ele>131.2</ele>
        <time>2024-10-13T09:44:36Z</time>
      </trkpt>
      <trkpt lat="49.2746" lon="0.02047">
        <ele>131.2</ele>
        <time>2024-10-13T09:44:37Z</time>
      </trkpt>
      <trkpt lat="49.27463" lon="0.02041">
        <ele>131.2</ele>
        <time>2024-10-13T09:44:38Z</time>
      </trkpt>
      <trkpt lat="49.27465" lon="0.02035">
        <ele>131.2</ele>
        <time>2024-10-13T09:44:39Z</time>
      </trkpt>
      <trkpt lat="49.27467" lon="0.0203">
        <ele>131.2</ele>
        <time>2024-10-13T09:44:40Z</time>
      </trkpt>
      <trkpt lat="49.27469" lon="0.02024">
        <ele>131.4</ele>
        <time>2024-10-13T09:44:41Z</time>
      </trkpt>
      <trkpt lat="49.27471" lon="0.02018">
        <ele>131.4</ele>
        <time>2024-10-13T09:44:42Z</time>
      </trkpt>
      <trkpt lat="49.27473" lon="0.02011">
        <ele>131.4</ele>
        <time>2024-10-13T09:44:43Z</time>
      </trkpt>
      <trkpt lat="49.27475" lon="0.02005">
        <ele>131.4</ele>
        <time>2024-10-13T09:44:44Z</time>
      </trkpt>
      <trkpt lat="49.27477" lon="0.01999">
        <ele>131.4</ele>
        <time>2024-10-13T09:44:45Z</time>
      </trkpt>
      <trkpt lat="49.27479" lon="0.01992">
        <ele>131.6</ele>
        <time>2024-10-13T09:44:46Z</time>
      </trkpt>
      <trkpt lat="49.27481" lon="0.01985">
        <ele>131.6</ele>
        <time>2024-10-13T09:44:47Z</time>
      </trkpt>
      <trkpt lat="49.27483" lon="0.01979">
        <ele>131.6</ele>
        <time>2024-10-13T09:44:48Z</time>
      </trkpt>
      <trkpt lat="49.27485" lon="0.01972">
        <ele>131.6</ele>
        <time>2024-10-13T09:44:49Z</time>
      </trkpt>
      <trkpt lat="49.27488" lon="0.01965">
        <ele>131.6</ele>
        <time>2024-10-13T09:44:50Z</time>
      </trkpt>
      <trkpt lat="49.2749" lon="0.01958">
        <ele>131.6</ele>
        <time>2024-10-13T09:44:51Z</time>
      </trkpt>
      <trkpt lat="49.27492" lon="0.0195">
        <ele>131.6</ele>
        <time>2024-10-13T09:44:52Z</time>
      </trkpt>
      <trkpt lat="49.27494" lon="0.01943">
        <ele>131.6</ele>
        <time>2024-10-13T09:44:53Z</time>
      </trkpt>
      <trkpt lat="49.27497" lon="0.01935">
        <ele>131.6</ele>
        <time>2024-10-13T09:44:54Z</time>
      </trkpt>
      <trkpt lat="49.27499" lon="0.01928">
        <ele>131.6</ele>
        <time>2024-10-13T09:44:55Z</time>
      </trkpt>
      <trkpt lat="49.27501" lon="0.0192">
        <ele>131.6</ele>
        <time>2024-10-13T09:44:56Z</time>
      </trkpt>
      <trkpt lat="49.27503" lon="0.01911">
        <ele>131.6</ele>
        <time>2024-10-13T09:44:57Z</time>
      </trkpt>
      <trkpt lat="49.27505" lon="0.01903">
        <ele>131.6</ele>
        <time>2024-10-13T09:44:58Z</time>
      </trkpt>
      <trkpt lat="49.27508" lon="0.01894">
        <ele>131.6</ele>
        <time>2024-10-13T09:44:59Z</time>
      </trkpt>
      <trkpt lat="49.27511" lon="0.01884">
        <ele>131.6</ele>
        <time>2024-10-13T09:45:00Z</time>
      </trkpt>
      <trkpt lat="49.27514" lon="0.01875">
        <ele>131.4</ele>
        <time>2024-10-13T09:45:01Z</time>
      </trkpt>
      <trkpt lat="49.27517" lon="0.01866">
        <ele>131.4</ele>
        <time>2024-10-13T09:45:02Z</time>
      </trkpt>
      <trkpt lat="49.2752" lon="0.01856">
        <ele>131.2</ele>
        <time>2024-10-13T09:45:03Z</time>
      </trkpt>
      <trkpt lat="49.27523" lon="0.01846">
        <ele>131.2</ele>
        <time>2024-10-13T09:45:04Z</time>
      </trkpt>
      <trkpt lat="49.27526" lon="0.01835">
        <ele>131.2</ele>
        <time>2024-10-13T09:45:05Z</time>
      </trkpt>
      <trkpt lat="49.27529" lon="0.01825">
        <ele>131</ele>
        <time>2024-10-13T09:45:06Z</time>
      </trkpt>
      <trkpt lat="49.27532" lon="0.01814">
        <ele>131</ele>
        <time>2024-10-13T09:45:07Z</time>
      </trkpt>
      <trkpt lat="49.27535" lon="0.01804">
        <ele>131</ele>
        <time>2024-10-13T09:45:08Z</time>
      </trkpt>
      <trkpt lat="49.27538" lon="0.01793">
        <ele>130.8</ele>
        <time>2024-10-13T09:45:09Z</time>
      </trkpt>
      <trkpt lat="49.27542" lon="0.01782">
        <ele>131</ele>
        <time>2024-10-13T09:45:10Z</time>
      </trkpt>
      <trkpt lat="49.27545" lon="0.01771">
        <ele>130.8</ele>
        <time>2024-10-13T09:45:11Z</time>
      </trkpt>
      <trkpt lat="49.27548" lon="0.0176">
        <ele>130.6</ele>
        <time>2024-10-13T09:45:12Z</time>
      </trkpt>
      <trkpt lat="49.27551" lon="0.01749">
        <ele>130.6</ele>
        <time>2024-10-13T09:45:13Z</time>
      </trkpt>
      <trkpt lat="49.27555" lon="0.01737">
        <ele>130.4</ele>
        <time>2024-10-13T09:45:14Z</time>
      </trkpt>
      <trkpt lat="49.27558" lon="0.01726">
        <ele>130.4</ele>
        <time>2024-10-13T09:45:15Z</time>
      </trkpt>
      <trkpt lat="49.27561" lon="0.01715">
        <ele>130.4</ele>
        <time>2024-10-13T09:45:16Z</time>
      </trkpt>
      <trkpt lat="49.27564" lon="0.01704">
        <ele>130.4</ele>
        <time>2024-10-13T09:45:17Z</time>
      </trkpt>
      <trkpt lat="49.27567" lon="0.01693">
        <ele>130.4</ele>
        <time>2024-10-13T09:45:18Z</time>
      </trkpt>
      <trkpt lat="49.27571" lon="0.01682">
        <ele>130.2</ele>
        <time>2024-10-13T09:45:19Z</time>
      </trkpt>
      <trkpt lat="49.27574" lon="0.0167">
        <ele>130.2</ele>
        <time>2024-10-13T09:45:20Z</time>
      </trkpt>
      <trkpt lat="49.27577" lon="0.01659">
        <ele>130.2</ele>
        <time>2024-10-13T09:45:21Z</time>
      </trkpt>
      <trkpt lat="49.27581" lon="0.01648">
        <ele>130</ele>
        <time>2024-10-13T09:45:22Z</time>
      </trkpt>
      <trkpt lat="49.27584" lon="0.01638">
        <ele>130</ele>
        <time>2024-10-13T09:45:23Z</time>
      </trkpt>
      <trkpt lat="49.27587" lon="0.01626">
        <ele>130</ele>
        <time>2024-10-13T09:45:24Z</time>
      </trkpt>
      <trkpt lat="49.27591" lon="0.01613">
        <ele>130</ele>
        <time>2024-10-13T09:45:25Z</time>
      </trkpt>
      <trkpt lat="49.27594" lon="0.01604">
        <ele>129.8</ele>
        <time>2024-10-13T09:45:26Z</time>
      </trkpt>
      <trkpt lat="49.27597" lon="0.01592">
        <ele>129.8</ele>
        <time>2024-10-13T09:45:27Z</time>
      </trkpt>
      <trkpt lat="49.276" lon="0.01581">
        <ele>129.8</ele>
        <time>2024-10-13T09:45:28Z</time>
      </trkpt>
      <trkpt lat="49.27603" lon="0.01569">
        <ele>129.8</ele>
        <time>2024-10-13T09:45:29Z</time>
      </trkpt>
      <trkpt lat="49.27606" lon="0.01558">
        <ele>129.8</ele>
        <time>2024-10-13T09:45:30Z</time>
      </trkpt>
      <trkpt lat="49.27609" lon="0.01546">
        <ele>129.8</ele>
        <time>2024-10-13T09:45:31Z</time>
      </trkpt>
      <trkpt lat="49.27612" lon="0.01534">
        <ele>129.8</ele>
        <time>2024-10-13T09:45:32Z</time>
      </trkpt>
      <trkpt lat="49.27614" lon="0.01522">
        <ele>129.8</ele>
        <time>2024-10-13T09:45:33Z</time>
      </trkpt>
      <trkpt lat="49.27617" lon="0.0151">
        <ele>129.8</ele>
        <time>2024-10-13T09:45:34Z</time>
      </trkpt>
      <trkpt lat="49.27619" lon="0.01497">
        <ele>129.8</ele>
        <time>2024-10-13T09:45:35Z</time>
      </trkpt>
      <trkpt lat="49.27622" lon="0.01485">
        <ele>129.8</ele>
        <time>2024-10-13T09:45:36Z</time>
      </trkpt>
      <trkpt lat="49.27624" lon="0.01473">
        <ele>129.8</ele>
        <time>2024-10-13T09:45:37Z</time>
      </trkpt>
      <trkpt lat="49.27626" lon="0.0146">
        <ele>129.8</ele>
        <time>2024-10-13T09:45:38Z</time>
      </trkpt>
      <trkpt lat="49.27628" lon="0.01448">
        <ele>129.8</ele>
        <time>2024-10-13T09:45:39Z</time>
      </trkpt>
      <trkpt lat="49.2763" lon="0.01435">
        <ele>129.8</ele>
        <time>2024-10-13T09:45:40Z</time>
      </trkpt>
      <trkpt lat="49.27631" lon="0.01422">
        <ele>129.8</ele>
        <time>2024-10-13T09:45:41Z</time>
      </trkpt>
      <trkpt lat="49.27633" lon="0.0141">
        <ele>129.8</ele>
        <time>2024-10-13T09:45:42Z</time>
      </trkpt>
      <trkpt lat="49.27635" lon="0.01394">
        <ele>129.6</ele>
        <time>2024-10-13T09:45:43Z</time>
      </trkpt>
      <trkpt lat="49.27636" lon="0.01384">
        <ele>129.6</ele>
        <time>2024-10-13T09:45:44Z</time>
      </trkpt>
      <trkpt lat="49.27638" lon="0.01371">
        <ele>129.6</ele>
        <time>2024-10-13T09:45:45Z</time>
      </trkpt>
      <trkpt lat="49.2764" lon="0.01356">
        <ele>129.6</ele>
        <time>2024-10-13T09:45:46Z</time>
      </trkpt>
      <trkpt lat="49.27641" lon="0.01345">
        <ele>129.4</ele>
        <time>2024-10-13T09:45:47Z</time>
      </trkpt>
      <trkpt lat="49.27643" lon="0.01333">
        <ele>129.4</ele>
        <time>2024-10-13T09:45:48Z</time>
      </trkpt>
      <trkpt lat="49.27644" lon="0.01317">
        <ele>129.2</ele>
        <time>2024-10-13T09:45:49Z</time>
      </trkpt>
      <trkpt lat="49.27646" lon="0.01307">
        <ele>129</ele>
        <time>2024-10-13T09:45:50Z</time>
      </trkpt>
      <trkpt lat="49.27647" lon="0.01295">
        <ele>129</ele>
        <time>2024-10-13T09:45:51Z</time>
      </trkpt>
      <trkpt lat="49.27649" lon="0.0128">
        <ele>129</ele>
        <time>2024-10-13T09:45:52Z</time>
      </trkpt>
      <trkpt lat="49.2765" lon="0.0127">
        <ele>129</ele>
        <time>2024-10-13T09:45:53Z</time>
      </trkpt>
      <trkpt lat="49.27652" lon="0.01257">
        <ele>128.8</ele>
        <time>2024-10-13T09:45:54Z</time>
      </trkpt>
      <trkpt lat="49.27653" lon="0.01245">
        <ele>128.8</ele>
        <time>2024-10-13T09:45:55Z</time>
      </trkpt>
      <trkpt lat="49.27655" lon="0.01232">
        <ele>128.8</ele>
        <time>2024-10-13T09:45:56Z</time>
      </trkpt>
      <trkpt lat="49.27657" lon="0.01219">
        <ele>128.8</ele>
        <time>2024-10-13T09:45:57Z</time>
      </trkpt>
      <trkpt lat="49.27658" lon="0.01207">
        <ele>128.8</ele>
        <time>2024-10-13T09:45:58Z</time>
      </trkpt>
      <trkpt lat="49.2766" lon="0.01194">
        <ele>128.8</ele>
        <time>2024-10-13T09:45:59Z</time>
      </trkpt>
      <trkpt lat="49.27662" lon="0.01178">
        <ele>128.8</ele>
        <time>2024-10-13T09:46:00Z</time>
      </trkpt>
      <trkpt lat="49.27663" lon="0.01168">
        <ele>128.8</ele>
        <time>2024-10-13T09:46:01Z</time>
      </trkpt>
      <trkpt lat="49.27665" lon="0.01155">
        <ele>129</ele>
        <time>2024-10-13T09:46:02Z</time>
      </trkpt>
      <trkpt lat="49.27666" lon="0.01143">
        <ele>129</ele>
        <time>2024-10-13T09:46:03Z</time>
      </trkpt>
      <trkpt lat="49.27668" lon="0.0113">
        <ele>129</ele>
        <time>2024-10-13T09:46:04Z</time>
      </trkpt>
      <trkpt lat="49.27669" lon="0.01118">
        <ele>129</ele>
        <time>2024-10-13T09:46:05Z</time>
      </trkpt>
      <trkpt lat="49.27671" lon="0.01105">
        <ele>129.2</ele>
        <time>2024-10-13T09:46:06Z</time>
      </trkpt>
      <trkpt lat="49.27672" lon="0.01092">
        <ele>129.4</ele>
        <time>2024-10-13T09:46:07Z</time>
      </trkpt>
      <trkpt lat="49.27674" lon="0.0108">
        <ele>129.6</ele>
        <time>2024-10-13T09:46:08Z</time>
      </trkpt>
      <trkpt lat="49.27675" lon="0.01068">
        <ele>129.8</ele>
        <time>2024-10-13T09:46:09Z</time>
      </trkpt>
      <trkpt lat="49.27677" lon="0.01053">
        <ele>130</ele>
        <time>2024-10-13T09:46:10Z</time>
      </trkpt>
      <trkpt lat="49.27678" lon="0.01043">
        <ele>130.2</ele>
        <time>2024-10-13T09:46:11Z</time>
      </trkpt>
      <trkpt lat="49.2768" lon="0.01031">
        <ele>130.2</ele>
        <time>2024-10-13T09:46:12Z</time>
      </trkpt>
      <trkpt lat="49.27681" lon="0.01017">
        <ele>130.4</ele>
        <time>2024-10-13T09:46:13Z</time>
      </trkpt>
      <trkpt lat="49.27682" lon="0.01007">
        <ele>130.4</ele>
        <time>2024-10-13T09:46:14Z</time>
      </trkpt>
      <trkpt lat="49.27684" lon="0.00995">
        <ele>130.4</ele>
        <time>2024-10-13T09:46:15Z</time>
      </trkpt>
      <trkpt lat="49.27686" lon="0.0098">
        <ele>130.6</ele>
        <time>2024-10-13T09:46:16Z</time>
      </trkpt>
      <trkpt lat="49.27688" lon="0.0097">
        <ele>130.6</ele>
        <time>2024-10-13T09:46:17Z</time>
      </trkpt>
      <trkpt lat="49.2769" lon="0.00958">
        <ele>130.6</ele>
        <time>2024-10-13T09:46:18Z</time>
      </trkpt>
      <trkpt lat="49.27692" lon="0.00946">
        <ele>130.8</ele>
        <time>2024-10-13T09:46:19Z</time>
      </trkpt>
      <trkpt lat="49.27694" lon="0.00934">
        <ele>130.8</ele>
        <time>2024-10-13T09:46:20Z</time>
      </trkpt>
      <trkpt lat="49.27697" lon="0.00923">
        <ele>130.8</ele>
        <time>2024-10-13T09:46:21Z</time>
      </trkpt>
      <trkpt lat="49.27701" lon="0.00908">
        <ele>131</ele>
        <time>2024-10-13T09:46:22Z</time>
      </trkpt>
      <trkpt lat="49.27703" lon="0.00899">
        <ele>131</ele>
        <time>2024-10-13T09:46:23Z</time>
      </trkpt>
      <trkpt lat="49.27707" lon="0.00887">
        <ele>131</ele>
        <time>2024-10-13T09:46:24Z</time>
      </trkpt>
      <trkpt lat="49.2771" lon="0.00876">
        <ele>131</ele>
        <time>2024-10-13T09:46:25Z</time>
      </trkpt>
      <trkpt lat="49.27715" lon="0.00865">
        <ele>131</ele>
        <time>2024-10-13T09:46:26Z</time>
      </trkpt>
      <trkpt lat="49.27719" lon="0.00853">
        <ele>131</ele>
        <time>2024-10-13T09:46:27Z</time>
      </trkpt>
      <trkpt lat="49.27724" lon="0.00843">
        <ele>131</ele>
        <time>2024-10-13T09:46:28Z</time>
      </trkpt>
      <trkpt lat="49.27729" lon="0.00832">
        <ele>131</ele>
        <time>2024-10-13T09:46:29Z</time>
      </trkpt>
      <trkpt lat="49.27734" lon="0.00822">
        <ele>131</ele>
        <time>2024-10-13T09:46:30Z</time>
      </trkpt>
      <trkpt lat="49.2774" lon="0.0081">
        <ele>130.8</ele>
        <time>2024-10-13T09:46:31Z</time>
      </trkpt>
      <trkpt lat="49.27744" lon="0.00802">
        <ele>130.8</ele>
        <time>2024-10-13T09:46:32Z</time>
      </trkpt>
      <trkpt lat="49.27749" lon="0.00792">
        <ele>130.6</ele>
        <time>2024-10-13T09:46:33Z</time>
      </trkpt>
      <trkpt lat="49.27755" lon="0.00781">
        <ele>130.6</ele>
        <time>2024-10-13T09:46:34Z</time>
      </trkpt>
      <trkpt lat="49.27759" lon="0.00773">
        <ele>130.6</ele>
        <time>2024-10-13T09:46:35Z</time>
      </trkpt>
      <trkpt lat="49.27766" lon="0.00761">
        <ele>130.4</ele>
        <time>2024-10-13T09:46:36Z</time>
      </trkpt>
      <trkpt lat="49.2777" lon="0.00754">
        <ele>130.4</ele>
        <time>2024-10-13T09:46:37Z</time>
      </trkpt>
      <trkpt lat="49.27775" lon="0.00745">
        <ele>130.4</ele>
        <time>2024-10-13T09:46:38Z</time>
      </trkpt>
      <trkpt lat="49.2778" lon="0.00736">
        <ele>130.2</ele>
        <time>2024-10-13T09:46:39Z</time>
      </trkpt>
      <trkpt lat="49.27785" lon="0.00726">
        <ele>130.2</ele>
        <time>2024-10-13T09:46:40Z</time>
      </trkpt>
      <trkpt lat="49.27791" lon="0.00717">
        <ele>130.2</ele>
        <time>2024-10-13T09:46:41Z</time>
      </trkpt>
      <trkpt lat="49.27796" lon="0.00708">
        <ele>130.2</ele>
        <time>2024-10-13T09:46:42Z</time>
      </trkpt>
      <trkpt lat="49.27801" lon="0.00698">
        <ele>130.2</ele>
        <time>2024-10-13T09:46:43Z</time>
      </trkpt>
      <trkpt lat="49.27807" lon="0.00689">
        <ele>130.2</ele>
        <time>2024-10-13T09:46:44Z</time>
      </trkpt>
      <trkpt lat="49.27813" lon="0.00678">
        <ele>130.2</ele>
        <time>2024-10-13T09:46:45Z</time>
      </trkpt>
      <trkpt lat="49.27818" lon="0.00672">
        <ele>130.4</ele>
        <time>2024-10-13T09:46:46Z</time>
      </trkpt>
      <trkpt lat="49.27824" lon="0.00664">
        <ele>130.4</ele>
        <time>2024-10-13T09:46:47Z</time>
      </trkpt>
      <trkpt lat="49.2783" lon="0.00656">
        <ele>130.4</ele>
        <time>2024-10-13T09:46:48Z</time>
      </trkpt>
      <trkpt lat="49.27838" lon="0.00648">
        <ele>130.4</ele>
        <time>2024-10-13T09:46:49Z</time>
      </trkpt>
      <trkpt lat="49.27843" lon="0.00643">
        <ele>130.6</ele>
        <time>2024-10-13T09:46:50Z</time>
      </trkpt>
      <trkpt lat="49.27849" lon="0.00636">
        <ele>130.8</ele>
        <time>2024-10-13T09:46:51Z</time>
      </trkpt>
      <trkpt lat="49.27856" lon="0.00629">
        <ele>130.8</ele>
        <time>2024-10-13T09:46:52Z</time>
      </trkpt>
      <trkpt lat="49.27862" lon="0.00623">
        <ele>130.8</ele>
        <time>2024-10-13T09:46:53Z</time>
      </trkpt>
      <trkpt lat="49.2787" lon="0.00615">
        <ele>131</ele>
        <time>2024-10-13T09:46:54Z</time>
      </trkpt>
      <trkpt lat="49.27875" lon="0.00609">
        <ele>131.2</ele>
        <time>2024-10-13T09:46:55Z</time>
      </trkpt>
      <trkpt lat="49.27881" lon="0.00602">
        <ele>131.2</ele>
        <time>2024-10-13T09:46:56Z</time>
      </trkpt>
      <trkpt lat="49.27888" lon="0.00593">
        <ele>131.2</ele>
        <time>2024-10-13T09:46:57Z</time>
      </trkpt>
      <trkpt lat="49.27893" lon="0.00587">
        <ele>131.2</ele>
        <time>2024-10-13T09:46:58Z</time>
      </trkpt>
      <trkpt lat="49.27899" lon="0.00579">
        <ele>131.4</ele>
        <time>2024-10-13T09:46:59Z</time>
      </trkpt>
      <trkpt lat="49.27906" lon="0.00569">
        <ele>131.4</ele>
        <time>2024-10-13T09:47:00Z</time>
      </trkpt>
      <trkpt lat="49.2791" lon="0.00562">
        <ele>131.6</ele>
        <time>2024-10-13T09:47:01Z</time>
      </trkpt>
      <trkpt lat="49.27916" lon="0.00553">
        <ele>131.6</ele>
        <time>2024-10-13T09:47:02Z</time>
      </trkpt>
      <trkpt lat="49.27921" lon="0.00544">
        <ele>131.6</ele>
        <time>2024-10-13T09:47:03Z</time>
      </trkpt>
      <trkpt lat="49.27926" lon="0.00535">
        <ele>131.8</ele>
        <time>2024-10-13T09:47:04Z</time>
      </trkpt>
      <trkpt lat="49.27931" lon="0.00526">
        <ele>131.8</ele>
        <time>2024-10-13T09:47:05Z</time>
      </trkpt>
      <trkpt lat="49.27936" lon="0.00516">
        <ele>132</ele>
        <time>2024-10-13T09:47:06Z</time>
      </trkpt>
      <trkpt lat="49.27941" lon="0.00507">
        <ele>132.2</ele>
        <time>2024-10-13T09:47:07Z</time>
      </trkpt>
      <trkpt lat="49.27946" lon="0.00498">
        <ele>132.2</ele>
        <time>2024-10-13T09:47:08Z</time>
      </trkpt>
      <trkpt lat="49.27951" lon="0.00488">
        <ele>132.2</ele>
        <time>2024-10-13T09:47:09Z</time>
      </trkpt>
      <trkpt lat="49.27956" lon="0.00479">
        <ele>132.4</ele>
        <time>2024-10-13T09:47:10Z</time>
      </trkpt>
      <trkpt lat="49.27961" lon="0.0047">
        <ele>132.6</ele>
        <time>2024-10-13T09:47:11Z</time>
      </trkpt>
      <trkpt lat="49.27966" lon="0.00461">
        <ele>133</ele>
        <time>2024-10-13T09:47:12Z</time>
      </trkpt>
      <trkpt lat="49.27971" lon="0.00452">
        <ele>133.2</ele>
        <time>2024-10-13T09:47:13Z</time>
      </trkpt>
      <trkpt lat="49.27975" lon="0.00443">
        <ele>133.2</ele>
        <time>2024-10-13T09:47:14Z</time>
      </trkpt>
      <trkpt lat="49.2798" lon="0.00434">
        <ele>133.2</ele>
        <time>2024-10-13T09:47:15Z</time>
      </trkpt>
      <trkpt lat="49.27985" lon="0.00424">
        <ele>133.4</ele>
        <time>2024-10-13T09:47:16Z</time>
      </trkpt>
      <trkpt lat="49.2799" lon="0.00415">
        <ele>133.4</ele>
        <time>2024-10-13T09:47:17Z</time>
      </trkpt>
      <trkpt lat="49.27996" lon="0.00404">
        <ele>133.6</ele>
        <time>2024-10-13T09:47:18Z</time>
      </trkpt>
      <trkpt lat="49.28" lon="0.00396">
        <ele>133.8</ele>
        <time>2024-10-13T09:47:19Z</time>
      </trkpt>
      <trkpt lat="49.28005" lon="0.00387">
        <ele>133.8</ele>
        <time>2024-10-13T09:47:20Z</time>
      </trkpt>
      <trkpt lat="49.28011" lon="0.00376">
        <ele>133.8</ele>
        <time>2024-10-13T09:47:21Z</time>
      </trkpt>
      <trkpt lat="49.28016" lon="0.00368">
        <ele>133.8</ele>
        <time>2024-10-13T09:47:22Z</time>
      </trkpt>
      <trkpt lat="49.28021" lon="0.00358">
        <ele>133.8</ele>
        <time>2024-10-13T09:47:23Z</time>
      </trkpt>
      <trkpt lat="49.28026" lon="0.00349">
        <ele>134</ele>
        <time>2024-10-13T09:47:24Z</time>
      </trkpt>
      <trkpt lat="49.28031" lon="0.00339">
        <ele>134</ele>
        <time>2024-10-13T09:47:25Z</time>
      </trkpt>
      <trkpt lat="49.28036" lon="0.00329">
        <ele>134</ele>
        <time>2024-10-13T09:47:26Z</time>
      </trkpt>
      <trkpt lat="49.28041" lon="0.0032">
        <ele>134.2</ele>
        <time>2024-10-13T09:47:27Z</time>
      </trkpt>
      <trkpt lat="49.28046" lon="0.0031">
        <ele>134.2</ele>
        <time>2024-10-13T09:47:28Z</time>
      </trkpt>
      <trkpt lat="49.28051" lon="0.00301">
        <ele>134.2</ele>
        <time>2024-10-13T09:47:29Z</time>
      </trkpt>
      <trkpt lat="49.28056" lon="0.00291">
        <ele>134.4</ele>
        <time>2024-10-13T09:47:30Z</time>
      </trkpt>
      <trkpt lat="49.28061" lon="0.00281">
        <ele>134.4</ele>
        <time>2024-10-13T09:47:31Z</time>
      </trkpt>
      <trkpt lat="49.28066" lon="0.00271">
        <ele>134.4</ele>
        <time>2024-10-13T09:47:32Z</time>
      </trkpt>
      <trkpt lat="49.2807" lon="0.00261">
        <ele>134.4</ele>
        <time>2024-10-13T09:47:33Z</time>
      </trkpt>
      <trkpt lat="49.28075" lon="0.00252">
        <ele>134.6</ele>
        <time>2024-10-13T09:47:34Z</time>
      </trkpt>
      <trkpt lat="49.2808" lon="0.00241">
        <ele>134.6</ele>
        <time>2024-10-13T09:47:35Z</time>
      </trkpt>
      <trkpt lat="49.28084" lon="0.00231">
        <ele>134.6</ele>
        <time>2024-10-13T09:47:36Z</time>
      </trkpt>
      <trkpt lat="49.28089" lon="0.00221">
        <ele>134.6</ele>
        <time>2024-10-13T09:47:37Z</time>
      </trkpt>
      <trkpt lat="49.28093" lon="0.00211">
        <ele>134.6</ele>
        <time>2024-10-13T09:47:38Z</time>
      </trkpt>
      <trkpt lat="49.28097" lon="0.002">
        <ele>134.6</ele>
        <time>2024-10-13T09:47:39Z</time>
      </trkpt>
      <trkpt lat="49.281" lon="0.00189">
        <ele>134.6</ele>
        <time>2024-10-13T09:47:40Z</time>
      </trkpt>
      <trkpt lat="49.28104" lon="0.00178">
        <ele>134.6</ele>
        <time>2024-10-13T09:47:41Z</time>
      </trkpt>
      <trkpt lat="49.28108" lon="0.00168">
        <ele>134.6</ele>
        <time>2024-10-13T09:47:42Z</time>
      </trkpt>
      <trkpt lat="49.28111" lon="0.00157">
        <ele>134.6</ele>
        <time>2024-10-13T09:47:43Z</time>
      </trkpt>
      <trkpt lat="49.28115" lon="0.00146">
        <ele>134.6</ele>
        <time>2024-10-13T09:47:44Z</time>
      </trkpt>
      <trkpt lat="49.28118" lon="0.00135">
        <ele>134.6</ele>
        <time>2024-10-13T09:47:45Z</time>
      </trkpt>
      <trkpt lat="49.28121" lon="0.00125">
        <ele>134.6</ele>
        <time>2024-10-13T09:47:46Z</time>
      </trkpt>
      <trkpt lat="49.28124" lon="0.00113">
        <ele>134.6</ele>
        <time>2024-10-13T09:47:47Z</time>
      </trkpt>
      <trkpt lat="49.28127" lon="0.00103">
        <ele>134.6</ele>
        <time>2024-10-13T09:47:48Z</time>
      </trkpt>
      <trkpt lat="49.2813" lon="0.00092">
        <ele>134.6</ele>
        <time>2024-10-13T09:47:49Z</time>
      </trkpt>
      <trkpt lat="49.28134" lon="0.00081">
        <ele>134.6</ele>
        <time>2024-10-13T09:47:50Z</time>
      </trkpt>
      <trkpt lat="49.28137" lon="0.00071">
        <ele>134.4</ele>
        <time>2024-10-13T09:47:51Z</time>
      </trkpt>
      <trkpt lat="49.28141" lon="0.00062">
        <ele>134.4</ele>
        <time>2024-10-13T09:47:52Z</time>
      </trkpt>
      <trkpt lat="49.28145" lon="0.00054">
        <ele>134.2</ele>
        <time>2024-10-13T09:47:53Z</time>
      </trkpt>
      <trkpt lat="49.2815" lon="0.00046">
        <ele>134.2</ele>
        <time>2024-10-13T09:47:54Z</time>
      </trkpt>
      <trkpt lat="49.28155" lon="0.0004">
        <ele>134.2</ele>
        <time>2024-10-13T09:47:55Z</time>
      </trkpt>
      <trkpt lat="49.28159" lon="0.00033">
        <ele>134.2</ele>
        <time>2024-10-13T09:47:56Z</time>
      </trkpt>
      <trkpt lat="49.28163" lon="0.00026">
        <ele>134</ele>
        <time>2024-10-13T09:47:57Z</time>
      </trkpt>
      <trkpt lat="49.28164" lon="0.00017">
        <ele>134</ele>
        <time>2024-10-13T09:47:58Z</time>
      </trkpt>
      <trkpt lat="49.28162" lon="8.0E-5">
        <ele>134</ele>
        <time>2024-10-13T09:47:59Z</time>
      </trkpt>
      <trkpt lat="49.28157" lon="-0">
        <ele>134.2</ele>
        <time>2024-10-13T09:48:00Z</time>
      </trkpt>
      <trkpt lat="49.28152" lon="-5.0E-5">
        <ele>134.2</ele>
        <time>2024-10-13T09:48:01Z</time>
      </trkpt>
      <trkpt lat="49.28146" lon="-9.0E-5">
        <ele>134.2</ele>
        <time>2024-10-13T09:48:02Z</time>
      </trkpt>
      <trkpt lat="49.28139" lon="-0.00014">
        <ele>134.2</ele>
        <time>2024-10-13T09:48:03Z</time>
      </trkpt>
      <trkpt lat="49.28133" lon="-0.00021">
        <ele>134.2</ele>
        <time>2024-10-13T09:48:04Z</time>
      </trkpt>
      <trkpt lat="49.28128" lon="-0.00028">
        <ele>134.2</ele>
        <time>2024-10-13T09:48:05Z</time>
      </trkpt>
      <trkpt lat="49.28122" lon="-0.00036">
        <ele>134.2</ele>
        <time>2024-10-13T09:48:06Z</time>
      </trkpt>
      <trkpt lat="49.28116" lon="-0.00045">
        <ele>134.2</ele>
        <time>2024-10-13T09:48:07Z</time>
      </trkpt>
      <trkpt lat="49.2811" lon="-0.00053">
        <ele>134.2</ele>
        <time>2024-10-13T09:48:08Z</time>
      </trkpt>
      <trkpt lat="49.28105" lon="-0.00062">
        <ele>134.2</ele>
        <time>2024-10-13T09:48:09Z</time>
      </trkpt>
      <trkpt lat="49.28099" lon="-0.0007">
        <ele>134.2</ele>
        <time>2024-10-13T09:48:10Z</time>
      </trkpt>
      <trkpt lat="49.28093" lon="-0.00078">
        <ele>134.2</ele>
        <time>2024-10-13T09:48:11Z</time>
      </trkpt>
      <trkpt lat="49.28088" lon="-0.00087">
        <ele>134.2</ele>
        <time>2024-10-13T09:48:12Z</time>
      </trkpt>
      <trkpt lat="49.28082" lon="-0.00096">
        <ele>134.2</ele>
        <time>2024-10-13T09:48:13Z</time>
      </trkpt>
      <trkpt lat="49.28076" lon="-0.00104">
        <ele>134.4</ele>
        <time>2024-10-13T09:48:14Z</time>
      </trkpt>
      <trkpt lat="49.2807" lon="-0.00112">
        <ele>134.4</ele>
        <time>2024-10-13T09:48:15Z</time>
      </trkpt>
      <trkpt lat="49.28065" lon="-0.0012">
        <ele>134.4</ele>
        <time>2024-10-13T09:48:16Z</time>
      </trkpt>
      <trkpt lat="49.2806" lon="-0.00127">
        <ele>134.6</ele>
        <time>2024-10-13T09:48:17Z</time>
      </trkpt>
      <trkpt lat="49.28055" lon="-0.00135">
        <ele>134.6</ele>
        <time>2024-10-13T09:48:18Z</time>
      </trkpt>
      <trkpt lat="49.28049" lon="-0.00143">
        <ele>134.6</ele>
        <time>2024-10-13T09:48:19Z</time>
      </trkpt>
      <trkpt lat="49.28044" lon="-0.0015">
        <ele>134.6</ele>
        <time>2024-10-13T09:48:20Z</time>
      </trkpt>
      <trkpt lat="49.28039" lon="-0.00159">
        <ele>134.8</ele>
        <time>2024-10-13T09:48:21Z</time>
      </trkpt>
      <trkpt lat="49.28034" lon="-0.00166">
        <ele>134.8</ele>
        <time>2024-10-13T09:48:22Z</time>
      </trkpt>
      <trkpt lat="49.28029" lon="-0.00174">
        <ele>134.8</ele>
        <time>2024-10-13T09:48:23Z</time>
      </trkpt>
      <trkpt lat="49.28024" lon="-0.00181">
        <ele>134.8</ele>
        <time>2024-10-13T09:48:24Z</time>
      </trkpt>
      <trkpt lat="49.28018" lon="-0.00189">
        <ele>135</ele>
        <time>2024-10-13T09:48:25Z</time>
      </trkpt>
      <trkpt lat="49.28013" lon="-0.00196">
        <ele>135</ele>
        <time>2024-10-13T09:48:26Z</time>
      </trkpt>
      <trkpt lat="49.28008" lon="-0.00203">
        <ele>135</ele>
        <time>2024-10-13T09:48:27Z</time>
      </trkpt>
      <trkpt lat="49.28004" lon="-0.00209">
        <ele>135</ele>
        <time>2024-10-13T09:48:28Z</time>
      </trkpt>
      <trkpt lat="49.28" lon="-0.00214">
        <ele>135</ele>
        <time>2024-10-13T09:48:29Z</time>
      </trkpt>
      <trkpt lat="49.27998" lon="-0.00218">
        <ele>135</ele>
        <time>2024-10-13T09:48:30Z</time>
      </trkpt>
      <trkpt lat="49.27995" lon="-0.00221">
        <ele>135</ele>
        <time>2024-10-13T09:48:31Z</time>
      </trkpt>
      <trkpt lat="49.27994" lon="-0.00224">
        <ele>135</ele>
        <time>2024-10-13T09:48:32Z</time>
      </trkpt>
      <trkpt lat="49.27993" lon="-0.00225">
        <ele>135</ele>
        <time>2024-10-13T09:48:33Z</time>
      </trkpt>
      <trkpt lat="49.27993" lon="-0.00225">
        <ele>135</ele>
        <time>2024-10-13T09:48:34Z</time>
      </trkpt>
      <trkpt lat="49.27993" lon="-0.00224">
        <ele>135</ele>
        <time>2024-10-13T09:48:35Z</time>
      </trkpt>
      <trkpt lat="49.27998" lon="-0.00218">
        <ele>135</ele>
        <time>2024-10-13T09:48:40Z</time>
      </trkpt>
      <trkpt lat="49.27999" lon="-0.00216">
        <ele>135</ele>
        <time>2024-10-13T09:48:41Z</time>
      </trkpt>
      <trkpt lat="49.28001" lon="-0.00214">
        <ele>135</ele>
        <time>2024-10-13T09:48:42Z</time>
      </trkpt>
      <trkpt lat="49.28003" lon="-0.00211">
        <ele>135</ele>
        <time>2024-10-13T09:48:43Z</time>
      </trkpt>
      <trkpt lat="49.28005" lon="-0.00207">
        <ele>135</ele>
        <time>2024-10-13T09:48:44Z</time>
      </trkpt>
      <trkpt lat="49.28007" lon="-0.00204">
        <ele>135</ele>
        <time>2024-10-13T09:48:45Z</time>
      </trkpt>
      <trkpt lat="49.2801" lon="-0.00201">
        <ele>135</ele>
        <time>2024-10-13T09:48:46Z</time>
      </trkpt>
      <trkpt lat="49.28013" lon="-0.00197">
        <ele>135</ele>
        <time>2024-10-13T09:48:47Z</time>
      </trkpt>
      <trkpt lat="49.28016" lon="-0.00193">
        <ele>135</ele>
        <time>2024-10-13T09:48:48Z</time>
      </trkpt>
      <trkpt lat="49.28018" lon="-0.00189">
        <ele>135</ele>
        <time>2024-10-13T09:48:49Z</time>
      </trkpt>
      <trkpt lat="49.28021" lon="-0.00186">
        <ele>135</ele>
        <time>2024-10-13T09:48:50Z</time>
      </trkpt>
      <trkpt lat="49.28023" lon="-0.00183">
        <ele>135</ele>
        <time>2024-10-13T09:48:51Z</time>
      </trkpt>
      <trkpt lat="49.28025" lon="-0.00181">
        <ele>135</ele>
        <time>2024-10-13T09:48:52Z</time>
      </trkpt>
      <trkpt lat="49.28026" lon="-0.00181">
        <ele>135</ele>
        <time>2024-10-13T09:48:53Z</time>
      </trkpt>
      <trkpt lat="49.28026" lon="-0.00181">
        <ele>135</ele>
        <time>2024-10-13T09:48:54Z</time>
      </trkpt>
      <trkpt lat="49.28019" lon="-0.00187">
        <ele>135.4</ele>
        <time>2024-10-13T09:57:02Z</time>
      </trkpt>
      <trkpt lat="49.28018" lon="-0.00189">
        <ele>135.4</ele>
        <time>2024-10-13T09:57:03Z</time>
      </trkpt>
      <trkpt lat="49.28016" lon="-0.0019">
        <ele>135.4</ele>
        <time>2024-10-13T09:57:04Z</time>
      </trkpt>
      <trkpt lat="49.28014" lon="-0.00193">
        <ele>135.4</ele>
        <time>2024-10-13T09:57:05Z</time>
      </trkpt>
      <trkpt lat="49.28012" lon="-0.00196">
        <ele>135.4</ele>
        <time>2024-10-13T09:57:06Z</time>
      </trkpt>
      <trkpt lat="49.28009" lon="-0.002">
        <ele>135.4</ele>
        <time>2024-10-13T09:57:07Z</time>
      </trkpt>
      <trkpt lat="49.28007" lon="-0.00204">
        <ele>135.4</ele>
        <time>2024-10-13T09:57:08Z</time>
      </trkpt>
      <trkpt lat="49.28004" lon="-0.00208">
        <ele>135.4</ele>
        <time>2024-10-13T09:57:09Z</time>
      </trkpt>
      <trkpt lat="49.28001" lon="-0.00212">
        <ele>135.4</ele>
        <time>2024-10-13T09:57:10Z</time>
      </trkpt>
      <trkpt lat="49.27997" lon="-0.00217">
        <ele>135.2</ele>
        <time>2024-10-13T09:57:11Z</time>
      </trkpt>
      <trkpt lat="49.27994" lon="-0.00223">
        <ele>135.2</ele>
        <time>2024-10-13T09:57:12Z</time>
      </trkpt>
      <trkpt lat="49.2799" lon="-0.00228">
        <ele>135.2</ele>
        <time>2024-10-13T09:57:13Z</time>
      </trkpt>
      <trkpt lat="49.27986" lon="-0.00233">
        <ele>135.2</ele>
        <time>2024-10-13T09:57:14Z</time>
      </trkpt>
      <trkpt lat="49.27982" lon="-0.00239">
        <ele>135.2</ele>
        <time>2024-10-13T09:57:15Z</time>
      </trkpt>
      <trkpt lat="49.27977" lon="-0.00245">
        <ele>135.2</ele>
        <time>2024-10-13T09:57:16Z</time>
      </trkpt>
      <trkpt lat="49.27973" lon="-0.00251">
        <ele>135</ele>
        <time>2024-10-13T09:57:17Z</time>
      </trkpt>
      <trkpt lat="49.27968" lon="-0.00257">
        <ele>135</ele>
        <time>2024-10-13T09:57:18Z</time>
      </trkpt>
      <trkpt lat="49.27964" lon="-0.00265">
        <ele>135</ele>
        <time>2024-10-13T09:57:19Z</time>
      </trkpt>
      <trkpt lat="49.27959" lon="-0.00272">
        <ele>135</ele>
        <time>2024-10-13T09:57:20Z</time>
      </trkpt>
      <trkpt lat="49.27954" lon="-0.0028">
        <ele>134.6</ele>
        <time>2024-10-13T09:57:21Z</time>
      </trkpt>
      <trkpt lat="49.27949" lon="-0.00288">
        <ele>134.4</ele>
        <time>2024-10-13T09:57:22Z</time>
      </trkpt>
      <trkpt lat="49.27943" lon="-0.00296">
        <ele>134.4</ele>
        <time>2024-10-13T09:57:23Z</time>
      </trkpt>
      <trkpt lat="49.27938" lon="-0.00304">
        <ele>134.2</ele>
        <time>2024-10-13T09:57:24Z</time>
      </trkpt>
      <trkpt lat="49.27932" lon="-0.00313">
        <ele>134</ele>
        <time>2024-10-13T09:57:25Z</time>
      </trkpt>
      <trkpt lat="49.27927" lon="-0.00322">
        <ele>133.8</ele>
        <time>2024-10-13T09:57:26Z</time>
      </trkpt>
      <trkpt lat="49.27922" lon="-0.00332">
        <ele>133.4</ele>
        <time>2024-10-13T09:57:27Z</time>
      </trkpt>
      <trkpt lat="49.27917" lon="-0.00342">
        <ele>133</ele>
        <time>2024-10-13T09:57:28Z</time>
      </trkpt>
      <trkpt lat="49.27912" lon="-0.00352">
        <ele>132.6</ele>
        <time>2024-10-13T09:57:29Z</time>
      </trkpt>
      <trkpt lat="49.27908" lon="-0.00363">
        <ele>132.4</ele>
        <time>2024-10-13T09:57:30Z</time>
      </trkpt>
      <trkpt lat="49.27903" lon="-0.00375">
        <ele>132</ele>
        <time>2024-10-13T09:57:31Z</time>
      </trkpt>
      <trkpt lat="49.27899" lon="-0.00387">
        <ele>131.8</ele>
        <time>2024-10-13T09:57:32Z</time>
      </trkpt>
      <trkpt lat="49.27895" lon="-0.00399">
        <ele>131.4</ele>
        <time>2024-10-13T09:57:33Z</time>
      </trkpt>
      <trkpt lat="49.27891" lon="-0.00412">
        <ele>131</ele>
        <time>2024-10-13T09:57:34Z</time>
      </trkpt>
      <trkpt lat="49.27888" lon="-0.00425">
        <ele>130.6</ele>
        <time>2024-10-13T09:57:35Z</time>
      </trkpt>
      <trkpt lat="49.27885" lon="-0.00438">
        <ele>130.4</ele>
        <time>2024-10-13T09:57:36Z</time>
      </trkpt>
      <trkpt lat="49.27882" lon="-0.00452">
        <ele>130.4</ele>
        <time>2024-10-13T09:57:37Z</time>
      </trkpt>
      <trkpt lat="49.27879" lon="-0.00465">
        <ele>130</ele>
        <time>2024-10-13T09:57:38Z</time>
      </trkpt>
      <trkpt lat="49.27877" lon="-0.00479">
        <ele>129.4</ele>
        <time>2024-10-13T09:57:39Z</time>
      </trkpt>
      <trkpt lat="49.27876" lon="-0.00493">
        <ele>129</ele>
        <time>2024-10-13T09:57:40Z</time>
      </trkpt>
      <trkpt lat="49.27875" lon="-0.00506">
        <ele>128.4</ele>
        <time>2024-10-13T09:57:41Z</time>
      </trkpt>
      <trkpt lat="49.27874" lon="-0.00519">
        <ele>127.8</ele>
        <time>2024-10-13T09:57:42Z</time>
      </trkpt>
      <trkpt lat="49.27874" lon="-0.00532">
        <ele>127.4</ele>
        <time>2024-10-13T09:57:43Z</time>
      </trkpt>
      <trkpt lat="49.27874" lon="-0.00545">
        <ele>127</ele>
        <time>2024-10-13T09:57:44Z</time>
      </trkpt>
      <trkpt lat="49.27874" lon="-0.00557">
        <ele>126.6</ele>
        <time>2024-10-13T09:57:45Z</time>
      </trkpt>
      <trkpt lat="49.27874" lon="-0.0057">
        <ele>126.4</ele>
        <time>2024-10-13T09:57:46Z</time>
      </trkpt>
      <trkpt lat="49.27874" lon="-0.00582">
        <ele>126</ele>
        <time>2024-10-13T09:57:47Z</time>
      </trkpt>
      <trkpt lat="49.27874" lon="-0.00593">
        <ele>125.4</ele>
        <time>2024-10-13T09:57:48Z</time>
      </trkpt>
      <trkpt lat="49.27874" lon="-0.00605">
        <ele>125.2</ele>
        <time>2024-10-13T09:57:49Z</time>
      </trkpt>
      <trkpt lat="49.27873" lon="-0.00617">
        <ele>124.8</ele>
        <time>2024-10-13T09:57:50Z</time>
      </trkpt>
      <trkpt lat="49.27873" lon="-0.0063">
        <ele>124.6</ele>
        <time>2024-10-13T09:57:51Z</time>
      </trkpt>
      <trkpt lat="49.27872" lon="-0.00643">
        <ele>124.6</ele>
        <time>2024-10-13T09:57:52Z</time>
      </trkpt>
      <trkpt lat="49.27871" lon="-0.00656">
        <ele>124.4</ele>
        <time>2024-10-13T09:57:53Z</time>
      </trkpt>
      <trkpt lat="49.2787" lon="-0.00668">
        <ele>124.4</ele>
        <time>2024-10-13T09:57:54Z</time>
      </trkpt>
      <trkpt lat="49.27869" lon="-0.0068">
        <ele>124.4</ele>
        <time>2024-10-13T09:57:55Z</time>
      </trkpt>
      <trkpt lat="49.27868" lon="-0.00691">
        <ele>124.4</ele>
        <time>2024-10-13T09:57:56Z</time>
      </trkpt>
      <trkpt lat="49.27867" lon="-0.007">
        <ele>124.4</ele>
        <time>2024-10-13T09:57:57Z</time>
      </trkpt>
      <trkpt lat="49.27867" lon="-0.00707">
        <ele>124.4</ele>
        <time>2024-10-13T09:57:58Z</time>
      </trkpt>
      <trkpt lat="49.27867" lon="-0.00714">
        <ele>124.4</ele>
        <time>2024-10-13T09:57:59Z</time>
      </trkpt>
      <trkpt lat="49.27866" lon="-0.00719">
        <ele>124.4</ele>
        <time>2024-10-13T09:58:00Z</time>
      </trkpt>
      <trkpt lat="49.27866" lon="-0.00723">
        <ele>124.4</ele>
        <time>2024-10-13T09:58:01Z</time>
      </trkpt>
      <trkpt lat="49.27866" lon="-0.00726">
        <ele>124.4</ele>
        <time>2024-10-13T09:58:02Z</time>
      </trkpt>
      <trkpt lat="49.27866" lon="-0.00727">
        <ele>124.4</ele>
        <time>2024-10-13T09:58:03Z</time>
      </trkpt>
      <trkpt lat="49.27866" lon="-0.00727">
        <ele>124.4</ele>
        <time>2024-10-13T09:58:04Z</time>
      </trkpt>
      <trkpt lat="49.27865" lon="-0.00732">
        <ele>126.2</ele>
        <time>2024-10-13T09:58:15Z</time>
      </trkpt>
      <trkpt lat="49.27865" lon="-0.00734">
        <ele>126.2</ele>
        <time>2024-10-13T09:58:16Z</time>
      </trkpt>
      <trkpt lat="49.27865" lon="-0.00737">
        <ele>126.2</ele>
        <time>2024-10-13T09:58:17Z</time>
      </trkpt>
      <trkpt lat="49.27865" lon="-0.0074">
        <ele>126.2</ele>
        <time>2024-10-13T09:58:18Z</time>
      </trkpt>
      <trkpt lat="49.27865" lon="-0.00743">
        <ele>126.2</ele>
        <time>2024-10-13T09:58:19Z</time>
      </trkpt>
      <trkpt lat="49.27864" lon="-0.00747">
        <ele>126.2</ele>
        <time>2024-10-13T09:58:20Z</time>
      </trkpt>
      <trkpt lat="49.27864" lon="-0.00751">
        <ele>126.2</ele>
        <time>2024-10-13T09:58:21Z</time>
      </trkpt>
      <trkpt lat="49.27864" lon="-0.00755">
        <ele>126.2</ele>
        <time>2024-10-13T09:58:22Z</time>
      </trkpt>
      <trkpt lat="49.27863" lon="-0.0076">
        <ele>126.2</ele>
        <time>2024-10-13T09:58:23Z</time>
      </trkpt>
      <trkpt lat="49.27862" lon="-0.00765">
        <ele>126.2</ele>
        <time>2024-10-13T09:58:24Z</time>
      </trkpt>
      <trkpt lat="49.27862" lon="-0.0077">
        <ele>126.2</ele>
        <time>2024-10-13T09:58:25Z</time>
      </trkpt>
      <trkpt lat="49.27861" lon="-0.00776">
        <ele>126.2</ele>
        <time>2024-10-13T09:58:26Z</time>
      </trkpt>
      <trkpt lat="49.2786" lon="-0.00782">
        <ele>126.2</ele>
        <time>2024-10-13T09:58:27Z</time>
      </trkpt>
      <trkpt lat="49.2786" lon="-0.00788">
        <ele>126.2</ele>
        <time>2024-10-13T09:58:28Z</time>
      </trkpt>
      <trkpt lat="49.27859" lon="-0.00795">
        <ele>126.2</ele>
        <time>2024-10-13T09:58:29Z</time>
      </trkpt>
      <trkpt lat="49.27858" lon="-0.00802">
        <ele>126.2</ele>
        <time>2024-10-13T09:58:30Z</time>
      </trkpt>
      <trkpt lat="49.27857" lon="-0.0081">
        <ele>126.2</ele>
        <time>2024-10-13T09:58:31Z</time>
      </trkpt>
      <trkpt lat="49.27856" lon="-0.00818">
        <ele>126.2</ele>
        <time>2024-10-13T09:58:32Z</time>
      </trkpt>
      <trkpt lat="49.27855" lon="-0.00826">
        <ele>126.2</ele>
        <time>2024-10-13T09:58:33Z</time>
      </trkpt>
      <trkpt lat="49.27854" lon="-0.00834">
        <ele>126.2</ele>
        <time>2024-10-13T09:58:34Z</time>
      </trkpt>
      <trkpt lat="49.27852" lon="-0.00842">
        <ele>126.2</ele>
        <time>2024-10-13T09:58:35Z</time>
      </trkpt>
      <trkpt lat="49.27851" lon="-0.0085">
        <ele>126.2</ele>
        <time>2024-10-13T09:58:36Z</time>
      </trkpt>
      <trkpt lat="49.27849" lon="-0.00858">
        <ele>126.2</ele>
        <time>2024-10-13T09:58:37Z</time>
      </trkpt>
      <trkpt lat="49.27848" lon="-0.00867">
        <ele>126.2</ele>
        <time>2024-10-13T09:58:38Z</time>
      </trkpt>
      <trkpt lat="49.27846" lon="-0.00875">
        <ele>126.2</ele>
        <time>2024-10-13T09:58:39Z</time>
      </trkpt>
      <trkpt lat="49.27845" lon="-0.00884">
        <ele>126.2</ele>
        <time>2024-10-13T09:58:40Z</time>
      </trkpt>
      <trkpt lat="49.27843" lon="-0.00893">
        <ele>126.2</ele>
        <time>2024-10-13T09:58:41Z</time>
      </trkpt>
      <trkpt lat="49.27841" lon="-0.00902">
        <ele>126.2</ele>
        <time>2024-10-13T09:58:42Z</time>
      </trkpt>
      <trkpt lat="49.27839" lon="-0.00911">
        <ele>126.2</ele>
        <time>2024-10-13T09:58:43Z</time>
      </trkpt>
      <trkpt lat="49.27836" lon="-0.0092">
        <ele>126.2</ele>
        <time>2024-10-13T09:58:44Z</time>
      </trkpt>
      <trkpt lat="49.27834" lon="-0.00929">
        <ele>126.2</ele>
        <time>2024-10-13T09:58:45Z</time>
      </trkpt>
      <trkpt lat="49.27832" lon="-0.00938">
        <ele>126.2</ele>
        <time>2024-10-13T09:58:46Z</time>
      </trkpt>
      <trkpt lat="49.27829" lon="-0.00946">
        <ele>126.2</ele>
        <time>2024-10-13T09:58:47Z</time>
      </trkpt>
      <trkpt lat="49.27827" lon="-0.00955">
        <ele>126.2</ele>
        <time>2024-10-13T09:58:48Z</time>
      </trkpt>
      <trkpt lat="49.27824" lon="-0.00964">
        <ele>126.2</ele>
        <time>2024-10-13T09:58:49Z</time>
      </trkpt>
      <trkpt lat="49.27821" lon="-0.00972">
        <ele>126.2</ele>
        <time>2024-10-13T09:58:50Z</time>
      </trkpt>
      <trkpt lat="49.27818" lon="-0.00981">
        <ele>126.2</ele>
        <time>2024-10-13T09:58:51Z</time>
      </trkpt>
      <trkpt lat="49.27815" lon="-0.0099">
        <ele>126.2</ele>
        <time>2024-10-13T09:58:52Z</time>
      </trkpt>
      <trkpt lat="49.27813" lon="-0.00999">
        <ele>126.2</ele>
        <time>2024-10-13T09:58:53Z</time>
      </trkpt>
      <trkpt lat="49.27809" lon="-0.01008">
        <ele>126.4</ele>
        <time>2024-10-13T09:58:54Z</time>
      </trkpt>
      <trkpt lat="49.27805" lon="-0.01018">
        <ele>126.4</ele>
        <time>2024-10-13T09:58:55Z</time>
      </trkpt>
      <trkpt lat="49.27801" lon="-0.01028">
        <ele>126.4</ele>
        <time>2024-10-13T09:58:56Z</time>
      </trkpt>
      <trkpt lat="49.27798" lon="-0.01038">
        <ele>126.4</ele>
        <time>2024-10-13T09:58:57Z</time>
      </trkpt>
      <trkpt lat="49.27793" lon="-0.01048">
        <ele>126.4</ele>
        <time>2024-10-13T09:58:58Z</time>
      </trkpt>
      <trkpt lat="49.27789" lon="-0.01057">
        <ele>126.4</ele>
        <time>2024-10-13T09:58:59Z</time>
      </trkpt>
      <trkpt lat="49.27785" lon="-0.01067">
        <ele>126.6</ele>
        <time>2024-10-13T09:59:00Z</time>
      </trkpt>
      <trkpt lat="49.27781" lon="-0.01076">
        <ele>126.6</ele>
        <time>2024-10-13T09:59:01Z</time>
      </trkpt>
      <trkpt lat="49.27776" lon="-0.01085">
        <ele>126.6</ele>
        <time>2024-10-13T09:59:02Z</time>
      </trkpt>
      <trkpt lat="49.27772" lon="-0.01094">
        <ele>126.6</ele>
        <time>2024-10-13T09:59:03Z</time>
      </trkpt>
      <trkpt lat="49.27767" lon="-0.01103">
        <ele>126.8</ele>
        <time>2024-10-13T09:59:04Z</time>
      </trkpt>
      <trkpt lat="49.27762" lon="-0.01112">
        <ele>126.8</ele>
        <time>2024-10-13T09:59:05Z</time>
      </trkpt>
      <trkpt lat="49.27758" lon="-0.0112">
        <ele>126.8</ele>
        <time>2024-10-13T09:59:06Z</time>
      </trkpt>
      <trkpt lat="49.27753" lon="-0.01128">
        <ele>127</ele>
        <time>2024-10-13T09:59:07Z</time>
      </trkpt>
      <trkpt lat="49.27748" lon="-0.01137">
        <ele>127</ele>
        <time>2024-10-13T09:59:08Z</time>
      </trkpt>
      <trkpt lat="49.27743" lon="-0.01145">
        <ele>127.2</ele>
        <time>2024-10-13T09:59:09Z</time>
      </trkpt>
      <trkpt lat="49.27738" lon="-0.01153">
        <ele>127.2</ele>
        <time>2024-10-13T09:59:10Z</time>
      </trkpt>
      <trkpt lat="49.27733" lon="-0.01162">
        <ele>127.4</ele>
        <time>2024-10-13T09:59:11Z</time>
      </trkpt>
      <trkpt lat="49.27728" lon="-0.0117">
        <ele>127.4</ele>
        <time>2024-10-13T09:59:12Z</time>
      </trkpt>
      <trkpt lat="49.27722" lon="-0.01178">
        <ele>127.4</ele>
        <time>2024-10-13T09:59:13Z</time>
      </trkpt>
      <trkpt lat="49.27717" lon="-0.01186">
        <ele>127.6</ele>
        <time>2024-10-13T09:59:14Z</time>
      </trkpt>
      <trkpt lat="49.27711" lon="-0.01194">
        <ele>127.6</ele>
        <time>2024-10-13T09:59:15Z</time>
      </trkpt>
      <trkpt lat="49.27705" lon="-0.01202">
        <ele>127.6</ele>
        <time>2024-10-13T09:59:16Z</time>
      </trkpt>
      <trkpt lat="49.27699" lon="-0.01211">
        <ele>127.6</ele>
        <time>2024-10-13T09:59:17Z</time>
      </trkpt>
      <trkpt lat="49.27693" lon="-0.01219">
        <ele>127.6</ele>
        <time>2024-10-13T09:59:18Z</time>
      </trkpt>
      <trkpt lat="49.27687" lon="-0.01227">
        <ele>127.8</ele>
        <time>2024-10-13T09:59:19Z</time>
      </trkpt>
      <trkpt lat="49.27681" lon="-0.01236">
        <ele>127.8</ele>
        <time>2024-10-13T09:59:20Z</time>
      </trkpt>
      <trkpt lat="49.27676" lon="-0.01244">
        <ele>128</ele>
        <time>2024-10-13T09:59:21Z</time>
      </trkpt>
      <trkpt lat="49.2767" lon="-0.01252">
        <ele>128</ele>
        <time>2024-10-13T09:59:22Z</time>
      </trkpt>
      <trkpt lat="49.27663" lon="-0.0126">
        <ele>128.2</ele>
        <time>2024-10-13T09:59:23Z</time>
      </trkpt>
      <trkpt lat="49.27657" lon="-0.01268">
        <ele>128.2</ele>
        <time>2024-10-13T09:59:24Z</time>
      </trkpt>
      <trkpt lat="49.27651" lon="-0.01277">
        <ele>128.2</ele>
        <time>2024-10-13T09:59:25Z</time>
      </trkpt>
      <trkpt lat="49.27646" lon="-0.01286">
        <ele>128.6</ele>
        <time>2024-10-13T09:59:26Z</time>
      </trkpt>
      <trkpt lat="49.2764" lon="-0.01294">
        <ele>128.6</ele>
        <time>2024-10-13T09:59:27Z</time>
      </trkpt>
      <trkpt lat="49.27634" lon="-0.01302">
        <ele>128.8</ele>
        <time>2024-10-13T09:59:28Z</time>
      </trkpt>
      <trkpt lat="49.27628" lon="-0.0131">
        <ele>128.8</ele>
        <time>2024-10-13T09:59:29Z</time>
      </trkpt>
      <trkpt lat="49.27622" lon="-0.01319">
        <ele>128.8</ele>
        <time>2024-10-13T09:59:30Z</time>
      </trkpt>
      <trkpt lat="49.27616" lon="-0.01327">
        <ele>128.8</ele>
        <time>2024-10-13T09:59:31Z</time>
      </trkpt>
      <trkpt lat="49.2761" lon="-0.01337">
        <ele>129</ele>
        <time>2024-10-13T09:59:32Z</time>
      </trkpt>
      <trkpt lat="49.27604" lon="-0.01346">
        <ele>129</ele>
        <time>2024-10-13T09:59:33Z</time>
      </trkpt>
      <trkpt lat="49.27599" lon="-0.01356">
        <ele>129</ele>
        <time>2024-10-13T09:59:34Z</time>
      </trkpt>
      <trkpt lat="49.27593" lon="-0.01366">
        <ele>129</ele>
        <time>2024-10-13T09:59:35Z</time>
      </trkpt>
      <trkpt lat="49.27588" lon="-0.01375">
        <ele>129</ele>
        <time>2024-10-13T09:59:36Z</time>
      </trkpt>
      <trkpt lat="49.27582" lon="-0.01385">
        <ele>129.2</ele>
        <time>2024-10-13T09:59:37Z</time>
      </trkpt>
      <trkpt lat="49.27577" lon="-0.01395">
        <ele>129.2</ele>
        <time>2024-10-13T09:59:38Z</time>
      </trkpt>
      <trkpt lat="49.27573" lon="-0.01406">
        <ele>129.4</ele>
        <time>2024-10-13T09:59:39Z</time>
      </trkpt>
      <trkpt lat="49.27568" lon="-0.01416">
        <ele>129.6</ele>
        <time>2024-10-13T09:59:40Z</time>
      </trkpt>
      <trkpt lat="49.27563" lon="-0.01427">
        <ele>129.6</ele>
        <time>2024-10-13T09:59:41Z</time>
      </trkpt>
      <trkpt lat="49.27558" lon="-0.01437">
        <ele>129.8</ele>
        <time>2024-10-13T09:59:42Z</time>
      </trkpt>
      <trkpt lat="49.27554" lon="-0.01448">
        <ele>129.8</ele>
        <time>2024-10-13T09:59:43Z</time>
      </trkpt>
      <trkpt lat="49.27549" lon="-0.01458">
        <ele>130</ele>
        <time>2024-10-13T09:59:44Z</time>
      </trkpt>
      <trkpt lat="49.27545" lon="-0.01468">
        <ele>130</ele>
        <time>2024-10-13T09:59:45Z</time>
      </trkpt>
      <trkpt lat="49.27541" lon="-0.01479">
        <ele>130</ele>
        <time>2024-10-13T09:59:46Z</time>
      </trkpt>
      <trkpt lat="49.27537" lon="-0.01491">
        <ele>130.2</ele>
        <time>2024-10-13T09:59:47Z</time>
      </trkpt>
      <trkpt lat="49.27533" lon="-0.01502">
        <ele>130.2</ele>
        <time>2024-10-13T09:59:48Z</time>
      </trkpt>
      <trkpt lat="49.27529" lon="-0.01513">
        <ele>130.4</ele>
        <time>2024-10-13T09:59:49Z</time>
      </trkpt>
      <trkpt lat="49.27525" lon="-0.01524">
        <ele>130.4</ele>
        <time>2024-10-13T09:59:50Z</time>
      </trkpt>
      <trkpt lat="49.27522" lon="-0.01536">
        <ele>130.4</ele>
        <time>2024-10-13T09:59:51Z</time>
      </trkpt>
      <trkpt lat="49.27518" lon="-0.01548">
        <ele>130.4</ele>
        <time>2024-10-13T09:59:52Z</time>
      </trkpt>
      <trkpt lat="49.27515" lon="-0.0156">
        <ele>130.4</ele>
        <time>2024-10-13T09:59:53Z</time>
      </trkpt>
      <trkpt lat="49.27512" lon="-0.01572">
        <ele>130.4</ele>
        <time>2024-10-13T09:59:54Z</time>
      </trkpt>
      <trkpt lat="49.27509" lon="-0.01584">
        <ele>130.4</ele>
        <time>2024-10-13T09:59:55Z</time>
      </trkpt>
      <trkpt lat="49.27506" lon="-0.01596">
        <ele>130.4</ele>
        <time>2024-10-13T09:59:56Z</time>
      </trkpt>
      <trkpt lat="49.27503" lon="-0.01608">
        <ele>130.4</ele>
        <time>2024-10-13T09:59:57Z</time>
      </trkpt>
      <trkpt lat="49.275" lon="-0.0162">
        <ele>130.4</ele>
        <time>2024-10-13T09:59:58Z</time>
      </trkpt>
      <trkpt lat="49.27496" lon="-0.01632">
        <ele>130.4</ele>
        <time>2024-10-13T09:59:59Z</time>
      </trkpt>
      <trkpt lat="49.27493" lon="-0.01645">
        <ele>130.4</ele>
        <time>2024-10-13T10:00:00Z</time>
      </trkpt>
      <trkpt lat="49.2749" lon="-0.01657">
        <ele>130.4</ele>
        <time>2024-10-13T10:00:01Z</time>
      </trkpt>
      <trkpt lat="49.27487" lon="-0.01669">
        <ele>130.4</ele>
        <time>2024-10-13T10:00:02Z</time>
      </trkpt>
      <trkpt lat="49.27483" lon="-0.01682">
        <ele>130.4</ele>
        <time>2024-10-13T10:00:03Z</time>
      </trkpt>
      <trkpt lat="49.2748" lon="-0.01695">
        <ele>130.4</ele>
        <time>2024-10-13T10:00:04Z</time>
      </trkpt>
      <trkpt lat="49.27477" lon="-0.01707">
        <ele>130.4</ele>
        <time>2024-10-13T10:00:05Z</time>
      </trkpt>
      <trkpt lat="49.27473" lon="-0.01719">
        <ele>130.4</ele>
        <time>2024-10-13T10:00:06Z</time>
      </trkpt>
      <trkpt lat="49.2747" lon="-0.01732">
        <ele>130.4</ele>
        <time>2024-10-13T10:00:07Z</time>
      </trkpt>
      <trkpt lat="49.27467" lon="-0.01745">
        <ele>130.4</ele>
        <time>2024-10-13T10:00:08Z</time>
      </trkpt>
      <trkpt lat="49.27464" lon="-0.01757">
        <ele>130.2</ele>
        <time>2024-10-13T10:00:09Z</time>
      </trkpt>
      <trkpt lat="49.27461" lon="-0.0177">
        <ele>130.2</ele>
        <time>2024-10-13T10:00:10Z</time>
      </trkpt>
      <trkpt lat="49.27457" lon="-0.01783">
        <ele>130.2</ele>
        <time>2024-10-13T10:00:11Z</time>
      </trkpt>
      <trkpt lat="49.27454" lon="-0.01796">
        <ele>130.2</ele>
        <time>2024-10-13T10:00:12Z</time>
      </trkpt>
      <trkpt lat="49.27451" lon="-0.01808">
        <ele>130</ele>
        <time>2024-10-13T10:00:13Z</time>
      </trkpt>
      <trkpt lat="49.27447" lon="-0.01821">
        <ele>130</ele>
        <time>2024-10-13T10:00:14Z</time>
      </trkpt>
      <trkpt lat="49.27444" lon="-0.01834">
        <ele>130</ele>
        <time>2024-10-13T10:00:15Z</time>
      </trkpt>
      <trkpt lat="49.27441" lon="-0.01847">
        <ele>130</ele>
        <time>2024-10-13T10:00:16Z</time>
      </trkpt>
      <trkpt lat="49.27437" lon="-0.0186">
        <ele>129.8</ele>
        <time>2024-10-13T10:00:17Z</time>
      </trkpt>
      <trkpt lat="49.27434" lon="-0.01873">
        <ele>129.8</ele>
        <time>2024-10-13T10:00:18Z</time>
      </trkpt>
      <trkpt lat="49.2743" lon="-0.01886">
        <ele>129.8</ele>
        <time>2024-10-13T10:00:19Z</time>
      </trkpt>
      <trkpt lat="49.27427" lon="-0.01899">
        <ele>129.8</ele>
        <time>2024-10-13T10:00:20Z</time>
      </trkpt>
      <trkpt lat="49.27424" lon="-0.01912">
        <ele>129.8</ele>
        <time>2024-10-13T10:00:21Z</time>
      </trkpt>
      <trkpt lat="49.2742" lon="-0.01925">
        <ele>129.8</ele>
        <time>2024-10-13T10:00:22Z</time>
      </trkpt>
      <trkpt lat="49.27417" lon="-0.01938">
        <ele>129.8</ele>
        <time>2024-10-13T10:00:23Z</time>
      </trkpt>
      <trkpt lat="49.27413" lon="-0.01951">
        <ele>129.6</ele>
        <time>2024-10-13T10:00:24Z</time>
      </trkpt>
      <trkpt lat="49.2741" lon="-0.01964">
        <ele>129.6</ele>
        <time>2024-10-13T10:00:25Z</time>
      </trkpt>
      <trkpt lat="49.27406" lon="-0.01978">
        <ele>129.6</ele>
        <time>2024-10-13T10:00:26Z</time>
      </trkpt>
      <trkpt lat="49.27403" lon="-0.01991">
        <ele>129.6</ele>
        <time>2024-10-13T10:00:27Z</time>
      </trkpt>
      <trkpt lat="49.274" lon="-0.02004">
        <ele>129.6</ele>
        <time>2024-10-13T10:00:28Z</time>
      </trkpt>
      <trkpt lat="49.27396" lon="-0.02017">
        <ele>129.6</ele>
        <time>2024-10-13T10:00:29Z</time>
      </trkpt>
      <trkpt lat="49.27393" lon="-0.0203">
        <ele>129.6</ele>
        <time>2024-10-13T10:00:30Z</time>
      </trkpt>
      <trkpt lat="49.27389" lon="-0.02044">
        <ele>129.6</ele>
        <time>2024-10-13T10:00:31Z</time>
      </trkpt>
      <trkpt lat="49.27386" lon="-0.02057">
        <ele>129.6</ele>
        <time>2024-10-13T10:00:32Z</time>
      </trkpt>
      <trkpt lat="49.27382" lon="-0.0207">
        <ele>129.6</ele>
        <time>2024-10-13T10:00:33Z</time>
      </trkpt>
      <trkpt lat="49.27379" lon="-0.02083">
        <ele>129.6</ele>
        <time>2024-10-13T10:00:34Z</time>
      </trkpt>
      <trkpt lat="49.27375" lon="-0.02096">
        <ele>129.6</ele>
        <time>2024-10-13T10:00:35Z</time>
      </trkpt>
      <trkpt lat="49.27372" lon="-0.02109">
        <ele>129.6</ele>
        <time>2024-10-13T10:00:36Z</time>
      </trkpt>
      <trkpt lat="49.27369" lon="-0.02121">
        <ele>129.6</ele>
        <time>2024-10-13T10:00:37Z</time>
      </trkpt>
      <trkpt lat="49.27365" lon="-0.02134">
        <ele>129.4</ele>
        <time>2024-10-13T10:00:38Z</time>
      </trkpt>
      <trkpt lat="49.27362" lon="-0.02147">
        <ele>129.4</ele>
        <time>2024-10-13T10:00:39Z</time>
      </trkpt>
      <trkpt lat="49.27359" lon="-0.02158">
        <ele>129.4</ele>
        <time>2024-10-13T10:00:40Z</time>
      </trkpt>
      <trkpt lat="49.27356" lon="-0.0217">
        <ele>129.4</ele>
        <time>2024-10-13T10:00:41Z</time>
      </trkpt>
      <trkpt lat="49.27353" lon="-0.02182">
        <ele>129.4</ele>
        <time>2024-10-13T10:00:42Z</time>
      </trkpt>
      <trkpt lat="49.2735" lon="-0.02195">
        <ele>129.4</ele>
        <time>2024-10-13T10:00:43Z</time>
      </trkpt>
      <trkpt lat="49.27346" lon="-0.02207">
        <ele>129.4</ele>
        <time>2024-10-13T10:00:44Z</time>
      </trkpt>
      <trkpt lat="49.27342" lon="-0.02219">
        <ele>129.4</ele>
        <time>2024-10-13T10:00:45Z</time>
      </trkpt>
      <trkpt lat="49.27338" lon="-0.0223">
        <ele>129.6</ele>
        <time>2024-10-13T10:00:46Z</time>
      </trkpt>
      <trkpt lat="49.27335" lon="-0.02242">
        <ele>129.6</ele>
        <time>2024-10-13T10:00:47Z</time>
      </trkpt>
      <trkpt lat="49.27331" lon="-0.02254">
        <ele>129.6</ele>
        <time>2024-10-13T10:00:48Z</time>
      </trkpt>
      <trkpt lat="49.27326" lon="-0.02265">
        <ele>129.6</ele>
        <time>2024-10-13T10:00:49Z</time>
      </trkpt>
      <trkpt lat="49.27322" lon="-0.02277">
        <ele>129.6</ele>
        <time>2024-10-13T10:00:50Z</time>
      </trkpt>
      <trkpt lat="49.27317" lon="-0.02288">
        <ele>129.6</ele>
        <time>2024-10-13T10:00:51Z</time>
      </trkpt>
      <trkpt lat="49.27312" lon="-0.023">
        <ele>129.8</ele>
        <time>2024-10-13T10:00:52Z</time>
      </trkpt>
      <trkpt lat="49.27308" lon="-0.02312">
        <ele>129.8</ele>
        <time>2024-10-13T10:00:53Z</time>
      </trkpt>
      <trkpt lat="49.27303" lon="-0.02324">
        <ele>130</ele>
        <time>2024-10-13T10:00:54Z</time>
      </trkpt>
      <trkpt lat="49.27298" lon="-0.02336">
        <ele>130</ele>
        <time>2024-10-13T10:00:55Z</time>
      </trkpt>
      <trkpt lat="49.27293" lon="-0.02348">
        <ele>130</ele>
        <time>2024-10-13T10:00:56Z</time>
      </trkpt>
      <trkpt lat="49.27288" lon="-0.0236">
        <ele>130</ele>
        <time>2024-10-13T10:00:57Z</time>
      </trkpt>
      <trkpt lat="49.27282" lon="-0.02372">
        <ele>130</ele>
        <time>2024-10-13T10:00:58Z</time>
      </trkpt>
      <trkpt lat="49.27277" lon="-0.02384">
        <ele>130</ele>
        <time>2024-10-13T10:00:59Z</time>
      </trkpt>
      <trkpt lat="49.27271" lon="-0.02397">
        <ele>130</ele>
        <time>2024-10-13T10:01:00Z</time>
      </trkpt>
      <trkpt lat="49.27266" lon="-0.0241">
        <ele>130</ele>
        <time>2024-10-13T10:01:01Z</time>
      </trkpt>
      <trkpt lat="49.2726" lon="-0.02422">
        <ele>130</ele>
        <time>2024-10-13T10:01:02Z</time>
      </trkpt>
      <trkpt lat="49.27254" lon="-0.02435">
        <ele>130</ele>
        <time>2024-10-13T10:01:03Z</time>
      </trkpt>
      <trkpt lat="49.27249" lon="-0.02448">
        <ele>130</ele>
        <time>2024-10-13T10:01:04Z</time>
      </trkpt>
      <trkpt lat="49.27243" lon="-0.02462">
        <ele>130</ele>
        <time>2024-10-13T10:01:05Z</time>
      </trkpt>
      <trkpt lat="49.27238" lon="-0.02475">
        <ele>130</ele>
        <time>2024-10-13T10:01:06Z</time>
      </trkpt>
      <trkpt lat="49.27233" lon="-0.02488">
        <ele>129.8</ele>
        <time>2024-10-13T10:01:07Z</time>
      </trkpt>
      <trkpt lat="49.27229" lon="-0.02501">
        <ele>129.8</ele>
        <time>2024-10-13T10:01:08Z</time>
      </trkpt>
      <trkpt lat="49.27224" lon="-0.02515">
        <ele>129.8</ele>
        <time>2024-10-13T10:01:09Z</time>
      </trkpt>
      <trkpt lat="49.2722" lon="-0.02528">
        <ele>129.8</ele>
        <time>2024-10-13T10:01:10Z</time>
      </trkpt>
      <trkpt lat="49.27216" lon="-0.02542">
        <ele>129.6</ele>
        <time>2024-10-13T10:01:11Z</time>
      </trkpt>
      <trkpt lat="49.27212" lon="-0.02556">
        <ele>129.4</ele>
        <time>2024-10-13T10:01:12Z</time>
      </trkpt>
      <trkpt lat="49.27209" lon="-0.02571">
        <ele>129.4</ele>
        <time>2024-10-13T10:01:13Z</time>
      </trkpt>
      <trkpt lat="49.27205" lon="-0.02586">
        <ele>129.4</ele>
        <time>2024-10-13T10:01:14Z</time>
      </trkpt>
      <trkpt lat="49.27202" lon="-0.02601">
        <ele>129.2</ele>
        <time>2024-10-13T10:01:15Z</time>
      </trkpt>
      <trkpt lat="49.27199" lon="-0.02615">
        <ele>129.2</ele>
        <time>2024-10-13T10:01:16Z</time>
      </trkpt>
      <trkpt lat="49.27196" lon="-0.0263">
        <ele>129.2</ele>
        <time>2024-10-13T10:01:17Z</time>
      </trkpt>
      <trkpt lat="49.27193" lon="-0.02645">
        <ele>129</ele>
        <time>2024-10-13T10:01:18Z</time>
      </trkpt>
      <trkpt lat="49.27191" lon="-0.0266">
        <ele>129</ele>
        <time>2024-10-13T10:01:19Z</time>
      </trkpt>
      <trkpt lat="49.27188" lon="-0.02675">
        <ele>129</ele>
        <time>2024-10-13T10:01:20Z</time>
      </trkpt>
      <trkpt lat="49.27185" lon="-0.0269">
        <ele>128.8</ele>
        <time>2024-10-13T10:01:21Z</time>
      </trkpt>
      <trkpt lat="49.27182" lon="-0.02705">
        <ele>128.8</ele>
        <time>2024-10-13T10:01:22Z</time>
      </trkpt>
      <trkpt lat="49.27179" lon="-0.02721">
        <ele>128.6</ele>
        <time>2024-10-13T10:01:23Z</time>
      </trkpt>
      <trkpt lat="49.27176" lon="-0.02736">
        <ele>128.6</ele>
        <time>2024-10-13T10:01:24Z</time>
      </trkpt>
      <trkpt lat="49.27173" lon="-0.02751">
        <ele>128.6</ele>
        <time>2024-10-13T10:01:25Z</time>
      </trkpt>
      <trkpt lat="49.2717" lon="-0.02767">
        <ele>128.4</ele>
        <time>2024-10-13T10:01:26Z</time>
      </trkpt>
      <trkpt lat="49.27166" lon="-0.02782">
        <ele>128.4</ele>
        <time>2024-10-13T10:01:27Z</time>
      </trkpt>
      <trkpt lat="49.27163" lon="-0.02798">
        <ele>128.2</ele>
        <time>2024-10-13T10:01:28Z</time>
      </trkpt>
      <trkpt lat="49.2716" lon="-0.02813">
        <ele>128.2</ele>
        <time>2024-10-13T10:01:29Z</time>
      </trkpt>
      <trkpt lat="49.27156" lon="-0.02828">
        <ele>128.2</ele>
        <time>2024-10-13T10:01:30Z</time>
      </trkpt>
      <trkpt lat="49.27152" lon="-0.02843">
        <ele>128</ele>
        <time>2024-10-13T10:01:31Z</time>
      </trkpt>
      <trkpt lat="49.27148" lon="-0.02858">
        <ele>127.8</ele>
        <time>2024-10-13T10:01:32Z</time>
      </trkpt>
      <trkpt lat="49.27143" lon="-0.02872">
        <ele>127.8</ele>
        <time>2024-10-13T10:01:33Z</time>
      </trkpt>
      <trkpt lat="49.27139" lon="-0.02886">
        <ele>127.6</ele>
        <time>2024-10-13T10:01:34Z</time>
      </trkpt>
      <trkpt lat="49.27135" lon="-0.029">
        <ele>127.6</ele>
        <time>2024-10-13T10:01:35Z</time>
      </trkpt>
      <trkpt lat="49.2713" lon="-0.02915">
        <ele>127.4</ele>
        <time>2024-10-13T10:01:36Z</time>
      </trkpt>
      <trkpt lat="49.27126" lon="-0.0293">
        <ele>127.4</ele>
        <time>2024-10-13T10:01:37Z</time>
      </trkpt>
      <trkpt lat="49.27122" lon="-0.02944">
        <ele>127.4</ele>
        <time>2024-10-13T10:01:38Z</time>
      </trkpt>
      <trkpt lat="49.27118" lon="-0.02959">
        <ele>127</ele>
        <time>2024-10-13T10:01:39Z</time>
      </trkpt>
      <trkpt lat="49.27113" lon="-0.02973">
        <ele>126.8</ele>
        <time>2024-10-13T10:01:40Z</time>
      </trkpt>
      <trkpt lat="49.27109" lon="-0.02987">
        <ele>126.6</ele>
        <time>2024-10-13T10:01:41Z</time>
      </trkpt>
      <trkpt lat="49.27104" lon="-0.03001">
        <ele>126.6</ele>
        <time>2024-10-13T10:01:42Z</time>
      </trkpt>
      <trkpt lat="49.271" lon="-0.03014">
        <ele>126.4</ele>
        <time>2024-10-13T10:01:43Z</time>
      </trkpt>
      <trkpt lat="49.27095" lon="-0.03028">
        <ele>126.4</ele>
        <time>2024-10-13T10:01:44Z</time>
      </trkpt>
      <trkpt lat="49.27091" lon="-0.03041">
        <ele>126.2</ele>
        <time>2024-10-13T10:01:45Z</time>
      </trkpt>
      <trkpt lat="49.27086" lon="-0.03054">
        <ele>126.2</ele>
        <time>2024-10-13T10:01:46Z</time>
      </trkpt>
      <trkpt lat="49.27081" lon="-0.03067">
        <ele>126.2</ele>
        <time>2024-10-13T10:01:47Z</time>
      </trkpt>
      <trkpt lat="49.27075" lon="-0.0308">
        <ele>126</ele>
        <time>2024-10-13T10:01:48Z</time>
      </trkpt>
      <trkpt lat="49.2707" lon="-0.03093">
        <ele>126</ele>
        <time>2024-10-13T10:01:49Z</time>
      </trkpt>
      <trkpt lat="49.27064" lon="-0.03105">
        <ele>126</ele>
        <time>2024-10-13T10:01:50Z</time>
      </trkpt>
      <trkpt lat="49.27058" lon="-0.03118">
        <ele>126</ele>
        <time>2024-10-13T10:01:51Z</time>
      </trkpt>
      <trkpt lat="49.27052" lon="-0.03131">
        <ele>126</ele>
        <time>2024-10-13T10:01:52Z</time>
      </trkpt>
      <trkpt lat="49.27046" lon="-0.03144">
        <ele>126</ele>
        <time>2024-10-13T10:01:53Z</time>
      </trkpt>
      <trkpt lat="49.27041" lon="-0.03158">
        <ele>126</ele>
        <time>2024-10-13T10:01:54Z</time>
      </trkpt>
      <trkpt lat="49.27037" lon="-0.03171">
        <ele>126</ele>
        <time>2024-10-13T10:01:55Z</time>
      </trkpt>
      <trkpt lat="49.27032" lon="-0.03186">
        <ele>126</ele>
        <time>2024-10-13T10:01:56Z</time>
      </trkpt>
      <trkpt lat="49.27028" lon="-0.032">
        <ele>125.8</ele>
        <time>2024-10-13T10:01:57Z</time>
      </trkpt>
      <trkpt lat="49.27025" lon="-0.03215">
        <ele>125.8</ele>
        <time>2024-10-13T10:01:58Z</time>
      </trkpt>
      <trkpt lat="49.27021" lon="-0.0323">
        <ele>125.8</ele>
        <time>2024-10-13T10:01:59Z</time>
      </trkpt>
      <trkpt lat="49.27018" lon="-0.03245">
        <ele>125.8</ele>
        <time>2024-10-13T10:02:00Z</time>
      </trkpt>
      <trkpt lat="49.27016" lon="-0.03261">
        <ele>125.8</ele>
        <time>2024-10-13T10:02:01Z</time>
      </trkpt>
      <trkpt lat="49.27014" lon="-0.03277">
        <ele>125.6</ele>
        <time>2024-10-13T10:02:02Z</time>
      </trkpt>
      <trkpt lat="49.27012" lon="-0.03293">
        <ele>125.6</ele>
        <time>2024-10-13T10:02:03Z</time>
      </trkpt>
      <trkpt lat="49.2701" lon="-0.03309">
        <ele>125.6</ele>
        <time>2024-10-13T10:02:04Z</time>
      </trkpt>
      <trkpt lat="49.27009" lon="-0.03325">
        <ele>125.8</ele>
        <time>2024-10-13T10:02:05Z</time>
      </trkpt>
      <trkpt lat="49.27008" lon="-0.03341">
        <ele>125.6</ele>
        <time>2024-10-13T10:02:06Z</time>
      </trkpt>
      <trkpt lat="49.27007" lon="-0.03356">
        <ele>125.6</ele>
        <time>2024-10-13T10:02:07Z</time>
      </trkpt>
      <trkpt lat="49.27007" lon="-0.03372">
        <ele>125.6</ele>
        <time>2024-10-13T10:02:08Z</time>
      </trkpt>
      <trkpt lat="49.27007" lon="-0.03388">
        <ele>125.8</ele>
        <time>2024-10-13T10:02:09Z</time>
      </trkpt>
      <trkpt lat="49.27006" lon="-0.03404">
        <ele>125.8</ele>
        <time>2024-10-13T10:02:10Z</time>
      </trkpt>
      <trkpt lat="49.27006" lon="-0.0342">
        <ele>125.6</ele>
        <time>2024-10-13T10:02:11Z</time>
      </trkpt>
      <trkpt lat="49.27005" lon="-0.03437">
        <ele>125.4</ele>
        <time>2024-10-13T10:02:12Z</time>
      </trkpt>
      <trkpt lat="49.27005" lon="-0.03453">
        <ele>125.4</ele>
        <time>2024-10-13T10:02:13Z</time>
      </trkpt>
      <trkpt lat="49.27004" lon="-0.0347">
        <ele>125.4</ele>
        <time>2024-10-13T10:02:14Z</time>
      </trkpt>
      <trkpt lat="49.27003" lon="-0.03487">
        <ele>125.4</ele>
        <time>2024-10-13T10:02:15Z</time>
      </trkpt>
      <trkpt lat="49.27002" lon="-0.03504">
        <ele>125.4</ele>
        <time>2024-10-13T10:02:16Z</time>
      </trkpt>
      <trkpt lat="49.27001" lon="-0.0352">
        <ele>125.4</ele>
        <time>2024-10-13T10:02:17Z</time>
      </trkpt>
      <trkpt lat="49.26998" lon="-0.03536">
        <ele>125.4</ele>
        <time>2024-10-13T10:02:18Z</time>
      </trkpt>
      <trkpt lat="49.26996" lon="-0.03552">
        <ele>125.4</ele>
        <time>2024-10-13T10:02:19Z</time>
      </trkpt>
      <trkpt lat="49.26993" lon="-0.03568">
        <ele>125.2</ele>
        <time>2024-10-13T10:02:20Z</time>
      </trkpt>
      <trkpt lat="49.2699" lon="-0.03584">
        <ele>125.2</ele>
        <time>2024-10-13T10:02:21Z</time>
      </trkpt>
      <trkpt lat="49.26986" lon="-0.03599">
        <ele>125.2</ele>
        <time>2024-10-13T10:02:22Z</time>
      </trkpt>
      <trkpt lat="49.26982" lon="-0.03614">
        <ele>125.2</ele>
        <time>2024-10-13T10:02:23Z</time>
      </trkpt>
      <trkpt lat="49.26978" lon="-0.0363">
        <ele>125.2</ele>
        <time>2024-10-13T10:02:24Z</time>
      </trkpt>
      <trkpt lat="49.26975" lon="-0.03645">
        <ele>125.2</ele>
        <time>2024-10-13T10:02:25Z</time>
      </trkpt>
      <trkpt lat="49.26971" lon="-0.03661">
        <ele>125</ele>
        <time>2024-10-13T10:02:26Z</time>
      </trkpt>
      <trkpt lat="49.26967" lon="-0.03676">
        <ele>125</ele>
        <time>2024-10-13T10:02:27Z</time>
      </trkpt>
      <trkpt lat="49.26964" lon="-0.03691">
        <ele>124.6</ele>
        <time>2024-10-13T10:02:28Z</time>
      </trkpt>
      <trkpt lat="49.26961" lon="-0.03706">
        <ele>124.4</ele>
        <time>2024-10-13T10:02:29Z</time>
      </trkpt>
      <trkpt lat="49.26958" lon="-0.03722">
        <ele>124.4</ele>
        <time>2024-10-13T10:02:30Z</time>
      </trkpt>
      <trkpt lat="49.26955" lon="-0.03738">
        <ele>124.4</ele>
        <time>2024-10-13T10:02:31Z</time>
      </trkpt>
      <trkpt lat="49.26953" lon="-0.03754">
        <ele>124.2</ele>
        <time>2024-10-13T10:02:32Z</time>
      </trkpt>
      <trkpt lat="49.26951" lon="-0.03769">
        <ele>124.2</ele>
        <time>2024-10-13T10:02:33Z</time>
      </trkpt>
      <trkpt lat="49.26951" lon="-0.03785">
        <ele>124.2</ele>
        <time>2024-10-13T10:02:34Z</time>
      </trkpt>
      <trkpt lat="49.2695" lon="-0.03801">
        <ele>124.2</ele>
        <time>2024-10-13T10:02:35Z</time>
      </trkpt>
      <trkpt lat="49.2695" lon="-0.03817">
        <ele>124.2</ele>
        <time>2024-10-13T10:02:36Z</time>
      </trkpt>
      <trkpt lat="49.2695" lon="-0.03832">
        <ele>124.2</ele>
        <time>2024-10-13T10:02:37Z</time>
      </trkpt>
      <trkpt lat="49.26951" lon="-0.03847">
        <ele>124.2</ele>
        <time>2024-10-13T10:02:38Z</time>
      </trkpt>
      <trkpt lat="49.26953" lon="-0.03863">
        <ele>124.2</ele>
        <time>2024-10-13T10:02:39Z</time>
      </trkpt>
      <trkpt lat="49.26954" lon="-0.03878">
        <ele>124.2</ele>
        <time>2024-10-13T10:02:40Z</time>
      </trkpt>
      <trkpt lat="49.26956" lon="-0.03893">
        <ele>124.2</ele>
        <time>2024-10-13T10:02:41Z</time>
      </trkpt>
      <trkpt lat="49.26958" lon="-0.03909">
        <ele>124.2</ele>
        <time>2024-10-13T10:02:42Z</time>
      </trkpt>
      <trkpt lat="49.2696" lon="-0.03925">
        <ele>124.2</ele>
        <time>2024-10-13T10:02:43Z</time>
      </trkpt>
      <trkpt lat="49.26962" lon="-0.0394">
        <ele>124.2</ele>
        <time>2024-10-13T10:02:44Z</time>
      </trkpt>
      <trkpt lat="49.26964" lon="-0.03956">
        <ele>124.4</ele>
        <time>2024-10-13T10:02:45Z</time>
      </trkpt>
      <trkpt lat="49.26966" lon="-0.03971">
        <ele>124.4</ele>
        <time>2024-10-13T10:02:46Z</time>
      </trkpt>
      <trkpt lat="49.26968" lon="-0.03987">
        <ele>124.4</ele>
        <time>2024-10-13T10:02:47Z</time>
      </trkpt>
      <trkpt lat="49.2697" lon="-0.04002">
        <ele>124.4</ele>
        <time>2024-10-13T10:02:48Z</time>
      </trkpt>
      <trkpt lat="49.26972" lon="-0.04017">
        <ele>124.4</ele>
        <time>2024-10-13T10:02:49Z</time>
      </trkpt>
      <trkpt lat="49.26974" lon="-0.04033">
        <ele>124.4</ele>
        <time>2024-10-13T10:02:50Z</time>
      </trkpt>
      <trkpt lat="49.26976" lon="-0.04049">
        <ele>124.4</ele>
        <time>2024-10-13T10:02:51Z</time>
      </trkpt>
      <trkpt lat="49.26979" lon="-0.04064">
        <ele>124.4</ele>
        <time>2024-10-13T10:02:52Z</time>
      </trkpt>
      <trkpt lat="49.26981" lon="-0.0408">
        <ele>124.2</ele>
        <time>2024-10-13T10:02:53Z</time>
      </trkpt>
      <trkpt lat="49.26983" lon="-0.04096">
        <ele>124.2</ele>
        <time>2024-10-13T10:02:54Z</time>
      </trkpt>
      <trkpt lat="49.26985" lon="-0.04112">
        <ele>124.2</ele>
        <time>2024-10-13T10:02:55Z</time>
      </trkpt>
      <trkpt lat="49.26988" lon="-0.04128">
        <ele>124.2</ele>
        <time>2024-10-13T10:02:56Z</time>
      </trkpt>
      <trkpt lat="49.26991" lon="-0.04143">
        <ele>124</ele>
        <time>2024-10-13T10:02:57Z</time>
      </trkpt>
      <trkpt lat="49.26995" lon="-0.04159">
        <ele>124</ele>
        <time>2024-10-13T10:02:58Z</time>
      </trkpt>
      <trkpt lat="49.26999" lon="-0.04174">
        <ele>124</ele>
        <time>2024-10-13T10:02:59Z</time>
      </trkpt>
      <trkpt lat="49.27004" lon="-0.04189">
        <ele>124</ele>
        <time>2024-10-13T10:03:00Z</time>
      </trkpt>
      <trkpt lat="49.27009" lon="-0.04203">
        <ele>124</ele>
        <time>2024-10-13T10:03:01Z</time>
      </trkpt>
      <trkpt lat="49.27014" lon="-0.04217">
        <ele>123.8</ele>
        <time>2024-10-13T10:03:02Z</time>
      </trkpt>
      <trkpt lat="49.27021" lon="-0.04231">
        <ele>123.8</ele>
        <time>2024-10-13T10:03:03Z</time>
      </trkpt>
      <trkpt lat="49.27027" lon="-0.04244">
        <ele>123.8</ele>
        <time>2024-10-13T10:03:04Z</time>
      </trkpt>
      <trkpt lat="49.27033" lon="-0.04258">
        <ele>123.6</ele>
        <time>2024-10-13T10:03:05Z</time>
      </trkpt>
      <trkpt lat="49.27039" lon="-0.04271">
        <ele>123.6</ele>
        <time>2024-10-13T10:03:06Z</time>
      </trkpt>
      <trkpt lat="49.27045" lon="-0.04285">
        <ele>123.6</ele>
        <time>2024-10-13T10:03:07Z</time>
      </trkpt>
      <trkpt lat="49.27051" lon="-0.04298">
        <ele>123.6</ele>
        <time>2024-10-13T10:03:08Z</time>
      </trkpt>
      <trkpt lat="49.27057" lon="-0.04312">
        <ele>123.4</ele>
        <time>2024-10-13T10:03:09Z</time>
      </trkpt>
      <trkpt lat="49.27063" lon="-0.04325">
        <ele>123.4</ele>
        <time>2024-10-13T10:03:10Z</time>
      </trkpt>
      <trkpt lat="49.27069" lon="-0.04339">
        <ele>123.4</ele>
        <time>2024-10-13T10:03:11Z</time>
      </trkpt>
      <trkpt lat="49.27075" lon="-0.04352">
        <ele>123.4</ele>
        <time>2024-10-13T10:03:12Z</time>
      </trkpt>
      <trkpt lat="49.27081" lon="-0.04365">
        <ele>123.4</ele>
        <time>2024-10-13T10:03:13Z</time>
      </trkpt>
      <trkpt lat="49.27087" lon="-0.04378">
        <ele>123.4</ele>
        <time>2024-10-13T10:03:14Z</time>
      </trkpt>
      <trkpt lat="49.27092" lon="-0.04391">
        <ele>123.4</ele>
        <time>2024-10-13T10:03:15Z</time>
      </trkpt>
      <trkpt lat="49.27098" lon="-0.04405">
        <ele>123.4</ele>
        <time>2024-10-13T10:03:16Z</time>
      </trkpt>
      <trkpt lat="49.27103" lon="-0.04418">
        <ele>123.4</ele>
        <time>2024-10-13T10:03:17Z</time>
      </trkpt>
      <trkpt lat="49.27108" lon="-0.04432">
        <ele>123.4</ele>
        <time>2024-10-13T10:03:18Z</time>
      </trkpt>
      <trkpt lat="49.27112" lon="-0.04445">
        <ele>123.4</ele>
        <time>2024-10-13T10:03:19Z</time>
      </trkpt>
      <trkpt lat="49.27117" lon="-0.0446">
        <ele>123.4</ele>
        <time>2024-10-13T10:03:20Z</time>
      </trkpt>
      <trkpt lat="49.27121" lon="-0.04474">
        <ele>123.4</ele>
        <time>2024-10-13T10:03:21Z</time>
      </trkpt>
      <trkpt lat="49.27125" lon="-0.04488">
        <ele>123.4</ele>
        <time>2024-10-13T10:03:22Z</time>
      </trkpt>
      <trkpt lat="49.27129" lon="-0.04502">
        <ele>123.4</ele>
        <time>2024-10-13T10:03:23Z</time>
      </trkpt>
      <trkpt lat="49.27132" lon="-0.04517">
        <ele>123.4</ele>
        <time>2024-10-13T10:03:24Z</time>
      </trkpt>
      <trkpt lat="49.27135" lon="-0.04532">
        <ele>123.2</ele>
        <time>2024-10-13T10:03:25Z</time>
      </trkpt>
      <trkpt lat="49.27138" lon="-0.04547">
        <ele>123.2</ele>
        <time>2024-10-13T10:03:26Z</time>
      </trkpt>
      <trkpt lat="49.27141" lon="-0.04561">
        <ele>123</ele>
        <time>2024-10-13T10:03:27Z</time>
      </trkpt>
      <trkpt lat="49.27143" lon="-0.04576">
        <ele>123</ele>
        <time>2024-10-13T10:03:28Z</time>
      </trkpt>
      <trkpt lat="49.27145" lon="-0.04592">
        <ele>123</ele>
        <time>2024-10-13T10:03:29Z</time>
      </trkpt>
      <trkpt lat="49.27148" lon="-0.04607">
        <ele>122.8</ele>
        <time>2024-10-13T10:03:30Z</time>
      </trkpt>
      <trkpt lat="49.2715" lon="-0.04622">
        <ele>122.8</ele>
        <time>2024-10-13T10:03:31Z</time>
      </trkpt>
      <trkpt lat="49.27153" lon="-0.04637">
        <ele>122.8</ele>
        <time>2024-10-13T10:03:32Z</time>
      </trkpt>
      <trkpt lat="49.27155" lon="-0.04652">
        <ele>122.8</ele>
        <time>2024-10-13T10:03:33Z</time>
      </trkpt>
      <trkpt lat="49.27158" lon="-0.04667">
        <ele>122.8</ele>
        <time>2024-10-13T10:03:34Z</time>
      </trkpt>
      <trkpt lat="49.27161" lon="-0.04682">
        <ele>122.8</ele>
        <time>2024-10-13T10:03:35Z</time>
      </trkpt>
      <trkpt lat="49.27164" lon="-0.04697">
        <ele>122.6</ele>
        <time>2024-10-13T10:03:36Z</time>
      </trkpt>
      <trkpt lat="49.27167" lon="-0.04712">
        <ele>122.6</ele>
        <time>2024-10-13T10:03:37Z</time>
      </trkpt>
      <trkpt lat="49.27171" lon="-0.04726">
        <ele>122.6</ele>
        <time>2024-10-13T10:03:38Z</time>
      </trkpt>
      <trkpt lat="49.27176" lon="-0.04741">
        <ele>122.6</ele>
        <time>2024-10-13T10:03:39Z</time>
      </trkpt>
      <trkpt lat="49.27181" lon="-0.04755">
        <ele>122.4</ele>
        <time>2024-10-13T10:03:40Z</time>
      </trkpt>
      <trkpt lat="49.27187" lon="-0.04768">
        <ele>122.4</ele>
        <time>2024-10-13T10:03:41Z</time>
      </trkpt>
      <trkpt lat="49.27194" lon="-0.0478">
        <ele>122.4</ele>
        <time>2024-10-13T10:03:42Z</time>
      </trkpt>
      <trkpt lat="49.27201" lon="-0.04792">
        <ele>122.4</ele>
        <time>2024-10-13T10:03:43Z</time>
      </trkpt>
      <trkpt lat="49.27208" lon="-0.04804">
        <ele>122.4</ele>
        <time>2024-10-13T10:03:44Z</time>
      </trkpt>
      <trkpt lat="49.27215" lon="-0.04815">
        <ele>122.4</ele>
        <time>2024-10-13T10:03:45Z</time>
      </trkpt>
      <trkpt lat="49.27222" lon="-0.04826">
        <ele>122.4</ele>
        <time>2024-10-13T10:03:46Z</time>
      </trkpt>
      <trkpt lat="49.27229" lon="-0.04838">
        <ele>122.4</ele>
        <time>2024-10-13T10:03:47Z</time>
      </trkpt>
      <trkpt lat="49.27235" lon="-0.04849">
        <ele>122.4</ele>
        <time>2024-10-13T10:03:48Z</time>
      </trkpt>
      <trkpt lat="49.27242" lon="-0.04861">
        <ele>122.4</ele>
        <time>2024-10-13T10:03:49Z</time>
      </trkpt>
      <trkpt lat="49.27248" lon="-0.04874">
        <ele>122.4</ele>
        <time>2024-10-13T10:03:50Z</time>
      </trkpt>
      <trkpt lat="49.27255" lon="-0.04886">
        <ele>122.4</ele>
        <time>2024-10-13T10:03:51Z</time>
      </trkpt>
      <trkpt lat="49.27261" lon="-0.04899">
        <ele>122.4</ele>
        <time>2024-10-13T10:03:52Z</time>
      </trkpt>
      <trkpt lat="49.27266" lon="-0.04913">
        <ele>122.4</ele>
        <time>2024-10-13T10:03:53Z</time>
      </trkpt>
      <trkpt lat="49.27271" lon="-0.04927">
        <ele>122.4</ele>
        <time>2024-10-13T10:03:54Z</time>
      </trkpt>
      <trkpt lat="49.27275" lon="-0.0494">
        <ele>122.4</ele>
        <time>2024-10-13T10:03:55Z</time>
      </trkpt>
      <trkpt lat="49.2728" lon="-0.04954">
        <ele>122.2</ele>
        <time>2024-10-13T10:03:56Z</time>
      </trkpt>
      <trkpt lat="49.27284" lon="-0.04968">
        <ele>122.2</ele>
        <time>2024-10-13T10:03:57Z</time>
      </trkpt>
      <trkpt lat="49.27288" lon="-0.04982">
        <ele>122.2</ele>
        <time>2024-10-13T10:03:58Z</time>
      </trkpt>
      <trkpt lat="49.27293" lon="-0.04996">
        <ele>122.2</ele>
        <time>2024-10-13T10:03:59Z</time>
      </trkpt>
      <trkpt lat="49.27297" lon="-0.05009">
        <ele>122</ele>
        <time>2024-10-13T10:04:00Z</time>
      </trkpt>
      <trkpt lat="49.27302" lon="-0.05023">
        <ele>121.8</ele>
        <time>2024-10-13T10:04:01Z</time>
      </trkpt>
      <trkpt lat="49.27306" lon="-0.05036">
        <ele>121.8</ele>
        <time>2024-10-13T10:04:02Z</time>
      </trkpt>
      <trkpt lat="49.27311" lon="-0.05049">
        <ele>121.8</ele>
        <time>2024-10-13T10:04:03Z</time>
      </trkpt>
      <trkpt lat="49.27315" lon="-0.05063">
        <ele>121.8</ele>
        <time>2024-10-13T10:04:04Z</time>
      </trkpt>
      <trkpt lat="49.2732" lon="-0.05076">
        <ele>121.6</ele>
        <time>2024-10-13T10:04:05Z</time>
      </trkpt>
      <trkpt lat="49.27324" lon="-0.0509">
        <ele>121.6</ele>
        <time>2024-10-13T10:04:06Z</time>
      </trkpt>
      <trkpt lat="49.27329" lon="-0.05103">
        <ele>121.6</ele>
        <time>2024-10-13T10:04:07Z</time>
      </trkpt>
      <trkpt lat="49.27333" lon="-0.05116">
        <ele>121.6</ele>
        <time>2024-10-13T10:04:08Z</time>
      </trkpt>
      <trkpt lat="49.27338" lon="-0.05129">
        <ele>121.6</ele>
        <time>2024-10-13T10:04:09Z</time>
      </trkpt>
      <trkpt lat="49.27343" lon="-0.05142">
        <ele>121.6</ele>
        <time>2024-10-13T10:04:10Z</time>
      </trkpt>
      <trkpt lat="49.27347" lon="-0.05156">
        <ele>121.6</ele>
        <time>2024-10-13T10:04:11Z</time>
      </trkpt>
      <trkpt lat="49.27351" lon="-0.05169">
        <ele>121.6</ele>
        <time>2024-10-13T10:04:12Z</time>
      </trkpt>
      <trkpt lat="49.27356" lon="-0.05183">
        <ele>121.6</ele>
        <time>2024-10-13T10:04:13Z</time>
      </trkpt>
      <trkpt lat="49.2736" lon="-0.05196">
        <ele>121.6</ele>
        <time>2024-10-13T10:04:14Z</time>
      </trkpt>
      <trkpt lat="49.27363" lon="-0.0521">
        <ele>121.6</ele>
        <time>2024-10-13T10:04:15Z</time>
      </trkpt>
      <trkpt lat="49.27367" lon="-0.05224">
        <ele>121.6</ele>
        <time>2024-10-13T10:04:16Z</time>
      </trkpt>
      <trkpt lat="49.27371" lon="-0.05238">
        <ele>121.6</ele>
        <time>2024-10-13T10:04:17Z</time>
      </trkpt>
      <trkpt lat="49.27374" lon="-0.05252">
        <ele>121.6</ele>
        <time>2024-10-13T10:04:18Z</time>
      </trkpt>
      <trkpt lat="49.27377" lon="-0.05267">
        <ele>121.6</ele>
        <time>2024-10-13T10:04:19Z</time>
      </trkpt>
      <trkpt lat="49.27381" lon="-0.05281">
        <ele>121.6</ele>
        <time>2024-10-13T10:04:20Z</time>
      </trkpt>
      <trkpt lat="49.27383" lon="-0.05295">
        <ele>121.6</ele>
        <time>2024-10-13T10:04:21Z</time>
      </trkpt>
      <trkpt lat="49.27386" lon="-0.0531">
        <ele>121.4</ele>
        <time>2024-10-13T10:04:22Z</time>
      </trkpt>
      <trkpt lat="49.27389" lon="-0.05324">
        <ele>121.4</ele>
        <time>2024-10-13T10:04:23Z</time>
      </trkpt>
      <trkpt lat="49.27392" lon="-0.05337">
        <ele>121.4</ele>
        <time>2024-10-13T10:04:24Z</time>
      </trkpt>
      <trkpt lat="49.27395" lon="-0.05352">
        <ele>121.4</ele>
        <time>2024-10-13T10:04:25Z</time>
      </trkpt>
      <trkpt lat="49.27398" lon="-0.05366">
        <ele>121.4</ele>
        <time>2024-10-13T10:04:26Z</time>
      </trkpt>
      <trkpt lat="49.27401" lon="-0.0538">
        <ele>121.4</ele>
        <time>2024-10-13T10:04:27Z</time>
      </trkpt>
      <trkpt lat="49.27404" lon="-0.05394">
        <ele>121.4</ele>
        <time>2024-10-13T10:04:28Z</time>
      </trkpt>
      <trkpt lat="49.27407" lon="-0.05408">
        <ele>121.4</ele>
        <time>2024-10-13T10:04:29Z</time>
      </trkpt>
      <trkpt lat="49.2741" lon="-0.05422">
        <ele>121.4</ele>
        <time>2024-10-13T10:04:30Z</time>
      </trkpt>
      <trkpt lat="49.27413" lon="-0.05436">
        <ele>121.4</ele>
        <time>2024-10-13T10:04:31Z</time>
      </trkpt>
      <trkpt lat="49.27416" lon="-0.0545">
        <ele>121.4</ele>
        <time>2024-10-13T10:04:32Z</time>
      </trkpt>
      <trkpt lat="49.27419" lon="-0.05464">
        <ele>121.6</ele>
        <time>2024-10-13T10:04:33Z</time>
      </trkpt>
      <trkpt lat="49.27422" lon="-0.05478">
        <ele>121.6</ele>
        <time>2024-10-13T10:04:34Z</time>
      </trkpt>
      <trkpt lat="49.27425" lon="-0.05492">
        <ele>121.4</ele>
        <time>2024-10-13T10:04:35Z</time>
      </trkpt>
      <trkpt lat="49.27428" lon="-0.05506">
        <ele>121.4</ele>
        <time>2024-10-13T10:04:36Z</time>
      </trkpt>
      <trkpt lat="49.27431" lon="-0.0552">
        <ele>121.4</ele>
        <time>2024-10-13T10:04:37Z</time>
      </trkpt>
      <trkpt lat="49.27434" lon="-0.05534">
        <ele>121.2</ele>
        <time>2024-10-13T10:04:38Z</time>
      </trkpt>
      <trkpt lat="49.27437" lon="-0.05548">
        <ele>121.2</ele>
        <time>2024-10-13T10:04:39Z</time>
      </trkpt>
      <trkpt lat="49.2744" lon="-0.05562">
        <ele>121.2</ele>
        <time>2024-10-13T10:04:40Z</time>
      </trkpt>
      <trkpt lat="49.27443" lon="-0.05577">
        <ele>121.2</ele>
        <time>2024-10-13T10:04:41Z</time>
      </trkpt>
      <trkpt lat="49.27447" lon="-0.05591">
        <ele>121.2</ele>
        <time>2024-10-13T10:04:42Z</time>
      </trkpt>
      <trkpt lat="49.2745" lon="-0.05605">
        <ele>121.2</ele>
        <time>2024-10-13T10:04:43Z</time>
      </trkpt>
      <trkpt lat="49.27453" lon="-0.05619">
        <ele>121</ele>
        <time>2024-10-13T10:04:44Z</time>
      </trkpt>
      <trkpt lat="49.27457" lon="-0.05633">
        <ele>120.8</ele>
        <time>2024-10-13T10:04:45Z</time>
      </trkpt>
      <trkpt lat="49.2746" lon="-0.05648">
        <ele>120.6</ele>
        <time>2024-10-13T10:04:46Z</time>
      </trkpt>
      <trkpt lat="49.27464" lon="-0.05662">
        <ele>120.4</ele>
        <time>2024-10-13T10:04:47Z</time>
      </trkpt>
      <trkpt lat="49.27468" lon="-0.05675">
        <ele>120.4</ele>
        <time>2024-10-13T10:04:48Z</time>
      </trkpt>
      <trkpt lat="49.27472" lon="-0.05689">
        <ele>120.2</ele>
        <time>2024-10-13T10:04:49Z</time>
      </trkpt>
      <trkpt lat="49.27476" lon="-0.05703">
        <ele>120.2</ele>
        <time>2024-10-13T10:04:50Z</time>
      </trkpt>
      <trkpt lat="49.2748" lon="-0.05717">
        <ele>120.2</ele>
        <time>2024-10-13T10:04:51Z</time>
      </trkpt>
      <trkpt lat="49.27484" lon="-0.05731">
        <ele>120.2</ele>
        <time>2024-10-13T10:04:52Z</time>
      </trkpt>
      <trkpt lat="49.27488" lon="-0.05746">
        <ele>120</ele>
        <time>2024-10-13T10:04:53Z</time>
      </trkpt>
      <trkpt lat="49.27491" lon="-0.0576">
        <ele>120</ele>
        <time>2024-10-13T10:04:54Z</time>
      </trkpt>
      <trkpt lat="49.27495" lon="-0.05775">
        <ele>120</ele>
        <time>2024-10-13T10:04:55Z</time>
      </trkpt>
      <trkpt lat="49.27499" lon="-0.05789">
        <ele>120</ele>
        <time>2024-10-13T10:04:56Z</time>
      </trkpt>
      <trkpt lat="49.27503" lon="-0.05803">
        <ele>119.8</ele>
        <time>2024-10-13T10:04:57Z</time>
      </trkpt>
      <trkpt lat="49.27507" lon="-0.05817">
        <ele>119.8</ele>
        <time>2024-10-13T10:04:58Z</time>
      </trkpt>
      <trkpt lat="49.27511" lon="-0.05832">
        <ele>119.6</ele>
        <time>2024-10-13T10:04:59Z</time>
      </trkpt>
      <trkpt lat="49.27515" lon="-0.05846">
        <ele>119.4</ele>
        <time>2024-10-13T10:05:00Z</time>
      </trkpt>
      <trkpt lat="49.27519" lon="-0.05861">
        <ele>119.2</ele>
        <time>2024-10-13T10:05:01Z</time>
      </trkpt>
      <trkpt lat="49.27523" lon="-0.05875">
        <ele>119.2</ele>
        <time>2024-10-13T10:05:02Z</time>
      </trkpt>
      <trkpt lat="49.27527" lon="-0.05889">
        <ele>119</ele>
        <time>2024-10-13T10:05:03Z</time>
      </trkpt>
      <trkpt lat="49.27531" lon="-0.05903">
        <ele>118.8</ele>
        <time>2024-10-13T10:05:04Z</time>
      </trkpt>
      <trkpt lat="49.27535" lon="-0.05916">
        <ele>118.4</ele>
        <time>2024-10-13T10:05:05Z</time>
      </trkpt>
      <trkpt lat="49.27539" lon="-0.05929">
        <ele>118</ele>
        <time>2024-10-13T10:05:06Z</time>
      </trkpt>
      <trkpt lat="49.27543" lon="-0.05943">
        <ele>117.6</ele>
        <time>2024-10-13T10:05:07Z</time>
      </trkpt>
      <trkpt lat="49.27546" lon="-0.05956">
        <ele>117.4</ele>
        <time>2024-10-13T10:05:08Z</time>
      </trkpt>
      <trkpt lat="49.2755" lon="-0.0597">
        <ele>117.4</ele>
        <time>2024-10-13T10:05:09Z</time>
      </trkpt>
      <trkpt lat="49.27553" lon="-0.05983">
        <ele>117.2</ele>
        <time>2024-10-13T10:05:10Z</time>
      </trkpt>
      <trkpt lat="49.27557" lon="-0.05997">
        <ele>117.2</ele>
        <time>2024-10-13T10:05:11Z</time>
      </trkpt>
      <trkpt lat="49.2756" lon="-0.06011">
        <ele>117.2</ele>
        <time>2024-10-13T10:05:12Z</time>
      </trkpt>
      <trkpt lat="49.27564" lon="-0.06025">
        <ele>117</ele>
        <time>2024-10-13T10:05:13Z</time>
      </trkpt>
      <trkpt lat="49.27568" lon="-0.0604">
        <ele>117</ele>
        <time>2024-10-13T10:05:14Z</time>
      </trkpt>
      <trkpt lat="49.27571" lon="-0.06054">
        <ele>117</ele>
        <time>2024-10-13T10:05:15Z</time>
      </trkpt>
      <trkpt lat="49.27575" lon="-0.06068">
        <ele>116.8</ele>
        <time>2024-10-13T10:05:16Z</time>
      </trkpt>
      <trkpt lat="49.27579" lon="-0.06082">
        <ele>116.6</ele>
        <time>2024-10-13T10:05:17Z</time>
      </trkpt>
      <trkpt lat="49.27583" lon="-0.06096">
        <ele>116.6</ele>
        <time>2024-10-13T10:05:18Z</time>
      </trkpt>
      <trkpt lat="49.27588" lon="-0.06109">
        <ele>116.6</ele>
        <time>2024-10-13T10:05:19Z</time>
      </trkpt>
      <trkpt lat="49.27591" lon="-0.06122">
        <ele>116.6</ele>
        <time>2024-10-13T10:05:20Z</time>
      </trkpt>
      <trkpt lat="49.27595" lon="-0.06136">
        <ele>116.6</ele>
        <time>2024-10-13T10:05:21Z</time>
      </trkpt>
      <trkpt lat="49.27598" lon="-0.06149">
        <ele>116.6</ele>
        <time>2024-10-13T10:05:22Z</time>
      </trkpt>
      <trkpt lat="49.27601" lon="-0.06163">
        <ele>116.6</ele>
        <time>2024-10-13T10:05:23Z</time>
      </trkpt>
      <trkpt lat="49.27605" lon="-0.06176">
        <ele>116.6</ele>
        <time>2024-10-13T10:05:24Z</time>
      </trkpt>
      <trkpt lat="49.27608" lon="-0.0619">
        <ele>116.6</ele>
        <time>2024-10-13T10:05:25Z</time>
      </trkpt>
      <trkpt lat="49.27611" lon="-0.06203">
        <ele>116.6</ele>
        <time>2024-10-13T10:05:26Z</time>
      </trkpt>
      <trkpt lat="49.27614" lon="-0.06217">
        <ele>116.8</ele>
        <time>2024-10-13T10:05:27Z</time>
      </trkpt>
      <trkpt lat="49.27617" lon="-0.06231">
        <ele>116.8</ele>
        <time>2024-10-13T10:05:28Z</time>
      </trkpt>
      <trkpt lat="49.27619" lon="-0.06245">
        <ele>116.8</ele>
        <time>2024-10-13T10:05:29Z</time>
      </trkpt>
      <trkpt lat="49.27622" lon="-0.06259">
        <ele>117</ele>
        <time>2024-10-13T10:05:30Z</time>
      </trkpt>
      <trkpt lat="49.27624" lon="-0.06272">
        <ele>117</ele>
        <time>2024-10-13T10:05:31Z</time>
      </trkpt>
      <trkpt lat="49.27626" lon="-0.06286">
        <ele>117</ele>
        <time>2024-10-13T10:05:32Z</time>
      </trkpt>
      <trkpt lat="49.27628" lon="-0.063">
        <ele>117.2</ele>
        <time>2024-10-13T10:05:33Z</time>
      </trkpt>
      <trkpt lat="49.27631" lon="-0.06313">
        <ele>117.4</ele>
        <time>2024-10-13T10:05:34Z</time>
      </trkpt>
      <trkpt lat="49.27633" lon="-0.06326">
        <ele>117.4</ele>
        <time>2024-10-13T10:05:35Z</time>
      </trkpt>
      <trkpt lat="49.27636" lon="-0.0634">
        <ele>117.6</ele>
        <time>2024-10-13T10:05:36Z</time>
      </trkpt>
      <trkpt lat="49.27638" lon="-0.06353">
        <ele>117.6</ele>
        <time>2024-10-13T10:05:37Z</time>
      </trkpt>
      <trkpt lat="49.27641" lon="-0.06366">
        <ele>117.8</ele>
        <time>2024-10-13T10:05:38Z</time>
      </trkpt>
      <trkpt lat="49.27643" lon="-0.0638">
        <ele>117.8</ele>
        <time>2024-10-13T10:05:39Z</time>
      </trkpt>
      <trkpt lat="49.27646" lon="-0.06393">
        <ele>118</ele>
        <time>2024-10-13T10:05:40Z</time>
      </trkpt>
      <trkpt lat="49.27648" lon="-0.06406">
        <ele>118</ele>
        <time>2024-10-13T10:05:41Z</time>
      </trkpt>
      <trkpt lat="49.2765" lon="-0.0642">
        <ele>118.2</ele>
        <time>2024-10-13T10:05:42Z</time>
      </trkpt>
      <trkpt lat="49.27653" lon="-0.06433">
        <ele>118.2</ele>
        <time>2024-10-13T10:05:43Z</time>
      </trkpt>
      <trkpt lat="49.27655" lon="-0.06447">
        <ele>118.2</ele>
        <time>2024-10-13T10:05:44Z</time>
      </trkpt>
      <trkpt lat="49.27657" lon="-0.0646">
        <ele>118.2</ele>
        <time>2024-10-13T10:05:45Z</time>
      </trkpt>
      <trkpt lat="49.27659" lon="-0.06473">
        <ele>118.2</ele>
        <time>2024-10-13T10:05:46Z</time>
      </trkpt>
      <trkpt lat="49.27662" lon="-0.06487">
        <ele>118.4</ele>
        <time>2024-10-13T10:05:47Z</time>
      </trkpt>
      <trkpt lat="49.27664" lon="-0.065">
        <ele>118.4</ele>
        <time>2024-10-13T10:05:48Z</time>
      </trkpt>
      <trkpt lat="49.27667" lon="-0.06513">
        <ele>118.4</ele>
        <time>2024-10-13T10:05:49Z</time>
      </trkpt>
      <trkpt lat="49.27669" lon="-0.06526">
        <ele>118.4</ele>
        <time>2024-10-13T10:05:50Z</time>
      </trkpt>
      <trkpt lat="49.27671" lon="-0.06539">
        <ele>118.4</ele>
        <time>2024-10-13T10:05:51Z</time>
      </trkpt>
      <trkpt lat="49.27674" lon="-0.06552">
        <ele>118.4</ele>
        <time>2024-10-13T10:05:52Z</time>
      </trkpt>
      <trkpt lat="49.27676" lon="-0.06564">
        <ele>118.4</ele>
        <time>2024-10-13T10:05:53Z</time>
      </trkpt>
      <trkpt lat="49.27679" lon="-0.06576">
        <ele>118.6</ele>
        <time>2024-10-13T10:05:54Z</time>
      </trkpt>
      <trkpt lat="49.27681" lon="-0.06589">
        <ele>118.6</ele>
        <time>2024-10-13T10:05:55Z</time>
      </trkpt>
      <trkpt lat="49.27684" lon="-0.06601">
        <ele>118.6</ele>
        <time>2024-10-13T10:05:56Z</time>
      </trkpt>
      <trkpt lat="49.27686" lon="-0.06613">
        <ele>118.6</ele>
        <time>2024-10-13T10:05:57Z</time>
      </trkpt>
      <trkpt lat="49.27688" lon="-0.06625">
        <ele>118.6</ele>
        <time>2024-10-13T10:05:58Z</time>
      </trkpt>
      <trkpt lat="49.2769" lon="-0.06637">
        <ele>118.8</ele>
        <time>2024-10-13T10:05:59Z</time>
      </trkpt>
      <trkpt lat="49.27693" lon="-0.06649">
        <ele>118.8</ele>
        <time>2024-10-13T10:06:00Z</time>
      </trkpt>
      <trkpt lat="49.27695" lon="-0.06661">
        <ele>118.8</ele>
        <time>2024-10-13T10:06:01Z</time>
      </trkpt>
      <trkpt lat="49.27697" lon="-0.06672">
        <ele>118.8</ele>
        <time>2024-10-13T10:06:02Z</time>
      </trkpt>
      <trkpt lat="49.27699" lon="-0.06684">
        <ele>118.8</ele>
        <time>2024-10-13T10:06:03Z</time>
      </trkpt>
      <trkpt lat="49.27701" lon="-0.06696">
        <ele>118.8</ele>
        <time>2024-10-13T10:06:04Z</time>
      </trkpt>
      <trkpt lat="49.27703" lon="-0.06708">
        <ele>118.8</ele>
        <time>2024-10-13T10:06:05Z</time>
      </trkpt>
      <trkpt lat="49.27705" lon="-0.06719">
        <ele>118.8</ele>
        <time>2024-10-13T10:06:06Z</time>
      </trkpt>
      <trkpt lat="49.27707" lon="-0.06731">
        <ele>118.8</ele>
        <time>2024-10-13T10:06:07Z</time>
      </trkpt>
      <trkpt lat="49.27709" lon="-0.06743">
        <ele>118.8</ele>
        <time>2024-10-13T10:06:08Z</time>
      </trkpt>
      <trkpt lat="49.27711" lon="-0.06755">
        <ele>119</ele>
        <time>2024-10-13T10:06:09Z</time>
      </trkpt>
      <trkpt lat="49.27712" lon="-0.06767">
        <ele>119</ele>
        <time>2024-10-13T10:06:10Z</time>
      </trkpt>
      <trkpt lat="49.27714" lon="-0.06779">
        <ele>119</ele>
        <time>2024-10-13T10:06:11Z</time>
      </trkpt>
      <trkpt lat="49.27716" lon="-0.06791">
        <ele>119</ele>
        <time>2024-10-13T10:06:12Z</time>
      </trkpt>
      <trkpt lat="49.27718" lon="-0.06803">
        <ele>119</ele>
        <time>2024-10-13T10:06:13Z</time>
      </trkpt>
      <trkpt lat="49.2772" lon="-0.06816">
        <ele>119</ele>
        <time>2024-10-13T10:06:14Z</time>
      </trkpt>
      <trkpt lat="49.27722" lon="-0.06828">
        <ele>119.2</ele>
        <time>2024-10-13T10:06:15Z</time>
      </trkpt>
      <trkpt lat="49.27724" lon="-0.0684">
        <ele>119.2</ele>
        <time>2024-10-13T10:06:16Z</time>
      </trkpt>
      <trkpt lat="49.27726" lon="-0.06852">
        <ele>119.2</ele>
        <time>2024-10-13T10:06:17Z</time>
      </trkpt>
      <trkpt lat="49.27727" lon="-0.06864">
        <ele>119.2</ele>
        <time>2024-10-13T10:06:18Z</time>
      </trkpt>
      <trkpt lat="49.27729" lon="-0.06877">
        <ele>119.4</ele>
        <time>2024-10-13T10:06:19Z</time>
      </trkpt>
      <trkpt lat="49.27732" lon="-0.06889">
        <ele>119.4</ele>
        <time>2024-10-13T10:06:20Z</time>
      </trkpt>
      <trkpt lat="49.27735" lon="-0.06901">
        <ele>119.4</ele>
        <time>2024-10-13T10:06:21Z</time>
      </trkpt>
      <trkpt lat="49.27737" lon="-0.06914">
        <ele>119.6</ele>
        <time>2024-10-13T10:06:22Z</time>
      </trkpt>
      <trkpt lat="49.2774" lon="-0.06926">
        <ele>119.6</ele>
        <time>2024-10-13T10:06:23Z</time>
      </trkpt>
      <trkpt lat="49.27744" lon="-0.06938">
        <ele>119.4</ele>
        <time>2024-10-13T10:06:24Z</time>
      </trkpt>
      <trkpt lat="49.27747" lon="-0.0695">
        <ele>119.4</ele>
        <time>2024-10-13T10:06:25Z</time>
      </trkpt>
      <trkpt lat="49.27751" lon="-0.06962">
        <ele>119.4</ele>
        <time>2024-10-13T10:06:26Z</time>
      </trkpt>
      <trkpt lat="49.27755" lon="-0.06974">
        <ele>119.4</ele>
        <time>2024-10-13T10:06:27Z</time>
      </trkpt>
      <trkpt lat="49.27759" lon="-0.06985">
        <ele>119.4</ele>
        <time>2024-10-13T10:06:28Z</time>
      </trkpt>
      <trkpt lat="49.27763" lon="-0.06997">
        <ele>119.4</ele>
        <time>2024-10-13T10:06:29Z</time>
      </trkpt>
      <trkpt lat="49.27767" lon="-0.07009">
        <ele>119.4</ele>
        <time>2024-10-13T10:06:30Z</time>
      </trkpt>
      <trkpt lat="49.27771" lon="-0.07021">
        <ele>119.4</ele>
        <time>2024-10-13T10:06:31Z</time>
      </trkpt>
      <trkpt lat="49.27776" lon="-0.07032">
        <ele>119.4</ele>
        <time>2024-10-13T10:06:32Z</time>
      </trkpt>
      <trkpt lat="49.2778" lon="-0.07044">
        <ele>119.6</ele>
        <time>2024-10-13T10:06:33Z</time>
      </trkpt>
      <trkpt lat="49.27785" lon="-0.07056">
        <ele>119.6</ele>
        <time>2024-10-13T10:06:34Z</time>
      </trkpt>
      <trkpt lat="49.27789" lon="-0.07067">
        <ele>119.6</ele>
        <time>2024-10-13T10:06:35Z</time>
      </trkpt>
      <trkpt lat="49.27794" lon="-0.0708">
        <ele>119.4</ele>
        <time>2024-10-13T10:06:36Z</time>
      </trkpt>
      <trkpt lat="49.27798" lon="-0.07092">
        <ele>119.4</ele>
        <time>2024-10-13T10:06:37Z</time>
      </trkpt>
      <trkpt lat="49.27802" lon="-0.07104">
        <ele>119.4</ele>
        <time>2024-10-13T10:06:38Z</time>
      </trkpt>
      <trkpt lat="49.27806" lon="-0.07117">
        <ele>119.4</ele>
        <time>2024-10-13T10:06:39Z</time>
      </trkpt>
      <trkpt lat="49.2781" lon="-0.07128">
        <ele>119.4</ele>
        <time>2024-10-13T10:06:40Z</time>
      </trkpt>
      <trkpt lat="49.27815" lon="-0.0714">
        <ele>119.4</ele>
        <time>2024-10-13T10:06:41Z</time>
      </trkpt>
      <trkpt lat="49.27819" lon="-0.07152">
        <ele>119.4</ele>
        <time>2024-10-13T10:06:42Z</time>
      </trkpt>
      <trkpt lat="49.27824" lon="-0.07165">
        <ele>119.4</ele>
        <time>2024-10-13T10:06:43Z</time>
      </trkpt>
      <trkpt lat="49.27828" lon="-0.07177">
        <ele>119.4</ele>
        <time>2024-10-13T10:06:44Z</time>
      </trkpt>
      <trkpt lat="49.27833" lon="-0.07189">
        <ele>119.4</ele>
        <time>2024-10-13T10:06:45Z</time>
      </trkpt>
      <trkpt lat="49.27838" lon="-0.072">
        <ele>119.4</ele>
        <time>2024-10-13T10:06:46Z</time>
      </trkpt>
      <trkpt lat="49.27843" lon="-0.07212">
        <ele>119.4</ele>
        <time>2024-10-13T10:06:47Z</time>
      </trkpt>
      <trkpt lat="49.27848" lon="-0.07224">
        <ele>119.4</ele>
        <time>2024-10-13T10:06:48Z</time>
      </trkpt>
      <trkpt lat="49.27854" lon="-0.07235">
        <ele>119.4</ele>
        <time>2024-10-13T10:06:49Z</time>
      </trkpt>
      <trkpt lat="49.27859" lon="-0.07246">
        <ele>119.4</ele>
        <time>2024-10-13T10:06:50Z</time>
      </trkpt>
      <trkpt lat="49.27865" lon="-0.07257">
        <ele>119.4</ele>
        <time>2024-10-13T10:06:51Z</time>
      </trkpt>
      <trkpt lat="49.2787" lon="-0.07268">
        <ele>119.4</ele>
        <time>2024-10-13T10:06:52Z</time>
      </trkpt>
      <trkpt lat="49.27875" lon="-0.0728">
        <ele>119.4</ele>
        <time>2024-10-13T10:06:53Z</time>
      </trkpt>
      <trkpt lat="49.27881" lon="-0.07292">
        <ele>119.4</ele>
        <time>2024-10-13T10:06:54Z</time>
      </trkpt>
      <trkpt lat="49.27886" lon="-0.07303">
        <ele>119.2</ele>
        <time>2024-10-13T10:06:55Z</time>
      </trkpt>
      <trkpt lat="49.27892" lon="-0.07314">
        <ele>119</ele>
        <time>2024-10-13T10:06:56Z</time>
      </trkpt>
      <trkpt lat="49.27897" lon="-0.07325">
        <ele>118.8</ele>
        <time>2024-10-13T10:06:57Z</time>
      </trkpt>
      <trkpt lat="49.27902" lon="-0.07337">
        <ele>118.8</ele>
        <time>2024-10-13T10:06:58Z</time>
      </trkpt>
      <trkpt lat="49.27907" lon="-0.07348">
        <ele>118.6</ele>
        <time>2024-10-13T10:06:59Z</time>
      </trkpt>
      <trkpt lat="49.27913" lon="-0.07359">
        <ele>118.4</ele>
        <time>2024-10-13T10:07:00Z</time>
      </trkpt>
      <trkpt lat="49.27919" lon="-0.0737">
        <ele>118.4</ele>
        <time>2024-10-13T10:07:01Z</time>
      </trkpt>
      <trkpt lat="49.27924" lon="-0.07381">
        <ele>118.4</ele>
        <time>2024-10-13T10:07:02Z</time>
      </trkpt>
      <trkpt lat="49.27929" lon="-0.07393">
        <ele>118.2</ele>
        <time>2024-10-13T10:07:03Z</time>
      </trkpt>
      <trkpt lat="49.27934" lon="-0.07404">
        <ele>118.2</ele>
        <time>2024-10-13T10:07:04Z</time>
      </trkpt>
      <trkpt lat="49.27939" lon="-0.07416">
        <ele>118</ele>
        <time>2024-10-13T10:07:05Z</time>
      </trkpt>
      <trkpt lat="49.27944" lon="-0.07427">
        <ele>118</ele>
        <time>2024-10-13T10:07:06Z</time>
      </trkpt>
      <trkpt lat="49.27949" lon="-0.07439">
        <ele>118</ele>
        <time>2024-10-13T10:07:07Z</time>
      </trkpt>
      <trkpt lat="49.27955" lon="-0.07452">
        <ele>118</ele>
        <time>2024-10-13T10:07:08Z</time>
      </trkpt>
      <trkpt lat="49.27959" lon="-0.07465">
        <ele>118</ele>
        <time>2024-10-13T10:07:09Z</time>
      </trkpt>
      <trkpt lat="49.27963" lon="-0.07478">
        <ele>118</ele>
        <time>2024-10-13T10:07:10Z</time>
      </trkpt>
      <trkpt lat="49.27968" lon="-0.07491">
        <ele>118</ele>
        <time>2024-10-13T10:07:11Z</time>
      </trkpt>
      <trkpt lat="49.27972" lon="-0.07505">
        <ele>117.8</ele>
        <time>2024-10-13T10:07:12Z</time>
      </trkpt>
      <trkpt lat="49.27977" lon="-0.07519">
        <ele>117.8</ele>
        <time>2024-10-13T10:07:13Z</time>
      </trkpt>
      <trkpt lat="49.27981" lon="-0.07533">
        <ele>117.8</ele>
        <time>2024-10-13T10:07:14Z</time>
      </trkpt>
      <trkpt lat="49.27986" lon="-0.07547">
        <ele>117.8</ele>
        <time>2024-10-13T10:07:15Z</time>
      </trkpt>
      <trkpt lat="49.2799" lon="-0.07562">
        <ele>117.8</ele>
        <time>2024-10-13T10:07:16Z</time>
      </trkpt>
      <trkpt lat="49.27995" lon="-0.07576">
        <ele>117.4</ele>
        <time>2024-10-13T10:07:17Z</time>
      </trkpt>
      <trkpt lat="49.27999" lon="-0.0759">
        <ele>117.2</ele>
        <time>2024-10-13T10:07:18Z</time>
      </trkpt>
      <trkpt lat="49.28004" lon="-0.07605">
        <ele>116.6</ele>
        <time>2024-10-13T10:07:19Z</time>
      </trkpt>
      <trkpt lat="49.28009" lon="-0.0762">
        <ele>116</ele>
        <time>2024-10-13T10:07:20Z</time>
      </trkpt>
      <trkpt lat="49.28013" lon="-0.07635">
        <ele>115.6</ele>
        <time>2024-10-13T10:07:21Z</time>
      </trkpt>
      <trkpt lat="49.28018" lon="-0.07649">
        <ele>115</ele>
        <time>2024-10-13T10:07:22Z</time>
      </trkpt>
      <trkpt lat="49.28023" lon="-0.07664">
        <ele>114.6</ele>
        <time>2024-10-13T10:07:23Z</time>
      </trkpt>
      <trkpt lat="49.28028" lon="-0.07678">
        <ele>114.2</ele>
        <time>2024-10-13T10:07:24Z</time>
      </trkpt>
      <trkpt lat="49.28033" lon="-0.07694">
        <ele>114</ele>
        <time>2024-10-13T10:07:25Z</time>
      </trkpt>
      <trkpt lat="49.28038" lon="-0.07709">
        <ele>113.6</ele>
        <time>2024-10-13T10:07:26Z</time>
      </trkpt>
      <trkpt lat="49.28043" lon="-0.07725">
        <ele>113.2</ele>
        <time>2024-10-13T10:07:27Z</time>
      </trkpt>
      <trkpt lat="49.28048" lon="-0.0774">
        <ele>112.8</ele>
        <time>2024-10-13T10:07:28Z</time>
      </trkpt>
      <trkpt lat="49.28053" lon="-0.07756">
        <ele>112.8</ele>
        <time>2024-10-13T10:07:29Z</time>
      </trkpt>
      <trkpt lat="49.28059" lon="-0.07771">
        <ele>112.2</ele>
        <time>2024-10-13T10:07:30Z</time>
      </trkpt>
      <trkpt lat="49.28064" lon="-0.07787">
        <ele>111.6</ele>
        <time>2024-10-13T10:07:31Z</time>
      </trkpt>
      <trkpt lat="49.28069" lon="-0.07803">
        <ele>111.2</ele>
        <time>2024-10-13T10:07:32Z</time>
      </trkpt>
      <trkpt lat="49.28074" lon="-0.07819">
        <ele>110.8</ele>
        <time>2024-10-13T10:07:33Z</time>
      </trkpt>
      <trkpt lat="49.28079" lon="-0.07835">
        <ele>110.4</ele>
        <time>2024-10-13T10:07:34Z</time>
      </trkpt>
      <trkpt lat="49.28084" lon="-0.07852">
        <ele>109.8</ele>
        <time>2024-10-13T10:07:35Z</time>
      </trkpt>
      <trkpt lat="49.2809" lon="-0.07869">
        <ele>109</ele>
        <time>2024-10-13T10:07:36Z</time>
      </trkpt>
      <trkpt lat="49.28095" lon="-0.07885">
        <ele>108.4</ele>
        <time>2024-10-13T10:07:37Z</time>
      </trkpt>
      <trkpt lat="49.28101" lon="-0.07902">
        <ele>107.6</ele>
        <time>2024-10-13T10:07:38Z</time>
      </trkpt>
      <trkpt lat="49.28108" lon="-0.07918">
        <ele>106.8</ele>
        <time>2024-10-13T10:07:39Z</time>
      </trkpt>
      <trkpt lat="49.28114" lon="-0.07935">
        <ele>106.2</ele>
        <time>2024-10-13T10:07:40Z</time>
      </trkpt>
      <trkpt lat="49.28122" lon="-0.0795">
        <ele>105.4</ele>
        <time>2024-10-13T10:07:41Z</time>
      </trkpt>
      <trkpt lat="49.28129" lon="-0.07964">
        <ele>104.8</ele>
        <time>2024-10-13T10:07:42Z</time>
      </trkpt>
      <trkpt lat="49.28137" lon="-0.07978">
        <ele>104.4</ele>
        <time>2024-10-13T10:07:43Z</time>
      </trkpt>
      <trkpt lat="49.28146" lon="-0.07992">
        <ele>104.2</ele>
        <time>2024-10-13T10:07:44Z</time>
      </trkpt>
      <trkpt lat="49.28155" lon="-0.08005">
        <ele>104</ele>
        <time>2024-10-13T10:07:45Z</time>
      </trkpt>
      <trkpt lat="49.28165" lon="-0.08018">
        <ele>104</ele>
        <time>2024-10-13T10:07:46Z</time>
      </trkpt>
      <trkpt lat="49.28175" lon="-0.0803">
        <ele>103.8</ele>
        <time>2024-10-13T10:07:47Z</time>
      </trkpt>
      <trkpt lat="49.28184" lon="-0.08042">
        <ele>103.6</ele>
        <time>2024-10-13T10:07:48Z</time>
      </trkpt>
      <trkpt lat="49.28194" lon="-0.08054">
        <ele>103.6</ele>
        <time>2024-10-13T10:07:49Z</time>
      </trkpt>
      <trkpt lat="49.28204" lon="-0.08066">
        <ele>103.4</ele>
        <time>2024-10-13T10:07:50Z</time>
      </trkpt>
      <trkpt lat="49.28214" lon="-0.08078">
        <ele>102.8</ele>
        <time>2024-10-13T10:07:51Z</time>
      </trkpt>
      <trkpt lat="49.28223" lon="-0.08091">
        <ele>102.4</ele>
        <time>2024-10-13T10:07:52Z</time>
      </trkpt>
      <trkpt lat="49.28233" lon="-0.08103">
        <ele>102.2</ele>
        <time>2024-10-13T10:07:53Z</time>
      </trkpt>
      <trkpt lat="49.28242" lon="-0.08114">
        <ele>101.8</ele>
        <time>2024-10-13T10:07:54Z</time>
      </trkpt>
      <trkpt lat="49.28252" lon="-0.08126">
        <ele>101.6</ele>
        <time>2024-10-13T10:07:55Z</time>
      </trkpt>
      <trkpt lat="49.28262" lon="-0.08137">
        <ele>101</ele>
        <time>2024-10-13T10:07:56Z</time>
      </trkpt>
      <trkpt lat="49.28272" lon="-0.08148">
        <ele>100.2</ele>
        <time>2024-10-13T10:07:57Z</time>
      </trkpt>
      <trkpt lat="49.28283" lon="-0.08157">
        <ele>99.6</ele>
        <time>2024-10-13T10:07:58Z</time>
      </trkpt>
      <trkpt lat="49.28294" lon="-0.08166">
        <ele>99.4</ele>
        <time>2024-10-13T10:07:59Z</time>
      </trkpt>
      <trkpt lat="49.28305" lon="-0.08174">
        <ele>99.4</ele>
        <time>2024-10-13T10:08:00Z</time>
      </trkpt>
      <trkpt lat="49.28316" lon="-0.08182">
        <ele>99</ele>
        <time>2024-10-13T10:08:01Z</time>
      </trkpt>
      <trkpt lat="49.28326" lon="-0.08191">
        <ele>98.6</ele>
        <time>2024-10-13T10:08:02Z</time>
      </trkpt>
      <trkpt lat="49.28336" lon="-0.08201">
        <ele>98.4</ele>
        <time>2024-10-13T10:08:03Z</time>
      </trkpt>
      <trkpt lat="49.28345" lon="-0.08214">
        <ele>98</ele>
        <time>2024-10-13T10:08:04Z</time>
      </trkpt>
      <trkpt lat="49.28353" lon="-0.08228">
        <ele>97.4</ele>
        <time>2024-10-13T10:08:05Z</time>
      </trkpt>
      <trkpt lat="49.28359" lon="-0.08244">
        <ele>96.6</ele>
        <time>2024-10-13T10:08:06Z</time>
      </trkpt>
      <trkpt lat="49.28365" lon="-0.08261">
        <ele>96.4</ele>
        <time>2024-10-13T10:08:07Z</time>
      </trkpt>
      <trkpt lat="49.28372" lon="-0.08277">
        <ele>96</ele>
        <time>2024-10-13T10:08:08Z</time>
      </trkpt>
      <trkpt lat="49.28381" lon="-0.08292">
        <ele>95.8</ele>
        <time>2024-10-13T10:08:09Z</time>
      </trkpt>
      <trkpt lat="49.2839" lon="-0.08305">
        <ele>95.8</ele>
        <time>2024-10-13T10:08:10Z</time>
      </trkpt>
      <trkpt lat="49.28402" lon="-0.08316">
        <ele>95.6</ele>
        <time>2024-10-13T10:08:11Z</time>
      </trkpt>
      <trkpt lat="49.28414" lon="-0.08324">
        <ele>95.2</ele>
        <time>2024-10-13T10:08:12Z</time>
      </trkpt>
      <trkpt lat="49.28427" lon="-0.08331">
        <ele>94.6</ele>
        <time>2024-10-13T10:08:13Z</time>
      </trkpt>
      <trkpt lat="49.28441" lon="-0.08337">
        <ele>93.8</ele>
        <time>2024-10-13T10:08:14Z</time>
      </trkpt>
      <trkpt lat="49.28454" lon="-0.08343">
        <ele>92.6</ele>
        <time>2024-10-13T10:08:15Z</time>
      </trkpt>
      <trkpt lat="49.28468" lon="-0.0835">
        <ele>91.2</ele>
        <time>2024-10-13T10:08:16Z</time>
      </trkpt>
      <trkpt lat="49.28481" lon="-0.08357">
        <ele>90.4</ele>
        <time>2024-10-13T10:08:17Z</time>
      </trkpt>
      <trkpt lat="49.28495" lon="-0.08364">
        <ele>89.4</ele>
        <time>2024-10-13T10:08:18Z</time>
      </trkpt>
      <trkpt lat="49.28509" lon="-0.08371">
        <ele>88.6</ele>
        <time>2024-10-13T10:08:19Z</time>
      </trkpt>
      <trkpt lat="49.28523" lon="-0.08378">
        <ele>87</ele>
        <time>2024-10-13T10:08:20Z</time>
      </trkpt>
      <trkpt lat="49.28537" lon="-0.08386">
        <ele>85</ele>
        <time>2024-10-13T10:08:21Z</time>
      </trkpt>
      <trkpt lat="49.28551" lon="-0.08393">
        <ele>83</ele>
        <time>2024-10-13T10:08:22Z</time>
      </trkpt>
      <trkpt lat="49.28565" lon="-0.08401">
        <ele>81.6</ele>
        <time>2024-10-13T10:08:23Z</time>
      </trkpt>
      <trkpt lat="49.28579" lon="-0.08409">
        <ele>80.8</ele>
        <time>2024-10-13T10:08:24Z</time>
      </trkpt>
      <trkpt lat="49.28592" lon="-0.08416">
        <ele>80</ele>
        <time>2024-10-13T10:08:25Z</time>
      </trkpt>
      <trkpt lat="49.28605" lon="-0.08424">
        <ele>79.4</ele>
        <time>2024-10-13T10:08:26Z</time>
      </trkpt>
      <trkpt lat="49.28618" lon="-0.08433">
        <ele>78.4</ele>
        <time>2024-10-13T10:08:27Z</time>
      </trkpt>
      <trkpt lat="49.2863" lon="-0.08444">
        <ele>77.4</ele>
        <time>2024-10-13T10:08:28Z</time>
      </trkpt>
      <trkpt lat="49.28642" lon="-0.08456">
        <ele>75.8</ele>
        <time>2024-10-13T10:08:29Z</time>
      </trkpt>
      <trkpt lat="49.28653" lon="-0.08469">
        <ele>75.8</ele>
        <time>2024-10-13T10:08:30Z</time>
      </trkpt>
      <trkpt lat="49.28664" lon="-0.08484">
        <ele>74.4</ele>
        <time>2024-10-13T10:08:31Z</time>
      </trkpt>
      <trkpt lat="49.28674" lon="-0.08499">
        <ele>73.4</ele>
        <time>2024-10-13T10:08:32Z</time>
      </trkpt>
      <trkpt lat="49.28684" lon="-0.08514">
        <ele>72.4</ele>
        <time>2024-10-13T10:08:33Z</time>
      </trkpt>
      <trkpt lat="49.28694" lon="-0.0853">
        <ele>71.8</ele>
        <time>2024-10-13T10:08:34Z</time>
      </trkpt>
      <trkpt lat="49.28704" lon="-0.08545">
        <ele>71</ele>
        <time>2024-10-13T10:08:35Z</time>
      </trkpt>
      <trkpt lat="49.28713" lon="-0.0856">
        <ele>70.2</ele>
        <time>2024-10-13T10:08:36Z</time>
      </trkpt>
      <trkpt lat="49.28723" lon="-0.08575">
        <ele>68.8</ele>
        <time>2024-10-13T10:08:37Z</time>
      </trkpt>
      <trkpt lat="49.28733" lon="-0.08591">
        <ele>67.4</ele>
        <time>2024-10-13T10:08:38Z</time>
      </trkpt>
      <trkpt lat="49.28742" lon="-0.08607">
        <ele>66.6</ele>
        <time>2024-10-13T10:08:39Z</time>
      </trkpt>
      <trkpt lat="49.28752" lon="-0.08623">
        <ele>66</ele>
        <time>2024-10-13T10:08:40Z</time>
      </trkpt>
      <trkpt lat="49.28762" lon="-0.08639">
        <ele>65.2</ele>
        <time>2024-10-13T10:08:41Z</time>
      </trkpt>
      <trkpt lat="49.28772" lon="-0.08655">
        <ele>64.2</ele>
        <time>2024-10-13T10:08:42Z</time>
      </trkpt>
      <trkpt lat="49.28782" lon="-0.08671">
        <ele>62.6</ele>
        <time>2024-10-13T10:08:43Z</time>
      </trkpt>
      <trkpt lat="49.28793" lon="-0.08687">
        <ele>61.8</ele>
        <time>2024-10-13T10:08:44Z</time>
      </trkpt>
      <trkpt lat="49.28803" lon="-0.08703">
        <ele>60.6</ele>
        <time>2024-10-13T10:08:45Z</time>
      </trkpt>
      <trkpt lat="49.28813" lon="-0.08719">
        <ele>59.4</ele>
        <time>2024-10-13T10:08:46Z</time>
      </trkpt>
      <trkpt lat="49.28824" lon="-0.08736">
        <ele>58.2</ele>
        <time>2024-10-13T10:08:47Z</time>
      </trkpt>
      <trkpt lat="49.28834" lon="-0.08752">
        <ele>56.8</ele>
        <time>2024-10-13T10:08:48Z</time>
      </trkpt>
      <trkpt lat="49.28845" lon="-0.08768">
        <ele>55.2</ele>
        <time>2024-10-13T10:08:49Z</time>
      </trkpt>
      <trkpt lat="49.28855" lon="-0.08785">
        <ele>53.8</ele>
        <time>2024-10-13T10:08:50Z</time>
      </trkpt>
      <trkpt lat="49.28865" lon="-0.08801">
        <ele>52.4</ele>
        <time>2024-10-13T10:08:51Z</time>
      </trkpt>
      <trkpt lat="49.28876" lon="-0.08818">
        <ele>51.2</ele>
        <time>2024-10-13T10:08:52Z</time>
      </trkpt>
      <trkpt lat="49.28887" lon="-0.08834">
        <ele>50</ele>
        <time>2024-10-13T10:08:53Z</time>
      </trkpt>
      <trkpt lat="49.28897" lon="-0.0885">
        <ele>49.2</ele>
        <time>2024-10-13T10:08:54Z</time>
      </trkpt>
      <trkpt lat="49.28906" lon="-0.08866">
        <ele>48.2</ele>
        <time>2024-10-13T10:08:55Z</time>
      </trkpt>
      <trkpt lat="49.28913" lon="-0.08884">
        <ele>47.4</ele>
        <time>2024-10-13T10:08:56Z</time>
      </trkpt>
      <trkpt lat="49.28918" lon="-0.08902">
        <ele>47.4</ele>
        <time>2024-10-13T10:08:57Z</time>
      </trkpt>
      <trkpt lat="49.28918" lon="-0.08921">
        <ele>46.4</ele>
        <time>2024-10-13T10:08:58Z</time>
      </trkpt>
      <trkpt lat="49.28915" lon="-0.0894">
        <ele>45.6</ele>
        <time>2024-10-13T10:08:59Z</time>
      </trkpt>
      <trkpt lat="49.28908" lon="-0.08958">
        <ele>44.4</ele>
        <time>2024-10-13T10:09:00Z</time>
      </trkpt>
      <trkpt lat="49.28897" lon="-0.08971">
        <ele>43.4</ele>
        <time>2024-10-13T10:09:01Z</time>
      </trkpt>
      <trkpt lat="49.28884" lon="-0.08978">
        <ele>42.4</ele>
        <time>2024-10-13T10:09:02Z</time>
      </trkpt>
      <trkpt lat="49.28871" lon="-0.0898">
        <ele>41.2</ele>
        <time>2024-10-13T10:09:03Z</time>
      </trkpt>
      <trkpt lat="49.28856" lon="-0.08977">
        <ele>40.4</ele>
        <time>2024-10-13T10:09:04Z</time>
      </trkpt>
      <trkpt lat="49.2884" lon="-0.08972">
        <ele>39.4</ele>
        <time>2024-10-13T10:09:05Z</time>
      </trkpt>
      <trkpt lat="49.28825" lon="-0.08966">
        <ele>38.6</ele>
        <time>2024-10-13T10:09:06Z</time>
      </trkpt>
      <trkpt lat="49.28809" lon="-0.08961">
        <ele>37.6</ele>
        <time>2024-10-13T10:09:07Z</time>
      </trkpt>
      <trkpt lat="49.28794" lon="-0.08956">
        <ele>36.4</ele>
        <time>2024-10-13T10:09:08Z</time>
      </trkpt>
      <trkpt lat="49.28779" lon="-0.08951">
        <ele>35.2</ele>
        <time>2024-10-13T10:09:09Z</time>
      </trkpt>
      <trkpt lat="49.28763" lon="-0.08945">
        <ele>33.8</ele>
        <time>2024-10-13T10:09:10Z</time>
      </trkpt>
      <trkpt lat="49.28748" lon="-0.08939">
        <ele>32.4</ele>
        <time>2024-10-13T10:09:11Z</time>
      </trkpt>
      <trkpt lat="49.28733" lon="-0.08933">
        <ele>31</ele>
        <time>2024-10-13T10:09:12Z</time>
      </trkpt>
      <trkpt lat="49.28718" lon="-0.08929">
        <ele>29.4</ele>
        <time>2024-10-13T10:09:13Z</time>
      </trkpt>
      <trkpt lat="49.28704" lon="-0.08928">
        <ele>28</ele>
        <time>2024-10-13T10:09:14Z</time>
      </trkpt>
      <trkpt lat="49.28691" lon="-0.0893">
        <ele>26.6</ele>
        <time>2024-10-13T10:09:15Z</time>
      </trkpt>
      <trkpt lat="49.28679" lon="-0.08938">
        <ele>25.2</ele>
        <time>2024-10-13T10:09:16Z</time>
      </trkpt>
      <trkpt lat="49.28671" lon="-0.08952">
        <ele>25.2</ele>
        <time>2024-10-13T10:09:17Z</time>
      </trkpt>
      <trkpt lat="49.28663" lon="-0.08969">
        <ele>23.8</ele>
        <time>2024-10-13T10:09:18Z</time>
      </trkpt>
      <trkpt lat="49.28655" lon="-0.08985">
        <ele>22.4</ele>
        <time>2024-10-13T10:09:19Z</time>
      </trkpt>
      <trkpt lat="49.28648" lon="-0.09001">
        <ele>21</ele>
        <time>2024-10-13T10:09:20Z</time>
      </trkpt>
      <trkpt lat="49.28643" lon="-0.09019">
        <ele>20</ele>
        <time>2024-10-13T10:09:21Z</time>
      </trkpt>
      <trkpt lat="49.2864" lon="-0.09037">
        <ele>18.8</ele>
        <time>2024-10-13T10:09:22Z</time>
      </trkpt>
      <trkpt lat="49.28637" lon="-0.09056">
        <ele>18</ele>
        <time>2024-10-13T10:09:23Z</time>
      </trkpt>
      <trkpt lat="49.28634" lon="-0.09074">
        <ele>17.2</ele>
        <time>2024-10-13T10:09:24Z</time>
      </trkpt>
      <trkpt lat="49.2863" lon="-0.09092">
        <ele>16.4</ele>
        <time>2024-10-13T10:09:25Z</time>
      </trkpt>
      <trkpt lat="49.28627" lon="-0.0911">
        <ele>15.6</ele>
        <time>2024-10-13T10:09:26Z</time>
      </trkpt>
      <trkpt lat="49.28623" lon="-0.09127">
        <ele>14.6</ele>
        <time>2024-10-13T10:09:27Z</time>
      </trkpt>
      <trkpt lat="49.28619" lon="-0.09144">
        <ele>13.4</ele>
        <time>2024-10-13T10:09:28Z</time>
      </trkpt>
      <trkpt lat="49.28615" lon="-0.09162">
        <ele>13</ele>
        <time>2024-10-13T10:09:29Z</time>
      </trkpt>
      <trkpt lat="49.28612" lon="-0.0918">
        <ele>12.6</ele>
        <time>2024-10-13T10:09:30Z</time>
      </trkpt>
      <trkpt lat="49.28608" lon="-0.09197">
        <ele>12</ele>
        <time>2024-10-13T10:09:31Z</time>
      </trkpt>
      <trkpt lat="49.28604" lon="-0.09214">
        <ele>11.6</ele>
        <time>2024-10-13T10:09:32Z</time>
      </trkpt>
      <trkpt lat="49.28601" lon="-0.09232">
        <ele>10.8</ele>
        <time>2024-10-13T10:09:33Z</time>
      </trkpt>
      <trkpt lat="49.28597" lon="-0.0925">
        <ele>10.2</ele>
        <time>2024-10-13T10:09:34Z</time>
      </trkpt>
      <trkpt lat="49.28593" lon="-0.09267">
        <ele>9.4</ele>
        <time>2024-10-13T10:09:35Z</time>
      </trkpt>
      <trkpt lat="49.28588" lon="-0.09283">
        <ele>8.6</ele>
        <time>2024-10-13T10:09:36Z</time>
      </trkpt>
      <trkpt lat="49.28582" lon="-0.09298">
        <ele>8.2</ele>
        <time>2024-10-13T10:09:37Z</time>
      </trkpt>
      <trkpt lat="49.28575" lon="-0.09313">
        <ele>7.6</ele>
        <time>2024-10-13T10:09:38Z</time>
      </trkpt>
      <trkpt lat="49.28567" lon="-0.09326">
        <ele>7.6</ele>
        <time>2024-10-13T10:09:39Z</time>
      </trkpt>
      <trkpt lat="49.28559" lon="-0.09337">
        <ele>7</ele>
        <time>2024-10-13T10:09:40Z</time>
      </trkpt>
      <trkpt lat="49.2855" lon="-0.09347">
        <ele>6.6</ele>
        <time>2024-10-13T10:09:41Z</time>
      </trkpt>
      <trkpt lat="49.28541" lon="-0.09355">
        <ele>6</ele>
        <time>2024-10-13T10:09:42Z</time>
      </trkpt>
      <trkpt lat="49.28531" lon="-0.09362">
        <ele>5.2</ele>
        <time>2024-10-13T10:09:43Z</time>
      </trkpt>
      <trkpt lat="49.28521" lon="-0.09368">
        <ele>4.6</ele>
        <time>2024-10-13T10:09:44Z</time>
      </trkpt>
      <trkpt lat="49.2851" lon="-0.09373">
        <ele>4</ele>
        <time>2024-10-13T10:09:45Z</time>
      </trkpt>
      <trkpt lat="49.285" lon="-0.09377">
        <ele>3.6</ele>
        <time>2024-10-13T10:09:46Z</time>
      </trkpt>
      <trkpt lat="49.2849" lon="-0.09381">
        <ele>3.4</ele>
        <time>2024-10-13T10:09:47Z</time>
      </trkpt>
      <trkpt lat="49.28479" lon="-0.09385">
        <ele>3</ele>
        <time>2024-10-13T10:09:48Z</time>
      </trkpt>
      <trkpt lat="49.28469" lon="-0.09389">
        <ele>2.6</ele>
        <time>2024-10-13T10:09:49Z</time>
      </trkpt>
      <trkpt lat="49.28459" lon="-0.09393">
        <ele>2.6</ele>
        <time>2024-10-13T10:09:50Z</time>
      </trkpt>
      <trkpt lat="49.28448" lon="-0.09397">
        <ele>2.4</ele>
        <time>2024-10-13T10:09:51Z</time>
      </trkpt>
      <trkpt lat="49.28438" lon="-0.09401">
        <ele>2.2</ele>
        <time>2024-10-13T10:09:52Z</time>
      </trkpt>
      <trkpt lat="49.28427" lon="-0.09405">
        <ele>2.2</ele>
        <time>2024-10-13T10:09:53Z</time>
      </trkpt>
      <trkpt lat="49.28416" lon="-0.09409">
        <ele>2</ele>
        <time>2024-10-13T10:09:54Z</time>
      </trkpt>
      <trkpt lat="49.28406" lon="-0.09413">
        <ele>2</ele>
        <time>2024-10-13T10:09:55Z</time>
      </trkpt>
      <trkpt lat="49.28395" lon="-0.09418">
        <ele>2</ele>
        <time>2024-10-13T10:09:56Z</time>
      </trkpt>
      <trkpt lat="49.28385" lon="-0.09423">
        <ele>1.8</ele>
        <time>2024-10-13T10:09:57Z</time>
      </trkpt>
      <trkpt lat="49.28374" lon="-0.0943">
        <ele>1.4</ele>
        <time>2024-10-13T10:09:58Z</time>
      </trkpt>
      <trkpt lat="49.28365" lon="-0.09438">
        <ele>1</ele>
        <time>2024-10-13T10:09:59Z</time>
      </trkpt>
      <trkpt lat="49.28356" lon="-0.09449">
        <ele>0.6</ele>
        <time>2024-10-13T10:10:00Z</time>
      </trkpt>
      <trkpt lat="49.28348" lon="-0.0946">
        <ele>0.4</ele>
        <time>2024-10-13T10:10:01Z</time>
      </trkpt>
      <trkpt lat="49.28341" lon="-0.09474">
        <ele>10</ele>
        <time>2024-10-13T10:10:02Z</time>
      </trkpt>
      <trkpt lat="49.28334" lon="-0.09488">
        <ele>9.4</ele>
        <time>2024-10-13T10:10:03Z</time>
      </trkpt>
      <trkpt lat="49.28329" lon="-0.09503">
        <ele>-0.6</ele>
        <time>2024-10-13T10:10:04Z</time>
      </trkpt>
      <trkpt lat="49.28325" lon="-0.09519">
        <ele>-1</ele>
        <time>2024-10-13T10:10:05Z</time>
      </trkpt>
      <trkpt lat="49.28321" lon="-0.09536">
        <ele>-1.6</ele>
        <time>2024-10-13T10:10:06Z</time>
      </trkpt>
      <trkpt lat="49.2832" lon="-0.09553">
        <ele>-2.2</ele>
        <time>2024-10-13T10:10:07Z</time>
      </trkpt>
      <trkpt lat="49.28319" lon="-0.0957">
        <ele>-2.6</ele>
        <time>2024-10-13T10:10:08Z</time>
      </trkpt>
      <trkpt lat="49.28318" lon="-0.09587">
        <ele>-3.6</ele>
        <time>2024-10-13T10:10:09Z</time>
      </trkpt>
      <trkpt lat="49.28319" lon="-0.09603">
        <ele>-4.4</ele>
        <time>2024-10-13T10:10:10Z</time>
      </trkpt>
      <trkpt lat="49.2832" lon="-0.09619">
        <ele>-5</ele>
        <time>2024-10-13T10:10:11Z</time>
      </trkpt>
      <trkpt lat="49.28321" lon="-0.09634">
        <ele>-5.8</ele>
        <time>2024-10-13T10:10:12Z</time>
      </trkpt>
      <trkpt lat="49.28321" lon="-0.09647">
        <ele>-6.2</ele>
        <time>2024-10-13T10:10:13Z</time>
      </trkpt>
      <trkpt lat="49.28322" lon="-0.0966">
        <ele>-6.8</ele>
        <time>2024-10-13T10:10:14Z</time>
      </trkpt>
      <trkpt lat="49.28322" lon="-0.09672">
        <ele>-7.4</ele>
        <time>2024-10-13T10:10:15Z</time>
      </trkpt>
      <trkpt lat="49.28323" lon="-0.09681">
        <ele>-7.8</ele>
        <time>2024-10-13T10:10:16Z</time>
      </trkpt>
      <trkpt lat="49.28323" lon="-0.09688">
        <ele>-8.2</ele>
        <time>2024-10-13T10:10:17Z</time>
      </trkpt>
      <trkpt lat="49.28324" lon="-0.09693">
        <ele>-8.2</ele>
        <time>2024-10-13T10:10:18Z</time>
      </trkpt>
      <trkpt lat="49.28324" lon="-0.09695">
        <ele>-8.2</ele>
        <time>2024-10-13T10:10:19Z</time>
      </trkpt>
      <trkpt lat="49.28324" lon="-0.09695">
        <ele>-8.4</ele>
        <time>2024-10-13T10:10:20Z</time>
      </trkpt>
      <trkpt lat="49.28324" lon="-0.09695">
        <ele>-8.4</ele>
        <time>2024-10-13T10:10:21Z</time>
      </trkpt>
      <trkpt lat="49.28324" lon="-0.09702">
        <ele>-7.6</ele>
        <time>2024-10-13T10:10:46Z</time>
      </trkpt>
      <trkpt lat="49.28324" lon="-0.09706">
        <ele>-7.6</ele>
        <time>2024-10-13T10:10:47Z</time>
      </trkpt>
      <trkpt lat="49.28325" lon="-0.0971">
        <ele>-7.6</ele>
        <time>2024-10-13T10:10:48Z</time>
      </trkpt>
      <trkpt lat="49.28325" lon="-0.09715">
        <ele>-7.6</ele>
        <time>2024-10-13T10:10:49Z</time>
      </trkpt>
      <trkpt lat="49.28325" lon="-0.0972">
        <ele>-7.6</ele>
        <time>2024-10-13T10:10:50Z</time>
      </trkpt>
      <trkpt lat="49.28325" lon="-0.09727">
        <ele>-7.6</ele>
        <time>2024-10-13T10:10:51Z</time>
      </trkpt>
      <trkpt lat="49.28325" lon="-0.09733">
        <ele>-7.6</ele>
        <time>2024-10-13T10:10:52Z</time>
      </trkpt>
      <trkpt lat="49.28326" lon="-0.0974">
        <ele>-7.6</ele>
        <time>2024-10-13T10:10:53Z</time>
      </trkpt>
      <trkpt lat="49.28326" lon="-0.09746">
        <ele>-7.8</ele>
        <time>2024-10-13T10:10:54Z</time>
      </trkpt>
      <trkpt lat="49.28327" lon="-0.09753">
        <ele>-7.8</ele>
        <time>2024-10-13T10:10:55Z</time>
      </trkpt>
      <trkpt lat="49.28327" lon="-0.09759">
        <ele>-7.8</ele>
        <time>2024-10-13T10:10:56Z</time>
      </trkpt>
      <trkpt lat="49.28328" lon="-0.09766">
        <ele>-7.8</ele>
        <time>2024-10-13T10:10:57Z</time>
      </trkpt>
      <trkpt lat="49.28328" lon="-0.09773">
        <ele>-8</ele>
        <time>2024-10-13T10:10:58Z</time>
      </trkpt>
      <trkpt lat="49.28328" lon="-0.0978">
        <ele>-8</ele>
        <time>2024-10-13T10:10:59Z</time>
      </trkpt>
      <trkpt lat="49.28329" lon="-0.09788">
        <ele>-8.2</ele>
        <time>2024-10-13T10:11:00Z</time>
      </trkpt>
      <trkpt lat="49.28329" lon="-0.09796">
        <ele>-8.4</ele>
        <time>2024-10-13T10:11:01Z</time>
      </trkpt>
      <trkpt lat="49.2833" lon="-0.09804">
        <ele>-8.4</ele>
        <time>2024-10-13T10:11:02Z</time>
      </trkpt>
      <trkpt lat="49.2833" lon="-0.09813">
        <ele>-8.4</ele>
        <time>2024-10-13T10:11:03Z</time>
      </trkpt>
      <trkpt lat="49.2833" lon="-0.09821">
        <ele>-8.6</ele>
        <time>2024-10-13T10:11:04Z</time>
      </trkpt>
      <trkpt lat="49.28331" lon="-0.0983">
        <ele>-8.6</ele>
        <time>2024-10-13T10:11:05Z</time>
      </trkpt>
      <trkpt lat="49.28331" lon="-0.0984">
        <ele>-8.6</ele>
        <time>2024-10-13T10:11:06Z</time>
      </trkpt>
      <trkpt lat="49.28332" lon="-0.09849">
        <ele>-8.6</ele>
        <time>2024-10-13T10:11:07Z</time>
      </trkpt>
      <trkpt lat="49.28332" lon="-0.09859">
        <ele>-8.8</ele>
        <time>2024-10-13T10:11:08Z</time>
      </trkpt>
      <trkpt lat="49.28333" lon="-0.09869">
        <ele>-8.8</ele>
        <time>2024-10-13T10:11:09Z</time>
      </trkpt>
      <trkpt lat="49.28333" lon="-0.09879">
        <ele>-8.8</ele>
        <time>2024-10-13T10:11:10Z</time>
      </trkpt>
      <trkpt lat="49.28334" lon="-0.09888">
        <ele>-8.8</ele>
        <time>2024-10-13T10:11:11Z</time>
      </trkpt>
      <trkpt lat="49.28334" lon="-0.09897">
        <ele>-8.8</ele>
        <time>2024-10-13T10:11:12Z</time>
      </trkpt>
      <trkpt lat="49.28334" lon="-0.09905">
        <ele>-8.8</ele>
        <time>2024-10-13T10:11:13Z</time>
      </trkpt>
      <trkpt lat="49.28335" lon="-0.09911">
        <ele>-9</ele>
        <time>2024-10-13T10:11:14Z</time>
      </trkpt>
      <trkpt lat="49.28335" lon="-0.09916">
        <ele>-9</ele>
        <time>2024-10-13T10:11:15Z</time>
      </trkpt>
      <trkpt lat="49.28336" lon="-0.0992">
        <ele>-9</ele>
        <time>2024-10-13T10:11:16Z</time>
      </trkpt>
      <trkpt lat="49.28336" lon="-0.09923">
        <ele>-9</ele>
        <time>2024-10-13T10:11:17Z</time>
      </trkpt>
      <trkpt lat="49.28335" lon="-0.09926">
        <ele>-9</ele>
        <time>2024-10-13T10:11:18Z</time>
      </trkpt>
      <trkpt lat="49.28335" lon="-0.09927">
        <ele>-9</ele>
        <time>2024-10-13T10:11:19Z</time>
      </trkpt>
      <trkpt lat="49.28335" lon="-0.09928">
        <ele>-9</ele>
        <time>2024-10-13T10:11:20Z</time>
      </trkpt>
      <trkpt lat="49.28335" lon="-0.09928">
        <ele>-9</ele>
        <time>2024-10-13T10:11:21Z</time>
      </trkpt>
      <trkpt lat="49.28336" lon="-0.09933">
        <ele>-8.4</ele>
        <time>2024-10-13T10:11:30Z</time>
      </trkpt>
      <trkpt lat="49.28336" lon="-0.09936">
        <ele>-8.4</ele>
        <time>2024-10-13T10:11:31Z</time>
      </trkpt>
      <trkpt lat="49.28336" lon="-0.0994">
        <ele>-8.4</ele>
        <time>2024-10-13T10:11:32Z</time>
      </trkpt>
      <trkpt lat="49.28336" lon="-0.09944">
        <ele>-8.4</ele>
        <time>2024-10-13T10:11:33Z</time>
      </trkpt>
      <trkpt lat="49.28337" lon="-0.09948">
        <ele>-8.4</ele>
        <time>2024-10-13T10:11:34Z</time>
      </trkpt>
      <trkpt lat="49.28337" lon="-0.09953">
        <ele>-8.4</ele>
        <time>2024-10-13T10:11:35Z</time>
      </trkpt>
      <trkpt lat="49.28337" lon="-0.09959">
        <ele>-8.4</ele>
        <time>2024-10-13T10:11:36Z</time>
      </trkpt>
      <trkpt lat="49.28337" lon="-0.09965">
        <ele>-8.4</ele>
        <time>2024-10-13T10:11:37Z</time>
      </trkpt>
      <trkpt lat="49.28337" lon="-0.09972">
        <ele>-8.4</ele>
        <time>2024-10-13T10:11:38Z</time>
      </trkpt>
      <trkpt lat="49.28338" lon="-0.09979">
        <ele>-8.4</ele>
        <time>2024-10-13T10:11:39Z</time>
      </trkpt>
      <trkpt lat="49.28338" lon="-0.09987">
        <ele>-8.4</ele>
        <time>2024-10-13T10:11:40Z</time>
      </trkpt>
      <trkpt lat="49.28339" lon="-0.09995">
        <ele>-8.4</ele>
        <time>2024-10-13T10:11:41Z</time>
      </trkpt>
      <trkpt lat="49.28339" lon="-0.10003">
        <ele>-8.6</ele>
        <time>2024-10-13T10:11:42Z</time>
      </trkpt>
      <trkpt lat="49.2834" lon="-0.10012">
        <ele>-8.6</ele>
        <time>2024-10-13T10:11:43Z</time>
      </trkpt>
      <trkpt lat="49.2834" lon="-0.10021">
        <ele>-8.6</ele>
        <time>2024-10-13T10:11:44Z</time>
      </trkpt>
      <trkpt lat="49.2834" lon="-0.1003">
        <ele>-8.6</ele>
        <time>2024-10-13T10:11:45Z</time>
      </trkpt>
      <trkpt lat="49.28341" lon="-0.1004">
        <ele>-8.6</ele>
        <time>2024-10-13T10:11:46Z</time>
      </trkpt>
      <trkpt lat="49.28341" lon="-0.10051">
        <ele>-8.8</ele>
        <time>2024-10-13T10:11:47Z</time>
      </trkpt>
      <trkpt lat="49.28341" lon="-0.10061">
        <ele>-9</ele>
        <time>2024-10-13T10:11:48Z</time>
      </trkpt>
      <trkpt lat="49.28342" lon="-0.10072">
        <ele>-9</ele>
        <time>2024-10-13T10:11:49Z</time>
      </trkpt>
      <trkpt lat="49.28342" lon="-0.10083">
        <ele>-9.2</ele>
        <time>2024-10-13T10:11:50Z</time>
      </trkpt>
      <trkpt lat="49.28343" lon="-0.10093">
        <ele>-9.4</ele>
        <time>2024-10-13T10:11:51Z</time>
      </trkpt>
      <trkpt lat="49.28343" lon="-0.10104">
        <ele>-9.6</ele>
        <time>2024-10-13T10:11:52Z</time>
      </trkpt>
      <trkpt lat="49.28344" lon="-0.10115">
        <ele>-9.6</ele>
        <time>2024-10-13T10:11:53Z</time>
      </trkpt>
      <trkpt lat="49.28344" lon="-0.10126">
        <ele>-9.6</ele>
        <time>2024-10-13T10:11:54Z</time>
      </trkpt>
      <trkpt lat="49.28344" lon="-0.10136">
        <ele>-9.8</ele>
        <time>2024-10-13T10:11:55Z</time>
      </trkpt>
      <trkpt lat="49.28345" lon="-0.10146">
        <ele>-10</ele>
        <time>2024-10-13T10:11:56Z</time>
      </trkpt>
      <trkpt lat="49.28345" lon="-0.10156">
        <ele>-10</ele>
        <time>2024-10-13T10:11:57Z</time>
      </trkpt>
      <trkpt lat="49.28346" lon="-0.10166">
        <ele>-10.2</ele>
        <time>2024-10-13T10:11:58Z</time>
      </trkpt>
      <trkpt lat="49.28346" lon="-0.10176">
        <ele>-10.2</ele>
        <time>2024-10-13T10:11:59Z</time>
      </trkpt>
      <trkpt lat="49.28347" lon="-0.10185">
        <ele>-10.2</ele>
        <time>2024-10-13T10:12:00Z</time>
      </trkpt>
      <trkpt lat="49.28347" lon="-0.10194">
        <ele>-10.2</ele>
        <time>2024-10-13T10:12:01Z</time>
      </trkpt>
      <trkpt lat="49.28348" lon="-0.10203">
        <ele>-10.2</ele>
        <time>2024-10-13T10:12:02Z</time>
      </trkpt>
      <trkpt lat="49.28348" lon="-0.1021">
        <ele>-10.2</ele>
        <time>2024-10-13T10:12:03Z</time>
      </trkpt>
      <trkpt lat="49.28348" lon="-0.10216">
        <ele>-10.2</ele>
        <time>2024-10-13T10:12:04Z</time>
      </trkpt>
      <trkpt lat="49.28349" lon="-0.10221">
        <ele>-10.2</ele>
        <time>2024-10-13T10:12:05Z</time>
      </trkpt>
      <trkpt lat="49.28349" lon="-0.10226">
        <ele>-10.2</ele>
        <time>2024-10-13T10:12:06Z</time>
      </trkpt>
      <trkpt lat="49.28349" lon="-0.10229">
        <ele>-10.2</ele>
        <time>2024-10-13T10:12:07Z</time>
      </trkpt>
      <trkpt lat="49.28349" lon="-0.10233">
        <ele>-10.2</ele>
        <time>2024-10-13T10:12:08Z</time>
      </trkpt>
      <trkpt lat="49.28349" lon="-0.10236">
        <ele>-10.2</ele>
        <time>2024-10-13T10:12:09Z</time>
      </trkpt>
      <trkpt lat="49.28349" lon="-0.1024">
        <ele>-10.2</ele>
        <time>2024-10-13T10:12:10Z</time>
      </trkpt>
      <trkpt lat="49.28349" lon="-0.10244">
        <ele>-10.2</ele>
        <time>2024-10-13T10:12:11Z</time>
      </trkpt>
      <trkpt lat="49.28349" lon="-0.10249">
        <ele>-10</ele>
        <time>2024-10-13T10:12:12Z</time>
      </trkpt>
      <trkpt lat="49.28349" lon="-0.10254">
        <ele>-9.8</ele>
        <time>2024-10-13T10:12:13Z</time>
      </trkpt>
      <trkpt lat="49.2835" lon="-0.10261">
        <ele>-9.8</ele>
        <time>2024-10-13T10:12:14Z</time>
      </trkpt>
      <trkpt lat="49.2835" lon="-0.10267">
        <ele>-9.6</ele>
        <time>2024-10-13T10:12:15Z</time>
      </trkpt>
      <trkpt lat="49.2835" lon="-0.10274">
        <ele>-9.6</ele>
        <time>2024-10-13T10:12:16Z</time>
      </trkpt>
      <trkpt lat="49.28351" lon="-0.1028">
        <ele>-9.4</ele>
        <time>2024-10-13T10:12:17Z</time>
      </trkpt>
      <trkpt lat="49.2835" lon="-0.10287">
        <ele>-9.4</ele>
        <time>2024-10-13T10:12:18Z</time>
      </trkpt>
      <trkpt lat="49.28349" lon="-0.10294">
        <ele>-9.4</ele>
        <time>2024-10-13T10:12:19Z</time>
      </trkpt>
      <trkpt lat="49.28348" lon="-0.10301">
        <ele>-9.4</ele>
        <time>2024-10-13T10:12:20Z</time>
      </trkpt>
      <trkpt lat="49.28347" lon="-0.10309">
        <ele>-9.4</ele>
        <time>2024-10-13T10:12:21Z</time>
      </trkpt>
      <trkpt lat="49.28346" lon="-0.10316">
        <ele>-9.4</ele>
        <time>2024-10-13T10:12:22Z</time>
      </trkpt>
      <trkpt lat="49.28344" lon="-0.10324">
        <ele>-9.2</ele>
        <time>2024-10-13T10:12:23Z</time>
      </trkpt>
      <trkpt lat="49.28342" lon="-0.10332">
        <ele>-9.2</ele>
        <time>2024-10-13T10:12:24Z</time>
      </trkpt>
      <trkpt lat="49.2834" lon="-0.10341">
        <ele>-9.2</ele>
        <time>2024-10-13T10:12:25Z</time>
      </trkpt>
      <trkpt lat="49.28339" lon="-0.1035">
        <ele>-9.2</ele>
        <time>2024-10-13T10:12:26Z</time>
      </trkpt>
      <trkpt lat="49.28339" lon="-0.10359">
        <ele>-9.4</ele>
        <time>2024-10-13T10:12:27Z</time>
      </trkpt>
      <trkpt lat="49.2834" lon="-0.10368">
        <ele>-9.4</ele>
        <time>2024-10-13T10:12:28Z</time>
      </trkpt>
      <trkpt lat="49.2834" lon="-0.10378">
        <ele>-9.4</ele>
        <time>2024-10-13T10:12:29Z</time>
      </trkpt>
      <trkpt lat="49.28341" lon="-0.10387">
        <ele>-9.4</ele>
        <time>2024-10-13T10:12:30Z</time>
      </trkpt>
      <trkpt lat="49.28341" lon="-0.10397">
        <ele>-9.4</ele>
        <time>2024-10-13T10:12:31Z</time>
      </trkpt>
      <trkpt lat="49.28342" lon="-0.10407">
        <ele>-9.4</ele>
        <time>2024-10-13T10:12:32Z</time>
      </trkpt>
      <trkpt lat="49.28342" lon="-0.10417">
        <ele>-9.6</ele>
        <time>2024-10-13T10:12:33Z</time>
      </trkpt>
      <trkpt lat="49.28343" lon="-0.10427">
        <ele>-9.6</ele>
        <time>2024-10-13T10:12:34Z</time>
      </trkpt>
      <trkpt lat="49.28343" lon="-0.10436">
        <ele>-9.6</ele>
        <time>2024-10-13T10:12:35Z</time>
      </trkpt>
      <trkpt lat="49.28343" lon="-0.10446">
        <ele>-9.6</ele>
        <time>2024-10-13T10:12:36Z</time>
      </trkpt>
      <trkpt lat="49.28344" lon="-0.10455">
        <ele>-9.6</ele>
        <time>2024-10-13T10:12:37Z</time>
      </trkpt>
      <trkpt lat="49.28344" lon="-0.10464">
        <ele>-9.6</ele>
        <time>2024-10-13T10:12:38Z</time>
      </trkpt>
      <trkpt lat="49.28345" lon="-0.10473">
        <ele>-9.6</ele>
        <time>2024-10-13T10:12:39Z</time>
      </trkpt>
      <trkpt lat="49.28345" lon="-0.10482">
        <ele>-9.6</ele>
        <time>2024-10-13T10:12:40Z</time>
      </trkpt>
      <trkpt lat="49.28345" lon="-0.1049">
        <ele>-9.6</ele>
        <time>2024-10-13T10:12:41Z</time>
      </trkpt>
      <trkpt lat="49.28345" lon="-0.10499">
        <ele>-9.6</ele>
        <time>2024-10-13T10:12:42Z</time>
      </trkpt>
      <trkpt lat="49.28346" lon="-0.10506">
        <ele>-9.6</ele>
        <time>2024-10-13T10:12:43Z</time>
      </trkpt>
      <trkpt lat="49.28346" lon="-0.10514">
        <ele>-9.6</ele>
        <time>2024-10-13T10:12:44Z</time>
      </trkpt>
      <trkpt lat="49.28346" lon="-0.1052">
        <ele>-9.6</ele>
        <time>2024-10-13T10:12:45Z</time>
      </trkpt>
      <trkpt lat="49.28347" lon="-0.10525">
        <ele>-9.6</ele>
        <time>2024-10-13T10:12:46Z</time>
      </trkpt>
      <trkpt lat="49.28347" lon="-0.10529">
        <ele>-9.6</ele>
        <time>2024-10-13T10:12:47Z</time>
      </trkpt>
      <trkpt lat="49.28347" lon="-0.10533">
        <ele>-9.6</ele>
        <time>2024-10-13T10:12:48Z</time>
      </trkpt>
      <trkpt lat="49.28348" lon="-0.10538">
        <ele>-9.6</ele>
        <time>2024-10-13T10:12:49Z</time>
      </trkpt>
      <trkpt lat="49.28348" lon="-0.10544">
        <ele>-9.6</ele>
        <time>2024-10-13T10:12:50Z</time>
      </trkpt>
      <trkpt lat="49.28348" lon="-0.10551">
        <ele>-9.6</ele>
        <time>2024-10-13T10:12:51Z</time>
      </trkpt>
      <trkpt lat="49.28348" lon="-0.10558">
        <ele>-9.4</ele>
        <time>2024-10-13T10:12:52Z</time>
      </trkpt>
      <trkpt lat="49.28348" lon="-0.10565">
        <ele>-9.2</ele>
        <time>2024-10-13T10:12:53Z</time>
      </trkpt>
      <trkpt lat="49.28349" lon="-0.10573">
        <ele>-9.2</ele>
        <time>2024-10-13T10:12:54Z</time>
      </trkpt>
      <trkpt lat="49.28349" lon="-0.10581">
        <ele>-9.2</ele>
        <time>2024-10-13T10:12:55Z</time>
      </trkpt>
      <trkpt lat="49.2835" lon="-0.10589">
        <ele>-9.2</ele>
        <time>2024-10-13T10:12:56Z</time>
      </trkpt>
      <trkpt lat="49.2835" lon="-0.10598">
        <ele>-9</ele>
        <time>2024-10-13T10:12:57Z</time>
      </trkpt>
      <trkpt lat="49.2835" lon="-0.10607">
        <ele>-9</ele>
        <time>2024-10-13T10:12:58Z</time>
      </trkpt>
      <trkpt lat="49.28351" lon="-0.10616">
        <ele>-9</ele>
        <time>2024-10-13T10:12:59Z</time>
      </trkpt>
      <trkpt lat="49.28351" lon="-0.10625">
        <ele>-9</ele>
        <time>2024-10-13T10:13:00Z</time>
      </trkpt>
      <trkpt lat="49.28351" lon="-0.10633">
        <ele>-9</ele>
        <time>2024-10-13T10:13:01Z</time>
      </trkpt>
      <trkpt lat="49.28352" lon="-0.10642">
        <ele>-9</ele>
        <time>2024-10-13T10:13:02Z</time>
      </trkpt>
      <trkpt lat="49.28352" lon="-0.10651">
        <ele>-9</ele>
        <time>2024-10-13T10:13:03Z</time>
      </trkpt>
      <trkpt lat="49.28353" lon="-0.10659">
        <ele>-9</ele>
        <time>2024-10-13T10:13:04Z</time>
      </trkpt>
      <trkpt lat="49.28353" lon="-0.10667">
        <ele>-9</ele>
        <time>2024-10-13T10:13:05Z</time>
      </trkpt>
      <trkpt lat="49.28353" lon="-0.10676">
        <ele>-9</ele>
        <time>2024-10-13T10:13:06Z</time>
      </trkpt>
      <trkpt lat="49.28353" lon="-0.10684">
        <ele>-9</ele>
        <time>2024-10-13T10:13:07Z</time>
      </trkpt>
      <trkpt lat="49.28354" lon="-0.10692">
        <ele>-9</ele>
        <time>2024-10-13T10:13:08Z</time>
      </trkpt>
      <trkpt lat="49.28354" lon="-0.10701">
        <ele>-9</ele>
        <time>2024-10-13T10:13:09Z</time>
      </trkpt>
      <trkpt lat="49.28354" lon="-0.1071">
        <ele>-9</ele>
        <time>2024-10-13T10:13:10Z</time>
      </trkpt>
      <trkpt lat="49.28355" lon="-0.10718">
        <ele>-9</ele>
        <time>2024-10-13T10:13:11Z</time>
      </trkpt>
      <trkpt lat="49.28355" lon="-0.10726">
        <ele>-9</ele>
        <time>2024-10-13T10:13:12Z</time>
      </trkpt>
      <trkpt lat="49.28355" lon="-0.10734">
        <ele>-9</ele>
        <time>2024-10-13T10:13:13Z</time>
      </trkpt>
      <trkpt lat="49.28356" lon="-0.10742">
        <ele>-9</ele>
        <time>2024-10-13T10:13:14Z</time>
      </trkpt>
      <trkpt lat="49.28356" lon="-0.1075">
        <ele>-9</ele>
        <time>2024-10-13T10:13:15Z</time>
      </trkpt>
      <trkpt lat="49.28356" lon="-0.10758">
        <ele>-9</ele>
        <time>2024-10-13T10:13:16Z</time>
      </trkpt>
      <trkpt lat="49.28358" lon="-0.10764">
        <ele>-9</ele>
        <time>2024-10-13T10:13:17Z</time>
      </trkpt>
      <trkpt lat="49.28361" lon="-0.10769">
        <ele>-9</ele>
        <time>2024-10-13T10:13:18Z</time>
      </trkpt>
      <trkpt lat="49.28365" lon="-0.10771">
        <ele>-9</ele>
        <time>2024-10-13T10:13:19Z</time>
      </trkpt>
      <trkpt lat="49.2837" lon="-0.10771">
        <ele>-9</ele>
        <time>2024-10-13T10:13:20Z</time>
      </trkpt>
      <trkpt lat="49.28374" lon="-0.1077">
        <ele>-9</ele>
        <time>2024-10-13T10:13:21Z</time>
      </trkpt>
      <trkpt lat="49.28379" lon="-0.10769">
        <ele>-9</ele>
        <time>2024-10-13T10:13:22Z</time>
      </trkpt>
      <trkpt lat="49.28383" lon="-0.10768">
        <ele>-9</ele>
        <time>2024-10-13T10:13:23Z</time>
      </trkpt>
      <trkpt lat="49.28388" lon="-0.10768">
        <ele>-9</ele>
        <time>2024-10-13T10:13:24Z</time>
      </trkpt>
      <trkpt lat="49.28392" lon="-0.10767">
        <ele>-9</ele>
        <time>2024-10-13T10:13:25Z</time>
      </trkpt>
      <trkpt lat="49.28397" lon="-0.10766">
        <ele>-9.2</ele>
        <time>2024-10-13T10:13:26Z</time>
      </trkpt>
      <trkpt lat="49.28401" lon="-0.10766">
        <ele>-9.2</ele>
        <time>2024-10-13T10:13:27Z</time>
      </trkpt>
      <trkpt lat="49.28405" lon="-0.10765">
        <ele>-9.2</ele>
        <time>2024-10-13T10:13:28Z</time>
      </trkpt>
      <trkpt lat="49.28409" lon="-0.10764">
        <ele>-9.2</ele>
        <time>2024-10-13T10:13:29Z</time>
      </trkpt>
      <trkpt lat="49.28412" lon="-0.10763">
        <ele>-9.2</ele>
        <time>2024-10-13T10:13:30Z</time>
      </trkpt>
      <trkpt lat="49.28416" lon="-0.10762">
        <ele>-9.2</ele>
        <time>2024-10-13T10:13:31Z</time>
      </trkpt>
      <trkpt lat="49.28419" lon="-0.10761">
        <ele>-9.2</ele>
        <time>2024-10-13T10:13:32Z</time>
      </trkpt>
      <trkpt lat="49.28422" lon="-0.10762">
        <ele>-9.2</ele>
        <time>2024-10-13T10:13:33Z</time>
      </trkpt>
      <trkpt lat="49.28425" lon="-0.10765">
        <ele>-9.2</ele>
        <time>2024-10-13T10:13:34Z</time>
      </trkpt>
      <trkpt lat="49.28426" lon="-0.10769">
        <ele>-9.2</ele>
        <time>2024-10-13T10:13:35Z</time>
      </trkpt>
      <trkpt lat="49.28427" lon="-0.10772">
        <ele>-9.2</ele>
        <time>2024-10-13T10:13:36Z</time>
      </trkpt>
      <trkpt lat="49.28427" lon="-0.10774">
        <ele>-9.2</ele>
        <time>2024-10-13T10:13:37Z</time>
      </trkpt>
      <trkpt lat="49.28427" lon="-0.10775">
        <ele>-9.2</ele>
        <time>2024-10-13T10:13:38Z</time>
      </trkpt>
      <trkpt lat="49.28427" lon="-0.10775">
        <ele>-9.2</ele>
        <time>2024-10-13T10:13:39Z</time>
      </trkpt>
      <trkpt lat="49.28428" lon="-0.10783">
        <ele>-8.6</ele>
        <time>2024-10-13T10:13:48Z</time>
      </trkpt>
      <trkpt lat="49.28428" lon="-0.10788">
        <ele>-8.6</ele>
        <time>2024-10-13T10:13:49Z</time>
      </trkpt>
      <trkpt lat="49.28428" lon="-0.10793">
        <ele>-8.4</ele>
        <time>2024-10-13T10:13:50Z</time>
      </trkpt>
      <trkpt lat="49.28428" lon="-0.10799">
        <ele>-8.4</ele>
        <time>2024-10-13T10:13:51Z</time>
      </trkpt>
      <trkpt lat="49.28429" lon="-0.10805">
        <ele>-8.4</ele>
        <time>2024-10-13T10:13:52Z</time>
      </trkpt>
      <trkpt lat="49.28429" lon="-0.10812">
        <ele>-8.4</ele>
        <time>2024-10-13T10:13:53Z</time>
      </trkpt>
      <trkpt lat="49.2843" lon="-0.10819">
        <ele>-8.4</ele>
        <time>2024-10-13T10:13:54Z</time>
      </trkpt>
      <trkpt lat="49.28431" lon="-0.10826">
        <ele>-8.4</ele>
        <time>2024-10-13T10:13:55Z</time>
      </trkpt>
      <trkpt lat="49.28432" lon="-0.10834">
        <ele>-8.4</ele>
        <time>2024-10-13T10:13:56Z</time>
      </trkpt>
      <trkpt lat="49.28432" lon="-0.10841">
        <ele>-8.4</ele>
        <time>2024-10-13T10:13:57Z</time>
      </trkpt>
      <trkpt lat="49.28433" lon="-0.10849">
        <ele>-8.6</ele>
        <time>2024-10-13T10:13:58Z</time>
      </trkpt>
      <trkpt lat="49.28434" lon="-0.10856">
        <ele>-8.6</ele>
        <time>2024-10-13T10:13:59Z</time>
      </trkpt>
      <trkpt lat="49.28435" lon="-0.10863">
        <ele>-8.6</ele>
        <time>2024-10-13T10:14:00Z</time>
      </trkpt>
      <trkpt lat="49.28436" lon="-0.10869">
        <ele>-8.6</ele>
        <time>2024-10-13T10:14:01Z</time>
      </trkpt>
      <trkpt lat="49.28437" lon="-0.10875">
        <ele>-8.6</ele>
        <time>2024-10-13T10:14:02Z</time>
      </trkpt>
      <trkpt lat="49.28438" lon="-0.1088">
        <ele>-8.6</ele>
        <time>2024-10-13T10:14:03Z</time>
      </trkpt>
      <trkpt lat="49.2844" lon="-0.10885">
        <ele>-8.6</ele>
        <time>2024-10-13T10:14:04Z</time>
      </trkpt>
      <trkpt lat="49.28444" lon="-0.10886">
        <ele>-8.6</ele>
        <time>2024-10-13T10:14:05Z</time>
      </trkpt>
      <trkpt lat="49.28447" lon="-0.10884">
        <ele>-8.6</ele>
        <time>2024-10-13T10:14:06Z</time>
      </trkpt>
      <trkpt lat="49.28451" lon="-0.10883">
        <ele>-8.6</ele>
        <time>2024-10-13T10:14:07Z</time>
      </trkpt>
      <trkpt lat="49.28455" lon="-0.10881">
        <ele>-8.6</ele>
        <time>2024-10-13T10:14:08Z</time>
      </trkpt>
      <trkpt lat="49.28459" lon="-0.10879">
        <ele>-8.6</ele>
        <time>2024-10-13T10:14:09Z</time>
      </trkpt>
      <trkpt lat="49.28463" lon="-0.10877">
        <ele>-8.6</ele>
        <time>2024-10-13T10:14:10Z</time>
      </trkpt>
      <trkpt lat="49.28467" lon="-0.10876">
        <ele>-8.6</ele>
        <time>2024-10-13T10:14:11Z</time>
      </trkpt>
      <trkpt lat="49.28471" lon="-0.10874">
        <ele>-8.6</ele>
        <time>2024-10-13T10:14:12Z</time>
      </trkpt>
      <trkpt lat="49.28475" lon="-0.10871">
        <ele>-8.6</ele>
        <time>2024-10-13T10:14:13Z</time>
      </trkpt>
      <trkpt lat="49.2848" lon="-0.10869">
        <ele>-8.6</ele>
        <time>2024-10-13T10:14:14Z</time>
      </trkpt>
      <trkpt lat="49.28484" lon="-0.10867">
        <ele>-8.6</ele>
        <time>2024-10-13T10:14:15Z</time>
      </trkpt>
      <trkpt lat="49.28488" lon="-0.10865">
        <ele>-8.6</ele>
        <time>2024-10-13T10:14:16Z</time>
      </trkpt>
      <trkpt lat="49.28492" lon="-0.10863">
        <ele>-8.6</ele>
        <time>2024-10-13T10:14:17Z</time>
      </trkpt>
      <trkpt lat="49.28496" lon="-0.10861">
        <ele>-8.4</ele>
        <time>2024-10-13T10:14:18Z</time>
      </trkpt>
      <trkpt lat="49.285" lon="-0.10859">
        <ele>-8.4</ele>
        <time>2024-10-13T10:14:19Z</time>
      </trkpt>
      <trkpt lat="49.28504" lon="-0.10858">
        <ele>-8.4</ele>
        <time>2024-10-13T10:14:20Z</time>
      </trkpt>
      <trkpt lat="49.28507" lon="-0.10857">
        <ele>-8.4</ele>
        <time>2024-10-13T10:14:21Z</time>
      </trkpt>
      <trkpt lat="49.2851" lon="-0.10856">
        <ele>-8.4</ele>
        <time>2024-10-13T10:14:22Z</time>
      </trkpt>
      <trkpt lat="49.28513" lon="-0.10855">
        <ele>-8.4</ele>
        <time>2024-10-13T10:14:23Z</time>
      </trkpt>
      <trkpt lat="49.28516" lon="-0.10854">
        <ele>-8.4</ele>
        <time>2024-10-13T10:14:24Z</time>
      </trkpt>
      <trkpt lat="49.28517" lon="-0.10853">
        <ele>-8.4</ele>
        <time>2024-10-13T10:14:25Z</time>
      </trkpt>
      <trkpt lat="49.28518" lon="-0.10852">
        <ele>-8.2</ele>
        <time>2024-10-13T10:14:26Z</time>
      </trkpt>
      <trkpt lat="49.28518" lon="-0.10852">
        <ele>-8.2</ele>
        <time>2024-10-13T10:14:27Z</time>
      </trkpt>
      <trkpt lat="49.28518" lon="-0.10852">
        <ele>-8</ele>
        <time>2024-10-13T10:14:28Z</time>
      </trkpt>
      <trkpt lat="49.28523" lon="-0.10847">
        <ele>-7.8</ele>
        <time>2024-10-13T10:14:36Z</time>
      </trkpt>
      <trkpt lat="49.28525" lon="-0.10846">
        <ele>-7.8</ele>
        <time>2024-10-13T10:14:37Z</time>
      </trkpt>
      <trkpt lat="49.28527" lon="-0.10845">
        <ele>-7.8</ele>
        <time>2024-10-13T10:14:38Z</time>
      </trkpt>
      <trkpt lat="49.28529" lon="-0.10844">
        <ele>-7.8</ele>
        <time>2024-10-13T10:14:39Z</time>
      </trkpt>
      <trkpt lat="49.28531" lon="-0.10843">
        <ele>-7.8</ele>
        <time>2024-10-13T10:14:40Z</time>
      </trkpt>
      <trkpt lat="49.28534" lon="-0.10844">
        <ele>-7.8</ele>
        <time>2024-10-13T10:14:41Z</time>
      </trkpt>
      <trkpt lat="49.28537" lon="-0.10846">
        <ele>-7.8</ele>
        <time>2024-10-13T10:14:42Z</time>
      </trkpt>
      <trkpt lat="49.28539" lon="-0.10849">
        <ele>-7.8</ele>
        <time>2024-10-13T10:14:43Z</time>
      </trkpt>
      <trkpt lat="49.28541" lon="-0.10851">
        <ele>-7.8</ele>
        <time>2024-10-13T10:14:44Z</time>
      </trkpt>
      <trkpt lat="49.28543" lon="-0.10853">
        <ele>-7.8</ele>
        <time>2024-10-13T10:14:45Z</time>
      </trkpt>
      <trkpt lat="49.28544" lon="-0.10854">
        <ele>-7.8</ele>
        <time>2024-10-13T10:14:46Z</time>
      </trkpt>
      <trkpt lat="49.28544" lon="-0.10855">
        <ele>-7.8</ele>
        <time>2024-10-13T10:14:47Z</time>
      </trkpt>
      <trkpt lat="49.28544" lon="-0.10855">
        <ele>-7.8</ele>
        <time>2024-10-13T10:14:48Z</time>
      </trkpt>
      <trkpt lat="49.28546" lon="-0.10862">
        <ele>-8</ele>
        <time>2024-10-13T10:16:20Z</time>
      </trkpt>
      <trkpt lat="49.28546" lon="-0.10865">
        <ele>-8</ele>
        <time>2024-10-13T10:16:21Z</time>
      </trkpt>
      <trkpt lat="49.28546" lon="-0.10868">
        <ele>-8</ele>
        <time>2024-10-13T10:16:22Z</time>
      </trkpt>
      <trkpt lat="49.28546" lon="-0.10872">
        <ele>-8</ele>
        <time>2024-10-13T10:16:23Z</time>
      </trkpt>
      <trkpt lat="49.28545" lon="-0.10877">
        <ele>-8</ele>
        <time>2024-10-13T10:16:24Z</time>
      </trkpt>
      <trkpt lat="49.28544" lon="-0.10881">
        <ele>-8</ele>
        <time>2024-10-13T10:16:25Z</time>
      </trkpt>
      <trkpt lat="49.28542" lon="-0.10885">
        <ele>-8</ele>
        <time>2024-10-13T10:16:26Z</time>
      </trkpt>
      <trkpt lat="49.2854" lon="-0.1089">
        <ele>-8.2</ele>
        <time>2024-10-13T10:16:27Z</time>
      </trkpt>
      <trkpt lat="49.28538" lon="-0.10894">
        <ele>-8.2</ele>
        <time>2024-10-13T10:16:28Z</time>
      </trkpt>
      <trkpt lat="49.28535" lon="-0.10899">
        <ele>-8.2</ele>
        <time>2024-10-13T10:16:29Z</time>
      </trkpt>
      <trkpt lat="49.28532" lon="-0.10903">
        <ele>-8.2</ele>
        <time>2024-10-13T10:16:30Z</time>
      </trkpt>
      <trkpt lat="49.2853" lon="-0.10907">
        <ele>-8.2</ele>
        <time>2024-10-13T10:16:31Z</time>
      </trkpt>
      <trkpt lat="49.28528" lon="-0.10912">
        <ele>-8.2</ele>
        <time>2024-10-13T10:16:32Z</time>
      </trkpt>
      <trkpt lat="49.28527" lon="-0.10918">
        <ele>-8.2</ele>
        <time>2024-10-13T10:16:33Z</time>
      </trkpt>
      <trkpt lat="49.28527" lon="-0.10923">
        <ele>-8.2</ele>
        <time>2024-10-13T10:16:34Z</time>
      </trkpt>
      <trkpt lat="49.28527" lon="-0.1093">
        <ele>-8.2</ele>
        <time>2024-10-13T10:16:35Z</time>
      </trkpt>
      <trkpt lat="49.28528" lon="-0.10936">
        <ele>-8.2</ele>
        <time>2024-10-13T10:16:36Z</time>
      </trkpt>
      <trkpt lat="49.28529" lon="-0.10943">
        <ele>-8.2</ele>
        <time>2024-10-13T10:16:37Z</time>
      </trkpt>
      <trkpt lat="49.2853" lon="-0.10949">
        <ele>-8.2</ele>
        <time>2024-10-13T10:16:38Z</time>
      </trkpt>
      <trkpt lat="49.28532" lon="-0.10956">
        <ele>-8.2</ele>
        <time>2024-10-13T10:16:39Z</time>
      </trkpt>
      <trkpt lat="49.28533" lon="-0.10962">
        <ele>-8.2</ele>
        <time>2024-10-13T10:16:40Z</time>
      </trkpt>
      <trkpt lat="49.28534" lon="-0.10969">
        <ele>-8.2</ele>
        <time>2024-10-13T10:16:41Z</time>
      </trkpt>
      <trkpt lat="49.28535" lon="-0.10976">
        <ele>-8.2</ele>
        <time>2024-10-13T10:16:42Z</time>
      </trkpt>
      <trkpt lat="49.28536" lon="-0.10982">
        <ele>-8.2</ele>
        <time>2024-10-13T10:16:43Z</time>
      </trkpt>
      <trkpt lat="49.28537" lon="-0.10989">
        <ele>-8.2</ele>
        <time>2024-10-13T10:16:44Z</time>
      </trkpt>
      <trkpt lat="49.28539" lon="-0.10996">
        <ele>-8.2</ele>
        <time>2024-10-13T10:16:45Z</time>
      </trkpt>
      <trkpt lat="49.2854" lon="-0.11003">
        <ele>-8.2</ele>
        <time>2024-10-13T10:16:46Z</time>
      </trkpt>
      <trkpt lat="49.28541" lon="-0.1101">
        <ele>-8.2</ele>
        <time>2024-10-13T10:16:47Z</time>
      </trkpt>
      <trkpt lat="49.28543" lon="-0.11016">
        <ele>-8.2</ele>
        <time>2024-10-13T10:16:48Z</time>
      </trkpt>
      <trkpt lat="49.28545" lon="-0.11023">
        <ele>-8.2</ele>
        <time>2024-10-13T10:16:49Z</time>
      </trkpt>
      <trkpt lat="49.28547" lon="-0.1103">
        <ele>-8.2</ele>
        <time>2024-10-13T10:16:50Z</time>
      </trkpt>
      <trkpt lat="49.28548" lon="-0.11037">
        <ele>-8.2</ele>
        <time>2024-10-13T10:16:51Z</time>
      </trkpt>
      <trkpt lat="49.2855" lon="-0.11044">
        <ele>-8.2</ele>
        <time>2024-10-13T10:16:52Z</time>
      </trkpt>
      <trkpt lat="49.28552" lon="-0.11051">
        <ele>-8.2</ele>
        <time>2024-10-13T10:16:53Z</time>
      </trkpt>
      <trkpt lat="49.28554" lon="-0.11058">
        <ele>-8.2</ele>
        <time>2024-10-13T10:16:54Z</time>
      </trkpt>
      <trkpt lat="49.28556" lon="-0.11065">
        <ele>-8.2</ele>
        <time>2024-10-13T10:16:55Z</time>
      </trkpt>
      <trkpt lat="49.28558" lon="-0.11072">
        <ele>-8.2</ele>
        <time>2024-10-13T10:16:56Z</time>
      </trkpt>
      <trkpt lat="49.28559" lon="-0.1108">
        <ele>-8.2</ele>
        <time>2024-10-13T10:16:57Z</time>
      </trkpt>
      <trkpt lat="49.28561" lon="-0.11087">
        <ele>-8.2</ele>
        <time>2024-10-13T10:16:58Z</time>
      </trkpt>
      <trkpt lat="49.28563" lon="-0.11094">
        <ele>-8</ele>
        <time>2024-10-13T10:16:59Z</time>
      </trkpt>
      <trkpt lat="49.28565" lon="-0.11101">
        <ele>-8</ele>
        <time>2024-10-13T10:17:00Z</time>
      </trkpt>
      <trkpt lat="49.28567" lon="-0.11109">
        <ele>-8</ele>
        <time>2024-10-13T10:17:01Z</time>
      </trkpt>
      <trkpt lat="49.28569" lon="-0.11116">
        <ele>-8</ele>
        <time>2024-10-13T10:17:02Z</time>
      </trkpt>
      <trkpt lat="49.2857" lon="-0.11124">
        <ele>-7.8</ele>
        <time>2024-10-13T10:17:03Z</time>
      </trkpt>
      <trkpt lat="49.28572" lon="-0.11131">
        <ele>-7.6</ele>
        <time>2024-10-13T10:17:04Z</time>
      </trkpt>
      <trkpt lat="49.28574" lon="-0.11137">
        <ele>-7.6</ele>
        <time>2024-10-13T10:17:05Z</time>
      </trkpt>
      <trkpt lat="49.28576" lon="-0.11144">
        <ele>-7.4</ele>
        <time>2024-10-13T10:17:06Z</time>
      </trkpt>
      <trkpt lat="49.28577" lon="-0.1115">
        <ele>-7.4</ele>
        <time>2024-10-13T10:17:07Z</time>
      </trkpt>
      <trkpt lat="49.28579" lon="-0.11156">
        <ele>-7.2</ele>
        <time>2024-10-13T10:17:08Z</time>
      </trkpt>
      <trkpt lat="49.2858" lon="-0.11162">
        <ele>-7.2</ele>
        <time>2024-10-13T10:17:09Z</time>
      </trkpt>
      <trkpt lat="49.28582" lon="-0.11168">
        <ele>-7</ele>
        <time>2024-10-13T10:17:10Z</time>
      </trkpt>
      <trkpt lat="49.28583" lon="-0.11174">
        <ele>-6.8</ele>
        <time>2024-10-13T10:17:11Z</time>
      </trkpt>
      <trkpt lat="49.28585" lon="-0.1118">
        <ele>-6.8</ele>
        <time>2024-10-13T10:17:12Z</time>
      </trkpt>
      <trkpt lat="49.28587" lon="-0.11186">
        <ele>-6.6</ele>
        <time>2024-10-13T10:17:13Z</time>
      </trkpt>
      <trkpt lat="49.28588" lon="-0.11193">
        <ele>-6.4</ele>
        <time>2024-10-13T10:17:14Z</time>
      </trkpt>
      <trkpt lat="49.2859" lon="-0.11199">
        <ele>-6.4</ele>
        <time>2024-10-13T10:17:15Z</time>
      </trkpt>
      <trkpt lat="49.28591" lon="-0.11205">
        <ele>-6.2</ele>
        <time>2024-10-13T10:17:16Z</time>
      </trkpt>
      <trkpt lat="49.28593" lon="-0.11211">
        <ele>-6.2</ele>
        <time>2024-10-13T10:17:17Z</time>
      </trkpt>
      <trkpt lat="49.28595" lon="-0.11217">
        <ele>-6.2</ele>
        <time>2024-10-13T10:17:18Z</time>
      </trkpt>
      <trkpt lat="49.28597" lon="-0.11223">
        <ele>-6.2</ele>
        <time>2024-10-13T10:17:19Z</time>
      </trkpt>
      <trkpt lat="49.286" lon="-0.11229">
        <ele>-6.2</ele>
        <time>2024-10-13T10:17:20Z</time>
      </trkpt>
      <trkpt lat="49.28603" lon="-0.11235">
        <ele>-6.2</ele>
        <time>2024-10-13T10:17:21Z</time>
      </trkpt>
      <trkpt lat="49.28604" lon="-0.11242">
        <ele>-6.2</ele>
        <time>2024-10-13T10:17:22Z</time>
      </trkpt>
      <trkpt lat="49.28605" lon="-0.11249">
        <ele>-6</ele>
        <time>2024-10-13T10:17:23Z</time>
      </trkpt>
      <trkpt lat="49.28606" lon="-0.11257">
        <ele>-6</ele>
        <time>2024-10-13T10:17:24Z</time>
      </trkpt>
      <trkpt lat="49.28607" lon="-0.11264">
        <ele>-6</ele>
        <time>2024-10-13T10:17:25Z</time>
      </trkpt>
      <trkpt lat="49.28609" lon="-0.11272">
        <ele>-6</ele>
        <time>2024-10-13T10:17:26Z</time>
      </trkpt>
      <trkpt lat="49.28611" lon="-0.11279">
        <ele>-6.2</ele>
        <time>2024-10-13T10:17:27Z</time>
      </trkpt>
      <trkpt lat="49.28613" lon="-0.11287">
        <ele>-6.2</ele>
        <time>2024-10-13T10:17:28Z</time>
      </trkpt>
      <trkpt lat="49.28616" lon="-0.11296">
        <ele>-6.2</ele>
        <time>2024-10-13T10:17:29Z</time>
      </trkpt>
      <trkpt lat="49.28618" lon="-0.11304">
        <ele>-6.2</ele>
        <time>2024-10-13T10:17:30Z</time>
      </trkpt>
      <trkpt lat="49.2862" lon="-0.11313">
        <ele>-6.4</ele>
        <time>2024-10-13T10:17:31Z</time>
      </trkpt>
      <trkpt lat="49.28623" lon="-0.11322">
        <ele>-6.6</ele>
        <time>2024-10-13T10:17:32Z</time>
      </trkpt>
      <trkpt lat="49.28625" lon="-0.11331">
        <ele>-6.8</ele>
        <time>2024-10-13T10:17:33Z</time>
      </trkpt>
      <trkpt lat="49.28627" lon="-0.1134">
        <ele>-7</ele>
        <time>2024-10-13T10:17:34Z</time>
      </trkpt>
      <trkpt lat="49.2863" lon="-0.11349">
        <ele>-7.2</ele>
        <time>2024-10-13T10:17:35Z</time>
      </trkpt>
      <trkpt lat="49.28632" lon="-0.11358">
        <ele>-7.2</ele>
        <time>2024-10-13T10:17:36Z</time>
      </trkpt>
      <trkpt lat="49.28635" lon="-0.11367">
        <ele>-7.4</ele>
        <time>2024-10-13T10:17:37Z</time>
      </trkpt>
      <trkpt lat="49.28638" lon="-0.11376">
        <ele>-7.6</ele>
        <time>2024-10-13T10:17:38Z</time>
      </trkpt>
      <trkpt lat="49.2864" lon="-0.11386">
        <ele>-8</ele>
        <time>2024-10-13T10:17:39Z</time>
      </trkpt>
      <trkpt lat="49.28643" lon="-0.11395">
        <ele>-8.2</ele>
        <time>2024-10-13T10:17:40Z</time>
      </trkpt>
      <trkpt lat="49.28646" lon="-0.11405">
        <ele>-8.4</ele>
        <time>2024-10-13T10:17:41Z</time>
      </trkpt>
      <trkpt lat="49.28649" lon="-0.11415">
        <ele>-8.4</ele>
        <time>2024-10-13T10:17:42Z</time>
      </trkpt>
      <trkpt lat="49.28652" lon="-0.11425">
        <ele>-8.6</ele>
        <time>2024-10-13T10:17:43Z</time>
      </trkpt>
      <trkpt lat="49.28654" lon="-0.11435">
        <ele>-8.6</ele>
        <time>2024-10-13T10:17:44Z</time>
      </trkpt>
      <trkpt lat="49.28657" lon="-0.11445">
        <ele>-8.8</ele>
        <time>2024-10-13T10:17:45Z</time>
      </trkpt>
      <trkpt lat="49.2866" lon="-0.11454">
        <ele>-8.8</ele>
        <time>2024-10-13T10:17:46Z</time>
      </trkpt>
      <trkpt lat="49.28663" lon="-0.11464">
        <ele>-8.8</ele>
        <time>2024-10-13T10:17:47Z</time>
      </trkpt>
      <trkpt lat="49.28665" lon="-0.11473">
        <ele>-9</ele>
        <time>2024-10-13T10:17:48Z</time>
      </trkpt>
      <trkpt lat="49.28667" lon="-0.11483">
        <ele>-9</ele>
        <time>2024-10-13T10:17:49Z</time>
      </trkpt>
      <trkpt lat="49.2867" lon="-0.11491">
        <ele>-9.2</ele>
        <time>2024-10-13T10:17:50Z</time>
      </trkpt>
      <trkpt lat="49.28672" lon="-0.115">
        <ele>-9.2</ele>
        <time>2024-10-13T10:17:51Z</time>
      </trkpt>
      <trkpt lat="49.28674" lon="-0.11509">
        <ele>-9.2</ele>
        <time>2024-10-13T10:17:52Z</time>
      </trkpt>
      <trkpt lat="49.28676" lon="-0.11518">
        <ele>-9.2</ele>
        <time>2024-10-13T10:17:53Z</time>
      </trkpt>
      <trkpt lat="49.28677" lon="-0.11527">
        <ele>-9.2</ele>
        <time>2024-10-13T10:17:54Z</time>
      </trkpt>
      <trkpt lat="49.28679" lon="-0.11537">
        <ele>-9.2</ele>
        <time>2024-10-13T10:17:55Z</time>
      </trkpt>
      <trkpt lat="49.2868" lon="-0.11546">
        <ele>-9.2</ele>
        <time>2024-10-13T10:17:56Z</time>
      </trkpt>
      <trkpt lat="49.28682" lon="-0.11555">
        <ele>-9.2</ele>
        <time>2024-10-13T10:17:57Z</time>
      </trkpt>
      <trkpt lat="49.28683" lon="-0.11564">
        <ele>-9.2</ele>
        <time>2024-10-13T10:17:58Z</time>
      </trkpt>
      <trkpt lat="49.28684" lon="-0.11572">
        <ele>-9.2</ele>
        <time>2024-10-13T10:17:59Z</time>
      </trkpt>
      <trkpt lat="49.28685" lon="-0.11581">
        <ele>-9</ele>
        <time>2024-10-13T10:18:00Z</time>
      </trkpt>
      <trkpt lat="49.28686" lon="-0.11589">
        <ele>-9</ele>
        <time>2024-10-13T10:18:01Z</time>
      </trkpt>
      <trkpt lat="49.28686" lon="-0.11596">
        <ele>-9</ele>
        <time>2024-10-13T10:18:02Z</time>
      </trkpt>
      <trkpt lat="49.28686" lon="-0.11602">
        <ele>-9</ele>
        <time>2024-10-13T10:18:03Z</time>
      </trkpt>
      <trkpt lat="49.28687" lon="-0.11608">
        <ele>-9</ele>
        <time>2024-10-13T10:18:04Z</time>
      </trkpt>
      <trkpt lat="49.28687" lon="-0.11613">
        <ele>-8.8</ele>
        <time>2024-10-13T10:18:05Z</time>
      </trkpt>
      <trkpt lat="49.28687" lon="-0.11618">
        <ele>-8.8</ele>
        <time>2024-10-13T10:18:06Z</time>
      </trkpt>
      <trkpt lat="49.28687" lon="-0.11622">
        <ele>-8.8</ele>
        <time>2024-10-13T10:18:07Z</time>
      </trkpt>
      <trkpt lat="49.28687" lon="-0.11626">
        <ele>-8.6</ele>
        <time>2024-10-13T10:18:08Z</time>
      </trkpt>
      <trkpt lat="49.28688" lon="-0.11631">
        <ele>-8.6</ele>
        <time>2024-10-13T10:18:09Z</time>
      </trkpt>
      <trkpt lat="49.28688" lon="-0.11635">
        <ele>-8.6</ele>
        <time>2024-10-13T10:18:10Z</time>
      </trkpt>
      <trkpt lat="49.28688" lon="-0.11638">
        <ele>-8.4</ele>
        <time>2024-10-13T10:18:11Z</time>
      </trkpt>
      <trkpt lat="49.28688" lon="-0.1164">
        <ele>-8.2</ele>
        <time>2024-10-13T10:18:12Z</time>
      </trkpt>
      <trkpt lat="49.28688" lon="-0.11641">
        <ele>-8.2</ele>
        <time>2024-10-13T10:18:13Z</time>
      </trkpt>
      <trkpt lat="49.28688" lon="-0.11641">
        <ele>-8</ele>
        <time>2024-10-13T10:18:14Z</time>
      </trkpt>
      <trkpt lat="49.28687" lon="-0.11649">
        <ele>-7.4</ele>
        <time>2024-10-13T10:18:53Z</time>
      </trkpt>
      <trkpt lat="49.28687" lon="-0.11653">
        <ele>-7.8</ele>
        <time>2024-10-13T10:18:54Z</time>
      </trkpt>
      <trkpt lat="49.28687" lon="-0.11657">
        <ele>-7.8</ele>
        <time>2024-10-13T10:18:55Z</time>
      </trkpt>
      <trkpt lat="49.28687" lon="-0.11662">
        <ele>-7.8</ele>
        <time>2024-10-13T10:18:56Z</time>
      </trkpt>
      <trkpt lat="49.28686" lon="-0.11668">
        <ele>-7.8</ele>
        <time>2024-10-13T10:18:57Z</time>
      </trkpt>
      <trkpt lat="49.28686" lon="-0.11674">
        <ele>-7.6</ele>
        <time>2024-10-13T10:18:58Z</time>
      </trkpt>
      <trkpt lat="49.28686" lon="-0.1168">
        <ele>-7.8</ele>
        <time>2024-10-13T10:18:59Z</time>
      </trkpt>
      <trkpt lat="49.28686" lon="-0.11688">
        <ele>-7.8</ele>
        <time>2024-10-13T10:19:00Z</time>
      </trkpt>
      <trkpt lat="49.28686" lon="-0.11695">
        <ele>-7.8</ele>
        <time>2024-10-13T10:19:01Z</time>
      </trkpt>
      <trkpt lat="49.28686" lon="-0.11704">
        <ele>-7.8</ele>
        <time>2024-10-13T10:19:02Z</time>
      </trkpt>
      <trkpt lat="49.28685" lon="-0.11712">
        <ele>-7.8</ele>
        <time>2024-10-13T10:19:03Z</time>
      </trkpt>
      <trkpt lat="49.28685" lon="-0.1172">
        <ele>-7.8</ele>
        <time>2024-10-13T10:19:04Z</time>
      </trkpt>
      <trkpt lat="49.28685" lon="-0.11729">
        <ele>-8</ele>
        <time>2024-10-13T10:19:05Z</time>
      </trkpt>
      <trkpt lat="49.28685" lon="-0.11737">
        <ele>-8.2</ele>
        <time>2024-10-13T10:19:06Z</time>
      </trkpt>
      <trkpt lat="49.28685" lon="-0.11746">
        <ele>-8.2</ele>
        <time>2024-10-13T10:19:07Z</time>
      </trkpt>
      <trkpt lat="49.28684" lon="-0.11755">
        <ele>-8.2</ele>
        <time>2024-10-13T10:19:08Z</time>
      </trkpt>
      <trkpt lat="49.28684" lon="-0.11764">
        <ele>-8.4</ele>
        <time>2024-10-13T10:19:09Z</time>
      </trkpt>
      <trkpt lat="49.28683" lon="-0.11773">
        <ele>-8.6</ele>
        <time>2024-10-13T10:19:10Z</time>
      </trkpt>
      <trkpt lat="49.28682" lon="-0.11781">
        <ele>-8.6</ele>
        <time>2024-10-13T10:19:11Z</time>
      </trkpt>
      <trkpt lat="49.28682" lon="-0.1179">
        <ele>-8.8</ele>
        <time>2024-10-13T10:19:12Z</time>
      </trkpt>
      <trkpt lat="49.28681" lon="-0.11798">
        <ele>-8.8</ele>
        <time>2024-10-13T10:19:13Z</time>
      </trkpt>
      <trkpt lat="49.2868" lon="-0.11807">
        <ele>-8.8</ele>
        <time>2024-10-13T10:19:14Z</time>
      </trkpt>
      <trkpt lat="49.28679" lon="-0.11815">
        <ele>-9</ele>
        <time>2024-10-13T10:19:15Z</time>
      </trkpt>
      <trkpt lat="49.28679" lon="-0.11824">
        <ele>-9</ele>
        <time>2024-10-13T10:19:16Z</time>
      </trkpt>
      <trkpt lat="49.28678" lon="-0.11832">
        <ele>-9</ele>
        <time>2024-10-13T10:19:17Z</time>
      </trkpt>
      <trkpt lat="49.28676" lon="-0.1184">
        <ele>-9</ele>
        <time>2024-10-13T10:19:18Z</time>
      </trkpt>
      <trkpt lat="49.28675" lon="-0.11848">
        <ele>-9</ele>
        <time>2024-10-13T10:19:19Z</time>
      </trkpt>
      <trkpt lat="49.28674" lon="-0.11856">
        <ele>-9.2</ele>
        <time>2024-10-13T10:19:20Z</time>
      </trkpt>
      <trkpt lat="49.28672" lon="-0.11863">
        <ele>-9.2</ele>
        <time>2024-10-13T10:19:21Z</time>
      </trkpt>
      <trkpt lat="49.2867" lon="-0.1187">
        <ele>-9.2</ele>
        <time>2024-10-13T10:19:22Z</time>
      </trkpt>
      <trkpt lat="49.28668" lon="-0.11876">
        <ele>-9.2</ele>
        <time>2024-10-13T10:19:23Z</time>
      </trkpt>
      <trkpt lat="49.28664" lon="-0.1188">
        <ele>-9.2</ele>
        <time>2024-10-13T10:19:24Z</time>
      </trkpt>
      <trkpt lat="49.2866" lon="-0.11884">
        <ele>-9.2</ele>
        <time>2024-10-13T10:19:25Z</time>
      </trkpt>
      <trkpt lat="49.28656" lon="-0.11886">
        <ele>-9.2</ele>
        <time>2024-10-13T10:19:26Z</time>
      </trkpt>
      <trkpt lat="49.28652" lon="-0.11888">
        <ele>-9.2</ele>
        <time>2024-10-13T10:19:27Z</time>
      </trkpt>
      <trkpt lat="49.28649" lon="-0.11891">
        <ele>-9.2</ele>
        <time>2024-10-13T10:19:28Z</time>
      </trkpt>
      <trkpt lat="49.28647" lon="-0.11893">
        <ele>-9</ele>
        <time>2024-10-13T10:19:29Z</time>
      </trkpt>
      <trkpt lat="49.28644" lon="-0.11896">
        <ele>-9</ele>
        <time>2024-10-13T10:19:30Z</time>
      </trkpt>
      <trkpt lat="49.28642" lon="-0.11899">
        <ele>-8.8</ele>
        <time>2024-10-13T10:19:31Z</time>
      </trkpt>
      <trkpt lat="49.28641" lon="-0.11902">
        <ele>-8.8</ele>
        <time>2024-10-13T10:19:32Z</time>
      </trkpt>
      <trkpt lat="49.2864" lon="-0.11906">
        <ele>-8.8</ele>
        <time>2024-10-13T10:19:33Z</time>
      </trkpt>
      <trkpt lat="49.28639" lon="-0.11909">
        <ele>-8.8</ele>
        <time>2024-10-13T10:19:34Z</time>
      </trkpt>
      <trkpt lat="49.28638" lon="-0.11913">
        <ele>-8.6</ele>
        <time>2024-10-13T10:19:35Z</time>
      </trkpt>
      <trkpt lat="49.28639" lon="-0.11917">
        <ele>-8.6</ele>
        <time>2024-10-13T10:19:36Z</time>
      </trkpt>
      <trkpt lat="49.2864" lon="-0.11919">
        <ele>-8.4</ele>
        <time>2024-10-13T10:19:37Z</time>
      </trkpt>
      <trkpt lat="49.28641" lon="-0.11921">
        <ele>-8.4</ele>
        <time>2024-10-13T10:19:38Z</time>
      </trkpt>
      <trkpt lat="49.28643" lon="-0.11922">
        <ele>-8.4</ele>
        <time>2024-10-13T10:19:39Z</time>
      </trkpt>
      <trkpt lat="49.28644" lon="-0.11923">
        <ele>-8.4</ele>
        <time>2024-10-13T10:19:40Z</time>
      </trkpt>
      <trkpt lat="49.28645" lon="-0.11924">
        <ele>-8.4</ele>
        <time>2024-10-13T10:19:41Z</time>
      </trkpt>
      <trkpt lat="49.28645" lon="-0.11924">
        <ele>-8.2</ele>
        <time>2024-10-13T10:19:42Z</time>
      </trkpt>
    </trkseg>
  </trk>
</gpx>